<?xml version='1.0' encoding='UTF-8'?><gpx version="1.1" creator="JPX - https://github.com/jenetics/jpx" xmlns="http://www.topografix.com/GPX/1/1"><trk><trkseg><trkpt lat="43.94153" lon="12.7458517"><ele>15.0</ele><time>2026-04-06T09:54:17.684Z</time></trkpt><trkpt lat="43.9414233" lon="12.7457183"><ele>15.0</ele><time>2026-04-06T09:54:18.684Z</time></trkpt><trkpt lat="43.9413133" lon="12.745585"><ele>15.0</ele><time>2026-04-06T09:54:19.684Z</time></trkpt><trkpt lat="43.9412067" lon="12.74544"><ele>15.0</ele><time>2026-04-06T09:54:20.684Z</time></trkpt><trkpt lat="43.9410883" lon="12.7452967"><ele>15.0</ele><time>2026-04-06T09:54:21.685Z</time></trkpt><trkpt lat="43.94097" lon="12.7451433"><ele>15.0</ele><time>2026-04-06T09:54:22.686Z</time></trkpt><trkpt lat="43.9408517" lon="12.7449917"><ele>15.0</ele><time>2026-04-06T09:54:23.684Z</time></trkpt><trkpt lat="43.9407333" lon="12.7448417"><ele>15.0</ele><time>2026-04-06T09:54:24.684Z</time></trkpt><trkpt lat="43.94061" lon="12.7446917"><ele>15.0</ele><time>2026-04-06T09:54:25.684Z</time></trkpt><trkpt lat="43.9404917" lon="12.744535"><ele>15.0</ele><time>2026-04-06T09:54:26.683Z</time></trkpt><trkpt lat="43.9403717" lon="12.7443783"><ele>15.0</ele><time>2026-04-06T09:54:27.684Z</time></trkpt><trkpt lat="43.9402533" lon="12.74422"><ele>15.0</ele><time>2026-04-06T09:54:28.687Z</time></trkpt><trkpt lat="43.940135" lon="12.74406"><ele>15.0</ele><time>2026-04-06T09:54:29.685Z</time></trkpt><trkpt lat="43.9400133" lon="12.7439"><ele>15.333333333333332</ele><time>2026-04-06T09:54:30.686Z</time></trkpt><trkpt lat="43.9398917" lon="12.743735"><ele>15.666666666666666</ele><time>2026-04-06T09:54:31.685Z</time></trkpt><trkpt lat="43.9397683" lon="12.7435717"><ele>16.0</ele><time>2026-04-06T09:54:32.683Z</time></trkpt><trkpt lat="43.93965" lon="12.7434083"><ele>16.0</ele><time>2026-04-06T09:54:33.684Z</time></trkpt><trkpt lat="43.9395267" lon="12.743245"><ele>16.0</ele><time>2026-04-06T09:54:34.685Z</time></trkpt><trkpt lat="43.9394033" lon="12.743085"><ele>16.0</ele><time>2026-04-06T09:54:35.686Z</time></trkpt><trkpt lat="43.9392833" lon="12.7429233"><ele>16.333333333333332</ele><time>2026-04-06T09:54:36.686Z</time></trkpt><trkpt lat="43.9391617" lon="12.742765"><ele>16.666666666666668</ele><time>2026-04-06T09:54:37.686Z</time></trkpt><trkpt lat="43.9390467" lon="12.7426033"><ele>17.0</ele><time>2026-04-06T09:54:38.684Z</time></trkpt><trkpt lat="43.9389417" lon="12.7424433"><ele>17.0</ele><time>2026-04-06T09:54:39.685Z</time></trkpt><trkpt lat="43.93886" lon="12.7422767"><ele>17.0</ele><time>2026-04-06T09:54:40.686Z</time></trkpt><trkpt lat="43.9388" lon="12.7421067"><ele>17.0</ele><time>2026-04-06T09:54:41.684Z</time></trkpt><trkpt lat="43.9387583" lon="12.74195"><ele>17.0</ele><time>2026-04-06T09:54:42.684Z</time></trkpt><trkpt lat="43.9387267" lon="12.741805"><ele>16.6</ele><time>2026-04-06T09:54:43.686Z</time></trkpt><trkpt lat="43.9387033" lon="12.7416783"><ele>16.2</ele><time>2026-04-06T09:54:44.683Z</time></trkpt><trkpt lat="43.93869" lon="12.7415617"><ele>15.8</ele><time>2026-04-06T09:54:45.685Z</time></trkpt><trkpt lat="43.9386683" lon="12.7414633"><ele>15.4</ele><time>2026-04-06T09:54:46.685Z</time></trkpt><trkpt lat="43.93862" lon="12.7413267"><ele>15.0</ele><time>2026-04-06T09:54:48.686Z</time></trkpt><trkpt lat="43.93849" lon="12.741325"><ele>16.0</ele><time>2026-04-06T09:54:50.684Z</time></trkpt><trkpt lat="43.938375" lon="12.7413483"><ele>17.0</ele><time>2026-04-06T09:54:51.684Z</time></trkpt><trkpt lat="43.9381133" lon="12.7413633"><ele>18.0</ele><time>2026-04-06T09:54:53.684Z</time></trkpt><trkpt lat="43.93798" lon="12.7413583"><ele>18.0</ele><time>2026-04-06T09:54:54.684Z</time></trkpt><trkpt lat="43.93785" lon="12.741345"><ele>18.0</ele><time>2026-04-06T09:54:55.685Z</time></trkpt><trkpt lat="43.9377117" lon="12.7413417"><ele>18.0</ele><time>2026-04-06T09:54:56.683Z</time></trkpt><trkpt lat="43.9375617" lon="12.74136"><ele>18.0</ele><time>2026-04-06T09:54:57.684Z</time></trkpt><trkpt lat="43.9374133" lon="12.7414133"><ele>19.666666666666668</ele><time>2026-04-06T09:54:58.686Z</time></trkpt><trkpt lat="43.9372633" lon="12.74148"><ele>21.333333333333336</ele><time>2026-04-06T09:54:59.684Z</time></trkpt><trkpt lat="43.93711" lon="12.7415383"><ele>23.0</ele><time>2026-04-06T09:55:00.677Z</time></trkpt><trkpt lat="43.9369483" lon="12.7415517"><ele>23.0</ele><time>2026-04-06T09:55:01.686Z</time></trkpt><trkpt lat="43.93679" lon="12.741515"><ele>23.0</ele><time>2026-04-06T09:55:02.684Z</time></trkpt><trkpt lat="43.9366317" lon="12.7414517"><ele>23.0</ele><time>2026-04-06T09:55:03.683Z</time></trkpt><trkpt lat="43.936465" lon="12.7414033"><ele>26.333333333333336</ele><time>2026-04-06T09:55:04.685Z</time></trkpt><trkpt lat="43.936305" lon="12.74137"><ele>29.666666666666668</ele><time>2026-04-06T09:55:05.686Z</time></trkpt><trkpt lat="43.9361483" lon="12.74135"><ele>33.0</ele><time>2026-04-06T09:55:06.685Z</time></trkpt><trkpt lat="43.9359933" lon="12.74135"><ele>35.2</ele><time>2026-04-06T09:55:07.686Z</time></trkpt><trkpt lat="43.93586" lon="12.7413633"><ele>37.4</ele><time>2026-04-06T09:55:08.686Z</time></trkpt><trkpt lat="43.9357417" lon="12.7413917"><ele>39.6</ele><time>2026-04-06T09:55:09.685Z</time></trkpt><trkpt lat="43.9356433" lon="12.74142"><ele>41.800000000000004</ele><time>2026-04-06T09:55:10.685Z</time></trkpt><trkpt lat="43.9355533" lon="12.7414433"><ele>44.0</ele><time>2026-04-06T09:55:11.684Z</time></trkpt><trkpt lat="43.935455" lon="12.7414683"><ele>44.0</ele><time>2026-04-06T09:55:12.686Z</time></trkpt><trkpt lat="43.935345" lon="12.741485"><ele>44.0</ele><time>2026-04-06T09:55:13.685Z</time></trkpt><trkpt lat="43.9352267" lon="12.7414983"><ele>44.0</ele><time>2026-04-06T09:55:14.685Z</time></trkpt><trkpt lat="43.9351033" lon="12.741515"><ele>44.0</ele><time>2026-04-06T09:55:15.684Z</time></trkpt><trkpt lat="43.9349783" lon="12.7415333"><ele>43.25</ele><time>2026-04-06T09:55:16.685Z</time></trkpt><trkpt lat="43.93486" lon="12.7415367"><ele>42.5</ele><time>2026-04-06T09:55:17.685Z</time></trkpt><trkpt lat="43.934735" lon="12.74153"><ele>41.75</ele><time>2026-04-06T09:55:18.685Z</time></trkpt><trkpt lat="43.934605" lon="12.74151"><ele>41.0</ele><time>2026-04-06T09:55:19.687Z</time></trkpt><trkpt lat="43.9344633" lon="12.741485"><ele>41.0</ele><time>2026-04-06T09:55:20.685Z</time></trkpt><trkpt lat="43.934325" lon="12.7414567"><ele>41.0</ele><time>2026-04-06T09:55:21.686Z</time></trkpt><trkpt lat="43.9341867" lon="12.7414267"><ele>41.0</ele><time>2026-04-06T09:55:22.686Z</time></trkpt><trkpt lat="43.9340533" lon="12.7414033"><ele>41.0</ele><time>2026-04-06T09:55:23.684Z</time></trkpt><trkpt lat="43.9339367" lon="12.7413717"><ele>39.25</ele><time>2026-04-06T09:55:24.686Z</time></trkpt><trkpt lat="43.93382" lon="12.7413383"><ele>37.5</ele><time>2026-04-06T09:55:25.687Z</time></trkpt><trkpt lat="43.9337033" lon="12.7413033"><ele>35.75</ele><time>2026-04-06T09:55:26.683Z</time></trkpt><trkpt lat="43.9335817" lon="12.7412733"><ele>34.0</ele><time>2026-04-06T09:55:27.686Z</time></trkpt><trkpt lat="43.933455" lon="12.7412617"><ele>33.25</ele><time>2026-04-06T09:55:28.687Z</time></trkpt><trkpt lat="43.9333233" lon="12.7412683"><ele>32.5</ele><time>2026-04-06T09:55:29.685Z</time></trkpt><trkpt lat="43.9331883" lon="12.7413017"><ele>31.75</ele><time>2026-04-06T09:55:30.686Z</time></trkpt><trkpt lat="43.9330533" lon="12.7413417"><ele>31.0</ele><time>2026-04-06T09:55:31.686Z</time></trkpt><trkpt lat="43.9329267" lon="12.7413833"><ele>31.0</ele><time>2026-04-06T09:55:32.683Z</time></trkpt><trkpt lat="43.93281" lon="12.7414117"><ele>31.0</ele><time>2026-04-06T09:55:33.685Z</time></trkpt><trkpt lat="43.9327033" lon="12.7414167"><ele>31.0</ele><time>2026-04-06T09:55:34.685Z</time></trkpt><trkpt lat="43.9325967" lon="12.7413967"><ele>31.0</ele><time>2026-04-06T09:55:35.685Z</time></trkpt><trkpt lat="43.932485" lon="12.7413467"><ele>30.25</ele><time>2026-04-06T09:55:36.687Z</time></trkpt><trkpt lat="43.9323667" lon="12.741275"><ele>29.5</ele><time>2026-04-06T09:55:37.687Z</time></trkpt><trkpt lat="43.9322433" lon="12.741185"><ele>28.75</ele><time>2026-04-06T09:55:38.685Z</time></trkpt><trkpt lat="43.93212" lon="12.7410883"><ele>28.0</ele><time>2026-04-06T09:55:39.686Z</time></trkpt><trkpt lat="43.9319917" lon="12.7409883"><ele>27.75</ele><time>2026-04-06T09:55:40.687Z</time></trkpt><trkpt lat="43.931865" lon="12.74088"><ele>27.5</ele><time>2026-04-06T09:55:41.686Z</time></trkpt><trkpt lat="43.9317533" lon="12.74077"><ele>27.25</ele><time>2026-04-06T09:55:42.686Z</time></trkpt><trkpt lat="43.9316567" lon="12.74066"><ele>27.0</ele><time>2026-04-06T09:55:43.687Z</time></trkpt><trkpt lat="43.931575" lon="12.740555"><ele>26.833333333333332</ele><time>2026-04-06T09:55:44.687Z</time></trkpt><trkpt lat="43.9315067" lon="12.7404567"><ele>26.666666666666664</ele><time>2026-04-06T09:55:45.686Z</time></trkpt><trkpt lat="43.93144" lon="12.7403817"><ele>26.5</ele><time>2026-04-06T09:55:46.686Z</time></trkpt><trkpt lat="43.931375" lon="12.7403233"><ele>26.333333333333332</ele><time>2026-04-06T09:55:47.686Z</time></trkpt><trkpt lat="43.9313083" lon="12.74029"><ele>26.166666666666664</ele><time>2026-04-06T09:55:48.686Z</time></trkpt><trkpt lat="43.9312383" lon="12.74029"><ele>26.0</ele><time>2026-04-06T09:55:49.685Z</time></trkpt><trkpt lat="43.9311667" lon="12.7403133"><ele>26.0</ele><time>2026-04-06T09:55:50.684Z</time></trkpt><trkpt lat="43.9310783" lon="12.74035"><ele>26.0</ele><time>2026-04-06T09:55:51.685Z</time></trkpt><trkpt lat="43.9309567" lon="12.740405"><ele>26.0</ele><time>2026-04-06T09:55:52.685Z</time></trkpt><trkpt lat="43.9308233" lon="12.7404483"><ele>26.0</ele><time>2026-04-06T09:55:53.685Z</time></trkpt><trkpt lat="43.93068" lon="12.74048"><ele>26.25</ele><time>2026-04-06T09:55:54.686Z</time></trkpt><trkpt lat="43.9305367" lon="12.7404867"><ele>26.5</ele><time>2026-04-06T09:55:55.687Z</time></trkpt><trkpt lat="43.93039" lon="12.7404967"><ele>26.75</ele><time>2026-04-06T09:55:56.684Z</time></trkpt><trkpt lat="43.93024" lon="12.74051"><ele>27.0</ele><time>2026-04-06T09:55:57.685Z</time></trkpt><trkpt lat="43.9300917" lon="12.74052"><ele>28.0</ele><time>2026-04-06T09:55:58.684Z</time></trkpt><trkpt lat="43.9299367" lon="12.7405467"><ele>29.0</ele><time>2026-04-06T09:55:59.685Z</time></trkpt><trkpt lat="43.929785" lon="12.7405833"><ele>30.0</ele><time>2026-04-06T09:56:00.686Z</time></trkpt><trkpt lat="43.9296233" lon="12.7406267"><ele>30.0</ele><time>2026-04-06T09:56:01.687Z</time></trkpt><trkpt lat="43.9294633" lon="12.7406733"><ele>30.0</ele><time>2026-04-06T09:56:02.684Z</time></trkpt><trkpt lat="43.9292983" lon="12.7407167"><ele>30.0</ele><time>2026-04-06T09:56:03.678Z</time></trkpt><trkpt lat="43.9291467" lon="12.740745"><ele>30.0</ele><time>2026-04-06T09:56:04.679Z</time></trkpt><trkpt lat="43.9289967" lon="12.7407633"><ele>30.0</ele><time>2026-04-06T09:56:05.685Z</time></trkpt><trkpt lat="43.9288517" lon="12.7407617"><ele>30.0</ele><time>2026-04-06T09:56:06.684Z</time></trkpt><trkpt lat="43.9287183" lon="12.7407533"><ele>30.0</ele><time>2026-04-06T09:56:07.685Z</time></trkpt><trkpt lat="43.928605" lon="12.7407333"><ele>30.0</ele><time>2026-04-06T09:56:08.684Z</time></trkpt><trkpt lat="43.92852" lon="12.7407033"><ele>30.0</ele><time>2026-04-06T09:56:09.684Z</time></trkpt><trkpt lat="43.928455" lon="12.74067"><ele>30.0</ele><time>2026-04-06T09:56:10.687Z</time></trkpt><trkpt lat="43.9283533" lon="12.74058"><ele>30.0</ele><time>2026-04-06T09:56:12.687Z</time></trkpt><trkpt lat="43.9283033" lon="12.7405067"><ele>30.0</ele><time>2026-04-06T09:56:13.685Z</time></trkpt><trkpt lat="43.9282467" lon="12.7404167"><ele>30.0</ele><time>2026-04-06T09:56:14.683Z</time></trkpt><trkpt lat="43.92818" lon="12.7402917"><ele>29.75</ele><time>2026-04-06T09:56:15.684Z</time></trkpt><trkpt lat="43.9280867" lon="12.74014"><ele>29.5</ele><time>2026-04-06T09:56:16.685Z</time></trkpt><trkpt lat="43.927995" lon="12.7399833"><ele>29.25</ele><time>2026-04-06T09:56:17.684Z</time></trkpt><trkpt lat="43.9278967" lon="12.7398083"><ele>29.0</ele><time>2026-04-06T09:56:18.686Z</time></trkpt><trkpt lat="43.927785" lon="12.7396133"><ele>29.0</ele><time>2026-04-06T09:56:19.685Z</time></trkpt><trkpt lat="43.927665" lon="12.739415"><ele>29.0</ele><time>2026-04-06T09:56:20.685Z</time></trkpt><trkpt lat="43.927545" lon="12.7392117"><ele>29.0</ele><time>2026-04-06T09:56:21.685Z</time></trkpt><trkpt lat="43.9274233" lon="12.7390083"><ele>28.666666666666664</ele><time>2026-04-06T09:56:22.688Z</time></trkpt><trkpt lat="43.9273033" lon="12.7387917"><ele>28.333333333333336</ele><time>2026-04-06T09:56:23.686Z</time></trkpt><trkpt lat="43.9271733" lon="12.7385783"><ele>28.0</ele><time>2026-04-06T09:56:24.686Z</time></trkpt><trkpt lat="43.9270383" lon="12.738365"><ele>28.0</ele><time>2026-04-06T09:56:25.687Z</time></trkpt><trkpt lat="43.92689" lon="12.7381683"><ele>28.0</ele><time>2026-04-06T09:56:26.684Z</time></trkpt><trkpt lat="43.9267233" lon="12.73799"><ele>28.0</ele><time>2026-04-06T09:56:27.686Z</time></trkpt><trkpt lat="43.9265367" lon="12.7378417"><ele>27.333333333333336</ele><time>2026-04-06T09:56:28.686Z</time></trkpt><trkpt lat="43.9263417" lon="12.7377183"><ele>26.666666666666664</ele><time>2026-04-06T09:56:29.684Z</time></trkpt><trkpt lat="43.926145" lon="12.7376067"><ele>26.0</ele><time>2026-04-06T09:56:30.686Z</time></trkpt><trkpt lat="43.9259433" lon="12.73751"><ele>26.333333333333332</ele><time>2026-04-06T09:56:31.687Z</time></trkpt><trkpt lat="43.9257417" lon="12.7374333"><ele>26.666666666666664</ele><time>2026-04-06T09:56:32.685Z</time></trkpt><trkpt lat="43.9255467" lon="12.7373683"><ele>27.0</ele><time>2026-04-06T09:56:33.683Z</time></trkpt><trkpt lat="43.92537" lon="12.7372867"><ele>27.0</ele><time>2026-04-06T09:56:34.687Z</time></trkpt><trkpt lat="43.9252167" lon="12.7371717"><ele>27.0</ele><time>2026-04-06T09:56:35.686Z</time></trkpt><trkpt lat="43.925085" lon="12.73702"><ele>27.0</ele><time>2026-04-06T09:56:36.684Z</time></trkpt><trkpt lat="43.92499" lon="12.7368283"><ele>28.0</ele><time>2026-04-06T09:56:37.687Z</time></trkpt><trkpt lat="43.9249317" lon="12.7366033"><ele>29.0</ele><time>2026-04-06T09:56:38.684Z</time></trkpt><trkpt lat="43.924895" lon="12.7363617"><ele>30.0</ele><time>2026-04-06T09:56:39.684Z</time></trkpt><trkpt lat="43.9248833" lon="12.736105"><ele>29.666666666666664</ele><time>2026-04-06T09:56:40.685Z</time></trkpt><trkpt lat="43.9248717" lon="12.73584"><ele>29.333333333333332</ele><time>2026-04-06T09:56:41.685Z</time></trkpt><trkpt lat="43.9248433" lon="12.73558"><ele>29.0</ele><time>2026-04-06T09:56:42.685Z</time></trkpt><trkpt lat="43.9248067" lon="12.7353167"><ele>28.333333333333332</ele><time>2026-04-06T09:56:43.686Z</time></trkpt><trkpt lat="43.9247533" lon="12.7350617"><ele>27.666666666666664</ele><time>2026-04-06T09:56:44.683Z</time></trkpt><trkpt lat="43.92469" lon="12.7348117"><ele>27.0</ele><time>2026-04-06T09:56:45.685Z</time></trkpt><trkpt lat="43.924605" lon="12.7345717"><ele>27.0</ele><time>2026-04-06T09:56:46.685Z</time></trkpt><trkpt lat="43.92451" lon="12.7343467"><ele>27.0</ele><time>2026-04-06T09:56:47.684Z</time></trkpt><trkpt lat="43.9244017" lon="12.7341483"><ele>27.0</ele><time>2026-04-06T09:56:48.685Z</time></trkpt><trkpt lat="43.924275" lon="12.7339733"><ele>28.333333333333336</ele><time>2026-04-06T09:56:49.687Z</time></trkpt><trkpt lat="43.92413" lon="12.73382"><ele>29.666666666666668</ele><time>2026-04-06T09:56:50.684Z</time></trkpt><trkpt lat="43.9239683" lon="12.7337"><ele>31.0</ele><time>2026-04-06T09:56:51.685Z</time></trkpt><trkpt lat="43.92379" lon="12.7336117"><ele>31.0</ele><time>2026-04-06T09:56:52.685Z</time></trkpt><trkpt lat="43.9236017" lon="12.7335583"><ele>31.0</ele><time>2026-04-06T09:56:53.685Z</time></trkpt><trkpt lat="43.9234067" lon="12.7335167"><ele>31.0</ele><time>2026-04-06T09:56:54.685Z</time></trkpt><trkpt lat="43.9232083" lon="12.7334733"><ele>31.666666666666668</ele><time>2026-04-06T09:56:55.686Z</time></trkpt><trkpt lat="43.9230133" lon="12.7334133"><ele>32.333333333333336</ele><time>2026-04-06T09:56:56.687Z</time></trkpt><trkpt lat="43.922825" lon="12.7333433"><ele>33.0</ele><time>2026-04-06T09:56:57.685Z</time></trkpt><trkpt lat="43.9226467" lon="12.7332617"><ele>34.0</ele><time>2026-04-06T09:56:58.684Z</time></trkpt><trkpt lat="43.9224883" lon="12.73318"><ele>35.0</ele><time>2026-04-06T09:56:59.684Z</time></trkpt><trkpt lat="43.922365" lon="12.73311"><ele>36.0</ele><time>2026-04-06T09:57:00.685Z</time></trkpt><trkpt lat="43.9222683" lon="12.7330617"><ele>37.0</ele><time>2026-04-06T09:57:01.686Z</time></trkpt><trkpt lat="43.9221817" lon="12.7330367"><ele>37.0</ele><time>2026-04-06T09:57:02.683Z</time></trkpt><trkpt lat="43.9220883" lon="12.7330083"><ele>37.0</ele><time>2026-04-06T09:57:03.686Z</time></trkpt><trkpt lat="43.9219833" lon="12.7329667"><ele>37.0</ele><time>2026-04-06T09:57:04.686Z</time></trkpt><trkpt lat="43.92187" lon="12.7329233"><ele>37.0</ele><time>2026-04-06T09:57:05.685Z</time></trkpt><trkpt lat="43.92176" lon="12.7328817"><ele>37.0</ele><time>2026-04-06T09:57:06.685Z</time></trkpt><trkpt lat="43.9216617" lon="12.732835"><ele>36.6</ele><time>2026-04-06T09:57:07.686Z</time></trkpt><trkpt lat="43.9215733" lon="12.732785"><ele>36.2</ele><time>2026-04-06T09:57:08.683Z</time></trkpt><trkpt lat="43.9214917" lon="12.7327267"><ele>35.8</ele><time>2026-04-06T09:57:09.686Z</time></trkpt><trkpt lat="43.9213983" lon="12.7326517"><ele>35.4</ele><time>2026-04-06T09:57:10.685Z</time></trkpt><trkpt lat="43.9212883" lon="12.73256"><ele>35.0</ele><time>2026-04-06T09:57:11.683Z</time></trkpt><trkpt lat="43.9211617" lon="12.7324617"><ele>33.666666666666664</ele><time>2026-04-06T09:57:12.685Z</time></trkpt><trkpt lat="43.9210183" lon="12.7323617"><ele>32.333333333333336</ele><time>2026-04-06T09:57:13.685Z</time></trkpt><trkpt lat="43.920865" lon="12.7322667"><ele>31.0</ele><time>2026-04-06T09:57:14.685Z</time></trkpt><trkpt lat="43.920695" lon="12.7321833"><ele>31.0</ele><time>2026-04-06T09:57:15.685Z</time></trkpt><trkpt lat="43.9205117" lon="12.7321267"><ele>31.0</ele><time>2026-04-06T09:57:16.685Z</time></trkpt><trkpt lat="43.920315" lon="12.7320983"><ele>31.0</ele><time>2026-04-06T09:57:17.685Z</time></trkpt><trkpt lat="43.9201133" lon="12.73209"><ele>31.333333333333336</ele><time>2026-04-06T09:57:18.686Z</time></trkpt><trkpt lat="43.919905" lon="12.73209"><ele>31.666666666666664</ele><time>2026-04-06T09:57:19.687Z</time></trkpt><trkpt lat="43.9196967" lon="12.7320967"><ele>32.0</ele><time>2026-04-06T09:57:20.685Z</time></trkpt><trkpt lat="43.9194983" lon="12.73211"><ele>32.0</ele><time>2026-04-06T09:57:21.685Z</time></trkpt><trkpt lat="43.9193083" lon="12.73214"><ele>32.0</ele><time>2026-04-06T09:57:22.686Z</time></trkpt><trkpt lat="43.919125" lon="12.7321933"><ele>32.0</ele><time>2026-04-06T09:57:23.686Z</time></trkpt><trkpt lat="43.9189567" lon="12.7322833"><ele>32.0</ele><time>2026-04-06T09:57:24.687Z</time></trkpt><trkpt lat="43.9187967" lon="12.73241"><ele>32.0</ele><time>2026-04-06T09:57:25.685Z</time></trkpt><trkpt lat="43.9186367" lon="12.7325567"><ele>32.0</ele><time>2026-04-06T09:57:26.683Z</time></trkpt><trkpt lat="43.9184717" lon="12.7327117"><ele>32.33333333333333</ele><time>2026-04-06T09:57:27.685Z</time></trkpt><trkpt lat="43.9183033" lon="12.7328683"><ele>32.666666666666664</ele><time>2026-04-06T09:57:28.686Z</time></trkpt><trkpt lat="43.918135" lon="12.7330167"><ele>33.0</ele><time>2026-04-06T09:57:29.684Z</time></trkpt><trkpt lat="43.9179617" lon="12.7331683"><ele>33.0</ele><time>2026-04-06T09:57:30.686Z</time></trkpt><trkpt lat="43.917785" lon="12.7333017"><ele>33.0</ele><time>2026-04-06T09:57:31.686Z</time></trkpt><trkpt lat="43.9176067" lon="12.7334183"><ele>33.0</ele><time>2026-04-06T09:57:32.687Z</time></trkpt><trkpt lat="43.9174333" lon="12.7335217"><ele>33.666666666666664</ele><time>2026-04-06T09:57:33.685Z</time></trkpt><trkpt lat="43.91727" lon="12.7336017"><ele>34.33333333333333</ele><time>2026-04-06T09:57:34.686Z</time></trkpt><trkpt lat="43.9171067" lon="12.73365"><ele>35.0</ele><time>2026-04-06T09:57:35.684Z</time></trkpt><trkpt lat="43.91694" lon="12.73367"><ele>35.0</ele><time>2026-04-06T09:57:36.684Z</time></trkpt><trkpt lat="43.9167667" lon="12.7336667"><ele>35.0</ele><time>2026-04-06T09:57:37.686Z</time></trkpt><trkpt lat="43.9165883" lon="12.7336333"><ele>35.0</ele><time>2026-04-06T09:57:38.684Z</time></trkpt><trkpt lat="43.9164083" lon="12.73357"><ele>35.0</ele><time>2026-04-06T09:57:39.685Z</time></trkpt><trkpt lat="43.91623" lon="12.733495"><ele>35.0</ele><time>2026-04-06T09:57:40.686Z</time></trkpt><trkpt lat="43.916055" lon="12.73341"><ele>35.0</ele><time>2026-04-06T09:57:41.685Z</time></trkpt><trkpt lat="43.9158817" lon="12.7333117"><ele>34.666666666666664</ele><time>2026-04-06T09:57:42.685Z</time></trkpt><trkpt lat="43.915715" lon="12.7331983"><ele>34.333333333333336</ele><time>2026-04-06T09:57:43.687Z</time></trkpt><trkpt lat="43.9155517" lon="12.7330817"><ele>34.0</ele><time>2026-04-06T09:57:44.684Z</time></trkpt><trkpt lat="43.91539" lon="12.732965"><ele>34.0</ele><time>2026-04-06T09:57:45.685Z</time></trkpt><trkpt lat="43.91523" lon="12.732855"><ele>34.0</ele><time>2026-04-06T09:57:46.685Z</time></trkpt><trkpt lat="43.9150783" lon="12.732755"><ele>34.0</ele><time>2026-04-06T09:57:47.683Z</time></trkpt><trkpt lat="43.9149383" lon="12.7326583"><ele>34.2</ele><time>2026-04-06T09:57:48.684Z</time></trkpt><trkpt lat="43.9148133" lon="12.7325733"><ele>34.4</ele><time>2026-04-06T09:57:49.686Z</time></trkpt><trkpt lat="43.9147117" lon="12.7324967"><ele>34.6</ele><time>2026-04-06T09:57:50.684Z</time></trkpt><trkpt lat="43.9146417" lon="12.7324317"><ele>34.8</ele><time>2026-04-06T09:57:51.685Z</time></trkpt><trkpt lat="43.9145867" lon="12.7323867"><ele>35.0</ele><time>2026-04-06T09:57:52.687Z</time></trkpt><trkpt lat="43.9145633" lon="12.7322767"><ele>35.0</ele><time>2026-04-06T09:57:54.686Z</time></trkpt><trkpt lat="43.9146833" lon="12.7321667"><ele>35.0</ele><time>2026-04-06T09:57:56.684Z</time></trkpt><trkpt lat="43.9148117" lon="12.7321167"><ele>35.0</ele><time>2026-04-06T09:57:57.685Z</time></trkpt><trkpt lat="43.9149917" lon="12.7320483"><ele>35.0</ele><time>2026-04-06T09:57:58.688Z</time></trkpt><trkpt lat="43.915185" lon="12.73195"><ele>35.0</ele><time>2026-04-06T09:57:59.684Z</time></trkpt><trkpt lat="43.9153567" lon="12.7318267"><ele>35.0</ele><time>2026-04-06T09:58:00.686Z</time></trkpt><trkpt lat="43.915525" lon="12.7316683"><ele>35.0</ele><time>2026-04-06T09:58:01.685Z</time></trkpt><trkpt lat="43.91566" lon="12.731475"><ele>35.0</ele><time>2026-04-06T09:58:02.682Z</time></trkpt><trkpt lat="43.9157833" lon="12.73126"><ele>35.0</ele><time>2026-04-06T09:58:03.685Z</time></trkpt><trkpt lat="43.915895" lon="12.7310267"><ele>34.0</ele><time>2026-04-06T09:58:04.686Z</time></trkpt><trkpt lat="43.9160017" lon="12.730785"><ele>33.0</ele><time>2026-04-06T09:58:05.685Z</time></trkpt><trkpt lat="43.9161033" lon="12.7305433"><ele>32.0</ele><time>2026-04-06T09:58:06.685Z</time></trkpt><trkpt lat="43.9162033" lon="12.730315"><ele>31.0</ele><time>2026-04-06T09:58:07.686Z</time></trkpt><trkpt lat="43.9162967" lon="12.730095"><ele>30.0</ele><time>2026-04-06T09:58:08.685Z</time></trkpt><trkpt lat="43.9163833" lon="12.7298883"><ele>29.0</ele><time>2026-04-06T09:58:09.686Z</time></trkpt><trkpt lat="43.9164667" lon="12.72968"><ele>29.0</ele><time>2026-04-06T09:58:10.687Z</time></trkpt><trkpt lat="43.9165467" lon="12.7294883"><ele>29.0</ele><time>2026-04-06T09:58:11.686Z</time></trkpt><trkpt lat="43.9166233" lon="12.7293083"><ele>29.0</ele><time>2026-04-06T09:58:12.687Z</time></trkpt><trkpt lat="43.9166883" lon="12.7291433"><ele>29.0</ele><time>2026-04-06T09:58:13.689Z</time></trkpt><trkpt lat="43.91674" lon="12.729"><ele>28.799999999999997</ele><time>2026-04-06T09:58:14.687Z</time></trkpt><trkpt lat="43.9167817" lon="12.7288833"><ele>28.599999999999998</ele><time>2026-04-06T09:58:15.691Z</time></trkpt><trkpt lat="43.9168183" lon="12.7287783"><ele>28.4</ele><time>2026-04-06T09:58:16.687Z</time></trkpt><trkpt lat="43.9168283" lon="12.7286833"><ele>28.2</ele><time>2026-04-06T09:58:17.684Z</time></trkpt><trkpt lat="43.9167883" lon="12.7285667"><ele>28.0</ele><time>2026-04-06T09:58:19.688Z</time></trkpt><trkpt lat="43.916655" lon="12.7285417"><ele>28.4</ele><time>2026-04-06T09:58:21.686Z</time></trkpt><trkpt lat="43.916575" lon="12.7285317"><ele>28.799999999999997</ele><time>2026-04-06T09:58:22.686Z</time></trkpt><trkpt lat="43.9164817" lon="12.7285117"><ele>29.2</ele><time>2026-04-06T09:58:23.686Z</time></trkpt><trkpt lat="43.9163933" lon="12.7284633"><ele>29.6</ele><time>2026-04-06T09:58:24.684Z</time></trkpt><trkpt lat="43.9163167" lon="12.7283917"><ele>30.0</ele><time>2026-04-06T09:58:25.686Z</time></trkpt><trkpt lat="43.9162467" lon="12.7283033"><ele>30.0</ele><time>2026-04-06T09:58:26.684Z</time></trkpt><trkpt lat="43.9161933" lon="12.728195"><ele>30.0</ele><time>2026-04-06T09:58:27.687Z</time></trkpt><trkpt lat="43.916145" lon="12.7280867"><ele>30.0</ele><time>2026-04-06T09:58:28.686Z</time></trkpt><trkpt lat="43.91609" lon="12.7279917"><ele>30.0</ele><time>2026-04-06T09:58:29.685Z</time></trkpt><trkpt lat="43.9160317" lon="12.7279117"><ele>30.0</ele><time>2026-04-06T09:58:30.685Z</time></trkpt><trkpt lat="43.9159617" lon="12.727855"><ele>30.0</ele><time>2026-04-06T09:58:31.687Z</time></trkpt><trkpt lat="43.91588" lon="12.7278267"><ele>30.2</ele><time>2026-04-06T09:58:32.684Z</time></trkpt><trkpt lat="43.9157933" lon="12.7278167"><ele>30.4</ele><time>2026-04-06T09:58:33.684Z</time></trkpt><trkpt lat="43.91569" lon="12.7278333"><ele>30.6</ele><time>2026-04-06T09:58:34.686Z</time></trkpt><trkpt lat="43.9155733" lon="12.7278733"><ele>30.8</ele><time>2026-04-06T09:58:35.685Z</time></trkpt><trkpt lat="43.9154517" lon="12.7279033"><ele>31.0</ele><time>2026-04-06T09:58:36.685Z</time></trkpt><trkpt lat="43.9153283" lon="12.7279267"><ele>31.0</ele><time>2026-04-06T09:58:37.687Z</time></trkpt><trkpt lat="43.9152067" lon="12.7279467"><ele>31.0</ele><time>2026-04-06T09:58:38.682Z</time></trkpt><trkpt lat="43.915095" lon="12.7279483"><ele>31.0</ele><time>2026-04-06T09:58:39.686Z</time></trkpt><trkpt lat="43.9149933" lon="12.7279467"><ele>31.0</ele><time>2026-04-06T09:58:40.685Z</time></trkpt><trkpt lat="43.9149033" lon="12.7279517"><ele>31.0</ele><time>2026-04-06T09:58:41.686Z</time></trkpt><trkpt lat="43.9148217" lon="12.7279533"><ele>31.166666666666668</ele><time>2026-04-06T09:58:42.686Z</time></trkpt><trkpt lat="43.9147467" lon="12.7279633"><ele>31.333333333333336</ele><time>2026-04-06T09:58:43.68Z</time></trkpt><trkpt lat="43.9146783" lon="12.7279767"><ele>31.5</ele><time>2026-04-06T09:58:44.678Z</time></trkpt><trkpt lat="43.91461" lon="12.7279717"><ele>31.666666666666664</ele><time>2026-04-06T09:58:45.686Z</time></trkpt><trkpt lat="43.914545" lon="12.7279567"><ele>31.833333333333332</ele><time>2026-04-06T09:58:46.686Z</time></trkpt><trkpt lat="43.9144233" lon="12.7278867"><ele>32.0</ele><time>2026-04-06T09:58:48.686Z</time></trkpt><trkpt lat="43.9143667" lon="12.72784"><ele>32.0</ele><time>2026-04-06T09:58:49.688Z</time></trkpt><trkpt lat="43.9143133" lon="12.7277783"><ele>31.999999999999996</ele><time>2026-04-06T09:58:50.684Z</time></trkpt><trkpt lat="43.9142617" lon="12.7277167"><ele>32.0</ele><time>2026-04-06T09:58:51.686Z</time></trkpt><trkpt lat="43.9142133" lon="12.72765"><ele>32.0</ele><time>2026-04-06T09:58:52.686Z</time></trkpt><trkpt lat="43.9141683" lon="12.727585"><ele>31.999999999999996</ele><time>2026-04-06T09:58:53.684Z</time></trkpt><trkpt lat="43.91412" lon="12.7275217"><ele>32.0</ele><time>2026-04-06T09:58:54.685Z</time></trkpt><trkpt lat="43.9140733" lon="12.7274617"><ele>32.0</ele><time>2026-04-06T09:58:55.686Z</time></trkpt><trkpt lat="43.9139933" lon="12.7273667"><ele>33.2</ele><time>2026-04-06T09:58:57.685Z</time></trkpt><trkpt lat="43.91393" lon="12.7273017"><ele>34.400000000000006</ele><time>2026-04-06T09:58:59.684Z</time></trkpt><trkpt lat="43.9138417" lon="12.72725"><ele>35.599999999999994</ele><time>2026-04-06T09:59:06.686Z</time></trkpt><trkpt lat="43.9137517" lon="12.7272167"><ele>36.8</ele><time>2026-04-06T09:59:08.683Z</time></trkpt><trkpt lat="43.91362" lon="12.7271817"><ele>38.0</ele><time>2026-04-06T09:59:10.687Z</time></trkpt><trkpt lat="43.9135367" lon="12.7271633"><ele>38.0</ele><time>2026-04-06T09:59:11.684Z</time></trkpt><trkpt lat="43.91346" lon="12.7271483"><ele>38.0</ele><time>2026-04-06T09:59:12.685Z</time></trkpt><trkpt lat="43.91339" lon="12.7271267"><ele>38.0</ele><time>2026-04-06T09:59:13.687Z</time></trkpt><trkpt lat="43.9132833" lon="12.7271"><ele>38.0</ele><time>2026-04-06T09:59:15.684Z</time></trkpt><trkpt lat="43.913225" lon="12.7270317"><ele>38.0</ele><time>2026-04-06T09:59:17.684Z</time></trkpt><trkpt lat="43.9132133" lon="12.7268967"><ele>38.0</ele><time>2026-04-06T09:59:19.687Z</time></trkpt><trkpt lat="43.913195" lon="12.72673"><ele>38.666666666666664</ele><time>2026-04-06T09:59:21.686Z</time></trkpt><trkpt lat="43.9131883" lon="12.7266317"><ele>39.33333333333333</ele><time>2026-04-06T09:59:22.686Z</time></trkpt><trkpt lat="43.913185" lon="12.726535"><ele>40.0</ele><time>2026-04-06T09:59:23.686Z</time></trkpt><trkpt lat="43.9131867" lon="12.726435"><ele>40.666666666666664</ele><time>2026-04-06T09:59:24.685Z</time></trkpt><trkpt lat="43.9132083" lon="12.7263267"><ele>41.333333333333336</ele><time>2026-04-06T09:59:25.687Z</time></trkpt><trkpt lat="43.913235" lon="12.7262133"><ele>42.0</ele><time>2026-04-06T09:59:26.687Z</time></trkpt><trkpt lat="43.9132717" lon="12.7260933"><ele>42.6</ele><time>2026-04-06T09:59:27.686Z</time></trkpt><trkpt lat="43.91331" lon="12.7259683"><ele>43.2</ele><time>2026-04-06T09:59:28.687Z</time></trkpt><trkpt lat="43.9133567" lon="12.72584"><ele>43.8</ele><time>2026-04-06T09:59:29.688Z</time></trkpt><trkpt lat="43.9134083" lon="12.7257117"><ele>44.4</ele><time>2026-04-06T09:59:30.687Z</time></trkpt><trkpt lat="43.9134567" lon="12.72559"><ele>45.0</ele><time>2026-04-06T09:59:31.686Z</time></trkpt><trkpt lat="43.9134967" lon="12.7254783"><ele>46.0</ele><time>2026-04-06T09:59:32.683Z</time></trkpt><trkpt lat="43.9135383" lon="12.72538"><ele>47.0</ele><time>2026-04-06T09:59:33.684Z</time></trkpt><trkpt lat="43.9135783" lon="12.7252883"><ele>48.0</ele><time>2026-04-06T09:59:34.685Z</time></trkpt><trkpt lat="43.9136283" lon="12.7252033"><ele>49.0</ele><time>2026-04-06T09:59:35.684Z</time></trkpt><trkpt lat="43.9136867" lon="12.7251167"><ele>50.0</ele><time>2026-04-06T09:59:36.685Z</time></trkpt><trkpt lat="43.9137567" lon="12.7250133"><ele>51.0</ele><time>2026-04-06T09:59:37.688Z</time></trkpt><trkpt lat="43.9138383" lon="12.7249017"><ele>53.0</ele><time>2026-04-06T09:59:38.682Z</time></trkpt><trkpt lat="43.91393" lon="12.7247883"><ele>55.0</ele><time>2026-04-06T09:59:39.685Z</time></trkpt><trkpt lat="43.9140283" lon="12.7246733"><ele>57.0</ele><time>2026-04-06T09:59:40.687Z</time></trkpt><trkpt lat="43.9141317" lon="12.724555"><ele>59.0</ele><time>2026-04-06T09:59:41.687Z</time></trkpt><trkpt lat="43.9142317" lon="12.7244317"><ele>60.5</ele><time>2026-04-06T09:59:42.687Z</time></trkpt><trkpt lat="43.9143267" lon="12.7243117"><ele>62.0</ele><time>2026-04-06T09:59:43.69Z</time></trkpt><trkpt lat="43.9144133" lon="12.724185"><ele>63.5</ele><time>2026-04-06T09:59:44.687Z</time></trkpt><trkpt lat="43.9144917" lon="12.7240417"><ele>65.0</ele><time>2026-04-06T09:59:45.687Z</time></trkpt><trkpt lat="43.9145683" lon="12.7238883"><ele>65.0</ele><time>2026-04-06T09:59:46.686Z</time></trkpt><trkpt lat="43.9146383" lon="12.7237233"><ele>65.0</ele><time>2026-04-06T09:59:47.687Z</time></trkpt><trkpt lat="43.9147083" lon="12.7235533"><ele>65.0</ele><time>2026-04-06T09:59:48.686Z</time></trkpt><trkpt lat="43.9147767" lon="12.723385"><ele>65.0</ele><time>2026-04-06T09:59:49.687Z</time></trkpt><trkpt lat="43.9148417" lon="12.7232183"><ele>67.5</ele><time>2026-04-06T09:59:50.682Z</time></trkpt><trkpt lat="43.9149033" lon="12.7230617"><ele>70.0</ele><time>2026-04-06T09:59:51.686Z</time></trkpt><trkpt lat="43.91496" lon="12.722915"><ele>72.5</ele><time>2026-04-06T09:59:52.686Z</time></trkpt><trkpt lat="43.9150133" lon="12.7227717"><ele>75.0</ele><time>2026-04-06T09:59:53.684Z</time></trkpt><trkpt lat="43.9150667" lon="12.7226267"><ele>75.0</ele><time>2026-04-06T09:59:54.684Z</time></trkpt><trkpt lat="43.9151217" lon="12.7224817"><ele>75.0</ele><time>2026-04-06T09:59:55.689Z</time></trkpt><trkpt lat="43.9151833" lon="12.7223383"><ele>75.0</ele><time>2026-04-06T09:59:56.687Z</time></trkpt><trkpt lat="43.9152517" lon="12.7221983"><ele>75.0</ele><time>2026-04-06T09:59:57.684Z</time></trkpt><trkpt lat="43.9153333" lon="12.7220633"><ele>75.0</ele><time>2026-04-06T09:59:58.685Z</time></trkpt><trkpt lat="43.9154233" lon="12.721925"><ele>75.0</ele><time>2026-04-06T09:59:59.685Z</time></trkpt><trkpt lat="43.9155267" lon="12.7217817"><ele>75.0</ele><time>2026-04-06T10:00:00.684Z</time></trkpt><trkpt lat="43.9156367" lon="12.7216267"><ele>75.0</ele><time>2026-04-06T10:00:01.687Z</time></trkpt><trkpt lat="43.915745" lon="12.721465"><ele>74.66666666666667</ele><time>2026-04-06T10:00:02.684Z</time></trkpt><trkpt lat="43.9158533" lon="12.7213033"><ele>74.33333333333334</ele><time>2026-04-06T10:00:03.685Z</time></trkpt><trkpt lat="43.9159617" lon="12.7211417"><ele>74.0</ele><time>2026-04-06T10:00:04.685Z</time></trkpt><trkpt lat="43.9160617" lon="12.7209867"><ele>76.0</ele><time>2026-04-06T10:00:05.684Z</time></trkpt><trkpt lat="43.9161533" lon="12.7208433"><ele>78.0</ele><time>2026-04-06T10:00:06.687Z</time></trkpt><trkpt lat="43.9162317" lon="12.7207117"><ele>80.0</ele><time>2026-04-06T10:00:07.687Z</time></trkpt><trkpt lat="43.9163033" lon="12.720585"><ele>82.0</ele><time>2026-04-06T10:00:08.682Z</time></trkpt><trkpt lat="43.9163667" lon="12.72047"><ele>82.0</ele><time>2026-04-06T10:00:09.685Z</time></trkpt><trkpt lat="43.9164217" lon="12.7203733"><ele>82.0</ele><time>2026-04-06T10:00:10.685Z</time></trkpt><trkpt lat="43.91646" lon="12.7203033"><ele>82.0</ele><time>2026-04-06T10:00:11.684Z</time></trkpt><trkpt lat="43.9165017" lon="12.7202233"><ele>82.0</ele><time>2026-04-06T10:00:13.687Z</time></trkpt><trkpt lat="43.916485" lon="12.7201167"><ele>82.0</ele><time>2026-04-06T10:00:16.686Z</time></trkpt><trkpt lat="43.9163833" lon="12.7199883"><ele>82.0</ele><time>2026-04-06T10:00:18.685Z</time></trkpt><trkpt lat="43.91631" lon="12.7198817"><ele>82.66666666666666</ele><time>2026-04-06T10:00:19.687Z</time></trkpt><trkpt lat="43.916205" lon="12.7197217"><ele>83.33333333333333</ele><time>2026-04-06T10:00:20.684Z</time></trkpt><trkpt lat="43.9161133" lon="12.7195583"><ele>84.0</ele><time>2026-04-06T10:00:21.684Z</time></trkpt><trkpt lat="43.9160117" lon="12.7193767"><ele>84.0</ele><time>2026-04-06T10:00:22.685Z</time></trkpt><trkpt lat="43.9159117" lon="12.7191917"><ele>84.0</ele><time>2026-04-06T10:00:23.685Z</time></trkpt><trkpt lat="43.9158067" lon="12.7190017"><ele>84.0</ele><time>2026-04-06T10:00:24.685Z</time></trkpt><trkpt lat="43.9157033" lon="12.7188067"><ele>84.33333333333333</ele><time>2026-04-06T10:00:25.687Z</time></trkpt><trkpt lat="43.9156017" lon="12.7186067"><ele>84.66666666666666</ele><time>2026-04-06T10:00:26.685Z</time></trkpt><trkpt lat="43.9154967" lon="12.7184033"><ele>85.0</ele><time>2026-04-06T10:00:27.687Z</time></trkpt><trkpt lat="43.9153933" lon="12.7182"><ele>85.0</ele><time>2026-04-06T10:00:28.685Z</time></trkpt><trkpt lat="43.91529" lon="12.7180017"><ele>85.0</ele><time>2026-04-06T10:00:29.685Z</time></trkpt><trkpt lat="43.915185" lon="12.7178033"><ele>85.0</ele><time>2026-04-06T10:00:30.684Z</time></trkpt><trkpt lat="43.9150783" lon="12.71761"><ele>85.66666666666666</ele><time>2026-04-06T10:00:31.688Z</time></trkpt><trkpt lat="43.91497" lon="12.7174183"><ele>86.33333333333333</ele><time>2026-04-06T10:00:32.686Z</time></trkpt><trkpt lat="43.914855" lon="12.7172383"><ele>87.0</ele><time>2026-04-06T10:00:33.685Z</time></trkpt><trkpt lat="43.914735" lon="12.71707"><ele>87.0</ele><time>2026-04-06T10:00:34.686Z</time></trkpt><trkpt lat="43.9146133" lon="12.7169033"><ele>87.0</ele><time>2026-04-06T10:00:35.685Z</time></trkpt><trkpt lat="43.91449" lon="12.7167417"><ele>87.0</ele><time>2026-04-06T10:00:36.686Z</time></trkpt><trkpt lat="43.914365" lon="12.71658"><ele>87.0</ele><time>2026-04-06T10:00:37.686Z</time></trkpt><trkpt lat="43.91424" lon="12.7164183"><ele>87.0</ele><time>2026-04-06T10:00:38.684Z</time></trkpt><trkpt lat="43.91412" lon="12.7162633"><ele>87.0</ele><time>2026-04-06T10:00:39.687Z</time></trkpt><trkpt lat="43.9140083" lon="12.71612"><ele>87.5</ele><time>2026-04-06T10:00:40.687Z</time></trkpt><trkpt lat="43.9139017" lon="12.7159883"><ele>88.0</ele><time>2026-04-06T10:00:41.687Z</time></trkpt><trkpt lat="43.913805" lon="12.715865"><ele>88.5</ele><time>2026-04-06T10:00:42.687Z</time></trkpt><trkpt lat="43.9137133" lon="12.7157533"><ele>89.0</ele><time>2026-04-06T10:00:43.688Z</time></trkpt><trkpt lat="43.9136283" lon="12.71565"><ele>89.0</ele><time>2026-04-06T10:00:44.687Z</time></trkpt><trkpt lat="43.91355" lon="12.7155617"><ele>89.0</ele><time>2026-04-06T10:00:45.686Z</time></trkpt><trkpt lat="43.913485" lon="12.7154917"><ele>89.0</ele><time>2026-04-06T10:00:46.687Z</time></trkpt><trkpt lat="43.9134333" lon="12.715435"><ele>89.0</ele><time>2026-04-06T10:00:47.687Z</time></trkpt><trkpt lat="43.9133833" lon="12.7153617"><ele>89.0</ele><time>2026-04-06T10:00:49.687Z</time></trkpt><trkpt lat="43.9134817" lon="12.71527"><ele>89.0</ele><time>2026-04-06T10:00:52.685Z</time></trkpt><trkpt lat="43.9135583" lon="12.7152417"><ele>88.57142857142857</ele><time>2026-04-06T10:00:53.685Z</time></trkpt><trkpt lat="43.9136233" lon="12.7152233"><ele>88.14285714285714</ele><time>2026-04-06T10:00:54.686Z</time></trkpt><trkpt lat="43.9136917" lon="12.7152033"><ele>87.71428571428572</ele><time>2026-04-06T10:00:55.686Z</time></trkpt><trkpt lat="43.913765" lon="12.7151783"><ele>87.28571428571428</ele><time>2026-04-06T10:00:56.685Z</time></trkpt><trkpt lat="43.9138367" lon="12.7151533"><ele>86.85714285714286</ele><time>2026-04-06T10:00:57.685Z</time></trkpt><trkpt lat="43.9139067" lon="12.7151317"><ele>86.42857142857143</ele><time>2026-04-06T10:00:58.686Z</time></trkpt><trkpt lat="43.913975" lon="12.7151033"><ele>86.0</ele><time>2026-04-06T10:00:59.685Z</time></trkpt><trkpt lat="43.9140317" lon="12.715065"><ele>86.0</ele><time>2026-04-06T10:01:00.686Z</time></trkpt><trkpt lat="43.9141267" lon="12.7149483"><ele>86.0</ele><time>2026-04-06T10:01:02.683Z</time></trkpt><trkpt lat="43.9141767" lon="12.7148883"><ele>86.0</ele><time>2026-04-06T10:01:03.685Z</time></trkpt><trkpt lat="43.9142333" lon="12.7148333"><ele>86.0</ele><time>2026-04-06T10:01:04.686Z</time></trkpt><trkpt lat="43.9142917" lon="12.71479"><ele>86.0</ele><time>2026-04-06T10:01:05.687Z</time></trkpt><trkpt lat="43.9143583" lon="12.7147517"><ele>86.0</ele><time>2026-04-06T10:01:06.685Z</time></trkpt><trkpt lat="43.9144317" lon="12.71472"><ele>84.0</ele><time>2026-04-06T10:01:07.687Z</time></trkpt><trkpt lat="43.914505" lon="12.7146967"><ele>82.0</ele><time>2026-04-06T10:01:08.682Z</time></trkpt><trkpt lat="43.9145833" lon="12.7146733"><ele>80.0</ele><time>2026-04-06T10:01:09.685Z</time></trkpt><trkpt lat="43.9146583" lon="12.7146517"><ele>78.0</ele><time>2026-04-06T10:01:10.687Z</time></trkpt><trkpt lat="43.91473" lon="12.71463"><ele>76.0</ele><time>2026-04-06T10:01:11.684Z</time></trkpt><trkpt lat="43.9147933" lon="12.7146133"><ele>74.0</ele><time>2026-04-06T10:01:12.686Z</time></trkpt><trkpt lat="43.9148917" lon="12.7145617"><ele>74.0</ele><time>2026-04-06T10:01:14.682Z</time></trkpt><trkpt lat="43.914955" lon="12.714455"><ele>74.0</ele><time>2026-04-06T10:01:16.685Z</time></trkpt><trkpt lat="43.9149833" lon="12.7143083"><ele>74.0</ele><time>2026-04-06T10:01:18.686Z</time></trkpt><trkpt lat="43.9150033" lon="12.714145"><ele>74.0</ele><time>2026-04-06T10:01:20.685Z</time></trkpt><trkpt lat="43.9150333" lon="12.713995"><ele>74.0</ele><time>2026-04-06T10:01:22.685Z</time></trkpt><trkpt lat="43.9150717" lon="12.7138833"><ele>71.5</ele><time>2026-04-06T10:01:24.679Z</time></trkpt><trkpt lat="43.9151567" lon="12.7137633"><ele>69.0</ele><time>2026-04-06T10:01:26.685Z</time></trkpt><trkpt lat="43.9152133" lon="12.7137017"><ele>66.5</ele><time>2026-04-06T10:01:27.685Z</time></trkpt><trkpt lat="43.9152767" lon="12.7136433"><ele>64.0</ele><time>2026-04-06T10:01:28.687Z</time></trkpt><trkpt lat="43.9153417" lon="12.71358"><ele>61.50000000000001</ele><time>2026-04-06T10:01:29.688Z</time></trkpt><trkpt lat="43.91541" lon="12.7135167"><ele>59.0</ele><time>2026-04-06T10:01:30.687Z</time></trkpt><trkpt lat="43.9154717" lon="12.7134617"><ele>58.71428571428571</ele><time>2026-04-06T10:01:31.685Z</time></trkpt><trkpt lat="43.9155317" lon="12.7134117"><ele>58.42857142857143</ele><time>2026-04-06T10:01:32.683Z</time></trkpt><trkpt lat="43.9155933" lon="12.713365"><ele>58.14285714285714</ele><time>2026-04-06T10:01:33.684Z</time></trkpt><trkpt lat="43.9156567" lon="12.7133183"><ele>57.857142857142854</ele><time>2026-04-06T10:01:34.686Z</time></trkpt><trkpt lat="43.9157217" lon="12.7132733"><ele>57.57142857142857</ele><time>2026-04-06T10:01:35.684Z</time></trkpt><trkpt lat="43.9157883" lon="12.713225"><ele>57.285714285714285</ele><time>2026-04-06T10:01:36.686Z</time></trkpt><trkpt lat="43.9158533" lon="12.7131783"><ele>57.0</ele><time>2026-04-06T10:01:37.687Z</time></trkpt><trkpt lat="43.9159167" lon="12.7131333"><ele>55.333333333333336</ele><time>2026-04-06T10:01:38.684Z</time></trkpt><trkpt lat="43.91598" lon="12.7130883"><ele>53.666666666666664</ele><time>2026-04-06T10:01:39.685Z</time></trkpt><trkpt lat="43.9160417" lon="12.7130433"><ele>52.0</ele><time>2026-04-06T10:01:40.687Z</time></trkpt><trkpt lat="43.9161033" lon="12.7129983"><ele>50.33333333333333</ele><time>2026-04-06T10:01:41.685Z</time></trkpt><trkpt lat="43.916165" lon="12.7129533"><ele>48.666666666666664</ele><time>2026-04-06T10:01:42.686Z</time></trkpt><trkpt lat="43.91627" lon="12.7128833"><ele>47.0</ele><time>2026-04-06T10:01:44.687Z</time></trkpt><trkpt lat="43.9163417" lon="12.7128067"><ele>46.33333333333333</ele><time>2026-04-06T10:01:46.685Z</time></trkpt><trkpt lat="43.9163783" lon="12.71273"><ele>45.666666666666664</ele><time>2026-04-06T10:01:48.688Z</time></trkpt><trkpt lat="43.9163817" lon="12.7126383"><ele>45.0</ele><time>2026-04-06T10:01:50.683Z</time></trkpt><trkpt lat="43.9163517" lon="12.7124917"><ele>44.333333333333336</ele><time>2026-04-06T10:01:52.686Z</time></trkpt><trkpt lat="43.91633" lon="12.7124017"><ele>43.66666666666667</ele><time>2026-04-06T10:01:53.685Z</time></trkpt><trkpt lat="43.916305" lon="12.71231"><ele>43.0</ele><time>2026-04-06T10:01:54.687Z</time></trkpt><trkpt lat="43.9162767" lon="12.712215"><ele>43.0</ele><time>2026-04-06T10:01:55.687Z</time></trkpt><trkpt lat="43.916245" lon="12.71212"><ele>43.0</ele><time>2026-04-06T10:01:56.687Z</time></trkpt><trkpt lat="43.9162083" lon="12.7120267"><ele>43.0</ele><time>2026-04-06T10:01:57.687Z</time></trkpt><trkpt lat="43.9161717" lon="12.7119333"><ele>43.0</ele><time>2026-04-06T10:01:58.687Z</time></trkpt><trkpt lat="43.9161383" lon="12.71185"><ele>43.0</ele><time>2026-04-06T10:01:59.686Z</time></trkpt><trkpt lat="43.9160767" lon="12.7117133"><ele>43.0</ele><time>2026-04-06T10:02:01.693Z</time></trkpt><trkpt lat="43.9160167" lon="12.7115983"><ele>43.16666666666667</ele><time>2026-04-06T10:02:03.687Z</time></trkpt><trkpt lat="43.9159433" lon="12.7114683"><ele>43.333333333333336</ele><time>2026-04-06T10:02:05.687Z</time></trkpt><trkpt lat="43.9159033" lon="12.7113933"><ele>43.5</ele><time>2026-04-06T10:02:06.686Z</time></trkpt><trkpt lat="43.91587" lon="12.7113083"><ele>43.666666666666664</ele><time>2026-04-06T10:02:07.688Z</time></trkpt><trkpt lat="43.9158417" lon="12.7112083"><ele>43.83333333333333</ele><time>2026-04-06T10:02:08.687Z</time></trkpt><trkpt lat="43.9158117" lon="12.7111083"><ele>44.0</ele><time>2026-04-06T10:02:09.687Z</time></trkpt><trkpt lat="43.9157867" lon="12.7110217"><ele>44.0</ele><time>2026-04-06T10:02:10.686Z</time></trkpt><trkpt lat="43.9157467" lon="12.7108933"><ele>44.0</ele><time>2026-04-06T10:02:12.686Z</time></trkpt><trkpt lat="43.9156933" lon="12.7108417"><ele>44.0</ele><time>2026-04-06T10:02:14.687Z</time></trkpt><trkpt lat="43.9155917" lon="12.710815"><ele>44.0</ele><time>2026-04-06T10:02:16.687Z</time></trkpt><trkpt lat="43.91553" lon="12.71076"><ele>44.0</ele><time>2026-04-06T10:02:18.687Z</time></trkpt><trkpt lat="43.9154817" lon="12.7106383"><ele>44.0</ele><time>2026-04-06T10:02:20.687Z</time></trkpt><trkpt lat="43.91547" lon="12.7104867"><ele>44.0</ele><time>2026-04-06T10:02:22.687Z</time></trkpt><trkpt lat="43.9154817" lon="12.71036"><ele>44.0</ele><time>2026-04-06T10:02:24.686Z</time></trkpt><trkpt lat="43.9154833" lon="12.71024"><ele>44.0</ele><time>2026-04-06T10:02:26.687Z</time></trkpt><trkpt lat="43.91548" lon="12.710105"><ele>44.0</ele><time>2026-04-06T10:02:28.687Z</time></trkpt><trkpt lat="43.9154733" lon="12.7099367"><ele>44.0</ele><time>2026-04-06T10:02:30.687Z</time></trkpt><trkpt lat="43.91547" lon="12.7097983"><ele>43.800000000000004</ele><time>2026-04-06T10:02:32.683Z</time></trkpt><trkpt lat="43.9154633" lon="12.7096583"><ele>43.6</ele><time>2026-04-06T10:02:34.686Z</time></trkpt><trkpt lat="43.91546" lon="12.7095083"><ele>43.4</ele><time>2026-04-06T10:02:36.685Z</time></trkpt><trkpt lat="43.9154533" lon="12.70934"><ele>43.2</ele><time>2026-04-06T10:02:38.684Z</time></trkpt><trkpt lat="43.9154433" lon="12.709245"><ele>43.0</ele><time>2026-04-06T10:02:39.684Z</time></trkpt><trkpt lat="43.915435" lon="12.7091433"><ele>42.833333333333336</ele><time>2026-04-06T10:02:40.687Z</time></trkpt><trkpt lat="43.915425" lon="12.7090383"><ele>42.66666666666667</ele><time>2026-04-06T10:02:41.684Z</time></trkpt><trkpt lat="43.9154183" lon="12.7089367"><ele>42.5</ele><time>2026-04-06T10:02:42.686Z</time></trkpt><trkpt lat="43.9154133" lon="12.7088367"><ele>42.333333333333336</ele><time>2026-04-06T10:02:43.688Z</time></trkpt><trkpt lat="43.91541" lon="12.708745"><ele>42.166666666666664</ele><time>2026-04-06T10:02:44.686Z</time></trkpt><trkpt lat="43.9154017" lon="12.70857"><ele>42.0</ele><time>2026-04-06T10:02:46.685Z</time></trkpt><trkpt lat="43.9153983" lon="12.7084733"><ele>41.833333333333336</ele><time>2026-04-06T10:02:47.683Z</time></trkpt><trkpt lat="43.9153967" lon="12.7083733"><ele>41.666666666666664</ele><time>2026-04-06T10:02:48.687Z</time></trkpt><trkpt lat="43.9153967" lon="12.7082817"><ele>41.5</ele><time>2026-04-06T10:02:49.686Z</time></trkpt><trkpt lat="43.91543" lon="12.708105"><ele>41.33333333333333</ele><time>2026-04-06T10:02:51.684Z</time></trkpt><trkpt lat="43.9154683" lon="12.7080117"><ele>41.166666666666664</ele><time>2026-04-06T10:02:52.688Z</time></trkpt><trkpt lat="43.9155167" lon="12.7079083"><ele>41.0</ele><time>2026-04-06T10:02:53.688Z</time></trkpt><trkpt lat="43.91556" lon="12.7078083"><ele>41.166666666666664</ele><time>2026-04-06T10:02:54.688Z</time></trkpt><trkpt lat="43.9155983" lon="12.7077183"><ele>41.33333333333333</ele><time>2026-04-06T10:02:55.687Z</time></trkpt><trkpt lat="43.9156517" lon="12.7075817"><ele>41.5</ele><time>2026-04-06T10:02:57.687Z</time></trkpt><trkpt lat="43.9156567" lon="12.70749"><ele>41.666666666666664</ele><time>2026-04-06T10:02:59.687Z</time></trkpt><trkpt lat="43.9156" lon="12.7074183"><ele>41.833333333333336</ele><time>2026-04-06T10:03:01.686Z</time></trkpt><trkpt lat="43.9155333" lon="12.70739"><ele>42.0</ele><time>2026-04-06T10:03:02.685Z</time></trkpt><trkpt lat="43.9154583" lon="12.707355"><ele>42.0</ele><time>2026-04-06T10:03:03.684Z</time></trkpt><trkpt lat="43.9153717" lon="12.7073217"><ele>42.0</ele><time>2026-04-06T10:03:04.685Z</time></trkpt><trkpt lat="43.9152817" lon="12.7072817"><ele>42.0</ele><time>2026-04-06T10:03:05.684Z</time></trkpt><trkpt lat="43.915195" lon="12.7072317"><ele>42.0</ele><time>2026-04-06T10:03:06.684Z</time></trkpt><trkpt lat="43.9151083" lon="12.7071617"><ele>42.0</ele><time>2026-04-06T10:03:07.687Z</time></trkpt><trkpt lat="43.915025" lon="12.7070817"><ele>42.6</ele><time>2026-04-06T10:03:08.683Z</time></trkpt><trkpt lat="43.9149483" lon="12.7070067"><ele>43.2</ele><time>2026-04-06T10:03:09.686Z</time></trkpt><trkpt lat="43.9148717" lon="12.7069417"><ele>43.8</ele><time>2026-04-06T10:03:10.686Z</time></trkpt><trkpt lat="43.914795" lon="12.7068833"><ele>44.4</ele><time>2026-04-06T10:03:11.686Z</time></trkpt><trkpt lat="43.9147133" lon="12.7068283"><ele>45.0</ele><time>2026-04-06T10:03:12.686Z</time></trkpt><trkpt lat="43.914635" lon="12.7067733"><ele>45.333333333333336</ele><time>2026-04-06T10:03:13.69Z</time></trkpt><trkpt lat="43.914565" lon="12.7067267"><ele>45.666666666666664</ele><time>2026-04-06T10:03:14.685Z</time></trkpt><trkpt lat="43.9145017" lon="12.7066783"><ele>46.0</ele><time>2026-04-06T10:03:15.686Z</time></trkpt><trkpt lat="43.9144433" lon="12.7066117"><ele>46.33333333333333</ele><time>2026-04-06T10:03:16.686Z</time></trkpt><trkpt lat="43.9143983" lon="12.7065283"><ele>46.666666666666664</ele><time>2026-04-06T10:03:17.683Z</time></trkpt><trkpt lat="43.9143633" lon="12.7064283"><ele>47.0</ele><time>2026-04-06T10:03:18.684Z</time></trkpt><trkpt lat="43.9143417" lon="12.7063117"><ele>47.0</ele><time>2026-04-06T10:03:19.686Z</time></trkpt><trkpt lat="43.9143283" lon="12.7061967"><ele>47.0</ele><time>2026-04-06T10:03:20.68Z</time></trkpt><trkpt lat="43.9143217" lon="12.7060633"><ele>47.0</ele><time>2026-04-06T10:03:21.685Z</time></trkpt><trkpt lat="43.91433" lon="12.7059117"><ele>47.0</ele><time>2026-04-06T10:03:22.684Z</time></trkpt><trkpt lat="43.9143417" lon="12.70576"><ele>47.0</ele><time>2026-04-06T10:03:23.685Z</time></trkpt><trkpt lat="43.914355" lon="12.7056033"><ele>47.5</ele><time>2026-04-06T10:03:24.685Z</time></trkpt><trkpt lat="43.91437" lon="12.7054567"><ele>48.0</ele><time>2026-04-06T10:03:25.685Z</time></trkpt><trkpt lat="43.9143817" lon="12.70533"><ele>48.5</ele><time>2026-04-06T10:03:26.682Z</time></trkpt><trkpt lat="43.91439" lon="12.70522"><ele>49.0</ele><time>2026-04-06T10:03:27.684Z</time></trkpt><trkpt lat="43.9143867" lon="12.7051233"><ele>49.50000000000001</ele><time>2026-04-06T10:03:28.685Z</time></trkpt><trkpt lat="43.9143683" lon="12.70503"><ele>50.0</ele><time>2026-04-06T10:03:29.687Z</time></trkpt><trkpt lat="43.9143317" lon="12.7049383"><ele>50.2</ele><time>2026-04-06T10:03:30.686Z</time></trkpt><trkpt lat="43.91427" lon="12.704845"><ele>50.4</ele><time>2026-04-06T10:03:31.688Z</time></trkpt><trkpt lat="43.9141833" lon="12.7047517"><ele>50.599999999999994</ele><time>2026-04-06T10:03:32.686Z</time></trkpt><trkpt lat="43.9140883" lon="12.7046483"><ele>50.8</ele><time>2026-04-06T10:03:33.686Z</time></trkpt><trkpt lat="43.9139967" lon="12.7045433"><ele>51.0</ele><time>2026-04-06T10:03:34.685Z</time></trkpt><trkpt lat="43.9139" lon="12.7044433"><ele>53.75</ele><time>2026-04-06T10:03:35.685Z</time></trkpt><trkpt lat="43.9138017" lon="12.70434"><ele>56.5</ele><time>2026-04-06T10:03:36.685Z</time></trkpt><trkpt lat="43.9136983" lon="12.7042383"><ele>59.25</ele><time>2026-04-06T10:03:37.686Z</time></trkpt><trkpt lat="43.9135883" lon="12.70414"><ele>62.0</ele><time>2026-04-06T10:03:38.683Z</time></trkpt><trkpt lat="43.9134767" lon="12.70404"><ele>63.75</ele><time>2026-04-06T10:03:39.683Z</time></trkpt><trkpt lat="43.9133617" lon="12.7039417"><ele>65.5</ele><time>2026-04-06T10:03:40.685Z</time></trkpt><trkpt lat="43.9132433" lon="12.70385"><ele>67.25</ele><time>2026-04-06T10:03:41.684Z</time></trkpt><trkpt lat="43.9131283" lon="12.703765"><ele>69.0</ele><time>2026-04-06T10:03:42.685Z</time></trkpt><trkpt lat="43.9130133" lon="12.7036833"><ele>69.0</ele><time>2026-04-06T10:03:43.686Z</time></trkpt><trkpt lat="43.9129017" lon="12.7035983"><ele>69.0</ele><time>2026-04-06T10:03:44.686Z</time></trkpt><trkpt lat="43.91279" lon="12.70352"><ele>69.0</ele><time>2026-04-06T10:03:45.685Z</time></trkpt><trkpt lat="43.9126717" lon="12.7034367"><ele>69.0</ele><time>2026-04-06T10:03:46.685Z</time></trkpt><trkpt lat="43.9125483" lon="12.7033467"><ele>72.25</ele><time>2026-04-06T10:03:47.684Z</time></trkpt><trkpt lat="43.9124233" lon="12.7032617"><ele>75.5</ele><time>2026-04-06T10:03:48.684Z</time></trkpt><trkpt lat="43.9122983" lon="12.7031767"><ele>78.75</ele><time>2026-04-06T10:03:49.686Z</time></trkpt><trkpt lat="43.9121717" lon="12.7030917"><ele>82.0</ele><time>2026-04-06T10:03:50.683Z</time></trkpt><trkpt lat="43.9120483" lon="12.7030133"><ele>82.0</ele><time>2026-04-06T10:03:51.687Z</time></trkpt><trkpt lat="43.9119317" lon="12.7029433"><ele>82.0</ele><time>2026-04-06T10:03:52.685Z</time></trkpt><trkpt lat="43.9118283" lon="12.70288"><ele>82.0</ele><time>2026-04-06T10:03:53.685Z</time></trkpt><trkpt lat="43.9117317" lon="12.702815"><ele>82.0</ele><time>2026-04-06T10:03:54.684Z</time></trkpt><trkpt lat="43.9116517" lon="12.7027367"><ele>82.0</ele><time>2026-04-06T10:03:55.686Z</time></trkpt><trkpt lat="43.91158" lon="12.7026383"><ele>85.5</ele><time>2026-04-06T10:03:56.684Z</time></trkpt><trkpt lat="43.9115133" lon="12.7025217"><ele>89.0</ele><time>2026-04-06T10:03:57.684Z</time></trkpt><trkpt lat="43.911445" lon="12.7023917"><ele>92.5</ele><time>2026-04-06T10:03:58.686Z</time></trkpt><trkpt lat="43.9113733" lon="12.702245"><ele>96.0</ele><time>2026-04-06T10:03:59.683Z</time></trkpt><trkpt lat="43.9113" lon="12.7020917"><ele>96.0</ele><time>2026-04-06T10:04:00.687Z</time></trkpt><trkpt lat="43.9112283" lon="12.7019367"><ele>96.0</ele><time>2026-04-06T10:04:01.686Z</time></trkpt><trkpt lat="43.91116" lon="12.70179"><ele>96.0</ele><time>2026-04-06T10:04:02.684Z</time></trkpt><trkpt lat="43.9111" lon="12.7016667"><ele>96.0</ele><time>2026-04-06T10:04:03.677Z</time></trkpt><trkpt lat="43.9110383" lon="12.701565"><ele>97.16666666666667</ele><time>2026-04-06T10:04:04.678Z</time></trkpt><trkpt lat="43.91098" lon="12.70148"><ele>98.33333333333334</ele><time>2026-04-06T10:04:05.678Z</time></trkpt><trkpt lat="43.9109317" lon="12.7014167"><ele>99.5</ele><time>2026-04-06T10:04:06.684Z</time></trkpt><trkpt lat="43.91088" lon="12.7012983"><ele>100.66666666666667</ele><time>2026-04-06T10:04:08.683Z</time></trkpt><trkpt lat="43.9108967" lon="12.70121"><ele>101.83333333333334</ele><time>2026-04-06T10:04:10.686Z</time></trkpt><trkpt lat="43.9109467" lon="12.70114"><ele>103.0</ele><time>2026-04-06T10:04:11.686Z</time></trkpt><trkpt lat="43.91101" lon="12.701055"><ele>103.4</ele><time>2026-04-06T10:04:12.686Z</time></trkpt><trkpt lat="43.9110783" lon="12.7009533"><ele>103.80000000000001</ele><time>2026-04-06T10:04:13.688Z</time></trkpt><trkpt lat="43.9111483" lon="12.7008517"><ele>104.2</ele><time>2026-04-06T10:04:14.686Z</time></trkpt><trkpt lat="43.9112133" lon="12.7007583"><ele>104.6</ele><time>2026-04-06T10:04:15.686Z</time></trkpt><trkpt lat="43.9112767" lon="12.7006683"><ele>105.0</ele><time>2026-04-06T10:04:16.685Z</time></trkpt><trkpt lat="43.9113433" lon="12.7005817"><ele>105.0</ele><time>2026-04-06T10:04:17.682Z</time></trkpt><trkpt lat="43.911405" lon="12.7004983"><ele>105.0</ele><time>2026-04-06T10:04:18.685Z</time></trkpt><trkpt lat="43.911465" lon="12.7004217"><ele>105.0</ele><time>2026-04-06T10:04:19.686Z</time></trkpt><trkpt lat="43.9115233" lon="12.7003433"><ele>105.0</ele><time>2026-04-06T10:04:20.684Z</time></trkpt><trkpt lat="43.9115817" lon="12.7002683"><ele>105.0</ele><time>2026-04-06T10:04:21.685Z</time></trkpt><trkpt lat="43.911635" lon="12.7002017"><ele>105.0</ele><time>2026-04-06T10:04:22.685Z</time></trkpt><trkpt lat="43.9116867" lon="12.7001367"><ele>103.6</ele><time>2026-04-06T10:04:23.685Z</time></trkpt><trkpt lat="43.9117733" lon="12.700025"><ele>102.2</ele><time>2026-04-06T10:04:25.686Z</time></trkpt><trkpt lat="43.911855" lon="12.69993"><ele>100.80000000000001</ele><time>2026-04-06T10:04:27.683Z</time></trkpt><trkpt lat="43.91193" lon="12.6998267"><ele>99.4</ele><time>2026-04-06T10:04:29.686Z</time></trkpt><trkpt lat="43.912005" lon="12.69973"><ele>98.0</ele><time>2026-04-06T10:04:31.688Z</time></trkpt><trkpt lat="43.9120767" lon="12.6996583"><ele>98.0</ele><time>2026-04-06T10:04:33.686Z</time></trkpt><trkpt lat="43.9121417" lon="12.6995817"><ele>98.0</ele><time>2026-04-06T10:04:35.686Z</time></trkpt><trkpt lat="43.9122117" lon="12.69947"><ele>98.0</ele><time>2026-04-06T10:04:37.688Z</time></trkpt><trkpt lat="43.91228" lon="12.6993783"><ele>98.0</ele><time>2026-04-06T10:04:39.686Z</time></trkpt><trkpt lat="43.9123483" lon="12.6992717"><ele>98.0</ele><time>2026-04-06T10:04:41.686Z</time></trkpt><trkpt lat="43.9124133" lon="12.69916"><ele>97.0</ele><time>2026-04-06T10:04:43.687Z</time></trkpt><trkpt lat="43.91248" lon="12.6990367"><ele>96.0</ele><time>2026-04-06T10:04:45.686Z</time></trkpt><trkpt lat="43.9125367" lon="12.6989167"><ele>95.0</ele><time>2026-04-06T10:04:47.685Z</time></trkpt><trkpt lat="43.9126" lon="12.698775"><ele>94.0</ele><time>2026-04-06T10:04:49.685Z</time></trkpt><trkpt lat="43.9126333" lon="12.6986967"><ele>93.0</ele><time>2026-04-06T10:04:50.683Z</time></trkpt><trkpt lat="43.9126717" lon="12.698615"><ele>95.2</ele><time>2026-04-06T10:04:51.684Z</time></trkpt><trkpt lat="43.9127167" lon="12.6985417"><ele>97.4</ele><time>2026-04-06T10:04:52.685Z</time></trkpt><trkpt lat="43.912805" lon="12.6984333"><ele>99.60000000000001</ele><time>2026-04-06T10:04:54.685Z</time></trkpt><trkpt lat="43.912895" lon="12.69835"><ele>101.80000000000001</ele><time>2026-04-06T10:04:56.682Z</time></trkpt><trkpt lat="43.9129717" lon="12.6982983"><ele>104.0</ele><time>2026-04-06T10:04:58.686Z</time></trkpt><trkpt lat="43.913055" lon="12.69823"><ele>104.0</ele><time>2026-04-06T10:05:00.686Z</time></trkpt><trkpt lat="43.9131483" lon="12.6981383"><ele>104.0</ele><time>2026-04-06T10:05:02.683Z</time></trkpt><trkpt lat="43.9132383" lon="12.6980533"><ele>104.0</ele><time>2026-04-06T10:05:04.684Z</time></trkpt><trkpt lat="43.91333" lon="12.6979817"><ele>104.0</ele><time>2026-04-06T10:05:06.685Z</time></trkpt><trkpt lat="43.91342" lon="12.6979133"><ele>104.0</ele><time>2026-04-06T10:05:08.683Z</time></trkpt><trkpt lat="43.9135033" lon="12.6978567"><ele>103.4</ele><time>2026-04-06T10:05:10.686Z</time></trkpt><trkpt lat="43.9135994" lon="12.6977915"><ele>102.80000000000001</ele><time>2026-04-06T10:05:12.685Z</time></trkpt><trkpt lat="43.9136915" lon="12.6977417"><ele>102.19999999999999</ele><time>2026-04-06T10:05:14.687Z</time></trkpt><trkpt lat="43.9137881" lon="12.6976725"><ele>101.6</ele><time>2026-04-06T10:05:16.685Z</time></trkpt><trkpt lat="43.9138819" lon="12.6975999"><ele>101.0</ele><time>2026-04-06T10:05:18.684Z</time></trkpt><trkpt lat="43.9139566" lon="12.697499"><ele>101.6</ele><time>2026-04-06T10:05:20.683Z</time></trkpt><trkpt lat="43.9140301" lon="12.6973831"><ele>102.19999999999999</ele><time>2026-04-06T10:05:22.684Z</time></trkpt><trkpt lat="43.9140887" lon="12.6972591"><ele>102.80000000000001</ele><time>2026-04-06T10:05:24.686Z</time></trkpt><trkpt lat="43.9141619" lon="12.697119"><ele>103.4</ele><time>2026-04-06T10:05:26.685Z</time></trkpt><trkpt lat="43.9142143" lon="12.6970556"><ele>104.0</ele><time>2026-04-06T10:05:27.686Z</time></trkpt><trkpt lat="43.9142704" lon="12.6969994"><ele>104.80000000000001</ele><time>2026-04-06T10:05:28.686Z</time></trkpt><trkpt lat="43.9143687" lon="12.6969026"><ele>105.60000000000001</ele><time>2026-04-06T10:05:30.687Z</time></trkpt><trkpt lat="43.9144662" lon="12.696807"><ele>106.4</ele><time>2026-04-06T10:05:32.686Z</time></trkpt><trkpt lat="43.9145205" lon="12.6967568"><ele>107.2</ele><time>2026-04-06T10:05:33.688Z</time></trkpt><trkpt lat="43.9145759" lon="12.6967078"><ele>108.0</ele><time>2026-04-06T10:05:34.686Z</time></trkpt><trkpt lat="43.9146854" lon="12.696634"><ele>108.0</ele><time>2026-04-06T10:05:36.686Z</time></trkpt><trkpt lat="43.9148026" lon="12.6965772"><ele>108.00000000000001</ele><time>2026-04-06T10:05:38.686Z</time></trkpt><trkpt lat="43.9148645" lon="12.6965561"><ele>108.00000000000001</ele><time>2026-04-06T10:05:39.684Z</time></trkpt><trkpt lat="43.9149722" lon="12.6965291"><ele>108.0</ele><time>2026-04-06T10:05:41.687Z</time></trkpt><trkpt lat="43.9150533" lon="12.6965073"><ele>108.0</ele><time>2026-04-06T10:05:43.688Z</time></trkpt><trkpt lat="43.9151322" lon="12.6964491"><ele>108.5</ele><time>2026-04-06T10:05:46.685Z</time></trkpt><trkpt lat="43.9151393" lon="12.6963308"><ele>109.0</ele><time>2026-04-06T10:05:49.686Z</time></trkpt><trkpt lat="43.9151138" lon="12.6962056"><ele>109.5</ele><time>2026-04-06T10:05:51.687Z</time></trkpt><trkpt lat="43.9150716" lon="12.6960567"><ele>110.0</ele><time>2026-04-06T10:05:53.686Z</time></trkpt><trkpt lat="43.9150446" lon="12.695972"><ele>110.5</ele><time>2026-04-06T10:05:54.685Z</time></trkpt><trkpt lat="43.9150189" lon="12.6958833"><ele>111.0</ele><time>2026-04-06T10:05:55.686Z</time></trkpt><trkpt lat="43.9149949" lon="12.6957955"><ele>111.0</ele><time>2026-04-06T10:05:56.686Z</time></trkpt><trkpt lat="43.9149699" lon="12.6957054"><ele>111.0</ele><time>2026-04-06T10:05:57.687Z</time></trkpt><trkpt lat="43.9149423" lon="12.6956132"><ele>111.0</ele><time>2026-04-06T10:05:58.687Z</time></trkpt><trkpt lat="43.9149167" lon="12.6955185"><ele>111.0</ele><time>2026-04-06T10:05:59.685Z</time></trkpt><trkpt lat="43.9148902" lon="12.6954246"><ele>111.0</ele><time>2026-04-06T10:06:00.687Z</time></trkpt><trkpt lat="43.9148648" lon="12.6953298"><ele>111.0</ele><time>2026-04-06T10:06:01.686Z</time></trkpt><trkpt lat="43.9148416" lon="12.6952431"><ele>111.0</ele><time>2026-04-06T10:06:02.687Z</time></trkpt><trkpt lat="43.9148037" lon="12.6951135"><ele>112.28571428571428</ele><time>2026-04-06T10:06:04.686Z</time></trkpt><trkpt lat="43.9147722" lon="12.6949925"><ele>113.57142857142858</ele><time>2026-04-06T10:06:06.687Z</time></trkpt><trkpt lat="43.9147598" lon="12.6949034"><ele>114.85714285714286</ele><time>2026-04-06T10:06:08.686Z</time></trkpt><trkpt lat="43.9147313" lon="12.6948094"><ele>116.14285714285714</ele><time>2026-04-06T10:06:12.687Z</time></trkpt><trkpt lat="43.9147275" lon="12.6947151"><ele>117.42857142857142</ele><time>2026-04-06T10:06:19.689Z</time></trkpt><trkpt lat="43.9147001" lon="12.6946184"><ele>118.71428571428572</ele><time>2026-04-06T10:06:22.687Z</time></trkpt><trkpt lat="43.9146695" lon="12.6945399"><ele>120.0</ele><time>2026-04-06T10:06:24.688Z</time></trkpt><trkpt lat="43.9146415" lon="12.6944421"><ele>119.6</ele><time>2026-04-06T10:06:27.686Z</time></trkpt><trkpt lat="43.9146877" lon="12.6943552"><ele>119.2</ele><time>2026-04-06T10:06:35.685Z</time></trkpt><trkpt lat="43.9148184" lon="12.6942791"><ele>118.80000000000001</ele><time>2026-04-06T10:06:37.686Z</time></trkpt><trkpt lat="43.9149131" lon="12.6942225"><ele>118.4</ele><time>2026-04-06T10:06:38.683Z</time></trkpt><trkpt lat="43.915019" lon="12.6941576"><ele>118.0</ele><time>2026-04-06T10:06:39.685Z</time></trkpt><trkpt lat="43.9151239" lon="12.6940943"><ele>118.00000000000001</ele><time>2026-04-06T10:06:40.687Z</time></trkpt><trkpt lat="43.9152202" lon="12.6940369"><ele>118.0</ele><time>2026-04-06T10:06:41.686Z</time></trkpt><trkpt lat="43.9153079" lon="12.6939864"><ele>118.0</ele><time>2026-04-06T10:06:42.686Z</time></trkpt><trkpt lat="43.915387" lon="12.6939425"><ele>118.0</ele><time>2026-04-06T10:06:43.68Z</time></trkpt><trkpt lat="43.9154579" lon="12.6939059"><ele>118.00000000000001</ele><time>2026-04-06T10:06:44.679Z</time></trkpt><trkpt lat="43.9155202" lon="12.693877"><ele>118.0</ele><time>2026-04-06T10:06:45.68Z</time></trkpt><trkpt lat="43.9156103" lon="12.693809"><ele>118.0</ele><time>2026-04-06T10:06:47.687Z</time></trkpt><trkpt lat="43.9156362" lon="12.6936939"><ele>118.00000000000001</ele><time>2026-04-06T10:06:49.69Z</time></trkpt><trkpt lat="43.9156115" lon="12.6935333"><ele>118.00000000000001</ele><time>2026-04-06T10:06:51.688Z</time></trkpt><trkpt lat="43.9155627" lon="12.6934505"><ele>118.0</ele><time>2026-04-06T10:06:52.686Z</time></trkpt><trkpt lat="43.9154767" lon="12.693365"><ele>118.0</ele><time>2026-04-06T10:06:53.687Z</time></trkpt><trkpt lat="43.915405" lon="12.693275"><ele>119.0</ele><time>2026-04-06T10:06:54.685Z</time></trkpt><trkpt lat="43.91533" lon="12.6931883"><ele>120.00000000000001</ele><time>2026-04-06T10:06:55.687Z</time></trkpt><trkpt lat="43.9152583" lon="12.6930883"><ele>121.00000000000001</ele><time>2026-04-06T10:06:56.687Z</time></trkpt><trkpt lat="43.91518" lon="12.6929883"><ele>122.0</ele><time>2026-04-06T10:06:57.688Z</time></trkpt><trkpt lat="43.9151017" lon="12.692885"><ele>123.0</ele><time>2026-04-06T10:06:58.686Z</time></trkpt><trkpt lat="43.915025" lon="12.6927917"><ele>123.60000000000001</ele><time>2026-04-06T10:06:59.688Z</time></trkpt><trkpt lat="43.9149533" lon="12.6927017"><ele>124.20000000000002</ele><time>2026-04-06T10:07:00.686Z</time></trkpt><trkpt lat="43.9148717" lon="12.69261"><ele>124.8</ele><time>2026-04-06T10:07:01.688Z</time></trkpt><trkpt lat="43.9147867" lon="12.692515"><ele>125.4</ele><time>2026-04-06T10:07:02.685Z</time></trkpt><trkpt lat="43.9147017" lon="12.69242"><ele>126.0</ele><time>2026-04-06T10:07:03.684Z</time></trkpt><trkpt lat="43.9146117" lon="12.6923283"><ele>126.0</ele><time>2026-04-06T10:07:04.686Z</time></trkpt><trkpt lat="43.914515" lon="12.692245"><ele>126.0</ele><time>2026-04-06T10:07:05.688Z</time></trkpt><trkpt lat="43.9144117" lon="12.6921683"><ele>126.0</ele><time>2026-04-06T10:07:06.686Z</time></trkpt><trkpt lat="43.914305" lon="12.692105"><ele>126.0</ele><time>2026-04-06T10:07:07.689Z</time></trkpt><trkpt lat="43.9141967" lon="12.692055"><ele>128.2</ele><time>2026-04-06T10:07:08.692Z</time></trkpt><trkpt lat="43.9140883" lon="12.692015"><ele>130.39999999999998</ele><time>2026-04-06T10:07:09.688Z</time></trkpt><trkpt lat="43.9139767" lon="12.6919867"><ele>132.6</ele><time>2026-04-06T10:07:10.684Z</time></trkpt><trkpt lat="43.913865" lon="12.69197"><ele>134.79999999999998</ele><time>2026-04-06T10:07:11.689Z</time></trkpt><trkpt lat="43.913765" lon="12.6919617"><ele>137.0</ele><time>2026-04-06T10:07:12.687Z</time></trkpt><trkpt lat="43.9136833" lon="12.6919617"><ele>137.0</ele><time>2026-04-06T10:07:13.689Z</time></trkpt><trkpt lat="43.9136083" lon="12.6919583"><ele>137.0</ele><time>2026-04-06T10:07:14.687Z</time></trkpt><trkpt lat="43.9135417" lon="12.6919483"><ele>137.0</ele><time>2026-04-06T10:07:15.687Z</time></trkpt><trkpt lat="43.9134483" lon="12.6918917"><ele>137.0</ele><time>2026-04-06T10:07:17.687Z</time></trkpt><trkpt lat="43.9133817" lon="12.69179"><ele>137.0</ele><time>2026-04-06T10:07:19.688Z</time></trkpt><trkpt lat="43.9133567" lon="12.6916267"><ele>137.0</ele><time>2026-04-06T10:07:21.687Z</time></trkpt><trkpt lat="43.913355" lon="12.6915283"><ele>137.0</ele><time>2026-04-06T10:07:22.686Z</time></trkpt><trkpt lat="43.91336" lon="12.6914133"><ele>137.0</ele><time>2026-04-06T10:07:23.687Z</time></trkpt><trkpt lat="43.9133633" lon="12.691285"><ele>137.0</ele><time>2026-04-06T10:07:24.685Z</time></trkpt><trkpt lat="43.9133667" lon="12.691145"><ele>137.0</ele><time>2026-04-06T10:07:25.688Z</time></trkpt><trkpt lat="43.9133617" lon="12.6910067"><ele>137.0</ele><time>2026-04-06T10:07:26.689Z</time></trkpt><trkpt lat="43.91335" lon="12.6908783"><ele>137.0</ele><time>2026-04-06T10:07:27.687Z</time></trkpt><trkpt lat="43.9133367" lon="12.690765"><ele>137.0</ele><time>2026-04-06T10:07:28.687Z</time></trkpt><trkpt lat="43.9133317" lon="12.6906667"><ele>137.0</ele><time>2026-04-06T10:07:29.687Z</time></trkpt><trkpt lat="43.913335" lon="12.69057"><ele>137.0</ele><time>2026-04-06T10:07:30.686Z</time></trkpt><trkpt lat="43.913335" lon="12.690465"><ele>137.0</ele><time>2026-04-06T10:07:31.688Z</time></trkpt><trkpt lat="43.9133333" lon="12.69036"><ele>137.0</ele><time>2026-04-06T10:07:32.686Z</time></trkpt><trkpt lat="43.9133233" lon="12.6902533"><ele>137.16666666666666</ele><time>2026-04-06T10:07:33.685Z</time></trkpt><trkpt lat="43.9133133" lon="12.6901433"><ele>137.33333333333331</ele><time>2026-04-06T10:07:34.685Z</time></trkpt><trkpt lat="43.9133033" lon="12.6900317"><ele>137.5</ele><time>2026-04-06T10:07:35.684Z</time></trkpt><trkpt lat="43.9132917" lon="12.6899167"><ele>137.66666666666666</ele><time>2026-04-06T10:07:36.684Z</time></trkpt><trkpt lat="43.9132783" lon="12.6897933"><ele>137.83333333333334</ele><time>2026-04-06T10:07:37.687Z</time></trkpt><trkpt lat="43.9132667" lon="12.6896667"><ele>138.0</ele><time>2026-04-06T10:07:38.685Z</time></trkpt><trkpt lat="43.9132583" lon="12.6895367"><ele>137.4</ele><time>2026-04-06T10:07:39.685Z</time></trkpt><trkpt lat="43.9132583" lon="12.6894083"><ele>136.8</ele><time>2026-04-06T10:07:40.687Z</time></trkpt><trkpt lat="43.91326" lon="12.6892917"><ele>136.2</ele><time>2026-04-06T10:07:41.687Z</time></trkpt><trkpt lat="43.9132617" lon="12.689195"><ele>135.6</ele><time>2026-04-06T10:07:42.687Z</time></trkpt><trkpt lat="43.9132883" lon="12.68907"><ele>135.0</ele><time>2026-04-06T10:07:44.688Z</time></trkpt><trkpt lat="43.913355" lon="12.6889467"><ele>135.0</ele><time>2026-04-06T10:07:46.684Z</time></trkpt><trkpt lat="43.9133867" lon="12.6888683"><ele>135.0</ele><time>2026-04-06T10:07:47.684Z</time></trkpt><trkpt lat="43.9134167" lon="12.6887567"><ele>135.0</ele><time>2026-04-06T10:07:48.686Z</time></trkpt><trkpt lat="43.9134417" lon="12.6886233"><ele>135.0</ele><time>2026-04-06T10:07:49.685Z</time></trkpt><trkpt lat="43.9134683" lon="12.6884833"><ele>135.0</ele><time>2026-04-06T10:07:50.687Z</time></trkpt><trkpt lat="43.9134967" lon="12.6883367"><ele>133.4</ele><time>2026-04-06T10:07:51.686Z</time></trkpt><trkpt lat="43.9135283" lon="12.688185"><ele>131.8</ele><time>2026-04-06T10:07:52.688Z</time></trkpt><trkpt lat="43.913555" lon="12.6880367"><ele>130.2</ele><time>2026-04-06T10:07:53.687Z</time></trkpt><trkpt lat="43.9135783" lon="12.6878983"><ele>128.6</ele><time>2026-04-06T10:07:54.686Z</time></trkpt><trkpt lat="43.9136067" lon="12.6877633"><ele>127.0</ele><time>2026-04-06T10:07:55.689Z</time></trkpt><trkpt lat="43.9136467" lon="12.6876233"><ele>127.0</ele><time>2026-04-06T10:07:56.687Z</time></trkpt><trkpt lat="43.9136967" lon="12.6874767"><ele>127.0</ele><time>2026-04-06T10:07:57.687Z</time></trkpt><trkpt lat="43.9137533" lon="12.6873233"><ele>127.0</ele><time>2026-04-06T10:07:58.686Z</time></trkpt><trkpt lat="43.91381" lon="12.68716"><ele>127.0</ele><time>2026-04-06T10:07:59.689Z</time></trkpt><trkpt lat="43.913865" lon="12.68699"><ele>126.75</ele><time>2026-04-06T10:08:00.687Z</time></trkpt><trkpt lat="43.9139217" lon="12.6868217"><ele>126.5</ele><time>2026-04-06T10:08:01.688Z</time></trkpt><trkpt lat="43.9139733" lon="12.68665"><ele>126.25</ele><time>2026-04-06T10:08:02.687Z</time></trkpt><trkpt lat="43.9140183" lon="12.6864717"><ele>126.0</ele><time>2026-04-06T10:08:03.687Z</time></trkpt><trkpt lat="43.914055" lon="12.68628"><ele>126.0</ele><time>2026-04-06T10:08:04.686Z</time></trkpt><trkpt lat="43.9140833" lon="12.6860833"><ele>126.0</ele><time>2026-04-06T10:08:05.687Z</time></trkpt><trkpt lat="43.9141033" lon="12.6858767"><ele>126.0</ele><time>2026-04-06T10:08:06.685Z</time></trkpt><trkpt lat="43.9141183" lon="12.6856633"><ele>126.0</ele><time>2026-04-06T10:08:07.69Z</time></trkpt><trkpt lat="43.9141317" lon="12.6854483"><ele>126.5</ele><time>2026-04-06T10:08:08.686Z</time></trkpt><trkpt lat="43.9141433" lon="12.6852417"><ele>127.0</ele><time>2026-04-06T10:08:09.688Z</time></trkpt><trkpt lat="43.9141567" lon="12.6850567"><ele>127.5</ele><time>2026-04-06T10:08:10.686Z</time></trkpt><trkpt lat="43.914175" lon="12.6848933"><ele>128.0</ele><time>2026-04-06T10:08:11.682Z</time></trkpt><trkpt lat="43.9141917" lon="12.6847567"><ele>128.0</ele><time>2026-04-06T10:08:12.687Z</time></trkpt><trkpt lat="43.914215" lon="12.6846467"><ele>128.0</ele><time>2026-04-06T10:08:13.688Z</time></trkpt><trkpt lat="43.914245" lon="12.684565"><ele>128.0</ele><time>2026-04-06T10:08:14.686Z</time></trkpt><trkpt lat="43.9143533" lon="12.68446"><ele>128.0</ele><time>2026-04-06T10:08:16.687Z</time></trkpt><trkpt lat="43.914435" lon="12.6844117"><ele>128.0</ele><time>2026-04-06T10:08:17.686Z</time></trkpt><trkpt lat="43.91453" lon="12.684355"><ele>125.25</ele><time>2026-04-06T10:08:18.688Z</time></trkpt><trkpt lat="43.91464" lon="12.6842767"><ele>122.5</ele><time>2026-04-06T10:08:19.689Z</time></trkpt><trkpt lat="43.91476" lon="12.684185"><ele>119.75</ele><time>2026-04-06T10:08:20.687Z</time></trkpt><trkpt lat="43.914885" lon="12.684095"><ele>117.0</ele><time>2026-04-06T10:08:21.687Z</time></trkpt><trkpt lat="43.915015" lon="12.6840167"><ele>113.5</ele><time>2026-04-06T10:08:22.686Z</time></trkpt><trkpt lat="43.9151433" lon="12.6839567"><ele>110.0</ele><time>2026-04-06T10:08:23.689Z</time></trkpt><trkpt lat="43.9152817" lon="12.6839117"><ele>106.5</ele><time>2026-04-06T10:08:24.687Z</time></trkpt><trkpt lat="43.91542" lon="12.683885"><ele>103.0</ele><time>2026-04-06T10:08:25.688Z</time></trkpt><trkpt lat="43.91556" lon="12.6838917"><ele>103.0</ele><time>2026-04-06T10:08:26.687Z</time></trkpt><trkpt lat="43.915705" lon="12.683915"><ele>103.0</ele><time>2026-04-06T10:08:27.687Z</time></trkpt><trkpt lat="43.9158583" lon="12.6839483"><ele>103.0</ele><time>2026-04-06T10:08:28.687Z</time></trkpt><trkpt lat="43.9160183" lon="12.6839817"><ele>100.0</ele><time>2026-04-06T10:08:29.687Z</time></trkpt><trkpt lat="43.9161767" lon="12.68401"><ele>97.0</ele><time>2026-04-06T10:08:30.686Z</time></trkpt><trkpt lat="43.91633" lon="12.6840433"><ele>94.0</ele><time>2026-04-06T10:08:31.688Z</time></trkpt><trkpt lat="43.9164767" lon="12.6840783"><ele>94.0</ele><time>2026-04-06T10:08:32.687Z</time></trkpt><trkpt lat="43.9166233" lon="12.6841117"><ele>94.0</ele><time>2026-04-06T10:08:33.688Z</time></trkpt><trkpt lat="43.9167733" lon="12.6841417"><ele>94.0</ele><time>2026-04-06T10:08:34.687Z</time></trkpt><trkpt lat="43.9169233" lon="12.684175"><ele>91.5</ele><time>2026-04-06T10:08:35.687Z</time></trkpt><trkpt lat="43.91707" lon="12.6842083"><ele>89.0</ele><time>2026-04-06T10:08:36.686Z</time></trkpt><trkpt lat="43.9172167" lon="12.6842383"><ele>86.5</ele><time>2026-04-06T10:08:37.688Z</time></trkpt><trkpt lat="43.9173583" lon="12.68427"><ele>84.0</ele><time>2026-04-06T10:08:38.687Z</time></trkpt><trkpt lat="43.9174983" lon="12.684305"><ele>81.5</ele><time>2026-04-06T10:08:39.687Z</time></trkpt><trkpt lat="43.9176333" lon="12.68435"><ele>79.0</ele><time>2026-04-06T10:08:40.687Z</time></trkpt><trkpt lat="43.9177717" lon="12.6843883"><ele>76.5</ele><time>2026-04-06T10:08:41.687Z</time></trkpt><trkpt lat="43.9179083" lon="12.68442"><ele>74.0</ele><time>2026-04-06T10:08:42.687Z</time></trkpt><trkpt lat="43.9180417" lon="12.68444"><ele>73.0</ele><time>2026-04-06T10:08:43.69Z</time></trkpt><trkpt lat="43.9181767" lon="12.684455"><ele>72.0</ele><time>2026-04-06T10:08:44.686Z</time></trkpt><trkpt lat="43.9183117" lon="12.6844783"><ele>71.0</ele><time>2026-04-06T10:08:45.689Z</time></trkpt><trkpt lat="43.9184483" lon="12.6845167"><ele>70.0</ele><time>2026-04-06T10:08:46.686Z</time></trkpt><trkpt lat="43.9185783" lon="12.6845867"><ele>67.5</ele><time>2026-04-06T10:08:47.688Z</time></trkpt><trkpt lat="43.918705" lon="12.6846667"><ele>65.0</ele><time>2026-04-06T10:08:48.686Z</time></trkpt><trkpt lat="43.91883" lon="12.684745"><ele>62.5</ele><time>2026-04-06T10:08:49.687Z</time></trkpt><trkpt lat="43.9189517" lon="12.6848167"><ele>60.0</ele><time>2026-04-06T10:08:50.687Z</time></trkpt><trkpt lat="43.9190667" lon="12.6848883"><ele>60.0</ele><time>2026-04-06T10:08:51.686Z</time></trkpt><trkpt lat="43.9191817" lon="12.6849467"><ele>60.0</ele><time>2026-04-06T10:08:52.687Z</time></trkpt><trkpt lat="43.9192883" lon="12.6849917"><ele>60.0</ele><time>2026-04-06T10:08:53.687Z</time></trkpt><trkpt lat="43.919375" lon="12.68502"><ele>60.0</ele><time>2026-04-06T10:08:54.687Z</time></trkpt><trkpt lat="43.9194433" lon="12.68503"><ele>60.0</ele><time>2026-04-06T10:08:55.688Z</time></trkpt><trkpt lat="43.919515" lon="12.685025"><ele>58.6</ele><time>2026-04-06T10:08:57.688Z</time></trkpt><trkpt lat="43.9195683" lon="12.6849767"><ele>57.2</ele><time>2026-04-06T10:09:00.686Z</time></trkpt><trkpt lat="43.91963" lon="12.68482"><ele>55.8</ele><time>2026-04-06T10:09:02.682Z</time></trkpt><trkpt lat="43.9196717" lon="12.6846933"><ele>54.4</ele><time>2026-04-06T10:09:03.686Z</time></trkpt><trkpt lat="43.9197167" lon="12.6845483"><ele>53.0</ele><time>2026-04-06T10:09:04.686Z</time></trkpt><trkpt lat="43.919765" lon="12.6843933"><ele>52.0</ele><time>2026-04-06T10:09:05.686Z</time></trkpt><trkpt lat="43.91981" lon="12.684235"><ele>51.0</ele><time>2026-04-06T10:09:06.685Z</time></trkpt><trkpt lat="43.9198533" lon="12.6840817"><ele>50.0</ele><time>2026-04-06T10:09:07.686Z</time></trkpt><trkpt lat="43.9198967" lon="12.68394"><ele>49.0</ele><time>2026-04-06T10:09:08.684Z</time></trkpt><trkpt lat="43.91995" lon="12.683815"><ele>49.0</ele><time>2026-04-06T10:09:09.685Z</time></trkpt><trkpt lat="43.9200217" lon="12.6837067"><ele>49.0</ele><time>2026-04-06T10:09:10.686Z</time></trkpt><trkpt lat="43.92011" lon="12.68362"><ele>49.0</ele><time>2026-04-06T10:09:11.687Z</time></trkpt><trkpt lat="43.9202083" lon="12.6835533"><ele>49.0</ele><time>2026-04-06T10:09:12.686Z</time></trkpt><trkpt lat="43.9203033" lon="12.683505"><ele>49.0</ele><time>2026-04-06T10:09:13.688Z</time></trkpt><trkpt lat="43.920385" lon="12.6834617"><ele>48.6</ele><time>2026-04-06T10:09:14.683Z</time></trkpt><trkpt lat="43.92045" lon="12.68342"><ele>48.2</ele><time>2026-04-06T10:09:15.685Z</time></trkpt><trkpt lat="43.9205183" lon="12.6833117"><ele>47.800000000000004</ele><time>2026-04-06T10:09:17.688Z</time></trkpt><trkpt lat="43.9205367" lon="12.6831717"><ele>47.400000000000006</ele><time>2026-04-06T10:09:19.687Z</time></trkpt><trkpt lat="43.920545" lon="12.6830267"><ele>47.0</ele><time>2026-04-06T10:09:21.686Z</time></trkpt><trkpt lat="43.92056" lon="12.68292"><ele>47.0</ele><time>2026-04-06T10:09:23.681Z</time></trkpt><trkpt lat="43.9205667" lon="12.6828"><ele>47.0</ele><time>2026-04-06T10:09:26.687Z</time></trkpt><trkpt lat="43.920555" lon="12.6827117"><ele>47.0</ele><time>2026-04-06T10:09:28.685Z</time></trkpt><trkpt lat="43.9205817" lon="12.6826083"><ele>47.0</ele><time>2026-04-06T10:09:30.685Z</time></trkpt><trkpt lat="43.9206467" lon="12.68251"><ele>47.0</ele><time>2026-04-06T10:09:32.684Z</time></trkpt><trkpt lat="43.9207267" lon="12.6824433"><ele>47.0</ele><time>2026-04-06T10:09:34.685Z</time></trkpt><trkpt lat="43.9208167" lon="12.6823917"><ele>48.0</ele><time>2026-04-06T10:09:36.685Z</time></trkpt><trkpt lat="43.9209217" lon="12.6823417"><ele>49.0</ele><time>2026-04-06T10:09:38.686Z</time></trkpt><trkpt lat="43.921035" lon="12.6822767"><ele>50.0</ele><time>2026-04-06T10:09:40.686Z</time></trkpt><trkpt lat="43.9211417" lon="12.68221"><ele>51.0</ele><time>2026-04-06T10:09:42.685Z</time></trkpt><trkpt lat="43.9212483" lon="12.6821567"><ele>51.0</ele><time>2026-04-06T10:09:44.686Z</time></trkpt><trkpt lat="43.92136" lon="12.682085"><ele>51.0</ele><time>2026-04-06T10:09:46.684Z</time></trkpt><trkpt lat="43.9214167" lon="12.682045"><ele>51.0</ele><time>2026-04-06T10:09:47.684Z</time></trkpt><trkpt lat="43.9215183" lon="12.6819867"><ele>51.0</ele><time>2026-04-06T10:09:49.688Z</time></trkpt><trkpt lat="43.9216067" lon="12.6819233"><ele>51.0</ele><time>2026-04-06T10:09:51.685Z</time></trkpt><trkpt lat="43.9217083" lon="12.6818533"><ele>51.199999999999996</ele><time>2026-04-06T10:09:53.688Z</time></trkpt><trkpt lat="43.921815" lon="12.6817917"><ele>51.4</ele><time>2026-04-06T10:09:55.686Z</time></trkpt><trkpt lat="43.921935" lon="12.6817267"><ele>51.6</ele><time>2026-04-06T10:09:57.684Z</time></trkpt><trkpt lat="43.9220167" lon="12.6816733"><ele>51.8</ele><time>2026-04-06T10:09:58.683Z</time></trkpt><trkpt lat="43.9221117" lon="12.6816167"><ele>52.0</ele><time>2026-04-06T10:09:59.685Z</time></trkpt><trkpt lat="43.9222183" lon="12.6815583"><ele>52.0</ele><time>2026-04-06T10:10:00.684Z</time></trkpt><trkpt lat="43.9223283" lon="12.6814983"><ele>52.0</ele><time>2026-04-06T10:10:01.687Z</time></trkpt><trkpt lat="43.9224433" lon="12.6814317"><ele>52.0</ele><time>2026-04-06T10:10:02.683Z</time></trkpt><trkpt lat="43.9225567" lon="12.6813617"><ele>52.0</ele><time>2026-04-06T10:10:03.685Z</time></trkpt><trkpt lat="43.9226667" lon="12.6812917"><ele>52.25</ele><time>2026-04-06T10:10:04.683Z</time></trkpt><trkpt lat="43.9227733" lon="12.681225"><ele>52.5</ele><time>2026-04-06T10:10:05.684Z</time></trkpt><trkpt lat="43.922885" lon="12.681165"><ele>52.75</ele><time>2026-04-06T10:10:06.677Z</time></trkpt><trkpt lat="43.9229933" lon="12.6811017"><ele>53.0</ele><time>2026-04-06T10:10:07.686Z</time></trkpt><trkpt lat="43.9231017" lon="12.6810483"><ele>53.00000000000001</ele><time>2026-04-06T10:10:08.683Z</time></trkpt><trkpt lat="43.9231967" lon="12.6809917"><ele>53.0</ele><time>2026-04-06T10:10:09.684Z</time></trkpt><trkpt lat="43.9232817" lon="12.6809467"><ele>53.0</ele><time>2026-04-06T10:10:10.685Z</time></trkpt><trkpt lat="43.9233533" lon="12.6809083"><ele>53.0</ele><time>2026-04-06T10:10:11.684Z</time></trkpt><trkpt lat="43.9234383" lon="12.680865"><ele>53.00000000000001</ele><time>2026-04-06T10:10:13.689Z</time></trkpt><trkpt lat="43.9234267" lon="12.6807733"><ele>53.0</ele><time>2026-04-06T10:10:17.685Z</time></trkpt><trkpt lat="43.9233883" lon="12.68057"><ele>53.25</ele><time>2026-04-06T10:10:19.686Z</time></trkpt><trkpt lat="43.9233583" lon="12.6804233"><ele>53.5</ele><time>2026-04-06T10:10:20.682Z</time></trkpt><trkpt lat="43.92331" lon="12.68024"><ele>53.75</ele><time>2026-04-06T10:10:21.684Z</time></trkpt><trkpt lat="43.923265" lon="12.6800517"><ele>54.0</ele><time>2026-04-06T10:10:22.686Z</time></trkpt><trkpt lat="43.92321" lon="12.6798433"><ele>54.66666666666667</ele><time>2026-04-06T10:10:23.683Z</time></trkpt><trkpt lat="43.9231533" lon="12.6796333"><ele>55.333333333333336</ele><time>2026-04-06T10:10:24.686Z</time></trkpt><trkpt lat="43.9230883" lon="12.6793983"><ele>56.0</ele><time>2026-04-06T10:10:25.688Z</time></trkpt><trkpt lat="43.92303" lon="12.6791633"><ele>56.0</ele><time>2026-04-06T10:10:26.686Z</time></trkpt><trkpt lat="43.92297" lon="12.6789117"><ele>56.0</ele><time>2026-04-06T10:10:27.686Z</time></trkpt><trkpt lat="43.922905" lon="12.678645"><ele>56.0</ele><time>2026-04-06T10:10:28.686Z</time></trkpt><trkpt lat="43.92284" lon="12.6783817"><ele>56.0</ele><time>2026-04-06T10:10:29.686Z</time></trkpt><trkpt lat="43.922775" lon="12.6781267"><ele>56.0</ele><time>2026-04-06T10:10:30.684Z</time></trkpt><trkpt lat="43.9227117" lon="12.6778867"><ele>56.0</ele><time>2026-04-06T10:10:31.689Z</time></trkpt><trkpt lat="43.9226567" lon="12.6776633"><ele>56.0</ele><time>2026-04-06T10:10:32.685Z</time></trkpt><trkpt lat="43.9226067" lon="12.6774483"><ele>56.0</ele><time>2026-04-06T10:10:33.686Z</time></trkpt><trkpt lat="43.92255" lon="12.677245"><ele>56.0</ele><time>2026-04-06T10:10:34.685Z</time></trkpt><trkpt lat="43.922495" lon="12.6770583"><ele>56.0</ele><time>2026-04-06T10:10:35.687Z</time></trkpt><trkpt lat="43.9224483" lon="12.6768883"><ele>55.99999999999999</ele><time>2026-04-06T10:10:36.685Z</time></trkpt><trkpt lat="43.9224083" lon="12.67675"><ele>55.99999999999999</ele><time>2026-04-06T10:10:37.688Z</time></trkpt><trkpt lat="43.9223783" lon="12.676635"><ele>56.0</ele><time>2026-04-06T10:10:38.682Z</time></trkpt><trkpt lat="43.92236" lon="12.676535"><ele>56.0</ele><time>2026-04-06T10:10:39.684Z</time></trkpt><trkpt lat="43.92232" lon="12.6764067"><ele>56.0</ele><time>2026-04-06T10:10:41.686Z</time></trkpt><trkpt lat="43.9222367" lon="12.6763667"><ele>55.99999999999999</ele><time>2026-04-06T10:10:43.686Z</time></trkpt><trkpt lat="43.9221633" lon="12.6763767"><ele>55.99999999999999</ele><time>2026-04-06T10:10:44.683Z</time></trkpt><trkpt lat="43.92205" lon="12.676385"><ele>56.0</ele><time>2026-04-06T10:10:45.685Z</time></trkpt><trkpt lat="43.9219183" lon="12.6763683"><ele>56.0</ele><time>2026-04-06T10:10:46.685Z</time></trkpt><trkpt lat="43.9217567" lon="12.676335"><ele>56.333333333333336</ele><time>2026-04-06T10:10:47.685Z</time></trkpt><trkpt lat="43.921595" lon="12.6762967"><ele>56.66666666666667</ele><time>2026-04-06T10:10:48.683Z</time></trkpt><trkpt lat="43.9214183" lon="12.6762633"><ele>57.0</ele><time>2026-04-06T10:10:49.687Z</time></trkpt><trkpt lat="43.9212383" lon="12.6762267"><ele>57.0</ele><time>2026-04-06T10:10:50.683Z</time></trkpt><trkpt lat="43.9210633" lon="12.6761883"><ele>57.0</ele><time>2026-04-06T10:10:51.683Z</time></trkpt><trkpt lat="43.9208917" lon="12.6761367"><ele>57.0</ele><time>2026-04-06T10:10:52.686Z</time></trkpt><trkpt lat="43.9207267" lon="12.6760683"><ele>57.66666666666667</ele><time>2026-04-06T10:10:53.688Z</time></trkpt><trkpt lat="43.920565" lon="12.6759783"><ele>58.333333333333336</ele><time>2026-04-06T10:10:54.685Z</time></trkpt><trkpt lat="43.920405" lon="12.6758667"><ele>59.0</ele><time>2026-04-06T10:10:55.686Z</time></trkpt><trkpt lat="43.920245" lon="12.6757467"><ele>59.0</ele><time>2026-04-06T10:10:56.683Z</time></trkpt><trkpt lat="43.9200867" lon="12.6756133"><ele>59.0</ele><time>2026-04-06T10:10:57.678Z</time></trkpt><trkpt lat="43.9199283" lon="12.6754733"><ele>59.0</ele><time>2026-04-06T10:10:58.687Z</time></trkpt><trkpt lat="43.9197667" lon="12.6753267"><ele>59.0</ele><time>2026-04-06T10:10:59.683Z</time></trkpt><trkpt lat="43.919605" lon="12.675175"><ele>59.0</ele><time>2026-04-06T10:11:00.686Z</time></trkpt><trkpt lat="43.9194433" lon="12.67502"><ele>59.0</ele><time>2026-04-06T10:11:01.687Z</time></trkpt><trkpt lat="43.91928" lon="12.6748683"><ele>59.333333333333336</ele><time>2026-04-06T10:11:02.682Z</time></trkpt><trkpt lat="43.919115" lon="12.674715"><ele>59.66666666666667</ele><time>2026-04-06T10:11:03.688Z</time></trkpt><trkpt lat="43.9189483" lon="12.6745633"><ele>60.0</ele><time>2026-04-06T10:11:04.685Z</time></trkpt><trkpt lat="43.91878" lon="12.6744133"><ele>60.0</ele><time>2026-04-06T10:11:05.688Z</time></trkpt><trkpt lat="43.91861" lon="12.6742633"><ele>60.0</ele><time>2026-04-06T10:11:06.685Z</time></trkpt><trkpt lat="43.9184383" lon="12.674115"><ele>60.0</ele><time>2026-04-06T10:11:07.687Z</time></trkpt><trkpt lat="43.9182667" lon="12.6739617"><ele>60.33333333333333</ele><time>2026-04-06T10:11:08.686Z</time></trkpt><trkpt lat="43.9180917" lon="12.6738083"><ele>60.666666666666664</ele><time>2026-04-06T10:11:09.686Z</time></trkpt><trkpt lat="43.917915" lon="12.6736567"><ele>61.0</ele><time>2026-04-06T10:11:10.686Z</time></trkpt><trkpt lat="43.917735" lon="12.6735017"><ele>61.666666666666664</ele><time>2026-04-06T10:11:11.686Z</time></trkpt><trkpt lat="43.9175683" lon="12.6733467"><ele>62.33333333333333</ele><time>2026-04-06T10:11:12.688Z</time></trkpt><trkpt lat="43.9174083" lon="12.6732067"><ele>63.0</ele><time>2026-04-06T10:11:13.687Z</time></trkpt><trkpt lat="43.91726" lon="12.6730733"><ele>63.0</ele><time>2026-04-06T10:11:14.683Z</time></trkpt><trkpt lat="43.91712" lon="12.67295"><ele>63.0</ele><time>2026-04-06T10:11:15.684Z</time></trkpt><trkpt lat="43.9169867" lon="12.6728383"><ele>63.0</ele><time>2026-04-06T10:11:16.684Z</time></trkpt><trkpt lat="43.9168517" lon="12.6727317"><ele>63.33333333333333</ele><time>2026-04-06T10:11:17.685Z</time></trkpt><trkpt lat="43.91672" lon="12.6726167"><ele>63.666666666666664</ele><time>2026-04-06T10:11:18.684Z</time></trkpt><trkpt lat="43.9165867" lon="12.6724833"><ele>64.0</ele><time>2026-04-06T10:11:19.686Z</time></trkpt><trkpt lat="43.9164617" lon="12.672325"><ele>64.0</ele><time>2026-04-06T10:11:20.683Z</time></trkpt><trkpt lat="43.9163417" lon="12.6721483"><ele>64.0</ele><time>2026-04-06T10:11:21.686Z</time></trkpt><trkpt lat="43.916225" lon="12.6719517"><ele>64.0</ele><time>2026-04-06T10:11:22.687Z</time></trkpt><trkpt lat="43.9161067" lon="12.6717483"><ele>64.0</ele><time>2026-04-06T10:11:23.686Z</time></trkpt><trkpt lat="43.9159917" lon="12.67154"><ele>64.0</ele><time>2026-04-06T10:11:24.688Z</time></trkpt><trkpt lat="43.91589" lon="12.6713067"><ele>64.0</ele><time>2026-04-06T10:11:25.687Z</time></trkpt><trkpt lat="43.9158017" lon="12.671055"><ele>64.33333333333333</ele><time>2026-04-06T10:11:26.686Z</time></trkpt><trkpt lat="43.91572" lon="12.6707933"><ele>64.66666666666667</ele><time>2026-04-06T10:11:27.685Z</time></trkpt><trkpt lat="43.9156383" lon="12.6705333"><ele>65.0</ele><time>2026-04-06T10:11:28.684Z</time></trkpt><trkpt lat="43.9155517" lon="12.6702783"><ele>65.66666666666667</ele><time>2026-04-06T10:11:29.685Z</time></trkpt><trkpt lat="43.9154567" lon="12.6700233"><ele>66.33333333333333</ele><time>2026-04-06T10:11:30.688Z</time></trkpt><trkpt lat="43.915355" lon="12.669775"><ele>67.0</ele><time>2026-04-06T10:11:31.686Z</time></trkpt><trkpt lat="43.915245" lon="12.6695317"><ele>67.66666666666666</ele><time>2026-04-06T10:11:32.683Z</time></trkpt><trkpt lat="43.9151283" lon="12.6692917"><ele>68.33333333333333</ele><time>2026-04-06T10:11:33.684Z</time></trkpt><trkpt lat="43.9150083" lon="12.6690533"><ele>69.0</ele><time>2026-04-06T10:11:34.686Z</time></trkpt><trkpt lat="43.9148917" lon="12.6688133"><ele>68.33333333333333</ele><time>2026-04-06T10:11:35.685Z</time></trkpt><trkpt lat="43.9147867" lon="12.66857"><ele>67.66666666666666</ele><time>2026-04-06T10:11:36.685Z</time></trkpt><trkpt lat="43.9146933" lon="12.6683217"><ele>67.0</ele><time>2026-04-06T10:11:37.686Z</time></trkpt><trkpt lat="43.9146133" lon="12.6680683"><ele>67.0</ele><time>2026-04-06T10:11:38.682Z</time></trkpt><trkpt lat="43.91454" lon="12.66782"><ele>67.0</ele><time>2026-04-06T10:11:39.684Z</time></trkpt><trkpt lat="43.914465" lon="12.6675833"><ele>67.0</ele><time>2026-04-06T10:11:40.688Z</time></trkpt><trkpt lat="43.91437" lon="12.6673567"><ele>66.66666666666666</ele><time>2026-04-06T10:11:41.685Z</time></trkpt><trkpt lat="43.914265" lon="12.6671433"><ele>66.33333333333333</ele><time>2026-04-06T10:11:42.686Z</time></trkpt><trkpt lat="43.9141483" lon="12.6669267"><ele>66.0</ele><time>2026-04-06T10:11:43.688Z</time></trkpt><trkpt lat="43.914025" lon="12.66672"><ele>66.66666666666667</ele><time>2026-04-06T10:11:44.687Z</time></trkpt><trkpt lat="43.9138983" lon="12.666525"><ele>67.33333333333334</ele><time>2026-04-06T10:11:45.686Z</time></trkpt><trkpt lat="43.913775" lon="12.6663433"><ele>68.0</ele><time>2026-04-06T10:11:46.687Z</time></trkpt><trkpt lat="43.9136567" lon="12.6661567"><ele>68.0</ele><time>2026-04-06T10:11:47.685Z</time></trkpt><trkpt lat="43.91355" lon="12.6659533"><ele>68.0</ele><time>2026-04-06T10:11:48.685Z</time></trkpt><trkpt lat="43.9134583" lon="12.6657317"><ele>68.0</ele><time>2026-04-06T10:11:49.69Z</time></trkpt><trkpt lat="43.91338" lon="12.6654967"><ele>68.0</ele><time>2026-04-06T10:11:50.687Z</time></trkpt><trkpt lat="43.9133033" lon="12.6652567"><ele>68.0</ele><time>2026-04-06T10:11:51.683Z</time></trkpt><trkpt lat="43.9132283" lon="12.6650117"><ele>68.0</ele><time>2026-04-06T10:11:52.686Z</time></trkpt><trkpt lat="43.9131533" lon="12.6647683"><ele>68.0</ele><time>2026-04-06T10:11:53.688Z</time></trkpt><trkpt lat="43.91308" lon="12.6645383"><ele>68.0</ele><time>2026-04-06T10:11:54.686Z</time></trkpt><trkpt lat="43.9130083" lon="12.6643217"><ele>68.0</ele><time>2026-04-06T10:11:55.688Z</time></trkpt><trkpt lat="43.912935" lon="12.6641133"><ele>68.5</ele><time>2026-04-06T10:11:56.687Z</time></trkpt><trkpt lat="43.9128617" lon="12.6639167"><ele>69.0</ele><time>2026-04-06T10:11:57.684Z</time></trkpt><trkpt lat="43.9127867" lon="12.6637367"><ele>69.5</ele><time>2026-04-06T10:11:58.688Z</time></trkpt><trkpt lat="43.9127033" lon="12.6635833"><ele>70.0</ele><time>2026-04-06T10:11:59.688Z</time></trkpt><trkpt lat="43.91262" lon="12.6634567"><ele>69.75</ele><time>2026-04-06T10:12:00.686Z</time></trkpt><trkpt lat="43.9125383" lon="12.6633483"><ele>69.5</ele><time>2026-04-06T10:12:01.687Z</time></trkpt><trkpt lat="43.91245" lon="12.6632433"><ele>69.25</ele><time>2026-04-06T10:12:02.683Z</time></trkpt><trkpt lat="43.9123567" lon="12.66314"><ele>69.0</ele><time>2026-04-06T10:12:03.678Z</time></trkpt><trkpt lat="43.9122617" lon="12.6630383"><ele>69.0</ele><time>2026-04-06T10:12:04.681Z</time></trkpt><trkpt lat="43.9121633" lon="12.662935"><ele>69.0</ele><time>2026-04-06T10:12:05.682Z</time></trkpt><trkpt lat="43.91207" lon="12.6628317"><ele>69.0</ele><time>2026-04-06T10:12:06.687Z</time></trkpt><trkpt lat="43.911975" lon="12.6627267"><ele>69.0</ele><time>2026-04-06T10:12:07.687Z</time></trkpt><trkpt lat="43.9118817" lon="12.6626217"><ele>68.75</ele><time>2026-04-06T10:12:08.683Z</time></trkpt><trkpt lat="43.9117867" lon="12.662515"><ele>68.5</ele><time>2026-04-06T10:12:09.687Z</time></trkpt><trkpt lat="43.9116933" lon="12.66241"><ele>68.25</ele><time>2026-04-06T10:12:10.686Z</time></trkpt><trkpt lat="43.9116" lon="12.6623067"><ele>68.0</ele><time>2026-04-06T10:12:11.685Z</time></trkpt><trkpt lat="43.9115133" lon="12.6622117"><ele>68.0</ele><time>2026-04-06T10:12:12.686Z</time></trkpt><trkpt lat="43.91143" lon="12.6621183"><ele>68.0</ele><time>2026-04-06T10:12:13.688Z</time></trkpt><trkpt lat="43.9113433" lon="12.6620283"><ele>68.0</ele><time>2026-04-06T10:12:14.688Z</time></trkpt><trkpt lat="43.9112533" lon="12.6619267"><ele>68.0</ele><time>2026-04-06T10:12:15.686Z</time></trkpt><trkpt lat="43.9111667" lon="12.6618083"><ele>68.25</ele><time>2026-04-06T10:12:16.687Z</time></trkpt><trkpt lat="43.911075" lon="12.6616783"><ele>68.5</ele><time>2026-04-06T10:12:17.683Z</time></trkpt><trkpt lat="43.9109883" lon="12.661525"><ele>68.75</ele><time>2026-04-06T10:12:18.687Z</time></trkpt><trkpt lat="43.9109083" lon="12.6613533"><ele>69.0</ele><time>2026-04-06T10:12:19.686Z</time></trkpt><trkpt lat="43.9108233" lon="12.6611767"><ele>69.5</ele><time>2026-04-06T10:12:20.686Z</time></trkpt><trkpt lat="43.910745" lon="12.6609967"><ele>70.0</ele><time>2026-04-06T10:12:21.686Z</time></trkpt><trkpt lat="43.9106817" lon="12.66082"><ele>70.5</ele><time>2026-04-06T10:12:22.685Z</time></trkpt><trkpt lat="43.91063" lon="12.6606517"><ele>71.0</ele><time>2026-04-06T10:12:23.687Z</time></trkpt><trkpt lat="43.9105833" lon="12.6604867"><ele>71.0</ele><time>2026-04-06T10:12:24.687Z</time></trkpt><trkpt lat="43.910545" lon="12.660325"><ele>71.0</ele><time>2026-04-06T10:12:25.688Z</time></trkpt><trkpt lat="43.9105183" lon="12.6601717"><ele>71.0</ele><time>2026-04-06T10:12:26.687Z</time></trkpt><trkpt lat="43.9105" lon="12.6600283"><ele>71.0</ele><time>2026-04-06T10:12:27.686Z</time></trkpt><trkpt lat="43.9104833" lon="12.6598967"><ele>71.0</ele><time>2026-04-06T10:12:28.687Z</time></trkpt><trkpt lat="43.9104567" lon="12.6597733"><ele>71.2</ele><time>2026-04-06T10:12:29.687Z</time></trkpt><trkpt lat="43.91042" lon="12.6596533"><ele>71.39999999999999</ele><time>2026-04-06T10:12:30.688Z</time></trkpt><trkpt lat="43.9103683" lon="12.6595283"><ele>71.6</ele><time>2026-04-06T10:12:31.686Z</time></trkpt><trkpt lat="43.9103083" lon="12.6593967"><ele>71.8</ele><time>2026-04-06T10:12:32.682Z</time></trkpt><trkpt lat="43.9102433" lon="12.659255"><ele>72.0</ele><time>2026-04-06T10:12:33.685Z</time></trkpt><trkpt lat="43.91017" lon="12.6591083"><ele>72.0</ele><time>2026-04-06T10:12:34.686Z</time></trkpt><trkpt lat="43.9100917" lon="12.6589617"><ele>72.0</ele><time>2026-04-06T10:12:35.684Z</time></trkpt><trkpt lat="43.9100083" lon="12.6588133"><ele>72.0</ele><time>2026-04-06T10:12:36.685Z</time></trkpt><trkpt lat="43.9099283" lon="12.6586583"><ele>72.0</ele><time>2026-04-06T10:12:37.686Z</time></trkpt><trkpt lat="43.9098467" lon="12.658505"><ele>72.0</ele><time>2026-04-06T10:12:38.683Z</time></trkpt><trkpt lat="43.90976" lon="12.6583517"><ele>72.0</ele><time>2026-04-06T10:12:39.684Z</time></trkpt><trkpt lat="43.9096683" lon="12.658205"><ele>72.0</ele><time>2026-04-06T10:12:40.687Z</time></trkpt><trkpt lat="43.90957" lon="12.6580583"><ele>72.0</ele><time>2026-04-06T10:12:41.687Z</time></trkpt><trkpt lat="43.9094733" lon="12.6579133"><ele>71.75</ele><time>2026-04-06T10:12:42.688Z</time></trkpt><trkpt lat="43.9093783" lon="12.6577817"><ele>71.5</ele><time>2026-04-06T10:12:43.687Z</time></trkpt><trkpt lat="43.9092883" lon="12.6576633"><ele>71.25</ele><time>2026-04-06T10:12:44.686Z</time></trkpt><trkpt lat="43.90919" lon="12.657555"><ele>71.0</ele><time>2026-04-06T10:12:45.684Z</time></trkpt><trkpt lat="43.909085" lon="12.6574583"><ele>71.0</ele><time>2026-04-06T10:12:46.685Z</time></trkpt><trkpt lat="43.9089717" lon="12.65737"><ele>71.0</ele><time>2026-04-06T10:12:47.685Z</time></trkpt><trkpt lat="43.9088533" lon="12.6572867"><ele>71.0</ele><time>2026-04-06T10:12:48.684Z</time></trkpt><trkpt lat="43.9087267" lon="12.6572067"><ele>71.0</ele><time>2026-04-06T10:12:49.686Z</time></trkpt><trkpt lat="43.9085917" lon="12.65713"><ele>71.0</ele><time>2026-04-06T10:12:50.684Z</time></trkpt><trkpt lat="43.908455" lon="12.6570567"><ele>71.0</ele><time>2026-04-06T10:12:51.684Z</time></trkpt><trkpt lat="43.90832" lon="12.6569867"><ele>71.0</ele><time>2026-04-06T10:12:52.687Z</time></trkpt><trkpt lat="43.9081917" lon="12.6569183"><ele>71.0</ele><time>2026-04-06T10:12:53.687Z</time></trkpt><trkpt lat="43.908075" lon="12.6568533"><ele>71.5</ele><time>2026-04-06T10:12:54.686Z</time></trkpt><trkpt lat="43.907965" lon="12.6567883"><ele>72.0</ele><time>2026-04-06T10:12:55.687Z</time></trkpt><trkpt lat="43.907855" lon="12.65672"><ele>72.5</ele><time>2026-04-06T10:12:56.685Z</time></trkpt><trkpt lat="43.9077483" lon="12.6566583"><ele>73.0</ele><time>2026-04-06T10:12:57.686Z</time></trkpt><trkpt lat="43.90764" lon="12.6566183"><ele>72.6</ele><time>2026-04-06T10:12:58.686Z</time></trkpt><trkpt lat="43.9075317" lon="12.656595"><ele>72.19999999999999</ele><time>2026-04-06T10:12:59.687Z</time></trkpt><trkpt lat="43.9074267" lon="12.6565833"><ele>71.8</ele><time>2026-04-06T10:13:00.688Z</time></trkpt><trkpt lat="43.9073217" lon="12.6565883"><ele>71.39999999999999</ele><time>2026-04-06T10:13:01.69Z</time></trkpt><trkpt lat="43.9072183" lon="12.6565983"><ele>71.0</ele><time>2026-04-06T10:13:02.687Z</time></trkpt><trkpt lat="43.9071167" lon="12.6566033"><ele>71.0</ele><time>2026-04-06T10:13:03.688Z</time></trkpt><trkpt lat="43.9070183" lon="12.6566133"><ele>71.0</ele><time>2026-04-06T10:13:04.686Z</time></trkpt><trkpt lat="43.906925" lon="12.656635"><ele>71.0</ele><time>2026-04-06T10:13:05.682Z</time></trkpt><trkpt lat="43.90683" lon="12.6566633"><ele>71.0</ele><time>2026-04-06T10:13:06.684Z</time></trkpt><trkpt lat="43.9067367" lon="12.6566983"><ele>71.0</ele><time>2026-04-06T10:13:07.688Z</time></trkpt><trkpt lat="43.9066517" lon="12.6567333"><ele>70.39999999999999</ele><time>2026-04-06T10:13:08.687Z</time></trkpt><trkpt lat="43.9065817" lon="12.6567617"><ele>69.8</ele><time>2026-04-06T10:13:09.686Z</time></trkpt><trkpt lat="43.90646" lon="12.6567633"><ele>69.19999999999999</ele><time>2026-04-06T10:13:11.689Z</time></trkpt><trkpt lat="43.9063517" lon="12.6567117"><ele>68.6</ele><time>2026-04-06T10:13:13.687Z</time></trkpt><trkpt lat="43.9062733" lon="12.6566067"><ele>68.0</ele><time>2026-04-06T10:13:15.687Z</time></trkpt><trkpt lat="43.9062333" lon="12.6565267"><ele>68.0</ele><time>2026-04-06T10:13:16.687Z</time></trkpt><trkpt lat="43.906195" lon="12.65643"><ele>68.0</ele><time>2026-04-06T10:13:17.684Z</time></trkpt><trkpt lat="43.9061633" lon="12.6563183"><ele>68.0</ele><time>2026-04-06T10:13:18.686Z</time></trkpt><trkpt lat="43.9061317" lon="12.6562"><ele>68.0</ele><time>2026-04-06T10:13:19.688Z</time></trkpt><trkpt lat="43.9060967" lon="12.6560867"><ele>68.0</ele><time>2026-04-06T10:13:20.683Z</time></trkpt><trkpt lat="43.9060733" lon="12.6559767"><ele>68.0</ele><time>2026-04-06T10:13:21.685Z</time></trkpt><trkpt lat="43.90604" lon="12.6558683"><ele>68.0</ele><time>2026-04-06T10:13:22.684Z</time></trkpt><trkpt lat="43.9060117" lon="12.6557583"><ele>68.0</ele><time>2026-04-06T10:13:23.687Z</time></trkpt><trkpt lat="43.9059833" lon="12.655655"><ele>68.0</ele><time>2026-04-06T10:13:24.685Z</time></trkpt><trkpt lat="43.905945" lon="12.6555667"><ele>68.0</ele><time>2026-04-06T10:13:25.686Z</time></trkpt><trkpt lat="43.9059017" lon="12.655495"><ele>68.0</ele><time>2026-04-06T10:13:26.683Z</time></trkpt><trkpt lat="43.9058033" lon="12.6554"><ele>68.0</ele><time>2026-04-06T10:13:28.687Z</time></trkpt><trkpt lat="43.9057417" lon="12.6553667"><ele>68.0</ele><time>2026-04-06T10:13:29.682Z</time></trkpt><trkpt lat="43.90568" lon="12.655335"><ele>68.0</ele><time>2026-04-06T10:13:30.687Z</time></trkpt><trkpt lat="43.9056167" lon="12.655305"><ele>68.0</ele><time>2026-04-06T10:13:31.686Z</time></trkpt><trkpt lat="43.90555" lon="12.65528"><ele>68.0</ele><time>2026-04-06T10:13:32.683Z</time></trkpt><trkpt lat="43.9054717" lon="12.6552617"><ele>68.0</ele><time>2026-04-06T10:13:33.685Z</time></trkpt><trkpt lat="43.9053817" lon="12.6552433"><ele>68.0</ele><time>2026-04-06T10:13:34.685Z</time></trkpt><trkpt lat="43.90528" lon="12.6552217"><ele>68.4</ele><time>2026-04-06T10:13:35.685Z</time></trkpt><trkpt lat="43.905175" lon="12.6551933"><ele>68.8</ele><time>2026-04-06T10:13:36.687Z</time></trkpt><trkpt lat="43.90507" lon="12.6551667"><ele>69.2</ele><time>2026-04-06T10:13:37.688Z</time></trkpt><trkpt lat="43.9049583" lon="12.65513"><ele>69.6</ele><time>2026-04-06T10:13:38.682Z</time></trkpt><trkpt lat="43.9048483" lon="12.6550883"><ele>70.0</ele><time>2026-04-06T10:13:39.684Z</time></trkpt><trkpt lat="43.90475" lon="12.6550383"><ele>70.0</ele><time>2026-04-06T10:13:40.687Z</time></trkpt><trkpt lat="43.9046583" lon="12.654995"><ele>70.0</ele><time>2026-04-06T10:13:41.687Z</time></trkpt><trkpt lat="43.9045683" lon="12.6549467"><ele>70.0</ele><time>2026-04-06T10:13:42.687Z</time></trkpt><trkpt lat="43.9044783" lon="12.6548933"><ele>70.0</ele><time>2026-04-06T10:13:43.689Z</time></trkpt><trkpt lat="43.9043917" lon="12.6548433"><ele>70.0</ele><time>2026-04-06T10:13:44.683Z</time></trkpt><trkpt lat="43.904315" lon="12.6548017"><ele>70.0</ele><time>2026-04-06T10:13:45.685Z</time></trkpt><trkpt lat="43.90425" lon="12.6547567"><ele>70.0</ele><time>2026-04-06T10:13:46.687Z</time></trkpt><trkpt lat="43.9042" lon="12.6547033"><ele>70.0</ele><time>2026-04-06T10:13:47.683Z</time></trkpt><trkpt lat="43.9041533" lon="12.654625"><ele>70.0</ele><time>2026-04-06T10:13:48.687Z</time></trkpt><trkpt lat="43.9041083" lon="12.65452"><ele>70.0</ele><time>2026-04-06T10:13:49.689Z</time></trkpt><trkpt lat="43.904055" lon="12.65439"><ele>70.0</ele><time>2026-04-06T10:13:50.687Z</time></trkpt><trkpt lat="43.9039933" lon="12.6542483"><ele>71.25</ele><time>2026-04-06T10:13:51.688Z</time></trkpt><trkpt lat="43.9039267" lon="12.6540967"><ele>72.5</ele><time>2026-04-06T10:13:52.684Z</time></trkpt><trkpt lat="43.9038617" lon="12.6539483"><ele>73.75</ele><time>2026-04-06T10:13:53.685Z</time></trkpt><trkpt lat="43.903805" lon="12.6538167"><ele>75.0</ele><time>2026-04-06T10:13:54.687Z</time></trkpt><trkpt lat="43.9037483" lon="12.6536983"><ele>75.2</ele><time>2026-04-06T10:13:55.69Z</time></trkpt><trkpt lat="43.9036833" lon="12.6535967"><ele>75.4</ele><time>2026-04-06T10:13:56.687Z</time></trkpt><trkpt lat="43.9036133" lon="12.6535183"><ele>75.6</ele><time>2026-04-06T10:13:57.685Z</time></trkpt><trkpt lat="43.903525" lon="12.653455"><ele>75.8</ele><time>2026-04-06T10:13:58.685Z</time></trkpt><trkpt lat="43.9034267" lon="12.653405"><ele>76.0</ele><time>2026-04-06T10:13:59.685Z</time></trkpt><trkpt lat="43.903325" lon="12.6533517"><ele>77.6</ele><time>2026-04-06T10:14:00.686Z</time></trkpt><trkpt lat="43.903225" lon="12.6532917"><ele>79.19999999999999</ele><time>2026-04-06T10:14:01.687Z</time></trkpt><trkpt lat="43.9031367" lon="12.65323"><ele>80.80000000000001</ele><time>2026-04-06T10:14:02.685Z</time></trkpt><trkpt lat="43.9030483" lon="12.6531783"><ele>82.4</ele><time>2026-04-06T10:14:03.684Z</time></trkpt><trkpt lat="43.9029533" lon="12.6531417"><ele>84.0</ele><time>2026-04-06T10:14:04.687Z</time></trkpt><trkpt lat="43.9028483" lon="12.6531183"><ele>84.0</ele><time>2026-04-06T10:14:05.684Z</time></trkpt><trkpt lat="43.902735" lon="12.6531117"><ele>84.0</ele><time>2026-04-06T10:14:06.686Z</time></trkpt><trkpt lat="43.9026133" lon="12.6531017"><ele>84.0</ele><time>2026-04-06T10:14:07.687Z</time></trkpt><trkpt lat="43.90249" lon="12.6530983"><ele>84.0</ele><time>2026-04-06T10:14:08.678Z</time></trkpt><trkpt lat="43.9023617" lon="12.6531017"><ele>84.5</ele><time>2026-04-06T10:14:09.684Z</time></trkpt><trkpt lat="43.902225" lon="12.6531"><ele>85.0</ele><time>2026-04-06T10:14:10.686Z</time></trkpt><trkpt lat="43.902085" lon="12.653095"><ele>85.5</ele><time>2026-04-06T10:14:11.685Z</time></trkpt><trkpt lat="43.901945" lon="12.6530867"><ele>86.0</ele><time>2026-04-06T10:14:12.686Z</time></trkpt><trkpt lat="43.901815" lon="12.6530833"><ele>86.4</ele><time>2026-04-06T10:14:13.688Z</time></trkpt><trkpt lat="43.9016983" lon="12.65308"><ele>86.8</ele><time>2026-04-06T10:14:14.688Z</time></trkpt><trkpt lat="43.9015883" lon="12.6530767"><ele>87.2</ele><time>2026-04-06T10:14:15.687Z</time></trkpt><trkpt lat="43.9014867" lon="12.6530667"><ele>87.60000000000001</ele><time>2026-04-06T10:14:16.685Z</time></trkpt><trkpt lat="43.9014033" lon="12.6530633"><ele>88.0</ele><time>2026-04-06T10:14:17.689Z</time></trkpt><trkpt lat="43.9013317" lon="12.653065"><ele>88.0</ele><time>2026-04-06T10:14:18.687Z</time></trkpt><trkpt lat="43.90125" lon="12.65309"><ele>88.0</ele><time>2026-04-06T10:14:20.687Z</time></trkpt><trkpt lat="43.9011533" lon="12.653155"><ele>88.0</ele><time>2026-04-06T10:14:23.683Z</time></trkpt><trkpt lat="43.9010883" lon="12.6532083"><ele>88.0</ele><time>2026-04-06T10:14:24.687Z</time></trkpt><trkpt lat="43.901" lon="12.6532517"><ele>88.0</ele><time>2026-04-06T10:14:25.688Z</time></trkpt><trkpt lat="43.90089" lon="12.6532767"><ele>87.25</ele><time>2026-04-06T10:14:26.687Z</time></trkpt><trkpt lat="43.900745" lon="12.6532733"><ele>86.5</ele><time>2026-04-06T10:14:27.687Z</time></trkpt><trkpt lat="43.90059" lon="12.6532433"><ele>85.75</ele><time>2026-04-06T10:14:28.688Z</time></trkpt><trkpt lat="43.90045" lon="12.6532117"><ele>85.0</ele><time>2026-04-06T10:14:29.682Z</time></trkpt><trkpt lat="43.9003117" lon="12.65319"><ele>85.0</ele><time>2026-04-06T10:14:30.685Z</time></trkpt><trkpt lat="43.900175" lon="12.6531883"><ele>85.0</ele><time>2026-04-06T10:14:31.686Z</time></trkpt><trkpt lat="43.9000383" lon="12.6531983"><ele>85.0</ele><time>2026-04-06T10:14:32.683Z</time></trkpt><trkpt lat="43.8998967" lon="12.6532183"><ele>85.0</ele><time>2026-04-06T10:14:33.685Z</time></trkpt><trkpt lat="43.8997533" lon="12.65325"><ele>84.0</ele><time>2026-04-06T10:14:34.686Z</time></trkpt><trkpt lat="43.89962" lon="12.65328"><ele>83.0</ele><time>2026-04-06T10:14:35.683Z</time></trkpt><trkpt lat="43.8994983" lon="12.6533083"><ele>82.0</ele><time>2026-04-06T10:14:36.686Z</time></trkpt><trkpt lat="43.899395" lon="12.6533333"><ele>81.0</ele><time>2026-04-06T10:14:37.686Z</time></trkpt><trkpt lat="43.8993083" lon="12.65336"><ele>80.33333333333333</ele><time>2026-04-06T10:14:38.687Z</time></trkpt><trkpt lat="43.8992367" lon="12.6534017"><ele>79.66666666666667</ele><time>2026-04-06T10:14:39.684Z</time></trkpt><trkpt lat="43.8991633" lon="12.6534567"><ele>79.0</ele><time>2026-04-06T10:14:40.688Z</time></trkpt><trkpt lat="43.8990983" lon="12.653525"><ele>78.33333333333334</ele><time>2026-04-06T10:14:41.687Z</time></trkpt><trkpt lat="43.89904" lon="12.6536033"><ele>77.66666666666667</ele><time>2026-04-06T10:14:42.686Z</time></trkpt><trkpt lat="43.8989833" lon="12.653685"><ele>77.0</ele><time>2026-04-06T10:14:43.687Z</time></trkpt><trkpt lat="43.8989217" lon="12.6537683"><ele>76.5</ele><time>2026-04-06T10:14:44.681Z</time></trkpt><trkpt lat="43.8988617" lon="12.6538567"><ele>76.0</ele><time>2026-04-06T10:14:45.681Z</time></trkpt><trkpt lat="43.8988" lon="12.6539483"><ele>75.5</ele><time>2026-04-06T10:14:46.688Z</time></trkpt><trkpt lat="43.8987367" lon="12.654035"><ele>75.0</ele><time>2026-04-06T10:14:47.687Z</time></trkpt><trkpt lat="43.89867" lon="12.6541083"><ele>74.5</ele><time>2026-04-06T10:14:48.688Z</time></trkpt><trkpt lat="43.8986033" lon="12.6541533"><ele>74.0</ele><time>2026-04-06T10:14:49.688Z</time></trkpt><trkpt lat="43.8985367" lon="12.654165"><ele>74.0</ele><time>2026-04-06T10:14:50.686Z</time></trkpt><trkpt lat="43.8984717" lon="12.65413"><ele>74.0</ele><time>2026-04-06T10:14:51.686Z</time></trkpt><trkpt lat="43.898415" lon="12.6540683"><ele>74.0</ele><time>2026-04-06T10:14:52.686Z</time></trkpt><trkpt lat="43.8983667" lon="12.6539817"><ele>74.0</ele><time>2026-04-06T10:14:53.686Z</time></trkpt><trkpt lat="43.898325" lon="12.65387"><ele>74.0</ele><time>2026-04-06T10:14:54.687Z</time></trkpt><trkpt lat="43.898285" lon="12.6537467"><ele>74.0</ele><time>2026-04-06T10:14:55.688Z</time></trkpt><trkpt lat="43.8982417" lon="12.65362"><ele>74.0</ele><time>2026-04-06T10:14:56.686Z</time></trkpt><trkpt lat="43.8982" lon="12.6534967"><ele>74.0</ele><time>2026-04-06T10:14:57.686Z</time></trkpt><trkpt lat="43.8981583" lon="12.6533767"><ele>74.0</ele><time>2026-04-06T10:14:58.687Z</time></trkpt><trkpt lat="43.8981317" lon="12.6532567"><ele>74.0</ele><time>2026-04-06T10:14:59.687Z</time></trkpt><trkpt lat="43.8981017" lon="12.65314"><ele>74.0</ele><time>2026-04-06T10:15:00.685Z</time></trkpt><trkpt lat="43.8980633" lon="12.6530367"><ele>74.0</ele><time>2026-04-06T10:15:01.687Z</time></trkpt><trkpt lat="43.8980233" lon="12.65294"><ele>74.0</ele><time>2026-04-06T10:15:02.683Z</time></trkpt><trkpt lat="43.89797" lon="12.6528467"><ele>74.0</ele><time>2026-04-06T10:15:03.687Z</time></trkpt><trkpt lat="43.8979017" lon="12.6527583"><ele>74.0</ele><time>2026-04-06T10:15:04.685Z</time></trkpt><trkpt lat="43.8978133" lon="12.6526917"><ele>74.0</ele><time>2026-04-06T10:15:05.685Z</time></trkpt><trkpt lat="43.8977317" lon="12.6526233"><ele>74.0</ele><time>2026-04-06T10:15:06.685Z</time></trkpt><trkpt lat="43.8976517" lon="12.652555"><ele>74.0</ele><time>2026-04-06T10:15:07.688Z</time></trkpt><trkpt lat="43.8975717" lon="12.6524817"><ele>74.0</ele><time>2026-04-06T10:15:08.682Z</time></trkpt><trkpt lat="43.8974983" lon="12.652405"><ele>74.0</ele><time>2026-04-06T10:15:09.685Z</time></trkpt><trkpt lat="43.8974267" lon="12.6523283"><ele>74.0</ele><time>2026-04-06T10:15:10.685Z</time></trkpt><trkpt lat="43.8973617" lon="12.6522533"><ele>74.2</ele><time>2026-04-06T10:15:11.685Z</time></trkpt><trkpt lat="43.897305" lon="12.65217"><ele>74.4</ele><time>2026-04-06T10:15:12.685Z</time></trkpt><trkpt lat="43.8972667" lon="12.6520783"><ele>74.6</ele><time>2026-04-06T10:15:13.687Z</time></trkpt><trkpt lat="43.8972367" lon="12.6519233"><ele>74.8</ele><time>2026-04-06T10:15:15.685Z</time></trkpt><trkpt lat="43.8972583" lon="12.651755"><ele>75.0</ele><time>2026-04-06T10:15:17.685Z</time></trkpt><trkpt lat="43.8973033" lon="12.6516567"><ele>75.0</ele><time>2026-04-06T10:15:18.684Z</time></trkpt><trkpt lat="43.8973267" lon="12.6515633"><ele>75.0</ele><time>2026-04-06T10:15:19.687Z</time></trkpt><trkpt lat="43.8973483" lon="12.65145"><ele>75.0</ele><time>2026-04-06T10:15:20.684Z</time></trkpt><trkpt lat="43.8973617" lon="12.6513233"><ele>75.0</ele><time>2026-04-06T10:15:21.686Z</time></trkpt><trkpt lat="43.89735" lon="12.651205"><ele>75.0</ele><time>2026-04-06T10:15:22.686Z</time></trkpt><trkpt lat="43.89733" lon="12.65109"><ele>75.0</ele><time>2026-04-06T10:15:23.685Z</time></trkpt><trkpt lat="43.897295" lon="12.6509867"><ele>75.16666666666667</ele><time>2026-04-06T10:15:24.684Z</time></trkpt><trkpt lat="43.8972467" lon="12.6508983"><ele>75.33333333333333</ele><time>2026-04-06T10:15:25.686Z</time></trkpt><trkpt lat="43.8971883" lon="12.65083"><ele>75.5</ele><time>2026-04-06T10:15:26.685Z</time></trkpt><trkpt lat="43.8971283" lon="12.65077"><ele>75.66666666666666</ele><time>2026-04-06T10:15:27.684Z</time></trkpt><trkpt lat="43.8970783" lon="12.650705"><ele>75.83333333333333</ele><time>2026-04-06T10:15:28.684Z</time></trkpt><trkpt lat="43.8970383" lon="12.6506333"><ele>76.0</ele><time>2026-04-06T10:15:29.685Z</time></trkpt><trkpt lat="43.8970067" lon="12.6504733"><ele>76.0</ele><time>2026-04-06T10:15:31.688Z</time></trkpt><trkpt lat="43.897005" lon="12.6503767"><ele>76.0</ele><time>2026-04-06T10:15:32.688Z</time></trkpt><trkpt lat="43.8970133" lon="12.6502583"><ele>76.0</ele><time>2026-04-06T10:15:33.686Z</time></trkpt><trkpt lat="43.897025" lon="12.6501333"><ele>76.0</ele><time>2026-04-06T10:15:34.685Z</time></trkpt><trkpt lat="43.8970483" lon="12.650015"><ele>76.0</ele><time>2026-04-06T10:15:35.688Z</time></trkpt><trkpt lat="43.8970783" lon="12.6499133"><ele>76.0</ele><time>2026-04-06T10:15:36.687Z</time></trkpt><trkpt lat="43.8971233" lon="12.649835"><ele>75.83333333333333</ele><time>2026-04-06T10:15:37.688Z</time></trkpt><trkpt lat="43.8971767" lon="12.6497767"><ele>75.66666666666666</ele><time>2026-04-06T10:15:38.683Z</time></trkpt><trkpt lat="43.8972383" lon="12.6497417"><ele>75.5</ele><time>2026-04-06T10:15:39.687Z</time></trkpt><trkpt lat="43.8973117" lon="12.6497183"><ele>75.33333333333333</ele><time>2026-04-06T10:15:40.686Z</time></trkpt><trkpt lat="43.89738" lon="12.6496783"><ele>75.16666666666667</ele><time>2026-04-06T10:15:41.683Z</time></trkpt><trkpt lat="43.8974483" lon="12.6496167"><ele>75.0</ele><time>2026-04-06T10:15:42.686Z</time></trkpt><trkpt lat="43.89751" lon="12.6495367"><ele>76.16666666666667</ele><time>2026-04-06T10:15:43.685Z</time></trkpt><trkpt lat="43.8975583" lon="12.6494417"><ele>77.33333333333333</ele><time>2026-04-06T10:15:44.683Z</time></trkpt><trkpt lat="43.8975867" lon="12.6493333"><ele>78.5</ele><time>2026-04-06T10:15:45.686Z</time></trkpt><trkpt lat="43.8976033" lon="12.649215"><ele>79.66666666666666</ele><time>2026-04-06T10:15:46.685Z</time></trkpt><trkpt lat="43.8975983" lon="12.6490933"><ele>80.83333333333333</ele><time>2026-04-06T10:15:47.683Z</time></trkpt><trkpt lat="43.8975433" lon="12.6489783"><ele>82.0</ele><time>2026-04-06T10:15:48.685Z</time></trkpt><trkpt lat="43.897475" lon="12.6488617"><ele>82.0</ele><time>2026-04-06T10:15:49.686Z</time></trkpt><trkpt lat="43.89739" lon="12.6487433"><ele>82.0</ele><time>2026-04-06T10:15:50.682Z</time></trkpt><trkpt lat="43.8973017" lon="12.64863"><ele>82.0</ele><time>2026-04-06T10:15:51.684Z</time></trkpt><trkpt lat="43.8971983" lon="12.6485233"><ele>82.0</ele><time>2026-04-06T10:15:52.685Z</time></trkpt><trkpt lat="43.89709" lon="12.6484117"><ele>82.0</ele><time>2026-04-06T10:15:53.684Z</time></trkpt><trkpt lat="43.8969833" lon="12.6483083"><ele>82.0</ele><time>2026-04-06T10:15:54.685Z</time></trkpt><trkpt lat="43.8968733" lon="12.64821"><ele>82.0</ele><time>2026-04-06T10:15:55.686Z</time></trkpt><trkpt lat="43.8967617" lon="12.64813"><ele>82.0</ele><time>2026-04-06T10:15:56.684Z</time></trkpt><trkpt lat="43.8966467" lon="12.6480683"><ele>82.0</ele><time>2026-04-06T10:15:57.685Z</time></trkpt><trkpt lat="43.8965333" lon="12.648005"><ele>82.0</ele><time>2026-04-06T10:15:58.685Z</time></trkpt><trkpt lat="43.896415" lon="12.6479367"><ele>82.0</ele><time>2026-04-06T10:15:59.687Z</time></trkpt><trkpt lat="43.8963117" lon="12.6478567"><ele>82.0</ele><time>2026-04-06T10:16:00.685Z</time></trkpt><trkpt lat="43.8962083" lon="12.6477783"><ele>82.25</ele><time>2026-04-06T10:16:01.686Z</time></trkpt><trkpt lat="43.8961" lon="12.6477033"><ele>82.5</ele><time>2026-04-06T10:16:02.682Z</time></trkpt><trkpt lat="43.8959833" lon="12.64763"><ele>82.75</ele><time>2026-04-06T10:16:03.684Z</time></trkpt><trkpt lat="43.8958567" lon="12.6475617"><ele>83.0</ele><time>2026-04-06T10:16:04.685Z</time></trkpt><trkpt lat="43.8957233" lon="12.6474983"><ele>83.0</ele><time>2026-04-06T10:16:05.685Z</time></trkpt><trkpt lat="43.8955933" lon="12.6474383"><ele>83.0</ele><time>2026-04-06T10:16:06.687Z</time></trkpt><trkpt lat="43.89547" lon="12.64738"><ele>83.0</ele><time>2026-04-06T10:16:07.685Z</time></trkpt><trkpt lat="43.8953483" lon="12.6473267"><ele>83.0</ele><time>2026-04-06T10:16:08.688Z</time></trkpt><trkpt lat="43.895235" lon="12.64728"><ele>83.0</ele><time>2026-04-06T10:16:09.686Z</time></trkpt><trkpt lat="43.89513" lon="12.6472467"><ele>83.0</ele><time>2026-04-06T10:16:10.687Z</time></trkpt><trkpt lat="43.8950233" lon="12.647225"><ele>83.0</ele><time>2026-04-06T10:16:11.686Z</time></trkpt><trkpt lat="43.8949117" lon="12.6472133"><ele>83.0</ele><time>2026-04-06T10:16:12.686Z</time></trkpt><trkpt lat="43.8948017" lon="12.6472033"><ele>83.0</ele><time>2026-04-06T10:16:13.686Z</time></trkpt><trkpt lat="43.8946917" lon="12.6471933"><ele>82.80000000000001</ele><time>2026-04-06T10:16:14.688Z</time></trkpt><trkpt lat="43.894585" lon="12.6471917"><ele>82.6</ele><time>2026-04-06T10:16:15.687Z</time></trkpt><trkpt lat="43.8944783" lon="12.647195"><ele>82.4</ele><time>2026-04-06T10:16:16.687Z</time></trkpt><trkpt lat="43.894365" lon="12.6471983"><ele>82.19999999999999</ele><time>2026-04-06T10:16:17.683Z</time></trkpt><trkpt lat="43.8942517" lon="12.6472"><ele>82.0</ele><time>2026-04-06T10:16:18.685Z</time></trkpt><trkpt lat="43.894135" lon="12.6471967"><ele>82.6</ele><time>2026-04-06T10:16:19.685Z</time></trkpt><trkpt lat="43.8940183" lon="12.6471833"><ele>83.19999999999999</ele><time>2026-04-06T10:16:20.682Z</time></trkpt><trkpt lat="43.89391" lon="12.64716"><ele>83.8</ele><time>2026-04-06T10:16:21.684Z</time></trkpt><trkpt lat="43.8938017" lon="12.6471317"><ele>84.4</ele><time>2026-04-06T10:16:22.686Z</time></trkpt><trkpt lat="43.893695" lon="12.647095"><ele>85.0</ele><time>2026-04-06T10:16:23.684Z</time></trkpt><trkpt lat="43.893585" lon="12.6470367"><ele>85.0</ele><time>2026-04-06T10:16:24.684Z</time></trkpt><trkpt lat="43.893475" lon="12.6469717"><ele>85.0</ele><time>2026-04-06T10:16:25.687Z</time></trkpt><trkpt lat="43.8933667" lon="12.6469017"><ele>85.0</ele><time>2026-04-06T10:16:26.682Z</time></trkpt><trkpt lat="43.8932583" lon="12.64683"><ele>85.0</ele><time>2026-04-06T10:16:27.684Z</time></trkpt><trkpt lat="43.89315" lon="12.64676"><ele>84.8</ele><time>2026-04-06T10:16:28.687Z</time></trkpt><trkpt lat="43.8930533" lon="12.6466933"><ele>84.6</ele><time>2026-04-06T10:16:29.685Z</time></trkpt><trkpt lat="43.89296" lon="12.6466317"><ele>84.4</ele><time>2026-04-06T10:16:30.685Z</time></trkpt><trkpt lat="43.8928583" lon="12.64657"><ele>84.2</ele><time>2026-04-06T10:16:31.686Z</time></trkpt><trkpt lat="43.8927533" lon="12.64651"><ele>84.0</ele><time>2026-04-06T10:16:32.682Z</time></trkpt><trkpt lat="43.8926467" lon="12.6464517"><ele>84.5</ele><time>2026-04-06T10:16:33.684Z</time></trkpt><trkpt lat="43.89254" lon="12.6463983"><ele>85.0</ele><time>2026-04-06T10:16:34.685Z</time></trkpt><trkpt lat="43.8924317" lon="12.6463367"><ele>85.5</ele><time>2026-04-06T10:16:35.684Z</time></trkpt><trkpt lat="43.89232" lon="12.64627"><ele>86.0</ele><time>2026-04-06T10:16:36.685Z</time></trkpt><trkpt lat="43.892205" lon="12.6462083"><ele>86.0</ele><time>2026-04-06T10:16:37.686Z</time></trkpt><trkpt lat="43.8920917" lon="12.6461467"><ele>86.0</ele><time>2026-04-06T10:16:38.683Z</time></trkpt><trkpt lat="43.8919717" lon="12.6460833"><ele>86.0</ele><time>2026-04-06T10:16:39.684Z</time></trkpt><trkpt lat="43.8918467" lon="12.646025"><ele>86.0</ele><time>2026-04-06T10:16:40.685Z</time></trkpt><trkpt lat="43.8917183" lon="12.6459633"><ele>85.25</ele><time>2026-04-06T10:16:41.684Z</time></trkpt><trkpt lat="43.89159" lon="12.6459067"><ele>84.5</ele><time>2026-04-06T10:16:42.686Z</time></trkpt><trkpt lat="43.8914583" lon="12.6458567"><ele>83.75</ele><time>2026-04-06T10:16:43.686Z</time></trkpt><trkpt lat="43.891325" lon="12.6458033"><ele>83.0</ele><time>2026-04-06T10:16:44.684Z</time></trkpt><trkpt lat="43.8911917" lon="12.6457567"><ele>83.0</ele><time>2026-04-06T10:16:45.684Z</time></trkpt><trkpt lat="43.89106" lon="12.6457117"><ele>83.0</ele><time>2026-04-06T10:16:46.684Z</time></trkpt><trkpt lat="43.890925" lon="12.6456667"><ele>83.0</ele><time>2026-04-06T10:16:47.685Z</time></trkpt><trkpt lat="43.8907883" lon="12.64562"><ele>83.0</ele><time>2026-04-06T10:16:48.684Z</time></trkpt><trkpt lat="43.8906533" lon="12.64557"><ele>83.4</ele><time>2026-04-06T10:16:49.686Z</time></trkpt><trkpt lat="43.8905333" lon="12.6455183"><ele>83.80000000000001</ele><time>2026-04-06T10:16:50.682Z</time></trkpt><trkpt lat="43.8904317" lon="12.645475"><ele>84.2</ele><time>2026-04-06T10:16:51.684Z</time></trkpt><trkpt lat="43.8903333" lon="12.64544"><ele>84.6</ele><time>2026-04-06T10:16:52.686Z</time></trkpt><trkpt lat="43.89023" lon="12.645415"><ele>85.0</ele><time>2026-04-06T10:16:53.685Z</time></trkpt><trkpt lat="43.8901217" lon="12.6453933"><ele>86.4</ele><time>2026-04-06T10:16:54.686Z</time></trkpt><trkpt lat="43.8900167" lon="12.6453833"><ele>87.8</ele><time>2026-04-06T10:16:55.685Z</time></trkpt><trkpt lat="43.8899117" lon="12.6453833"><ele>89.19999999999999</ele><time>2026-04-06T10:16:56.683Z</time></trkpt><trkpt lat="43.8898033" lon="12.6453967"><ele>90.6</ele><time>2026-04-06T10:16:57.684Z</time></trkpt><trkpt lat="43.8896933" lon="12.6454233"><ele>92.0</ele><time>2026-04-06T10:16:58.687Z</time></trkpt><trkpt lat="43.8895733" lon="12.6454617"><ele>92.0</ele><time>2026-04-06T10:16:59.684Z</time></trkpt><trkpt lat="43.8894467" lon="12.6455017"><ele>92.0</ele><time>2026-04-06T10:17:00.685Z</time></trkpt><trkpt lat="43.8893167" lon="12.6455417"><ele>92.0</ele><time>2026-04-06T10:17:01.686Z</time></trkpt><trkpt lat="43.88919" lon="12.6455917"><ele>92.0</ele><time>2026-04-06T10:17:02.683Z</time></trkpt><trkpt lat="43.8890717" lon="12.6456383"><ele>93.19999999999999</ele><time>2026-04-06T10:17:03.683Z</time></trkpt><trkpt lat="43.8889683" lon="12.6456583"><ele>94.4</ele><time>2026-04-06T10:17:04.684Z</time></trkpt><trkpt lat="43.8888783" lon="12.64566"><ele>95.6</ele><time>2026-04-06T10:17:05.685Z</time></trkpt><trkpt lat="43.8887683" lon="12.645625"><ele>96.80000000000001</ele><time>2026-04-06T10:17:06.684Z</time></trkpt><trkpt lat="43.8886417" lon="12.6455567"><ele>98.0</ele><time>2026-04-06T10:17:07.687Z</time></trkpt><trkpt lat="43.88851" lon="12.645485"><ele>99.25</ele><time>2026-04-06T10:17:08.683Z</time></trkpt><trkpt lat="43.88837" lon="12.6454167"><ele>100.5</ele><time>2026-04-06T10:17:09.686Z</time></trkpt><trkpt lat="43.88824" lon="12.6453467"><ele>101.75</ele><time>2026-04-06T10:17:10.686Z</time></trkpt><trkpt lat="43.8881167" lon="12.6452817"><ele>103.0</ele><time>2026-04-06T10:17:11.685Z</time></trkpt><trkpt lat="43.8880067" lon="12.645215"><ele>101.2</ele><time>2026-04-06T10:17:12.687Z</time></trkpt><trkpt lat="43.8878967" lon="12.6451467"><ele>99.4</ele><time>2026-04-06T10:17:13.687Z</time></trkpt><trkpt lat="43.8877917" lon="12.6450767"><ele>97.60000000000001</ele><time>2026-04-06T10:17:14.687Z</time></trkpt><trkpt lat="43.8876983" lon="12.6450133"><ele>95.80000000000001</ele><time>2026-04-06T10:17:15.686Z</time></trkpt><trkpt lat="43.887615" lon="12.6449633"><ele>94.0</ele><time>2026-04-06T10:17:16.685Z</time></trkpt><trkpt lat="43.88754" lon="12.644925"><ele>94.0</ele><time>2026-04-06T10:17:17.688Z</time></trkpt><trkpt lat="43.8874683" lon="12.644905"><ele>94.0</ele><time>2026-04-06T10:17:18.685Z</time></trkpt><trkpt lat="43.8874017" lon="12.6449017"><ele>94.0</ele><time>2026-04-06T10:17:19.685Z</time></trkpt><trkpt lat="43.8873317" lon="12.6449033"><ele>94.0</ele><time>2026-04-06T10:17:20.682Z</time></trkpt><trkpt lat="43.8872533" lon="12.644915"><ele>94.0</ele><time>2026-04-06T10:17:21.684Z</time></trkpt><trkpt lat="43.887165" lon="12.6449283"><ele>94.0</ele><time>2026-04-06T10:17:22.685Z</time></trkpt><trkpt lat="43.8870767" lon="12.644935"><ele>94.0</ele><time>2026-04-06T10:17:23.685Z</time></trkpt><trkpt lat="43.8869833" lon="12.6449383"><ele>94.0</ele><time>2026-04-06T10:17:24.679Z</time></trkpt><trkpt lat="43.8868767" lon="12.6449383"><ele>94.0</ele><time>2026-04-06T10:17:25.678Z</time></trkpt><trkpt lat="43.8867667" lon="12.644905"><ele>94.0</ele><time>2026-04-06T10:17:26.683Z</time></trkpt><trkpt lat="43.8866533" lon="12.64487"><ele>94.0</ele><time>2026-04-06T10:17:27.685Z</time></trkpt><trkpt lat="43.886535" lon="12.6448433"><ele>96.6</ele><time>2026-04-06T10:17:28.684Z</time></trkpt><trkpt lat="43.88642" lon="12.6448133"><ele>99.2</ele><time>2026-04-06T10:17:29.684Z</time></trkpt><trkpt lat="43.886315" lon="12.6447817"><ele>101.79999999999998</ele><time>2026-04-06T10:17:30.685Z</time></trkpt><trkpt lat="43.8862117" lon="12.644735"><ele>104.39999999999999</ele><time>2026-04-06T10:17:31.687Z</time></trkpt><trkpt lat="43.8861083" lon="12.644675"><ele>107.0</ele><time>2026-04-06T10:17:32.682Z</time></trkpt><trkpt lat="43.886" lon="12.6446083"><ele>105.8</ele><time>2026-04-06T10:17:33.687Z</time></trkpt><trkpt lat="43.8859017" lon="12.6445133"><ele>104.6</ele><time>2026-04-06T10:17:34.687Z</time></trkpt><trkpt lat="43.8858167" lon="12.6444117"><ele>103.39999999999999</ele><time>2026-04-06T10:17:35.684Z</time></trkpt><trkpt lat="43.8857433" lon="12.6443067"><ele>102.19999999999999</ele><time>2026-04-06T10:17:36.685Z</time></trkpt><trkpt lat="43.8856733" lon="12.6442083"><ele>101.0</ele><time>2026-04-06T10:17:37.685Z</time></trkpt><trkpt lat="43.885615" lon="12.6441317"><ele>101.0</ele><time>2026-04-06T10:17:38.682Z</time></trkpt><trkpt lat="43.8855533" lon="12.64402"><ele>101.0</ele><time>2026-04-06T10:17:39.684Z</time></trkpt><trkpt lat="43.8854967" lon="12.6438933"><ele>101.0</ele><time>2026-04-06T10:17:40.685Z</time></trkpt><trkpt lat="43.88545" lon="12.6437617"><ele>101.0</ele><time>2026-04-06T10:17:41.684Z</time></trkpt><trkpt lat="43.8854" lon="12.6436333"><ele>101.0</ele><time>2026-04-06T10:17:42.686Z</time></trkpt><trkpt lat="43.885355" lon="12.643495"><ele>100.6</ele><time>2026-04-06T10:17:43.686Z</time></trkpt><trkpt lat="43.8852967" lon="12.643365"><ele>100.19999999999999</ele><time>2026-04-06T10:17:44.682Z</time></trkpt><trkpt lat="43.8852283" lon="12.6432467"><ele>99.80000000000001</ele><time>2026-04-06T10:17:45.685Z</time></trkpt><trkpt lat="43.8851567" lon="12.6431383"><ele>99.4</ele><time>2026-04-06T10:17:46.686Z</time></trkpt><trkpt lat="43.8850817" lon="12.643045"><ele>99.0</ele><time>2026-04-06T10:17:47.684Z</time></trkpt><trkpt lat="43.885" lon="12.6429567"><ele>99.0</ele><time>2026-04-06T10:17:48.684Z</time></trkpt><trkpt lat="43.8849183" lon="12.6429"><ele>99.0</ele><time>2026-04-06T10:17:49.685Z</time></trkpt><trkpt lat="43.884835" lon="12.6428517"><ele>99.0</ele><time>2026-04-06T10:17:50.683Z</time></trkpt><trkpt lat="43.88475" lon="12.6428333"><ele>99.0</ele><time>2026-04-06T10:17:51.684Z</time></trkpt><trkpt lat="43.88466" lon="12.642825"><ele>99.0</ele><time>2026-04-06T10:17:52.686Z</time></trkpt><trkpt lat="43.8845617" lon="12.6428217"><ele>99.0</ele><time>2026-04-06T10:17:53.687Z</time></trkpt><trkpt lat="43.884465" lon="12.6428167"><ele>99.0</ele><time>2026-04-06T10:17:54.685Z</time></trkpt><trkpt lat="43.88436" lon="12.6428167"><ele>99.0</ele><time>2026-04-06T10:17:55.687Z</time></trkpt><trkpt lat="43.8842567" lon="12.6428133"><ele>99.0</ele><time>2026-04-06T10:17:56.682Z</time></trkpt><trkpt lat="43.8841567" lon="12.6428117"><ele>99.0</ele><time>2026-04-06T10:17:57.683Z</time></trkpt><trkpt lat="43.8840617" lon="12.6428117"><ele>99.80000000000001</ele><time>2026-04-06T10:17:58.685Z</time></trkpt><trkpt lat="43.8839633" lon="12.6428083"><ele>100.60000000000001</ele><time>2026-04-06T10:17:59.684Z</time></trkpt><trkpt lat="43.8838683" lon="12.6427933"><ele>101.4</ele><time>2026-04-06T10:18:00.686Z</time></trkpt><trkpt lat="43.8837717" lon="12.642785"><ele>102.2</ele><time>2026-04-06T10:18:01.687Z</time></trkpt><trkpt lat="43.8836783" lon="12.64278"><ele>103.0</ele><time>2026-04-06T10:18:02.683Z</time></trkpt><trkpt lat="43.8835833" lon="12.6427867"><ele>103.0</ele><time>2026-04-06T10:18:03.685Z</time></trkpt><trkpt lat="43.8834767" lon="12.6428"><ele>103.0</ele><time>2026-04-06T10:18:04.684Z</time></trkpt><trkpt lat="43.8833683" lon="12.6428133"><ele>103.0</ele><time>2026-04-06T10:18:05.684Z</time></trkpt><trkpt lat="43.883255" lon="12.642825"><ele>103.0</ele><time>2026-04-06T10:18:06.686Z</time></trkpt><trkpt lat="43.8831433" lon="12.6428333"><ele>103.0</ele><time>2026-04-06T10:18:07.686Z</time></trkpt><trkpt lat="43.88304" lon="12.6428467"><ele>105.5</ele><time>2026-04-06T10:18:08.682Z</time></trkpt><trkpt lat="43.8829317" lon="12.6428617"><ele>108.0</ele><time>2026-04-06T10:18:09.684Z</time></trkpt><trkpt lat="43.8828167" lon="12.6428783"><ele>110.5</ele><time>2026-04-06T10:18:10.684Z</time></trkpt><trkpt lat="43.882705" lon="12.642885"><ele>113.0</ele><time>2026-04-06T10:18:11.684Z</time></trkpt><trkpt lat="43.8825867" lon="12.6428867"><ele>114.0</ele><time>2026-04-06T10:18:12.684Z</time></trkpt><trkpt lat="43.8824683" lon="12.6428867"><ele>115.0</ele><time>2026-04-06T10:18:13.688Z</time></trkpt><trkpt lat="43.8823533" lon="12.642885"><ele>116.0</ele><time>2026-04-06T10:18:14.684Z</time></trkpt><trkpt lat="43.882235" lon="12.6428717"><ele>117.0</ele><time>2026-04-06T10:18:15.684Z</time></trkpt><trkpt lat="43.8821183" lon="12.6428533"><ele>117.0</ele><time>2026-04-06T10:18:16.685Z</time></trkpt><trkpt lat="43.8820067" lon="12.6428367"><ele>117.0</ele><time>2026-04-06T10:18:17.683Z</time></trkpt><trkpt lat="43.881885" lon="12.642825"><ele>117.0</ele><time>2026-04-06T10:18:18.684Z</time></trkpt><trkpt lat="43.88176" lon="12.6428217"><ele>117.0</ele><time>2026-04-06T10:18:19.688Z</time></trkpt><trkpt lat="43.8816483" lon="12.6428067"><ele>117.8</ele><time>2026-04-06T10:18:20.685Z</time></trkpt><trkpt lat="43.8815433" lon="12.6428017"><ele>118.6</ele><time>2026-04-06T10:18:21.685Z</time></trkpt><trkpt lat="43.8814517" lon="12.6427883"><ele>119.39999999999999</ele><time>2026-04-06T10:18:22.685Z</time></trkpt><trkpt lat="43.8813517" lon="12.6427833"><ele>120.19999999999999</ele><time>2026-04-06T10:18:23.684Z</time></trkpt><trkpt lat="43.8812467" lon="12.6427917"><ele>121.0</ele><time>2026-04-06T10:18:24.685Z</time></trkpt><trkpt lat="43.881135" lon="12.6428167"><ele>121.0</ele><time>2026-04-06T10:18:25.687Z</time></trkpt><trkpt lat="43.8810217" lon="12.6428483"><ele>121.0</ele><time>2026-04-06T10:18:26.683Z</time></trkpt><trkpt lat="43.8808933" lon="12.6428817"><ele>121.0</ele><time>2026-04-06T10:18:27.685Z</time></trkpt><trkpt lat="43.8807633" lon="12.64293"><ele>121.0</ele><time>2026-04-06T10:18:28.685Z</time></trkpt><trkpt lat="43.880635" lon="12.642985"><ele>119.5</ele><time>2026-04-06T10:18:29.684Z</time></trkpt><trkpt lat="43.8805133" lon="12.6430267"><ele>118.0</ele><time>2026-04-06T10:18:30.686Z</time></trkpt><trkpt lat="43.8803867" lon="12.643075"><ele>116.5</ele><time>2026-04-06T10:18:31.686Z</time></trkpt><trkpt lat="43.8802617" lon="12.64312"><ele>115.0</ele><time>2026-04-06T10:18:32.682Z</time></trkpt><trkpt lat="43.8801383" lon="12.6431583"><ele>113.0</ele><time>2026-04-06T10:18:33.684Z</time></trkpt><trkpt lat="43.8800117" lon="12.643185"><ele>111.0</ele><time>2026-04-06T10:18:34.685Z</time></trkpt><trkpt lat="43.87988" lon="12.6432017"><ele>109.0</ele><time>2026-04-06T10:18:35.684Z</time></trkpt><trkpt lat="43.879735" lon="12.6432133"><ele>107.0</ele><time>2026-04-06T10:18:36.687Z</time></trkpt><trkpt lat="43.8795883" lon="12.6432317"><ele>107.0</ele><time>2026-04-06T10:18:37.688Z</time></trkpt><trkpt lat="43.8794383" lon="12.6432517"><ele>107.0</ele><time>2026-04-06T10:18:38.682Z</time></trkpt><trkpt lat="43.879295" lon="12.6432683"><ele>107.0</ele><time>2026-04-06T10:18:39.684Z</time></trkpt><trkpt lat="43.8791533" lon="12.64329"><ele>107.0</ele><time>2026-04-06T10:18:40.685Z</time></trkpt><trkpt lat="43.8790167" lon="12.6433117"><ele>106.8</ele><time>2026-04-06T10:18:41.687Z</time></trkpt><trkpt lat="43.87889" lon="12.6433283"><ele>106.6</ele><time>2026-04-06T10:18:42.686Z</time></trkpt><trkpt lat="43.8787767" lon="12.6433433"><ele>106.39999999999999</ele><time>2026-04-06T10:18:43.686Z</time></trkpt><trkpt lat="43.8786783" lon="12.64336"><ele>106.19999999999999</ele><time>2026-04-06T10:18:44.683Z</time></trkpt><trkpt lat="43.878585" lon="12.6433967"><ele>106.0</ele><time>2026-04-06T10:18:45.685Z</time></trkpt><trkpt lat="43.878505" lon="12.6434433"><ele>106.33333333333334</ele><time>2026-04-06T10:18:46.684Z</time></trkpt><trkpt lat="43.8784317" lon="12.6434933"><ele>106.66666666666667</ele><time>2026-04-06T10:18:47.684Z</time></trkpt><trkpt lat="43.8783617" lon="12.643555"><ele>107.0</ele><time>2026-04-06T10:18:48.686Z</time></trkpt><trkpt lat="43.8782883" lon="12.6436333"><ele>107.33333333333334</ele><time>2026-04-06T10:18:49.686Z</time></trkpt><trkpt lat="43.8782133" lon="12.6437067"><ele>107.66666666666667</ele><time>2026-04-06T10:18:50.682Z</time></trkpt><trkpt lat="43.878145" lon="12.643785"><ele>108.0</ele><time>2026-04-06T10:18:51.686Z</time></trkpt><trkpt lat="43.87807" lon="12.6438517"><ele>109.0</ele><time>2026-04-06T10:18:52.685Z</time></trkpt><trkpt lat="43.8779833" lon="12.6439117"><ele>110.00000000000001</ele><time>2026-04-06T10:18:53.683Z</time></trkpt><trkpt lat="43.8778867" lon="12.6439383"><ele>111.00000000000001</ele><time>2026-04-06T10:18:54.684Z</time></trkpt><trkpt lat="43.87778" lon="12.6439417"><ele>112.0</ele><time>2026-04-06T10:18:55.686Z</time></trkpt><trkpt lat="43.8776567" lon="12.6439333"><ele>113.0</ele><time>2026-04-06T10:18:56.682Z</time></trkpt><trkpt lat="43.877525" lon="12.6438967"><ele>113.0</ele><time>2026-04-06T10:18:57.684Z</time></trkpt><trkpt lat="43.877405" lon="12.643855"><ele>113.00000000000001</ele><time>2026-04-06T10:18:58.685Z</time></trkpt><trkpt lat="43.8772867" lon="12.6438017"><ele>113.00000000000001</ele><time>2026-04-06T10:18:59.683Z</time></trkpt><trkpt lat="43.877185" lon="12.64375"><ele>113.0</ele><time>2026-04-06T10:19:00.686Z</time></trkpt><trkpt lat="43.8771067" lon="12.6437033"><ele>113.0</ele><time>2026-04-06T10:19:01.687Z</time></trkpt><trkpt lat="43.8770567" lon="12.6436283"><ele>112.2</ele><time>2026-04-06T10:19:02.683Z</time></trkpt><trkpt lat="43.8770267" lon="12.643535"><ele>111.4</ele><time>2026-04-06T10:19:03.687Z</time></trkpt><trkpt lat="43.876985" lon="12.6433767"><ele>110.60000000000001</ele><time>2026-04-06T10:19:05.683Z</time></trkpt><trkpt lat="43.8769417" lon="12.64324"><ele>109.80000000000001</ele><time>2026-04-06T10:19:07.687Z</time></trkpt><trkpt lat="43.8768717" lon="12.6430983"><ele>109.0</ele><time>2026-04-06T10:19:09.685Z</time></trkpt><trkpt lat="43.8768183" lon="12.6430267"><ele>110.4</ele><time>2026-04-06T10:19:10.683Z</time></trkpt><trkpt lat="43.8767483" lon="12.6429533"><ele>111.80000000000001</ele><time>2026-04-06T10:19:11.684Z</time></trkpt><trkpt lat="43.8766767" lon="12.6428717"><ele>113.19999999999999</ele><time>2026-04-06T10:19:12.685Z</time></trkpt><trkpt lat="43.876605" lon="12.6428017"><ele>114.6</ele><time>2026-04-06T10:19:13.685Z</time></trkpt><trkpt lat="43.8765267" lon="12.642725"><ele>116.0</ele><time>2026-04-06T10:19:14.683Z</time></trkpt><trkpt lat="43.8764567" lon="12.6426383"><ele>115.99999999999999</ele><time>2026-04-06T10:19:15.685Z</time></trkpt><trkpt lat="43.87641" lon="12.6425383"><ele>116.0</ele><time>2026-04-06T10:19:16.684Z</time></trkpt><trkpt lat="43.8763783" lon="12.6424367"><ele>116.0</ele><time>2026-04-06T10:19:17.684Z</time></trkpt><trkpt lat="43.876345" lon="12.64235"><ele>116.0</ele><time>2026-04-06T10:19:18.683Z</time></trkpt><trkpt lat="43.8763067" lon="12.6422767"><ele>115.99999999999999</ele><time>2026-04-06T10:19:19.688Z</time></trkpt><trkpt lat="43.8762267" lon="12.642225"><ele>116.0</ele><time>2026-04-06T10:19:21.685Z</time></trkpt><trkpt lat="43.876135" lon="12.6422883"><ele>116.0</ele><time>2026-04-06T10:19:23.684Z</time></trkpt><trkpt lat="43.876155" lon="12.6425117"><ele>116.0</ele><time>2026-04-06T10:19:25.686Z</time></trkpt><trkpt lat="43.8761683" lon="12.642625"><ele>116.0</ele><time>2026-04-06T10:19:26.683Z</time></trkpt><trkpt lat="43.87617" lon="12.6427233"><ele>116.0</ele><time>2026-04-06T10:19:27.684Z</time></trkpt><trkpt lat="43.87617" lon="12.6428433"><ele>116.0</ele><time>2026-04-06T10:19:28.684Z</time></trkpt><trkpt lat="43.8761467" lon="12.6429417"><ele>116.66666666666666</ele><time>2026-04-06T10:19:29.685Z</time></trkpt><trkpt lat="43.8761217" lon="12.6430417"><ele>117.33333333333333</ele><time>2026-04-06T10:19:30.684Z</time></trkpt><trkpt lat="43.876095" lon="12.6431533"><ele>118.0</ele><time>2026-04-06T10:19:31.688Z</time></trkpt><trkpt lat="43.8760633" lon="12.6432683"><ele>118.66666666666666</ele><time>2026-04-06T10:19:32.682Z</time></trkpt><trkpt lat="43.8760617" lon="12.6433883"><ele>119.33333333333333</ele><time>2026-04-06T10:19:33.685Z</time></trkpt><trkpt lat="43.8760383" lon="12.643505"><ele>120.0</ele><time>2026-04-06T10:19:34.685Z</time></trkpt><trkpt lat="43.8760083" lon="12.643615"><ele>120.0</ele><time>2026-04-06T10:19:35.685Z</time></trkpt><trkpt lat="43.875975" lon="12.6437083"><ele>120.0</ele><time>2026-04-06T10:19:36.685Z</time></trkpt><trkpt lat="43.8759083" lon="12.6438183"><ele>120.0</ele><time>2026-04-06T10:19:38.682Z</time></trkpt><trkpt lat="43.8757967" lon="12.6438483"><ele>120.0</ele><time>2026-04-06T10:19:40.685Z</time></trkpt><trkpt lat="43.8757367" lon="12.6438217"><ele>120.0</ele><time>2026-04-06T10:19:41.685Z</time></trkpt><trkpt lat="43.87568" lon="12.643775"><ele>120.0</ele><time>2026-04-06T10:19:42.684Z</time></trkpt><trkpt lat="43.87563" lon="12.6436867"><ele>125.83333333333333</ele><time>2026-04-06T10:19:43.688Z</time></trkpt><trkpt lat="43.8755867" lon="12.643605"><ele>131.66666666666666</ele><time>2026-04-06T10:19:44.683Z</time></trkpt><trkpt lat="43.875555" lon="12.643515"><ele>137.5</ele><time>2026-04-06T10:19:45.685Z</time></trkpt><trkpt lat="43.87552" lon="12.6434133"><ele>143.33333333333331</ele><time>2026-04-06T10:19:46.685Z</time></trkpt><trkpt lat="43.8754967" lon="12.6433017"><ele>149.16666666666666</ele><time>2026-04-06T10:19:48.686Z</time></trkpt><trkpt lat="43.875525" lon="12.6434533"><ele>155.0</ele><time>2026-04-06T10:41:10.686Z</time></trkpt><trkpt lat="43.875525" lon="12.64333"><ele>155.0</ele><time>2026-04-06T10:41:12.684Z</time></trkpt><trkpt lat="43.8755167" lon="12.6432417"><ele>155.0</ele><time>2026-04-06T10:41:14.683Z</time></trkpt><trkpt lat="43.8754983" lon="12.6431317"><ele>155.0</ele><time>2026-04-06T10:41:17.684Z</time></trkpt><trkpt lat="43.8755317" lon="12.6430383"><ele>155.0</ele><time>2026-04-06T10:50:28.687Z</time></trkpt><trkpt lat="43.8755233" lon="12.642915"><ele>155.0</ele><time>2026-04-06T10:50:30.685Z</time></trkpt><trkpt lat="43.8755033" lon="12.64275"><ele>155.0</ele><time>2026-04-06T10:50:32.682Z</time></trkpt><trkpt lat="43.8754933" lon="12.64264"><ele>154.8</ele><time>2026-04-06T10:50:33.684Z</time></trkpt><trkpt lat="43.8754733" lon="12.6425267"><ele>154.6</ele><time>2026-04-06T10:50:34.684Z</time></trkpt><trkpt lat="43.87545" lon="12.6424283"><ele>154.4</ele><time>2026-04-06T10:50:35.688Z</time></trkpt><trkpt lat="43.87543" lon="12.6423317"><ele>154.2</ele><time>2026-04-06T10:50:36.685Z</time></trkpt><trkpt lat="43.8753767" lon="12.64219"><ele>154.0</ele><time>2026-04-06T10:50:38.682Z</time></trkpt><trkpt lat="43.875275" lon="12.6420867"><ele>154.0</ele><time>2026-04-06T10:50:40.685Z</time></trkpt><trkpt lat="43.8752" lon="12.642035"><ele>154.0</ele><time>2026-04-06T10:50:41.687Z</time></trkpt><trkpt lat="43.8751233" lon="12.641975"><ele>154.0</ele><time>2026-04-06T10:50:42.686Z</time></trkpt><trkpt lat="43.875055" lon="12.6418983"><ele>154.0</ele><time>2026-04-06T10:50:43.687Z</time></trkpt><trkpt lat="43.874985" lon="12.6418083"><ele>154.0</ele><time>2026-04-06T10:50:44.682Z</time></trkpt><trkpt lat="43.87492" lon="12.6417117"><ele>159.8</ele><time>2026-04-06T10:50:45.685Z</time></trkpt><trkpt lat="43.874855" lon="12.6416033"><ele>165.60000000000002</ele><time>2026-04-06T10:50:46.689Z</time></trkpt><trkpt lat="43.8747817" lon="12.6414883"><ele>171.4</ele><time>2026-04-06T10:50:47.681Z</time></trkpt><trkpt lat="43.87471" lon="12.64137"><ele>177.20000000000002</ele><time>2026-04-06T10:50:48.684Z</time></trkpt><trkpt lat="43.8746483" lon="12.6412617"><ele>183.0</ele><time>2026-04-06T10:50:49.686Z</time></trkpt><trkpt lat="43.8745917" lon="12.6411717"><ele>179.2</ele><time>2026-04-06T10:50:50.682Z</time></trkpt><trkpt lat="43.87451" lon="12.641075"><ele>175.4</ele><time>2026-04-06T10:50:52.686Z</time></trkpt><trkpt lat="43.8744183" lon="12.6410767"><ele>171.6</ele><time>2026-04-06T10:50:54.684Z</time></trkpt><trkpt lat="43.8743583" lon="12.6411133"><ele>167.79999999999998</ele><time>2026-04-06T10:50:55.688Z</time></trkpt><trkpt lat="43.87427" lon="12.641175"><ele>164.0</ele><time>2026-04-06T10:50:56.686Z</time></trkpt><trkpt lat="43.8741917" lon="12.64124"><ele>171.0</ele><time>2026-04-06T10:50:57.685Z</time></trkpt><trkpt lat="43.8741217" lon="12.6412983"><ele>178.0</ele><time>2026-04-06T10:50:58.686Z</time></trkpt><trkpt lat="43.87406" lon="12.641355"><ele>185.0</ele><time>2026-04-06T10:50:59.685Z</time></trkpt><trkpt lat="43.874005" lon="12.6414133"><ele>192.0</ele><time>2026-04-06T10:51:00.686Z</time></trkpt><trkpt lat="43.873935" lon="12.641525"><ele>199.00000000000003</ele><time>2026-04-06T10:51:02.683Z</time></trkpt><trkpt lat="43.8739717" lon="12.641625"><ele>206.0</ele><time>2026-04-06T10:51:04.686Z</time></trkpt><trkpt lat="43.8740633" lon="12.6416533"><ele>206.00000000000003</ele><time>2026-04-06T10:51:06.686Z</time></trkpt><trkpt lat="43.8741383" lon="12.6416367"><ele>206.0</ele><time>2026-04-06T10:51:07.685Z</time></trkpt><trkpt lat="43.87422" lon="12.641635"><ele>206.0</ele><time>2026-04-06T10:51:08.682Z</time></trkpt><trkpt lat="43.8743" lon="12.6416533"><ele>206.0</ele><time>2026-04-06T10:51:09.685Z</time></trkpt><trkpt lat="43.87437" lon="12.6416817"><ele>206.00000000000003</ele><time>2026-04-06T10:51:10.685Z</time></trkpt><trkpt lat="43.8744617" lon="12.641795"><ele>206.0</ele><time>2026-04-06T10:51:12.687Z</time></trkpt><trkpt lat="43.8744733" lon="12.6418983"><ele>204.33333333333334</ele><time>2026-04-06T10:51:13.688Z</time></trkpt><trkpt lat="43.8744833" lon="12.642005"><ele>202.66666666666669</ele><time>2026-04-06T10:51:14.687Z</time></trkpt><trkpt lat="43.8744867" lon="12.6421367"><ele>201.0</ele><time>2026-04-06T10:51:15.685Z</time></trkpt><trkpt lat="43.8744933" lon="12.64226"><ele>199.33333333333331</ele><time>2026-04-06T10:51:16.686Z</time></trkpt><trkpt lat="43.8744833" lon="12.6423783"><ele>197.66666666666666</ele><time>2026-04-06T10:51:17.683Z</time></trkpt><trkpt lat="43.8744567" lon="12.6424867"><ele>196.0</ele><time>2026-04-06T10:51:18.686Z</time></trkpt><trkpt lat="43.8744033" lon="12.6425867"><ele>196.0</ele><time>2026-04-06T10:51:19.686Z</time></trkpt><trkpt lat="43.8743433" lon="12.6426767"><ele>196.0</ele><time>2026-04-06T10:51:20.684Z</time></trkpt><trkpt lat="43.8742617" lon="12.6427567"><ele>196.0</ele><time>2026-04-06T10:51:21.685Z</time></trkpt><trkpt lat="43.874165" lon="12.64284"><ele>196.0</ele><time>2026-04-06T10:51:22.685Z</time></trkpt><trkpt lat="43.87408" lon="12.6429367"><ele>196.0</ele><time>2026-04-06T10:51:23.683Z</time></trkpt><trkpt lat="43.8739933" lon="12.6430233"><ele>199.66666666666666</ele><time>2026-04-06T10:51:24.685Z</time></trkpt><trkpt lat="43.873915" lon="12.6431"><ele>203.33333333333331</ele><time>2026-04-06T10:51:25.686Z</time></trkpt><trkpt lat="43.8738417" lon="12.64316"><ele>207.0</ele><time>2026-04-06T10:51:26.683Z</time></trkpt><trkpt lat="43.8737833" lon="12.6431967"><ele>210.66666666666669</ele><time>2026-04-06T10:51:27.685Z</time></trkpt><trkpt lat="43.873715" lon="12.6431967"><ele>214.33333333333334</ele><time>2026-04-06T10:51:29.687Z</time></trkpt><trkpt lat="43.8737083" lon="12.6430933"><ele>218.0</ele><time>2026-04-06T10:51:31.689Z</time></trkpt><trkpt lat="43.873755" lon="12.6430017"><ele>218.00000000000003</ele><time>2026-04-06T10:51:34.687Z</time></trkpt><trkpt lat="43.8738267" lon="12.6429983"><ele>218.0</ele><time>2026-04-06T10:54:27.686Z</time></trkpt><trkpt lat="43.8738867" lon="12.6429"><ele>218.0</ele><time>2026-04-06T10:54:30.686Z</time></trkpt><trkpt lat="43.8739333" lon="12.6428017"><ele>218.0</ele><time>2026-04-06T10:54:33.687Z</time></trkpt><trkpt lat="43.8738483" lon="12.64287"><ele>218.00000000000003</ele><time>2026-04-06T10:54:43.687Z</time></trkpt><trkpt lat="43.8737867" lon="12.64293"><ele>218.0</ele><time>2026-04-06T10:54:45.685Z</time></trkpt><trkpt lat="43.8736917" lon="12.64304"><ele>218.0</ele><time>2026-04-06T10:54:47.686Z</time></trkpt><trkpt lat="43.8736267" lon="12.6431317"><ele>218.0</ele><time>2026-04-06T10:54:48.687Z</time></trkpt><trkpt lat="43.8735617" lon="12.6432433"><ele>218.0</ele><time>2026-04-06T10:54:49.688Z</time></trkpt><trkpt lat="43.873495" lon="12.6433717"><ele>218.0</ele><time>2026-04-06T10:54:50.687Z</time></trkpt><trkpt lat="43.873435" lon="12.6435067"><ele>218.0</ele><time>2026-04-06T10:54:51.683Z</time></trkpt><trkpt lat="43.8733767" lon="12.6436533"><ele>224.33333333333334</ele><time>2026-04-06T10:54:52.686Z</time></trkpt><trkpt lat="43.8733233" lon="12.6438267"><ele>230.66666666666669</ele><time>2026-04-06T10:54:53.685Z</time></trkpt><trkpt lat="43.87326" lon="12.6440367"><ele>237.0</ele><time>2026-04-06T10:54:54.688Z</time></trkpt><trkpt lat="43.8731983" lon="12.6442433"><ele>237.0</ele><time>2026-04-06T10:54:55.688Z</time></trkpt><trkpt lat="43.8731383" lon="12.6444367"><ele>237.0</ele><time>2026-04-06T10:54:56.686Z</time></trkpt><trkpt lat="43.8730767" lon="12.6446067"><ele>237.0</ele><time>2026-04-06T10:54:57.686Z</time></trkpt><trkpt lat="43.87301" lon="12.644745"><ele>237.0</ele><time>2026-04-06T10:54:58.685Z</time></trkpt><trkpt lat="43.8729267" lon="12.6448517"><ele>237.0</ele><time>2026-04-06T10:54:59.687Z</time></trkpt><trkpt lat="43.8728317" lon="12.6449333"><ele>237.0</ele><time>2026-04-06T10:55:00.686Z</time></trkpt><trkpt lat="43.87272" lon="12.6449983"><ele>237.0</ele><time>2026-04-06T10:55:01.688Z</time></trkpt><trkpt lat="43.8726" lon="12.6450567"><ele>237.0</ele><time>2026-04-06T10:55:02.686Z</time></trkpt><trkpt lat="43.8724817" lon="12.6450967"><ele>239.25</ele><time>2026-04-06T10:55:03.687Z</time></trkpt><trkpt lat="43.8723633" lon="12.6451367"><ele>241.5</ele><time>2026-04-06T10:55:04.686Z</time></trkpt><trkpt lat="43.8722433" lon="12.6451733"><ele>243.75</ele><time>2026-04-06T10:55:05.685Z</time></trkpt><trkpt lat="43.8721233" lon="12.645205"><ele>246.0</ele><time>2026-04-06T10:55:06.687Z</time></trkpt><trkpt lat="43.8720033" lon="12.645255"><ele>243.75</ele><time>2026-04-06T10:55:07.687Z</time></trkpt><trkpt lat="43.87189" lon="12.6453467"><ele>241.5</ele><time>2026-04-06T10:55:08.685Z</time></trkpt><trkpt lat="43.8717817" lon="12.64548"><ele>239.25</ele><time>2026-04-06T10:55:09.686Z</time></trkpt><trkpt lat="43.8716683" lon="12.645645"><ele>237.0</ele><time>2026-04-06T10:55:10.686Z</time></trkpt><trkpt lat="43.8715517" lon="12.64583"><ele>240.66666666666669</ele><time>2026-04-06T10:55:11.685Z</time></trkpt><trkpt lat="43.8714283" lon="12.646035"><ele>244.33333333333334</ele><time>2026-04-06T10:55:12.686Z</time></trkpt><trkpt lat="43.87131" lon="12.64625"><ele>248.0</ele><time>2026-04-06T10:55:13.687Z</time></trkpt><trkpt lat="43.871215" lon="12.6464383"><ele>248.0</ele><time>2026-04-06T10:55:14.686Z</time></trkpt><trkpt lat="43.8711317" lon="12.6465917"><ele>248.0</ele><time>2026-04-06T10:55:15.686Z</time></trkpt><trkpt lat="43.8710583" lon="12.6467067"><ele>248.0</ele><time>2026-04-06T10:55:16.685Z</time></trkpt><trkpt lat="43.87097" lon="12.646785"><ele>248.0</ele><time>2026-04-06T10:55:17.687Z</time></trkpt><trkpt lat="43.8708633" lon="12.6468233"><ele>249.0</ele><time>2026-04-06T10:55:18.686Z</time></trkpt><trkpt lat="43.8707383" lon="12.64684"><ele>250.0</ele><time>2026-04-06T10:55:19.688Z</time></trkpt><trkpt lat="43.8705983" lon="12.6468667"><ele>251.0</ele><time>2026-04-06T10:55:20.683Z</time></trkpt><trkpt lat="43.8704533" lon="12.646925"><ele>252.0</ele><time>2026-04-06T10:55:21.685Z</time></trkpt><trkpt lat="43.8703117" lon="12.6470183"><ele>252.0</ele><time>2026-04-06T10:55:22.685Z</time></trkpt><trkpt lat="43.8701683" lon="12.6471283"><ele>252.0</ele><time>2026-04-06T10:55:23.687Z</time></trkpt><trkpt lat="43.8700217" lon="12.6472333"><ele>252.0</ele><time>2026-04-06T10:55:24.686Z</time></trkpt><trkpt lat="43.8698767" lon="12.647335"><ele>259.0</ele><time>2026-04-06T10:55:25.687Z</time></trkpt><trkpt lat="43.8697433" lon="12.6474217"><ele>266.0</ele><time>2026-04-06T10:55:26.685Z</time></trkpt><trkpt lat="43.8696317" lon="12.6474983"><ele>273.0</ele><time>2026-04-06T10:55:27.686Z</time></trkpt><trkpt lat="43.8695267" lon="12.647555"><ele>280.0</ele><time>2026-04-06T10:55:28.685Z</time></trkpt><trkpt lat="43.86942" lon="12.6476017"><ele>280.0</ele><time>2026-04-06T10:55:29.685Z</time></trkpt><trkpt lat="43.86931" lon="12.6476433"><ele>280.0</ele><time>2026-04-06T10:55:30.685Z</time></trkpt><trkpt lat="43.869185" lon="12.6476733"><ele>280.0</ele><time>2026-04-06T10:55:31.688Z</time></trkpt><trkpt lat="43.8690483" lon="12.647685"><ele>280.0</ele><time>2026-04-06T10:55:32.686Z</time></trkpt><trkpt lat="43.86891" lon="12.6476733"><ele>284.75</ele><time>2026-04-06T10:55:33.686Z</time></trkpt><trkpt lat="43.868765" lon="12.64764"><ele>289.5</ele><time>2026-04-06T10:55:34.685Z</time></trkpt><trkpt lat="43.86862" lon="12.6475983"><ele>294.25</ele><time>2026-04-06T10:55:35.687Z</time></trkpt><trkpt lat="43.8684783" lon="12.6475467"><ele>299.0</ele><time>2026-04-06T10:55:36.686Z</time></trkpt><trkpt lat="43.8683417" lon="12.6474967"><ele>300.4</ele><time>2026-04-06T10:55:37.686Z</time></trkpt><trkpt lat="43.8682217" lon="12.6474383"><ele>301.79999999999995</ele><time>2026-04-06T10:55:38.687Z</time></trkpt><trkpt lat="43.8681183" lon="12.64738"><ele>303.20000000000005</ele><time>2026-04-06T10:55:39.686Z</time></trkpt><trkpt lat="43.8680283" lon="12.647315"><ele>304.6</ele><time>2026-04-06T10:55:40.687Z</time></trkpt><trkpt lat="43.8679483" lon="12.64722"><ele>306.0</ele><time>2026-04-06T10:55:41.687Z</time></trkpt><trkpt lat="43.8678917" lon="12.6470917"><ele>308.5</ele><time>2026-04-06T10:55:42.686Z</time></trkpt><trkpt lat="43.8678467" lon="12.6469267"><ele>311.0</ele><time>2026-04-06T10:55:43.688Z</time></trkpt><trkpt lat="43.86781" lon="12.6467433"><ele>313.5</ele><time>2026-04-06T10:55:44.687Z</time></trkpt><trkpt lat="43.8677783" lon="12.6465433"><ele>316.0</ele><time>2026-04-06T10:55:45.684Z</time></trkpt><trkpt lat="43.8677533" lon="12.6463483"><ele>316.0</ele><time>2026-04-06T10:55:46.687Z</time></trkpt><trkpt lat="43.867735" lon="12.646155"><ele>316.0</ele><time>2026-04-06T10:55:47.684Z</time></trkpt><trkpt lat="43.867705" lon="12.6459783"><ele>316.0</ele><time>2026-04-06T10:55:48.687Z</time></trkpt><trkpt lat="43.86765" lon="12.6458117"><ele>316.0</ele><time>2026-04-06T10:55:49.688Z</time></trkpt><trkpt lat="43.867585" lon="12.645655"><ele>315.2</ele><time>2026-04-06T10:55:50.682Z</time></trkpt><trkpt lat="43.8675133" lon="12.645515"><ele>314.40000000000003</ele><time>2026-04-06T10:55:51.687Z</time></trkpt><trkpt lat="43.867425" lon="12.6454083"><ele>313.6</ele><time>2026-04-06T10:55:52.684Z</time></trkpt><trkpt lat="43.8673417" lon="12.6453333"><ele>312.8</ele><time>2026-04-06T10:55:53.688Z</time></trkpt><trkpt lat="43.8672467" lon="12.6452883"><ele>312.0</ele><time>2026-04-06T10:55:54.685Z</time></trkpt><trkpt lat="43.8671283" lon="12.6452717"><ele>312.0</ele><time>2026-04-06T10:55:55.687Z</time></trkpt><trkpt lat="43.8669917" lon="12.6452817"><ele>312.0</ele><time>2026-04-06T10:55:56.686Z</time></trkpt><trkpt lat="43.86684" lon="12.64531"><ele>312.0</ele><time>2026-04-06T10:55:57.686Z</time></trkpt><trkpt lat="43.8666933" lon="12.6453517"><ele>312.0</ele><time>2026-04-06T10:55:58.685Z</time></trkpt><trkpt lat="43.8665433" lon="12.645405"><ele>311.3333333333333</ele><time>2026-04-06T10:55:59.687Z</time></trkpt><trkpt lat="43.8663917" lon="12.6454783"><ele>310.66666666666663</ele><time>2026-04-06T10:56:00.686Z</time></trkpt><trkpt lat="43.8662383" lon="12.6455717"><ele>310.0</ele><time>2026-04-06T10:56:01.686Z</time></trkpt><trkpt lat="43.8660783" lon="12.6456717"><ele>311.0</ele><time>2026-04-06T10:56:02.684Z</time></trkpt><trkpt lat="43.86592" lon="12.645775"><ele>312.0</ele><time>2026-04-06T10:56:03.684Z</time></trkpt><trkpt lat="43.8657567" lon="12.6458817"><ele>313.0</ele><time>2026-04-06T10:56:04.685Z</time></trkpt><trkpt lat="43.8655967" lon="12.6459917"><ele>313.0</ele><time>2026-04-06T10:56:05.688Z</time></trkpt><trkpt lat="43.865445" lon="12.6460983"><ele>313.0</ele><time>2026-04-06T10:56:06.686Z</time></trkpt><trkpt lat="43.8653083" lon="12.6462017"><ele>313.0</ele><time>2026-04-06T10:56:07.688Z</time></trkpt><trkpt lat="43.8651767" lon="12.6463083"><ele>314.3333333333333</ele><time>2026-04-06T10:56:08.687Z</time></trkpt><trkpt lat="43.8650383" lon="12.6464067"><ele>315.6666666666667</ele><time>2026-04-06T10:56:09.685Z</time></trkpt><trkpt lat="43.86489" lon="12.646495"><ele>317.0</ele><time>2026-04-06T10:56:10.686Z</time></trkpt><trkpt lat="43.8647333" lon="12.6465783"><ele>317.0</ele><time>2026-04-06T10:56:11.686Z</time></trkpt><trkpt lat="43.8645767" lon="12.646655"><ele>317.0</ele><time>2026-04-06T10:56:12.685Z</time></trkpt><trkpt lat="43.8644183" lon="12.6467133"><ele>317.0</ele><time>2026-04-06T10:56:13.687Z</time></trkpt><trkpt lat="43.8642617" lon="12.64677"><ele>316.6666666666667</ele><time>2026-04-06T10:56:14.683Z</time></trkpt><trkpt lat="43.8640983" lon="12.64684"><ele>316.3333333333333</ele><time>2026-04-06T10:56:15.684Z</time></trkpt><trkpt lat="43.8639483" lon="12.6469183"><ele>316.0</ele><time>2026-04-06T10:56:16.685Z</time></trkpt><trkpt lat="43.8637967" lon="12.6470117"><ele>317.0</ele><time>2026-04-06T10:56:17.685Z</time></trkpt><trkpt lat="43.8636367" lon="12.647115"><ele>318.0</ele><time>2026-04-06T10:56:18.684Z</time></trkpt><trkpt lat="43.8634733" lon="12.64721"><ele>319.0</ele><time>2026-04-06T10:56:19.687Z</time></trkpt><trkpt lat="43.8633" lon="12.6472983"><ele>321.0</ele><time>2026-04-06T10:56:20.687Z</time></trkpt><trkpt lat="43.8631217" lon="12.64738"><ele>323.0</ele><time>2026-04-06T10:56:21.684Z</time></trkpt><trkpt lat="43.8629467" lon="12.6474533"><ele>325.0</ele><time>2026-04-06T10:56:22.685Z</time></trkpt><trkpt lat="43.8627767" lon="12.64752"><ele>325.0</ele><time>2026-04-06T10:56:23.685Z</time></trkpt><trkpt lat="43.8626117" lon="12.6475967"><ele>325.0</ele><time>2026-04-06T10:56:24.686Z</time></trkpt><trkpt lat="43.86245" lon="12.647685"><ele>325.0</ele><time>2026-04-06T10:56:25.686Z</time></trkpt><trkpt lat="43.86229" lon="12.6477983"><ele>325.0</ele><time>2026-04-06T10:56:26.685Z</time></trkpt><trkpt lat="43.8621317" lon="12.6479283"><ele>325.0</ele><time>2026-04-06T10:56:27.685Z</time></trkpt><trkpt lat="43.8619817" lon="12.6480617"><ele>325.0</ele><time>2026-04-06T10:56:28.685Z</time></trkpt><trkpt lat="43.8618333" lon="12.6481933"><ele>322.0</ele><time>2026-04-06T10:56:29.684Z</time></trkpt><trkpt lat="43.8616917" lon="12.6483033"><ele>319.0</ele><time>2026-04-06T10:56:30.684Z</time></trkpt><trkpt lat="43.8615433" lon="12.6483967"><ele>316.0</ele><time>2026-04-06T10:56:31.686Z</time></trkpt><trkpt lat="43.86139" lon="12.64848"><ele>316.0</ele><time>2026-04-06T10:56:32.683Z</time></trkpt><trkpt lat="43.8612333" lon="12.6485667"><ele>316.0</ele><time>2026-04-06T10:56:33.685Z</time></trkpt><trkpt lat="43.8610767" lon="12.64864"><ele>316.0</ele><time>2026-04-06T10:56:34.685Z</time></trkpt><trkpt lat="43.8609217" lon="12.6486883"><ele>322.3333333333333</ele><time>2026-04-06T10:56:35.689Z</time></trkpt><trkpt lat="43.860765" lon="12.6487217"><ele>328.6666666666667</ele><time>2026-04-06T10:56:36.686Z</time></trkpt><trkpt lat="43.860615" lon="12.64874"><ele>335.0</ele><time>2026-04-06T10:56:37.687Z</time></trkpt><trkpt lat="43.8604667" lon="12.6487583"><ele>335.0</ele><time>2026-04-06T10:56:38.687Z</time></trkpt><trkpt lat="43.8603283" lon="12.6487917"><ele>335.0</ele><time>2026-04-06T10:56:39.687Z</time></trkpt><trkpt lat="43.860185" lon="12.64886"><ele>335.0</ele><time>2026-04-06T10:56:40.687Z</time></trkpt><trkpt lat="43.8600533" lon="12.648935"><ele>335.0</ele><time>2026-04-06T10:56:41.688Z</time></trkpt><trkpt lat="43.8599267" lon="12.6489917"><ele>337.25</ele><time>2026-04-06T10:56:42.687Z</time></trkpt><trkpt lat="43.859795" lon="12.6490283"><ele>339.5</ele><time>2026-04-06T10:56:43.688Z</time></trkpt><trkpt lat="43.859655" lon="12.6490583"><ele>341.75</ele><time>2026-04-06T10:56:44.686Z</time></trkpt><trkpt lat="43.8595167" lon="12.64909"><ele>344.0</ele><time>2026-04-06T10:56:45.687Z</time></trkpt><trkpt lat="43.85938" lon="12.6491167"><ele>344.5</ele><time>2026-04-06T10:56:46.685Z</time></trkpt><trkpt lat="43.8592417" lon="12.64914"><ele>345.0</ele><time>2026-04-06T10:56:47.685Z</time></trkpt><trkpt lat="43.859105" lon="12.64917"><ele>345.5</ele><time>2026-04-06T10:56:48.687Z</time></trkpt><trkpt lat="43.8589767" lon="12.6491883"><ele>346.0</ele><time>2026-04-06T10:56:49.687Z</time></trkpt><trkpt lat="43.85885" lon="12.6492"><ele>346.0</ele><time>2026-04-06T10:56:50.686Z</time></trkpt><trkpt lat="43.858725" lon="12.6492017"><ele>346.0</ele><time>2026-04-06T10:56:51.686Z</time></trkpt><trkpt lat="43.858605" lon="12.64919"><ele>346.0</ele><time>2026-04-06T10:56:52.687Z</time></trkpt><trkpt lat="43.8584967" lon="12.649165"><ele>346.0</ele><time>2026-04-06T10:56:53.687Z</time></trkpt><trkpt lat="43.8583933" lon="12.64915"><ele>346.20000000000005</ele><time>2026-04-06T10:56:54.687Z</time></trkpt><trkpt lat="43.8582967" lon="12.64915"><ele>346.40000000000003</ele><time>2026-04-06T10:56:55.688Z</time></trkpt><trkpt lat="43.858195" lon="12.64918"><ele>346.6</ele><time>2026-04-06T10:56:56.686Z</time></trkpt><trkpt lat="43.85809" lon="12.6492317"><ele>346.8</ele><time>2026-04-06T10:56:57.686Z</time></trkpt><trkpt lat="43.8579783" lon="12.649305"><ele>347.0</ele><time>2026-04-06T10:56:58.686Z</time></trkpt><trkpt lat="43.8578567" lon="12.6494017"><ele>346.75</ele><time>2026-04-06T10:56:59.687Z</time></trkpt><trkpt lat="43.8577267" lon="12.6495117"><ele>346.5</ele><time>2026-04-06T10:57:00.687Z</time></trkpt><trkpt lat="43.8575967" lon="12.649615"><ele>346.25</ele><time>2026-04-06T10:57:01.689Z</time></trkpt><trkpt lat="43.8574683" lon="12.649705"><ele>346.0</ele><time>2026-04-06T10:57:02.687Z</time></trkpt><trkpt lat="43.8573383" lon="12.6497783"><ele>346.0</ele><time>2026-04-06T10:57:03.687Z</time></trkpt><trkpt lat="43.8572117" lon="12.6498367"><ele>346.0</ele><time>2026-04-06T10:57:04.687Z</time></trkpt><trkpt lat="43.85709" lon="12.64988"><ele>346.0</ele><time>2026-04-06T10:57:05.687Z</time></trkpt><trkpt lat="43.8569833" lon="12.64992"><ele>346.0</ele><time>2026-04-06T10:57:06.686Z</time></trkpt><trkpt lat="43.8568817" lon="12.6499733"><ele>346.0</ele><time>2026-04-06T10:57:07.688Z</time></trkpt><trkpt lat="43.8567867" lon="12.6500433"><ele>346.0</ele><time>2026-04-06T10:57:08.687Z</time></trkpt><trkpt lat="43.8566983" lon="12.6501167"><ele>346.0</ele><time>2026-04-06T10:57:09.686Z</time></trkpt><trkpt lat="43.8566217" lon="12.6501867"><ele>346.0</ele><time>2026-04-06T10:57:10.686Z</time></trkpt><trkpt lat="43.8565633" lon="12.6502367"><ele>346.0</ele><time>2026-04-06T10:57:11.687Z</time></trkpt><trkpt lat="43.8564583" lon="12.6503167"><ele>346.4</ele><time>2026-04-06T10:57:13.687Z</time></trkpt><trkpt lat="43.85636" lon="12.6503983"><ele>346.8</ele><time>2026-04-06T10:57:15.686Z</time></trkpt><trkpt lat="43.856255" lon="12.6505117"><ele>347.2</ele><time>2026-04-06T10:57:17.687Z</time></trkpt><trkpt lat="43.8562033" lon="12.6505767"><ele>347.59999999999997</ele><time>2026-04-06T10:57:18.687Z</time></trkpt><trkpt lat="43.8561567" lon="12.6506417"><ele>348.0</ele><time>2026-04-06T10:57:19.686Z</time></trkpt><trkpt lat="43.8560817" lon="12.65072"><ele>348.0</ele><time>2026-04-06T10:57:21.684Z</time></trkpt><trkpt lat="43.8561533" lon="12.6506583"><ele>348.0</ele><time>2026-04-06T10:57:29.686Z</time></trkpt><trkpt lat="43.8562617" lon="12.6505317"><ele>348.0</ele><time>2026-04-06T10:57:31.688Z</time></trkpt><trkpt lat="43.856325" lon="12.6504633"><ele>348.0</ele><time>2026-04-06T10:57:32.687Z</time></trkpt><trkpt lat="43.8563867" lon="12.6504083"><ele>348.0</ele><time>2026-04-06T10:57:33.688Z</time></trkpt><trkpt lat="43.8564517" lon="12.6503583"><ele>348.0</ele><time>2026-04-06T10:57:34.687Z</time></trkpt><trkpt lat="43.8565133" lon="12.6503133"><ele>348.0</ele><time>2026-04-06T10:57:35.686Z</time></trkpt><trkpt lat="43.856605" lon="12.65024"><ele>348.0</ele><time>2026-04-06T10:57:37.688Z</time></trkpt><trkpt lat="43.8566683" lon="12.6501767"><ele>348.0</ele><time>2026-04-06T10:57:40.688Z</time></trkpt><trkpt lat="43.8567" lon="12.6500733"><ele>348.0</ele><time>2026-04-06T10:57:43.688Z</time></trkpt><trkpt lat="43.8567433" lon="12.64997"><ele>348.0</ele><time>2026-04-06T10:57:46.687Z</time></trkpt><trkpt lat="43.8567833" lon="12.6498733"><ele>347.6666666666667</ele><time>2026-04-06T10:57:48.684Z</time></trkpt><trkpt lat="43.8568333" lon="12.64978"><ele>347.3333333333333</ele><time>2026-04-06T10:57:50.684Z</time></trkpt><trkpt lat="43.8568683" lon="12.6496917"><ele>347.0</ele><time>2026-04-06T10:57:52.686Z</time></trkpt><trkpt lat="43.85688" lon="12.64959"><ele>346.66666666666663</ele><time>2026-04-06T10:57:54.686Z</time></trkpt><trkpt lat="43.8568867" lon="12.6494683"><ele>346.3333333333333</ele><time>2026-04-06T10:57:56.686Z</time></trkpt><trkpt lat="43.856915" lon="12.6493383"><ele>346.0</ele><time>2026-04-06T10:57:58.686Z</time></trkpt><trkpt lat="43.8569383" lon="12.6492067"><ele>348.0</ele><time>2026-04-06T10:58:00.685Z</time></trkpt><trkpt lat="43.856965" lon="12.6490833"><ele>350.0</ele><time>2026-04-06T10:58:02.686Z</time></trkpt><trkpt lat="43.8569933" lon="12.6489733"><ele>352.0</ele><time>2026-04-06T10:58:04.686Z</time></trkpt><trkpt lat="43.8570233" lon="12.6488633"><ele>354.0</ele><time>2026-04-06T10:58:06.685Z</time></trkpt><trkpt lat="43.8570567" lon="12.6487483"><ele>356.0</ele><time>2026-04-06T10:58:08.686Z</time></trkpt><trkpt lat="43.857085" lon="12.6486433"><ele>358.0</ele><time>2026-04-06T10:58:10.686Z</time></trkpt><trkpt lat="43.8571117" lon="12.6485117"><ele>358.0</ele><time>2026-04-06T10:58:12.686Z</time></trkpt><trkpt lat="43.8571433" lon="12.6483683"><ele>358.0</ele><time>2026-04-06T10:58:14.686Z</time></trkpt><trkpt lat="43.8571733" lon="12.648255"><ele>358.0</ele><time>2026-04-06T10:58:16.683Z</time></trkpt><trkpt lat="43.8572017" lon="12.64814"><ele>358.0</ele><time>2026-04-06T10:58:18.684Z</time></trkpt><trkpt lat="43.8572233" lon="12.6480283"><ele>358.0</ele><time>2026-04-06T10:58:20.683Z</time></trkpt><trkpt lat="43.8572433" lon="12.6479267"><ele>358.0</ele><time>2026-04-06T10:58:22.687Z</time></trkpt><trkpt lat="43.85726" lon="12.6478067"><ele>357.2</ele><time>2026-04-06T10:58:24.686Z</time></trkpt><trkpt lat="43.8572717" lon="12.6476883"><ele>356.4</ele><time>2026-04-06T10:58:26.686Z</time></trkpt><trkpt lat="43.8572817" lon="12.647575"><ele>355.59999999999997</ele><time>2026-04-06T10:58:28.685Z</time></trkpt><trkpt lat="43.857295" lon="12.647445"><ele>354.79999999999995</ele><time>2026-04-06T10:58:30.686Z</time></trkpt><trkpt lat="43.85731" lon="12.6473167"><ele>354.0</ele><time>2026-04-06T10:58:32.685Z</time></trkpt><trkpt lat="43.857335" lon="12.6471817"><ele>354.0</ele><time>2026-04-06T10:58:34.686Z</time></trkpt><trkpt lat="43.8573583" lon="12.6470367"><ele>354.0</ele><time>2026-04-06T10:58:36.687Z</time></trkpt><trkpt lat="43.8573817" lon="12.64689"><ele>354.0</ele><time>2026-04-06T10:58:38.686Z</time></trkpt><trkpt lat="43.8573983" lon="12.646755"><ele>354.0</ele><time>2026-04-06T10:58:40.686Z</time></trkpt><trkpt lat="43.8574033" lon="12.6466433"><ele>354.0</ele><time>2026-04-06T10:58:42.686Z</time></trkpt><trkpt lat="43.8574167" lon="12.646455"><ele>354.1666666666667</ele><time>2026-04-06T10:58:50.683Z</time></trkpt><trkpt lat="43.857425" lon="12.6463683"><ele>354.3333333333333</ele><time>2026-04-06T10:58:51.684Z</time></trkpt><trkpt lat="43.857435" lon="12.6462667"><ele>354.5</ele><time>2026-04-06T10:58:52.685Z</time></trkpt><trkpt lat="43.857445" lon="12.64616"><ele>354.66666666666663</ele><time>2026-04-06T10:58:53.688Z</time></trkpt><trkpt lat="43.85745" lon="12.64605"><ele>354.8333333333333</ele><time>2026-04-06T10:58:54.686Z</time></trkpt><trkpt lat="43.85745" lon="12.64593"><ele>355.0</ele><time>2026-04-06T10:58:55.688Z</time></trkpt><trkpt lat="43.8574467" lon="12.6458017"><ele>355.0</ele><time>2026-04-06T10:58:56.686Z</time></trkpt><trkpt lat="43.8574383" lon="12.645665"><ele>355.0</ele><time>2026-04-06T10:58:57.685Z</time></trkpt><trkpt lat="43.85742" lon="12.645535"><ele>355.0</ele><time>2026-04-06T10:58:58.686Z</time></trkpt><trkpt lat="43.8573983" lon="12.6454033"><ele>355.0</ele><time>2026-04-06T10:58:59.686Z</time></trkpt><trkpt lat="43.85738" lon="12.6452667"><ele>355.0</ele><time>2026-04-06T10:59:00.685Z</time></trkpt><trkpt lat="43.857365" lon="12.6451317"><ele>354.66666666666663</ele><time>2026-04-06T10:59:01.688Z</time></trkpt><trkpt lat="43.8573517" lon="12.6450117"><ele>354.3333333333333</ele><time>2026-04-06T10:59:02.688Z</time></trkpt><trkpt lat="43.857335" lon="12.6449067"><ele>354.0</ele><time>2026-04-06T10:59:03.686Z</time></trkpt><trkpt lat="43.8573183" lon="12.6448183"><ele>353.6666666666667</ele><time>2026-04-06T10:59:04.686Z</time></trkpt><trkpt lat="43.8572883" lon="12.64468"><ele>353.33333333333337</ele><time>2026-04-06T10:59:06.687Z</time></trkpt><trkpt lat="43.8572517" lon="12.6445583"><ele>353.0</ele><time>2026-04-06T10:59:08.687Z</time></trkpt><trkpt lat="43.8572" lon="12.644445"><ele>352.83333333333337</ele><time>2026-04-06T10:59:10.686Z</time></trkpt><trkpt lat="43.8571233" lon="12.6443217"><ele>352.6666666666667</ele><time>2026-04-06T10:59:12.684Z</time></trkpt><trkpt lat="43.8570833" lon="12.64425"><ele>352.5</ele><time>2026-04-06T10:59:13.688Z</time></trkpt><trkpt lat="43.8570333" lon="12.644175"><ele>352.3333333333333</ele><time>2026-04-06T10:59:14.683Z</time></trkpt><trkpt lat="43.85698" lon="12.6440933"><ele>352.16666666666663</ele><time>2026-04-06T10:59:15.685Z</time></trkpt><trkpt lat="43.8569267" lon="12.644005"><ele>352.0</ele><time>2026-04-06T10:59:16.686Z</time></trkpt><trkpt lat="43.85687" lon="12.6439183"><ele>352.0</ele><time>2026-04-06T10:59:17.685Z</time></trkpt><trkpt lat="43.85682" lon="12.6438267"><ele>352.0</ele><time>2026-04-06T10:59:18.685Z</time></trkpt><trkpt lat="43.8567717" lon="12.6437317"><ele>352.0</ele><time>2026-04-06T10:59:19.686Z</time></trkpt><trkpt lat="43.8567267" lon="12.64363"><ele>352.0</ele><time>2026-04-06T10:59:20.684Z</time></trkpt><trkpt lat="43.8566817" lon="12.6435283"><ele>352.0</ele><time>2026-04-06T10:59:21.684Z</time></trkpt><trkpt lat="43.85663" lon="12.643425"><ele>352.0</ele><time>2026-04-06T10:59:22.686Z</time></trkpt><trkpt lat="43.8565667" lon="12.6433117"><ele>354.16666666666663</ele><time>2026-04-06T10:59:23.685Z</time></trkpt><trkpt lat="43.8565233" lon="12.6432"><ele>356.3333333333333</ele><time>2026-04-06T10:59:24.687Z</time></trkpt><trkpt lat="43.8564967" lon="12.6430833"><ele>358.5</ele><time>2026-04-06T10:59:25.686Z</time></trkpt><trkpt lat="43.856475" lon="12.6429667"><ele>360.6666666666667</ele><time>2026-04-06T10:59:26.683Z</time></trkpt><trkpt lat="43.85645" lon="12.642855"><ele>362.83333333333337</ele><time>2026-04-06T10:59:27.685Z</time></trkpt><trkpt lat="43.8564167" lon="12.642755"><ele>365.0</ele><time>2026-04-06T10:59:28.685Z</time></trkpt><trkpt lat="43.8563817" lon="12.6426583"><ele>366.5</ele><time>2026-04-06T10:59:29.685Z</time></trkpt><trkpt lat="43.8563483" lon="12.64256"><ele>368.0</ele><time>2026-04-06T10:59:30.685Z</time></trkpt><trkpt lat="43.85632" lon="12.642465"><ele>369.5</ele><time>2026-04-06T10:59:31.687Z</time></trkpt><trkpt lat="43.85629" lon="12.6423683"><ele>371.0</ele><time>2026-04-06T10:59:32.684Z</time></trkpt><trkpt lat="43.8562533" lon="12.6422683"><ele>372.5</ele><time>2026-04-06T10:59:33.684Z</time></trkpt><trkpt lat="43.85621" lon="12.6421783"><ele>374.0</ele><time>2026-04-06T10:59:34.687Z</time></trkpt><trkpt lat="43.856165" lon="12.6420933"><ele>374.0</ele><time>2026-04-06T10:59:35.684Z</time></trkpt><trkpt lat="43.8561217" lon="12.6420167"><ele>374.0</ele><time>2026-04-06T10:59:36.685Z</time></trkpt><trkpt lat="43.856075" lon="12.64194"><ele>374.0</ele><time>2026-04-06T10:59:37.686Z</time></trkpt><trkpt lat="43.8560317" lon="12.6418583"><ele>374.0</ele><time>2026-04-06T10:59:38.685Z</time></trkpt><trkpt lat="43.8559917" lon="12.6417767"><ele>374.0</ele><time>2026-04-06T10:59:39.685Z</time></trkpt><trkpt lat="43.8559517" lon="12.6417"><ele>374.0</ele><time>2026-04-06T10:59:40.686Z</time></trkpt><trkpt lat="43.8559067" lon="12.6416267"><ele>374.0</ele><time>2026-04-06T10:59:41.685Z</time></trkpt><trkpt lat="43.85586" lon="12.6415517"><ele>372.83333333333337</ele><time>2026-04-06T10:59:42.685Z</time></trkpt><trkpt lat="43.8558117" lon="12.6414733"><ele>371.6666666666667</ele><time>2026-04-06T10:59:43.686Z</time></trkpt><trkpt lat="43.8557617" lon="12.6413983"><ele>370.5</ele><time>2026-04-06T10:59:44.685Z</time></trkpt><trkpt lat="43.85572" lon="12.6413283"><ele>369.3333333333333</ele><time>2026-04-06T10:59:45.684Z</time></trkpt><trkpt lat="43.8556583" lon="12.6412083"><ele>368.16666666666663</ele><time>2026-04-06T10:59:47.685Z</time></trkpt><trkpt lat="43.8556517" lon="12.6410817"><ele>367.0</ele><time>2026-04-06T10:59:56.685Z</time></trkpt><trkpt lat="43.8556333" lon="12.6409417"><ele>366.7142857142857</ele><time>2026-04-06T10:59:58.684Z</time></trkpt><trkpt lat="43.8556217" lon="12.640855"><ele>366.42857142857144</ele><time>2026-04-06T10:59:59.684Z</time></trkpt><trkpt lat="43.85562" lon="12.640745"><ele>366.14285714285717</ele><time>2026-04-06T11:00:00.684Z</time></trkpt><trkpt lat="43.8556183" lon="12.6406417"><ele>365.8571428571429</ele><time>2026-04-06T11:00:01.687Z</time></trkpt><trkpt lat="43.855605" lon="12.6405333"><ele>365.57142857142856</ele><time>2026-04-06T11:00:02.686Z</time></trkpt><trkpt lat="43.8555867" lon="12.6404333"><ele>365.28571428571433</ele><time>2026-04-06T11:00:03.685Z</time></trkpt><trkpt lat="43.8555667" lon="12.64034"><ele>365.0</ele><time>2026-04-06T11:00:04.685Z</time></trkpt><trkpt lat="43.8555533" lon="12.64025"><ele>364.0</ele><time>2026-04-06T11:00:05.685Z</time></trkpt><trkpt lat="43.8555383" lon="12.6400917"><ele>363.0</ele><time>2026-04-06T11:00:07.686Z</time></trkpt><trkpt lat="43.8555183" lon="12.639995"><ele>362.0</ele><time>2026-04-06T11:00:09.684Z</time></trkpt><trkpt lat="43.85551" lon="12.6399067"><ele>361.0</ele><time>2026-04-06T11:00:11.687Z</time></trkpt><trkpt lat="43.8554983" lon="12.63982"><ele>360.0</ele><time>2026-04-06T11:00:13.688Z</time></trkpt><trkpt lat="43.8554917" lon="12.6397317"><ele>359.0</ele><time>2026-04-06T11:00:15.685Z</time></trkpt><trkpt lat="43.8554567" lon="12.639605"><ele>359.0</ele><time>2026-04-06T11:00:18.685Z</time></trkpt><trkpt lat="43.8554367" lon="12.639515"><ele>359.0</ele><time>2026-04-06T11:00:20.685Z</time></trkpt><trkpt lat="43.8554167" lon="12.6394017"><ele>359.0</ele><time>2026-04-06T11:00:25.687Z</time></trkpt><trkpt lat="43.8554267" lon="12.63931"><ele>359.0</ele><time>2026-04-06T11:00:27.684Z</time></trkpt><trkpt lat="43.855435" lon="12.6392083"><ele>359.0</ele><time>2026-04-06T11:00:29.686Z</time></trkpt><trkpt lat="43.855445" lon="12.6391017"><ele>359.0</ele><time>2026-04-06T11:00:31.687Z</time></trkpt><trkpt lat="43.8554533" lon="12.639"><ele>359.0</ele><time>2026-04-06T11:00:33.684Z</time></trkpt><trkpt lat="43.85547" lon="12.6388983"><ele>357.6666666666667</ele><time>2026-04-06T11:00:35.687Z</time></trkpt><trkpt lat="43.8554833" lon="12.63878"><ele>356.33333333333337</ele><time>2026-04-06T11:00:38.686Z</time></trkpt><trkpt lat="43.855495" lon="12.6386933"><ele>355.0</ele><time>2026-04-06T11:00:40.686Z</time></trkpt><trkpt lat="43.8555" lon="12.6385767"><ele>353.6666666666667</ele><time>2026-04-06T11:00:42.687Z</time></trkpt><trkpt lat="43.8554967" lon="12.6384533"><ele>352.3333333333333</ele><time>2026-04-06T11:00:44.686Z</time></trkpt><trkpt lat="43.855495" lon="12.638345"><ele>351.0</ele><time>2026-04-06T11:00:46.687Z</time></trkpt><trkpt lat="43.85549" lon="12.6382433"><ele>349.8333333333333</ele><time>2026-04-06T11:00:56.687Z</time></trkpt><trkpt lat="43.8555233" lon="12.638145"><ele>348.6666666666667</ele><time>2026-04-06T11:00:58.685Z</time></trkpt><trkpt lat="43.8555867" lon="12.6379983"><ele>347.5</ele><time>2026-04-06T11:01:00.686Z</time></trkpt><trkpt lat="43.8556183" lon="12.6379167"><ele>346.33333333333337</ele><time>2026-04-06T11:01:01.687Z</time></trkpt><trkpt lat="43.85565" lon="12.6378317"><ele>345.1666666666667</ele><time>2026-04-06T11:01:02.686Z</time></trkpt><trkpt lat="43.8556833" lon="12.6377417"><ele>344.0</ele><time>2026-04-06T11:01:03.684Z</time></trkpt><trkpt lat="43.855715" lon="12.6376533"><ele>343.00000000000006</ele><time>2026-04-06T11:01:04.686Z</time></trkpt><trkpt lat="43.8557483" lon="12.637565"><ele>342.0</ele><time>2026-04-06T11:01:05.687Z</time></trkpt><trkpt lat="43.8557717" lon="12.6374767"><ele>341.0</ele><time>2026-04-06T11:01:06.686Z</time></trkpt><trkpt lat="43.8557967" lon="12.6373867"><ele>340.0</ele><time>2026-04-06T11:01:07.688Z</time></trkpt><trkpt lat="43.8558283" lon="12.637295"><ele>339.0</ele><time>2026-04-06T11:01:08.684Z</time></trkpt><trkpt lat="43.8558533" lon="12.637205"><ele>338.00000000000006</ele><time>2026-04-06T11:01:09.684Z</time></trkpt><trkpt lat="43.8558783" lon="12.63711"><ele>337.0</ele><time>2026-04-06T11:01:10.684Z</time></trkpt><trkpt lat="43.8559033" lon="12.6370183"><ele>336.0</ele><time>2026-04-06T11:01:11.689Z</time></trkpt><trkpt lat="43.855935" lon="12.6369233"><ele>335.0</ele><time>2026-04-06T11:01:12.686Z</time></trkpt><trkpt lat="43.8559683" lon="12.6368433"><ele>334.0</ele><time>2026-04-06T11:01:13.686Z</time></trkpt><trkpt lat="43.856" lon="12.6367617"><ele>333.0</ele><time>2026-04-06T11:01:14.686Z</time></trkpt><trkpt lat="43.8560383" lon="12.6366917"><ele>332.0</ele><time>2026-04-06T11:01:15.685Z</time></trkpt><trkpt lat="43.856135" lon="12.6366067"><ele>331.0</ele><time>2026-04-06T11:01:17.686Z</time></trkpt><trkpt lat="43.85623" lon="12.636545"><ele>330.6</ele><time>2026-04-06T11:01:19.686Z</time></trkpt><trkpt lat="43.8563067" lon="12.6365133"><ele>330.20000000000005</ele><time>2026-04-06T11:01:21.685Z</time></trkpt><trkpt lat="43.8563683" lon="12.6364283"><ele>329.79999999999995</ele><time>2026-04-06T11:01:23.687Z</time></trkpt><trkpt lat="43.8564317" lon="12.63632"><ele>329.4</ele><time>2026-04-06T11:01:25.687Z</time></trkpt><trkpt lat="43.8564933" lon="12.6361917"><ele>329.0</ele><time>2026-04-06T11:01:27.684Z</time></trkpt><trkpt lat="43.8565417" lon="12.6360583"><ele>329.0</ele><time>2026-04-06T11:01:29.687Z</time></trkpt><trkpt lat="43.856575" lon="12.6359133"><ele>329.0</ele><time>2026-04-06T11:01:31.687Z</time></trkpt><trkpt lat="43.8565967" lon="12.635755"><ele>329.0</ele><time>2026-04-06T11:01:33.686Z</time></trkpt><trkpt lat="43.8566033" lon="12.6356167"><ele>329.0</ele><time>2026-04-06T11:01:35.687Z</time></trkpt><trkpt lat="43.8565783" lon="12.635495"><ele>329.0</ele><time>2026-04-06T11:01:37.689Z</time></trkpt><trkpt lat="43.8565367" lon="12.6353717"><ele>328.1666666666667</ele><time>2026-04-06T11:01:39.685Z</time></trkpt><trkpt lat="43.8565083" lon="12.6352433"><ele>327.33333333333337</ele><time>2026-04-06T11:01:41.686Z</time></trkpt><trkpt lat="43.856475" lon="12.6351383"><ele>326.5</ele><time>2026-04-06T11:01:43.686Z</time></trkpt><trkpt lat="43.8564133" lon="12.6350717"><ele>325.6666666666667</ele><time>2026-04-06T11:01:46.686Z</time></trkpt><trkpt lat="43.85633" lon="12.63505"><ele>324.8333333333333</ele><time>2026-04-06T11:01:49.686Z</time></trkpt><trkpt lat="43.8562533" lon="12.6350383"><ele>324.0</ele><time>2026-04-06T11:01:51.685Z</time></trkpt><trkpt lat="43.8561667" lon="12.6350267"><ele>324.0</ele><time>2026-04-06T11:01:53.685Z</time></trkpt><trkpt lat="43.856075" lon="12.6350233"><ele>324.0</ele><time>2026-04-06T11:01:55.687Z</time></trkpt><trkpt lat="43.8559833" lon="12.6350217"><ele>324.0</ele><time>2026-04-06T11:01:57.685Z</time></trkpt><trkpt lat="43.8559" lon="12.63502"><ele>324.0</ele><time>2026-04-06T11:01:59.685Z</time></trkpt><trkpt lat="43.8558133" lon="12.6350133"><ele>324.0</ele><time>2026-04-06T11:02:01.686Z</time></trkpt><trkpt lat="43.8557133" lon="12.6350067"><ele>323.0</ele><time>2026-04-06T11:02:03.686Z</time></trkpt><trkpt lat="43.8556217" lon="12.635"><ele>322.0</ele><time>2026-04-06T11:02:05.687Z</time></trkpt><trkpt lat="43.855545" lon="12.6349967"><ele>321.0</ele><time>2026-04-06T11:02:07.686Z</time></trkpt><trkpt lat="43.8554633" lon="12.6349983"><ele>320.0</ele><time>2026-04-06T11:02:10.685Z</time></trkpt><trkpt lat="43.85538" lon="12.63502"><ele>319.0</ele><time>2026-04-06T11:02:35.687Z</time></trkpt><trkpt lat="43.8553" lon="12.6351033"><ele>318.0</ele><time>2026-04-06T11:02:37.684Z</time></trkpt><trkpt lat="43.8552517" lon="12.6351733"><ele>318.0</ele><time>2026-04-06T11:02:39.684Z</time></trkpt><trkpt lat="43.85521" lon="12.6352483"><ele>318.0</ele><time>2026-04-06T11:02:41.686Z</time></trkpt><trkpt lat="43.8551767" lon="12.63533"><ele>318.0</ele><time>2026-04-06T11:02:43.686Z</time></trkpt><trkpt lat="43.8551383" lon="12.6354167"><ele>318.0</ele><time>2026-04-06T11:02:45.686Z</time></trkpt><trkpt lat="43.85509" lon="12.6355"><ele>318.0</ele><time>2026-04-06T11:02:47.685Z</time></trkpt><trkpt lat="43.8550383" lon="12.6355533"><ele>318.0</ele><time>2026-04-06T11:02:49.687Z</time></trkpt><trkpt lat="43.8549567" lon="12.6355167"><ele>318.0</ele><time>2026-04-06T11:02:57.685Z</time></trkpt><trkpt lat="43.854915" lon="12.6354117"><ele>318.0</ele><time>2026-04-06T11:02:59.685Z</time></trkpt><trkpt lat="43.8549083" lon="12.6353167"><ele>318.0</ele><time>2026-04-06T11:03:01.684Z</time></trkpt><trkpt lat="43.854905" lon="12.6352033"><ele>318.0</ele><time>2026-04-06T11:03:04.687Z</time></trkpt><trkpt lat="43.8549283" lon="12.6351083"><ele>318.0</ele><time>2026-04-06T11:03:08.685Z</time></trkpt><trkpt lat="43.8549933" lon="12.6351117"><ele>318.0</ele><time>2026-04-06T11:03:10.685Z</time></trkpt><trkpt lat="43.855085" lon="12.6351667"><ele>318.0</ele><time>2026-04-06T11:03:12.685Z</time></trkpt><trkpt lat="43.8551383" lon="12.6352517"><ele>318.0</ele><time>2026-04-06T11:03:14.685Z</time></trkpt><trkpt lat="43.855215" lon="12.635235"><ele>318.0</ele><time>2026-04-06T11:03:18.683Z</time></trkpt><trkpt lat="43.8552917" lon="12.6351083"><ele>318.0</ele><time>2026-04-06T11:03:20.686Z</time></trkpt><trkpt lat="43.855355" lon="12.635045"><ele>318.0</ele><time>2026-04-06T11:03:21.683Z</time></trkpt><trkpt lat="43.855425" lon="12.6349867"><ele>318.0</ele><time>2026-04-06T11:03:22.686Z</time></trkpt><trkpt lat="43.855505" lon="12.6349283"><ele>318.0</ele><time>2026-04-06T11:03:23.686Z</time></trkpt><trkpt lat="43.8555867" lon="12.6348717"><ele>318.0</ele><time>2026-04-06T11:03:24.685Z</time></trkpt><trkpt lat="43.85566" lon="12.6348183"><ele>318.0</ele><time>2026-04-06T11:03:25.686Z</time></trkpt><trkpt lat="43.8557317" lon="12.634765"><ele>318.0</ele><time>2026-04-06T11:03:26.686Z</time></trkpt><trkpt lat="43.855805" lon="12.6347067"><ele>318.0</ele><time>2026-04-06T11:03:27.691Z</time></trkpt><trkpt lat="43.855885" lon="12.63465"><ele>318.0</ele><time>2026-04-06T11:03:28.685Z</time></trkpt><trkpt lat="43.8559617" lon="12.634595"><ele>318.0</ele><time>2026-04-06T11:03:29.686Z</time></trkpt><trkpt lat="43.8560383" lon="12.6345467"><ele>317.8333333333333</ele><time>2026-04-06T11:03:30.686Z</time></trkpt><trkpt lat="43.8561117" lon="12.6345067"><ele>317.6666666666667</ele><time>2026-04-06T11:03:31.685Z</time></trkpt><trkpt lat="43.85618" lon="12.6344717"><ele>317.5</ele><time>2026-04-06T11:03:32.685Z</time></trkpt><trkpt lat="43.856245" lon="12.634435"><ele>317.33333333333337</ele><time>2026-04-06T11:03:33.685Z</time></trkpt><trkpt lat="43.8563067" lon="12.6343967"><ele>317.1666666666667</ele><time>2026-04-06T11:03:34.684Z</time></trkpt><trkpt lat="43.8564117" lon="12.6343417"><ele>317.0</ele><time>2026-04-06T11:03:36.686Z</time></trkpt><trkpt lat="43.8564983" lon="12.6342917"><ele>317.0</ele><time>2026-04-06T11:03:38.684Z</time></trkpt><trkpt lat="43.8565783" lon="12.6342567"><ele>317.0</ele><time>2026-04-06T11:03:40.686Z</time></trkpt><trkpt lat="43.8565" lon="12.634275"><ele>317.0</ele><time>2026-04-06T11:03:49.686Z</time></trkpt><trkpt lat="43.8564467" lon="12.6343233"><ele>317.0</ele><time>2026-04-06T11:03:50.684Z</time></trkpt><trkpt lat="43.8563767" lon="12.6343667"><ele>317.0</ele><time>2026-04-06T11:03:51.685Z</time></trkpt><trkpt lat="43.8562967" lon="12.6344133"><ele>317.0</ele><time>2026-04-06T11:03:52.684Z</time></trkpt><trkpt lat="43.8562133" lon="12.63446"><ele>317.2</ele><time>2026-04-06T11:03:53.685Z</time></trkpt><trkpt lat="43.8561283" lon="12.6345117"><ele>317.4</ele><time>2026-04-06T11:03:54.685Z</time></trkpt><trkpt lat="43.856045" lon="12.6345517"><ele>317.6</ele><time>2026-04-06T11:03:55.686Z</time></trkpt><trkpt lat="43.8559583" lon="12.6345967"><ele>317.8</ele><time>2026-04-06T11:03:56.686Z</time></trkpt><trkpt lat="43.8558733" lon="12.634655"><ele>318.0</ele><time>2026-04-06T11:03:57.685Z</time></trkpt><trkpt lat="43.8557867" lon="12.6347117"><ele>318.0</ele><time>2026-04-06T11:03:58.686Z</time></trkpt><trkpt lat="43.8556983" lon="12.6347783"><ele>318.0</ele><time>2026-04-06T11:03:59.686Z</time></trkpt><trkpt lat="43.8556017" lon="12.6348467"><ele>318.0</ele><time>2026-04-06T11:04:00.685Z</time></trkpt><trkpt lat="43.855505" lon="12.6349167"><ele>318.0</ele><time>2026-04-06T11:04:01.686Z</time></trkpt><trkpt lat="43.8554133" lon="12.6349833"><ele>318.0</ele><time>2026-04-06T11:04:02.686Z</time></trkpt><trkpt lat="43.855335" lon="12.63505"><ele>318.0</ele><time>2026-04-06T11:04:03.683Z</time></trkpt><trkpt lat="43.8552683" lon="12.6351183"><ele>318.0</ele><time>2026-04-06T11:04:04.685Z</time></trkpt><trkpt lat="43.855215" lon="12.635195"><ele>318.0</ele><time>2026-04-06T11:04:05.686Z</time></trkpt><trkpt lat="43.8551783" lon="12.6352817"><ele>318.0</ele><time>2026-04-06T11:04:06.685Z</time></trkpt><trkpt lat="43.8551417" lon="12.63537"><ele>318.0</ele><time>2026-04-06T11:04:07.685Z</time></trkpt><trkpt lat="43.8550983" lon="12.635455"><ele>318.0</ele><time>2026-04-06T11:04:08.685Z</time></trkpt><trkpt lat="43.85502" lon="12.63557"><ele>317.0</ele><time>2026-04-06T11:04:10.686Z</time></trkpt><trkpt lat="43.854985" lon="12.635645"><ele>316.0</ele><time>2026-04-06T11:04:12.685Z</time></trkpt><trkpt lat="43.8549983" lon="12.63576"><ele>315.0</ele><time>2026-04-06T11:04:14.684Z</time></trkpt><trkpt lat="43.854975" lon="12.6358467"><ele>314.0</ele><time>2026-04-06T11:04:17.685Z</time></trkpt><trkpt lat="43.8549" lon="12.6358033"><ele>313.0</ele><time>2026-04-06T11:04:19.686Z</time></trkpt><trkpt lat="43.8548633" lon="12.63573"><ele>312.0</ele><time>2026-04-06T11:04:20.685Z</time></trkpt><trkpt lat="43.8548317" lon="12.6356383"><ele>311.0</ele><time>2026-04-06T11:04:21.684Z</time></trkpt><trkpt lat="43.8547967" lon="12.6355367"><ele>311.0</ele><time>2026-04-06T11:04:22.686Z</time></trkpt><trkpt lat="43.85475" lon="12.63541"><ele>311.0</ele><time>2026-04-06T11:04:23.687Z</time></trkpt><trkpt lat="43.854695" lon="12.6352417"><ele>311.0</ele><time>2026-04-06T11:04:24.686Z</time></trkpt><trkpt lat="43.85464" lon="12.6350783"><ele>311.0</ele><time>2026-04-06T11:04:25.686Z</time></trkpt><trkpt lat="43.8545917" lon="12.6349117"><ele>311.25</ele><time>2026-04-06T11:04:26.685Z</time></trkpt><trkpt lat="43.8545483" lon="12.6347483"><ele>311.5</ele><time>2026-04-06T11:04:27.684Z</time></trkpt><trkpt lat="43.8545133" lon="12.63459"><ele>311.75</ele><time>2026-04-06T11:04:28.685Z</time></trkpt><trkpt lat="43.85449" lon="12.63443"><ele>312.0</ele><time>2026-04-06T11:04:29.688Z</time></trkpt><trkpt lat="43.8544733" lon="12.63427"><ele>310.0</ele><time>2026-04-06T11:04:30.684Z</time></trkpt><trkpt lat="43.8544583" lon="12.6341167"><ele>308.0</ele><time>2026-04-06T11:04:31.686Z</time></trkpt><trkpt lat="43.854445" lon="12.633975"><ele>306.0</ele><time>2026-04-06T11:04:32.686Z</time></trkpt><trkpt lat="43.8544467" lon="12.6338467"><ele>304.0</ele><time>2026-04-06T11:04:33.684Z</time></trkpt><trkpt lat="43.8544717" lon="12.633735"><ele>302.0</ele><time>2026-04-06T11:04:34.685Z</time></trkpt><trkpt lat="43.8545217" lon="12.63365"><ele>299.4</ele><time>2026-04-06T11:04:35.685Z</time></trkpt><trkpt lat="43.854605" lon="12.63362"><ele>296.79999999999995</ele><time>2026-04-06T11:04:36.686Z</time></trkpt><trkpt lat="43.8546767" lon="12.6335983"><ele>294.2</ele><time>2026-04-06T11:04:37.686Z</time></trkpt><trkpt lat="43.854755" lon="12.63359"><ele>291.59999999999997</ele><time>2026-04-06T11:04:38.682Z</time></trkpt><trkpt lat="43.85483" lon="12.6334967"><ele>289.0</ele><time>2026-04-06T11:04:40.686Z</time></trkpt><trkpt lat="43.85475" lon="12.6333817"><ele>289.0</ele><time>2026-04-06T11:04:42.685Z</time></trkpt><trkpt lat="43.854685" lon="12.6333267"><ele>289.0</ele><time>2026-04-06T11:04:43.686Z</time></trkpt><trkpt lat="43.8545883" lon="12.6332733"><ele>289.0</ele><time>2026-04-06T11:04:44.684Z</time></trkpt><trkpt lat="43.8544517" lon="12.6332217"><ele>289.0</ele><time>2026-04-06T11:04:45.684Z</time></trkpt><trkpt lat="43.85434" lon="12.63318"><ele>289.0</ele><time>2026-04-06T11:04:46.685Z</time></trkpt><trkpt lat="43.854225" lon="12.6331483"><ele>288.2</ele><time>2026-04-06T11:04:47.688Z</time></trkpt><trkpt lat="43.85413" lon="12.6331283"><ele>287.4</ele><time>2026-04-06T11:04:48.686Z</time></trkpt><trkpt lat="43.8540583" lon="12.6331183"><ele>286.6</ele><time>2026-04-06T11:04:49.686Z</time></trkpt><trkpt lat="43.8539667" lon="12.6331117"><ele>285.8</ele><time>2026-04-06T11:04:51.684Z</time></trkpt><trkpt lat="43.853885" lon="12.63316"><ele>285.0</ele><time>2026-04-06T11:04:54.688Z</time></trkpt><trkpt lat="43.8538133" lon="12.63326"><ele>285.0</ele><time>2026-04-06T11:04:56.686Z</time></trkpt><trkpt lat="43.853745" lon="12.6334117"><ele>285.0</ele><time>2026-04-06T11:04:58.688Z</time></trkpt><trkpt lat="43.853705" lon="12.6334817"><ele>285.0</ele><time>2026-04-06T11:04:59.685Z</time></trkpt><trkpt lat="43.8536067" lon="12.6335017"><ele>285.0</ele><time>2026-04-06T11:05:01.686Z</time></trkpt><trkpt lat="43.8535667" lon="12.63342"><ele>285.0</ele><time>2026-04-06T11:05:02.685Z</time></trkpt><trkpt lat="43.85354" lon="12.6332817"><ele>285.0</ele><time>2026-04-06T11:05:03.684Z</time></trkpt><trkpt lat="43.8535167" lon="12.6331267"><ele>285.0</ele><time>2026-04-06T11:05:04.686Z</time></trkpt><trkpt lat="43.8534933" lon="12.6329767"><ele>285.0</ele><time>2026-04-06T11:05:05.684Z</time></trkpt><trkpt lat="43.8534733" lon="12.6328333"><ele>285.0</ele><time>2026-04-06T11:05:06.685Z</time></trkpt><trkpt lat="43.8534667" lon="12.6326933"><ele>285.0</ele><time>2026-04-06T11:05:07.686Z</time></trkpt><trkpt lat="43.853475" lon="12.6325517"><ele>283.0</ele><time>2026-04-06T11:05:08.685Z</time></trkpt><trkpt lat="43.853495" lon="12.6324133"><ele>281.0</ele><time>2026-04-06T11:05:09.685Z</time></trkpt><trkpt lat="43.8535267" lon="12.6322817"><ele>279.0</ele><time>2026-04-06T11:05:10.687Z</time></trkpt><trkpt lat="43.8535667" lon="12.63216"><ele>277.0</ele><time>2026-04-06T11:05:11.687Z</time></trkpt><trkpt lat="43.8536083" lon="12.63204"><ele>275.0</ele><time>2026-04-06T11:05:12.686Z</time></trkpt><trkpt lat="43.85364" lon="12.6319217"><ele>273.0</ele><time>2026-04-06T11:05:13.687Z</time></trkpt><trkpt lat="43.8536633" lon="12.6317967"><ele>271.0</ele><time>2026-04-06T11:05:14.682Z</time></trkpt><trkpt lat="43.8536817" lon="12.63166"><ele>269.0</ele><time>2026-04-06T11:05:15.687Z</time></trkpt><trkpt lat="43.85369" lon="12.6315267"><ele>267.0</ele><time>2026-04-06T11:05:16.683Z</time></trkpt><trkpt lat="43.8537" lon="12.63141"><ele>265.0</ele><time>2026-04-06T11:05:17.684Z</time></trkpt><trkpt lat="43.8537067" lon="12.6313033"><ele>265.0</ele><time>2026-04-06T11:05:18.685Z</time></trkpt><trkpt lat="43.85371" lon="12.6312"><ele>265.0</ele><time>2026-04-06T11:05:19.687Z</time></trkpt><trkpt lat="43.8537133" lon="12.6311"><ele>265.0</ele><time>2026-04-06T11:05:20.684Z</time></trkpt><trkpt lat="43.8537183" lon="12.631005"><ele>265.0</ele><time>2026-04-06T11:05:21.685Z</time></trkpt><trkpt lat="43.853725" lon="12.6309133"><ele>265.0</ele><time>2026-04-06T11:05:22.685Z</time></trkpt><trkpt lat="43.8537383" lon="12.6307433"><ele>265.0</ele><time>2026-04-06T11:05:24.689Z</time></trkpt><trkpt lat="43.8537467" lon="12.6305867"><ele>263.66666666666663</ele><time>2026-04-06T11:05:26.684Z</time></trkpt><trkpt lat="43.8537533" lon="12.63045"><ele>262.3333333333333</ele><time>2026-04-06T11:05:28.691Z</time></trkpt><trkpt lat="43.8537667" lon="12.6303167"><ele>261.0</ele><time>2026-04-06T11:05:30.686Z</time></trkpt><trkpt lat="43.85377" lon="12.6301933"><ele>259.6666666666667</ele><time>2026-04-06T11:05:32.685Z</time></trkpt><trkpt lat="43.8537633" lon="12.630095"><ele>258.33333333333337</ele><time>2026-04-06T11:05:34.686Z</time></trkpt><trkpt lat="43.8537567" lon="12.6300033"><ele>257.0</ele><time>2026-04-06T11:05:36.686Z</time></trkpt><trkpt lat="43.8537383" lon="12.6298933"><ele>257.0</ele><time>2026-04-06T11:05:39.685Z</time></trkpt><trkpt lat="43.853725" lon="12.6300333"><ele>257.0</ele><time>2026-04-06T11:05:43.688Z</time></trkpt><trkpt lat="43.8537283" lon="12.6301383"><ele>257.0</ele><time>2026-04-06T11:05:44.685Z</time></trkpt><trkpt lat="43.85373" lon="12.63024"><ele>257.0</ele><time>2026-04-06T11:05:45.686Z</time></trkpt><trkpt lat="43.8537267" lon="12.6303333"><ele>257.0</ele><time>2026-04-06T11:05:46.685Z</time></trkpt><trkpt lat="43.8537183" lon="12.6304217"><ele>257.0</ele><time>2026-04-06T11:05:47.684Z</time></trkpt><trkpt lat="43.853705" lon="12.63059"><ele>257.0</ele><time>2026-04-06T11:05:49.688Z</time></trkpt><trkpt lat="43.8536967" lon="12.6307583"><ele>257.0</ele><time>2026-04-06T11:05:51.683Z</time></trkpt><trkpt lat="43.85369" lon="12.6308483"><ele>257.0</ele><time>2026-04-06T11:05:52.685Z</time></trkpt><trkpt lat="43.8536867" lon="12.6309367"><ele>257.0</ele><time>2026-04-06T11:05:53.688Z</time></trkpt><trkpt lat="43.8536733" lon="12.631085"><ele>257.0</ele><time>2026-04-06T11:05:55.688Z</time></trkpt><trkpt lat="43.85367" lon="12.6312"><ele>257.0</ele><time>2026-04-06T11:05:57.685Z</time></trkpt><trkpt lat="43.8537383" lon="12.631195"><ele>257.0</ele><time>2026-04-06T11:06:03.685Z</time></trkpt><trkpt lat="43.8537117" lon="12.6310867"><ele>257.0</ele><time>2026-04-06T11:06:40.686Z</time></trkpt><trkpt lat="43.85372" lon="12.6309567"><ele>257.0</ele><time>2026-04-06T11:06:42.687Z</time></trkpt><trkpt lat="43.8537283" lon="12.6308433"><ele>257.0</ele><time>2026-04-06T11:06:44.687Z</time></trkpt><trkpt lat="43.8537367" lon="12.6307383"><ele>257.0</ele><time>2026-04-06T11:06:46.687Z</time></trkpt><trkpt lat="43.853745" lon="12.6306317"><ele>257.0</ele><time>2026-04-06T11:06:48.686Z</time></trkpt><trkpt lat="43.8537567" lon="12.6305083"><ele>257.0</ele><time>2026-04-06T11:06:50.685Z</time></trkpt><trkpt lat="43.8537633" lon="12.630355"><ele>257.0</ele><time>2026-04-06T11:06:52.688Z</time></trkpt><trkpt lat="43.8537683" lon="12.6302667"><ele>257.0</ele><time>2026-04-06T11:06:53.686Z</time></trkpt><trkpt lat="43.85377" lon="12.6301717"><ele>257.0</ele><time>2026-04-06T11:06:54.687Z</time></trkpt><trkpt lat="43.8537633" lon="12.630065"><ele>257.0</ele><time>2026-04-06T11:06:55.687Z</time></trkpt><trkpt lat="43.853745" lon="12.629935"><ele>257.0</ele><time>2026-04-06T11:06:56.687Z</time></trkpt><trkpt lat="43.8537067" lon="12.6297967"><ele>256.75</ele><time>2026-04-06T11:06:57.687Z</time></trkpt><trkpt lat="43.8536533" lon="12.62965"><ele>256.5</ele><time>2026-04-06T11:06:58.686Z</time></trkpt><trkpt lat="43.8535933" lon="12.6294983"><ele>256.25</ele><time>2026-04-06T11:06:59.687Z</time></trkpt><trkpt lat="43.8535367" lon="12.6293467"><ele>256.0</ele><time>2026-04-06T11:07:00.686Z</time></trkpt><trkpt lat="43.8534833" lon="12.6291917"><ele>257.75</ele><time>2026-04-06T11:07:01.685Z</time></trkpt><trkpt lat="43.853435" lon="12.62903"><ele>259.5</ele><time>2026-04-06T11:07:02.687Z</time></trkpt><trkpt lat="43.8533833" lon="12.6288617"><ele>261.25</ele><time>2026-04-06T11:07:03.687Z</time></trkpt><trkpt lat="43.853325" lon="12.6286917"><ele>263.0</ele><time>2026-04-06T11:07:04.687Z</time></trkpt><trkpt lat="43.8532567" lon="12.6285167"><ele>263.0</ele><time>2026-04-06T11:07:05.687Z</time></trkpt><trkpt lat="43.8531767" lon="12.62834"><ele>263.0</ele><time>2026-04-06T11:07:06.686Z</time></trkpt><trkpt lat="43.8530883" lon="12.62816"><ele>263.0</ele><time>2026-04-06T11:07:07.688Z</time></trkpt><trkpt lat="43.8529967" lon="12.627975"><ele>261.25</ele><time>2026-04-06T11:07:08.683Z</time></trkpt><trkpt lat="43.8529067" lon="12.6277983"><ele>259.5</ele><time>2026-04-06T11:07:09.685Z</time></trkpt><trkpt lat="43.8528167" lon="12.6276367"><ele>257.75</ele><time>2026-04-06T11:07:10.687Z</time></trkpt><trkpt lat="43.85273" lon="12.627475"><ele>256.0</ele><time>2026-04-06T11:07:11.687Z</time></trkpt><trkpt lat="43.8526483" lon="12.6273117"><ele>257.5</ele><time>2026-04-06T11:07:12.686Z</time></trkpt><trkpt lat="43.8525683" lon="12.6271433"><ele>259.0</ele><time>2026-04-06T11:07:13.688Z</time></trkpt><trkpt lat="43.8524983" lon="12.6269717"><ele>260.5</ele><time>2026-04-06T11:07:14.687Z</time></trkpt><trkpt lat="43.8524367" lon="12.6268017"><ele>262.0</ele><time>2026-04-06T11:07:15.687Z</time></trkpt><trkpt lat="43.852385" lon="12.626635"><ele>262.5</ele><time>2026-04-06T11:07:16.687Z</time></trkpt><trkpt lat="43.8523317" lon="12.6264717"><ele>263.0</ele><time>2026-04-06T11:07:17.687Z</time></trkpt><trkpt lat="43.8522717" lon="12.6263117"><ele>263.5</ele><time>2026-04-06T11:07:18.687Z</time></trkpt><trkpt lat="43.852205" lon="12.6261583"><ele>264.0</ele><time>2026-04-06T11:07:19.687Z</time></trkpt><trkpt lat="43.8521333" lon="12.6260117"><ele>264.0</ele><time>2026-04-06T11:07:20.686Z</time></trkpt><trkpt lat="43.8520567" lon="12.6258683"><ele>264.0</ele><time>2026-04-06T11:07:21.687Z</time></trkpt><trkpt lat="43.8519733" lon="12.62573"><ele>264.0</ele><time>2026-04-06T11:07:22.686Z</time></trkpt><trkpt lat="43.8518883" lon="12.625595"><ele>264.0</ele><time>2026-04-06T11:07:23.687Z</time></trkpt><trkpt lat="43.8517967" lon="12.6254633"><ele>263.75</ele><time>2026-04-06T11:07:24.687Z</time></trkpt><trkpt lat="43.8516983" lon="12.6253383"><ele>263.5</ele><time>2026-04-06T11:07:25.687Z</time></trkpt><trkpt lat="43.8515983" lon="12.6252167"><ele>263.25</ele><time>2026-04-06T11:07:26.687Z</time></trkpt><trkpt lat="43.851495" lon="12.6250967"><ele>263.0</ele><time>2026-04-06T11:07:27.684Z</time></trkpt><trkpt lat="43.8513883" lon="12.6249817"><ele>264.25</ele><time>2026-04-06T11:07:28.686Z</time></trkpt><trkpt lat="43.85128" lon="12.624875"><ele>265.5</ele><time>2026-04-06T11:07:29.685Z</time></trkpt><trkpt lat="43.851175" lon="12.62477"><ele>266.75</ele><time>2026-04-06T11:07:30.686Z</time></trkpt><trkpt lat="43.8510767" lon="12.62466"><ele>268.0</ele><time>2026-04-06T11:07:31.687Z</time></trkpt><trkpt lat="43.8509867" lon="12.624545"><ele>270.25</ele><time>2026-04-06T11:07:32.684Z</time></trkpt><trkpt lat="43.850905" lon="12.62442"><ele>272.5</ele><time>2026-04-06T11:07:33.685Z</time></trkpt><trkpt lat="43.8508267" lon="12.6242867"><ele>274.75</ele><time>2026-04-06T11:07:34.687Z</time></trkpt><trkpt lat="43.8507483" lon="12.6241533"><ele>277.0</ele><time>2026-04-06T11:07:35.686Z</time></trkpt><trkpt lat="43.8506717" lon="12.62402"><ele>277.0</ele><time>2026-04-06T11:07:36.687Z</time></trkpt><trkpt lat="43.8505983" lon="12.6238867"><ele>277.0</ele><time>2026-04-06T11:07:37.685Z</time></trkpt><trkpt lat="43.850535" lon="12.62375"><ele>277.0</ele><time>2026-04-06T11:07:38.687Z</time></trkpt><trkpt lat="43.8504917" lon="12.6235967"><ele>277.0</ele><time>2026-04-06T11:07:39.687Z</time></trkpt><trkpt lat="43.8504717" lon="12.6234333"><ele>277.0</ele><time>2026-04-06T11:07:40.687Z</time></trkpt><trkpt lat="43.85046" lon="12.6232617"><ele>277.0</ele><time>2026-04-06T11:07:41.687Z</time></trkpt><trkpt lat="43.8504483" lon="12.6230967"><ele>277.0</ele><time>2026-04-06T11:07:42.687Z</time></trkpt><trkpt lat="43.850435" lon="12.622925"><ele>277.0</ele><time>2026-04-06T11:07:43.689Z</time></trkpt><trkpt lat="43.8504233" lon="12.62275"><ele>277.0</ele><time>2026-04-06T11:07:44.686Z</time></trkpt><trkpt lat="43.8504117" lon="12.622575"><ele>277.0</ele><time>2026-04-06T11:07:45.687Z</time></trkpt><trkpt lat="43.8504" lon="12.6223983"><ele>277.0</ele><time>2026-04-06T11:07:46.686Z</time></trkpt><trkpt lat="43.85039" lon="12.62222"><ele>277.0</ele><time>2026-04-06T11:07:47.687Z</time></trkpt><trkpt lat="43.850385" lon="12.622035"><ele>278.5</ele><time>2026-04-06T11:07:48.687Z</time></trkpt><trkpt lat="43.8503883" lon="12.6218517"><ele>280.0</ele><time>2026-04-06T11:07:49.688Z</time></trkpt><trkpt lat="43.8503983" lon="12.6216683"><ele>281.5</ele><time>2026-04-06T11:07:50.687Z</time></trkpt><trkpt lat="43.8504133" lon="12.6214917"><ele>283.0</ele><time>2026-04-06T11:07:51.687Z</time></trkpt><trkpt lat="43.85043" lon="12.6213183"><ele>284.75</ele><time>2026-04-06T11:07:52.687Z</time></trkpt><trkpt lat="43.850445" lon="12.621145"><ele>286.5</ele><time>2026-04-06T11:07:53.686Z</time></trkpt><trkpt lat="43.8504583" lon="12.6209717"><ele>288.25</ele><time>2026-04-06T11:07:54.686Z</time></trkpt><trkpt lat="43.85047" lon="12.6208133"><ele>290.0</ele><time>2026-04-06T11:07:55.688Z</time></trkpt><trkpt lat="43.8504833" lon="12.62067"><ele>290.0</ele><time>2026-04-06T11:07:56.687Z</time></trkpt><trkpt lat="43.8505" lon="12.620555"><ele>290.0</ele><time>2026-04-06T11:07:57.687Z</time></trkpt><trkpt lat="43.850525" lon="12.6204567"><ele>290.0</ele><time>2026-04-06T11:07:58.686Z</time></trkpt><trkpt lat="43.850555" lon="12.6203733"><ele>290.0</ele><time>2026-04-06T11:07:59.683Z</time></trkpt><trkpt lat="43.8505883" lon="12.6202783"><ele>290.0</ele><time>2026-04-06T11:08:00.685Z</time></trkpt><trkpt lat="43.8506267" lon="12.6201667"><ele>290.0</ele><time>2026-04-06T11:08:01.686Z</time></trkpt><trkpt lat="43.850675" lon="12.6200383"><ele>290.2</ele><time>2026-04-06T11:08:02.684Z</time></trkpt><trkpt lat="43.8507333" lon="12.6199067"><ele>290.4</ele><time>2026-04-06T11:08:03.687Z</time></trkpt><trkpt lat="43.850795" lon="12.6197767"><ele>290.6</ele><time>2026-04-06T11:08:04.686Z</time></trkpt><trkpt lat="43.85086" lon="12.61965"><ele>290.8</ele><time>2026-04-06T11:08:05.686Z</time></trkpt><trkpt lat="43.8509233" lon="12.6195317"><ele>291.0</ele><time>2026-04-06T11:08:06.687Z</time></trkpt><trkpt lat="43.851" lon="12.61942"><ele>289.0</ele><time>2026-04-06T11:08:07.688Z</time></trkpt><trkpt lat="43.8510883" lon="12.619335"><ele>287.0</ele><time>2026-04-06T11:08:08.687Z</time></trkpt><trkpt lat="43.8511933" lon="12.6192783"><ele>285.0</ele><time>2026-04-06T11:08:09.686Z</time></trkpt><trkpt lat="43.8513167" lon="12.6192433"><ele>283.0</ele><time>2026-04-06T11:08:10.687Z</time></trkpt><trkpt lat="43.85145" lon="12.6192167"><ele>283.0</ele><time>2026-04-06T11:08:11.687Z</time></trkpt><trkpt lat="43.8515917" lon="12.6192"><ele>283.0</ele><time>2026-04-06T11:08:12.686Z</time></trkpt><trkpt lat="43.8517283" lon="12.6191867"><ele>283.0</ele><time>2026-04-06T11:08:13.688Z</time></trkpt><trkpt lat="43.85186" lon="12.61917"><ele>283.0</ele><time>2026-04-06T11:08:14.686Z</time></trkpt><trkpt lat="43.8519883" lon="12.619145"><ele>282.0</ele><time>2026-04-06T11:08:15.686Z</time></trkpt><trkpt lat="43.8521133" lon="12.6191067"><ele>281.0</ele><time>2026-04-06T11:08:16.687Z</time></trkpt><trkpt lat="43.8522383" lon="12.6190533"><ele>280.0</ele><time>2026-04-06T11:08:17.687Z</time></trkpt><trkpt lat="43.8523617" lon="12.618995"><ele>279.0</ele><time>2026-04-06T11:08:18.687Z</time></trkpt><trkpt lat="43.8524867" lon="12.6189383"><ele>279.0</ele><time>2026-04-06T11:08:19.687Z</time></trkpt><trkpt lat="43.85261" lon="12.61888"><ele>279.0</ele><time>2026-04-06T11:08:20.687Z</time></trkpt><trkpt lat="43.852735" lon="12.618825"><ele>279.0</ele><time>2026-04-06T11:08:21.687Z</time></trkpt><trkpt lat="43.85286" lon="12.6187733"><ele>279.0</ele><time>2026-04-06T11:08:22.686Z</time></trkpt><trkpt lat="43.8529867" lon="12.6187167"><ele>277.5</ele><time>2026-04-06T11:08:23.685Z</time></trkpt><trkpt lat="43.8531083" lon="12.618655"><ele>276.0</ele><time>2026-04-06T11:08:24.686Z</time></trkpt><trkpt lat="43.85322" lon="12.618595"><ele>274.5</ele><time>2026-04-06T11:08:25.687Z</time></trkpt><trkpt lat="43.8533217" lon="12.6185317"><ele>273.0</ele><time>2026-04-06T11:08:26.685Z</time></trkpt><trkpt lat="43.8534217" lon="12.618465"><ele>274.0</ele><time>2026-04-06T11:08:27.685Z</time></trkpt><trkpt lat="43.853525" lon="12.6184083"><ele>275.0</ele><time>2026-04-06T11:08:28.685Z</time></trkpt><trkpt lat="43.8536333" lon="12.6183633"><ele>276.0</ele><time>2026-04-06T11:08:29.687Z</time></trkpt><trkpt lat="43.85375" lon="12.6183333"><ele>277.0</ele><time>2026-04-06T11:08:30.685Z</time></trkpt><trkpt lat="43.8538767" lon="12.6183117"><ele>277.0</ele><time>2026-04-06T11:08:31.688Z</time></trkpt><trkpt lat="43.854005" lon="12.618295"><ele>277.0</ele><time>2026-04-06T11:08:32.685Z</time></trkpt><trkpt lat="43.8541317" lon="12.61828"><ele>277.0</ele><time>2026-04-06T11:08:33.686Z</time></trkpt><trkpt lat="43.85425" lon="12.6182617"><ele>277.0</ele><time>2026-04-06T11:08:34.686Z</time></trkpt><trkpt lat="43.8543667" lon="12.61824"><ele>275.25</ele><time>2026-04-06T11:08:35.686Z</time></trkpt><trkpt lat="43.8544833" lon="12.6182167"><ele>273.5</ele><time>2026-04-06T11:08:36.686Z</time></trkpt><trkpt lat="43.8546" lon="12.618195"><ele>271.75</ele><time>2026-04-06T11:08:37.688Z</time></trkpt><trkpt lat="43.8547133" lon="12.6181783"><ele>270.0</ele><time>2026-04-06T11:08:38.689Z</time></trkpt><trkpt lat="43.85482" lon="12.6181617"><ele>270.0</ele><time>2026-04-06T11:08:39.685Z</time></trkpt><trkpt lat="43.8549233" lon="12.6181433"><ele>270.0</ele><time>2026-04-06T11:08:40.687Z</time></trkpt><trkpt lat="43.855025" lon="12.6181233"><ele>270.0</ele><time>2026-04-06T11:08:41.686Z</time></trkpt><trkpt lat="43.8551167" lon="12.6181067"><ele>270.0</ele><time>2026-04-06T11:08:42.685Z</time></trkpt><trkpt lat="43.8551983" lon="12.61809"><ele>270.0</ele><time>2026-04-06T11:08:43.688Z</time></trkpt><trkpt lat="43.85527" lon="12.6180683"><ele>268.8</ele><time>2026-04-06T11:08:44.686Z</time></trkpt><trkpt lat="43.85534" lon="12.6180467"><ele>267.6</ele><time>2026-04-06T11:08:45.686Z</time></trkpt><trkpt lat="43.8554233" lon="12.6180267"><ele>266.4</ele><time>2026-04-06T11:08:46.686Z</time></trkpt><trkpt lat="43.8555233" lon="12.6180083"><ele>265.2</ele><time>2026-04-06T11:08:47.686Z</time></trkpt><trkpt lat="43.85563" lon="12.61799"><ele>264.0</ele><time>2026-04-06T11:08:48.686Z</time></trkpt><trkpt lat="43.8557433" lon="12.61797"><ele>264.0</ele><time>2026-04-06T11:08:49.689Z</time></trkpt><trkpt lat="43.85586" lon="12.6179567"><ele>264.0</ele><time>2026-04-06T11:08:50.686Z</time></trkpt><trkpt lat="43.8559817" lon="12.6179517"><ele>264.0</ele><time>2026-04-06T11:08:51.685Z</time></trkpt><trkpt lat="43.8561067" lon="12.6179667"><ele>264.0</ele><time>2026-04-06T11:08:52.686Z</time></trkpt><trkpt lat="43.8562267" lon="12.617995"><ele>264.25</ele><time>2026-04-06T11:08:53.686Z</time></trkpt><trkpt lat="43.8563483" lon="12.6180333"><ele>264.5</ele><time>2026-04-06T11:08:54.687Z</time></trkpt><trkpt lat="43.8564767" lon="12.6180667"><ele>264.75</ele><time>2026-04-06T11:08:55.688Z</time></trkpt><trkpt lat="43.8566117" lon="12.6180883"><ele>265.0</ele><time>2026-04-06T11:08:56.685Z</time></trkpt><trkpt lat="43.8567467" lon="12.6181"><ele>266.5</ele><time>2026-04-06T11:08:57.685Z</time></trkpt><trkpt lat="43.8568783" lon="12.6181083"><ele>268.0</ele><time>2026-04-06T11:08:58.686Z</time></trkpt><trkpt lat="43.8570133" lon="12.618115"><ele>269.5</ele><time>2026-04-06T11:08:59.686Z</time></trkpt><trkpt lat="43.857145" lon="12.6181233"><ele>271.0</ele><time>2026-04-06T11:09:00.686Z</time></trkpt><trkpt lat="43.8572633" lon="12.6181317"><ele>271.0</ele><time>2026-04-06T11:09:01.688Z</time></trkpt><trkpt lat="43.8573617" lon="12.618135"><ele>271.0</ele><time>2026-04-06T11:09:02.684Z</time></trkpt><trkpt lat="43.85744" lon="12.618135"><ele>271.0</ele><time>2026-04-06T11:09:03.684Z</time></trkpt><trkpt lat="43.8575267" lon="12.6181383"><ele>271.0</ele><time>2026-04-06T11:09:05.687Z</time></trkpt><trkpt lat="43.857635" lon="12.6181283"><ele>271.0</ele><time>2026-04-06T11:09:08.683Z</time></trkpt><trkpt lat="43.8577567" lon="12.618115"><ele>273.0</ele><time>2026-04-06T11:09:10.686Z</time></trkpt><trkpt lat="43.857855" lon="12.618105"><ele>275.0</ele><time>2026-04-06T11:09:12.686Z</time></trkpt><trkpt lat="43.85793" lon="12.6181017"><ele>277.0</ele><time>2026-04-06T11:09:31.688Z</time></trkpt><trkpt lat="43.8580683" lon="12.61808"><ele>279.0</ele><time>2026-04-06T11:09:33.686Z</time></trkpt><trkpt lat="43.8581483" lon="12.6180667"><ele>281.0</ele><time>2026-04-06T11:09:34.686Z</time></trkpt><trkpt lat="43.85824" lon="12.6180517"><ele>281.0</ele><time>2026-04-06T11:09:35.685Z</time></trkpt><trkpt lat="43.85833" lon="12.6180383"><ele>281.0</ele><time>2026-04-06T11:09:36.685Z</time></trkpt><trkpt lat="43.85843" lon="12.6180217"><ele>281.0</ele><time>2026-04-06T11:09:37.688Z</time></trkpt><trkpt lat="43.8585217" lon="12.6180117"><ele>281.0</ele><time>2026-04-06T11:09:38.685Z</time></trkpt><trkpt lat="43.8586033" lon="12.618"><ele>281.0</ele><time>2026-04-06T11:09:39.687Z</time></trkpt><trkpt lat="43.8586783" lon="12.6179917"><ele>281.0</ele><time>2026-04-06T11:09:40.685Z</time></trkpt><trkpt lat="43.8587467" lon="12.6179883"><ele>280.83333333333337</ele><time>2026-04-06T11:09:41.682Z</time></trkpt><trkpt lat="43.8588533" lon="12.618005"><ele>280.6666666666667</ele><time>2026-04-06T11:09:43.688Z</time></trkpt><trkpt lat="43.8589333" lon="12.6180833"><ele>280.5</ele><time>2026-04-06T11:09:45.686Z</time></trkpt><trkpt lat="43.8590033" lon="12.6182"><ele>280.3333333333333</ele><time>2026-04-06T11:09:47.685Z</time></trkpt><trkpt lat="43.8590417" lon="12.6182733"><ele>280.16666666666663</ele><time>2026-04-06T11:09:48.684Z</time></trkpt><trkpt lat="43.859075" lon="12.6183533"><ele>280.0</ele><time>2026-04-06T11:09:49.686Z</time></trkpt><trkpt lat="43.85911" lon="12.6184383"><ele>280.0</ele><time>2026-04-06T11:09:50.686Z</time></trkpt><trkpt lat="43.8591433" lon="12.618525"><ele>280.0</ele><time>2026-04-06T11:09:51.685Z</time></trkpt><trkpt lat="43.8591767" lon="12.618605"><ele>280.0</ele><time>2026-04-06T11:09:52.686Z</time></trkpt><trkpt lat="43.8592083" lon="12.618685"><ele>280.0</ele><time>2026-04-06T11:09:53.685Z</time></trkpt><trkpt lat="43.8592433" lon="12.6187583"><ele>280.0</ele><time>2026-04-06T11:09:54.684Z</time></trkpt><trkpt lat="43.85933" lon="12.618875"><ele>280.0</ele><time>2026-04-06T11:09:56.684Z</time></trkpt><trkpt lat="43.8593883" lon="12.6189117"><ele>278.2857142857143</ele><time>2026-04-06T11:09:57.684Z</time></trkpt><trkpt lat="43.8594517" lon="12.6189467"><ele>276.57142857142856</ele><time>2026-04-06T11:09:58.686Z</time></trkpt><trkpt lat="43.85953" lon="12.618965"><ele>274.8571428571429</ele><time>2026-04-06T11:09:59.687Z</time></trkpt><trkpt lat="43.8596017" lon="12.6189767"><ele>273.1428571428571</ele><time>2026-04-06T11:10:00.684Z</time></trkpt><trkpt lat="43.8596733" lon="12.6189933"><ele>271.42857142857144</ele><time>2026-04-06T11:10:01.686Z</time></trkpt><trkpt lat="43.859745" lon="12.6190117"><ele>269.7142857142857</ele><time>2026-04-06T11:10:02.685Z</time></trkpt><trkpt lat="43.8598183" lon="12.619035"><ele>268.0</ele><time>2026-04-06T11:10:03.685Z</time></trkpt><trkpt lat="43.859895" lon="12.61906"><ele>268.0</ele><time>2026-04-06T11:10:04.686Z</time></trkpt><trkpt lat="43.8599733" lon="12.6190817"><ele>268.0</ele><time>2026-04-06T11:10:05.684Z</time></trkpt><trkpt lat="43.86005" lon="12.6191033"><ele>268.0</ele><time>2026-04-06T11:10:06.684Z</time></trkpt><trkpt lat="43.8601217" lon="12.6191267"><ele>268.0</ele><time>2026-04-06T11:10:07.685Z</time></trkpt><trkpt lat="43.8601917" lon="12.6191467"><ele>268.0</ele><time>2026-04-06T11:10:08.685Z</time></trkpt><trkpt lat="43.86026" lon="12.6191667"><ele>268.0</ele><time>2026-04-06T11:10:09.685Z</time></trkpt><trkpt lat="43.8603267" lon="12.6191917"><ele>268.0</ele><time>2026-04-06T11:10:10.686Z</time></trkpt><trkpt lat="43.860395" lon="12.6192133"><ele>267.0</ele><time>2026-04-06T11:10:11.685Z</time></trkpt><trkpt lat="43.86046" lon="12.61923"><ele>266.0</ele><time>2026-04-06T11:10:12.685Z</time></trkpt><trkpt lat="43.8605267" lon="12.6192483"><ele>265.0</ele><time>2026-04-06T11:10:13.687Z</time></trkpt><trkpt lat="43.8606017" lon="12.6192683"><ele>264.0</ele><time>2026-04-06T11:10:14.685Z</time></trkpt><trkpt lat="43.8606817" lon="12.61929"><ele>263.0</ele><time>2026-04-06T11:10:15.685Z</time></trkpt><trkpt lat="43.860755" lon="12.6193083"><ele>262.0</ele><time>2026-04-06T11:10:16.685Z</time></trkpt><trkpt lat="43.860875" lon="12.619335"><ele>259.0</ele><time>2026-04-06T11:10:18.685Z</time></trkpt><trkpt lat="43.861005" lon="12.6193767"><ele>256.0</ele><time>2026-04-06T11:10:20.686Z</time></trkpt><trkpt lat="43.8610767" lon="12.61941"><ele>253.0</ele><time>2026-04-06T11:10:21.685Z</time></trkpt><trkpt lat="43.8611567" lon="12.6194417"><ele>250.0</ele><time>2026-04-06T11:10:22.685Z</time></trkpt><trkpt lat="43.8612383" lon="12.619475"><ele>247.0</ele><time>2026-04-06T11:10:23.688Z</time></trkpt><trkpt lat="43.8613133" lon="12.61952"><ele>246.83333333333331</ele><time>2026-04-06T11:10:24.685Z</time></trkpt><trkpt lat="43.8613917" lon="12.6195633"><ele>246.66666666666666</ele><time>2026-04-06T11:10:25.688Z</time></trkpt><trkpt lat="43.8614667" lon="12.6196067"><ele>246.5</ele><time>2026-04-06T11:10:26.685Z</time></trkpt><trkpt lat="43.8615383" lon="12.619645"><ele>246.33333333333331</ele><time>2026-04-06T11:10:27.683Z</time></trkpt><trkpt lat="43.8616083" lon="12.6196817"><ele>246.16666666666666</ele><time>2026-04-06T11:10:28.685Z</time></trkpt><trkpt lat="43.8616767" lon="12.6197183"><ele>246.0</ele><time>2026-04-06T11:10:29.686Z</time></trkpt><trkpt lat="43.8617417" lon="12.6197517"><ele>243.83333333333334</ele><time>2026-04-06T11:10:30.691Z</time></trkpt><trkpt lat="43.86181" lon="12.6197817"><ele>241.66666666666669</ele><time>2026-04-06T11:10:31.686Z</time></trkpt><trkpt lat="43.8618733" lon="12.6198183"><ele>239.5</ele><time>2026-04-06T11:10:32.686Z</time></trkpt><trkpt lat="43.8619317" lon="12.619855"><ele>237.33333333333334</ele><time>2026-04-06T11:10:33.685Z</time></trkpt><trkpt lat="43.862045" lon="12.619925"><ele>235.16666666666669</ele><time>2026-04-06T11:10:35.687Z</time></trkpt><trkpt lat="43.862105" lon="12.6199617"><ele>233.0</ele><time>2026-04-06T11:10:36.685Z</time></trkpt><trkpt lat="43.8621683" lon="12.6200017"><ele>233.0</ele><time>2026-04-06T11:10:37.688Z</time></trkpt><trkpt lat="43.862235" lon="12.6200417"><ele>233.0</ele><time>2026-04-06T11:10:38.686Z</time></trkpt><trkpt lat="43.8622967" lon="12.62008"><ele>233.0</ele><time>2026-04-06T11:10:39.687Z</time></trkpt><trkpt lat="43.8623617" lon="12.6201183"><ele>233.0</ele><time>2026-04-06T11:10:40.685Z</time></trkpt><trkpt lat="43.8624283" lon="12.6201567"><ele>233.0</ele><time>2026-04-06T11:10:41.685Z</time></trkpt><trkpt lat="43.8624967" lon="12.6201967"><ele>233.0</ele><time>2026-04-06T11:10:42.686Z</time></trkpt><trkpt lat="43.8625617" lon="12.6202383"><ele>233.0</ele><time>2026-04-06T11:10:43.688Z</time></trkpt><trkpt lat="43.8626283" lon="12.620285"><ele>231.00000000000003</ele><time>2026-04-06T11:10:44.687Z</time></trkpt><trkpt lat="43.8626983" lon="12.6203267"><ele>229.0</ele><time>2026-04-06T11:10:45.687Z</time></trkpt><trkpt lat="43.86277" lon="12.6203667"><ele>227.0</ele><time>2026-04-06T11:10:46.688Z</time></trkpt><trkpt lat="43.8628383" lon="12.6204067"><ele>225.0</ele><time>2026-04-06T11:10:47.686Z</time></trkpt><trkpt lat="43.86291" lon="12.6204483"><ele>223.00000000000003</ele><time>2026-04-06T11:10:48.688Z</time></trkpt><trkpt lat="43.86298" lon="12.6204883"><ele>221.0</ele><time>2026-04-06T11:10:49.686Z</time></trkpt><trkpt lat="43.863045" lon="12.6205333"><ele>221.0</ele><time>2026-04-06T11:10:50.683Z</time></trkpt><trkpt lat="43.8631017" lon="12.620585"><ele>221.00000000000003</ele><time>2026-04-06T11:10:51.684Z</time></trkpt><trkpt lat="43.8631783" lon="12.62071"><ele>221.00000000000003</ele><time>2026-04-06T11:10:53.688Z</time></trkpt><trkpt lat="43.8632567" lon="12.62083"><ele>221.0</ele><time>2026-04-06T11:10:55.688Z</time></trkpt><trkpt lat="43.8633417" lon="12.6209533"><ele>221.0</ele><time>2026-04-06T11:10:57.685Z</time></trkpt><trkpt lat="43.8634483" lon="12.62106"><ele>218.71428571428572</ele><time>2026-04-06T11:10:59.688Z</time></trkpt><trkpt lat="43.8635067" lon="12.62112"><ele>216.42857142857144</ele><time>2026-04-06T11:11:00.686Z</time></trkpt><trkpt lat="43.86356" lon="12.62118"><ele>214.14285714285717</ele><time>2026-04-06T11:11:01.688Z</time></trkpt><trkpt lat="43.8636133" lon="12.6212383"><ele>211.85714285714286</ele><time>2026-04-06T11:11:02.683Z</time></trkpt><trkpt lat="43.8636667" lon="12.6212967"><ele>209.57142857142856</ele><time>2026-04-06T11:11:03.687Z</time></trkpt><trkpt lat="43.8637233" lon="12.6213567"><ele>207.2857142857143</ele><time>2026-04-06T11:11:04.687Z</time></trkpt><trkpt lat="43.8637767" lon="12.6214167"><ele>205.0</ele><time>2026-04-06T11:11:05.686Z</time></trkpt><trkpt lat="43.8638367" lon="12.6214783"><ele>205.0</ele><time>2026-04-06T11:11:06.687Z</time></trkpt><trkpt lat="43.8638983" lon="12.621545"><ele>205.0</ele><time>2026-04-06T11:11:07.688Z</time></trkpt><trkpt lat="43.8639533" lon="12.6216067"><ele>205.0</ele><time>2026-04-06T11:11:08.685Z</time></trkpt><trkpt lat="43.8640067" lon="12.6216683"><ele>205.0</ele><time>2026-04-06T11:11:09.684Z</time></trkpt><trkpt lat="43.864065" lon="12.6217317"><ele>205.0</ele><time>2026-04-06T11:11:10.686Z</time></trkpt><trkpt lat="43.8641217" lon="12.6217917"><ele>205.0</ele><time>2026-04-06T11:11:11.687Z</time></trkpt><trkpt lat="43.8641733" lon="12.621855"><ele>205.0</ele><time>2026-04-06T11:11:12.685Z</time></trkpt><trkpt lat="43.8642133" lon="12.62193"><ele>204.14285714285714</ele><time>2026-04-06T11:11:13.687Z</time></trkpt><trkpt lat="43.8642467" lon="12.622015"><ele>203.28571428571428</ele><time>2026-04-06T11:11:14.686Z</time></trkpt><trkpt lat="43.8642733" lon="12.622105"><ele>202.42857142857142</ele><time>2026-04-06T11:11:15.687Z</time></trkpt><trkpt lat="43.864295" lon="12.6222"><ele>201.57142857142856</ele><time>2026-04-06T11:11:16.685Z</time></trkpt><trkpt lat="43.864315" lon="12.6223"><ele>200.71428571428572</ele><time>2026-04-06T11:11:17.685Z</time></trkpt><trkpt lat="43.8643333" lon="12.6224"><ele>199.85714285714283</ele><time>2026-04-06T11:11:18.685Z</time></trkpt><trkpt lat="43.8643483" lon="12.6225017"><ele>199.0</ele><time>2026-04-06T11:11:19.686Z</time></trkpt><trkpt lat="43.86437" lon="12.622605"><ele>198.66666666666666</ele><time>2026-04-06T11:11:20.684Z</time></trkpt><trkpt lat="43.8644017" lon="12.6227067"><ele>198.33333333333331</ele><time>2026-04-06T11:11:21.685Z</time></trkpt><trkpt lat="43.86444" lon="12.62281"><ele>198.0</ele><time>2026-04-06T11:11:22.685Z</time></trkpt><trkpt lat="43.8644783" lon="12.62291"><ele>197.66666666666669</ele><time>2026-04-06T11:11:23.688Z</time></trkpt><trkpt lat="43.8645167" lon="12.622995"><ele>197.33333333333334</ele><time>2026-04-06T11:11:24.686Z</time></trkpt><trkpt lat="43.8645583" lon="12.623075"><ele>197.0</ele><time>2026-04-06T11:11:25.688Z</time></trkpt><trkpt lat="43.8645983" lon="12.62315"><ele>197.00000000000003</ele><time>2026-04-06T11:11:26.687Z</time></trkpt><trkpt lat="43.864635" lon="12.6232217"><ele>197.0</ele><time>2026-04-06T11:11:27.687Z</time></trkpt><trkpt lat="43.8647067" lon="12.623365"><ele>197.0</ele><time>2026-04-06T11:11:29.685Z</time></trkpt><trkpt lat="43.864745" lon="12.6234467"><ele>197.0</ele><time>2026-04-06T11:11:30.687Z</time></trkpt><trkpt lat="43.8647817" lon="12.6235283"><ele>197.00000000000003</ele><time>2026-04-06T11:11:31.688Z</time></trkpt><trkpt lat="43.86482" lon="12.623605"><ele>197.0</ele><time>2026-04-06T11:11:32.686Z</time></trkpt><trkpt lat="43.8648783" lon="12.62374"><ele>196.39999999999998</ele><time>2026-04-06T11:11:34.686Z</time></trkpt><trkpt lat="43.8648983" lon="12.6238717"><ele>195.79999999999998</ele><time>2026-04-06T11:11:36.687Z</time></trkpt><trkpt lat="43.8648967" lon="12.623985"><ele>195.2</ele><time>2026-04-06T11:11:38.685Z</time></trkpt><trkpt lat="43.8649417" lon="12.6240983"><ele>194.6</ele><time>2026-04-06T11:11:40.69Z</time></trkpt><trkpt lat="43.8650217" lon="12.62422"><ele>194.0</ele><time>2026-04-06T11:11:42.687Z</time></trkpt><trkpt lat="43.8650667" lon="12.62429"><ele>193.2</ele><time>2026-04-06T11:11:43.688Z</time></trkpt><trkpt lat="43.8651183" lon="12.62437"><ele>192.39999999999998</ele><time>2026-04-06T11:11:44.686Z</time></trkpt><trkpt lat="43.8651733" lon="12.6244617"><ele>191.6</ele><time>2026-04-06T11:11:45.687Z</time></trkpt><trkpt lat="43.86523" lon="12.6245633"><ele>190.8</ele><time>2026-04-06T11:11:46.687Z</time></trkpt><trkpt lat="43.8652867" lon="12.6246717"><ele>190.0</ele><time>2026-04-06T11:11:47.687Z</time></trkpt><trkpt lat="43.865345" lon="12.6247833"><ele>190.66666666666669</ele><time>2026-04-06T11:11:48.687Z</time></trkpt><trkpt lat="43.8654033" lon="12.6248983"><ele>191.33333333333334</ele><time>2026-04-06T11:11:49.688Z</time></trkpt><trkpt lat="43.865455" lon="12.6250133"><ele>192.0</ele><time>2026-04-06T11:11:50.686Z</time></trkpt><trkpt lat="43.8655067" lon="12.6251117"><ele>192.66666666666669</ele><time>2026-04-06T11:11:51.686Z</time></trkpt><trkpt lat="43.8655617" lon="12.625195"><ele>193.33333333333334</ele><time>2026-04-06T11:11:52.688Z</time></trkpt><trkpt lat="43.865615" lon="12.6252633"><ele>194.0</ele><time>2026-04-06T11:11:53.686Z</time></trkpt><trkpt lat="43.8656883" lon="12.6253583"><ele>194.0</ele><time>2026-04-06T11:11:55.687Z</time></trkpt><trkpt lat="43.8657367" lon="12.6254167"><ele>194.0</ele><time>2026-04-06T11:11:58.686Z</time></trkpt><trkpt lat="43.8656683" lon="12.6253283"><ele>194.0</ele><time>2026-04-06T11:12:57.685Z</time></trkpt><trkpt lat="43.86558" lon="12.625245"><ele>194.0</ele><time>2026-04-06T11:12:59.685Z</time></trkpt><trkpt lat="43.8655033" lon="12.6251383"><ele>194.0</ele><time>2026-04-06T11:13:01.687Z</time></trkpt><trkpt lat="43.86544" lon="12.6249933"><ele>194.66666666666669</ele><time>2026-04-06T11:13:03.685Z</time></trkpt><trkpt lat="43.8653983" lon="12.6249033"><ele>195.33333333333334</ele><time>2026-04-06T11:13:04.685Z</time></trkpt><trkpt lat="43.86535" lon="12.624805"><ele>196.0</ele><time>2026-04-06T11:13:05.689Z</time></trkpt><trkpt lat="43.8652983" lon="12.624705"><ele>196.66666666666669</ele><time>2026-04-06T11:13:06.685Z</time></trkpt><trkpt lat="43.865245" lon="12.6246"><ele>197.33333333333334</ele><time>2026-04-06T11:13:07.687Z</time></trkpt><trkpt lat="43.8651883" lon="12.624495"><ele>198.0</ele><time>2026-04-06T11:13:08.687Z</time></trkpt><trkpt lat="43.8651333" lon="12.6244017"><ele>197.33333333333334</ele><time>2026-04-06T11:13:09.687Z</time></trkpt><trkpt lat="43.8650783" lon="12.6243183"><ele>196.66666666666669</ele><time>2026-04-06T11:13:10.687Z</time></trkpt><trkpt lat="43.8650183" lon="12.624235"><ele>196.0</ele><time>2026-04-06T11:13:11.686Z</time></trkpt><trkpt lat="43.8649617" lon="12.6241517"><ele>195.33333333333334</ele><time>2026-04-06T11:13:12.687Z</time></trkpt><trkpt lat="43.8649117" lon="12.624075"><ele>194.66666666666669</ele><time>2026-04-06T11:13:13.687Z</time></trkpt><trkpt lat="43.86487" lon="12.6239333"><ele>194.0</ele><time>2026-04-06T11:13:15.687Z</time></trkpt><trkpt lat="43.8648533" lon="12.623755"><ele>194.00000000000003</ele><time>2026-04-06T11:13:17.683Z</time></trkpt><trkpt lat="43.8648283" lon="12.6236617"><ele>194.0</ele><time>2026-04-06T11:13:18.685Z</time></trkpt><trkpt lat="43.8647867" lon="12.6235633"><ele>194.0</ele><time>2026-04-06T11:13:19.687Z</time></trkpt><trkpt lat="43.8647367" lon="12.6234567"><ele>194.0</ele><time>2026-04-06T11:13:20.684Z</time></trkpt><trkpt lat="43.8646867" lon="12.6233417"><ele>194.00000000000003</ele><time>2026-04-06T11:13:21.685Z</time></trkpt><trkpt lat="43.86463" lon="12.6232267"><ele>194.0</ele><time>2026-04-06T11:13:22.687Z</time></trkpt><trkpt lat="43.86457" lon="12.6231133"><ele>194.6</ele><time>2026-04-06T11:13:23.685Z</time></trkpt><trkpt lat="43.86451" lon="12.623"><ele>195.2</ele><time>2026-04-06T11:13:24.686Z</time></trkpt><trkpt lat="43.86446" lon="12.6228817"><ele>195.79999999999998</ele><time>2026-04-06T11:13:25.689Z</time></trkpt><trkpt lat="43.864405" lon="12.6227633"><ele>196.39999999999998</ele><time>2026-04-06T11:13:26.687Z</time></trkpt><trkpt lat="43.8643617" lon="12.6226367"><ele>197.0</ele><time>2026-04-06T11:13:27.684Z</time></trkpt><trkpt lat="43.8643283" lon="12.6225117"><ele>197.39999999999998</ele><time>2026-04-06T11:13:28.687Z</time></trkpt><trkpt lat="43.8643133" lon="12.6223867"><ele>197.79999999999998</ele><time>2026-04-06T11:13:29.691Z</time></trkpt><trkpt lat="43.8643017" lon="12.62226"><ele>198.2</ele><time>2026-04-06T11:13:30.687Z</time></trkpt><trkpt lat="43.86428" lon="12.6221367"><ele>198.6</ele><time>2026-04-06T11:13:31.687Z</time></trkpt><trkpt lat="43.8642433" lon="12.6220217"><ele>199.0</ele><time>2026-04-06T11:13:32.687Z</time></trkpt><trkpt lat="43.8642017" lon="12.6219183"><ele>199.99999999999997</ele><time>2026-04-06T11:13:33.686Z</time></trkpt><trkpt lat="43.8641583" lon="12.6218333"><ele>201.0</ele><time>2026-04-06T11:13:34.685Z</time></trkpt><trkpt lat="43.864105" lon="12.6217633"><ele>202.0</ele><time>2026-04-06T11:13:35.686Z</time></trkpt><trkpt lat="43.8640383" lon="12.6217017"><ele>203.0</ele><time>2026-04-06T11:13:36.686Z</time></trkpt><trkpt lat="43.86397" lon="12.621635"><ele>203.99999999999997</ele><time>2026-04-06T11:13:37.688Z</time></trkpt><trkpt lat="43.8638983" lon="12.62156"><ele>205.0</ele><time>2026-04-06T11:13:38.683Z</time></trkpt><trkpt lat="43.8638283" lon="12.62148"><ele>204.99999999999997</ele><time>2026-04-06T11:13:39.683Z</time></trkpt><trkpt lat="43.8637617" lon="12.6214017"><ele>205.0</ele><time>2026-04-06T11:13:40.686Z</time></trkpt><trkpt lat="43.8636917" lon="12.6213233"><ele>205.0</ele><time>2026-04-06T11:13:41.685Z</time></trkpt><trkpt lat="43.863625" lon="12.6212467"><ele>205.0</ele><time>2026-04-06T11:13:42.686Z</time></trkpt><trkpt lat="43.86356" lon="12.621175"><ele>204.99999999999997</ele><time>2026-04-06T11:13:43.685Z</time></trkpt><trkpt lat="43.8634983" lon="12.62111"><ele>205.0</ele><time>2026-04-06T11:13:44.686Z</time></trkpt><trkpt lat="43.8634333" lon="12.6210433"><ele>207.66666666666666</ele><time>2026-04-06T11:13:45.686Z</time></trkpt><trkpt lat="43.863365" lon="12.6209717"><ele>210.33333333333331</ele><time>2026-04-06T11:13:46.685Z</time></trkpt><trkpt lat="43.8632967" lon="12.620895"><ele>213.0</ele><time>2026-04-06T11:13:47.686Z</time></trkpt><trkpt lat="43.8632333" lon="12.6208183"><ele>215.66666666666669</ele><time>2026-04-06T11:13:48.686Z</time></trkpt><trkpt lat="43.8631783" lon="12.6207383"><ele>218.33333333333334</ele><time>2026-04-06T11:13:49.687Z</time></trkpt><trkpt lat="43.8631333" lon="12.6206517"><ele>221.0</ele><time>2026-04-06T11:13:50.686Z</time></trkpt><trkpt lat="43.8630883" lon="12.6205733"><ele>221.00000000000003</ele><time>2026-04-06T11:13:51.684Z</time></trkpt><trkpt lat="43.8630367" lon="12.6205"><ele>221.0</ele><time>2026-04-06T11:13:52.685Z</time></trkpt><trkpt lat="43.8629633" lon="12.62045"><ele>221.0</ele><time>2026-04-06T11:13:53.687Z</time></trkpt><trkpt lat="43.8628733" lon="12.6204083"><ele>221.0</ele><time>2026-04-06T11:13:54.686Z</time></trkpt><trkpt lat="43.8627883" lon="12.62036"><ele>221.00000000000003</ele><time>2026-04-06T11:13:55.686Z</time></trkpt><trkpt lat="43.8627083" lon="12.6203083"><ele>221.0</ele><time>2026-04-06T11:13:56.685Z</time></trkpt><trkpt lat="43.8626267" lon="12.6202567"><ele>223.4</ele><time>2026-04-06T11:13:57.684Z</time></trkpt><trkpt lat="43.8625433" lon="12.6202067"><ele>225.8</ele><time>2026-04-06T11:13:58.683Z</time></trkpt><trkpt lat="43.8624583" lon="12.6201533"><ele>228.20000000000002</ele><time>2026-04-06T11:13:59.683Z</time></trkpt><trkpt lat="43.8623767" lon="12.6201033"><ele>230.60000000000002</ele><time>2026-04-06T11:14:00.685Z</time></trkpt><trkpt lat="43.8622917" lon="12.62005"><ele>233.0</ele><time>2026-04-06T11:14:01.686Z</time></trkpt><trkpt lat="43.862205" lon="12.6199967"><ele>233.0</ele><time>2026-04-06T11:14:02.683Z</time></trkpt><trkpt lat="43.8621133" lon="12.619945"><ele>233.0</ele><time>2026-04-06T11:14:03.684Z</time></trkpt><trkpt lat="43.8620233" lon="12.6198917"><ele>233.0</ele><time>2026-04-06T11:14:04.686Z</time></trkpt><trkpt lat="43.8619383" lon="12.61984"><ele>233.0</ele><time>2026-04-06T11:14:05.685Z</time></trkpt><trkpt lat="43.86185" lon="12.61979"><ele>233.0</ele><time>2026-04-06T11:14:06.685Z</time></trkpt><trkpt lat="43.8617617" lon="12.6197367"><ele>235.60000000000002</ele><time>2026-04-06T11:14:07.687Z</time></trkpt><trkpt lat="43.8616683" lon="12.6196833"><ele>238.20000000000002</ele><time>2026-04-06T11:14:08.684Z</time></trkpt><trkpt lat="43.8615683" lon="12.6196283"><ele>240.8</ele><time>2026-04-06T11:14:09.684Z</time></trkpt><trkpt lat="43.8614667" lon="12.6195717"><ele>243.4</ele><time>2026-04-06T11:14:10.685Z</time></trkpt><trkpt lat="43.8613667" lon="12.6195167"><ele>246.0</ele><time>2026-04-06T11:14:11.685Z</time></trkpt><trkpt lat="43.8612683" lon="12.6194617"><ele>246.20000000000002</ele><time>2026-04-06T11:14:12.686Z</time></trkpt><trkpt lat="43.8611717" lon="12.619415"><ele>246.40000000000003</ele><time>2026-04-06T11:14:13.687Z</time></trkpt><trkpt lat="43.8610717" lon="12.619375"><ele>246.6</ele><time>2026-04-06T11:14:14.685Z</time></trkpt><trkpt lat="43.860975" lon="12.61934"><ele>246.8</ele><time>2026-04-06T11:14:15.685Z</time></trkpt><trkpt lat="43.8608783" lon="12.6193083"><ele>247.0</ele><time>2026-04-06T11:14:16.685Z</time></trkpt><trkpt lat="43.86078" lon="12.61928"><ele>250.0</ele><time>2026-04-06T11:14:17.686Z</time></trkpt><trkpt lat="43.8606742" lon="12.6192532"><ele>253.0</ele><time>2026-04-06T11:14:18.686Z</time></trkpt><trkpt lat="43.8605629" lon="12.6192254"><ele>256.0</ele><time>2026-04-06T11:14:19.688Z</time></trkpt><trkpt lat="43.8604505" lon="12.6191972"><ele>259.0</ele><time>2026-04-06T11:14:20.684Z</time></trkpt><trkpt lat="43.8603375" lon="12.6191708"><ele>262.0</ele><time>2026-04-06T11:14:21.686Z</time></trkpt><trkpt lat="43.8602218" lon="12.619138"><ele>263.5</ele><time>2026-04-06T11:14:22.686Z</time></trkpt><trkpt lat="43.8601021" lon="12.6190984"><ele>265.0</ele><time>2026-04-06T11:14:23.686Z</time></trkpt><trkpt lat="43.8599829" lon="12.6190634"><ele>266.5</ele><time>2026-04-06T11:14:24.686Z</time></trkpt><trkpt lat="43.8598656" lon="12.6190287"><ele>268.0</ele><time>2026-04-06T11:14:25.688Z</time></trkpt><trkpt lat="43.8597486" lon="12.6190015"><ele>268.0</ele><time>2026-04-06T11:14:26.686Z</time></trkpt><trkpt lat="43.8596348" lon="12.6189808"><ele>268.0</ele><time>2026-04-06T11:14:27.686Z</time></trkpt><trkpt lat="43.8595284" lon="12.6189616"><ele>268.0</ele><time>2026-04-06T11:14:28.686Z</time></trkpt><trkpt lat="43.8594342" lon="12.6189371"><ele>268.0</ele><time>2026-04-06T11:14:29.682Z</time></trkpt><trkpt lat="43.8593591" lon="12.6188962"><ele>268.0</ele><time>2026-04-06T11:14:30.686Z</time></trkpt><trkpt lat="43.8592989" lon="12.6188328"><ele>269.5</ele><time>2026-04-06T11:14:31.687Z</time></trkpt><trkpt lat="43.8592481" lon="12.6187526"><ele>271.0</ele><time>2026-04-06T11:14:32.686Z</time></trkpt><trkpt lat="43.8591982" lon="12.6186574"><ele>272.5</ele><time>2026-04-06T11:14:33.685Z</time></trkpt><trkpt lat="43.8591492" lon="12.6185454"><ele>274.0</ele><time>2026-04-06T11:14:34.685Z</time></trkpt><trkpt lat="43.8590974" lon="12.6184298"><ele>275.5</ele><time>2026-04-06T11:14:35.685Z</time></trkpt><trkpt lat="43.8590507" lon="12.6183157"><ele>277.0</ele><time>2026-04-06T11:14:36.685Z</time></trkpt><trkpt lat="43.8590092" lon="12.6182135"><ele>277.5</ele><time>2026-04-06T11:14:37.688Z</time></trkpt><trkpt lat="43.8589652" lon="12.6181292"><ele>278.0</ele><time>2026-04-06T11:14:38.685Z</time></trkpt><trkpt lat="43.8589224" lon="12.6180587"><ele>278.5</ele><time>2026-04-06T11:14:39.687Z</time></trkpt><trkpt lat="43.8588117" lon="12.6179706"><ele>279.0</ele><time>2026-04-06T11:14:41.687Z</time></trkpt><trkpt lat="43.8587367" lon="12.6179497"><ele>279.5</ele><time>2026-04-06T11:14:42.685Z</time></trkpt><trkpt lat="43.8586383" lon="12.6179679"><ele>280.0</ele><time>2026-04-06T11:14:43.688Z</time></trkpt><trkpt lat="43.8585388" lon="12.6179853"><ele>280.2</ele><time>2026-04-06T11:14:44.686Z</time></trkpt><trkpt lat="43.8584347" lon="12.6180028"><ele>280.4</ele><time>2026-04-06T11:14:45.686Z</time></trkpt><trkpt lat="43.8583307" lon="12.6180113"><ele>280.6</ele><time>2026-04-06T11:14:46.684Z</time></trkpt><trkpt lat="43.8582328" lon="12.6180209"><ele>280.8</ele><time>2026-04-06T11:14:47.686Z</time></trkpt><trkpt lat="43.8581422" lon="12.6180346"><ele>281.0</ele><time>2026-04-06T11:14:48.685Z</time></trkpt><trkpt lat="43.8580641" lon="12.6180458"><ele>281.0</ele><time>2026-04-06T11:14:49.686Z</time></trkpt><trkpt lat="43.858001" lon="12.6180643"><ele>281.0</ele><time>2026-04-06T11:14:50.686Z</time></trkpt><trkpt lat="43.8579139" lon="12.618076"><ele>281.0</ele><time>2026-04-06T11:14:52.685Z</time></trkpt><trkpt lat="43.8578468" lon="12.6180435"><ele>281.0</ele><time>2026-04-06T11:14:54.689Z</time></trkpt><trkpt lat="43.8577974" lon="12.6179209"><ele>281.0</ele><time>2026-04-06T11:14:56.684Z</time></trkpt><trkpt lat="43.8577709" lon="12.6178009"><ele>281.0</ele><time>2026-04-06T11:14:57.685Z</time></trkpt><trkpt lat="43.8577406" lon="12.617683"><ele>279.8</ele><time>2026-04-06T11:14:58.686Z</time></trkpt><trkpt lat="43.8577067" lon="12.6175633"><ele>278.6</ele><time>2026-04-06T11:14:59.688Z</time></trkpt><trkpt lat="43.8576629" lon="12.6174482"><ele>277.4</ele><time>2026-04-06T11:15:00.685Z</time></trkpt><trkpt lat="43.8576147" lon="12.6173324"><ele>276.2</ele><time>2026-04-06T11:15:01.688Z</time></trkpt><trkpt lat="43.8575617" lon="12.6172159"><ele>275.0</ele><time>2026-04-06T11:15:02.685Z</time></trkpt><trkpt lat="43.8575065" lon="12.6171022"><ele>272.6</ele><time>2026-04-06T11:15:03.687Z</time></trkpt><trkpt lat="43.8574484" lon="12.6169835"><ele>270.2</ele><time>2026-04-06T11:15:04.686Z</time></trkpt><trkpt lat="43.8573937" lon="12.6168619"><ele>267.8</ele><time>2026-04-06T11:15:05.685Z</time></trkpt><trkpt lat="43.8573458" lon="12.6167327"><ele>265.4</ele><time>2026-04-06T11:15:06.685Z</time></trkpt><trkpt lat="43.8573051" lon="12.6166171"><ele>263.0</ele><time>2026-04-06T11:15:07.685Z</time></trkpt><trkpt lat="43.8572731" lon="12.6165072"><ele>263.0</ele><time>2026-04-06T11:15:08.685Z</time></trkpt><trkpt lat="43.8572552" lon="12.6163974"><ele>263.0</ele><time>2026-04-06T11:15:09.686Z</time></trkpt><trkpt lat="43.8572571" lon="12.6162831"><ele>263.0</ele><time>2026-04-06T11:15:10.686Z</time></trkpt><trkpt lat="43.8572858" lon="12.6161572"><ele>263.0</ele><time>2026-04-06T11:15:11.685Z</time></trkpt><trkpt lat="43.8573604" lon="12.6160648"><ele>263.0</ele><time>2026-04-06T11:15:12.686Z</time></trkpt><trkpt lat="43.8574328" lon="12.615981"><ele>260.2</ele><time>2026-04-06T11:15:13.688Z</time></trkpt><trkpt lat="43.8574986" lon="12.6159181"><ele>257.4</ele><time>2026-04-06T11:15:14.686Z</time></trkpt><trkpt lat="43.8575825" lon="12.6159009"><ele>254.59999999999997</ele><time>2026-04-06T11:15:15.686Z</time></trkpt><trkpt lat="43.8576945" lon="12.6159441"><ele>251.79999999999998</ele><time>2026-04-06T11:15:16.688Z</time></trkpt><trkpt lat="43.8578019" lon="12.6159911"><ele>249.0</ele><time>2026-04-06T11:15:17.688Z</time></trkpt><trkpt lat="43.8579042" lon="12.6160347"><ele>248.0</ele><time>2026-04-06T11:15:18.685Z</time></trkpt><trkpt lat="43.8579947" lon="12.6160635"><ele>247.0</ele><time>2026-04-06T11:15:19.686Z</time></trkpt><trkpt lat="43.8580733" lon="12.6160707"><ele>246.0</ele><time>2026-04-06T11:15:20.686Z</time></trkpt><trkpt lat="43.8581434" lon="12.6160535"><ele>245.0</ele><time>2026-04-06T11:15:21.685Z</time></trkpt><trkpt lat="43.8582069" lon="12.6160117"><ele>244.0</ele><time>2026-04-06T11:15:22.687Z</time></trkpt><trkpt lat="43.8582617" lon="12.6159508"><ele>243.0</ele><time>2026-04-06T11:15:23.687Z</time></trkpt><trkpt lat="43.858305" lon="12.6158567"><ele>243.0</ele><time>2026-04-06T11:15:24.686Z</time></trkpt><trkpt lat="43.8583467" lon="12.6157417"><ele>243.0</ele><time>2026-04-06T11:15:25.686Z</time></trkpt><trkpt lat="43.8583867" lon="12.615615"><ele>243.0</ele><time>2026-04-06T11:15:26.686Z</time></trkpt><trkpt lat="43.8584383" lon="12.61547"><ele>243.0</ele><time>2026-04-06T11:15:27.685Z</time></trkpt><trkpt lat="43.8584883" lon="12.6153333"><ele>243.0</ele><time>2026-04-06T11:15:28.687Z</time></trkpt><trkpt lat="43.8585433" lon="12.6151967"><ele>241.8</ele><time>2026-04-06T11:15:29.686Z</time></trkpt><trkpt lat="43.858595" lon="12.6150633"><ele>240.60000000000002</ele><time>2026-04-06T11:15:30.686Z</time></trkpt><trkpt lat="43.8586517" lon="12.61493"><ele>239.39999999999998</ele><time>2026-04-06T11:15:31.687Z</time></trkpt><trkpt lat="43.8587033" lon="12.614795"><ele>238.2</ele><time>2026-04-06T11:15:32.687Z</time></trkpt><trkpt lat="43.8587533" lon="12.6146667"><ele>237.0</ele><time>2026-04-06T11:15:33.684Z</time></trkpt><trkpt lat="43.8588033" lon="12.6145367"><ele>235.39999999999998</ele><time>2026-04-06T11:15:34.687Z</time></trkpt><trkpt lat="43.8588583" lon="12.61441"><ele>233.79999999999998</ele><time>2026-04-06T11:15:35.687Z</time></trkpt><trkpt lat="43.8589133" lon="12.6142933"><ele>232.2</ele><time>2026-04-06T11:15:36.686Z</time></trkpt><trkpt lat="43.8589717" lon="12.6141817"><ele>230.6</ele><time>2026-04-06T11:15:37.687Z</time></trkpt><trkpt lat="43.8590483" lon="12.6140733"><ele>229.0</ele><time>2026-04-06T11:15:38.687Z</time></trkpt><trkpt lat="43.8591317" lon="12.6139783"><ele>229.0</ele><time>2026-04-06T11:15:39.685Z</time></trkpt><trkpt lat="43.8592233" lon="12.6138917"><ele>228.99999999999997</ele><time>2026-04-06T11:15:40.687Z</time></trkpt><trkpt lat="43.8593167" lon="12.6138233"><ele>228.99999999999997</ele><time>2026-04-06T11:15:41.687Z</time></trkpt><trkpt lat="43.8594117" lon="12.6137633"><ele>229.0</ele><time>2026-04-06T11:15:42.686Z</time></trkpt><trkpt lat="43.8595" lon="12.6136983"><ele>229.0</ele><time>2026-04-06T11:15:43.687Z</time></trkpt><trkpt lat="43.8595817" lon="12.6136317"><ele>226.66666666666666</ele><time>2026-04-06T11:15:44.685Z</time></trkpt><trkpt lat="43.85964" lon="12.6135633"><ele>224.33333333333331</ele><time>2026-04-06T11:15:45.685Z</time></trkpt><trkpt lat="43.8596767" lon="12.6134883"><ele>222.0</ele><time>2026-04-06T11:15:46.685Z</time></trkpt><trkpt lat="43.8596867" lon="12.6134"><ele>219.66666666666669</ele><time>2026-04-06T11:15:47.685Z</time></trkpt><trkpt lat="43.8596717" lon="12.6132917"><ele>217.33333333333334</ele><time>2026-04-06T11:15:48.686Z</time></trkpt><trkpt lat="43.85965" lon="12.6131767"><ele>215.0</ele><time>2026-04-06T11:15:49.687Z</time></trkpt><trkpt lat="43.8596117" lon="12.6130717"><ele>215.0</ele><time>2026-04-06T11:15:50.685Z</time></trkpt><trkpt lat="43.8595633" lon="12.6129767"><ele>215.0</ele><time>2026-04-06T11:15:51.686Z</time></trkpt><trkpt lat="43.8594983" lon="12.6128933"><ele>215.0</ele><time>2026-04-06T11:15:52.685Z</time></trkpt><trkpt lat="43.8594183" lon="12.61282"><ele>215.0</ele><time>2026-04-06T11:15:53.685Z</time></trkpt><trkpt lat="43.8593333" lon="12.6127467"><ele>215.0</ele><time>2026-04-06T11:15:54.685Z</time></trkpt><trkpt lat="43.8592667" lon="12.612675"><ele>213.8</ele><time>2026-04-06T11:15:55.687Z</time></trkpt><trkpt lat="43.85921" lon="12.6126083"><ele>212.6</ele><time>2026-04-06T11:15:56.686Z</time></trkpt><trkpt lat="43.8591767" lon="12.6125333"><ele>211.39999999999998</ele><time>2026-04-06T11:15:57.685Z</time></trkpt><trkpt lat="43.8591733" lon="12.61234"><ele>210.2</ele><time>2026-04-06T11:15:59.685Z</time></trkpt><trkpt lat="43.8592017" lon="12.6121917"><ele>209.0</ele><time>2026-04-06T11:16:00.686Z</time></trkpt><trkpt lat="43.8592517" lon="12.6120267"><ele>205.5</ele><time>2026-04-06T11:16:01.686Z</time></trkpt><trkpt lat="43.8593133" lon="12.6118683"><ele>202.0</ele><time>2026-04-06T11:16:02.686Z</time></trkpt><trkpt lat="43.8593817" lon="12.611715"><ele>198.5</ele><time>2026-04-06T11:16:03.683Z</time></trkpt><trkpt lat="43.859445" lon="12.61154"><ele>195.0</ele><time>2026-04-06T11:16:04.686Z</time></trkpt><trkpt lat="43.8594883" lon="12.611365"><ele>195.0</ele><time>2026-04-06T11:16:05.684Z</time></trkpt><trkpt lat="43.85952" lon="12.6111917"><ele>195.0</ele><time>2026-04-06T11:16:06.685Z</time></trkpt><trkpt lat="43.8595517" lon="12.6110217"><ele>195.0</ele><time>2026-04-06T11:16:07.686Z</time></trkpt><trkpt lat="43.8595833" lon="12.61087"><ele>195.0</ele><time>2026-04-06T11:16:08.685Z</time></trkpt><trkpt lat="43.8596133" lon="12.6107417"><ele>194.0</ele><time>2026-04-06T11:16:09.685Z</time></trkpt><trkpt lat="43.8596667" lon="12.61063"><ele>193.0</ele><time>2026-04-06T11:16:10.686Z</time></trkpt><trkpt lat="43.8597417" lon="12.6105333"><ele>192.0</ele><time>2026-04-06T11:16:11.688Z</time></trkpt><trkpt lat="43.85984" lon="12.6104433"><ele>191.0</ele><time>2026-04-06T11:16:12.686Z</time></trkpt><trkpt lat="43.8599517" lon="12.6103567"><ele>190.0</ele><time>2026-04-06T11:16:13.685Z</time></trkpt><trkpt lat="43.860065" lon="12.610265"><ele>186.0</ele><time>2026-04-06T11:16:14.686Z</time></trkpt><trkpt lat="43.8601683" lon="12.6101633"><ele>182.0</ele><time>2026-04-06T11:16:15.687Z</time></trkpt><trkpt lat="43.8602667" lon="12.6100617"><ele>178.0</ele><time>2026-04-06T11:16:16.685Z</time></trkpt><trkpt lat="43.8603617" lon="12.6099583"><ele>174.0</ele><time>2026-04-06T11:16:17.685Z</time></trkpt><trkpt lat="43.86045" lon="12.6098533"><ele>174.0</ele><time>2026-04-06T11:16:18.685Z</time></trkpt><trkpt lat="43.8605267" lon="12.6097633"><ele>174.0</ele><time>2026-04-06T11:16:19.685Z</time></trkpt><trkpt lat="43.86059" lon="12.6096733"><ele>174.0</ele><time>2026-04-06T11:16:20.686Z</time></trkpt><trkpt lat="43.860635" lon="12.609575"><ele>174.0</ele><time>2026-04-06T11:16:21.686Z</time></trkpt><trkpt lat="43.86066" lon="12.60946"><ele>174.0</ele><time>2026-04-06T11:16:22.686Z</time></trkpt><trkpt lat="43.8606833" lon="12.6093417"><ele>172.5</ele><time>2026-04-06T11:16:23.686Z</time></trkpt><trkpt lat="43.8607183" lon="12.6092333"><ele>171.0</ele><time>2026-04-06T11:16:24.685Z</time></trkpt><trkpt lat="43.8607633" lon="12.60914"><ele>169.5</ele><time>2026-04-06T11:16:25.686Z</time></trkpt><trkpt lat="43.8608267" lon="12.6090783"><ele>168.0</ele><time>2026-04-06T11:16:26.686Z</time></trkpt><trkpt lat="43.8608917" lon="12.6090283"><ele>166.5</ele><time>2026-04-06T11:16:27.684Z</time></trkpt><trkpt lat="43.8609967" lon="12.6090367"><ele>165.0</ele><time>2026-04-06T11:16:28.688Z</time></trkpt><trkpt lat="43.86112" lon="12.6090467"><ele>162.5</ele><time>2026-04-06T11:16:29.686Z</time></trkpt><trkpt lat="43.86126" lon="12.6090467"><ele>160.0</ele><time>2026-04-06T11:16:30.686Z</time></trkpt><trkpt lat="43.86139" lon="12.6090333"><ele>157.5</ele><time>2026-04-06T11:16:31.689Z</time></trkpt><trkpt lat="43.861525" lon="12.6090183"><ele>155.0</ele><time>2026-04-06T11:16:32.685Z</time></trkpt><trkpt lat="43.8616633" lon="12.6090033"><ele>153.5</ele><time>2026-04-06T11:16:33.685Z</time></trkpt><trkpt lat="43.8617983" lon="12.6089883"><ele>152.0</ele><time>2026-04-06T11:16:34.686Z</time></trkpt><trkpt lat="43.861915" lon="12.6089983"><ele>150.5</ele><time>2026-04-06T11:16:35.685Z</time></trkpt><trkpt lat="43.8620217" lon="12.60903"><ele>149.0</ele><time>2026-04-06T11:16:36.686Z</time></trkpt><trkpt lat="43.8621067" lon="12.609085"><ele>149.0</ele><time>2026-04-06T11:16:37.688Z</time></trkpt><trkpt lat="43.8621683" lon="12.609175"><ele>149.0</ele><time>2026-04-06T11:16:38.686Z</time></trkpt><trkpt lat="43.8622167" lon="12.609285"><ele>149.0</ele><time>2026-04-06T11:16:39.684Z</time></trkpt><trkpt lat="43.86226" lon="12.6094217"><ele>149.0</ele><time>2026-04-06T11:16:40.687Z</time></trkpt><trkpt lat="43.8622917" lon="12.6096083"><ele>149.0</ele><time>2026-04-06T11:16:41.688Z</time></trkpt><trkpt lat="43.8623283" lon="12.6097667"><ele>149.2</ele><time>2026-04-06T11:16:42.687Z</time></trkpt><trkpt lat="43.862375" lon="12.6099033"><ele>149.4</ele><time>2026-04-06T11:16:43.686Z</time></trkpt><trkpt lat="43.86243" lon="12.61002"><ele>149.6</ele><time>2026-04-06T11:16:44.686Z</time></trkpt><trkpt lat="43.862485" lon="12.6101083"><ele>149.8</ele><time>2026-04-06T11:16:45.685Z</time></trkpt><trkpt lat="43.8625417" lon="12.610165"><ele>150.0</ele><time>2026-04-06T11:16:46.684Z</time></trkpt><trkpt lat="43.8626517" lon="12.6102067"><ele>150.16666666666666</ele><time>2026-04-06T11:16:48.687Z</time></trkpt><trkpt lat="43.8627167" lon="12.6102017"><ele>150.33333333333334</ele><time>2026-04-06T11:16:49.685Z</time></trkpt><trkpt lat="43.8627833" lon="12.6101967"><ele>150.5</ele><time>2026-04-06T11:16:50.686Z</time></trkpt><trkpt lat="43.8628583" lon="12.6101967"><ele>150.66666666666669</ele><time>2026-04-06T11:16:51.684Z</time></trkpt><trkpt lat="43.8629333" lon="12.6102217"><ele>150.83333333333334</ele><time>2026-04-06T11:16:52.685Z</time></trkpt><trkpt lat="43.8630083" lon="12.6102817"><ele>151.0</ele><time>2026-04-06T11:16:53.686Z</time></trkpt><trkpt lat="43.863075" lon="12.6103583"><ele>151.0</ele><time>2026-04-06T11:16:54.685Z</time></trkpt><trkpt lat="43.8631333" lon="12.6104317"><ele>151.0</ele><time>2026-04-06T11:16:55.687Z</time></trkpt><trkpt lat="43.8631867" lon="12.610495"><ele>151.0</ele><time>2026-04-06T11:16:56.686Z</time></trkpt><trkpt lat="43.8632417" lon="12.6105517"><ele>151.0</ele><time>2026-04-06T11:16:57.685Z</time></trkpt><trkpt lat="43.86333" lon="12.6106167"><ele>151.0</ele><time>2026-04-06T11:16:59.687Z</time></trkpt><trkpt lat="43.8633967" lon="12.610605"><ele>151.0</ele><time>2026-04-06T11:17:02.682Z</time></trkpt><trkpt lat="43.863325" lon="12.61061"><ele>151.0</ele><time>2026-04-06T11:17:09.688Z</time></trkpt><trkpt lat="43.863265" lon="12.6105633"><ele>151.0</ele><time>2026-04-06T11:17:10.687Z</time></trkpt><trkpt lat="43.8631867" lon="12.610485"><ele>151.0</ele><time>2026-04-06T11:17:11.688Z</time></trkpt><trkpt lat="43.86311" lon="12.6104"><ele>151.0</ele><time>2026-04-06T11:17:12.686Z</time></trkpt><trkpt lat="43.8630383" lon="12.6103167"><ele>151.0</ele><time>2026-04-06T11:17:13.688Z</time></trkpt><trkpt lat="43.8629583" lon="12.6102483"><ele>151.0</ele><time>2026-04-06T11:17:14.682Z</time></trkpt><trkpt lat="43.8628817" lon="12.610205"><ele>151.0</ele><time>2026-04-06T11:17:15.686Z</time></trkpt><trkpt lat="43.86281" lon="12.6101867"><ele>151.0</ele><time>2026-04-06T11:17:16.687Z</time></trkpt><trkpt lat="43.8627083" lon="12.6101867"><ele>151.0</ele><time>2026-04-06T11:17:18.687Z</time></trkpt><trkpt lat="43.8626667" lon="12.610275"><ele>151.0</ele><time>2026-04-06T11:17:22.686Z</time></trkpt><trkpt lat="43.8626867" lon="12.6103867"><ele>151.0</ele><time>2026-04-06T11:17:24.686Z</time></trkpt><trkpt lat="43.8627367" lon="12.61053"><ele>151.0</ele><time>2026-04-06T11:17:26.685Z</time></trkpt><trkpt lat="43.8627833" lon="12.6106517"><ele>151.0</ele><time>2026-04-06T11:17:28.685Z</time></trkpt><trkpt lat="43.8628167" lon="12.61078"><ele>151.0</ele><time>2026-04-06T11:17:30.687Z</time></trkpt><trkpt lat="43.8628267" lon="12.610955"><ele>151.0</ele><time>2026-04-06T11:17:32.684Z</time></trkpt><trkpt lat="43.8628217" lon="12.611045"><ele>151.0</ele><time>2026-04-06T11:17:33.685Z</time></trkpt><trkpt lat="43.8628083" lon="12.6112067"><ele>150.57142857142858</ele><time>2026-04-06T11:17:35.688Z</time></trkpt><trkpt lat="43.8628417" lon="12.6113533"><ele>150.14285714285714</ele><time>2026-04-06T11:17:37.685Z</time></trkpt><trkpt lat="43.8628783" lon="12.611425"><ele>149.71428571428572</ele><time>2026-04-06T11:17:38.686Z</time></trkpt><trkpt lat="43.862925" lon="12.6114967"><ele>149.28571428571428</ele><time>2026-04-06T11:17:39.684Z</time></trkpt><trkpt lat="43.8629717" lon="12.611565"><ele>148.85714285714286</ele><time>2026-04-06T11:17:40.685Z</time></trkpt><trkpt lat="43.8630283" lon="12.6116217"><ele>148.42857142857144</ele><time>2026-04-06T11:17:41.685Z</time></trkpt><trkpt lat="43.8630767" lon="12.6116817"><ele>148.0</ele><time>2026-04-06T11:17:42.686Z</time></trkpt><trkpt lat="43.8631483" lon="12.6118117"><ele>148.0</ele><time>2026-04-06T11:17:44.685Z</time></trkpt><trkpt lat="43.8632133" lon="12.6119233"><ele>148.0</ele><time>2026-04-06T11:17:46.687Z</time></trkpt><trkpt lat="43.8632817" lon="12.6120117"><ele>148.0</ele><time>2026-04-06T11:17:48.685Z</time></trkpt><trkpt lat="43.8633667" lon="12.6120933"><ele>148.0</ele><time>2026-04-06T11:17:50.684Z</time></trkpt><trkpt lat="43.8634883" lon="12.612165"><ele>148.0</ele><time>2026-04-06T11:17:52.685Z</time></trkpt><trkpt lat="43.8635533" lon="12.6121867"><ele>147.66666666666669</ele><time>2026-04-06T11:17:53.687Z</time></trkpt><trkpt lat="43.8636217" lon="12.6122117"><ele>147.33333333333334</ele><time>2026-04-06T11:17:54.687Z</time></trkpt><trkpt lat="43.8636917" lon="12.6122383"><ele>147.0</ele><time>2026-04-06T11:17:55.686Z</time></trkpt><trkpt lat="43.8637617" lon="12.6122683"><ele>146.66666666666666</ele><time>2026-04-06T11:17:56.685Z</time></trkpt><trkpt lat="43.863825" lon="12.6122967"><ele>146.33333333333331</ele><time>2026-04-06T11:17:57.684Z</time></trkpt><trkpt lat="43.8638833" lon="12.6123367"><ele>146.0</ele><time>2026-04-06T11:17:58.685Z</time></trkpt><trkpt lat="43.863975" lon="12.6124033"><ele>146.0</ele><time>2026-04-06T11:18:00.685Z</time></trkpt><trkpt lat="43.86407" lon="12.6124817"><ele>146.0</ele><time>2026-04-06T11:18:02.685Z</time></trkpt><trkpt lat="43.8641583" lon="12.612575"><ele>146.0</ele><time>2026-04-06T11:18:04.684Z</time></trkpt><trkpt lat="43.8642433" lon="12.612665"><ele>146.0</ele><time>2026-04-06T11:18:06.685Z</time></trkpt><trkpt lat="43.864305" lon="12.612735"><ele>146.0</ele><time>2026-04-06T11:18:08.686Z</time></trkpt><trkpt lat="43.864355" lon="12.6127917"><ele>146.4</ele><time>2026-04-06T11:18:10.685Z</time></trkpt><trkpt lat="43.864405" lon="12.612905"><ele>146.8</ele><time>2026-04-06T11:21:07.686Z</time></trkpt><trkpt lat="43.864465" lon="12.6129667"><ele>147.20000000000002</ele><time>2026-04-06T11:21:11.685Z</time></trkpt><trkpt lat="43.864525" lon="12.6130283"><ele>147.6</ele><time>2026-04-06T11:21:13.687Z</time></trkpt><trkpt lat="43.8646033" lon="12.6131217"><ele>148.0</ele><time>2026-04-06T11:21:15.685Z</time></trkpt><trkpt lat="43.86469" lon="12.6132183"><ele>148.0</ele><time>2026-04-06T11:21:17.685Z</time></trkpt><trkpt lat="43.86478" lon="12.613275"><ele>148.0</ele><time>2026-04-06T11:21:19.686Z</time></trkpt><trkpt lat="43.864855" lon="12.6133217"><ele>148.0</ele><time>2026-04-06T11:21:21.684Z</time></trkpt><trkpt lat="43.864905" lon="12.61338"><ele>148.0</ele><time>2026-04-06T11:21:25.688Z</time></trkpt><trkpt lat="43.8649633" lon="12.6134217"><ele>148.0</ele><time>2026-04-06T11:21:32.686Z</time></trkpt><trkpt lat="43.86502" lon="12.6135033"><ele>148.0</ele><time>2026-04-06T11:21:38.685Z</time></trkpt><trkpt lat="43.8650667" lon="12.6135733"><ele>148.33333333333334</ele><time>2026-04-06T11:21:42.686Z</time></trkpt><trkpt lat="43.8651417" lon="12.6136317"><ele>148.66666666666669</ele><time>2026-04-06T11:21:46.685Z</time></trkpt><trkpt lat="43.865215" lon="12.613715"><ele>149.0</ele><time>2026-04-06T11:21:49.686Z</time></trkpt><trkpt lat="43.8652717" lon="12.6137933"><ele>149.33333333333334</ele><time>2026-04-06T11:21:51.684Z</time></trkpt><trkpt lat="43.8653283" lon="12.6138583"><ele>149.66666666666666</ele><time>2026-04-06T11:21:53.687Z</time></trkpt><trkpt lat="43.865385" lon="12.6139083"><ele>150.0</ele><time>2026-04-06T11:21:55.686Z</time></trkpt><trkpt lat="43.8654467" lon="12.6139883"><ele>150.0</ele><time>2026-04-06T11:21:58.685Z</time></trkpt><trkpt lat="43.86551" lon="12.6140783"><ele>150.0</ele><time>2026-04-06T11:22:01.685Z</time></trkpt><trkpt lat="43.86555" lon="12.6141783"><ele>150.0</ele><time>2026-04-06T11:22:18.686Z</time></trkpt><trkpt lat="43.8655967" lon="12.6142833"><ele>150.0</ele><time>2026-04-06T11:22:21.69Z</time></trkpt><trkpt lat="43.865645" lon="12.6143667"><ele>150.0</ele><time>2026-04-06T11:22:23.688Z</time></trkpt><trkpt lat="43.8656867" lon="12.6144433"><ele>150.0</ele><time>2026-04-06T11:22:25.688Z</time></trkpt><trkpt lat="43.8657183" lon="12.614525"><ele>150.0</ele><time>2026-04-06T11:22:27.685Z</time></trkpt><trkpt lat="43.8657533" lon="12.6146083"><ele>150.0</ele><time>2026-04-06T11:22:29.689Z</time></trkpt><trkpt lat="43.865825" lon="12.6145933"><ele>150.0</ele><time>2026-04-06T11:22:47.686Z</time></trkpt><trkpt lat="43.8658583" lon="12.61448"><ele>150.0</ele><time>2026-04-06T11:22:50.686Z</time></trkpt><trkpt lat="43.8659083" lon="12.614365"><ele>150.0</ele><time>2026-04-06T11:22:53.688Z</time></trkpt><trkpt lat="43.8659683" lon="12.6143133"><ele>150.0</ele><time>2026-04-06T11:22:55.688Z</time></trkpt><trkpt lat="43.866045" lon="12.6142967"><ele>149.4</ele><time>2026-04-06T11:22:58.687Z</time></trkpt><trkpt lat="43.8661217" lon="12.6142917"><ele>148.8</ele><time>2026-04-06T11:23:02.686Z</time></trkpt><trkpt lat="43.8662067" lon="12.6143417"><ele>148.2</ele><time>2026-04-06T11:23:11.689Z</time></trkpt><trkpt lat="43.8662583" lon="12.6145483"><ele>147.6</ele><time>2026-04-06T11:25:59.687Z</time></trkpt><trkpt lat="43.8663433" lon="12.6145033"><ele>147.0</ele><time>2026-04-06T11:26:01.691Z</time></trkpt><trkpt lat="43.8664233" lon="12.6144467"><ele>147.0</ele><time>2026-04-06T11:26:03.686Z</time></trkpt><trkpt lat="43.866485" lon="12.6144"><ele>147.0</ele><time>2026-04-06T11:26:05.686Z</time></trkpt><trkpt lat="43.86655" lon="12.6143733"><ele>147.0</ele><time>2026-04-06T11:26:07.688Z</time></trkpt><trkpt lat="43.86664" lon="12.6143783"><ele>147.0</ele><time>2026-04-06T11:26:10.688Z</time></trkpt><trkpt lat="43.8667083" lon="12.614425"><ele>147.0</ele><time>2026-04-06T11:26:12.686Z</time></trkpt><trkpt lat="43.8667633" lon="12.6144983"><ele>147.0</ele><time>2026-04-06T11:26:14.685Z</time></trkpt><trkpt lat="43.8668283" lon="12.61459"><ele>150.16666666666666</ele><time>2026-04-06T11:26:16.686Z</time></trkpt><trkpt lat="43.8668933" lon="12.6146417"><ele>153.33333333333334</ele><time>2026-04-06T11:26:18.688Z</time></trkpt><trkpt lat="43.8669683" lon="12.6146717"><ele>156.5</ele><time>2026-04-06T11:26:20.685Z</time></trkpt><trkpt lat="43.8670583" lon="12.6146867"><ele>159.66666666666669</ele><time>2026-04-06T11:26:22.686Z</time></trkpt><trkpt lat="43.8671417" lon="12.6147"><ele>162.83333333333334</ele><time>2026-04-06T11:26:24.687Z</time></trkpt><trkpt lat="43.867215" lon="12.61471"><ele>166.0</ele><time>2026-04-06T11:26:26.688Z</time></trkpt><trkpt lat="43.86729" lon="12.6147167"><ele>166.0</ele><time>2026-04-06T11:26:28.688Z</time></trkpt><trkpt lat="43.867375" lon="12.614705"><ele>166.0</ele><time>2026-04-06T11:26:30.687Z</time></trkpt><trkpt lat="43.8674867" lon="12.6146683"><ele>166.0</ele><time>2026-04-06T11:26:32.688Z</time></trkpt><trkpt lat="43.86759" lon="12.61462"><ele>166.0</ele><time>2026-04-06T11:26:34.686Z</time></trkpt><trkpt lat="43.86767" lon="12.6145967"><ele>166.0</ele><time>2026-04-06T11:26:36.688Z</time></trkpt><trkpt lat="43.8677433" lon="12.61462"><ele>170.8</ele><time>2026-04-06T11:26:38.688Z</time></trkpt><trkpt lat="43.8678117" lon="12.61468"><ele>175.60000000000002</ele><time>2026-04-06T11:26:40.687Z</time></trkpt><trkpt lat="43.8678733" lon="12.6147667"><ele>180.4</ele><time>2026-04-06T11:26:42.687Z</time></trkpt><trkpt lat="43.8679483" lon="12.61488"><ele>185.2</ele><time>2026-04-06T11:26:44.686Z</time></trkpt><trkpt lat="43.8680333" lon="12.6149967"><ele>190.0</ele><time>2026-04-06T11:26:46.688Z</time></trkpt><trkpt lat="43.868115" lon="12.61511"><ele>190.0</ele><time>2026-04-06T11:26:48.686Z</time></trkpt><trkpt lat="43.8681867" lon="12.6151817"><ele>190.0</ele><time>2026-04-06T11:26:50.686Z</time></trkpt><trkpt lat="43.8682617" lon="12.61518"><ele>190.0</ele><time>2026-04-06T11:26:52.685Z</time></trkpt><trkpt lat="43.8683717" lon="12.6151567"><ele>190.0</ele><time>2026-04-06T11:26:54.689Z</time></trkpt><trkpt lat="43.868435" lon="12.61515"><ele>190.0</ele><time>2026-04-06T11:26:55.687Z</time></trkpt><trkpt lat="43.8685017" lon="12.6151433"><ele>190.0</ele><time>2026-04-06T11:26:56.688Z</time></trkpt><trkpt lat="43.868615" lon="12.61514"><ele>192.66666666666669</ele><time>2026-04-06T11:26:58.686Z</time></trkpt><trkpt lat="43.86874" lon="12.615155"><ele>195.33333333333334</ele><time>2026-04-06T11:27:00.688Z</time></trkpt><trkpt lat="43.8688067" lon="12.615165"><ele>198.0</ele><time>2026-04-06T11:27:01.689Z</time></trkpt><trkpt lat="43.8688767" lon="12.6151783"><ele>200.66666666666669</ele><time>2026-04-06T11:27:02.688Z</time></trkpt><trkpt lat="43.8689417" lon="12.6151867"><ele>203.33333333333334</ele><time>2026-04-06T11:27:03.688Z</time></trkpt><trkpt lat="43.8690467" lon="12.6152017"><ele>206.0</ele><time>2026-04-06T11:27:05.687Z</time></trkpt><trkpt lat="43.8691483" lon="12.6152283"><ele>206.0</ele><time>2026-04-06T11:27:07.689Z</time></trkpt><trkpt lat="43.8692667" lon="12.615245"><ele>206.0</ele><time>2026-04-06T11:27:09.687Z</time></trkpt><trkpt lat="43.8693867" lon="12.61526"><ele>206.0</ele><time>2026-04-06T11:27:11.687Z</time></trkpt><trkpt lat="43.8695083" lon="12.6152767"><ele>206.0</ele><time>2026-04-06T11:27:13.69Z</time></trkpt><trkpt lat="43.8696267" lon="12.61527"><ele>208.83333333333334</ele><time>2026-04-06T11:27:15.688Z</time></trkpt><trkpt lat="43.8697317" lon="12.6152356"><ele>211.66666666666669</ele><time>2026-04-06T11:27:17.683Z</time></trkpt><trkpt lat="43.8698502" lon="12.6151814"><ele>214.5</ele><time>2026-04-06T11:27:19.688Z</time></trkpt><trkpt lat="43.8699115" lon="12.615148"><ele>217.33333333333331</ele><time>2026-04-06T11:27:20.686Z</time></trkpt><trkpt lat="43.869975" lon="12.615111"><ele>220.16666666666666</ele><time>2026-04-06T11:27:21.688Z</time></trkpt><trkpt lat="43.8700362" lon="12.6150752"><ele>223.0</ele><time>2026-04-06T11:27:22.689Z</time></trkpt><trkpt lat="43.8700965" lon="12.6150399"><ele>222.49999999999997</ele><time>2026-04-06T11:27:23.687Z</time></trkpt><trkpt lat="43.8701564" lon="12.615"><ele>222.0</ele><time>2026-04-06T11:27:24.687Z</time></trkpt><trkpt lat="43.8702534" lon="12.6149139"><ele>221.5</ele><time>2026-04-06T11:27:26.686Z</time></trkpt><trkpt lat="43.8703268" lon="12.6147931"><ele>221.0</ele><time>2026-04-06T11:27:28.688Z</time></trkpt><trkpt lat="43.8703664" lon="12.6147182"><ele>220.49999999999997</ele><time>2026-04-06T11:27:29.687Z</time></trkpt><trkpt lat="43.8704148" lon="12.6146413"><ele>220.0</ele><time>2026-04-06T11:27:30.688Z</time></trkpt><trkpt lat="43.8704718" lon="12.6145708"><ele>219.99999999999997</ele><time>2026-04-06T11:27:31.689Z</time></trkpt><trkpt lat="43.8705366" lon="12.6145099"><ele>220.0</ele><time>2026-04-06T11:27:32.688Z</time></trkpt><trkpt lat="43.8706055" lon="12.6144474"><ele>220.0</ele><time>2026-04-06T11:27:33.688Z</time></trkpt><trkpt lat="43.8706746" lon="12.6143782"><ele>220.0</ele><time>2026-04-06T11:27:34.687Z</time></trkpt><trkpt lat="43.8707406" lon="12.6142988"><ele>219.99999999999997</ele><time>2026-04-06T11:27:35.687Z</time></trkpt><trkpt lat="43.8708013" lon="12.6142148"><ele>220.0</ele><time>2026-04-06T11:27:36.687Z</time></trkpt><trkpt lat="43.8708538" lon="12.614137"><ele>221.0</ele><time>2026-04-06T11:27:37.689Z</time></trkpt><trkpt lat="43.8709008" lon="12.6140665"><ele>222.0</ele><time>2026-04-06T11:27:38.688Z</time></trkpt><trkpt lat="43.8709481" lon="12.6139976"><ele>223.0</ele><time>2026-04-06T11:27:39.688Z</time></trkpt><trkpt lat="43.8709932" lon="12.6139234"><ele>224.0</ele><time>2026-04-06T11:27:40.688Z</time></trkpt><trkpt lat="43.871034" lon="12.6138455"><ele>225.00000000000003</ele><time>2026-04-06T11:27:41.686Z</time></trkpt><trkpt lat="43.8710692" lon="12.6137634"><ele>226.0</ele><time>2026-04-06T11:27:42.688Z</time></trkpt><trkpt lat="43.8710967" lon="12.6136781"><ele>227.0</ele><time>2026-04-06T11:27:43.689Z</time></trkpt><trkpt lat="43.8711204" lon="12.6135878"><ele>229.2</ele><time>2026-04-06T11:27:44.687Z</time></trkpt><trkpt lat="43.8711443" lon="12.6134958"><ele>231.39999999999998</ele><time>2026-04-06T11:27:45.687Z</time></trkpt><trkpt lat="43.8711684" lon="12.6134095"><ele>233.60000000000002</ele><time>2026-04-06T11:27:46.686Z</time></trkpt><trkpt lat="43.8712112" lon="12.6132655"><ele>235.8</ele><time>2026-04-06T11:27:48.685Z</time></trkpt><trkpt lat="43.8712754" lon="12.6131442"><ele>238.0</ele><time>2026-04-06T11:27:50.685Z</time></trkpt><trkpt lat="43.8713552" lon="12.6130142"><ele>238.0</ele><time>2026-04-06T11:27:52.689Z</time></trkpt><trkpt lat="43.8714425" lon="12.6128965"><ele>238.0</ele><time>2026-04-06T11:27:54.685Z</time></trkpt><trkpt lat="43.871531" lon="12.61281"><ele>238.0</ele><time>2026-04-06T11:27:56.685Z</time></trkpt><trkpt lat="43.8716256" lon="12.6127177"><ele>238.0</ele><time>2026-04-06T11:27:58.688Z</time></trkpt><trkpt lat="43.8716825" lon="12.6126718"><ele>238.0</ele><time>2026-04-06T11:27:59.686Z</time></trkpt><trkpt lat="43.8717483" lon="12.6126251"><ele>239.85714285714286</ele><time>2026-04-06T11:28:00.687Z</time></trkpt><trkpt lat="43.8718118" lon="12.6125767"><ele>241.71428571428572</ele><time>2026-04-06T11:28:01.689Z</time></trkpt><trkpt lat="43.8718714" lon="12.6125211"><ele>243.57142857142856</ele><time>2026-04-06T11:28:02.688Z</time></trkpt><trkpt lat="43.8719286" lon="12.6124621"><ele>245.42857142857142</ele><time>2026-04-06T11:28:03.686Z</time></trkpt><trkpt lat="43.871984" lon="12.6124014"><ele>247.28571428571428</ele><time>2026-04-06T11:28:04.688Z</time></trkpt><trkpt lat="43.8720363" lon="12.6123412"><ele>249.1428571428571</ele><time>2026-04-06T11:28:05.688Z</time></trkpt><trkpt lat="43.8720903" lon="12.6122791"><ele>250.99999999999997</ele><time>2026-04-06T11:28:06.686Z</time></trkpt><trkpt lat="43.8721449" lon="12.61222"><ele>251.00000000000003</ele><time>2026-04-06T11:28:07.69Z</time></trkpt><trkpt lat="43.8722026" lon="12.6121632"><ele>251.0</ele><time>2026-04-06T11:28:08.687Z</time></trkpt><trkpt lat="43.8722656" lon="12.6121135"><ele>251.0</ele><time>2026-04-06T11:28:09.687Z</time></trkpt><trkpt lat="43.8723291" lon="12.612064"><ele>251.0</ele><time>2026-04-06T11:28:10.686Z</time></trkpt><trkpt lat="43.8723888" lon="12.6120203"><ele>251.00000000000003</ele><time>2026-04-06T11:28:11.687Z</time></trkpt><trkpt lat="43.8724958" lon="12.6119999"><ele>251.0</ele><time>2026-04-06T11:28:13.688Z</time></trkpt><trkpt lat="43.8725851" lon="12.6120834"><ele>252.50000000000003</ele><time>2026-04-06T11:28:15.687Z</time></trkpt><trkpt lat="43.8726519" lon="12.6121915"><ele>254.0</ele><time>2026-04-06T11:28:17.686Z</time></trkpt><trkpt lat="43.8727197" lon="12.6122237"><ele>255.5</ele><time>2026-04-06T11:28:19.688Z</time></trkpt><trkpt lat="43.8728221" lon="12.612171"><ele>257.0</ele><time>2026-04-06T11:28:21.686Z</time></trkpt><trkpt lat="43.8728922" lon="12.6121347"><ele>258.5</ele><time>2026-04-06T11:28:22.687Z</time></trkpt><trkpt lat="43.8729679" lon="12.6120996"><ele>260.0</ele><time>2026-04-06T11:28:23.686Z</time></trkpt><trkpt lat="43.8730442" lon="12.6120727"><ele>260.0</ele><time>2026-04-06T11:28:24.686Z</time></trkpt><trkpt lat="43.8731187" lon="12.612055"><ele>260.0</ele><time>2026-04-06T11:28:25.687Z</time></trkpt><trkpt lat="43.8731963" lon="12.6120422"><ele>260.0</ele><time>2026-04-06T11:28:26.686Z</time></trkpt><trkpt lat="43.8732745" lon="12.612028"><ele>260.0</ele><time>2026-04-06T11:28:27.688Z</time></trkpt><trkpt lat="43.8733483" lon="12.6120066"><ele>260.0</ele><time>2026-04-06T11:28:28.688Z</time></trkpt><trkpt lat="43.8734156" lon="12.6119796"><ele>260.0</ele><time>2026-04-06T11:28:29.687Z</time></trkpt><trkpt lat="43.8735169" lon="12.6119055"><ele>261.6</ele><time>2026-04-06T11:28:31.689Z</time></trkpt><trkpt lat="43.8735596" lon="12.6117826"><ele>263.2</ele><time>2026-04-06T11:28:33.686Z</time></trkpt><trkpt lat="43.8735599" lon="12.6115945"><ele>264.8</ele><time>2026-04-06T11:28:35.688Z</time></trkpt><trkpt lat="43.8735538" lon="12.6114804"><ele>266.4</ele><time>2026-04-06T11:28:36.687Z</time></trkpt><trkpt lat="43.8735406" lon="12.6113596"><ele>268.0</ele><time>2026-04-06T11:28:37.688Z</time></trkpt><trkpt lat="43.8735234" lon="12.6112363"><ele>271.16666666666663</ele><time>2026-04-06T11:28:38.686Z</time></trkpt><trkpt lat="43.8735071" lon="12.6111147"><ele>274.3333333333333</ele><time>2026-04-06T11:28:39.685Z</time></trkpt><trkpt lat="43.8734926" lon="12.6109988"><ele>277.5</ele><time>2026-04-06T11:28:40.686Z</time></trkpt><trkpt lat="43.8734845" lon="12.6108884"><ele>280.6666666666667</ele><time>2026-04-06T11:28:41.686Z</time></trkpt><trkpt lat="43.8734826" lon="12.61079"><ele>283.83333333333337</ele><time>2026-04-06T11:28:42.687Z</time></trkpt><trkpt lat="43.8734841" lon="12.6106955"><ele>287.0</ele><time>2026-04-06T11:28:43.688Z</time></trkpt><trkpt lat="43.873495" lon="12.6106012"><ele>287.0</ele><time>2026-04-06T11:28:44.688Z</time></trkpt><trkpt lat="43.873516" lon="12.6104956"><ele>287.0</ele><time>2026-04-06T11:28:45.685Z</time></trkpt><trkpt lat="43.8735433" lon="12.6103802"><ele>287.0</ele><time>2026-04-06T11:28:46.686Z</time></trkpt><trkpt lat="43.8735743" lon="12.6102639"><ele>287.0</ele><time>2026-04-06T11:28:47.685Z</time></trkpt><trkpt lat="43.8736121" lon="12.6101473"><ele>287.0</ele><time>2026-04-06T11:28:48.686Z</time></trkpt><trkpt lat="43.8736581" lon="12.6100373"><ele>287.0</ele><time>2026-04-06T11:28:49.686Z</time></trkpt><trkpt lat="43.8737063" lon="12.6099343"><ele>290.2</ele><time>2026-04-06T11:28:50.684Z</time></trkpt><trkpt lat="43.8737563" lon="12.60983"><ele>293.4</ele><time>2026-04-06T11:28:51.686Z</time></trkpt><trkpt lat="43.8738064" lon="12.6097253"><ele>296.6</ele><time>2026-04-06T11:28:52.686Z</time></trkpt><trkpt lat="43.8738608" lon="12.6096248"><ele>299.8</ele><time>2026-04-06T11:28:53.684Z</time></trkpt><trkpt lat="43.8739233" lon="12.6095322"><ele>303.0</ele><time>2026-04-06T11:28:54.685Z</time></trkpt><trkpt lat="43.8739941" lon="12.6094406"><ele>304.1666666666667</ele><time>2026-04-06T11:28:55.686Z</time></trkpt><trkpt lat="43.8740665" lon="12.6093547"><ele>305.3333333333333</ele><time>2026-04-06T11:28:56.683Z</time></trkpt><trkpt lat="43.8741292" lon="12.6092763"><ele>306.5</ele><time>2026-04-06T11:28:57.685Z</time></trkpt><trkpt lat="43.8741852" lon="12.6092003"><ele>307.66666666666663</ele><time>2026-04-06T11:28:58.687Z</time></trkpt><trkpt lat="43.8742355" lon="12.6091396"><ele>308.8333333333333</ele><time>2026-04-06T11:28:59.685Z</time></trkpt><trkpt lat="43.874331" lon="12.6090735"><ele>310.0</ele><time>2026-04-06T11:29:01.687Z</time></trkpt><trkpt lat="43.8744243" lon="12.6090846"><ele>311.4</ele><time>2026-04-06T11:29:03.686Z</time></trkpt><trkpt lat="43.8745251" lon="12.6091057"><ele>312.8</ele><time>2026-04-06T11:29:05.685Z</time></trkpt><trkpt lat="43.8746031" lon="12.6090608"><ele>314.2</ele><time>2026-04-06T11:29:07.688Z</time></trkpt><trkpt lat="43.8746121" lon="12.608941"><ele>315.6</ele><time>2026-04-06T11:29:10.685Z</time></trkpt><trkpt lat="43.8745674" lon="12.6087934"><ele>317.0</ele><time>2026-04-06T11:29:12.686Z</time></trkpt><trkpt lat="43.8745397" lon="12.6086797"><ele>317.8</ele><time>2026-04-06T11:29:13.688Z</time></trkpt><trkpt lat="43.8745076" lon="12.608554"><ele>318.6</ele><time>2026-04-06T11:29:14.688Z</time></trkpt><trkpt lat="43.8744695" lon="12.6084322"><ele>319.40000000000003</ele><time>2026-04-06T11:29:15.686Z</time></trkpt><trkpt lat="43.8744341" lon="12.6083147"><ele>320.2</ele><time>2026-04-06T11:29:16.688Z</time></trkpt><trkpt lat="43.874403" lon="12.6082039"><ele>321.0</ele><time>2026-04-06T11:29:17.685Z</time></trkpt><trkpt lat="43.8743821" lon="12.6080906"><ele>321.0</ele><time>2026-04-06T11:29:18.687Z</time></trkpt><trkpt lat="43.874378" lon="12.607962"><ele>321.0</ele><time>2026-04-06T11:29:19.687Z</time></trkpt><trkpt lat="43.8743886" lon="12.6078235"><ele>321.0</ele><time>2026-04-06T11:29:20.683Z</time></trkpt><trkpt lat="43.8744079" lon="12.6076855"><ele>321.0</ele><time>2026-04-06T11:29:21.686Z</time></trkpt><trkpt lat="43.8744308" lon="12.6075522"><ele>321.0</ele><time>2026-04-06T11:29:22.686Z</time></trkpt><trkpt lat="43.8744512" lon="12.6074325"><ele>320.1666666666667</ele><time>2026-04-06T11:29:23.685Z</time></trkpt><trkpt lat="43.8744772" lon="12.6073229"><ele>319.3333333333333</ele><time>2026-04-06T11:29:24.686Z</time></trkpt><trkpt lat="43.8745088" lon="12.6072267"><ele>318.5</ele><time>2026-04-06T11:29:25.686Z</time></trkpt><trkpt lat="43.8745469" lon="12.6071388"><ele>317.66666666666663</ele><time>2026-04-06T11:29:26.685Z</time></trkpt><trkpt lat="43.8745919" lon="12.6070614"><ele>316.8333333333333</ele><time>2026-04-06T11:29:27.686Z</time></trkpt><trkpt lat="43.8746697" lon="12.6069632"><ele>316.0</ele><time>2026-04-06T11:29:29.688Z</time></trkpt><trkpt lat="43.8746933" lon="12.6068783"><ele>313.8571428571429</ele><time>2026-04-06T11:29:31.688Z</time></trkpt><trkpt lat="43.8747033" lon="12.6067867"><ele>311.7142857142857</ele><time>2026-04-06T11:29:33.685Z</time></trkpt><trkpt lat="43.8747" lon="12.6066983"><ele>309.57142857142856</ele><time>2026-04-06T11:29:36.686Z</time></trkpt><trkpt lat="43.8746483" lon="12.606595"><ele>307.42857142857144</ele><time>2026-04-06T11:29:38.688Z</time></trkpt><trkpt lat="43.8745917" lon="12.6065367"><ele>305.2857142857143</ele><time>2026-04-06T11:29:39.689Z</time></trkpt><trkpt lat="43.8745267" lon="12.6064783"><ele>303.14285714285717</ele><time>2026-04-06T11:29:40.688Z</time></trkpt><trkpt lat="43.87446" lon="12.6064217"><ele>301.0</ele><time>2026-04-06T11:29:41.688Z</time></trkpt><trkpt lat="43.8743933" lon="12.6063633"><ele>301.0</ele><time>2026-04-06T11:29:42.687Z</time></trkpt><trkpt lat="43.8743233" lon="12.6063033"><ele>301.0</ele><time>2026-04-06T11:29:43.688Z</time></trkpt><trkpt lat="43.8742517" lon="12.606245"><ele>301.0</ele><time>2026-04-06T11:29:44.684Z</time></trkpt><trkpt lat="43.874175" lon="12.6061867"><ele>301.0</ele><time>2026-04-06T11:29:45.684Z</time></trkpt><trkpt lat="43.8740883" lon="12.6061217"><ele>301.0</ele><time>2026-04-06T11:29:46.686Z</time></trkpt><trkpt lat="43.8739917" lon="12.6060483"><ele>299.5</ele><time>2026-04-06T11:29:47.686Z</time></trkpt><trkpt lat="43.87389" lon="12.6059733"><ele>298.0</ele><time>2026-04-06T11:29:48.686Z</time></trkpt><trkpt lat="43.8737767" lon="12.6058983"><ele>296.5</ele><time>2026-04-06T11:29:49.686Z</time></trkpt><trkpt lat="43.873655" lon="12.6058233"><ele>295.0</ele><time>2026-04-06T11:29:50.683Z</time></trkpt><trkpt lat="43.873535" lon="12.605745"><ele>295.0</ele><time>2026-04-06T11:29:51.685Z</time></trkpt><trkpt lat="43.8734183" lon="12.6056533"><ele>295.0</ele><time>2026-04-06T11:29:52.687Z</time></trkpt><trkpt lat="43.8733017" lon="12.60555"><ele>295.0</ele><time>2026-04-06T11:29:53.69Z</time></trkpt><trkpt lat="43.87319" lon="12.60544"><ele>295.0</ele><time>2026-04-06T11:29:54.687Z</time></trkpt><trkpt lat="43.8730733" lon="12.6053267"><ele>294.5</ele><time>2026-04-06T11:29:55.688Z</time></trkpt><trkpt lat="43.872955" lon="12.60522"><ele>294.0</ele><time>2026-04-06T11:29:56.687Z</time></trkpt><trkpt lat="43.872835" lon="12.6051283"><ele>293.5</ele><time>2026-04-06T11:29:57.683Z</time></trkpt><trkpt lat="43.872715" lon="12.6050483"><ele>293.0</ele><time>2026-04-06T11:29:58.686Z</time></trkpt><trkpt lat="43.8725933" lon="12.604975"><ele>293.0</ele><time>2026-04-06T11:29:59.685Z</time></trkpt><trkpt lat="43.8724617" lon="12.60492"><ele>293.0</ele><time>2026-04-06T11:30:00.686Z</time></trkpt><trkpt lat="43.8723233" lon="12.6048867"><ele>293.0</ele><time>2026-04-06T11:30:01.689Z</time></trkpt><trkpt lat="43.87218" lon="12.6048667"><ele>293.0</ele><time>2026-04-06T11:30:02.684Z</time></trkpt><trkpt lat="43.872035" lon="12.60486"><ele>293.0</ele><time>2026-04-06T11:30:03.684Z</time></trkpt><trkpt lat="43.8718883" lon="12.6048617"><ele>293.0</ele><time>2026-04-06T11:30:04.686Z</time></trkpt><trkpt lat="43.87174" lon="12.6048733"><ele>293.0</ele><time>2026-04-06T11:30:05.686Z</time></trkpt><trkpt lat="43.8715933" lon="12.604905"><ele>293.0</ele><time>2026-04-06T11:30:06.686Z</time></trkpt><trkpt lat="43.8714533" lon="12.6049567"><ele>293.0</ele><time>2026-04-06T11:30:07.686Z</time></trkpt><trkpt lat="43.8713167" lon="12.6050233"><ele>293.0</ele><time>2026-04-06T11:30:08.683Z</time></trkpt><trkpt lat="43.8711817" lon="12.6050883"><ele>293.0</ele><time>2026-04-06T11:30:09.685Z</time></trkpt><trkpt lat="43.87105" lon="12.60514"><ele>293.0</ele><time>2026-04-06T11:30:10.686Z</time></trkpt><trkpt lat="43.8709217" lon="12.60517"><ele>292.75</ele><time>2026-04-06T11:30:11.688Z</time></trkpt><trkpt lat="43.8708033" lon="12.6051767"><ele>292.5</ele><time>2026-04-06T11:30:12.686Z</time></trkpt><trkpt lat="43.8706833" lon="12.6051667"><ele>292.25</ele><time>2026-04-06T11:30:13.689Z</time></trkpt><trkpt lat="43.8705683" lon="12.605145"><ele>292.0</ele><time>2026-04-06T11:30:14.684Z</time></trkpt><trkpt lat="43.8704633" lon="12.6051183"><ele>292.0</ele><time>2026-04-06T11:30:15.685Z</time></trkpt><trkpt lat="43.8703683" lon="12.6050967"><ele>292.0</ele><time>2026-04-06T11:30:16.686Z</time></trkpt><trkpt lat="43.87028" lon="12.6050833"><ele>292.0</ele><time>2026-04-06T11:30:17.689Z</time></trkpt><trkpt lat="43.8701983" lon="12.60507"><ele>292.0</ele><time>2026-04-06T11:30:18.686Z</time></trkpt><trkpt lat="43.87012" lon="12.6050583"><ele>292.0</ele><time>2026-04-06T11:30:19.687Z</time></trkpt><trkpt lat="43.8700383" lon="12.6050467"><ele>292.0</ele><time>2026-04-06T11:30:20.688Z</time></trkpt><trkpt lat="43.86995" lon="12.6050333"><ele>291.16666666666663</ele><time>2026-04-06T11:30:21.686Z</time></trkpt><trkpt lat="43.8698567" lon="12.605025"><ele>290.3333333333333</ele><time>2026-04-06T11:30:22.687Z</time></trkpt><trkpt lat="43.86976" lon="12.60502"><ele>289.5</ele><time>2026-04-06T11:30:23.683Z</time></trkpt><trkpt lat="43.8696683" lon="12.60501"><ele>288.6666666666667</ele><time>2026-04-06T11:30:24.685Z</time></trkpt><trkpt lat="43.869585" lon="12.60499"><ele>287.83333333333337</ele><time>2026-04-06T11:30:25.686Z</time></trkpt><trkpt lat="43.86951" lon="12.604965"><ele>287.0</ele><time>2026-04-06T11:30:26.684Z</time></trkpt><trkpt lat="43.869445" lon="12.6049333"><ele>287.0</ele><time>2026-04-06T11:30:27.685Z</time></trkpt><trkpt lat="43.8693783" lon="12.604865"><ele>287.0</ele><time>2026-04-06T11:30:29.684Z</time></trkpt><trkpt lat="43.86945" lon="12.6047833"><ele>287.0</ele><time>2026-04-06T11:30:32.685Z</time></trkpt><trkpt lat="43.8695583" lon="12.60475"><ele>287.0</ele><time>2026-04-06T11:30:34.686Z</time></trkpt><trkpt lat="43.8696333" lon="12.6046667"><ele>287.0</ele><time>2026-04-06T11:30:36.686Z</time></trkpt><trkpt lat="43.8696417" lon="12.6045283"><ele>286.6</ele><time>2026-04-06T11:30:38.684Z</time></trkpt><trkpt lat="43.869555" lon="12.604405"><ele>286.2</ele><time>2026-04-06T11:30:40.687Z</time></trkpt><trkpt lat="43.8694817" lon="12.604345"><ele>285.8</ele><time>2026-04-06T11:30:41.687Z</time></trkpt><trkpt lat="43.8694033" lon="12.6042717"><ele>285.4</ele><time>2026-04-06T11:30:42.686Z</time></trkpt><trkpt lat="43.869335" lon="12.6042017"><ele>285.0</ele><time>2026-04-06T11:30:43.689Z</time></trkpt><trkpt lat="43.8692567" lon="12.6041317"><ele>284.3333333333333</ele><time>2026-04-06T11:30:44.689Z</time></trkpt><trkpt lat="43.86918" lon="12.604065"><ele>283.6666666666667</ele><time>2026-04-06T11:30:45.686Z</time></trkpt><trkpt lat="43.869105" lon="12.6040033"><ele>283.0</ele><time>2026-04-06T11:30:46.686Z</time></trkpt><trkpt lat="43.8690317" lon="12.6039367"><ele>282.33333333333337</ele><time>2026-04-06T11:30:47.686Z</time></trkpt><trkpt lat="43.8689683" lon="12.6038733"><ele>281.6666666666667</ele><time>2026-04-06T11:30:48.685Z</time></trkpt><trkpt lat="43.8689133" lon="12.6037967"><ele>281.0</ele><time>2026-04-06T11:30:49.688Z</time></trkpt><trkpt lat="43.8688683" lon="12.6037083"><ele>279.33333333333337</ele><time>2026-04-06T11:30:50.686Z</time></trkpt><trkpt lat="43.8688283" lon="12.603615"><ele>277.6666666666667</ele><time>2026-04-06T11:30:51.686Z</time></trkpt><trkpt lat="43.86879" lon="12.6035167"><ele>276.0</ele><time>2026-04-06T11:30:52.686Z</time></trkpt><trkpt lat="43.8687617" lon="12.6034183"><ele>274.3333333333333</ele><time>2026-04-06T11:30:53.689Z</time></trkpt><trkpt lat="43.868745" lon="12.6033217"><ele>272.66666666666663</ele><time>2026-04-06T11:30:54.685Z</time></trkpt><trkpt lat="43.8687317" lon="12.6032133"><ele>271.0</ele><time>2026-04-06T11:30:55.687Z</time></trkpt><trkpt lat="43.8687233" lon="12.6030933"><ele>271.0</ele><time>2026-04-06T11:30:56.686Z</time></trkpt><trkpt lat="43.868715" lon="12.6029733"><ele>271.0</ele><time>2026-04-06T11:30:57.686Z</time></trkpt><trkpt lat="43.8687167" lon="12.602865"><ele>271.0</ele><time>2026-04-06T11:30:58.686Z</time></trkpt><trkpt lat="43.8687117" lon="12.6027717"><ele>271.0</ele><time>2026-04-06T11:30:59.687Z</time></trkpt><trkpt lat="43.8687017" lon="12.6026783"><ele>271.0</ele><time>2026-04-06T11:31:00.686Z</time></trkpt><trkpt lat="43.8686767" lon="12.60258"><ele>271.0</ele><time>2026-04-06T11:31:01.686Z</time></trkpt><trkpt lat="43.8686433" lon="12.6024883"><ele>269.66666666666663</ele><time>2026-04-06T11:31:02.685Z</time></trkpt><trkpt lat="43.868605" lon="12.6024"><ele>268.3333333333333</ele><time>2026-04-06T11:31:03.686Z</time></trkpt><trkpt lat="43.868565" lon="12.602315"><ele>267.0</ele><time>2026-04-06T11:31:04.686Z</time></trkpt><trkpt lat="43.8685217" lon="12.6022217"><ele>265.6666666666667</ele><time>2026-04-06T11:31:05.688Z</time></trkpt><trkpt lat="43.8684833" lon="12.6021267"><ele>264.33333333333337</ele><time>2026-04-06T11:31:06.686Z</time></trkpt><trkpt lat="43.86845" lon="12.60203"><ele>263.0</ele><time>2026-04-06T11:31:07.687Z</time></trkpt><trkpt lat="43.8684133" lon="12.6019333"><ele>263.0</ele><time>2026-04-06T11:31:08.685Z</time></trkpt><trkpt lat="43.868375" lon="12.6018383"><ele>263.0</ele><time>2026-04-06T11:31:09.684Z</time></trkpt><trkpt lat="43.8683367" lon="12.6017467"><ele>263.0</ele><time>2026-04-06T11:31:10.687Z</time></trkpt><trkpt lat="43.8683133" lon="12.6016617"><ele>263.0</ele><time>2026-04-06T11:31:11.69Z</time></trkpt><trkpt lat="43.8683283" lon="12.60149"><ele>263.0</ele><time>2026-04-06T11:31:13.689Z</time></trkpt><trkpt lat="43.868365" lon="12.6014117"><ele>263.0</ele><time>2026-04-06T11:31:14.688Z</time></trkpt><trkpt lat="43.8684183" lon="12.60135"><ele>261.0</ele><time>2026-04-06T11:31:15.688Z</time></trkpt><trkpt lat="43.8684783" lon="12.6013217"><ele>259.0</ele><time>2026-04-06T11:31:16.687Z</time></trkpt><trkpt lat="43.8685433" lon="12.60133"><ele>257.0</ele><time>2026-04-06T11:31:17.687Z</time></trkpt><trkpt lat="43.86866" lon="12.6014117"><ele>255.0</ele><time>2026-04-06T11:31:19.689Z</time></trkpt><trkpt lat="43.868765" lon="12.6014433"><ele>253.00000000000003</ele><time>2026-04-06T11:31:21.687Z</time></trkpt><trkpt lat="43.868825" lon="12.6013783"><ele>251.0</ele><time>2026-04-06T11:31:23.686Z</time></trkpt><trkpt lat="43.8688533" lon="12.6012067"><ele>249.83333333333334</ele><time>2026-04-06T11:31:25.689Z</time></trkpt><trkpt lat="43.8688767" lon="12.6011067"><ele>248.66666666666669</ele><time>2026-04-06T11:31:26.687Z</time></trkpt><trkpt lat="43.868895" lon="12.601"><ele>247.5</ele><time>2026-04-06T11:31:27.686Z</time></trkpt><trkpt lat="43.8689117" lon="12.60089"><ele>246.33333333333331</ele><time>2026-04-06T11:31:28.686Z</time></trkpt><trkpt lat="43.86893" lon="12.6007867"><ele>245.16666666666666</ele><time>2026-04-06T11:31:29.687Z</time></trkpt><trkpt lat="43.8689533" lon="12.6006833"><ele>244.0</ele><time>2026-04-06T11:31:30.686Z</time></trkpt><trkpt lat="43.8689783" lon="12.6005683"><ele>243.99999999999997</ele><time>2026-04-06T11:31:31.686Z</time></trkpt><trkpt lat="43.8689967" lon="12.6004583"><ele>244.0</ele><time>2026-04-06T11:31:32.686Z</time></trkpt><trkpt lat="43.86902" lon="12.6003433"><ele>244.0</ele><time>2026-04-06T11:31:33.686Z</time></trkpt><trkpt lat="43.8690433" lon="12.6002267"><ele>244.0</ele><time>2026-04-06T11:31:34.687Z</time></trkpt><trkpt lat="43.86906" lon="12.6001133"><ele>243.99999999999997</ele><time>2026-04-06T11:31:35.687Z</time></trkpt><trkpt lat="43.86908" lon="12.6"><ele>244.0</ele><time>2026-04-06T11:31:36.686Z</time></trkpt><trkpt lat="43.8690967" lon="12.599895"><ele>243.85714285714283</ele><time>2026-04-06T11:31:37.688Z</time></trkpt><trkpt lat="43.86911" lon="12.5997933"><ele>243.71428571428572</ele><time>2026-04-06T11:31:38.689Z</time></trkpt><trkpt lat="43.8691167" lon="12.5996967"><ele>243.57142857142856</ele><time>2026-04-06T11:31:39.686Z</time></trkpt><trkpt lat="43.86912" lon="12.5995933"><ele>243.42857142857142</ele><time>2026-04-06T11:31:40.688Z</time></trkpt><trkpt lat="43.8691133" lon="12.599485"><ele>243.28571428571428</ele><time>2026-04-06T11:31:41.685Z</time></trkpt><trkpt lat="43.8691033" lon="12.5993817"><ele>243.14285714285714</ele><time>2026-04-06T11:31:42.685Z</time></trkpt><trkpt lat="43.8690883" lon="12.5992867"><ele>243.0</ele><time>2026-04-06T11:31:43.686Z</time></trkpt><trkpt lat="43.86903" lon="12.5991583"><ele>241.60000000000002</ele><time>2026-04-06T11:31:45.687Z</time></trkpt><trkpt lat="43.86892" lon="12.5990917"><ele>240.20000000000002</ele><time>2026-04-06T11:31:47.686Z</time></trkpt><trkpt lat="43.8688417" lon="12.599075"><ele>238.8</ele><time>2026-04-06T11:31:48.687Z</time></trkpt><trkpt lat="43.8687483" lon="12.5990633"><ele>237.4</ele><time>2026-04-06T11:31:49.688Z</time></trkpt><trkpt lat="43.8686467" lon="12.5990533"><ele>236.0</ele><time>2026-04-06T11:31:50.688Z</time></trkpt><trkpt lat="43.8685517" lon="12.5990333"><ele>236.00000000000003</ele><time>2026-04-06T11:31:51.686Z</time></trkpt><trkpt lat="43.8684617" lon="12.5990183"><ele>236.0</ele><time>2026-04-06T11:31:52.686Z</time></trkpt><trkpt lat="43.8683783" lon="12.5990083"><ele>236.0</ele><time>2026-04-06T11:31:53.687Z</time></trkpt><trkpt lat="43.8682967" lon="12.5990017"><ele>236.0</ele><time>2026-04-06T11:31:54.687Z</time></trkpt><trkpt lat="43.8682233" lon="12.598995"><ele>236.00000000000003</ele><time>2026-04-06T11:31:55.688Z</time></trkpt><trkpt lat="43.8681583" lon="12.5989817"><ele>236.0</ele><time>2026-04-06T11:31:56.687Z</time></trkpt><trkpt lat="43.8680517" lon="12.5989217"><ele>236.00000000000003</ele><time>2026-04-06T11:31:58.685Z</time></trkpt><trkpt lat="43.86801" lon="12.5987933"><ele>236.0</ele><time>2026-04-06T11:32:00.685Z</time></trkpt><trkpt lat="43.86803" lon="12.5986983"><ele>236.0</ele><time>2026-04-06T11:32:01.687Z</time></trkpt><trkpt lat="43.8680717" lon="12.5985883"><ele>236.0</ele><time>2026-04-06T11:32:02.687Z</time></trkpt><trkpt lat="43.8681133" lon="12.5984783"><ele>236.00000000000003</ele><time>2026-04-06T11:32:03.686Z</time></trkpt><trkpt lat="43.86816" lon="12.5983867"><ele>236.0</ele><time>2026-04-06T11:32:04.687Z</time></trkpt><trkpt lat="43.86821" lon="12.5982983"><ele>234.50000000000003</ele><time>2026-04-06T11:32:05.687Z</time></trkpt><trkpt lat="43.8682667" lon="12.598215"><ele>233.0</ele><time>2026-04-06T11:32:06.685Z</time></trkpt><trkpt lat="43.8683233" lon="12.5981417"><ele>231.5</ele><time>2026-04-06T11:32:07.686Z</time></trkpt><trkpt lat="43.8683783" lon="12.59807"><ele>230.0</ele><time>2026-04-06T11:32:08.686Z</time></trkpt><trkpt lat="43.8684333" lon="12.597995"><ele>228.50000000000003</ele><time>2026-04-06T11:32:09.686Z</time></trkpt><trkpt lat="43.8684883" lon="12.5979217"><ele>227.0</ele><time>2026-04-06T11:32:10.688Z</time></trkpt><trkpt lat="43.868545" lon="12.5978517"><ele>225.50000000000003</ele><time>2026-04-06T11:32:11.687Z</time></trkpt><trkpt lat="43.8685967" lon="12.5977883"><ele>224.0</ele><time>2026-04-06T11:32:12.688Z</time></trkpt><trkpt lat="43.8686467" lon="12.5977233"><ele>222.5</ele><time>2026-04-06T11:32:13.687Z</time></trkpt><trkpt lat="43.8686983" lon="12.5976667"><ele>221.0</ele><time>2026-04-06T11:32:14.687Z</time></trkpt><trkpt lat="43.868755" lon="12.5976233"><ele>219.50000000000003</ele><time>2026-04-06T11:32:15.686Z</time></trkpt><trkpt lat="43.8688917" lon="12.5975933"><ele>218.0</ele><time>2026-04-06T11:32:17.687Z</time></trkpt><trkpt lat="43.8689717" lon="12.5975983"><ele>218.00000000000003</ele><time>2026-04-06T11:32:18.688Z</time></trkpt><trkpt lat="43.8690433" lon="12.59762"><ele>218.0</ele><time>2026-04-06T11:32:19.687Z</time></trkpt><trkpt lat="43.8691117" lon="12.597645"><ele>218.0</ele><time>2026-04-06T11:32:20.688Z</time></trkpt><trkpt lat="43.869175" lon="12.5976583"><ele>218.0</ele><time>2026-04-06T11:32:21.687Z</time></trkpt><trkpt lat="43.8692767" lon="12.5976333"><ele>218.00000000000003</ele><time>2026-04-06T11:32:23.684Z</time></trkpt><trkpt lat="43.869325" lon="12.5975167"><ele>218.0</ele><time>2026-04-06T11:32:25.689Z</time></trkpt><trkpt lat="43.8692733" lon="12.597365"><ele>218.00000000000003</ele><time>2026-04-06T11:32:27.685Z</time></trkpt><trkpt lat="43.8692317" lon="12.5972883"><ele>218.0</ele><time>2026-04-06T11:32:28.687Z</time></trkpt><trkpt lat="43.8691917" lon="12.5972117"><ele>218.0</ele><time>2026-04-06T11:32:29.688Z</time></trkpt><trkpt lat="43.86916" lon="12.597135"><ele>218.0</ele><time>2026-04-06T11:32:30.687Z</time></trkpt><trkpt lat="43.869145" lon="12.59699"><ele>218.00000000000003</ele><time>2026-04-06T11:32:32.688Z</time></trkpt><trkpt lat="43.8692233" lon="12.5968817"><ele>218.0</ele><time>2026-04-06T11:32:34.686Z</time></trkpt><trkpt lat="43.8692833" lon="12.596835"><ele>216.50000000000003</ele><time>2026-04-06T11:32:35.688Z</time></trkpt><trkpt lat="43.8693417" lon="12.5967933"><ele>215.0</ele><time>2026-04-06T11:32:36.687Z</time></trkpt><trkpt lat="43.8693983" lon="12.5966717"><ele>213.5</ele><time>2026-04-06T11:32:38.686Z</time></trkpt><trkpt lat="43.8693633" lon="12.596545"><ele>212.0</ele><time>2026-04-06T11:32:40.687Z</time></trkpt><trkpt lat="43.8693133" lon="12.596485"><ele>210.50000000000003</ele><time>2026-04-06T11:32:41.686Z</time></trkpt><trkpt lat="43.8692583" lon="12.59644"><ele>209.0</ele><time>2026-04-06T11:32:42.687Z</time></trkpt><trkpt lat="43.869155" lon="12.5963583"><ele>209.00000000000003</ele><time>2026-04-06T11:32:44.687Z</time></trkpt><trkpt lat="43.8691117" lon="12.5962633"><ele>209.0</ele><time>2026-04-06T11:32:46.688Z</time></trkpt><trkpt lat="43.8691917" lon="12.59617"><ele>209.0</ele><time>2026-04-06T11:32:48.686Z</time></trkpt><trkpt lat="43.869245" lon="12.596115"><ele>209.0</ele><time>2026-04-06T11:32:49.687Z</time></trkpt><trkpt lat="43.8693183" lon="12.5960483"><ele>209.00000000000003</ele><time>2026-04-06T11:32:50.688Z</time></trkpt><trkpt lat="43.8693817" lon="12.59598"><ele>209.0</ele><time>2026-04-06T11:32:51.688Z</time></trkpt><trkpt lat="43.8694383" lon="12.5959117"><ele>206.33333333333334</ele><time>2026-04-06T11:32:52.686Z</time></trkpt><trkpt lat="43.8694883" lon="12.59584"><ele>203.66666666666669</ele><time>2026-04-06T11:32:53.69Z</time></trkpt><trkpt lat="43.8695267" lon="12.5957683"><ele>201.0</ele><time>2026-04-06T11:32:54.687Z</time></trkpt><trkpt lat="43.8695567" lon="12.5956117"><ele>198.33333333333331</ele><time>2026-04-06T11:32:56.686Z</time></trkpt><trkpt lat="43.8695417" lon="12.59552"><ele>195.66666666666666</ele><time>2026-04-06T11:32:57.686Z</time></trkpt><trkpt lat="43.8695117" lon="12.5954367"><ele>193.0</ele><time>2026-04-06T11:32:58.687Z</time></trkpt><trkpt lat="43.8694267" lon="12.5953133"><ele>192.2</ele><time>2026-04-06T11:33:00.687Z</time></trkpt><trkpt lat="43.8693233" lon="12.59526"><ele>191.4</ele><time>2026-04-06T11:33:02.684Z</time></trkpt><trkpt lat="43.86919" lon="12.5952933"><ele>190.6</ele><time>2026-04-06T11:33:04.687Z</time></trkpt><trkpt lat="43.86913" lon="12.5953333"><ele>189.79999999999998</ele><time>2026-04-06T11:33:05.687Z</time></trkpt><trkpt lat="43.869015" lon="12.5954167"><ele>189.0</ele><time>2026-04-06T11:33:07.688Z</time></trkpt><trkpt lat="43.868955" lon="12.595455"><ele>189.0</ele><time>2026-04-06T11:33:08.684Z</time></trkpt><trkpt lat="43.8688917" lon="12.595485"><ele>189.0</ele><time>2026-04-06T11:33:09.685Z</time></trkpt><trkpt lat="43.868785" lon="12.59545"><ele>189.0</ele><time>2026-04-06T11:33:11.686Z</time></trkpt><trkpt lat="43.8687167" lon="12.5953117"><ele>189.0</ele><time>2026-04-06T11:33:13.689Z</time></trkpt><trkpt lat="43.8686833" lon="12.59522"><ele>189.0</ele><time>2026-04-06T11:33:14.686Z</time></trkpt><trkpt lat="43.8686567" lon="12.5951283"><ele>189.0</ele><time>2026-04-06T11:33:15.686Z</time></trkpt><trkpt lat="43.8686333" lon="12.595035"><ele>189.0</ele><time>2026-04-06T11:33:16.687Z</time></trkpt><trkpt lat="43.8685883" lon="12.5948817"><ele>189.0</ele><time>2026-04-06T11:33:18.685Z</time></trkpt><trkpt lat="43.8686033" lon="12.594735"><ele>189.0</ele><time>2026-04-06T11:33:20.687Z</time></trkpt><trkpt lat="43.8686817" lon="12.5946367"><ele>189.0</ele><time>2026-04-06T11:33:22.685Z</time></trkpt><trkpt lat="43.868785" lon="12.5946067"><ele>189.0</ele><time>2026-04-06T11:33:24.687Z</time></trkpt><trkpt lat="43.8688633" lon="12.5945667"><ele>186.83333333333334</ele><time>2026-04-06T11:33:26.686Z</time></trkpt><trkpt lat="43.86889" lon="12.5944617"><ele>184.66666666666666</ele><time>2026-04-06T11:33:28.686Z</time></trkpt><trkpt lat="43.8688733" lon="12.5943133"><ele>182.5</ele><time>2026-04-06T11:33:30.685Z</time></trkpt><trkpt lat="43.8688567" lon="12.594225"><ele>180.33333333333331</ele><time>2026-04-06T11:33:31.686Z</time></trkpt><trkpt lat="43.868835" lon="12.5941367"><ele>178.16666666666666</ele><time>2026-04-06T11:33:32.685Z</time></trkpt><trkpt lat="43.8688017" lon="12.59405"><ele>176.0</ele><time>2026-04-06T11:33:33.685Z</time></trkpt><trkpt lat="43.86876" lon="12.5939733"><ele>176.0</ele><time>2026-04-06T11:33:34.686Z</time></trkpt><trkpt lat="43.8687117" lon="12.5939083"><ele>176.0</ele><time>2026-04-06T11:33:35.687Z</time></trkpt><trkpt lat="43.8686567" lon="12.593855"><ele>176.0</ele><time>2026-04-06T11:33:36.687Z</time></trkpt><trkpt lat="43.868545" lon="12.5938017"><ele>176.0</ele><time>2026-04-06T11:33:38.686Z</time></trkpt><trkpt lat="43.8684217" lon="12.59382"><ele>176.0</ele><time>2026-04-06T11:33:40.687Z</time></trkpt><trkpt lat="43.868355" lon="12.5938583"><ele>176.0</ele><time>2026-04-06T11:33:41.685Z</time></trkpt><trkpt lat="43.8682917" lon="12.5939033"><ele>176.33333333333331</ele><time>2026-04-06T11:33:42.688Z</time></trkpt><trkpt lat="43.8682317" lon="12.5939433"><ele>176.66666666666666</ele><time>2026-04-06T11:33:43.689Z</time></trkpt><trkpt lat="43.868115" lon="12.5939767"><ele>177.0</ele><time>2026-04-06T11:33:45.685Z</time></trkpt><trkpt lat="43.8679983" lon="12.5939333"><ele>177.33333333333334</ele><time>2026-04-06T11:33:47.687Z</time></trkpt><trkpt lat="43.8679383" lon="12.5938883"><ele>177.66666666666669</ele><time>2026-04-06T11:33:48.686Z</time></trkpt><trkpt lat="43.8678817" lon="12.59384"><ele>178.0</ele><time>2026-04-06T11:33:49.687Z</time></trkpt><trkpt lat="43.8678283" lon="12.5937883"><ele>178.0</ele><time>2026-04-06T11:33:50.687Z</time></trkpt><trkpt lat="43.86772" lon="12.5937167"><ele>178.0</ele><time>2026-04-06T11:33:52.686Z</time></trkpt><trkpt lat="43.8675983" lon="12.5937183"><ele>178.0</ele><time>2026-04-06T11:33:54.687Z</time></trkpt><trkpt lat="43.8675417" lon="12.5937583"><ele>178.0</ele><time>2026-04-06T11:33:55.688Z</time></trkpt><trkpt lat="43.867455" lon="12.593875"><ele>178.0</ele><time>2026-04-06T11:33:57.684Z</time></trkpt><trkpt lat="43.867385" lon="12.594015"><ele>176.4</ele><time>2026-04-06T11:33:59.685Z</time></trkpt><trkpt lat="43.8673517" lon="12.5940933"><ele>174.8</ele><time>2026-04-06T11:34:00.685Z</time></trkpt><trkpt lat="43.8672833" lon="12.59422"><ele>173.2</ele><time>2026-04-06T11:34:02.685Z</time></trkpt><trkpt lat="43.8672" lon="12.5942767"><ele>171.6</ele><time>2026-04-06T11:34:04.685Z</time></trkpt><trkpt lat="43.86712" lon="12.5942333"><ele>170.0</ele><time>2026-04-06T11:34:06.686Z</time></trkpt><trkpt lat="43.8670283" lon="12.5941"><ele>170.0</ele><time>2026-04-06T11:34:08.685Z</time></trkpt><trkpt lat="43.8669883" lon="12.5940017"><ele>170.0</ele><time>2026-04-06T11:34:09.684Z</time></trkpt><trkpt lat="43.8669533" lon="12.5939"><ele>170.0</ele><time>2026-04-06T11:34:10.687Z</time></trkpt><trkpt lat="43.8669067" lon="12.5938217"><ele>170.0</ele><time>2026-04-06T11:34:11.686Z</time></trkpt><trkpt lat="43.8668583" lon="12.593765"><ele>170.0</ele><time>2026-04-06T11:34:12.686Z</time></trkpt><trkpt lat="43.8667533" lon="12.5937617"><ele>170.0</ele><time>2026-04-06T11:34:14.686Z</time></trkpt><trkpt lat="43.866645" lon="12.5937717"><ele>170.0</ele><time>2026-04-06T11:34:16.686Z</time></trkpt><trkpt lat="43.8665683" lon="12.5936767"><ele>170.0</ele><time>2026-04-06T11:34:18.686Z</time></trkpt><trkpt lat="43.866545" lon="12.5935833"><ele>170.0</ele><time>2026-04-06T11:34:19.688Z</time></trkpt><trkpt lat="43.866535" lon="12.59347"><ele>170.0</ele><time>2026-04-06T11:34:20.686Z</time></trkpt><trkpt lat="43.8665217" lon="12.5933767"><ele>170.0</ele><time>2026-04-06T11:34:21.685Z</time></trkpt><trkpt lat="43.8665183" lon="12.593205"><ele>170.0</ele><time>2026-04-06T11:34:23.687Z</time></trkpt><trkpt lat="43.8665017" lon="12.5930483"><ele>169.0</ele><time>2026-04-06T11:34:25.686Z</time></trkpt><trkpt lat="43.8664833" lon="12.592925"><ele>168.0</ele><time>2026-04-06T11:34:27.684Z</time></trkpt><trkpt lat="43.8664533" lon="12.5927717"><ele>167.0</ele><time>2026-04-06T11:34:29.686Z</time></trkpt><trkpt lat="43.8664533" lon="12.5926683"><ele>166.0</ele><time>2026-04-06T11:34:30.685Z</time></trkpt><trkpt lat="43.8664517" lon="12.59256"><ele>165.0</ele><time>2026-04-06T11:34:31.686Z</time></trkpt><trkpt lat="43.8664483" lon="12.5924433"><ele>164.0</ele><time>2026-04-06T11:34:32.686Z</time></trkpt><trkpt lat="43.866445" lon="12.5923183"><ele>163.16666666666666</ele><time>2026-04-06T11:34:33.684Z</time></trkpt><trkpt lat="43.8664417" lon="12.5921933"><ele>162.33333333333331</ele><time>2026-04-06T11:34:34.685Z</time></trkpt><trkpt lat="43.8664383" lon="12.5920667"><ele>161.5</ele><time>2026-04-06T11:34:35.687Z</time></trkpt><trkpt lat="43.8664267" lon="12.5919433"><ele>160.66666666666666</ele><time>2026-04-06T11:34:36.686Z</time></trkpt><trkpt lat="43.8664133" lon="12.59183"><ele>159.83333333333334</ele><time>2026-04-06T11:34:37.687Z</time></trkpt><trkpt lat="43.8664033" lon="12.591735"><ele>159.0</ele><time>2026-04-06T11:34:38.686Z</time></trkpt><trkpt lat="43.8663833" lon="12.59165"><ele>158.5</ele><time>2026-04-06T11:34:39.685Z</time></trkpt><trkpt lat="43.8663517" lon="12.5915683"><ele>158.0</ele><time>2026-04-06T11:34:40.685Z</time></trkpt><trkpt lat="43.8663033" lon="12.5914933"><ele>157.5</ele><time>2026-04-06T11:34:41.687Z</time></trkpt><trkpt lat="43.8662467" lon="12.5914217"><ele>157.0</ele><time>2026-04-06T11:34:42.686Z</time></trkpt><trkpt lat="43.86618" lon="12.5913483"><ele>156.5</ele><time>2026-04-06T11:34:43.688Z</time></trkpt><trkpt lat="43.866105" lon="12.5912783"><ele>156.0</ele><time>2026-04-06T11:34:44.686Z</time></trkpt><trkpt lat="43.8660283" lon="12.5912133"><ele>156.0</ele><time>2026-04-06T11:34:45.686Z</time></trkpt><trkpt lat="43.8659583" lon="12.591155"><ele>156.0</ele><time>2026-04-06T11:34:46.685Z</time></trkpt><trkpt lat="43.8658883" lon="12.5910983"><ele>156.0</ele><time>2026-04-06T11:34:47.687Z</time></trkpt><trkpt lat="43.86582" lon="12.5910433"><ele>156.0</ele><time>2026-04-06T11:34:48.686Z</time></trkpt><trkpt lat="43.8657517" lon="12.5909867"><ele>156.0</ele><time>2026-04-06T11:34:49.687Z</time></trkpt><trkpt lat="43.86569" lon="12.59093"><ele>156.0</ele><time>2026-04-06T11:34:50.686Z</time></trkpt><trkpt lat="43.8656333" lon="12.59088"><ele>156.0</ele><time>2026-04-06T11:34:51.685Z</time></trkpt><trkpt lat="43.8655333" lon="12.590795"><ele>156.0</ele><time>2026-04-06T11:34:53.689Z</time></trkpt><trkpt lat="43.8654433" lon="12.5907083"><ele>156.0</ele><time>2026-04-06T11:34:55.688Z</time></trkpt><trkpt lat="43.86539" lon="12.5906533"><ele>156.0</ele><time>2026-04-06T11:34:56.685Z</time></trkpt><trkpt lat="43.8653267" lon="12.59059"><ele>156.0</ele><time>2026-04-06T11:34:57.685Z</time></trkpt><trkpt lat="43.865255" lon="12.5905183"><ele>156.0</ele><time>2026-04-06T11:34:58.686Z</time></trkpt><trkpt lat="43.86518" lon="12.5904367"><ele>156.0</ele><time>2026-04-06T11:34:59.685Z</time></trkpt><trkpt lat="43.8651033" lon="12.5903417"><ele>156.0</ele><time>2026-04-06T11:35:00.688Z</time></trkpt><trkpt lat="43.86504" lon="12.5902433"><ele>156.0</ele><time>2026-04-06T11:35:01.687Z</time></trkpt><trkpt lat="43.8649867" lon="12.5901483"><ele>156.0</ele><time>2026-04-06T11:35:02.685Z</time></trkpt><trkpt lat="43.86494" lon="12.590055"><ele>156.2</ele><time>2026-04-06T11:35:03.685Z</time></trkpt><trkpt lat="43.8648967" lon="12.5899733"><ele>156.39999999999998</ele><time>2026-04-06T11:35:04.686Z</time></trkpt><trkpt lat="43.864855" lon="12.5898983"><ele>156.6</ele><time>2026-04-06T11:35:05.684Z</time></trkpt><trkpt lat="43.86479" lon="12.5897667"><ele>156.79999999999998</ele><time>2026-04-06T11:35:07.685Z</time></trkpt><trkpt lat="43.8647433" lon="12.58963"><ele>157.0</ele><time>2026-04-06T11:35:09.684Z</time></trkpt><trkpt lat="43.8647633" lon="12.5894417"><ele>157.0</ele><time>2026-04-06T11:35:11.686Z</time></trkpt><trkpt lat="43.8647783" lon="12.589335"><ele>157.0</ele><time>2026-04-06T11:35:12.688Z</time></trkpt><trkpt lat="43.8647917" lon="12.5892183"><ele>157.0</ele><time>2026-04-06T11:35:13.686Z</time></trkpt><trkpt lat="43.864805" lon="12.5890917"><ele>157.0</ele><time>2026-04-06T11:35:14.685Z</time></trkpt><trkpt lat="43.8648217" lon="12.5889517"><ele>157.0</ele><time>2026-04-06T11:35:15.685Z</time></trkpt><trkpt lat="43.8648417" lon="12.588815"><ele>157.0</ele><time>2026-04-06T11:35:16.685Z</time></trkpt><trkpt lat="43.86487" lon="12.588685"><ele>157.0</ele><time>2026-04-06T11:35:17.686Z</time></trkpt><trkpt lat="43.86491" lon="12.5885633"><ele>157.0</ele><time>2026-04-06T11:35:18.686Z</time></trkpt><trkpt lat="43.864945" lon="12.5884567"><ele>157.0</ele><time>2026-04-06T11:35:19.688Z</time></trkpt><trkpt lat="43.864975" lon="12.5883533"><ele>157.0</ele><time>2026-04-06T11:35:20.684Z</time></trkpt><trkpt lat="43.86499" lon="12.5882417"><ele>157.0</ele><time>2026-04-06T11:35:21.684Z</time></trkpt><trkpt lat="43.864995" lon="12.5881267"><ele>156.66666666666669</ele><time>2026-04-06T11:35:22.686Z</time></trkpt><trkpt lat="43.8649917" lon="12.58801"><ele>156.33333333333334</ele><time>2026-04-06T11:35:23.689Z</time></trkpt><trkpt lat="43.8649867" lon="12.587895"><ele>156.0</ele><time>2026-04-06T11:35:24.686Z</time></trkpt><trkpt lat="43.8649917" lon="12.58778"><ele>155.66666666666666</ele><time>2026-04-06T11:35:25.688Z</time></trkpt><trkpt lat="43.864985" lon="12.5876683"><ele>155.33333333333331</ele><time>2026-04-06T11:35:26.685Z</time></trkpt><trkpt lat="43.8649533" lon="12.5875567"><ele>155.0</ele><time>2026-04-06T11:35:27.684Z</time></trkpt><trkpt lat="43.8649" lon="12.5874517"><ele>155.8</ele><time>2026-04-06T11:35:28.686Z</time></trkpt><trkpt lat="43.8648183" lon="12.5873433"><ele>156.6</ele><time>2026-04-06T11:35:29.687Z</time></trkpt><trkpt lat="43.8647367" lon="12.587235"><ele>157.4</ele><time>2026-04-06T11:35:30.686Z</time></trkpt><trkpt lat="43.8646567" lon="12.5871333"><ele>158.2</ele><time>2026-04-06T11:35:31.687Z</time></trkpt><trkpt lat="43.8645967" lon="12.5870383"><ele>159.0</ele><time>2026-04-06T11:35:32.686Z</time></trkpt><trkpt lat="43.86455" lon="12.5869383"><ele>161.6</ele><time>2026-04-06T11:35:33.686Z</time></trkpt><trkpt lat="43.8645133" lon="12.5868233"><ele>164.2</ele><time>2026-04-06T11:35:34.686Z</time></trkpt><trkpt lat="43.8644983" lon="12.5866883"><ele>166.79999999999998</ele><time>2026-04-06T11:35:35.687Z</time></trkpt><trkpt lat="43.8644767" lon="12.586535"><ele>169.4</ele><time>2026-04-06T11:35:36.686Z</time></trkpt><trkpt lat="43.8644567" lon="12.586385"><ele>172.0</ele><time>2026-04-06T11:35:37.686Z</time></trkpt><trkpt lat="43.8644417" lon="12.58625"><ele>173.5</ele><time>2026-04-06T11:35:38.686Z</time></trkpt><trkpt lat="43.8644317" lon="12.5861317"><ele>175.0</ele><time>2026-04-06T11:35:39.684Z</time></trkpt><trkpt lat="43.8644333" lon="12.586025"><ele>176.5</ele><time>2026-04-06T11:35:40.686Z</time></trkpt><trkpt lat="43.864445" lon="12.5859267"><ele>178.0</ele><time>2026-04-06T11:35:41.689Z</time></trkpt><trkpt lat="43.8644817" lon="12.5858233"><ele>179.5</ele><time>2026-04-06T11:35:42.687Z</time></trkpt><trkpt lat="43.8645283" lon="12.5857217"><ele>181.0</ele><time>2026-04-06T11:35:43.688Z</time></trkpt><trkpt lat="43.8645617" lon="12.5856233"><ele>181.0</ele><time>2026-04-06T11:35:44.687Z</time></trkpt><trkpt lat="43.8645717" lon="12.5855317"><ele>181.0</ele><time>2026-04-06T11:35:45.686Z</time></trkpt><trkpt lat="43.8645733" lon="12.585435"><ele>181.0</ele><time>2026-04-06T11:35:46.686Z</time></trkpt><trkpt lat="43.864485" lon="12.5853233"><ele>181.0</ele><time>2026-04-06T11:35:48.686Z</time></trkpt><trkpt lat="43.8644017" lon="12.585295"><ele>181.0</ele><time>2026-04-06T11:35:49.688Z</time></trkpt><trkpt lat="43.8643083" lon="12.5852617"><ele>181.0</ele><time>2026-04-06T11:35:50.687Z</time></trkpt><trkpt lat="43.864195" lon="12.5852267"><ele>180.75</ele><time>2026-04-06T11:35:51.687Z</time></trkpt><trkpt lat="43.8640783" lon="12.5851967"><ele>180.5</ele><time>2026-04-06T11:35:52.687Z</time></trkpt><trkpt lat="43.8639583" lon="12.5851933"><ele>180.25</ele><time>2026-04-06T11:35:53.689Z</time></trkpt><trkpt lat="43.8638383" lon="12.585215"><ele>180.0</ele><time>2026-04-06T11:35:54.686Z</time></trkpt><trkpt lat="43.8637117" lon="12.5852417"><ele>180.0</ele><time>2026-04-06T11:35:55.688Z</time></trkpt><trkpt lat="43.86359" lon="12.5852567"><ele>180.0</ele><time>2026-04-06T11:35:56.686Z</time></trkpt><trkpt lat="43.863475" lon="12.585255"><ele>180.0</ele><time>2026-04-06T11:35:57.685Z</time></trkpt><trkpt lat="43.8633633" lon="12.5852333"><ele>180.0</ele><time>2026-04-06T11:35:58.685Z</time></trkpt><trkpt lat="43.8632567" lon="12.5851883"><ele>182.25</ele><time>2026-04-06T11:35:59.687Z</time></trkpt><trkpt lat="43.863145" lon="12.5851183"><ele>184.5</ele><time>2026-04-06T11:36:00.686Z</time></trkpt><trkpt lat="43.8630283" lon="12.5850417"><ele>186.75</ele><time>2026-04-06T11:36:01.687Z</time></trkpt><trkpt lat="43.8629067" lon="12.584975"><ele>189.0</ele><time>2026-04-06T11:36:02.686Z</time></trkpt><trkpt lat="43.8627817" lon="12.584915"><ele>189.0</ele><time>2026-04-06T11:36:03.686Z</time></trkpt><trkpt lat="43.8626533" lon="12.5848583"><ele>189.0</ele><time>2026-04-06T11:36:04.685Z</time></trkpt><trkpt lat="43.862525" lon="12.5848083"><ele>189.0</ele><time>2026-04-06T11:36:05.687Z</time></trkpt><trkpt lat="43.862405" lon="12.5847517"><ele>189.0</ele><time>2026-04-06T11:36:06.686Z</time></trkpt><trkpt lat="43.8622917" lon="12.58468"><ele>187.6</ele><time>2026-04-06T11:36:07.686Z</time></trkpt><trkpt lat="43.8621833" lon="12.5845917"><ele>186.2</ele><time>2026-04-06T11:36:08.685Z</time></trkpt><trkpt lat="43.8620817" lon="12.584505"><ele>184.79999999999998</ele><time>2026-04-06T11:36:09.686Z</time></trkpt><trkpt lat="43.8620017" lon="12.5844267"><ele>183.39999999999998</ele><time>2026-04-06T11:36:10.688Z</time></trkpt><trkpt lat="43.861945" lon="12.5843517"><ele>182.0</ele><time>2026-04-06T11:36:11.685Z</time></trkpt><trkpt lat="43.861915" lon="12.58427"><ele>186.6</ele><time>2026-04-06T11:36:12.688Z</time></trkpt><trkpt lat="43.861935" lon="12.5841267"><ele>191.2</ele><time>2026-04-06T11:36:14.685Z</time></trkpt><trkpt lat="43.8620517" lon="12.5840233"><ele>195.8</ele><time>2026-04-06T11:36:16.686Z</time></trkpt><trkpt lat="43.862145" lon="12.58401"><ele>200.4</ele><time>2026-04-06T11:36:17.686Z</time></trkpt><trkpt lat="43.8622383" lon="12.5840117"><ele>205.0</ele><time>2026-04-06T11:36:18.685Z</time></trkpt><trkpt lat="43.8623367" lon="12.5840417"><ele>205.0</ele><time>2026-04-06T11:36:19.685Z</time></trkpt><trkpt lat="43.8624533" lon="12.5840983"><ele>205.0</ele><time>2026-04-06T11:36:20.685Z</time></trkpt><trkpt lat="43.8625783" lon="12.5841817"><ele>205.0</ele><time>2026-04-06T11:36:21.687Z</time></trkpt><trkpt lat="43.8627133" lon="12.5842633"><ele>205.0</ele><time>2026-04-06T11:36:22.686Z</time></trkpt><trkpt lat="43.8628433" lon="12.5843383"><ele>208.0</ele><time>2026-04-06T11:36:23.684Z</time></trkpt><trkpt lat="43.8629683" lon="12.5844033"><ele>211.0</ele><time>2026-04-06T11:36:24.687Z</time></trkpt><trkpt lat="43.8630767" lon="12.5844633"><ele>214.0</ele><time>2026-04-06T11:36:25.687Z</time></trkpt><trkpt lat="43.86318" lon="12.584515"><ele>217.0</ele><time>2026-04-06T11:36:26.684Z</time></trkpt><trkpt lat="43.8632667" lon="12.584565"><ele>216.99999999999997</ele><time>2026-04-06T11:36:27.685Z</time></trkpt><trkpt lat="43.8633433" lon="12.5845917"><ele>217.0</ele><time>2026-04-06T11:36:28.686Z</time></trkpt><trkpt lat="43.86341" lon="12.5845867"><ele>217.0</ele><time>2026-04-06T11:36:29.685Z</time></trkpt><trkpt lat="43.86347" lon="12.5845"><ele>217.0</ele><time>2026-04-06T11:36:31.688Z</time></trkpt><trkpt lat="43.863445" lon="12.5843833"><ele>216.99999999999997</ele><time>2026-04-06T11:36:33.686Z</time></trkpt><trkpt lat="43.86334" lon="12.5842967"><ele>217.0</ele><time>2026-04-06T11:36:35.687Z</time></trkpt><trkpt lat="43.86326" lon="12.5842583"><ele>217.0</ele><time>2026-04-06T11:36:36.686Z</time></trkpt><trkpt lat="43.8631733" lon="12.584205"><ele>217.0</ele><time>2026-04-06T11:36:37.688Z</time></trkpt><trkpt lat="43.8630733" lon="12.584145"><ele>217.0</ele><time>2026-04-06T11:36:38.684Z</time></trkpt><trkpt lat="43.8629733" lon="12.5840833"><ele>217.0</ele><time>2026-04-06T11:36:39.685Z</time></trkpt><trkpt lat="43.8628683" lon="12.584005"><ele>217.0</ele><time>2026-04-06T11:36:40.687Z</time></trkpt><trkpt lat="43.862765" lon="12.5839133"><ele>217.0</ele><time>2026-04-06T11:36:41.688Z</time></trkpt><trkpt lat="43.8626567" lon="12.5838167"><ele>217.0</ele><time>2026-04-06T11:36:42.686Z</time></trkpt><trkpt lat="43.8625417" lon="12.583705"><ele>217.0</ele><time>2026-04-06T11:36:43.687Z</time></trkpt><trkpt lat="43.8624283" lon="12.5835883"><ele>217.0</ele><time>2026-04-06T11:36:44.688Z</time></trkpt><trkpt lat="43.8623167" lon="12.58347"><ele>220.5</ele><time>2026-04-06T11:36:45.688Z</time></trkpt><trkpt lat="43.8622083" lon="12.5833583"><ele>224.0</ele><time>2026-04-06T11:36:46.688Z</time></trkpt><trkpt lat="43.8621017" lon="12.5832467"><ele>227.5</ele><time>2026-04-06T11:36:47.688Z</time></trkpt><trkpt lat="43.8619983" lon="12.5831383"><ele>231.0</ele><time>2026-04-06T11:36:48.687Z</time></trkpt><trkpt lat="43.8618933" lon="12.583035"><ele>231.5</ele><time>2026-04-06T11:36:49.686Z</time></trkpt><trkpt lat="43.86178" lon="12.5829317"><ele>232.0</ele><time>2026-04-06T11:36:50.683Z</time></trkpt><trkpt lat="43.8616683" lon="12.5828183"><ele>232.5</ele><time>2026-04-06T11:36:51.687Z</time></trkpt><trkpt lat="43.8615633" lon="12.5826917"><ele>233.0</ele><time>2026-04-06T11:36:52.688Z</time></trkpt><trkpt lat="43.86146" lon="12.58256"><ele>233.0</ele><time>2026-04-06T11:36:53.687Z</time></trkpt><trkpt lat="43.861355" lon="12.5824367"><ele>233.0</ele><time>2026-04-06T11:36:54.686Z</time></trkpt><trkpt lat="43.8612517" lon="12.5823233"><ele>233.0</ele><time>2026-04-06T11:36:55.689Z</time></trkpt><trkpt lat="43.8611533" lon="12.5822233"><ele>233.0</ele><time>2026-04-06T11:36:56.684Z</time></trkpt><trkpt lat="43.8610817" lon="12.58213"><ele>233.00000000000003</ele><time>2026-04-06T11:36:57.685Z</time></trkpt><trkpt lat="43.8610267" lon="12.5820483"><ele>233.0</ele><time>2026-04-06T11:36:58.686Z</time></trkpt><trkpt lat="43.860995" lon="12.5819633"><ele>233.0</ele><time>2026-04-06T11:36:59.685Z</time></trkpt><trkpt lat="43.86099" lon="12.581875"><ele>233.0</ele><time>2026-04-06T11:37:00.686Z</time></trkpt><trkpt lat="43.8610167" lon="12.5817767"><ele>233.00000000000003</ele><time>2026-04-06T11:37:01.688Z</time></trkpt><trkpt lat="43.861065" lon="12.581665"><ele>233.0</ele><time>2026-04-06T11:37:02.685Z</time></trkpt><trkpt lat="43.8611217" lon="12.5815533"><ele>236.60000000000002</ele><time>2026-04-06T11:37:03.686Z</time></trkpt><trkpt lat="43.8611733" lon="12.581455"><ele>240.20000000000002</ele><time>2026-04-06T11:37:04.688Z</time></trkpt><trkpt lat="43.8612267" lon="12.5813883"><ele>243.8</ele><time>2026-04-06T11:37:05.686Z</time></trkpt><trkpt lat="43.86133" lon="12.5813717"><ele>247.4</ele><time>2026-04-06T11:37:07.688Z</time></trkpt><trkpt lat="43.8613983" lon="12.581425"><ele>251.0</ele><time>2026-04-06T11:37:09.685Z</time></trkpt><trkpt lat="43.8613883" lon="12.581615"><ele>251.0</ele><time>2026-04-06T11:37:11.686Z</time></trkpt><trkpt lat="43.861385" lon="12.5817183"><ele>251.00000000000003</ele><time>2026-04-06T11:37:12.686Z</time></trkpt><trkpt lat="43.8613833" lon="12.5818283"><ele>251.00000000000003</ele><time>2026-04-06T11:37:13.686Z</time></trkpt><trkpt lat="43.861395" lon="12.5819517"><ele>251.0</ele><time>2026-04-06T11:37:15.687Z</time></trkpt><trkpt lat="43.861455" lon="12.5818083"><ele>251.0</ele><time>2026-04-06T11:37:18.686Z</time></trkpt><trkpt lat="43.86148" lon="12.58169"><ele>251.0</ele><time>2026-04-06T11:37:19.686Z</time></trkpt><trkpt lat="43.8615083" lon="12.5815517"><ele>251.0</ele><time>2026-04-06T11:37:20.685Z</time></trkpt><trkpt lat="43.8615517" lon="12.5813867"><ele>251.0</ele><time>2026-04-06T11:37:21.686Z</time></trkpt><trkpt lat="43.86159" lon="12.5812167"><ele>251.0</ele><time>2026-04-06T11:37:22.686Z</time></trkpt><trkpt lat="43.8616317" lon="12.5810483"><ele>250.5</ele><time>2026-04-06T11:37:23.69Z</time></trkpt><trkpt lat="43.8616867" lon="12.5808883"><ele>250.0</ele><time>2026-04-06T11:37:24.688Z</time></trkpt><trkpt lat="43.8617333" lon="12.58073"><ele>249.5</ele><time>2026-04-06T11:37:25.688Z</time></trkpt><trkpt lat="43.8617733" lon="12.5805717"><ele>249.0</ele><time>2026-04-06T11:37:26.687Z</time></trkpt><trkpt lat="43.8618117" lon="12.5804217"><ele>252.42857142857142</ele><time>2026-04-06T11:37:27.685Z</time></trkpt><trkpt lat="43.861845" lon="12.5803017"><ele>255.85714285714283</ele><time>2026-04-06T11:37:28.687Z</time></trkpt><trkpt lat="43.8618783" lon="12.5802083"><ele>259.2857142857143</ele><time>2026-04-06T11:37:29.687Z</time></trkpt><trkpt lat="43.8619233" lon="12.580135"><ele>262.7142857142857</ele><time>2026-04-06T11:37:30.687Z</time></trkpt><trkpt lat="43.8619817" lon="12.580095"><ele>266.1428571428571</ele><time>2026-04-06T11:37:31.689Z</time></trkpt><trkpt lat="43.8620483" lon="12.58009"><ele>269.57142857142856</ele><time>2026-04-06T11:37:32.687Z</time></trkpt><trkpt lat="43.8621117" lon="12.5801317"><ele>273.0</ele><time>2026-04-06T11:37:33.688Z</time></trkpt><trkpt lat="43.8621617" lon="12.5801867"><ele>273.0</ele><time>2026-04-06T11:37:34.687Z</time></trkpt><trkpt lat="43.862195" lon="12.5802667"><ele>273.0</ele><time>2026-04-06T11:37:35.683Z</time></trkpt><trkpt lat="43.8622033" lon="12.5803667"><ele>273.0</ele><time>2026-04-06T11:37:36.686Z</time></trkpt><trkpt lat="43.8622" lon="12.5804833"><ele>273.0</ele><time>2026-04-06T11:37:37.687Z</time></trkpt><trkpt lat="43.8621867" lon="12.580625"><ele>273.0</ele><time>2026-04-06T11:37:38.685Z</time></trkpt><trkpt lat="43.8621717" lon="12.580795"><ele>273.25</ele><time>2026-04-06T11:37:39.685Z</time></trkpt><trkpt lat="43.8621583" lon="12.5809667"><ele>273.5</ele><time>2026-04-06T11:37:40.69Z</time></trkpt><trkpt lat="43.86214" lon="12.58114"><ele>273.75</ele><time>2026-04-06T11:37:41.688Z</time></trkpt><trkpt lat="43.8621167" lon="12.5813"><ele>274.0</ele><time>2026-04-06T11:37:42.686Z</time></trkpt><trkpt lat="43.8621067" lon="12.5814233"><ele>274.0</ele><time>2026-04-06T11:37:43.688Z</time></trkpt><trkpt lat="43.862105" lon="12.58153"><ele>274.0</ele><time>2026-04-06T11:37:44.685Z</time></trkpt><trkpt lat="43.8621133" lon="12.5816317"><ele>274.0</ele><time>2026-04-06T11:37:45.686Z</time></trkpt><trkpt lat="43.86214" lon="12.5817233"><ele>274.0</ele><time>2026-04-06T11:37:46.687Z</time></trkpt><trkpt lat="43.8621817" lon="12.581795"><ele>274.0</ele><time>2026-04-06T11:37:47.687Z</time></trkpt><trkpt lat="43.86225" lon="12.58185"><ele>274.0</ele><time>2026-04-06T11:37:48.684Z</time></trkpt><trkpt lat="43.86235" lon="12.5818983"><ele>274.0</ele><time>2026-04-06T11:37:49.686Z</time></trkpt><trkpt lat="43.8624417" lon="12.581955"><ele>274.0</ele><time>2026-04-06T11:37:50.685Z</time></trkpt><trkpt lat="43.8625433" lon="12.5820133"><ele>274.0</ele><time>2026-04-06T11:37:51.684Z</time></trkpt><trkpt lat="43.862645" lon="12.5820833"><ele>274.0</ele><time>2026-04-06T11:37:52.686Z</time></trkpt><trkpt lat="43.862755" lon="12.58216"><ele>274.0</ele><time>2026-04-06T11:37:53.687Z</time></trkpt><trkpt lat="43.8628583" lon="12.5822367"><ele>272.8333333333333</ele><time>2026-04-06T11:37:54.686Z</time></trkpt><trkpt lat="43.862955" lon="12.58229"><ele>271.66666666666663</ele><time>2026-04-06T11:37:55.686Z</time></trkpt><trkpt lat="43.8630417" lon="12.5823183"><ele>270.5</ele><time>2026-04-06T11:37:56.684Z</time></trkpt><trkpt lat="43.8631283" lon="12.5823217"><ele>269.3333333333333</ele><time>2026-04-06T11:37:57.686Z</time></trkpt><trkpt lat="43.8632067" lon="12.5822983"><ele>268.1666666666667</ele><time>2026-04-06T11:37:58.685Z</time></trkpt><trkpt lat="43.8632867" lon="12.5822433"><ele>267.0</ele><time>2026-04-06T11:37:59.686Z</time></trkpt><trkpt lat="43.8633617" lon="12.582145"><ele>267.0</ele><time>2026-04-06T11:38:00.686Z</time></trkpt><trkpt lat="43.86344" lon="12.58202"><ele>267.0</ele><time>2026-04-06T11:38:01.686Z</time></trkpt><trkpt lat="43.8635167" lon="12.5818783"><ele>267.0</ele><time>2026-04-06T11:38:02.682Z</time></trkpt><trkpt lat="43.863595" lon="12.581745"><ele>267.0</ele><time>2026-04-06T11:38:03.686Z</time></trkpt><trkpt lat="43.8636733" lon="12.581615"><ele>266.1666666666667</ele><time>2026-04-06T11:38:04.685Z</time></trkpt><trkpt lat="43.8637417" lon="12.5814967"><ele>265.3333333333333</ele><time>2026-04-06T11:38:05.683Z</time></trkpt><trkpt lat="43.8638" lon="12.581395"><ele>264.5</ele><time>2026-04-06T11:38:06.685Z</time></trkpt><trkpt lat="43.8638433" lon="12.5813"><ele>263.66666666666663</ele><time>2026-04-06T11:38:07.686Z</time></trkpt><trkpt lat="43.863865" lon="12.5812133"><ele>262.8333333333333</ele><time>2026-04-06T11:38:08.683Z</time></trkpt><trkpt lat="43.86384" lon="12.5811017"><ele>262.0</ele><time>2026-04-06T11:38:10.684Z</time></trkpt><trkpt lat="43.8637283" lon="12.5811083"><ele>262.0</ele><time>2026-04-06T11:38:12.685Z</time></trkpt><trkpt lat="43.863655" lon="12.5811683"><ele>262.0</ele><time>2026-04-06T11:38:13.687Z</time></trkpt><trkpt lat="43.8635767" lon="12.581245"><ele>262.0</ele><time>2026-04-06T11:38:14.686Z</time></trkpt><trkpt lat="43.86347" lon="12.5813583"><ele>262.0</ele><time>2026-04-06T11:38:15.684Z</time></trkpt><trkpt lat="43.863385" lon="12.5814483"><ele>262.0</ele><time>2026-04-06T11:38:16.685Z</time></trkpt><trkpt lat="43.8632983" lon="12.5815233"><ele>266.0</ele><time>2026-04-06T11:38:17.685Z</time></trkpt><trkpt lat="43.8632083" lon="12.58158"><ele>270.0</ele><time>2026-04-06T11:38:18.685Z</time></trkpt><trkpt lat="43.86313" lon="12.5816067"><ele>274.0</ele><time>2026-04-06T11:38:19.686Z</time></trkpt><trkpt lat="43.863025" lon="12.5815717"><ele>278.0</ele><time>2026-04-06T11:38:21.687Z</time></trkpt><trkpt lat="43.8630033" lon="12.5814633"><ele>282.0</ele><time>2026-04-06T11:38:23.685Z</time></trkpt><trkpt lat="43.86302" lon="12.58136"><ele>286.0</ele><time>2026-04-06T11:38:24.685Z</time></trkpt><trkpt lat="43.86307" lon="12.58119"><ele>290.3333333333333</ele><time>2026-04-06T11:38:25.687Z</time></trkpt><trkpt lat="43.8631283" lon="12.5809833"><ele>294.6666666666667</ele><time>2026-04-06T11:38:26.686Z</time></trkpt><trkpt lat="43.8632117" lon="12.5807467"><ele>299.0</ele><time>2026-04-06T11:38:27.683Z</time></trkpt><trkpt lat="43.8632783" lon="12.5805333"><ele>299.0</ele><time>2026-04-06T11:38:28.683Z</time></trkpt><trkpt lat="43.863325" lon="12.5803533"><ele>299.0</ele><time>2026-04-06T11:38:29.686Z</time></trkpt><trkpt lat="43.8633717" lon="12.5801783"><ele>299.0</ele><time>2026-04-06T11:38:30.687Z</time></trkpt><trkpt lat="43.86342" lon="12.5800167"><ele>299.0</ele><time>2026-04-06T11:38:31.686Z</time></trkpt><trkpt lat="43.8634667" lon="12.5798667"><ele>301.5</ele><time>2026-04-06T11:38:32.685Z</time></trkpt><trkpt lat="43.8635217" lon="12.5797267"><ele>304.0</ele><time>2026-04-06T11:38:33.686Z</time></trkpt><trkpt lat="43.8635867" lon="12.579595"><ele>306.5</ele><time>2026-04-06T11:38:34.686Z</time></trkpt><trkpt lat="43.8636567" lon="12.579465"><ele>309.0</ele><time>2026-04-06T11:38:35.686Z</time></trkpt><trkpt lat="43.8637233" lon="12.5793383"><ele>311.75</ele><time>2026-04-06T11:38:36.685Z</time></trkpt><trkpt lat="43.8637817" lon="12.5792067"><ele>314.5</ele><time>2026-04-06T11:38:37.685Z</time></trkpt><trkpt lat="43.8638317" lon="12.5790667"><ele>317.25</ele><time>2026-04-06T11:38:38.686Z</time></trkpt><trkpt lat="43.86388" lon="12.57892"><ele>320.0</ele><time>2026-04-06T11:38:39.684Z</time></trkpt><trkpt lat="43.8639333" lon="12.5787683"><ele>319.75</ele><time>2026-04-06T11:38:40.686Z</time></trkpt><trkpt lat="43.8639933" lon="12.5786183"><ele>319.5</ele><time>2026-04-06T11:38:41.686Z</time></trkpt><trkpt lat="43.8640583" lon="12.57847"><ele>319.25</ele><time>2026-04-06T11:38:42.686Z</time></trkpt><trkpt lat="43.8641283" lon="12.5783317"><ele>319.0</ele><time>2026-04-06T11:38:43.687Z</time></trkpt><trkpt lat="43.864205" lon="12.57819"><ele>319.0</ele><time>2026-04-06T11:38:44.685Z</time></trkpt><trkpt lat="43.8642783" lon="12.5780533"><ele>319.0</ele><time>2026-04-06T11:38:45.685Z</time></trkpt><trkpt lat="43.8643483" lon="12.5779217"><ele>319.0</ele><time>2026-04-06T11:38:46.686Z</time></trkpt><trkpt lat="43.8644133" lon="12.5778017"><ele>319.0</ele><time>2026-04-06T11:38:47.686Z</time></trkpt><trkpt lat="43.8644683" lon="12.577705"><ele>319.0</ele><time>2026-04-06T11:38:48.686Z</time></trkpt><trkpt lat="43.8645117" lon="12.5776367"><ele>321.0</ele><time>2026-04-06T11:38:49.686Z</time></trkpt><trkpt lat="43.8645883" lon="12.57758"><ele>323.0</ele><time>2026-04-06T11:38:51.686Z</time></trkpt><trkpt lat="43.8646183" lon="12.5776717"><ele>325.0</ele><time>2026-04-06T11:38:53.686Z</time></trkpt><trkpt lat="43.8646133" lon="12.5777983"><ele>327.0</ele><time>2026-04-06T11:38:55.686Z</time></trkpt><trkpt lat="43.8645833" lon="12.5778967"><ele>329.0</ele><time>2026-04-06T11:38:56.684Z</time></trkpt><trkpt lat="43.864565" lon="12.57799"><ele>331.0</ele><time>2026-04-06T11:38:57.686Z</time></trkpt><trkpt lat="43.8645483" lon="12.57815"><ele>331.0</ele><time>2026-04-06T11:38:59.685Z</time></trkpt><trkpt lat="43.8645517" lon="12.5782433"><ele>331.0</ele><time>2026-04-06T11:39:01.685Z</time></trkpt><trkpt lat="43.86464" lon="12.5781817"><ele>331.0</ele><time>2026-04-06T11:39:04.686Z</time></trkpt><trkpt lat="43.8646867" lon="12.5781083"><ele>331.0</ele><time>2026-04-06T11:39:05.687Z</time></trkpt><trkpt lat="43.864735" lon="12.57802"><ele>331.0</ele><time>2026-04-06T11:39:06.685Z</time></trkpt><trkpt lat="43.86477" lon="12.5779283"><ele>331.0</ele><time>2026-04-06T11:39:07.686Z</time></trkpt><trkpt lat="43.8648033" lon="12.5778383"><ele>331.3333333333333</ele><time>2026-04-06T11:39:08.686Z</time></trkpt><trkpt lat="43.8648417" lon="12.5777433"><ele>331.66666666666663</ele><time>2026-04-06T11:39:09.684Z</time></trkpt><trkpt lat="43.8648817" lon="12.5776633"><ele>332.0</ele><time>2026-04-06T11:39:10.685Z</time></trkpt><trkpt lat="43.8649333" lon="12.5775917"><ele>332.3333333333333</ele><time>2026-04-06T11:39:11.686Z</time></trkpt><trkpt lat="43.8650017" lon="12.5775233"><ele>332.6666666666667</ele><time>2026-04-06T11:39:12.684Z</time></trkpt><trkpt lat="43.8650967" lon="12.577455"><ele>333.0</ele><time>2026-04-06T11:39:13.687Z</time></trkpt><trkpt lat="43.8652" lon="12.5773833"><ele>332.0</ele><time>2026-04-06T11:39:14.684Z</time></trkpt><trkpt lat="43.8653033" lon="12.5773117"><ele>331.0</ele><time>2026-04-06T11:39:15.686Z</time></trkpt><trkpt lat="43.8654033" lon="12.5772367"><ele>330.0</ele><time>2026-04-06T11:39:16.686Z</time></trkpt><trkpt lat="43.865505" lon="12.5771583"><ele>329.0</ele><time>2026-04-06T11:39:17.684Z</time></trkpt><trkpt lat="43.8656033" lon="12.5770783"><ele>330.33333333333337</ele><time>2026-04-06T11:39:18.685Z</time></trkpt><trkpt lat="43.8656917" lon="12.5769967"><ele>331.6666666666667</ele><time>2026-04-06T11:39:19.688Z</time></trkpt><trkpt lat="43.8657667" lon="12.5769133"><ele>333.0</ele><time>2026-04-06T11:39:20.685Z</time></trkpt><trkpt lat="43.8658317" lon="12.5768267"><ele>334.3333333333333</ele><time>2026-04-06T11:39:21.689Z</time></trkpt><trkpt lat="43.8658917" lon="12.5767517"><ele>335.66666666666663</ele><time>2026-04-06T11:39:22.686Z</time></trkpt><trkpt lat="43.86595" lon="12.5766883"><ele>337.0</ele><time>2026-04-06T11:39:23.687Z</time></trkpt><trkpt lat="43.8660117" lon="12.576655"><ele>338.40000000000003</ele><time>2026-04-06T11:39:24.686Z</time></trkpt><trkpt lat="43.86612" lon="12.5767017"><ele>339.8</ele><time>2026-04-06T11:39:26.686Z</time></trkpt><trkpt lat="43.8662217" lon="12.5768"><ele>341.2</ele><time>2026-04-06T11:39:28.686Z</time></trkpt><trkpt lat="43.8662867" lon="12.57683"><ele>342.6</ele><time>2026-04-06T11:39:29.687Z</time></trkpt><trkpt lat="43.866365" lon="12.576855"><ele>344.0</ele><time>2026-04-06T11:39:30.685Z</time></trkpt><trkpt lat="43.866455" lon="12.576865"><ele>344.0</ele><time>2026-04-06T11:39:31.686Z</time></trkpt><trkpt lat="43.8665467" lon="12.5768567"><ele>344.0</ele><time>2026-04-06T11:39:32.686Z</time></trkpt><trkpt lat="43.8666417" lon="12.5768283"><ele>344.0</ele><time>2026-04-06T11:39:33.685Z</time></trkpt><trkpt lat="43.866745" lon="12.5767817"><ele>344.0</ele><time>2026-04-06T11:39:34.686Z</time></trkpt><trkpt lat="43.8668533" lon="12.5767283"><ele>344.0</ele><time>2026-04-06T11:39:35.687Z</time></trkpt><trkpt lat="43.8669667" lon="12.5766667"><ele>340.79999999999995</ele><time>2026-04-06T11:39:36.687Z</time></trkpt><trkpt lat="43.8670817" lon="12.5765983"><ele>337.59999999999997</ele><time>2026-04-06T11:39:37.687Z</time></trkpt><trkpt lat="43.8671783" lon="12.576535"><ele>334.4</ele><time>2026-04-06T11:39:38.686Z</time></trkpt><trkpt lat="43.8672633" lon="12.57647"><ele>331.2</ele><time>2026-04-06T11:39:39.686Z</time></trkpt><trkpt lat="43.86733" lon="12.5763917"><ele>328.0</ele><time>2026-04-06T11:39:40.688Z</time></trkpt><trkpt lat="43.8673917" lon="12.576305"><ele>328.0</ele><time>2026-04-06T11:39:41.685Z</time></trkpt><trkpt lat="43.8674417" lon="12.5762333"><ele>328.0</ele><time>2026-04-06T11:39:42.686Z</time></trkpt><trkpt lat="43.8674933" lon="12.576175"><ele>328.0</ele><time>2026-04-06T11:39:43.687Z</time></trkpt><trkpt lat="43.8676183" lon="12.5761483"><ele>328.0</ele><time>2026-04-06T11:39:45.686Z</time></trkpt><trkpt lat="43.8677017" lon="12.5761467"><ele>328.0</ele><time>2026-04-06T11:39:46.686Z</time></trkpt><trkpt lat="43.8677917" lon="12.5761333"><ele>328.0</ele><time>2026-04-06T11:39:47.682Z</time></trkpt><trkpt lat="43.8678833" lon="12.5761033"><ele>331.79999999999995</ele><time>2026-04-06T11:39:48.686Z</time></trkpt><trkpt lat="43.8679817" lon="12.57606"><ele>335.6</ele><time>2026-04-06T11:39:49.685Z</time></trkpt><trkpt lat="43.8680817" lon="12.5760033"><ele>339.4</ele><time>2026-04-06T11:39:50.684Z</time></trkpt><trkpt lat="43.868185" lon="12.5759417"><ele>343.20000000000005</ele><time>2026-04-06T11:39:51.684Z</time></trkpt><trkpt lat="43.8682917" lon="12.5758817"><ele>347.0</ele><time>2026-04-06T11:39:52.685Z</time></trkpt><trkpt lat="43.8683983" lon="12.5758283"><ele>347.20000000000005</ele><time>2026-04-06T11:39:53.685Z</time></trkpt><trkpt lat="43.8685" lon="12.57577"><ele>347.4</ele><time>2026-04-06T11:39:54.686Z</time></trkpt><trkpt lat="43.868595" lon="12.575715"><ele>347.6</ele><time>2026-04-06T11:39:55.687Z</time></trkpt><trkpt lat="43.868685" lon="12.57565"><ele>347.79999999999995</ele><time>2026-04-06T11:39:56.684Z</time></trkpt><trkpt lat="43.8687683" lon="12.5755817"><ele>348.0</ele><time>2026-04-06T11:39:57.686Z</time></trkpt><trkpt lat="43.8688417" lon="12.5755233"><ele>348.0</ele><time>2026-04-06T11:39:58.685Z</time></trkpt><trkpt lat="43.8689067" lon="12.5754683"><ele>348.0</ele><time>2026-04-06T11:39:59.684Z</time></trkpt><trkpt lat="43.8689683" lon="12.5754233"><ele>348.0</ele><time>2026-04-06T11:40:00.686Z</time></trkpt><trkpt lat="43.8690317" lon="12.5753917"><ele>348.0</ele><time>2026-04-06T11:40:01.685Z</time></trkpt><trkpt lat="43.8690967" lon="12.5753867"><ele>348.0</ele><time>2026-04-06T11:40:02.684Z</time></trkpt><trkpt lat="43.8691667" lon="12.575395"><ele>348.0</ele><time>2026-04-06T11:40:03.687Z</time></trkpt><trkpt lat="43.869235" lon="12.5754433"><ele>348.0</ele><time>2026-04-06T11:40:04.687Z</time></trkpt><trkpt lat="43.869285" lon="12.57554"><ele>350.0</ele><time>2026-04-06T11:40:05.685Z</time></trkpt><trkpt lat="43.8693133" lon="12.575675"><ele>352.0</ele><time>2026-04-06T11:40:06.686Z</time></trkpt><trkpt lat="43.869355" lon="12.57579"><ele>354.0</ele><time>2026-04-06T11:40:07.686Z</time></trkpt><trkpt lat="43.8693967" lon="12.5759"><ele>356.0</ele><time>2026-04-06T11:40:08.682Z</time></trkpt><trkpt lat="43.8694383" lon="12.5760017"><ele>358.0</ele><time>2026-04-06T11:40:09.684Z</time></trkpt><trkpt lat="43.8694967" lon="12.5760883"><ele>358.0</ele><time>2026-04-06T11:40:10.686Z</time></trkpt><trkpt lat="43.869575" lon="12.5761733"><ele>358.0</ele><time>2026-04-06T11:40:11.688Z</time></trkpt><trkpt lat="43.8696733" lon="12.5762467"><ele>358.0</ele><time>2026-04-06T11:40:12.685Z</time></trkpt><trkpt lat="43.8697733" lon="12.57631"><ele>358.0</ele><time>2026-04-06T11:40:13.686Z</time></trkpt><trkpt lat="43.8698767" lon="12.5763767"><ele>358.0</ele><time>2026-04-06T11:40:14.684Z</time></trkpt><trkpt lat="43.8699833" lon="12.5764433"><ele>357.66666666666663</ele><time>2026-04-06T11:40:15.685Z</time></trkpt><trkpt lat="43.870075" lon="12.5764983"><ele>357.3333333333333</ele><time>2026-04-06T11:40:16.686Z</time></trkpt><trkpt lat="43.870155" lon="12.5765333"><ele>357.0</ele><time>2026-04-06T11:40:17.683Z</time></trkpt><trkpt lat="43.8702383" lon="12.57656"><ele>356.6666666666667</ele><time>2026-04-06T11:40:18.685Z</time></trkpt><trkpt lat="43.8703233" lon="12.5765833"><ele>356.33333333333337</ele><time>2026-04-06T11:40:19.686Z</time></trkpt><trkpt lat="43.8704083" lon="12.5766117"><ele>356.0</ele><time>2026-04-06T11:40:20.684Z</time></trkpt><trkpt lat="43.8704933" lon="12.576655"><ele>356.0</ele><time>2026-04-06T11:40:21.685Z</time></trkpt><trkpt lat="43.87056" lon="12.5767233"><ele>356.0</ele><time>2026-04-06T11:40:22.686Z</time></trkpt><trkpt lat="43.87062" lon="12.5768117"><ele>356.0</ele><time>2026-04-06T11:40:23.685Z</time></trkpt><trkpt lat="43.87066" lon="12.5769217"><ele>356.0</ele><time>2026-04-06T11:40:24.686Z</time></trkpt><trkpt lat="43.870685" lon="12.5770417"><ele>356.0</ele><time>2026-04-06T11:40:25.686Z</time></trkpt><trkpt lat="43.8707033" lon="12.577185"><ele>353.20000000000005</ele><time>2026-04-06T11:40:26.684Z</time></trkpt><trkpt lat="43.8707183" lon="12.5773317"><ele>350.40000000000003</ele><time>2026-04-06T11:40:27.685Z</time></trkpt><trkpt lat="43.870745" lon="12.5774733"><ele>347.6</ele><time>2026-04-06T11:40:28.688Z</time></trkpt><trkpt lat="43.8707867" lon="12.5776167"><ele>344.8</ele><time>2026-04-06T11:40:29.685Z</time></trkpt><trkpt lat="43.8708317" lon="12.5777583"><ele>342.0</ele><time>2026-04-06T11:40:30.686Z</time></trkpt><trkpt lat="43.8708667" lon="12.5779"><ele>341.8</ele><time>2026-04-06T11:40:31.686Z</time></trkpt><trkpt lat="43.8708783" lon="12.5780333"><ele>341.6</ele><time>2026-04-06T11:40:32.683Z</time></trkpt><trkpt lat="43.870875" lon="12.5781717"><ele>341.40000000000003</ele><time>2026-04-06T11:40:33.685Z</time></trkpt><trkpt lat="43.8708583" lon="12.5783283"><ele>341.20000000000005</ele><time>2026-04-06T11:40:34.686Z</time></trkpt><trkpt lat="43.870845" lon="12.5784833"><ele>341.0</ele><time>2026-04-06T11:40:35.687Z</time></trkpt><trkpt lat="43.870835" lon="12.5786417"><ele>340.6</ele><time>2026-04-06T11:40:36.687Z</time></trkpt><trkpt lat="43.870835" lon="12.57879"><ele>340.20000000000005</ele><time>2026-04-06T11:40:37.688Z</time></trkpt><trkpt lat="43.8708417" lon="12.57892"><ele>339.79999999999995</ele><time>2026-04-06T11:40:38.688Z</time></trkpt><trkpt lat="43.870865" lon="12.5790317"><ele>339.4</ele><time>2026-04-06T11:40:39.684Z</time></trkpt><trkpt lat="43.8709033" lon="12.5791333"><ele>339.0</ele><time>2026-04-06T11:40:40.685Z</time></trkpt><trkpt lat="43.8709583" lon="12.5792267"><ele>340.3333333333333</ele><time>2026-04-06T11:40:41.689Z</time></trkpt><trkpt lat="43.8710333" lon="12.5793083"><ele>341.6666666666667</ele><time>2026-04-06T11:40:42.685Z</time></trkpt><trkpt lat="43.8711133" lon="12.5793783"><ele>343.0</ele><time>2026-04-06T11:40:43.688Z</time></trkpt><trkpt lat="43.8711933" lon="12.5794333"><ele>344.33333333333337</ele><time>2026-04-06T11:40:44.686Z</time></trkpt><trkpt lat="43.8712683" lon="12.579475"><ele>345.6666666666667</ele><time>2026-04-06T11:40:45.686Z</time></trkpt><trkpt lat="43.8713383" lon="12.5794933"><ele>347.0</ele><time>2026-04-06T11:40:46.686Z</time></trkpt><trkpt lat="43.871405" lon="12.5794917"><ele>347.0</ele><time>2026-04-06T11:40:47.686Z</time></trkpt><trkpt lat="43.871535" lon="12.579445"><ele>347.0</ele><time>2026-04-06T11:40:49.685Z</time></trkpt><trkpt lat="43.8716133" lon="12.5794133"><ele>347.0</ele><time>2026-04-06T11:40:50.685Z</time></trkpt><trkpt lat="43.8717067" lon="12.57938"><ele>347.0</ele><time>2026-04-06T11:40:51.685Z</time></trkpt><trkpt lat="43.8718" lon="12.5793467"><ele>347.0</ele><time>2026-04-06T11:40:52.686Z</time></trkpt><trkpt lat="43.8718983" lon="12.57931"><ele>348.40000000000003</ele><time>2026-04-06T11:40:53.686Z</time></trkpt><trkpt lat="43.871995" lon="12.5792733"><ele>349.8</ele><time>2026-04-06T11:40:54.686Z</time></trkpt><trkpt lat="43.8720883" lon="12.5792383"><ele>351.2</ele><time>2026-04-06T11:40:55.686Z</time></trkpt><trkpt lat="43.8721867" lon="12.57921"><ele>352.6</ele><time>2026-04-06T11:40:56.685Z</time></trkpt><trkpt lat="43.8722883" lon="12.579175"><ele>354.0</ele><time>2026-04-06T11:40:57.685Z</time></trkpt><trkpt lat="43.8723883" lon="12.579135"><ele>354.0</ele><time>2026-04-06T11:40:58.687Z</time></trkpt><trkpt lat="43.8724833" lon="12.5791017"><ele>354.0</ele><time>2026-04-06T11:40:59.683Z</time></trkpt><trkpt lat="43.8725783" lon="12.5790717"><ele>354.0</ele><time>2026-04-06T11:41:00.686Z</time></trkpt><trkpt lat="43.87267" lon="12.579045"><ele>354.0</ele><time>2026-04-06T11:41:01.686Z</time></trkpt><trkpt lat="43.8727567" lon="12.5790317"><ele>354.0</ele><time>2026-04-06T11:41:02.685Z</time></trkpt><trkpt lat="43.8728483" lon="12.5790417"><ele>355.0</ele><time>2026-04-06T11:41:03.686Z</time></trkpt><trkpt lat="43.8729417" lon="12.579075"><ele>356.0</ele><time>2026-04-06T11:41:04.685Z</time></trkpt><trkpt lat="43.8730283" lon="12.5791067"><ele>357.0</ele><time>2026-04-06T11:41:05.685Z</time></trkpt><trkpt lat="43.8731067" lon="12.5791317"><ele>358.0</ele><time>2026-04-06T11:41:06.686Z</time></trkpt><trkpt lat="43.87319" lon="12.5791383"><ele>359.0</ele><time>2026-04-06T11:41:07.686Z</time></trkpt><trkpt lat="43.8732783" lon="12.5791283"><ele>360.0</ele><time>2026-04-06T11:41:08.685Z</time></trkpt><trkpt lat="43.87337" lon="12.579105"><ele>360.6</ele><time>2026-04-06T11:41:09.683Z</time></trkpt><trkpt lat="43.8734667" lon="12.5790667"><ele>361.2</ele><time>2026-04-06T11:41:10.685Z</time></trkpt><trkpt lat="43.8735667" lon="12.5790317"><ele>361.79999999999995</ele><time>2026-04-06T11:41:11.685Z</time></trkpt><trkpt lat="43.8736667" lon="12.5790033"><ele>362.4</ele><time>2026-04-06T11:41:12.687Z</time></trkpt><trkpt lat="43.873765" lon="12.57897"><ele>363.0</ele><time>2026-04-06T11:41:13.685Z</time></trkpt><trkpt lat="43.873865" lon="12.5789367"><ele>363.0</ele><time>2026-04-06T11:41:14.687Z</time></trkpt><trkpt lat="43.873965" lon="12.578895"><ele>363.0</ele><time>2026-04-06T11:41:15.684Z</time></trkpt><trkpt lat="43.8740633" lon="12.578855"><ele>363.0</ele><time>2026-04-06T11:41:16.687Z</time></trkpt><trkpt lat="43.8741633" lon="12.5788217"><ele>363.0</ele><time>2026-04-06T11:41:17.685Z</time></trkpt><trkpt lat="43.8742567" lon="12.5787883"><ele>363.0</ele><time>2026-04-06T11:41:18.686Z</time></trkpt><trkpt lat="43.8743433" lon="12.57875"><ele>363.2</ele><time>2026-04-06T11:41:19.686Z</time></trkpt><trkpt lat="43.874425" lon="12.5786983"><ele>363.4</ele><time>2026-04-06T11:41:20.684Z</time></trkpt><trkpt lat="43.8744917" lon="12.5786317"><ele>363.59999999999997</ele><time>2026-04-06T11:41:21.687Z</time></trkpt><trkpt lat="43.8745417" lon="12.5785617"><ele>363.79999999999995</ele><time>2026-04-06T11:41:22.687Z</time></trkpt><trkpt lat="43.8745783" lon="12.578425"><ele>364.0</ele><time>2026-04-06T11:41:24.686Z</time></trkpt><trkpt lat="43.8745233" lon="12.5782617"><ele>364.0</ele><time>2026-04-06T11:41:26.687Z</time></trkpt><trkpt lat="43.8744717" lon="12.5781583"><ele>364.0</ele><time>2026-04-06T11:41:27.684Z</time></trkpt><trkpt lat="43.8744" lon="12.5780333"><ele>364.0</ele><time>2026-04-06T11:41:28.686Z</time></trkpt><trkpt lat="43.8743283" lon="12.57791"><ele>364.0</ele><time>2026-04-06T11:41:29.687Z</time></trkpt><trkpt lat="43.8742533" lon="12.57779"><ele>364.0</ele><time>2026-04-06T11:41:30.685Z</time></trkpt><trkpt lat="43.87418" lon="12.577665"><ele>368.0</ele><time>2026-04-06T11:41:31.686Z</time></trkpt><trkpt lat="43.8741033" lon="12.5775433"><ele>372.0</ele><time>2026-04-06T11:41:32.688Z</time></trkpt><trkpt lat="43.8740333" lon="12.5774217"><ele>376.0</ele><time>2026-04-06T11:41:33.687Z</time></trkpt><trkpt lat="43.87397" lon="12.5773"><ele>380.0</ele><time>2026-04-06T11:41:34.685Z</time></trkpt><trkpt lat="43.8739083" lon="12.5771767"><ele>384.0</ele><time>2026-04-06T11:41:35.689Z</time></trkpt><trkpt lat="43.8738433" lon="12.5770567"><ele>382.0</ele><time>2026-04-06T11:41:36.685Z</time></trkpt><trkpt lat="43.87377" lon="12.5769383"><ele>380.0</ele><time>2026-04-06T11:41:37.687Z</time></trkpt><trkpt lat="43.873685" lon="12.576825"><ele>378.0</ele><time>2026-04-06T11:41:38.687Z</time></trkpt><trkpt lat="43.8736" lon="12.5767033"><ele>376.0</ele><time>2026-04-06T11:41:39.684Z</time></trkpt><trkpt lat="43.873515" lon="12.57658"><ele>377.8</ele><time>2026-04-06T11:41:40.685Z</time></trkpt><trkpt lat="43.873435" lon="12.57646"><ele>379.6</ele><time>2026-04-06T11:41:41.685Z</time></trkpt><trkpt lat="43.8733683" lon="12.5763383"><ele>381.4</ele><time>2026-04-06T11:41:42.685Z</time></trkpt><trkpt lat="43.873305" lon="12.5762317"><ele>383.2</ele><time>2026-04-06T11:41:43.69Z</time></trkpt><trkpt lat="43.8732483" lon="12.5761317"><ele>385.0</ele><time>2026-04-06T11:41:44.687Z</time></trkpt><trkpt lat="43.8732017" lon="12.5760417"><ele>385.00000000000006</ele><time>2026-04-06T11:41:45.687Z</time></trkpt><trkpt lat="43.8731633" lon="12.575955"><ele>385.0</ele><time>2026-04-06T11:41:46.687Z</time></trkpt><trkpt lat="43.87312" lon="12.575865"><ele>385.0</ele><time>2026-04-06T11:41:47.686Z</time></trkpt><trkpt lat="43.873075" lon="12.5757683"><ele>385.0</ele><time>2026-04-06T11:41:48.686Z</time></trkpt><trkpt lat="43.8730267" lon="12.57566"><ele>385.00000000000006</ele><time>2026-04-06T11:41:49.688Z</time></trkpt><trkpt lat="43.8729683" lon="12.575535"><ele>385.0</ele><time>2026-04-06T11:41:50.684Z</time></trkpt><trkpt lat="43.8729033" lon="12.575395"><ele>384.2</ele><time>2026-04-06T11:41:51.686Z</time></trkpt><trkpt lat="43.8728383" lon="12.5752517"><ele>383.4</ele><time>2026-04-06T11:41:52.685Z</time></trkpt><trkpt lat="43.87278" lon="12.575125"><ele>382.6</ele><time>2026-04-06T11:41:53.689Z</time></trkpt><trkpt lat="43.872715" lon="12.5750117"><ele>381.8</ele><time>2026-04-06T11:41:54.685Z</time></trkpt><trkpt lat="43.87264" lon="12.5749183"><ele>381.0</ele><time>2026-04-06T11:41:55.686Z</time></trkpt><trkpt lat="43.8725633" lon="12.5748417"><ele>383.6</ele><time>2026-04-06T11:41:56.684Z</time></trkpt><trkpt lat="43.87248" lon="12.5747617"><ele>386.20000000000005</ele><time>2026-04-06T11:41:57.688Z</time></trkpt><trkpt lat="43.8723933" lon="12.5746717"><ele>388.79999999999995</ele><time>2026-04-06T11:41:58.686Z</time></trkpt><trkpt lat="43.872305" lon="12.574575"><ele>391.4</ele><time>2026-04-06T11:41:59.688Z</time></trkpt><trkpt lat="43.8722183" lon="12.574485"><ele>394.0</ele><time>2026-04-06T11:42:00.686Z</time></trkpt><trkpt lat="43.872135" lon="12.574385"><ele>396.75</ele><time>2026-04-06T11:42:01.686Z</time></trkpt><trkpt lat="43.8720533" lon="12.5742817"><ele>399.5</ele><time>2026-04-06T11:42:02.684Z</time></trkpt><trkpt lat="43.87197" lon="12.5741767"><ele>402.25</ele><time>2026-04-06T11:42:03.687Z</time></trkpt><trkpt lat="43.8718833" lon="12.574065"><ele>405.0</ele><time>2026-04-06T11:42:04.686Z</time></trkpt><trkpt lat="43.8717983" lon="12.5739533"><ele>405.2</ele><time>2026-04-06T11:42:05.688Z</time></trkpt><trkpt lat="43.8717083" lon="12.5738433"><ele>405.4</ele><time>2026-04-06T11:42:06.685Z</time></trkpt><trkpt lat="43.8716267" lon="12.57373"><ele>405.6</ele><time>2026-04-06T11:42:07.688Z</time></trkpt><trkpt lat="43.871555" lon="12.5736317"><ele>405.8</ele><time>2026-04-06T11:42:08.686Z</time></trkpt><trkpt lat="43.8715017" lon="12.5735217"><ele>406.0</ele><time>2026-04-06T11:42:09.686Z</time></trkpt><trkpt lat="43.871455" lon="12.5734017"><ele>408.0</ele><time>2026-04-06T11:42:10.687Z</time></trkpt><trkpt lat="43.87141" lon="12.5732583"><ele>410.0</ele><time>2026-04-06T11:42:11.686Z</time></trkpt><trkpt lat="43.8713633" lon="12.5731183"><ele>412.0</ele><time>2026-04-06T11:42:12.689Z</time></trkpt><trkpt lat="43.8713267" lon="12.572995"><ele>414.0</ele><time>2026-04-06T11:42:13.687Z</time></trkpt><trkpt lat="43.8712883" lon="12.5728717"><ele>416.0</ele><time>2026-04-06T11:42:14.687Z</time></trkpt><trkpt lat="43.871255" lon="12.5727467"><ele>417.0</ele><time>2026-04-06T11:42:15.685Z</time></trkpt><trkpt lat="43.87122" lon="12.5726067"><ele>418.0</ele><time>2026-04-06T11:42:16.688Z</time></trkpt><trkpt lat="43.8711817" lon="12.5724517"><ele>419.0</ele><time>2026-04-06T11:42:17.687Z</time></trkpt><trkpt lat="43.8711367" lon="12.5722967"><ele>420.0</ele><time>2026-04-06T11:42:18.687Z</time></trkpt><trkpt lat="43.87109" lon="12.572145"><ele>420.5</ele><time>2026-04-06T11:42:19.687Z</time></trkpt><trkpt lat="43.8710383" lon="12.5719933"><ele>421.0</ele><time>2026-04-06T11:42:20.685Z</time></trkpt><trkpt lat="43.8709917" lon="12.5718417"><ele>421.5</ele><time>2026-04-06T11:42:21.686Z</time></trkpt><trkpt lat="43.8709483" lon="12.5716933"><ele>422.0</ele><time>2026-04-06T11:42:22.688Z</time></trkpt><trkpt lat="43.870905" lon="12.5715433"><ele>422.0</ele><time>2026-04-06T11:42:23.687Z</time></trkpt><trkpt lat="43.8708717" lon="12.5714"><ele>422.0</ele><time>2026-04-06T11:42:24.686Z</time></trkpt><trkpt lat="43.870845" lon="12.5712583"><ele>422.0</ele><time>2026-04-06T11:42:25.688Z</time></trkpt><trkpt lat="43.8708233" lon="12.5711217"><ele>422.0</ele><time>2026-04-06T11:42:26.687Z</time></trkpt><trkpt lat="43.8708167" lon="12.57098"><ele>422.0</ele><time>2026-04-06T11:42:27.687Z</time></trkpt><trkpt lat="43.8708217" lon="12.5708317"><ele>421.8</ele><time>2026-04-06T11:42:28.687Z</time></trkpt><trkpt lat="43.87083" lon="12.5706817"><ele>421.6</ele><time>2026-04-06T11:42:29.683Z</time></trkpt><trkpt lat="43.8708333" lon="12.570535"><ele>421.40000000000003</ele><time>2026-04-06T11:42:30.685Z</time></trkpt><trkpt lat="43.8708333" lon="12.5703967"><ele>421.20000000000005</ele><time>2026-04-06T11:42:31.686Z</time></trkpt><trkpt lat="43.8708317" lon="12.5702583"><ele>421.0</ele><time>2026-04-06T11:42:32.684Z</time></trkpt><trkpt lat="43.8708283" lon="12.5701217"><ele>421.00000000000006</ele><time>2026-04-06T11:42:33.686Z</time></trkpt><trkpt lat="43.87083" lon="12.5700083"><ele>421.0</ele><time>2026-04-06T11:42:34.686Z</time></trkpt><trkpt lat="43.8708283" lon="12.5699167"><ele>421.0</ele><time>2026-04-06T11:42:35.685Z</time></trkpt><trkpt lat="43.8708267" lon="12.569825"><ele>421.0</ele><time>2026-04-06T11:42:36.686Z</time></trkpt><trkpt lat="43.87082" lon="12.5697283"><ele>421.00000000000006</ele><time>2026-04-06T11:42:37.688Z</time></trkpt><trkpt lat="43.8707967" lon="12.5696267"><ele>421.0</ele><time>2026-04-06T11:42:38.684Z</time></trkpt><trkpt lat="43.8707567" lon="12.5695117"><ele>421.75</ele><time>2026-04-06T11:42:39.686Z</time></trkpt><trkpt lat="43.8706983" lon="12.56938"><ele>422.5</ele><time>2026-04-06T11:42:40.686Z</time></trkpt><trkpt lat="43.8706367" lon="12.569245"><ele>423.25</ele><time>2026-04-06T11:42:41.689Z</time></trkpt><trkpt lat="43.870575" lon="12.5691083"><ele>424.0</ele><time>2026-04-06T11:42:42.687Z</time></trkpt><trkpt lat="43.870515" lon="12.5689767"><ele>424.0</ele><time>2026-04-06T11:42:43.686Z</time></trkpt><trkpt lat="43.870455" lon="12.5688467"><ele>424.0</ele><time>2026-04-06T11:42:44.687Z</time></trkpt><trkpt lat="43.870405" lon="12.5687217"><ele>424.0</ele><time>2026-04-06T11:42:45.687Z</time></trkpt><trkpt lat="43.8703617" lon="12.5686"><ele>424.0</ele><time>2026-04-06T11:42:46.687Z</time></trkpt><trkpt lat="43.87032" lon="12.5684817"><ele>424.0</ele><time>2026-04-06T11:42:47.687Z</time></trkpt><trkpt lat="43.8702783" lon="12.56836"><ele>423.4</ele><time>2026-04-06T11:42:48.687Z</time></trkpt><trkpt lat="43.8702283" lon="12.568235"><ele>422.79999999999995</ele><time>2026-04-06T11:42:49.688Z</time></trkpt><trkpt lat="43.870175" lon="12.5681"><ele>422.20000000000005</ele><time>2026-04-06T11:42:50.685Z</time></trkpt><trkpt lat="43.8701267" lon="12.5679617"><ele>421.6</ele><time>2026-04-06T11:42:51.688Z</time></trkpt><trkpt lat="43.870075" lon="12.5678183"><ele>421.0</ele><time>2026-04-06T11:42:52.687Z</time></trkpt><trkpt lat="43.870025" lon="12.56767"><ele>420.5</ele><time>2026-04-06T11:42:53.687Z</time></trkpt><trkpt lat="43.8699767" lon="12.5675183"><ele>420.0</ele><time>2026-04-06T11:42:54.686Z</time></trkpt><trkpt lat="43.869925" lon="12.5673683"><ele>419.5</ele><time>2026-04-06T11:42:55.687Z</time></trkpt><trkpt lat="43.8698733" lon="12.567215"><ele>419.0</ele><time>2026-04-06T11:42:56.687Z</time></trkpt><trkpt lat="43.8698183" lon="12.5670617"><ele>417.5</ele><time>2026-04-06T11:42:57.685Z</time></trkpt><trkpt lat="43.869765" lon="12.5669067"><ele>416.0</ele><time>2026-04-06T11:42:58.686Z</time></trkpt><trkpt lat="43.869715" lon="12.5667533"><ele>414.5</ele><time>2026-04-06T11:42:59.685Z</time></trkpt><trkpt lat="43.8696617" lon="12.5666017"><ele>413.0</ele><time>2026-04-06T11:43:00.686Z</time></trkpt><trkpt lat="43.8696067" lon="12.5664483"><ele>413.0</ele><time>2026-04-06T11:43:01.686Z</time></trkpt><trkpt lat="43.8695533" lon="12.5663"><ele>413.0</ele><time>2026-04-06T11:43:02.686Z</time></trkpt><trkpt lat="43.8694967" lon="12.5661533"><ele>413.0</ele><time>2026-04-06T11:43:03.686Z</time></trkpt><trkpt lat="43.8694433" lon="12.5660117"><ele>413.0</ele><time>2026-04-06T11:43:04.686Z</time></trkpt><trkpt lat="43.86939" lon="12.56588"><ele>411.79999999999995</ele><time>2026-04-06T11:43:05.686Z</time></trkpt><trkpt lat="43.86933" lon="12.565755"><ele>410.6</ele><time>2026-04-06T11:43:06.688Z</time></trkpt><trkpt lat="43.8692667" lon="12.5656317"><ele>409.4</ele><time>2026-04-06T11:43:07.689Z</time></trkpt><trkpt lat="43.869205" lon="12.5655117"><ele>408.20000000000005</ele><time>2026-04-06T11:43:08.685Z</time></trkpt><trkpt lat="43.869145" lon="12.5653917"><ele>407.0</ele><time>2026-04-06T11:43:09.685Z</time></trkpt><trkpt lat="43.869085" lon="12.5652683"><ele>411.8</ele><time>2026-04-06T11:43:10.688Z</time></trkpt><trkpt lat="43.8690283" lon="12.5651467"><ele>416.6</ele><time>2026-04-06T11:43:11.685Z</time></trkpt><trkpt lat="43.8689733" lon="12.5650233"><ele>421.40000000000003</ele><time>2026-04-06T11:43:12.684Z</time></trkpt><trkpt lat="43.8689183" lon="12.5649083"><ele>426.20000000000005</ele><time>2026-04-06T11:43:13.688Z</time></trkpt><trkpt lat="43.8688633" lon="12.5647933"><ele>431.0</ele><time>2026-04-06T11:43:14.687Z</time></trkpt><trkpt lat="43.8688117" lon="12.564675"><ele>430.99999999999994</ele><time>2026-04-06T11:43:15.686Z</time></trkpt><trkpt lat="43.8687617" lon="12.564555"><ele>431.0</ele><time>2026-04-06T11:43:16.687Z</time></trkpt><trkpt lat="43.8687117" lon="12.5644417"><ele>431.0</ele><time>2026-04-06T11:43:17.686Z</time></trkpt><trkpt lat="43.8686617" lon="12.5643367"><ele>431.0</ele><time>2026-04-06T11:43:18.686Z</time></trkpt><trkpt lat="43.8686167" lon="12.56424"><ele>430.99999999999994</ele><time>2026-04-06T11:43:19.688Z</time></trkpt><trkpt lat="43.8685817" lon="12.5641617"><ele>431.0</ele><time>2026-04-06T11:43:20.685Z</time></trkpt><trkpt lat="43.868545" lon="12.5640867"><ele>430.8333333333333</ele><time>2026-04-06T11:43:21.686Z</time></trkpt><trkpt lat="43.8685067" lon="12.5640033"><ele>430.66666666666663</ele><time>2026-04-06T11:43:22.687Z</time></trkpt><trkpt lat="43.868465" lon="12.5639"><ele>430.5</ele><time>2026-04-06T11:43:23.686Z</time></trkpt><trkpt lat="43.8684117" lon="12.5637867"><ele>430.33333333333337</ele><time>2026-04-06T11:43:24.685Z</time></trkpt><trkpt lat="43.868355" lon="12.56368"><ele>430.1666666666667</ele><time>2026-04-06T11:43:25.687Z</time></trkpt><trkpt lat="43.8682983" lon="12.563575"><ele>430.0</ele><time>2026-04-06T11:43:26.686Z</time></trkpt><trkpt lat="43.8682433" lon="12.5634767"><ele>431.2</ele><time>2026-04-06T11:43:27.687Z</time></trkpt><trkpt lat="43.8681817" lon="12.5633833"><ele>432.4</ele><time>2026-04-06T11:43:28.684Z</time></trkpt><trkpt lat="43.868115" lon="12.563285"><ele>433.6</ele><time>2026-04-06T11:43:29.689Z</time></trkpt><trkpt lat="43.868045" lon="12.563175"><ele>434.8</ele><time>2026-04-06T11:43:30.684Z</time></trkpt><trkpt lat="43.867985" lon="12.56307"><ele>436.0</ele><time>2026-04-06T11:43:31.686Z</time></trkpt><trkpt lat="43.8679217" lon="12.562975"><ele>436.0</ele><time>2026-04-06T11:43:32.686Z</time></trkpt><trkpt lat="43.867855" lon="12.5628833"><ele>436.0</ele><time>2026-04-06T11:43:33.686Z</time></trkpt><trkpt lat="43.8677833" lon="12.5627883"><ele>436.0</ele><time>2026-04-06T11:43:34.686Z</time></trkpt><trkpt lat="43.8677017" lon="12.5626983"><ele>436.0</ele><time>2026-04-06T11:43:35.688Z</time></trkpt><trkpt lat="43.8676067" lon="12.562615"><ele>436.0</ele><time>2026-04-06T11:43:36.685Z</time></trkpt><trkpt lat="43.8675067" lon="12.5625433"><ele>436.20000000000005</ele><time>2026-04-06T11:43:37.689Z</time></trkpt><trkpt lat="43.867405" lon="12.5624867"><ele>436.40000000000003</ele><time>2026-04-06T11:43:38.685Z</time></trkpt><trkpt lat="43.8673067" lon="12.5624367"><ele>436.6</ele><time>2026-04-06T11:43:39.687Z</time></trkpt><trkpt lat="43.867215" lon="12.5623917"><ele>436.8</ele><time>2026-04-06T11:43:40.686Z</time></trkpt><trkpt lat="43.8671283" lon="12.5623517"><ele>437.0</ele><time>2026-04-06T11:43:41.686Z</time></trkpt><trkpt lat="43.8670467" lon="12.5623133"><ele>436.99999999999994</ele><time>2026-04-06T11:43:42.686Z</time></trkpt><trkpt lat="43.8669683" lon="12.5622767"><ele>437.0</ele><time>2026-04-06T11:43:43.688Z</time></trkpt><trkpt lat="43.86689" lon="12.5622333"><ele>437.0</ele><time>2026-04-06T11:43:44.686Z</time></trkpt><trkpt lat="43.866815" lon="12.56219"><ele>437.0</ele><time>2026-04-06T11:43:45.685Z</time></trkpt><trkpt lat="43.8667417" lon="12.56215"><ele>436.99999999999994</ele><time>2026-04-06T11:43:46.687Z</time></trkpt><trkpt lat="43.8666683" lon="12.5621167"><ele>437.0</ele><time>2026-04-06T11:43:47.686Z</time></trkpt><trkpt lat="43.86658" lon="12.5620733"><ele>437.6</ele><time>2026-04-06T11:43:48.687Z</time></trkpt><trkpt lat="43.8664833" lon="12.5620267"><ele>438.20000000000005</ele><time>2026-04-06T11:43:49.687Z</time></trkpt><trkpt lat="43.8663867" lon="12.5619817"><ele>438.8</ele><time>2026-04-06T11:43:50.686Z</time></trkpt><trkpt lat="43.86629" lon="12.56193"><ele>439.4</ele><time>2026-04-06T11:43:51.684Z</time></trkpt><trkpt lat="43.866195" lon="12.56187"><ele>440.0</ele><time>2026-04-06T11:43:52.686Z</time></trkpt><trkpt lat="43.8661017" lon="12.56182"><ele>439.99999999999994</ele><time>2026-04-06T11:43:53.686Z</time></trkpt><trkpt lat="43.8660133" lon="12.561785"><ele>440.0</ele><time>2026-04-06T11:43:54.688Z</time></trkpt><trkpt lat="43.865945" lon="12.5617583"><ele>440.0</ele><time>2026-04-06T11:43:55.688Z</time></trkpt><trkpt lat="43.865855" lon="12.5617117"><ele>440.0</ele><time>2026-04-06T11:43:57.685Z</time></trkpt><trkpt lat="43.86578" lon="12.5616483"><ele>439.99999999999994</ele><time>2026-04-06T11:43:59.688Z</time></trkpt><trkpt lat="43.86572" lon="12.5616067"><ele>440.0</ele><time>2026-04-06T11:44:01.689Z</time></trkpt><trkpt lat="43.8656483" lon="12.5615783"><ele>439.66666666666663</ele><time>2026-04-06T11:44:04.686Z</time></trkpt><trkpt lat="43.8655767" lon="12.56155"><ele>439.3333333333333</ele><time>2026-04-06T11:44:06.685Z</time></trkpt><trkpt lat="43.8654633" lon="12.5614733"><ele>439.0</ele><time>2026-04-06T11:44:08.687Z</time></trkpt><trkpt lat="43.8653867" lon="12.561425"><ele>438.66666666666663</ele><time>2026-04-06T11:44:09.684Z</time></trkpt><trkpt lat="43.86531" lon="12.5613783"><ele>438.3333333333333</ele><time>2026-04-06T11:44:10.687Z</time></trkpt><trkpt lat="43.86524" lon="12.5613283"><ele>438.0</ele><time>2026-04-06T11:44:11.688Z</time></trkpt><trkpt lat="43.8651783" lon="12.5612667"><ele>439.0</ele><time>2026-04-06T11:44:12.687Z</time></trkpt><trkpt lat="43.8651267" lon="12.561185"><ele>440.0</ele><time>2026-04-06T11:44:13.686Z</time></trkpt><trkpt lat="43.8650833" lon="12.5611017"><ele>441.0</ele><time>2026-04-06T11:44:14.687Z</time></trkpt><trkpt lat="43.8650517" lon="12.5610117"><ele>442.0</ele><time>2026-04-06T11:44:15.685Z</time></trkpt><trkpt lat="43.8650233" lon="12.56092"><ele>443.0</ele><time>2026-04-06T11:44:16.688Z</time></trkpt><trkpt lat="43.8649967" lon="12.5608283"><ele>444.0</ele><time>2026-04-06T11:44:17.686Z</time></trkpt><trkpt lat="43.8649667" lon="12.560735"><ele>445.0</ele><time>2026-04-06T11:44:18.687Z</time></trkpt><trkpt lat="43.8649333" lon="12.5606333"><ele>445.00000000000006</ele><time>2026-04-06T11:44:19.688Z</time></trkpt><trkpt lat="43.8648967" lon="12.5605283"><ele>445.0</ele><time>2026-04-06T11:44:20.686Z</time></trkpt><trkpt lat="43.864855" lon="12.5604233"><ele>445.0</ele><time>2026-04-06T11:44:21.685Z</time></trkpt><trkpt lat="43.8648117" lon="12.560315"><ele>445.0</ele><time>2026-04-06T11:44:22.687Z</time></trkpt><trkpt lat="43.8647683" lon="12.560205"><ele>445.00000000000006</ele><time>2026-04-06T11:44:23.686Z</time></trkpt><trkpt lat="43.8647183" lon="12.5600933"><ele>445.0</ele><time>2026-04-06T11:44:24.685Z</time></trkpt><trkpt lat="43.86467" lon="12.5599783"><ele>446.2</ele><time>2026-04-06T11:44:25.687Z</time></trkpt><trkpt lat="43.86462" lon="12.559865"><ele>447.4</ele><time>2026-04-06T11:44:26.687Z</time></trkpt><trkpt lat="43.8645717" lon="12.5597467"><ele>448.6</ele><time>2026-04-06T11:44:27.686Z</time></trkpt><trkpt lat="43.86452" lon="12.5596267"><ele>449.8</ele><time>2026-04-06T11:44:28.686Z</time></trkpt><trkpt lat="43.864475" lon="12.5595083"><ele>451.0</ele><time>2026-04-06T11:44:29.688Z</time></trkpt><trkpt lat="43.8644317" lon="12.5593867"><ele>451.0</ele><time>2026-04-06T11:44:30.689Z</time></trkpt><trkpt lat="43.864385" lon="12.559265"><ele>451.0</ele><time>2026-04-06T11:44:31.686Z</time></trkpt><trkpt lat="43.8643383" lon="12.55914"><ele>451.0</ele><time>2026-04-06T11:44:32.683Z</time></trkpt><trkpt lat="43.86429" lon="12.55901"><ele>451.0</ele><time>2026-04-06T11:44:33.686Z</time></trkpt><trkpt lat="43.8642467" lon="12.55888"><ele>451.0</ele><time>2026-04-06T11:44:34.686Z</time></trkpt><trkpt lat="43.8642083" lon="12.5587517"><ele>453.0</ele><time>2026-04-06T11:44:35.686Z</time></trkpt><trkpt lat="43.8641683" lon="12.5586267"><ele>455.0</ele><time>2026-04-06T11:44:36.687Z</time></trkpt><trkpt lat="43.864125" lon="12.558495"><ele>457.0</ele><time>2026-04-06T11:44:37.688Z</time></trkpt><trkpt lat="43.86408" lon="12.5583683"><ele>459.0</ele><time>2026-04-06T11:44:38.685Z</time></trkpt><trkpt lat="43.864035" lon="12.558245"><ele>461.0</ele><time>2026-04-06T11:44:39.686Z</time></trkpt><trkpt lat="43.8639933" lon="12.5581217"><ele>461.0</ele><time>2026-04-06T11:44:40.686Z</time></trkpt><trkpt lat="43.8639567" lon="12.5580033"><ele>461.0</ele><time>2026-04-06T11:44:41.687Z</time></trkpt><trkpt lat="43.8639333" lon="12.5578833"><ele>461.0</ele><time>2026-04-06T11:44:42.685Z</time></trkpt><trkpt lat="43.8639233" lon="12.55776"><ele>461.0</ele><time>2026-04-06T11:44:43.689Z</time></trkpt><trkpt lat="43.8639217" lon="12.5576283"><ele>461.0</ele><time>2026-04-06T11:44:44.686Z</time></trkpt><trkpt lat="43.8639267" lon="12.5575017"><ele>461.4</ele><time>2026-04-06T11:44:45.686Z</time></trkpt><trkpt lat="43.8639483" lon="12.557375"><ele>461.8</ele><time>2026-04-06T11:44:46.686Z</time></trkpt><trkpt lat="43.86399" lon="12.5572533"><ele>462.19999999999993</ele><time>2026-04-06T11:44:47.688Z</time></trkpt><trkpt lat="43.864045" lon="12.5571317"><ele>462.59999999999997</ele><time>2026-04-06T11:44:48.687Z</time></trkpt><trkpt lat="43.8641033" lon="12.5570133"><ele>463.0</ele><time>2026-04-06T11:44:49.689Z</time></trkpt><trkpt lat="43.8641533" lon="12.556895"><ele>463.0</ele><time>2026-04-06T11:44:50.685Z</time></trkpt><trkpt lat="43.864195" lon="12.5567783"><ele>462.99999999999994</ele><time>2026-04-06T11:44:51.688Z</time></trkpt><trkpt lat="43.86423" lon="12.5566583"><ele>462.99999999999994</ele><time>2026-04-06T11:44:52.685Z</time></trkpt><trkpt lat="43.8642583" lon="12.5565333"><ele>463.0</ele><time>2026-04-06T11:44:53.687Z</time></trkpt><trkpt lat="43.8642833" lon="12.5564133"><ele>463.0</ele><time>2026-04-06T11:44:54.686Z</time></trkpt><trkpt lat="43.864315" lon="12.556295"><ele>466.2</ele><time>2026-04-06T11:44:55.688Z</time></trkpt><trkpt lat="43.8643517" lon="12.5561783"><ele>469.4</ele><time>2026-04-06T11:44:56.687Z</time></trkpt><trkpt lat="43.86439" lon="12.5560583"><ele>472.59999999999997</ele><time>2026-04-06T11:44:57.683Z</time></trkpt><trkpt lat="43.8644283" lon="12.5559433"><ele>475.79999999999995</ele><time>2026-04-06T11:44:58.687Z</time></trkpt><trkpt lat="43.8644717" lon="12.555835"><ele>479.0</ele><time>2026-04-06T11:44:59.686Z</time></trkpt><trkpt lat="43.864515" lon="12.5557333"><ele>478.99999999999994</ele><time>2026-04-06T11:45:00.686Z</time></trkpt><trkpt lat="43.8645533" lon="12.5556333"><ele>479.0</ele><time>2026-04-06T11:45:01.687Z</time></trkpt><trkpt lat="43.864595" lon="12.5555233"><ele>479.0</ele><time>2026-04-06T11:45:02.686Z</time></trkpt><trkpt lat="43.864635" lon="12.5554133"><ele>479.0</ele><time>2026-04-06T11:45:03.686Z</time></trkpt><trkpt lat="43.8646717" lon="12.555295"><ele>478.99999999999994</ele><time>2026-04-06T11:45:04.686Z</time></trkpt><trkpt lat="43.8646967" lon="12.5551717"><ele>479.0</ele><time>2026-04-06T11:45:05.687Z</time></trkpt><trkpt lat="43.8647117" lon="12.5550533"><ele>478.99999999999994</ele><time>2026-04-06T11:45:06.686Z</time></trkpt><trkpt lat="43.8647267" lon="12.5549283"><ele>479.0</ele><time>2026-04-06T11:45:07.686Z</time></trkpt><trkpt lat="43.864735" lon="12.5548017"><ele>479.0</ele><time>2026-04-06T11:45:08.686Z</time></trkpt><trkpt lat="43.86473" lon="12.5546817"><ele>479.0</ele><time>2026-04-06T11:45:09.687Z</time></trkpt><trkpt lat="43.86471" lon="12.554575"><ele>478.99999999999994</ele><time>2026-04-06T11:45:10.686Z</time></trkpt><trkpt lat="43.8646767" lon="12.5544733"><ele>479.0</ele><time>2026-04-06T11:45:11.688Z</time></trkpt><trkpt lat="43.8646333" lon="12.5543817"><ele>478.79999999999995</ele><time>2026-04-06T11:45:12.686Z</time></trkpt><trkpt lat="43.864575" lon="12.5542983"><ele>478.59999999999997</ele><time>2026-04-06T11:45:13.686Z</time></trkpt><trkpt lat="43.8644917" lon="12.554225"><ele>478.4</ele><time>2026-04-06T11:45:14.685Z</time></trkpt><trkpt lat="43.86439" lon="12.554145"><ele>478.2</ele><time>2026-04-06T11:45:15.687Z</time></trkpt><trkpt lat="43.86429" lon="12.5540667"><ele>478.0</ele><time>2026-04-06T11:45:16.686Z</time></trkpt><trkpt lat="43.8641883" lon="12.553995"><ele>478.0</ele><time>2026-04-06T11:45:17.687Z</time></trkpt><trkpt lat="43.8640817" lon="12.553925"><ele>478.0</ele><time>2026-04-06T11:45:18.686Z</time></trkpt><trkpt lat="43.8639767" lon="12.5538483"><ele>478.0</ele><time>2026-04-06T11:45:19.689Z</time></trkpt><trkpt lat="43.8638767" lon="12.553755"><ele>478.0</ele><time>2026-04-06T11:45:20.686Z</time></trkpt><trkpt lat="43.86378" lon="12.5536583"><ele>478.2</ele><time>2026-04-06T11:45:21.685Z</time></trkpt><trkpt lat="43.8636817" lon="12.553565"><ele>478.4</ele><time>2026-04-06T11:45:22.687Z</time></trkpt><trkpt lat="43.8635917" lon="12.5534683"><ele>478.59999999999997</ele><time>2026-04-06T11:45:23.686Z</time></trkpt><trkpt lat="43.8635167" lon="12.553365"><ele>478.79999999999995</ele><time>2026-04-06T11:45:24.686Z</time></trkpt><trkpt lat="43.863445" lon="12.553255"><ele>479.0</ele><time>2026-04-06T11:45:25.688Z</time></trkpt><trkpt lat="43.86338" lon="12.5531417"><ele>479.0</ele><time>2026-04-06T11:45:26.686Z</time></trkpt><trkpt lat="43.8633183" lon="12.5530217"><ele>479.0</ele><time>2026-04-06T11:45:27.687Z</time></trkpt><trkpt lat="43.8632583" lon="12.5529033"><ele>479.0</ele><time>2026-04-06T11:45:28.685Z</time></trkpt><trkpt lat="43.8631917" lon="12.5527917"><ele>479.0</ele><time>2026-04-06T11:45:29.685Z</time></trkpt><trkpt lat="43.8631167" lon="12.5526917"><ele>479.0</ele><time>2026-04-06T11:45:30.686Z</time></trkpt><trkpt lat="43.8630433" lon="12.55261"><ele>480.4</ele><time>2026-04-06T11:45:31.688Z</time></trkpt><trkpt lat="43.862975" lon="12.5525283"><ele>481.79999999999995</ele><time>2026-04-06T11:45:32.688Z</time></trkpt><trkpt lat="43.8629083" lon="12.552435"><ele>483.20000000000005</ele><time>2026-04-06T11:45:33.686Z</time></trkpt><trkpt lat="43.8628383" lon="12.5523317"><ele>484.6</ele><time>2026-04-06T11:45:34.686Z</time></trkpt><trkpt lat="43.8627517" lon="12.55223"><ele>486.0</ele><time>2026-04-06T11:45:35.684Z</time></trkpt><trkpt lat="43.8626533" lon="12.552135"><ele>486.75</ele><time>2026-04-06T11:45:36.686Z</time></trkpt><trkpt lat="43.8625583" lon="12.55203"><ele>487.5</ele><time>2026-04-06T11:45:37.688Z</time></trkpt><trkpt lat="43.862465" lon="12.5519233"><ele>488.25</ele><time>2026-04-06T11:45:38.685Z</time></trkpt><trkpt lat="43.8623767" lon="12.55181"><ele>489.0</ele><time>2026-04-06T11:45:39.686Z</time></trkpt><trkpt lat="43.8622917" lon="12.5516967"><ele>489.0</ele><time>2026-04-06T11:45:40.685Z</time></trkpt><trkpt lat="43.8622083" lon="12.5515933"><ele>489.0</ele><time>2026-04-06T11:45:41.686Z</time></trkpt><trkpt lat="43.8621167" lon="12.5515033"><ele>489.0</ele><time>2026-04-06T11:45:42.687Z</time></trkpt><trkpt lat="43.8620167" lon="12.5514217"><ele>489.0</ele><time>2026-04-06T11:45:43.687Z</time></trkpt><trkpt lat="43.8619183" lon="12.5513483"><ele>489.0</ele><time>2026-04-06T11:45:44.684Z</time></trkpt><trkpt lat="43.8618183" lon="12.551255"><ele>489.0</ele><time>2026-04-06T11:45:45.688Z</time></trkpt><trkpt lat="43.8617233" lon="12.55116"><ele>489.0</ele><time>2026-04-06T11:45:46.686Z</time></trkpt><trkpt lat="43.8616283" lon="12.5510617"><ele>489.0</ele><time>2026-04-06T11:45:47.686Z</time></trkpt><trkpt lat="43.8615333" lon="12.5509583"><ele>489.0</ele><time>2026-04-06T11:45:48.685Z</time></trkpt><trkpt lat="43.8614433" lon="12.5508467"><ele>489.0</ele><time>2026-04-06T11:45:49.689Z</time></trkpt><trkpt lat="43.86135" lon="12.5507383"><ele>489.0</ele><time>2026-04-06T11:45:50.683Z</time></trkpt><trkpt lat="43.86125" lon="12.5506383"><ele>489.0</ele><time>2026-04-06T11:45:51.686Z</time></trkpt><trkpt lat="43.8611567" lon="12.5505433"><ele>489.0</ele><time>2026-04-06T11:45:52.686Z</time></trkpt><trkpt lat="43.86107" lon="12.55045"><ele>489.0</ele><time>2026-04-06T11:45:53.688Z</time></trkpt><trkpt lat="43.8609933" lon="12.550365"><ele>489.0</ele><time>2026-04-06T11:45:54.686Z</time></trkpt><trkpt lat="43.86092" lon="12.55029"><ele>489.0</ele><time>2026-04-06T11:45:55.687Z</time></trkpt><trkpt lat="43.860855" lon="12.5502217"><ele>489.0</ele><time>2026-04-06T11:45:56.688Z</time></trkpt><trkpt lat="43.8607983" lon="12.5501633"><ele>489.0</ele><time>2026-04-06T11:45:57.684Z</time></trkpt><trkpt lat="43.86073" lon="12.550055"><ele>489.0</ele><time>2026-04-06T11:45:59.688Z</time></trkpt><trkpt lat="43.8607617" lon="12.549935"><ele>489.0</ele><time>2026-04-06T11:46:02.684Z</time></trkpt><trkpt lat="43.8608383" lon="12.5498917"><ele>489.0</ele><time>2026-04-06T11:46:04.685Z</time></trkpt><trkpt lat="43.8609617" lon="12.549875"><ele>489.0</ele><time>2026-04-06T11:46:06.688Z</time></trkpt><trkpt lat="43.8610383" lon="12.5498667"><ele>489.8333333333333</ele><time>2026-04-06T11:46:07.686Z</time></trkpt><trkpt lat="43.861115" lon="12.5498567"><ele>490.66666666666663</ele><time>2026-04-06T11:46:08.685Z</time></trkpt><trkpt lat="43.8611967" lon="12.5498433"><ele>491.5</ele><time>2026-04-06T11:46:09.686Z</time></trkpt><trkpt lat="43.86128" lon="12.5498333"><ele>492.3333333333333</ele><time>2026-04-06T11:46:10.686Z</time></trkpt><trkpt lat="43.8613617" lon="12.5498283"><ele>493.16666666666663</ele><time>2026-04-06T11:46:11.687Z</time></trkpt><trkpt lat="43.8614433" lon="12.5498217"><ele>494.0</ele><time>2026-04-06T11:46:12.686Z</time></trkpt><trkpt lat="43.8615233" lon="12.549815"><ele>494.0</ele><time>2026-04-06T11:46:13.688Z</time></trkpt><trkpt lat="43.8616033" lon="12.5498133"><ele>494.0</ele><time>2026-04-06T11:46:14.686Z</time></trkpt><trkpt lat="43.8616783" lon="12.5498083"><ele>494.0</ele><time>2026-04-06T11:46:15.685Z</time></trkpt><trkpt lat="43.86175" lon="12.5497983"><ele>494.0</ele><time>2026-04-06T11:46:16.686Z</time></trkpt><trkpt lat="43.86182" lon="12.5497883"><ele>494.0</ele><time>2026-04-06T11:46:17.686Z</time></trkpt><trkpt lat="43.8618883" lon="12.5497767"><ele>494.0</ele><time>2026-04-06T11:46:18.686Z</time></trkpt><trkpt lat="43.861955" lon="12.5497667"><ele>494.0</ele><time>2026-04-06T11:46:19.686Z</time></trkpt><trkpt lat="43.8620783" lon="12.5497417"><ele>495.16666666666663</ele><time>2026-04-06T11:46:21.686Z</time></trkpt><trkpt lat="43.8622" lon="12.54972"><ele>496.3333333333333</ele><time>2026-04-06T11:46:23.687Z</time></trkpt><trkpt lat="43.8622633" lon="12.5497167"><ele>497.5</ele><time>2026-04-06T11:46:24.686Z</time></trkpt><trkpt lat="43.8623267" lon="12.5497167"><ele>498.66666666666663</ele><time>2026-04-06T11:46:25.688Z</time></trkpt><trkpt lat="43.862445" lon="12.5497067"><ele>499.8333333333333</ele><time>2026-04-06T11:46:27.687Z</time></trkpt><trkpt lat="43.8625083" lon="12.5496983"><ele>501.0</ele><time>2026-04-06T11:46:28.687Z</time></trkpt><trkpt lat="43.8625717" lon="12.5496933"><ele>502.42857142857144</ele><time>2026-04-06T11:46:29.683Z</time></trkpt><trkpt lat="43.8626383" lon="12.5496883"><ele>503.85714285714283</ele><time>2026-04-06T11:46:30.687Z</time></trkpt><trkpt lat="43.8627083" lon="12.5496817"><ele>505.2857142857143</ele><time>2026-04-06T11:46:31.688Z</time></trkpt><trkpt lat="43.86278" lon="12.5496767"><ele>506.7142857142857</ele><time>2026-04-06T11:46:32.687Z</time></trkpt><trkpt lat="43.8628517" lon="12.5496733"><ele>508.1428571428571</ele><time>2026-04-06T11:46:33.687Z</time></trkpt><trkpt lat="43.86292" lon="12.5496717"><ele>509.57142857142856</ele><time>2026-04-06T11:46:34.688Z</time></trkpt><trkpt lat="43.8629883" lon="12.5496667"><ele>511.0</ele><time>2026-04-06T11:46:35.686Z</time></trkpt><trkpt lat="43.8631067" lon="12.549665"><ele>511.00000000000006</ele><time>2026-04-06T11:46:37.687Z</time></trkpt><trkpt lat="43.86319" lon="12.54962"><ele>511.0</ele><time>2026-04-06T11:46:39.684Z</time></trkpt><trkpt lat="43.8632117" lon="12.5495317"><ele>511.0</ele><time>2026-04-06T11:46:41.683Z</time></trkpt><trkpt lat="43.86324" lon="12.5494367"><ele>511.0</ele><time>2026-04-06T11:46:43.687Z</time></trkpt><trkpt lat="43.8633167" lon="12.5493767"><ele>511.00000000000006</ele><time>2026-04-06T11:46:45.687Z</time></trkpt><trkpt lat="43.8634283" lon="12.5493617"><ele>511.0</ele><time>2026-04-06T11:46:47.685Z</time></trkpt><trkpt lat="43.863495" lon="12.54937"><ele>513.6666666666667</ele><time>2026-04-06T11:46:48.688Z</time></trkpt><trkpt lat="43.863565" lon="12.5493833"><ele>516.3333333333334</ele><time>2026-04-06T11:46:49.688Z</time></trkpt><trkpt lat="43.8636367" lon="12.5493933"><ele>519.0</ele><time>2026-04-06T11:46:50.685Z</time></trkpt><trkpt lat="43.8637067" lon="12.54939"><ele>521.6666666666666</ele><time>2026-04-06T11:46:51.683Z</time></trkpt><trkpt lat="43.86377" lon="12.5493717"><ele>524.3333333333333</ele><time>2026-04-06T11:46:52.685Z</time></trkpt><trkpt lat="43.863875" lon="12.5492817"><ele>527.0</ele><time>2026-04-06T11:46:54.687Z</time></trkpt><trkpt lat="43.863925" lon="12.54921"><ele>527.0</ele><time>2026-04-06T11:46:55.688Z</time></trkpt><trkpt lat="43.8639733" lon="12.54913"><ele>527.0</ele><time>2026-04-06T11:46:56.687Z</time></trkpt><trkpt lat="43.86402" lon="12.5490483"><ele>527.0</ele><time>2026-04-06T11:46:57.684Z</time></trkpt><trkpt lat="43.8640683" lon="12.548965"><ele>527.0</ele><time>2026-04-06T11:46:58.686Z</time></trkpt><trkpt lat="43.864115" lon="12.54888"><ele>527.0</ele><time>2026-04-06T11:46:59.685Z</time></trkpt><trkpt lat="43.8641617" lon="12.548795"><ele>527.0</ele><time>2026-04-06T11:47:00.686Z</time></trkpt><trkpt lat="43.8642067" lon="12.5487217"><ele>526.8333333333333</ele><time>2026-04-06T11:47:01.687Z</time></trkpt><trkpt lat="43.864255" lon="12.54866"><ele>526.6666666666666</ele><time>2026-04-06T11:47:02.685Z</time></trkpt><trkpt lat="43.8643467" lon="12.5485583"><ele>526.5</ele><time>2026-04-06T11:47:04.686Z</time></trkpt><trkpt lat="43.8644017" lon="12.54846"><ele>526.3333333333334</ele><time>2026-04-06T11:47:06.688Z</time></trkpt><trkpt lat="43.864425" lon="12.5483717"><ele>526.1666666666667</ele><time>2026-04-06T11:47:08.684Z</time></trkpt><trkpt lat="43.8644617" lon="12.5482667"><ele>526.0</ele><time>2026-04-06T11:47:10.688Z</time></trkpt><trkpt lat="43.8645" lon="12.5481683"><ele>526.0</ele><time>2026-04-06T11:47:12.687Z</time></trkpt><trkpt lat="43.86453" lon="12.5480767"><ele>526.0</ele><time>2026-04-06T11:47:14.686Z</time></trkpt><trkpt lat="43.864565" lon="12.547985"><ele>526.0</ele><time>2026-04-06T11:47:17.686Z</time></trkpt><trkpt lat="43.8646433" lon="12.5479383"><ele>526.0</ele><time>2026-04-06T11:47:20.685Z</time></trkpt><trkpt lat="43.86471" lon="12.5479217"><ele>526.0</ele><time>2026-04-06T11:47:22.687Z</time></trkpt><trkpt lat="43.8647933" lon="12.5478917"><ele>526.0</ele><time>2026-04-06T11:47:25.688Z</time></trkpt><trkpt lat="43.8647917" lon="12.5477817"><ele>526.0</ele><time>2026-04-06T11:47:30.686Z</time></trkpt><trkpt lat="43.8647283" lon="12.5477483"><ele>526.0</ele><time>2026-04-06T11:47:32.685Z</time></trkpt><trkpt lat="43.8646633" lon="12.5477267"><ele>526.0</ele><time>2026-04-06T12:04:49.686Z</time></trkpt><trkpt lat="43.8647417" lon="12.547745"><ele>526.0</ele><time>2026-04-06T12:04:53.685Z</time></trkpt><trkpt lat="43.8648" lon="12.5478133"><ele>526.0</ele><time>2026-04-06T12:04:55.686Z</time></trkpt><trkpt lat="43.8647517" lon="12.5479017"><ele>526.0</ele><time>2026-04-06T12:04:59.685Z</time></trkpt><trkpt lat="43.8646683" lon="12.5479433"><ele>526.0</ele><time>2026-04-06T12:05:01.687Z</time></trkpt><trkpt lat="43.8645833" lon="12.54801"><ele>526.0</ele><time>2026-04-06T12:05:03.683Z</time></trkpt><trkpt lat="43.8645083" lon="12.5481183"><ele>526.0</ele><time>2026-04-06T12:05:05.686Z</time></trkpt><trkpt lat="43.8644483" lon="12.54827"><ele>526.0</ele><time>2026-04-06T12:05:07.686Z</time></trkpt><trkpt lat="43.8644167" lon="12.548355"><ele>526.0</ele><time>2026-04-06T12:05:08.685Z</time></trkpt><trkpt lat="43.864385" lon="12.5484383"><ele>526.0</ele><time>2026-04-06T12:05:09.685Z</time></trkpt><trkpt lat="43.8643467" lon="12.548515"><ele>526.0</ele><time>2026-04-06T12:05:10.685Z</time></trkpt><trkpt lat="43.8642967" lon="12.54859"><ele>526.0</ele><time>2026-04-06T12:05:11.686Z</time></trkpt><trkpt lat="43.8642417" lon="12.5486617"><ele>526.0</ele><time>2026-04-06T12:05:12.685Z</time></trkpt><trkpt lat="43.86419" lon="12.5487333"><ele>526.0</ele><time>2026-04-06T12:05:13.686Z</time></trkpt><trkpt lat="43.8641367" lon="12.54882"><ele>526.0</ele><time>2026-04-06T12:05:14.684Z</time></trkpt><trkpt lat="43.8640867" lon="12.548905"><ele>526.1666666666667</ele><time>2026-04-06T12:05:15.686Z</time></trkpt><trkpt lat="43.8640367" lon="12.5489883"><ele>526.3333333333334</ele><time>2026-04-06T12:05:16.684Z</time></trkpt><trkpt lat="43.863985" lon="12.5490717"><ele>526.5</ele><time>2026-04-06T12:05:17.685Z</time></trkpt><trkpt lat="43.8639317" lon="12.549155"><ele>526.6666666666666</ele><time>2026-04-06T12:05:18.684Z</time></trkpt><trkpt lat="43.8638767" lon="12.5492383"><ele>526.8333333333333</ele><time>2026-04-06T12:05:19.685Z</time></trkpt><trkpt lat="43.8638183" lon="12.5493117"><ele>527.0</ele><time>2026-04-06T12:05:20.684Z</time></trkpt><trkpt lat="43.863755" lon="12.5493667"><ele>527.0</ele><time>2026-04-06T12:05:21.683Z</time></trkpt><trkpt lat="43.86369" lon="12.5493933"><ele>527.0</ele><time>2026-04-06T12:05:22.685Z</time></trkpt><trkpt lat="43.8636267" lon="12.5494017"><ele>527.0</ele><time>2026-04-06T12:05:23.687Z</time></trkpt><trkpt lat="43.8635183" lon="12.5493817"><ele>527.0</ele><time>2026-04-06T12:05:25.686Z</time></trkpt><trkpt lat="43.8634317" lon="12.5493667"><ele>527.0</ele><time>2026-04-06T12:05:27.684Z</time></trkpt><trkpt lat="43.863325" lon="12.5493717"><ele>527.0</ele><time>2026-04-06T12:05:29.686Z</time></trkpt><trkpt lat="43.863225" lon="12.549425"><ele>525.1666666666666</ele><time>2026-04-06T12:05:31.687Z</time></trkpt><trkpt lat="43.8631667" lon="12.54954"><ele>523.3333333333333</ele><time>2026-04-06T12:05:33.686Z</time></trkpt><trkpt lat="43.8631433" lon="12.54963"><ele>521.5</ele><time>2026-04-06T12:05:35.684Z</time></trkpt><trkpt lat="43.86306" lon="12.5496567"><ele>519.6666666666666</ele><time>2026-04-06T12:05:37.688Z</time></trkpt><trkpt lat="43.8629883" lon="12.5496633"><ele>517.8333333333334</ele><time>2026-04-06T12:05:38.686Z</time></trkpt><trkpt lat="43.8628833" lon="12.5496667"><ele>516.0</ele><time>2026-04-06T12:05:39.684Z</time></trkpt><trkpt lat="43.8627867" lon="12.5496733"><ele>515.0</ele><time>2026-04-06T12:05:40.685Z</time></trkpt><trkpt lat="43.8626933" lon="12.54968"><ele>514.0</ele><time>2026-04-06T12:05:41.686Z</time></trkpt><trkpt lat="43.8625967" lon="12.5496883"><ele>513.0</ele><time>2026-04-06T12:05:42.686Z</time></trkpt><trkpt lat="43.8624983" lon="12.5496983"><ele>512.0</ele><time>2026-04-06T12:05:43.686Z</time></trkpt><trkpt lat="43.8624" lon="12.5497067"><ele>511.0</ele><time>2026-04-06T12:05:44.686Z</time></trkpt><trkpt lat="43.8623083" lon="12.5497117"><ele>509.0</ele><time>2026-04-06T12:05:45.686Z</time></trkpt><trkpt lat="43.86222" lon="12.54972"><ele>507.0</ele><time>2026-04-06T12:05:46.683Z</time></trkpt><trkpt lat="43.8621283" lon="12.549735"><ele>505.0</ele><time>2026-04-06T12:05:47.686Z</time></trkpt><trkpt lat="43.86203" lon="12.5497517"><ele>503.0</ele><time>2026-04-06T12:05:48.686Z</time></trkpt><trkpt lat="43.8619283" lon="12.5497667"><ele>501.0</ele><time>2026-04-06T12:05:49.685Z</time></trkpt><trkpt lat="43.861825" lon="12.5497783"><ele>499.6</ele><time>2026-04-06T12:05:50.684Z</time></trkpt><trkpt lat="43.8617233" lon="12.54979"><ele>498.20000000000005</ele><time>2026-04-06T12:05:51.683Z</time></trkpt><trkpt lat="43.8616183" lon="12.5498017"><ele>496.79999999999995</ele><time>2026-04-06T12:05:52.684Z</time></trkpt><trkpt lat="43.8615183" lon="12.549815"><ele>495.4</ele><time>2026-04-06T12:05:53.687Z</time></trkpt><trkpt lat="43.86142" lon="12.5498267"><ele>494.0</ele><time>2026-04-06T12:05:54.684Z</time></trkpt><trkpt lat="43.8613283" lon="12.5498367"><ele>493.99999999999994</ele><time>2026-04-06T12:05:55.685Z</time></trkpt><trkpt lat="43.8612367" lon="12.5498467"><ele>494.0</ele><time>2026-04-06T12:05:56.686Z</time></trkpt><trkpt lat="43.8611483" lon="12.54986"><ele>494.0</ele><time>2026-04-06T12:05:57.685Z</time></trkpt><trkpt lat="43.8610633" lon="12.5498733"><ele>494.0</ele><time>2026-04-06T12:05:58.683Z</time></trkpt><trkpt lat="43.8609783" lon="12.5498867"><ele>493.99999999999994</ele><time>2026-04-06T12:05:59.685Z</time></trkpt><trkpt lat="43.8609" lon="12.5498983"><ele>494.0</ele><time>2026-04-06T12:06:00.684Z</time></trkpt><trkpt lat="43.860835" lon="12.5499083"><ele>493.99999999999994</ele><time>2026-04-06T12:06:01.687Z</time></trkpt><trkpt lat="43.860755" lon="12.5499217"><ele>494.0</ele><time>2026-04-06T12:06:03.682Z</time></trkpt><trkpt lat="43.860695" lon="12.5499783"><ele>494.0</ele><time>2026-04-06T12:06:07.687Z</time></trkpt><trkpt lat="43.860755" lon="12.549865"><ele>494.0</ele><time>2026-04-06T12:06:14.686Z</time></trkpt><trkpt lat="43.8608367" lon="12.5498217"><ele>493.99999999999994</ele><time>2026-04-06T12:06:15.686Z</time></trkpt><trkpt lat="43.8609333" lon="12.5497683"><ele>494.0</ele><time>2026-04-06T12:06:16.685Z</time></trkpt><trkpt lat="43.861045" lon="12.5497117"><ele>494.0</ele><time>2026-04-06T12:06:17.685Z</time></trkpt><trkpt lat="43.8611633" lon="12.549655"><ele>494.0</ele><time>2026-04-06T12:06:18.685Z</time></trkpt><trkpt lat="43.86129" lon="12.54958"><ele>494.0</ele><time>2026-04-06T12:06:19.687Z</time></trkpt><trkpt lat="43.861425" lon="12.54949"><ele>494.0</ele><time>2026-04-06T12:06:20.685Z</time></trkpt><trkpt lat="43.8615633" lon="12.5493833"><ele>492.3333333333333</ele><time>2026-04-06T12:06:21.684Z</time></trkpt><trkpt lat="43.8617" lon="12.5492633"><ele>490.66666666666663</ele><time>2026-04-06T12:06:22.686Z</time></trkpt><trkpt lat="43.8618367" lon="12.5491383"><ele>489.0</ele><time>2026-04-06T12:06:23.684Z</time></trkpt><trkpt lat="43.8619683" lon="12.54902"><ele>490.0</ele><time>2026-04-06T12:06:24.685Z</time></trkpt><trkpt lat="43.8620933" lon="12.5489067"><ele>491.0</ele><time>2026-04-06T12:06:25.686Z</time></trkpt><trkpt lat="43.86221" lon="12.5487867"><ele>492.0</ele><time>2026-04-06T12:06:26.686Z</time></trkpt><trkpt lat="43.862315" lon="12.5486517"><ele>493.0</ele><time>2026-04-06T12:06:27.685Z</time></trkpt><trkpt lat="43.8624117" lon="12.5485117"><ele>493.0</ele><time>2026-04-06T12:06:28.683Z</time></trkpt><trkpt lat="43.862495" lon="12.5483817"><ele>493.0</ele><time>2026-04-06T12:06:29.685Z</time></trkpt><trkpt lat="43.8625683" lon="12.548255"><ele>493.0</ele><time>2026-04-06T12:06:30.686Z</time></trkpt><trkpt lat="43.86262" lon="12.5481333"><ele>493.0</ele><time>2026-04-06T12:06:31.686Z</time></trkpt><trkpt lat="43.8626483" lon="12.54799"><ele>496.0</ele><time>2026-04-06T12:06:32.684Z</time></trkpt><trkpt lat="43.8626467" lon="12.5478217"><ele>499.0</ele><time>2026-04-06T12:06:33.685Z</time></trkpt><trkpt lat="43.862635" lon="12.547645"><ele>502.0</ele><time>2026-04-06T12:06:34.684Z</time></trkpt><trkpt lat="43.8626517" lon="12.5474783"><ele>505.0</ele><time>2026-04-06T12:06:35.686Z</time></trkpt><trkpt lat="43.8627017" lon="12.5473317"><ele>505.0</ele><time>2026-04-06T12:06:36.685Z</time></trkpt><trkpt lat="43.8627683" lon="12.5472033"><ele>505.0</ele><time>2026-04-06T12:06:37.686Z</time></trkpt><trkpt lat="43.8628283" lon="12.547085"><ele>505.0</ele><time>2026-04-06T12:06:38.686Z</time></trkpt><trkpt lat="43.8628533" lon="12.5469617"><ele>505.0</ele><time>2026-04-06T12:06:39.686Z</time></trkpt><trkpt lat="43.86284" lon="12.5468433"><ele>505.0</ele><time>2026-04-06T12:06:40.686Z</time></trkpt><trkpt lat="43.8627983" lon="12.54673"><ele>505.0</ele><time>2026-04-06T12:06:41.686Z</time></trkpt><trkpt lat="43.8627067" lon="12.5466367"><ele>505.0</ele><time>2026-04-06T12:06:42.685Z</time></trkpt><trkpt lat="43.8625983" lon="12.5465487"><ele>505.0</ele><time>2026-04-06T12:06:43.687Z</time></trkpt><trkpt lat="43.8624782" lon="12.5464578"><ele>505.0</ele><time>2026-04-06T12:06:44.685Z</time></trkpt><trkpt lat="43.8623646" lon="12.5463579"><ele>505.5</ele><time>2026-04-06T12:06:45.685Z</time></trkpt><trkpt lat="43.8622587" lon="12.5462542"><ele>506.0</ele><time>2026-04-06T12:06:46.686Z</time></trkpt><trkpt lat="43.8621595" lon="12.5461485"><ele>506.5</ele><time>2026-04-06T12:06:47.686Z</time></trkpt><trkpt lat="43.8620662" lon="12.5460417"><ele>507.0</ele><time>2026-04-06T12:06:48.686Z</time></trkpt><trkpt lat="43.8619838" lon="12.545929"><ele>507.0</ele><time>2026-04-06T12:06:49.687Z</time></trkpt><trkpt lat="43.8619082" lon="12.5458114"><ele>507.0</ele><time>2026-04-06T12:06:50.687Z</time></trkpt><trkpt lat="43.8618362" lon="12.5456882"><ele>507.0</ele><time>2026-04-06T12:06:51.685Z</time></trkpt><trkpt lat="43.8617689" lon="12.5455569"><ele>507.0</ele><time>2026-04-06T12:06:52.685Z</time></trkpt><trkpt lat="43.8617089" lon="12.5454224"><ele>507.20000000000005</ele><time>2026-04-06T12:06:53.686Z</time></trkpt><trkpt lat="43.8616572" lon="12.5452836"><ele>507.40000000000003</ele><time>2026-04-06T12:06:54.685Z</time></trkpt><trkpt lat="43.8616156" lon="12.5451436"><ele>507.59999999999997</ele><time>2026-04-06T12:06:55.688Z</time></trkpt><trkpt lat="43.8615839" lon="12.5450095"><ele>507.79999999999995</ele><time>2026-04-06T12:06:56.688Z</time></trkpt><trkpt lat="43.8615575" lon="12.5448765"><ele>508.0</ele><time>2026-04-06T12:06:57.684Z</time></trkpt><trkpt lat="43.8615553" lon="12.5447399"><ele>508.0</ele><time>2026-04-06T12:06:58.684Z</time></trkpt><trkpt lat="43.8615722" lon="12.5446015"><ele>507.99999999999994</ele><time>2026-04-06T12:06:59.687Z</time></trkpt><trkpt lat="43.8616129" lon="12.5444714"><ele>507.99999999999994</ele><time>2026-04-06T12:07:00.685Z</time></trkpt><trkpt lat="43.8616762" lon="12.5443561"><ele>508.0</ele><time>2026-04-06T12:07:01.687Z</time></trkpt><trkpt lat="43.8617575" lon="12.5442597"><ele>508.0</ele><time>2026-04-06T12:07:02.682Z</time></trkpt><trkpt lat="43.861852" lon="12.5441941"><ele>510.59999999999997</ele><time>2026-04-06T12:07:03.684Z</time></trkpt><trkpt lat="43.8619483" lon="12.5441405"><ele>513.1999999999999</ele><time>2026-04-06T12:07:04.686Z</time></trkpt><trkpt lat="43.8620292" lon="12.5440675"><ele>515.8</ele><time>2026-04-06T12:07:05.686Z</time></trkpt><trkpt lat="43.8620968" lon="12.5439639"><ele>518.4</ele><time>2026-04-06T12:07:06.684Z</time></trkpt><trkpt lat="43.8621525" lon="12.5438302"><ele>521.0</ele><time>2026-04-06T12:07:07.685Z</time></trkpt><trkpt lat="43.8622185" lon="12.5436862"><ele>521.75</ele><time>2026-04-06T12:07:08.685Z</time></trkpt><trkpt lat="43.8622927" lon="12.5435441"><ele>522.5</ele><time>2026-04-06T12:07:09.684Z</time></trkpt><trkpt lat="43.8623737" lon="12.5434064"><ele>523.25</ele><time>2026-04-06T12:07:10.684Z</time></trkpt><trkpt lat="43.8624647" lon="12.5432794"><ele>524.0</ele><time>2026-04-06T12:07:11.685Z</time></trkpt><trkpt lat="43.8625567" lon="12.5431528"><ele>526.5</ele><time>2026-04-06T12:07:12.686Z</time></trkpt><trkpt lat="43.8626449" lon="12.5430224"><ele>529.0</ele><time>2026-04-06T12:07:13.685Z</time></trkpt><trkpt lat="43.8627163" lon="12.5428888"><ele>531.5</ele><time>2026-04-06T12:07:14.682Z</time></trkpt><trkpt lat="43.8627663" lon="12.5427527"><ele>534.0</ele><time>2026-04-06T12:07:15.686Z</time></trkpt><trkpt lat="43.8627915" lon="12.5426211"><ele>534.0</ele><time>2026-04-06T12:07:16.683Z</time></trkpt><trkpt lat="43.8627885" lon="12.5424971"><ele>534.0</ele><time>2026-04-06T12:07:17.685Z</time></trkpt><trkpt lat="43.8627633" lon="12.5423813"><ele>534.0</ele><time>2026-04-06T12:07:18.684Z</time></trkpt><trkpt lat="43.8627199" lon="12.542279"><ele>534.0</ele><time>2026-04-06T12:07:19.685Z</time></trkpt><trkpt lat="43.8626629" lon="12.5421755"><ele>534.0</ele><time>2026-04-06T12:07:20.684Z</time></trkpt><trkpt lat="43.8625988" lon="12.5420675"><ele>531.4</ele><time>2026-04-06T12:07:21.684Z</time></trkpt><trkpt lat="43.8625272" lon="12.5419541"><ele>528.8</ele><time>2026-04-06T12:07:22.683Z</time></trkpt><trkpt lat="43.8624595" lon="12.5418409"><ele>526.2</ele><time>2026-04-06T12:07:23.685Z</time></trkpt><trkpt lat="43.862417" lon="12.541726"><ele>523.6</ele><time>2026-04-06T12:07:24.683Z</time></trkpt><trkpt lat="43.8623862" lon="12.541612"><ele>521.0</ele><time>2026-04-06T12:07:25.685Z</time></trkpt><trkpt lat="43.8623719" lon="12.5415078"><ele>521.0</ele><time>2026-04-06T12:07:26.683Z</time></trkpt><trkpt lat="43.8623992" lon="12.5414197"><ele>521.0</ele><time>2026-04-06T12:07:27.685Z</time></trkpt><trkpt lat="43.8624636" lon="12.5413269"><ele>521.0</ele><time>2026-04-06T12:07:28.684Z</time></trkpt><trkpt lat="43.8625363" lon="12.5412079"><ele>521.0</ele><time>2026-04-06T12:07:29.687Z</time></trkpt><trkpt lat="43.8626014" lon="12.5410709"><ele>521.0</ele><time>2026-04-06T12:07:30.686Z</time></trkpt><trkpt lat="43.8626529" lon="12.5409273"><ele>521.2</ele><time>2026-04-06T12:07:31.688Z</time></trkpt><trkpt lat="43.8626891" lon="12.5407844"><ele>521.4000000000001</ele><time>2026-04-06T12:07:32.685Z</time></trkpt><trkpt lat="43.8627159" lon="12.5406458"><ele>521.6</ele><time>2026-04-06T12:07:33.686Z</time></trkpt><trkpt lat="43.862735" lon="12.5405093"><ele>521.8000000000001</ele><time>2026-04-06T12:07:34.685Z</time></trkpt><trkpt lat="43.8627615" lon="12.5403789"><ele>522.0</ele><time>2026-04-06T12:07:35.686Z</time></trkpt><trkpt lat="43.8628126" lon="12.5402577"><ele>519.0</ele><time>2026-04-06T12:07:36.686Z</time></trkpt><trkpt lat="43.8628876" lon="12.5401573"><ele>516.0</ele><time>2026-04-06T12:07:37.686Z</time></trkpt><trkpt lat="43.8629643" lon="12.5400686"><ele>513.0</ele><time>2026-04-06T12:07:38.686Z</time></trkpt><trkpt lat="43.8630268" lon="12.5399672"><ele>510.0</ele><time>2026-04-06T12:07:39.686Z</time></trkpt><trkpt lat="43.863067" lon="12.5398451"><ele>507.0</ele><time>2026-04-06T12:07:40.686Z</time></trkpt><trkpt lat="43.8630853" lon="12.5397174"><ele>507.0</ele><time>2026-04-06T12:07:41.685Z</time></trkpt><trkpt lat="43.86309" lon="12.5396029"><ele>507.00000000000006</ele><time>2026-04-06T12:07:42.686Z</time></trkpt><trkpt lat="43.8630788" lon="12.5395109"><ele>507.00000000000006</ele><time>2026-04-06T12:07:43.687Z</time></trkpt><trkpt lat="43.8630034" lon="12.5394345"><ele>507.0</ele><time>2026-04-06T12:07:45.684Z</time></trkpt><trkpt lat="43.8628851" lon="12.5395105"><ele>507.0</ele><time>2026-04-06T12:07:47.685Z</time></trkpt><trkpt lat="43.8628243" lon="12.5395966"><ele>507.0</ele><time>2026-04-06T12:07:48.686Z</time></trkpt><trkpt lat="43.8627673" lon="12.5396968"><ele>507.0</ele><time>2026-04-06T12:07:49.686Z</time></trkpt><trkpt lat="43.8627167" lon="12.5397767"><ele>507.0</ele><time>2026-04-06T12:07:50.685Z</time></trkpt><trkpt lat="43.8626167" lon="12.53982"><ele>507.0</ele><time>2026-04-06T12:07:52.686Z</time></trkpt><trkpt lat="43.8626033" lon="12.5396917"><ele>507.0</ele><time>2026-04-06T12:07:54.686Z</time></trkpt><trkpt lat="43.86263" lon="12.5395867"><ele>507.0</ele><time>2026-04-06T12:07:55.686Z</time></trkpt><trkpt lat="43.8626767" lon="12.5394867"><ele>505.40000000000003</ele><time>2026-04-06T12:07:56.686Z</time></trkpt><trkpt lat="43.8627283" lon="12.5394033"><ele>503.80000000000007</ele><time>2026-04-06T12:07:57.684Z</time></trkpt><trkpt lat="43.8627833" lon="12.53931"><ele>502.2</ele><time>2026-04-06T12:07:58.685Z</time></trkpt><trkpt lat="43.862835" lon="12.5392"><ele>500.6</ele><time>2026-04-06T12:07:59.686Z</time></trkpt><trkpt lat="43.8628867" lon="12.5390733"><ele>499.0</ele><time>2026-04-06T12:08:00.685Z</time></trkpt><trkpt lat="43.8629383" lon="12.53894"><ele>499.0</ele><time>2026-04-06T12:08:01.687Z</time></trkpt><trkpt lat="43.8629867" lon="12.538805"><ele>499.0</ele><time>2026-04-06T12:08:02.682Z</time></trkpt><trkpt lat="43.863025" lon="12.5386733"><ele>499.0</ele><time>2026-04-06T12:08:03.686Z</time></trkpt><trkpt lat="43.8630583" lon="12.538545"><ele>499.0</ele><time>2026-04-06T12:08:04.685Z</time></trkpt><trkpt lat="43.8630817" lon="12.5384233"><ele>499.0</ele><time>2026-04-06T12:08:05.682Z</time></trkpt><trkpt lat="43.8630883" lon="12.5383"><ele>496.4</ele><time>2026-04-06T12:08:06.685Z</time></trkpt><trkpt lat="43.8630733" lon="12.5381917"><ele>493.79999999999995</ele><time>2026-04-06T12:08:07.687Z</time></trkpt><trkpt lat="43.86303" lon="12.5381083"><ele>491.20000000000005</ele><time>2026-04-06T12:08:08.686Z</time></trkpt><trkpt lat="43.8629533" lon="12.5380417"><ele>488.6</ele><time>2026-04-06T12:08:09.685Z</time></trkpt><trkpt lat="43.8628417" lon="12.537995"><ele>486.0</ele><time>2026-04-06T12:08:10.685Z</time></trkpt><trkpt lat="43.862715" lon="12.53796"><ele>485.75</ele><time>2026-04-06T12:08:11.686Z</time></trkpt><trkpt lat="43.86258" lon="12.5379367"><ele>485.5</ele><time>2026-04-06T12:08:12.685Z</time></trkpt><trkpt lat="43.8624433" lon="12.53791"><ele>485.25</ele><time>2026-04-06T12:08:13.688Z</time></trkpt><trkpt lat="43.862305" lon="12.5378833"><ele>485.0</ele><time>2026-04-06T12:08:14.686Z</time></trkpt><trkpt lat="43.862165" lon="12.537845"><ele>483.75</ele><time>2026-04-06T12:08:15.686Z</time></trkpt><trkpt lat="43.8620283" lon="12.5378017"><ele>482.5</ele><time>2026-04-06T12:08:16.69Z</time></trkpt><trkpt lat="43.86189" lon="12.5377533"><ele>481.25</ele><time>2026-04-06T12:08:17.686Z</time></trkpt><trkpt lat="43.86175" lon="12.537705"><ele>480.0</ele><time>2026-04-06T12:08:18.687Z</time></trkpt><trkpt lat="43.86162" lon="12.5376633"><ele>480.0</ele><time>2026-04-06T12:08:19.687Z</time></trkpt><trkpt lat="43.8615167" lon="12.53762"><ele>480.0</ele><time>2026-04-06T12:08:20.685Z</time></trkpt><trkpt lat="43.8614483" lon="12.5375617"><ele>480.0</ele><time>2026-04-06T12:08:21.686Z</time></trkpt><trkpt lat="43.861405" lon="12.5374867"><ele>480.0</ele><time>2026-04-06T12:08:22.685Z</time></trkpt><trkpt lat="43.86139" lon="12.5373917"><ele>480.0</ele><time>2026-04-06T12:08:23.687Z</time></trkpt><trkpt lat="43.8614017" lon="12.5372933"><ele>480.0</ele><time>2026-04-06T12:08:24.686Z</time></trkpt><trkpt lat="43.8614517" lon="12.5372017"><ele>480.0</ele><time>2026-04-06T12:08:25.687Z</time></trkpt><trkpt lat="43.861555" lon="12.53712"><ele>480.0</ele><time>2026-04-06T12:08:26.686Z</time></trkpt><trkpt lat="43.8616817" lon="12.5370567"><ele>480.0</ele><time>2026-04-06T12:08:27.682Z</time></trkpt><trkpt lat="43.8617683" lon="12.5369817"><ele>480.0</ele><time>2026-04-06T12:08:28.685Z</time></trkpt><trkpt lat="43.8618433" lon="12.5368967"><ele>481.3333333333333</ele><time>2026-04-06T12:08:29.686Z</time></trkpt><trkpt lat="43.8618917" lon="12.53681"><ele>482.66666666666663</ele><time>2026-04-06T12:08:30.685Z</time></trkpt><trkpt lat="43.8619267" lon="12.536735"><ele>484.0</ele><time>2026-04-06T12:08:31.687Z</time></trkpt><trkpt lat="43.861875" lon="12.5366833"><ele>485.3333333333333</ele><time>2026-04-06T12:08:35.684Z</time></trkpt><trkpt lat="43.861805" lon="12.5367517"><ele>486.66666666666663</ele><time>2026-04-06T12:08:37.687Z</time></trkpt><trkpt lat="43.8617067" lon="12.5368167"><ele>488.0</ele><time>2026-04-06T12:08:39.686Z</time></trkpt><trkpt lat="43.8615867" lon="12.53687"><ele>486.66666666666663</ele><time>2026-04-06T12:08:41.683Z</time></trkpt><trkpt lat="43.8615117" lon="12.536905"><ele>485.3333333333333</ele><time>2026-04-06T12:08:42.683Z</time></trkpt><trkpt lat="43.8614367" lon="12.5369483"><ele>484.0</ele><time>2026-04-06T12:08:43.688Z</time></trkpt><trkpt lat="43.8613583" lon="12.5369883"><ele>482.66666666666663</ele><time>2026-04-06T12:08:44.685Z</time></trkpt><trkpt lat="43.86128" lon="12.5370283"><ele>481.3333333333333</ele><time>2026-04-06T12:08:45.686Z</time></trkpt><trkpt lat="43.8612067" lon="12.5370667"><ele>480.0</ele><time>2026-04-06T12:08:46.686Z</time></trkpt><trkpt lat="43.8611267" lon="12.5371117"><ele>480.0</ele><time>2026-04-06T12:08:47.686Z</time></trkpt><trkpt lat="43.8610417" lon="12.5371517"><ele>480.0</ele><time>2026-04-06T12:08:48.685Z</time></trkpt><trkpt lat="43.8609567" lon="12.537195"><ele>480.0</ele><time>2026-04-06T12:08:49.687Z</time></trkpt><trkpt lat="43.86087" lon="12.5372317"><ele>480.0</ele><time>2026-04-06T12:08:50.685Z</time></trkpt><trkpt lat="43.8607817" lon="12.5372617"><ele>480.0</ele><time>2026-04-06T12:08:51.686Z</time></trkpt><trkpt lat="43.8606883" lon="12.53729"><ele>476.6</ele><time>2026-04-06T12:08:52.683Z</time></trkpt><trkpt lat="43.860595" lon="12.53731"><ele>473.2</ele><time>2026-04-06T12:08:53.688Z</time></trkpt><trkpt lat="43.860505" lon="12.5373267"><ele>469.79999999999995</ele><time>2026-04-06T12:08:54.685Z</time></trkpt><trkpt lat="43.8604083" lon="12.5373167"><ele>466.4</ele><time>2026-04-06T12:08:55.685Z</time></trkpt><trkpt lat="43.860305" lon="12.5372917"><ele>463.0</ele><time>2026-04-06T12:08:56.685Z</time></trkpt><trkpt lat="43.8602033" lon="12.5372667"><ele>459.79999999999995</ele><time>2026-04-06T12:08:57.686Z</time></trkpt><trkpt lat="43.86011" lon="12.537245"><ele>456.59999999999997</ele><time>2026-04-06T12:08:58.684Z</time></trkpt><trkpt lat="43.860035" lon="12.537245"><ele>453.40000000000003</ele><time>2026-04-06T12:08:59.685Z</time></trkpt><trkpt lat="43.859965" lon="12.5372517"><ele>450.20000000000005</ele><time>2026-04-06T12:09:00.685Z</time></trkpt><trkpt lat="43.8598517" lon="12.53729"><ele>447.0</ele><time>2026-04-06T12:09:02.685Z</time></trkpt><trkpt lat="43.8597317" lon="12.53734"><ele>447.0</ele><time>2026-04-06T12:09:04.686Z</time></trkpt><trkpt lat="43.859665" lon="12.5373717"><ele>447.0</ele><time>2026-04-06T12:09:05.685Z</time></trkpt><trkpt lat="43.8595883" lon="12.5374133"><ele>447.0</ele><time>2026-04-06T12:09:06.686Z</time></trkpt><trkpt lat="43.8595" lon="12.537465"><ele>447.0</ele><time>2026-04-06T12:09:07.684Z</time></trkpt><trkpt lat="43.8594133" lon="12.5375233"><ele>447.0</ele><time>2026-04-06T12:09:08.688Z</time></trkpt><trkpt lat="43.8593367" lon="12.5375983"><ele>447.0</ele><time>2026-04-06T12:09:09.684Z</time></trkpt><trkpt lat="43.8592617" lon="12.5376867"><ele>444.5</ele><time>2026-04-06T12:09:10.684Z</time></trkpt><trkpt lat="43.8591933" lon="12.5377817"><ele>442.0</ele><time>2026-04-06T12:09:11.688Z</time></trkpt><trkpt lat="43.8591283" lon="12.5378683"><ele>439.5</ele><time>2026-04-06T12:09:12.685Z</time></trkpt><trkpt lat="43.8590583" lon="12.53794"><ele>437.0</ele><time>2026-04-06T12:09:13.688Z</time></trkpt><trkpt lat="43.8589817" lon="12.5379917"><ele>434.5</ele><time>2026-04-06T12:09:14.685Z</time></trkpt><trkpt lat="43.8588967" lon="12.5380267"><ele>432.0</ele><time>2026-04-06T12:09:15.683Z</time></trkpt><trkpt lat="43.8588117" lon="12.53805"><ele>432.0</ele><time>2026-04-06T12:09:16.685Z</time></trkpt><trkpt lat="43.8587283" lon="12.5380717"><ele>432.0</ele><time>2026-04-06T12:09:17.684Z</time></trkpt><trkpt lat="43.8586433" lon="12.5380933"><ele>432.0</ele><time>2026-04-06T12:09:18.685Z</time></trkpt><trkpt lat="43.8585567" lon="12.5381167"><ele>432.0</ele><time>2026-04-06T12:09:19.685Z</time></trkpt><trkpt lat="43.85847" lon="12.53814"><ele>432.0</ele><time>2026-04-06T12:09:20.685Z</time></trkpt><trkpt lat="43.8583833" lon="12.538155"><ele>432.0</ele><time>2026-04-06T12:09:21.686Z</time></trkpt><trkpt lat="43.8582917" lon="12.5381683"><ele>428.6</ele><time>2026-04-06T12:09:22.685Z</time></trkpt><trkpt lat="43.8582017" lon="12.5381717"><ele>425.20000000000005</ele><time>2026-04-06T12:09:23.684Z</time></trkpt><trkpt lat="43.85811" lon="12.5381583"><ele>421.8</ele><time>2026-04-06T12:09:24.685Z</time></trkpt><trkpt lat="43.858015" lon="12.538145"><ele>418.4</ele><time>2026-04-06T12:09:25.684Z</time></trkpt><trkpt lat="43.85792" lon="12.5381217"><ele>415.0</ele><time>2026-04-06T12:09:26.686Z</time></trkpt><trkpt lat="43.857835" lon="12.5380883"><ele>415.00000000000006</ele><time>2026-04-06T12:09:27.686Z</time></trkpt><trkpt lat="43.8577517" lon="12.5380617"><ele>415.0</ele><time>2026-04-06T12:09:28.684Z</time></trkpt><trkpt lat="43.8576683" lon="12.5380433"><ele>415.0</ele><time>2026-04-06T12:09:29.685Z</time></trkpt><trkpt lat="43.8575867" lon="12.5380383"><ele>415.0</ele><time>2026-04-06T12:09:30.686Z</time></trkpt><trkpt lat="43.8575117" lon="12.5380533"><ele>415.00000000000006</ele><time>2026-04-06T12:09:31.687Z</time></trkpt><trkpt lat="43.8574367" lon="12.538085"><ele>415.0</ele><time>2026-04-06T12:09:32.687Z</time></trkpt><trkpt lat="43.857365" lon="12.538125"><ele>413.00000000000006</ele><time>2026-04-06T12:09:33.685Z</time></trkpt><trkpt lat="43.85729" lon="12.5381683"><ele>411.0</ele><time>2026-04-06T12:09:34.685Z</time></trkpt><trkpt lat="43.8572167" lon="12.5382133"><ele>409.0</ele><time>2026-04-06T12:09:35.687Z</time></trkpt><trkpt lat="43.8571567" lon="12.538255"><ele>407.0</ele><time>2026-04-06T12:09:36.684Z</time></trkpt><trkpt lat="43.8570717" lon="12.5383367"><ele>405.00000000000006</ele><time>2026-04-06T12:09:38.687Z</time></trkpt><trkpt lat="43.8570067" lon="12.5384533"><ele>403.0</ele><time>2026-04-06T12:09:40.684Z</time></trkpt><trkpt lat="43.8569683" lon="12.538525"><ele>403.00000000000006</ele><time>2026-04-06T12:09:41.688Z</time></trkpt><trkpt lat="43.8569267" lon="12.5386"><ele>403.0</ele><time>2026-04-06T12:09:42.686Z</time></trkpt><trkpt lat="43.8568767" lon="12.5386783"><ele>403.0</ele><time>2026-04-06T12:09:43.686Z</time></trkpt><trkpt lat="43.8568233" lon="12.5387617"><ele>403.0</ele><time>2026-04-06T12:09:44.685Z</time></trkpt><trkpt lat="43.8567683" lon="12.5388433"><ele>403.00000000000006</ele><time>2026-04-06T12:09:45.686Z</time></trkpt><trkpt lat="43.8567133" lon="12.53894"><ele>403.0</ele><time>2026-04-06T12:09:46.685Z</time></trkpt><trkpt lat="43.85665" lon="12.5390333"><ele>399.0</ele><time>2026-04-06T12:09:47.686Z</time></trkpt><trkpt lat="43.8565883" lon="12.5391283"><ele>395.0</ele><time>2026-04-06T12:09:48.685Z</time></trkpt><trkpt lat="43.8565167" lon="12.5392183"><ele>391.0</ele><time>2026-04-06T12:09:49.686Z</time></trkpt><trkpt lat="43.856445" lon="12.5393067"><ele>387.0</ele><time>2026-04-06T12:09:50.685Z</time></trkpt><trkpt lat="43.8563733" lon="12.5394017"><ele>383.0</ele><time>2026-04-06T12:09:51.684Z</time></trkpt><trkpt lat="43.8562967" lon="12.5395017"><ele>380.83333333333337</ele><time>2026-04-06T12:09:52.684Z</time></trkpt><trkpt lat="43.856235" lon="12.539605"><ele>378.6666666666667</ele><time>2026-04-06T12:09:53.687Z</time></trkpt><trkpt lat="43.8561917" lon="12.53971"><ele>376.5</ele><time>2026-04-06T12:09:54.686Z</time></trkpt><trkpt lat="43.8561617" lon="12.539815"><ele>374.3333333333333</ele><time>2026-04-06T12:09:55.686Z</time></trkpt><trkpt lat="43.8561383" lon="12.539905"><ele>372.16666666666663</ele><time>2026-04-06T12:09:56.684Z</time></trkpt><trkpt lat="43.85608" lon="12.5400217"><ele>370.0</ele><time>2026-04-06T12:09:58.685Z</time></trkpt><trkpt lat="43.8560133" lon="12.5400933"><ele>370.0</ele><time>2026-04-06T12:10:09.685Z</time></trkpt><trkpt lat="43.85599" lon="12.5402133"><ele>370.0</ele><time>2026-04-06T12:10:11.686Z</time></trkpt><trkpt lat="43.856" lon="12.5403783"><ele>370.0</ele><time>2026-04-06T12:10:13.685Z</time></trkpt><trkpt lat="43.8560117" lon="12.540475"><ele>370.0</ele><time>2026-04-06T12:10:14.685Z</time></trkpt><trkpt lat="43.8560267" lon="12.5405833"><ele>370.0</ele><time>2026-04-06T12:10:15.684Z</time></trkpt><trkpt lat="43.8560367" lon="12.540685"><ele>370.0</ele><time>2026-04-06T12:10:16.684Z</time></trkpt><trkpt lat="43.8560433" lon="12.5407833"><ele>368.8333333333333</ele><time>2026-04-06T12:10:17.685Z</time></trkpt><trkpt lat="43.8560383" lon="12.540885"><ele>367.66666666666663</ele><time>2026-04-06T12:10:18.685Z</time></trkpt><trkpt lat="43.8560183" lon="12.5409767"><ele>366.5</ele><time>2026-04-06T12:10:19.686Z</time></trkpt><trkpt lat="43.8559833" lon="12.5410633"><ele>365.3333333333333</ele><time>2026-04-06T12:10:20.685Z</time></trkpt><trkpt lat="43.8559383" lon="12.541145"><ele>364.1666666666667</ele><time>2026-04-06T12:10:21.684Z</time></trkpt><trkpt lat="43.8558667" lon="12.5412183"><ele>363.0</ele><time>2026-04-06T12:10:22.685Z</time></trkpt><trkpt lat="43.8557717" lon="12.541305"><ele>359.59999999999997</ele><time>2026-04-06T12:10:23.688Z</time></trkpt><trkpt lat="43.8556817" lon="12.54139"><ele>356.2</ele><time>2026-04-06T12:10:24.683Z</time></trkpt><trkpt lat="43.8556033" lon="12.5414917"><ele>352.8</ele><time>2026-04-06T12:10:25.688Z</time></trkpt><trkpt lat="43.8555367" lon="12.541615"><ele>349.4</ele><time>2026-04-06T12:10:26.686Z</time></trkpt><trkpt lat="43.8554767" lon="12.54175"><ele>346.0</ele><time>2026-04-06T12:10:27.685Z</time></trkpt><trkpt lat="43.8554217" lon="12.5418883"><ele>346.0</ele><time>2026-04-06T12:10:28.688Z</time></trkpt><trkpt lat="43.8553667" lon="12.5420267"><ele>346.0</ele><time>2026-04-06T12:10:29.685Z</time></trkpt><trkpt lat="43.8552933" lon="12.54216"><ele>346.0</ele><time>2026-04-06T12:10:30.686Z</time></trkpt><trkpt lat="43.855195" lon="12.54227"><ele>346.0</ele><time>2026-04-06T12:10:31.687Z</time></trkpt><trkpt lat="43.8550783" lon="12.5423533"><ele>340.75</ele><time>2026-04-06T12:10:32.686Z</time></trkpt><trkpt lat="43.8549533" lon="12.5424183"><ele>335.5</ele><time>2026-04-06T12:10:33.686Z</time></trkpt><trkpt lat="43.854825" lon="12.5424733"><ele>330.25</ele><time>2026-04-06T12:10:34.687Z</time></trkpt><trkpt lat="43.8546883" lon="12.5425267"><ele>325.0</ele><time>2026-04-06T12:10:35.685Z</time></trkpt><trkpt lat="43.8545533" lon="12.5425883"><ele>325.0</ele><time>2026-04-06T12:10:36.687Z</time></trkpt><trkpt lat="43.8544183" lon="12.542655"><ele>325.0</ele><time>2026-04-06T12:10:37.688Z</time></trkpt><trkpt lat="43.854285" lon="12.5427217"><ele>325.0</ele><time>2026-04-06T12:10:38.685Z</time></trkpt><trkpt lat="43.8541583" lon="12.542795"><ele>325.0</ele><time>2026-04-06T12:10:39.685Z</time></trkpt><trkpt lat="43.85404" lon="12.5428717"><ele>323.0</ele><time>2026-04-06T12:10:40.686Z</time></trkpt><trkpt lat="43.85393" lon="12.542945"><ele>321.0</ele><time>2026-04-06T12:10:41.685Z</time></trkpt><trkpt lat="43.8538233" lon="12.5430217"><ele>319.0</ele><time>2026-04-06T12:10:42.684Z</time></trkpt><trkpt lat="43.8537217" lon="12.5430883"><ele>317.0</ele><time>2026-04-06T12:10:43.685Z</time></trkpt><trkpt lat="43.8536233" lon="12.543145"><ele>317.0</ele><time>2026-04-06T12:10:44.686Z</time></trkpt><trkpt lat="43.8535283" lon="12.54319"><ele>317.0</ele><time>2026-04-06T12:10:45.686Z</time></trkpt><trkpt lat="43.853435" lon="12.543215"><ele>317.0</ele><time>2026-04-06T12:10:46.687Z</time></trkpt><trkpt lat="43.853335" lon="12.5432133"><ele>317.0</ele><time>2026-04-06T12:10:47.683Z</time></trkpt><trkpt lat="43.8532367" lon="12.5431917"><ele>317.0</ele><time>2026-04-06T12:10:48.684Z</time></trkpt><trkpt lat="43.8531517" lon="12.5431717"><ele>316.1666666666667</ele><time>2026-04-06T12:10:49.685Z</time></trkpt><trkpt lat="43.853075" lon="12.5431683"><ele>315.33333333333337</ele><time>2026-04-06T12:10:50.685Z</time></trkpt><trkpt lat="43.85297" lon="12.5431983"><ele>314.5</ele><time>2026-04-06T12:10:52.685Z</time></trkpt><trkpt lat="43.8528983" lon="12.5432383"><ele>313.6666666666667</ele><time>2026-04-06T12:10:54.686Z</time></trkpt><trkpt lat="43.8528183" lon="12.5433283"><ele>312.8333333333333</ele><time>2026-04-06T12:10:56.687Z</time></trkpt><trkpt lat="43.85276" lon="12.54341"><ele>312.0</ele><time>2026-04-06T12:10:57.686Z</time></trkpt><trkpt lat="43.85269" lon="12.54352"><ele>312.0</ele><time>2026-04-06T12:10:58.686Z</time></trkpt><trkpt lat="43.8526283" lon="12.5436567"><ele>312.0</ele><time>2026-04-06T12:10:59.685Z</time></trkpt><trkpt lat="43.8525683" lon="12.5438217"><ele>312.0</ele><time>2026-04-06T12:11:00.686Z</time></trkpt><trkpt lat="43.8525117" lon="12.5440117"><ele>312.0</ele><time>2026-04-06T12:11:01.688Z</time></trkpt><trkpt lat="43.8524517" lon="12.544205"><ele>312.25</ele><time>2026-04-06T12:11:02.685Z</time></trkpt><trkpt lat="43.852385" lon="12.5443983"><ele>312.5</ele><time>2026-04-06T12:11:03.684Z</time></trkpt><trkpt lat="43.852325" lon="12.5445767"><ele>312.75</ele><time>2026-04-06T12:11:04.686Z</time></trkpt><trkpt lat="43.852275" lon="12.54474"><ele>313.0</ele><time>2026-04-06T12:11:05.685Z</time></trkpt><trkpt lat="43.8522317" lon="12.5448867"><ele>312.6</ele><time>2026-04-06T12:11:06.686Z</time></trkpt><trkpt lat="43.852185" lon="12.5450217"><ele>312.20000000000005</ele><time>2026-04-06T12:11:07.686Z</time></trkpt><trkpt lat="43.8521367" lon="12.54515"><ele>311.8</ele><time>2026-04-06T12:11:08.687Z</time></trkpt><trkpt lat="43.852085" lon="12.5452733"><ele>311.40000000000003</ele><time>2026-04-06T12:11:09.686Z</time></trkpt><trkpt lat="43.8520183" lon="12.5453917"><ele>311.0</ele><time>2026-04-06T12:11:10.686Z</time></trkpt><trkpt lat="43.8519317" lon="12.545505"><ele>311.25</ele><time>2026-04-06T12:11:11.686Z</time></trkpt><trkpt lat="43.8518267" lon="12.5456133"><ele>311.5</ele><time>2026-04-06T12:11:12.685Z</time></trkpt><trkpt lat="43.851705" lon="12.5457133"><ele>311.75</ele><time>2026-04-06T12:11:13.686Z</time></trkpt><trkpt lat="43.8515817" lon="12.54581"><ele>312.0</ele><time>2026-04-06T12:11:14.687Z</time></trkpt><trkpt lat="43.85147" lon="12.5459"><ele>312.0</ele><time>2026-04-06T12:11:15.686Z</time></trkpt><trkpt lat="43.8513567" lon="12.545975"><ele>312.0</ele><time>2026-04-06T12:11:16.683Z</time></trkpt><trkpt lat="43.85125" lon="12.54601"><ele>312.0</ele><time>2026-04-06T12:11:17.684Z</time></trkpt><trkpt lat="43.8511533" lon="12.54601"><ele>312.0</ele><time>2026-04-06T12:11:18.684Z</time></trkpt><trkpt lat="43.8510733" lon="12.5459867"><ele>312.0</ele><time>2026-04-06T12:11:19.685Z</time></trkpt><trkpt lat="43.851005" lon="12.5459583"><ele>313.6666666666667</ele><time>2026-04-06T12:11:20.684Z</time></trkpt><trkpt lat="43.8509417" lon="12.5459283"><ele>315.3333333333333</ele><time>2026-04-06T12:11:21.683Z</time></trkpt><trkpt lat="43.8508433" lon="12.5458883"><ele>317.0</ele><time>2026-04-06T12:11:23.686Z</time></trkpt><trkpt lat="43.85081" lon="12.5457917"><ele>318.66666666666663</ele><time>2026-04-06T12:11:29.685Z</time></trkpt><trkpt lat="43.8508383" lon="12.5457033"><ele>320.3333333333333</ele><time>2026-04-06T12:11:31.685Z</time></trkpt><trkpt lat="43.8508717" lon="12.5455517"><ele>322.0</ele><time>2026-04-06T12:11:33.685Z</time></trkpt><trkpt lat="43.8508917" lon="12.545455"><ele>320.75</ele><time>2026-04-06T12:11:34.683Z</time></trkpt><trkpt lat="43.850915" lon="12.5453233"><ele>319.5</ele><time>2026-04-06T12:11:35.686Z</time></trkpt><trkpt lat="43.8509583" lon="12.5451567"><ele>318.25</ele><time>2026-04-06T12:11:36.687Z</time></trkpt><trkpt lat="43.8510083" lon="12.544995"><ele>317.0</ele><time>2026-04-06T12:11:37.685Z</time></trkpt><trkpt lat="43.8510583" lon="12.5448533"><ele>317.0</ele><time>2026-04-06T12:11:38.687Z</time></trkpt><trkpt lat="43.85111" lon="12.544705"><ele>317.0</ele><time>2026-04-06T12:11:39.686Z</time></trkpt><trkpt lat="43.851155" lon="12.5445517"><ele>317.0</ele><time>2026-04-06T12:11:40.685Z</time></trkpt><trkpt lat="43.8511933" lon="12.5443883"><ele>317.0</ele><time>2026-04-06T12:11:41.684Z</time></trkpt><trkpt lat="43.8512067" lon="12.5442367"><ele>318.75</ele><time>2026-04-06T12:11:42.685Z</time></trkpt><trkpt lat="43.8511967" lon="12.5440833"><ele>320.5</ele><time>2026-04-06T12:11:43.683Z</time></trkpt><trkpt lat="43.8511617" lon="12.5439383"><ele>322.25</ele><time>2026-04-06T12:11:44.685Z</time></trkpt><trkpt lat="43.8511133" lon="12.5437867"><ele>324.0</ele><time>2026-04-06T12:11:45.685Z</time></trkpt><trkpt lat="43.851055" lon="12.5436217"><ele>325.5</ele><time>2026-04-06T12:11:46.685Z</time></trkpt><trkpt lat="43.8509983" lon="12.5434467"><ele>327.0</ele><time>2026-04-06T12:11:47.683Z</time></trkpt><trkpt lat="43.850945" lon="12.543265"><ele>328.5</ele><time>2026-04-06T12:11:48.684Z</time></trkpt><trkpt lat="43.850885" lon="12.5430983"><ele>330.0</ele><time>2026-04-06T12:11:49.684Z</time></trkpt><trkpt lat="43.850845" lon="12.5429467"><ele>334.25</ele><time>2026-04-06T12:11:50.685Z</time></trkpt><trkpt lat="43.8508133" lon="12.5427917"><ele>338.5</ele><time>2026-04-06T12:11:51.684Z</time></trkpt><trkpt lat="43.8507833" lon="12.5426267"><ele>342.75</ele><time>2026-04-06T12:11:52.685Z</time></trkpt><trkpt lat="43.8507517" lon="12.5424533"><ele>347.0</ele><time>2026-04-06T12:11:53.685Z</time></trkpt><trkpt lat="43.8507167" lon="12.54228"><ele>347.0</ele><time>2026-04-06T12:11:54.686Z</time></trkpt><trkpt lat="43.8506817" lon="12.5421117"><ele>347.0</ele><time>2026-04-06T12:11:55.684Z</time></trkpt><trkpt lat="43.85066" lon="12.5419817"><ele>347.0</ele><time>2026-04-06T12:11:56.684Z</time></trkpt><trkpt lat="43.8506683" lon="12.54186"><ele>347.0</ele><time>2026-04-06T12:11:57.686Z</time></trkpt><trkpt lat="43.8507033" lon="12.54175"><ele>347.0</ele><time>2026-04-06T12:11:58.686Z</time></trkpt><trkpt lat="43.8507417" lon="12.5416367"><ele>347.75</ele><time>2026-04-06T12:11:59.686Z</time></trkpt><trkpt lat="43.8508" lon="12.5415183"><ele>348.5</ele><time>2026-04-06T12:12:00.686Z</time></trkpt><trkpt lat="43.85086" lon="12.5413933"><ele>349.25</ele><time>2026-04-06T12:12:01.684Z</time></trkpt><trkpt lat="43.8509167" lon="12.5412483"><ele>350.0</ele><time>2026-04-06T12:12:02.686Z</time></trkpt><trkpt lat="43.8509667" lon="12.54108"><ele>350.0</ele><time>2026-04-06T12:12:03.685Z</time></trkpt><trkpt lat="43.8510133" lon="12.5408967"><ele>350.0</ele><time>2026-04-06T12:12:04.686Z</time></trkpt><trkpt lat="43.8510567" lon="12.54072"><ele>350.0</ele><time>2026-04-06T12:12:05.685Z</time></trkpt><trkpt lat="43.8510967" lon="12.5405333"><ele>350.0</ele><time>2026-04-06T12:12:06.684Z</time></trkpt><trkpt lat="43.851135" lon="12.5403483"><ele>352.0</ele><time>2026-04-06T12:12:07.687Z</time></trkpt><trkpt lat="43.851175" lon="12.540165"><ele>354.0</ele><time>2026-04-06T12:12:08.684Z</time></trkpt><trkpt lat="43.8512133" lon="12.5399983"><ele>356.0</ele><time>2026-04-06T12:12:09.686Z</time></trkpt><trkpt lat="43.8512467" lon="12.539835"><ele>358.0</ele><time>2026-04-06T12:12:10.685Z</time></trkpt><trkpt lat="43.85127" lon="12.53968"><ele>359.4</ele><time>2026-04-06T12:12:11.686Z</time></trkpt><trkpt lat="43.851275" lon="12.53953"><ele>360.79999999999995</ele><time>2026-04-06T12:12:12.686Z</time></trkpt><trkpt lat="43.8512567" lon="12.5393883"><ele>362.2</ele><time>2026-04-06T12:12:13.686Z</time></trkpt><trkpt lat="43.8512167" lon="12.5392583"><ele>363.6</ele><time>2026-04-06T12:12:14.685Z</time></trkpt><trkpt lat="43.8511667" lon="12.5391367"><ele>365.0</ele><time>2026-04-06T12:12:15.686Z</time></trkpt><trkpt lat="43.8511167" lon="12.5390333"><ele>365.0</ele><time>2026-04-06T12:12:16.686Z</time></trkpt><trkpt lat="43.8510767" lon="12.538935"><ele>365.0</ele><time>2026-04-06T12:12:17.685Z</time></trkpt><trkpt lat="43.8510483" lon="12.5388483"><ele>365.0</ele><time>2026-04-06T12:12:18.688Z</time></trkpt><trkpt lat="43.8510333" lon="12.53871"><ele>365.0</ele><time>2026-04-06T12:12:20.686Z</time></trkpt><trkpt lat="43.8510767" lon="12.5385933"><ele>365.0</ele><time>2026-04-06T12:12:22.685Z</time></trkpt><trkpt lat="43.85112" lon="12.5384583"><ele>366.1666666666667</ele><time>2026-04-06T12:12:24.684Z</time></trkpt><trkpt lat="43.8511333" lon="12.5382917"><ele>367.33333333333337</ele><time>2026-04-06T12:12:26.685Z</time></trkpt><trkpt lat="43.8511117" lon="12.5381967"><ele>368.5</ele><time>2026-04-06T12:12:27.685Z</time></trkpt><trkpt lat="43.8510983" lon="12.5381017"><ele>369.6666666666667</ele><time>2026-04-06T12:12:28.685Z</time></trkpt><trkpt lat="43.8510717" lon="12.5379933"><ele>370.8333333333333</ele><time>2026-04-06T12:12:29.686Z</time></trkpt><trkpt lat="43.85104" lon="12.5378767"><ele>372.0</ele><time>2026-04-06T12:12:30.686Z</time></trkpt><trkpt lat="43.8509933" lon="12.5377517"><ele>378.5</ele><time>2026-04-06T12:12:31.686Z</time></trkpt><trkpt lat="43.8509333" lon="12.5376217"><ele>385.0</ele><time>2026-04-06T12:12:32.687Z</time></trkpt><trkpt lat="43.8508733" lon="12.5374917"><ele>391.5</ele><time>2026-04-06T12:12:33.684Z</time></trkpt><trkpt lat="43.850815" lon="12.5373533"><ele>398.0</ele><time>2026-04-06T12:12:34.683Z</time></trkpt><trkpt lat="43.8507533" lon="12.5372083"><ele>398.0</ele><time>2026-04-06T12:12:35.687Z</time></trkpt><trkpt lat="43.8506867" lon="12.5370667"><ele>398.0</ele><time>2026-04-06T12:12:36.685Z</time></trkpt><trkpt lat="43.8506267" lon="12.5369217"><ele>398.0</ele><time>2026-04-06T12:12:37.686Z</time></trkpt><trkpt lat="43.8505667" lon="12.5367767"><ele>398.0</ele><time>2026-04-06T12:12:38.683Z</time></trkpt><trkpt lat="43.8505133" lon="12.5366283"><ele>398.79999999999995</ele><time>2026-04-06T12:12:39.685Z</time></trkpt><trkpt lat="43.8504783" lon="12.5364767"><ele>399.6</ele><time>2026-04-06T12:12:40.686Z</time></trkpt><trkpt lat="43.8504433" lon="12.5363383"><ele>400.4</ele><time>2026-04-06T12:12:41.686Z</time></trkpt><trkpt lat="43.8504" lon="12.536215"><ele>401.20000000000005</ele><time>2026-04-06T12:12:42.686Z</time></trkpt><trkpt lat="43.85035" lon="12.5361017"><ele>402.0</ele><time>2026-04-06T12:12:43.685Z</time></trkpt><trkpt lat="43.85028" lon="12.536005"><ele>402.20000000000005</ele><time>2026-04-06T12:12:44.684Z</time></trkpt><trkpt lat="43.8502" lon="12.5359267"><ele>402.4</ele><time>2026-04-06T12:12:45.685Z</time></trkpt><trkpt lat="43.85011" lon="12.5358617"><ele>402.6</ele><time>2026-04-06T12:12:46.683Z</time></trkpt><trkpt lat="43.850025" lon="12.53581"><ele>402.79999999999995</ele><time>2026-04-06T12:12:47.686Z</time></trkpt><trkpt lat="43.8499483" lon="12.5357583"><ele>403.0</ele><time>2026-04-06T12:12:48.686Z</time></trkpt><trkpt lat="43.8498683" lon="12.5357"><ele>408.2</ele><time>2026-04-06T12:12:49.686Z</time></trkpt><trkpt lat="43.849805" lon="12.5356083"><ele>413.4</ele><time>2026-04-06T12:12:50.684Z</time></trkpt><trkpt lat="43.8497383" lon="12.535495"><ele>418.59999999999997</ele><time>2026-04-06T12:12:51.685Z</time></trkpt><trkpt lat="43.8496683" lon="12.5353767"><ele>423.79999999999995</ele><time>2026-04-06T12:12:52.686Z</time></trkpt><trkpt lat="43.849595" lon="12.5352567"><ele>429.0</ele><time>2026-04-06T12:12:53.685Z</time></trkpt><trkpt lat="43.8495083" lon="12.5351533"><ele>431.75</ele><time>2026-04-06T12:12:54.684Z</time></trkpt><trkpt lat="43.8494117" lon="12.5350667"><ele>434.5</ele><time>2026-04-06T12:12:55.686Z</time></trkpt><trkpt lat="43.8493067" lon="12.53499"><ele>437.25</ele><time>2026-04-06T12:12:56.685Z</time></trkpt><trkpt lat="43.8491983" lon="12.53493"><ele>440.0</ele><time>2026-04-06T12:12:57.683Z</time></trkpt><trkpt lat="43.8490833" lon="12.5348733"><ele>441.25</ele><time>2026-04-06T12:12:58.685Z</time></trkpt><trkpt lat="43.8489617" lon="12.5348133"><ele>442.5</ele><time>2026-04-06T12:12:59.685Z</time></trkpt><trkpt lat="43.8488417" lon="12.534755"><ele>443.75</ele><time>2026-04-06T12:13:00.685Z</time></trkpt><trkpt lat="43.8487333" lon="12.5346917"><ele>445.0</ele><time>2026-04-06T12:13:01.688Z</time></trkpt><trkpt lat="43.8486417" lon="12.53462"><ele>447.8</ele><time>2026-04-06T12:13:02.685Z</time></trkpt><trkpt lat="43.84857" lon="12.5345333"><ele>450.6</ele><time>2026-04-06T12:13:03.685Z</time></trkpt><trkpt lat="43.8485117" lon="12.5344417"><ele>453.4</ele><time>2026-04-06T12:13:04.685Z</time></trkpt><trkpt lat="43.8484833" lon="12.5343533"><ele>456.2</ele><time>2026-04-06T12:13:05.685Z</time></trkpt><trkpt lat="43.848515" lon="12.534175"><ele>459.0</ele><time>2026-04-06T12:13:07.687Z</time></trkpt><trkpt lat="43.8485667" lon="12.5340633"><ele>459.0</ele><time>2026-04-06T12:13:08.685Z</time></trkpt><trkpt lat="43.8486217" lon="12.5339333"><ele>459.0</ele><time>2026-04-06T12:13:09.685Z</time></trkpt><trkpt lat="43.8486883" lon="12.5337817"><ele>459.0</ele><time>2026-04-06T12:13:10.684Z</time></trkpt><trkpt lat="43.84874" lon="12.53363"><ele>459.0</ele><time>2026-04-06T12:13:11.686Z</time></trkpt><trkpt lat="43.84878" lon="12.53348"><ele>460.6666666666667</ele><time>2026-04-06T12:13:12.686Z</time></trkpt><trkpt lat="43.848805" lon="12.5333383"><ele>462.33333333333337</ele><time>2026-04-06T12:13:13.687Z</time></trkpt><trkpt lat="43.8488117" lon="12.533215"><ele>464.0</ele><time>2026-04-06T12:13:14.685Z</time></trkpt><trkpt lat="43.8487983" lon="12.5331083"><ele>465.6666666666667</ele><time>2026-04-06T12:13:15.685Z</time></trkpt><trkpt lat="43.84877" lon="12.5330167"><ele>467.33333333333337</ele><time>2026-04-06T12:13:16.683Z</time></trkpt><trkpt lat="43.8487183" lon="12.5329483"><ele>469.0</ele><time>2026-04-06T12:13:17.684Z</time></trkpt><trkpt lat="43.848645" lon="12.5328867"><ele>470.5</ele><time>2026-04-06T12:13:18.684Z</time></trkpt><trkpt lat="43.8485617" lon="12.5328183"><ele>472.0</ele><time>2026-04-06T12:13:19.686Z</time></trkpt><trkpt lat="43.8484633" lon="12.5327383"><ele>473.5</ele><time>2026-04-06T12:13:20.686Z</time></trkpt><trkpt lat="43.848355" lon="12.5326517"><ele>475.0</ele><time>2026-04-06T12:13:21.685Z</time></trkpt><trkpt lat="43.8482467" lon="12.53256"><ele>477.6</ele><time>2026-04-06T12:13:22.684Z</time></trkpt><trkpt lat="43.8481517" lon="12.532475"><ele>480.2</ele><time>2026-04-06T12:13:23.687Z</time></trkpt><trkpt lat="43.84807" lon="12.5323983"><ele>482.79999999999995</ele><time>2026-04-06T12:13:24.685Z</time></trkpt><trkpt lat="43.848005" lon="12.5323167"><ele>485.4</ele><time>2026-04-06T12:13:25.688Z</time></trkpt><trkpt lat="43.847955" lon="12.532225"><ele>488.0</ele><time>2026-04-06T12:13:26.685Z</time></trkpt><trkpt lat="43.8479233" lon="12.532125"><ele>488.99999999999994</ele><time>2026-04-06T12:13:27.686Z</time></trkpt><trkpt lat="43.8478933" lon="12.53203"><ele>490.0</ele><time>2026-04-06T12:13:28.685Z</time></trkpt><trkpt lat="43.8478533" lon="12.5319533"><ele>491.0</ele><time>2026-04-06T12:13:29.688Z</time></trkpt><trkpt lat="43.8477967" lon="12.5318783"><ele>492.0</ele><time>2026-04-06T12:13:30.686Z</time></trkpt><trkpt lat="43.847715" lon="12.5318033"><ele>492.99999999999994</ele><time>2026-04-06T12:13:31.686Z</time></trkpt><trkpt lat="43.84763" lon="12.5317017"><ele>494.0</ele><time>2026-04-06T12:13:32.686Z</time></trkpt><trkpt lat="43.8475433" lon="12.5315783"><ele>496.75</ele><time>2026-04-06T12:13:33.686Z</time></trkpt><trkpt lat="43.8474583" lon="12.5314467"><ele>499.5</ele><time>2026-04-06T12:13:34.685Z</time></trkpt><trkpt lat="43.8473683" lon="12.53132"><ele>502.25</ele><time>2026-04-06T12:13:35.685Z</time></trkpt><trkpt lat="43.847275" lon="12.531195"><ele>505.0</ele><time>2026-04-06T12:13:36.686Z</time></trkpt><trkpt lat="43.8471883" lon="12.5310783"><ele>506.4</ele><time>2026-04-06T12:13:37.688Z</time></trkpt><trkpt lat="43.847105" lon="12.5309717"><ele>507.8</ele><time>2026-04-06T12:13:38.683Z</time></trkpt><trkpt lat="43.8470267" lon="12.5308717"><ele>509.20000000000005</ele><time>2026-04-06T12:13:39.688Z</time></trkpt><trkpt lat="43.8469583" lon="12.5307867"><ele>510.6</ele><time>2026-04-06T12:13:40.686Z</time></trkpt><trkpt lat="43.8468983" lon="12.5307217"><ele>512.0</ele><time>2026-04-06T12:13:41.684Z</time></trkpt><trkpt lat="43.8467833" lon="12.530665"><ele>513.1666666666666</ele><time>2026-04-06T12:13:43.687Z</time></trkpt><trkpt lat="43.84672" lon="12.53067"><ele>514.3333333333333</ele><time>2026-04-06T12:13:44.686Z</time></trkpt><trkpt lat="43.8466383" lon="12.5306867"><ele>515.5</ele><time>2026-04-06T12:13:45.686Z</time></trkpt><trkpt lat="43.8465583" lon="12.5307033"><ele>516.6666666666666</ele><time>2026-04-06T12:13:46.685Z</time></trkpt><trkpt lat="43.8464933" lon="12.5307217"><ele>517.8333333333334</ele><time>2026-04-06T12:13:47.686Z</time></trkpt><trkpt lat="43.8463717" lon="12.5307617"><ele>519.0</ele><time>2026-04-06T12:13:49.686Z</time></trkpt><trkpt lat="43.8462633" lon="12.5308083"><ele>519.0</ele><time>2026-04-06T12:13:51.686Z</time></trkpt><trkpt lat="43.846195" lon="12.5308333"><ele>519.0</ele><time>2026-04-06T12:13:52.689Z</time></trkpt><trkpt lat="43.8461117" lon="12.5308633"><ele>519.0</ele><time>2026-04-06T12:13:53.685Z</time></trkpt><trkpt lat="43.8460167" lon="12.5308917"><ele>519.0</ele><time>2026-04-06T12:13:54.685Z</time></trkpt><trkpt lat="43.8459117" lon="12.5309167"><ele>519.0</ele><time>2026-04-06T12:13:55.686Z</time></trkpt><trkpt lat="43.8457967" lon="12.5309367"><ele>521.5</ele><time>2026-04-06T12:13:56.686Z</time></trkpt><trkpt lat="43.8456733" lon="12.5309483"><ele>524.0</ele><time>2026-04-06T12:13:57.685Z</time></trkpt><trkpt lat="43.8455417" lon="12.5309517"><ele>526.5</ele><time>2026-04-06T12:13:58.686Z</time></trkpt><trkpt lat="43.8454117" lon="12.5309533"><ele>529.0</ele><time>2026-04-06T12:13:59.684Z</time></trkpt><trkpt lat="43.8452783" lon="12.5309517"><ele>529.0</ele><time>2026-04-06T12:14:00.684Z</time></trkpt><trkpt lat="43.8451533" lon="12.53095"><ele>529.0</ele><time>2026-04-06T12:14:01.686Z</time></trkpt><trkpt lat="43.8450333" lon="12.5309467"><ele>529.0</ele><time>2026-04-06T12:14:02.685Z</time></trkpt><trkpt lat="43.8449233" lon="12.5309417"><ele>529.0</ele><time>2026-04-06T12:14:03.685Z</time></trkpt><trkpt lat="43.8448283" lon="12.5309283"><ele>530.6666666666667</ele><time>2026-04-06T12:14:04.686Z</time></trkpt><trkpt lat="43.8447417" lon="12.530905"><ele>532.3333333333334</ele><time>2026-04-06T12:14:05.686Z</time></trkpt><trkpt lat="43.8446633" lon="12.53087"><ele>534.0</ele><time>2026-04-06T12:14:06.69Z</time></trkpt><trkpt lat="43.8445983" lon="12.5308267"><ele>535.6666666666666</ele><time>2026-04-06T12:14:07.687Z</time></trkpt><trkpt lat="43.8445267" lon="12.5307433"><ele>537.3333333333333</ele><time>2026-04-06T12:14:09.685Z</time></trkpt><trkpt lat="43.8445883" lon="12.5306683"><ele>539.0</ele><time>2026-04-06T12:14:12.685Z</time></trkpt><trkpt lat="43.8446533" lon="12.5306417"><ele>539.0</ele><time>2026-04-06T12:14:13.687Z</time></trkpt><trkpt lat="43.8447483" lon="12.5306117"><ele>539.0</ele><time>2026-04-06T12:14:14.685Z</time></trkpt><trkpt lat="43.8448633" lon="12.530575"><ele>539.0</ele><time>2026-04-06T12:14:15.686Z</time></trkpt><trkpt lat="43.8449983" lon="12.5305283"><ele>539.0</ele><time>2026-04-06T12:14:16.688Z</time></trkpt><trkpt lat="43.8451367" lon="12.5304783"><ele>538.75</ele><time>2026-04-06T12:14:17.684Z</time></trkpt><trkpt lat="43.8452783" lon="12.530425"><ele>538.5</ele><time>2026-04-06T12:14:18.686Z</time></trkpt><trkpt lat="43.8454233" lon="12.53037"><ele>538.25</ele><time>2026-04-06T12:14:19.688Z</time></trkpt><trkpt lat="43.8455667" lon="12.5303133"><ele>538.0</ele><time>2026-04-06T12:14:20.686Z</time></trkpt><trkpt lat="43.8457117" lon="12.530255"><ele>538.0</ele><time>2026-04-06T12:14:21.686Z</time></trkpt><trkpt lat="43.84585" lon="12.5302017"><ele>538.0</ele><time>2026-04-06T12:14:22.685Z</time></trkpt><trkpt lat="43.8459833" lon="12.5301483"><ele>538.0</ele><time>2026-04-06T12:14:23.685Z</time></trkpt><trkpt lat="43.8461167" lon="12.5300967"><ele>538.0</ele><time>2026-04-06T12:14:24.686Z</time></trkpt><trkpt lat="43.8462483" lon="12.5300467"><ele>536.0</ele><time>2026-04-06T12:14:25.687Z</time></trkpt><trkpt lat="43.846375" lon="12.5300017"><ele>534.0</ele><time>2026-04-06T12:14:26.686Z</time></trkpt><trkpt lat="43.8464983" lon="12.5299583"><ele>532.0</ele><time>2026-04-06T12:14:27.684Z</time></trkpt><trkpt lat="43.84662" lon="12.5299133"><ele>530.0</ele><time>2026-04-06T12:14:28.684Z</time></trkpt><trkpt lat="43.84674" lon="12.5298667"><ele>527.5</ele><time>2026-04-06T12:14:29.683Z</time></trkpt><trkpt lat="43.8468533" lon="12.5298183"><ele>525.0</ele><time>2026-04-06T12:14:30.686Z</time></trkpt><trkpt lat="43.8469617" lon="12.529765"><ele>522.5</ele><time>2026-04-06T12:14:31.686Z</time></trkpt><trkpt lat="43.8470667" lon="12.5297017"><ele>520.0</ele><time>2026-04-06T12:14:32.683Z</time></trkpt><trkpt lat="43.847165" lon="12.5296217"><ele>520.75</ele><time>2026-04-06T12:14:33.684Z</time></trkpt><trkpt lat="43.8472583" lon="12.5295183"><ele>521.5</ele><time>2026-04-06T12:14:34.683Z</time></trkpt><trkpt lat="43.8473417" lon="12.5293933"><ele>522.25</ele><time>2026-04-06T12:14:35.685Z</time></trkpt><trkpt lat="43.8474133" lon="12.529245"><ele>523.0</ele><time>2026-04-06T12:14:36.685Z</time></trkpt><trkpt lat="43.8474733" lon="12.52908"><ele>523.0</ele><time>2026-04-06T12:14:37.686Z</time></trkpt><trkpt lat="43.8475233" lon="12.5289083"><ele>523.0</ele><time>2026-04-06T12:14:38.683Z</time></trkpt><trkpt lat="43.84757" lon="12.5287433"><ele>523.0</ele><time>2026-04-06T12:14:39.683Z</time></trkpt><trkpt lat="43.847615" lon="12.5285867"><ele>523.0</ele><time>2026-04-06T12:14:40.686Z</time></trkpt><trkpt lat="43.847655" lon="12.5284333"><ele>517.5</ele><time>2026-04-06T12:14:41.685Z</time></trkpt><trkpt lat="43.8476817" lon="12.5282767"><ele>512.0</ele><time>2026-04-06T12:14:42.684Z</time></trkpt><trkpt lat="43.847695" lon="12.528115"><ele>506.5</ele><time>2026-04-06T12:14:43.686Z</time></trkpt><trkpt lat="43.8476967" lon="12.52795"><ele>501.0</ele><time>2026-04-06T12:14:44.686Z</time></trkpt><trkpt lat="43.84769" lon="12.527785"><ele>500.8</ele><time>2026-04-06T12:14:45.686Z</time></trkpt><trkpt lat="43.8476767" lon="12.5276267"><ele>500.6</ele><time>2026-04-06T12:14:46.685Z</time></trkpt><trkpt lat="43.847655" lon="12.5274717"><ele>500.4</ele><time>2026-04-06T12:14:47.688Z</time></trkpt><trkpt lat="43.8476283" lon="12.527325"><ele>500.2</ele><time>2026-04-06T12:14:48.686Z</time></trkpt><trkpt lat="43.84761" lon="12.527175"><ele>500.0</ele><time>2026-04-06T12:14:49.686Z</time></trkpt><trkpt lat="43.8476067" lon="12.5270283"><ele>500.6</ele><time>2026-04-06T12:14:50.686Z</time></trkpt><trkpt lat="43.8476183" lon="12.5268833"><ele>501.2</ele><time>2026-04-06T12:14:51.684Z</time></trkpt><trkpt lat="43.84765" lon="12.526745"><ele>501.79999999999995</ele><time>2026-04-06T12:14:52.684Z</time></trkpt><trkpt lat="43.8477033" lon="12.526615"><ele>502.4</ele><time>2026-04-06T12:14:53.687Z</time></trkpt><trkpt lat="43.84778" lon="12.5265033"><ele>503.0</ele><time>2026-04-06T12:14:54.686Z</time></trkpt><trkpt lat="43.8478717" lon="12.5264167"><ele>503.0</ele><time>2026-04-06T12:14:55.687Z</time></trkpt><trkpt lat="43.8479683" lon="12.5263583"><ele>502.99999999999994</ele><time>2026-04-06T12:14:56.686Z</time></trkpt><trkpt lat="43.848065" lon="12.52633"><ele>502.99999999999994</ele><time>2026-04-06T12:14:57.686Z</time></trkpt><trkpt lat="43.8481633" lon="12.5263333"><ele>503.0</ele><time>2026-04-06T12:14:58.685Z</time></trkpt><trkpt lat="43.84826" lon="12.526365"><ele>503.0</ele><time>2026-04-06T12:14:59.686Z</time></trkpt><trkpt lat="43.8483567" lon="12.5264217"><ele>502.0</ele><time>2026-04-06T12:15:00.685Z</time></trkpt><trkpt lat="43.8484617" lon="12.5265017"><ele>501.0</ele><time>2026-04-06T12:15:01.688Z</time></trkpt><trkpt lat="43.848565" lon="12.5265967"><ele>500.0</ele><time>2026-04-06T12:15:02.685Z</time></trkpt><trkpt lat="43.8486667" lon="12.5267033"><ele>499.0</ele><time>2026-04-06T12:15:03.685Z</time></trkpt><trkpt lat="43.8487683" lon="12.526805"><ele>499.0</ele><time>2026-04-06T12:15:04.688Z</time></trkpt><trkpt lat="43.8488767" lon="12.5269117"><ele>499.0</ele><time>2026-04-06T12:15:05.686Z</time></trkpt><trkpt lat="43.848985" lon="12.5270233"><ele>499.0</ele><time>2026-04-06T12:15:06.687Z</time></trkpt><trkpt lat="43.8490883" lon="12.5271367"><ele>499.0</ele><time>2026-04-06T12:15:07.688Z</time></trkpt><trkpt lat="43.84919" lon="12.5272483"><ele>497.25</ele><time>2026-04-06T12:15:08.685Z</time></trkpt><trkpt lat="43.84929" lon="12.5273567"><ele>495.5</ele><time>2026-04-06T12:15:09.686Z</time></trkpt><trkpt lat="43.8493867" lon="12.5274633"><ele>493.75</ele><time>2026-04-06T12:15:10.687Z</time></trkpt><trkpt lat="43.8494817" lon="12.52757"><ele>492.0</ele><time>2026-04-06T12:15:11.687Z</time></trkpt><trkpt lat="43.8495717" lon="12.5276767"><ele>490.5</ele><time>2026-04-06T12:15:12.686Z</time></trkpt><trkpt lat="43.8496633" lon="12.5277817"><ele>489.0</ele><time>2026-04-06T12:15:13.687Z</time></trkpt><trkpt lat="43.849755" lon="12.5278833"><ele>487.5</ele><time>2026-04-06T12:15:14.685Z</time></trkpt><trkpt lat="43.8498533" lon="12.5279783"><ele>486.0</ele><time>2026-04-06T12:15:15.687Z</time></trkpt><trkpt lat="43.8499633" lon="12.528065"><ele>484.25</ele><time>2026-04-06T12:15:16.685Z</time></trkpt><trkpt lat="43.8500917" lon="12.5281317"><ele>482.5</ele><time>2026-04-06T12:15:17.682Z</time></trkpt><trkpt lat="43.8502217" lon="12.5281733"><ele>480.75</ele><time>2026-04-06T12:15:18.684Z</time></trkpt><trkpt lat="43.8503433" lon="12.5281883"><ele>479.0</ele><time>2026-04-06T12:15:19.684Z</time></trkpt><trkpt lat="43.8504483" lon="12.528185"><ele>477.6</ele><time>2026-04-06T12:15:20.685Z</time></trkpt><trkpt lat="43.8505333" lon="12.5281417"><ele>476.2</ele><time>2026-04-06T12:15:21.685Z</time></trkpt><trkpt lat="43.8505983" lon="12.5280717"><ele>474.80000000000007</ele><time>2026-04-06T12:15:22.684Z</time></trkpt><trkpt lat="43.8506533" lon="12.528"><ele>473.40000000000003</ele><time>2026-04-06T12:15:23.684Z</time></trkpt><trkpt lat="43.8506633" lon="12.5278617"><ele>472.0</ele><time>2026-04-06T12:15:25.686Z</time></trkpt><trkpt lat="43.8506617" lon="12.5277183"><ele>471.33333333333337</ele><time>2026-04-06T12:15:27.684Z</time></trkpt><trkpt lat="43.85064" lon="12.5275767"><ele>470.6666666666667</ele><time>2026-04-06T12:15:29.685Z</time></trkpt><trkpt lat="43.8505933" lon="12.527435"><ele>470.0</ele><time>2026-04-06T12:15:31.688Z</time></trkpt><trkpt lat="43.850565" lon="12.5273533"><ele>469.33333333333337</ele><time>2026-04-06T12:15:32.685Z</time></trkpt><trkpt lat="43.8505333" lon="12.5272667"><ele>468.6666666666667</ele><time>2026-04-06T12:15:33.685Z</time></trkpt><trkpt lat="43.8505017" lon="12.5271833"><ele>468.0</ele><time>2026-04-06T12:15:34.685Z</time></trkpt><trkpt lat="43.85047" lon="12.5270983"><ele>466.75</ele><time>2026-04-06T12:15:35.685Z</time></trkpt><trkpt lat="43.8504083" lon="12.52695"><ele>465.5</ele><time>2026-04-06T12:15:37.686Z</time></trkpt><trkpt lat="43.8503417" lon="12.52681"><ele>464.25</ele><time>2026-04-06T12:15:39.685Z</time></trkpt><trkpt lat="43.850285" lon="12.5266717"><ele>463.0</ele><time>2026-04-06T12:15:41.685Z</time></trkpt><trkpt lat="43.850245" lon="12.526515"><ele>463.00000000000006</ele><time>2026-04-06T12:15:43.687Z</time></trkpt><trkpt lat="43.8502183" lon="12.52635"><ele>463.0</ele><time>2026-04-06T12:15:45.684Z</time></trkpt><trkpt lat="43.8502083" lon="12.5262567"><ele>463.0</ele><time>2026-04-06T12:15:46.686Z</time></trkpt><trkpt lat="43.8501933" lon="12.5261533"><ele>463.0</ele><time>2026-04-06T12:15:47.684Z</time></trkpt><trkpt lat="43.8501717" lon="12.5260467"><ele>463.00000000000006</ele><time>2026-04-06T12:15:48.684Z</time></trkpt><trkpt lat="43.8501483" lon="12.5259383"><ele>463.0</ele><time>2026-04-06T12:15:49.686Z</time></trkpt><trkpt lat="43.8501233" lon="12.52583"><ele>462.83333333333337</ele><time>2026-04-06T12:15:50.684Z</time></trkpt><trkpt lat="43.8500933" lon="12.5257267"><ele>462.6666666666667</ele><time>2026-04-06T12:15:51.685Z</time></trkpt><trkpt lat="43.8500583" lon="12.5256317"><ele>462.5</ele><time>2026-04-06T12:15:52.684Z</time></trkpt><trkpt lat="43.8500267" lon="12.5255383"><ele>462.33333333333337</ele><time>2026-04-06T12:15:53.685Z</time></trkpt><trkpt lat="43.85" lon="12.5254517"><ele>462.1666666666667</ele><time>2026-04-06T12:15:54.683Z</time></trkpt><trkpt lat="43.8499733" lon="12.5253667"><ele>462.0</ele><time>2026-04-06T12:15:55.687Z</time></trkpt><trkpt lat="43.8499217" lon="12.5252117"><ele>462.0</ele><time>2026-04-06T12:15:57.684Z</time></trkpt><trkpt lat="43.84988" lon="12.5250667"><ele>462.00000000000006</ele><time>2026-04-06T12:15:59.685Z</time></trkpt><trkpt lat="43.8498433" lon="12.5249283"><ele>462.00000000000006</ele><time>2026-04-06T12:16:01.686Z</time></trkpt><trkpt lat="43.8498083" lon="12.5247933"><ele>462.0</ele><time>2026-04-06T12:16:03.686Z</time></trkpt><trkpt lat="43.8497683" lon="12.5246617"><ele>462.0</ele><time>2026-04-06T12:16:05.684Z</time></trkpt><trkpt lat="43.8497217" lon="12.524505"><ele>461.0</ele><time>2026-04-06T12:16:07.688Z</time></trkpt><trkpt lat="43.8496967" lon="12.52442"><ele>460.0</ele><time>2026-04-06T12:16:08.684Z</time></trkpt><trkpt lat="43.84967" lon="12.5243333"><ele>459.0</ele><time>2026-04-06T12:16:09.686Z</time></trkpt><trkpt lat="43.84964" lon="12.5242467"><ele>458.0</ele><time>2026-04-06T12:16:10.685Z</time></trkpt><trkpt lat="43.8496117" lon="12.5241583"><ele>457.0</ele><time>2026-04-06T12:16:11.685Z</time></trkpt><trkpt lat="43.849585" lon="12.52407"><ele>456.0</ele><time>2026-04-06T12:16:12.685Z</time></trkpt><trkpt lat="43.8495583" lon="12.5239783"><ele>455.0</ele><time>2026-04-06T12:16:13.686Z</time></trkpt><trkpt lat="43.8495317" lon="12.523885"><ele>454.99999999999994</ele><time>2026-04-06T12:16:14.688Z</time></trkpt><trkpt lat="43.8495033" lon="12.5237867"><ele>455.0</ele><time>2026-04-06T12:16:15.686Z</time></trkpt><trkpt lat="43.84947" lon="12.523685"><ele>455.0</ele><time>2026-04-06T12:16:16.686Z</time></trkpt><trkpt lat="43.8494367" lon="12.52358"><ele>455.0</ele><time>2026-04-06T12:16:17.684Z</time></trkpt><trkpt lat="43.8494067" lon="12.5234783"><ele>454.99999999999994</ele><time>2026-04-06T12:16:18.683Z</time></trkpt><trkpt lat="43.8493767" lon="12.52338"><ele>455.0</ele><time>2026-04-06T12:16:19.685Z</time></trkpt><trkpt lat="43.84935" lon="12.52329"><ele>454.8333333333333</ele><time>2026-04-06T12:16:20.683Z</time></trkpt><trkpt lat="43.8493233" lon="12.523195"><ele>454.66666666666663</ele><time>2026-04-06T12:16:21.683Z</time></trkpt><trkpt lat="43.849295" lon="12.5230983"><ele>454.5</ele><time>2026-04-06T12:16:22.686Z</time></trkpt><trkpt lat="43.84926" lon="12.522995"><ele>454.33333333333337</ele><time>2026-04-06T12:16:23.685Z</time></trkpt><trkpt lat="43.8492233" lon="12.5228883"><ele>454.1666666666667</ele><time>2026-04-06T12:16:24.684Z</time></trkpt><trkpt lat="43.84919" lon="12.52278"><ele>454.0</ele><time>2026-04-06T12:16:25.685Z</time></trkpt><trkpt lat="43.849155" lon="12.5226733"><ele>453.6666666666667</ele><time>2026-04-06T12:16:26.683Z</time></trkpt><trkpt lat="43.84912" lon="12.5225717"><ele>453.33333333333337</ele><time>2026-04-06T12:16:27.683Z</time></trkpt><trkpt lat="43.849085" lon="12.522475"><ele>453.0</ele><time>2026-04-06T12:16:28.686Z</time></trkpt><trkpt lat="43.8490467" lon="12.5223817"><ele>452.66666666666663</ele><time>2026-04-06T12:16:29.685Z</time></trkpt><trkpt lat="43.8490133" lon="12.5222933"><ele>452.3333333333333</ele><time>2026-04-06T12:16:30.688Z</time></trkpt><trkpt lat="43.8489767" lon="12.5222033"><ele>452.0</ele><time>2026-04-06T12:16:31.686Z</time></trkpt><trkpt lat="43.8489367" lon="12.522115"><ele>450.2857142857143</ele><time>2026-04-06T12:16:32.686Z</time></trkpt><trkpt lat="43.8488983" lon="12.5220333"><ele>448.57142857142856</ele><time>2026-04-06T12:16:33.685Z</time></trkpt><trkpt lat="43.8488567" lon="12.5219533"><ele>446.85714285714283</ele><time>2026-04-06T12:16:34.687Z</time></trkpt><trkpt lat="43.8488183" lon="12.5218717"><ele>445.1428571428571</ele><time>2026-04-06T12:16:35.684Z</time></trkpt><trkpt lat="43.84878" lon="12.5217867"><ele>443.42857142857144</ele><time>2026-04-06T12:16:36.686Z</time></trkpt><trkpt lat="43.8487433" lon="12.5217033"><ele>441.71428571428567</ele><time>2026-04-06T12:16:37.688Z</time></trkpt><trkpt lat="43.8487083" lon="12.521615"><ele>440.0</ele><time>2026-04-06T12:16:38.686Z</time></trkpt><trkpt lat="43.8486733" lon="12.5215267"><ele>439.99999999999994</ele><time>2026-04-06T12:16:39.685Z</time></trkpt><trkpt lat="43.8486383" lon="12.5214367"><ele>440.0</ele><time>2026-04-06T12:16:40.686Z</time></trkpt><trkpt lat="43.8486033" lon="12.5213483"><ele>440.0</ele><time>2026-04-06T12:16:41.688Z</time></trkpt><trkpt lat="43.8485683" lon="12.5212583"><ele>440.0</ele><time>2026-04-06T12:16:42.686Z</time></trkpt><trkpt lat="43.8485383" lon="12.5211683"><ele>440.0</ele><time>2026-04-06T12:16:43.687Z</time></trkpt><trkpt lat="43.8485117" lon="12.5210767"><ele>439.99999999999994</ele><time>2026-04-06T12:16:44.686Z</time></trkpt><trkpt lat="43.84849" lon="12.5209867"><ele>440.0</ele><time>2026-04-06T12:16:45.685Z</time></trkpt><trkpt lat="43.84847" lon="12.520895"><ele>438.2857142857143</ele><time>2026-04-06T12:16:46.685Z</time></trkpt><trkpt lat="43.8484517" lon="12.520805"><ele>436.57142857142856</ele><time>2026-04-06T12:16:47.684Z</time></trkpt><trkpt lat="43.8484317" lon="12.5207167"><ele>434.8571428571429</ele><time>2026-04-06T12:16:48.683Z</time></trkpt><trkpt lat="43.8484133" lon="12.520625"><ele>433.1428571428571</ele><time>2026-04-06T12:16:49.685Z</time></trkpt><trkpt lat="43.8483967" lon="12.5205283"><ele>431.42857142857144</ele><time>2026-04-06T12:16:50.683Z</time></trkpt><trkpt lat="43.8483817" lon="12.5204267"><ele>429.7142857142857</ele><time>2026-04-06T12:16:51.684Z</time></trkpt><trkpt lat="43.8483683" lon="12.520325"><ele>428.0</ele><time>2026-04-06T12:16:52.685Z</time></trkpt><trkpt lat="43.8483583" lon="12.52023"><ele>427.4</ele><time>2026-04-06T12:16:53.684Z</time></trkpt><trkpt lat="43.8483467" lon="12.5201383"><ele>426.79999999999995</ele><time>2026-04-06T12:16:54.685Z</time></trkpt><trkpt lat="43.8483333" lon="12.5199767"><ele>426.2</ele><time>2026-04-06T12:16:56.682Z</time></trkpt><trkpt lat="43.8483383" lon="12.5198267"><ele>425.6</ele><time>2026-04-06T12:16:58.686Z</time></trkpt><trkpt lat="43.8483433" lon="12.5197017"><ele>425.0</ele><time>2026-04-06T12:17:00.685Z</time></trkpt><trkpt lat="43.8483467" lon="12.519585"><ele>425.0</ele><time>2026-04-06T12:17:03.685Z</time></trkpt><trkpt lat="43.8483067" lon="12.519735"><ele>425.0</ele><time>2026-04-06T12:17:11.685Z</time></trkpt><trkpt lat="43.8483083" lon="12.519855"><ele>425.0</ele><time>2026-04-06T12:17:12.688Z</time></trkpt><trkpt lat="43.8483133" lon="12.5199933"><ele>425.0</ele><time>2026-04-06T12:17:13.687Z</time></trkpt><trkpt lat="43.848325" lon="12.52015"><ele>425.0</ele><time>2026-04-06T12:17:14.686Z</time></trkpt><trkpt lat="43.8483417" lon="12.5203233"><ele>425.75</ele><time>2026-04-06T12:17:15.685Z</time></trkpt><trkpt lat="43.848365" lon="12.5205067"><ele>426.5</ele><time>2026-04-06T12:17:16.686Z</time></trkpt><trkpt lat="43.8484" lon="12.520705"><ele>427.25</ele><time>2026-04-06T12:17:17.685Z</time></trkpt><trkpt lat="43.848445" lon="12.5209083"><ele>428.0</ele><time>2026-04-06T12:17:18.683Z</time></trkpt><trkpt lat="43.8485083" lon="12.5211233"><ele>432.0</ele><time>2026-04-06T12:17:19.685Z</time></trkpt><trkpt lat="43.8485783" lon="12.5213433"><ele>436.0</ele><time>2026-04-06T12:17:20.684Z</time></trkpt><trkpt lat="43.8486567" lon="12.5215633"><ele>440.0</ele><time>2026-04-06T12:17:21.683Z</time></trkpt><trkpt lat="43.848745" lon="12.52179"><ele>440.0</ele><time>2026-04-06T12:17:22.684Z</time></trkpt><trkpt lat="43.8488417" lon="12.522015"><ele>440.0</ele><time>2026-04-06T12:17:23.687Z</time></trkpt><trkpt lat="43.84894" lon="12.5222417"><ele>440.0</ele><time>2026-04-06T12:17:24.686Z</time></trkpt><trkpt lat="43.8490317" lon="12.5224733"><ele>444.0</ele><time>2026-04-06T12:17:25.688Z</time></trkpt><trkpt lat="43.8491133" lon="12.522715"><ele>448.0</ele><time>2026-04-06T12:17:26.686Z</time></trkpt><trkpt lat="43.84919" lon="12.5229617"><ele>452.0</ele><time>2026-04-06T12:17:27.684Z</time></trkpt><trkpt lat="43.8492683" lon="12.523215"><ele>452.66666666666663</ele><time>2026-04-06T12:17:28.686Z</time></trkpt><trkpt lat="43.8493467" lon="12.523475"><ele>453.33333333333337</ele><time>2026-04-06T12:17:29.687Z</time></trkpt><trkpt lat="43.8494267" lon="12.523735"><ele>454.0</ele><time>2026-04-06T12:17:30.686Z</time></trkpt><trkpt lat="43.8495067" lon="12.523995"><ele>454.33333333333337</ele><time>2026-04-06T12:17:31.688Z</time></trkpt><trkpt lat="43.849585" lon="12.524245"><ele>454.66666666666663</ele><time>2026-04-06T12:17:32.686Z</time></trkpt><trkpt lat="43.8496567" lon="12.5244733"><ele>455.0</ele><time>2026-04-06T12:17:33.686Z</time></trkpt><trkpt lat="43.8497283" lon="12.5246917"><ele>457.3333333333333</ele><time>2026-04-06T12:17:34.686Z</time></trkpt><trkpt lat="43.8497967" lon="12.5249067"><ele>459.66666666666663</ele><time>2026-04-06T12:17:35.684Z</time></trkpt><trkpt lat="43.8498633" lon="12.5251267"><ele>462.0</ele><time>2026-04-06T12:17:36.686Z</time></trkpt><trkpt lat="43.84993" lon="12.5253383"><ele>465.75</ele><time>2026-04-06T12:17:37.686Z</time></trkpt><trkpt lat="43.8499883" lon="12.5255317"><ele>469.5</ele><time>2026-04-06T12:17:38.685Z</time></trkpt><trkpt lat="43.8500383" lon="12.5257017"><ele>473.25</ele><time>2026-04-06T12:17:39.685Z</time></trkpt><trkpt lat="43.8500817" lon="12.5258483"><ele>477.0</ele><time>2026-04-06T12:17:40.687Z</time></trkpt><trkpt lat="43.8501133" lon="12.5259717"><ele>477.0</ele><time>2026-04-06T12:17:41.686Z</time></trkpt><trkpt lat="43.850135" lon="12.5260767"><ele>477.00000000000006</ele><time>2026-04-06T12:17:42.686Z</time></trkpt><trkpt lat="43.850165" lon="12.5262133"><ele>477.00000000000006</ele><time>2026-04-06T12:17:44.687Z</time></trkpt><trkpt lat="43.8501733" lon="12.5260983"><ele>477.0</ele><time>2026-04-06T12:17:50.686Z</time></trkpt><trkpt lat="43.850145" lon="12.5259583"><ele>477.0</ele><time>2026-04-06T12:17:52.686Z</time></trkpt><trkpt lat="43.8501167" lon="12.5258333"><ele>474.0</ele><time>2026-04-06T12:17:54.686Z</time></trkpt><trkpt lat="43.8501333" lon="12.5257433"><ele>471.00000000000006</ele><time>2026-04-06T12:17:57.685Z</time></trkpt><trkpt lat="43.85022" lon="12.5257783"><ele>468.00000000000006</ele><time>2026-04-06T12:18:00.685Z</time></trkpt><trkpt lat="43.8503117" lon="12.5258417"><ele>465.0</ele><time>2026-04-06T12:18:02.684Z</time></trkpt><trkpt lat="43.8504167" lon="12.5259083"><ele>462.0</ele><time>2026-04-06T12:18:04.683Z</time></trkpt><trkpt lat="43.85053" lon="12.5259583"><ele>462.0</ele><time>2026-04-06T12:18:06.683Z</time></trkpt><trkpt lat="43.850595" lon="12.5259533"><ele>462.0</ele><time>2026-04-06T12:18:07.685Z</time></trkpt><trkpt lat="43.8506617" lon="12.525935"><ele>462.0</ele><time>2026-04-06T12:18:08.684Z</time></trkpt><trkpt lat="43.8507267" lon="12.5259117"><ele>462.0</ele><time>2026-04-06T12:18:09.685Z</time></trkpt><trkpt lat="43.8507967" lon="12.5258883"><ele>462.0</ele><time>2026-04-06T12:18:10.684Z</time></trkpt><trkpt lat="43.8508667" lon="12.5258667"><ele>462.0</ele><time>2026-04-06T12:18:11.684Z</time></trkpt><trkpt lat="43.8509417" lon="12.5258433"><ele>462.0</ele><time>2026-04-06T12:18:12.684Z</time></trkpt><trkpt lat="43.851025" lon="12.52582"><ele>460.3333333333333</ele><time>2026-04-06T12:18:13.685Z</time></trkpt><trkpt lat="43.8511083" lon="12.5257917"><ele>458.66666666666663</ele><time>2026-04-06T12:18:14.685Z</time></trkpt><trkpt lat="43.85119" lon="12.5257633"><ele>457.0</ele><time>2026-04-06T12:18:15.684Z</time></trkpt><trkpt lat="43.85127" lon="12.525745"><ele>455.3333333333333</ele><time>2026-04-06T12:18:16.683Z</time></trkpt><trkpt lat="43.8513517" lon="12.5257367"><ele>453.66666666666663</ele><time>2026-04-06T12:18:17.687Z</time></trkpt><trkpt lat="43.8514367" lon="12.525735"><ele>452.0</ele><time>2026-04-06T12:18:18.684Z</time></trkpt><trkpt lat="43.8515233" lon="12.5257383"><ele>451.99999999999994</ele><time>2026-04-06T12:18:19.686Z</time></trkpt><trkpt lat="43.851615" lon="12.5257467"><ele>452.0</ele><time>2026-04-06T12:18:20.685Z</time></trkpt><trkpt lat="43.85171" lon="12.52576"><ele>452.0</ele><time>2026-04-06T12:18:21.684Z</time></trkpt><trkpt lat="43.8517983" lon="12.52578"><ele>452.0</ele><time>2026-04-06T12:18:22.685Z</time></trkpt><trkpt lat="43.8518817" lon="12.5258067"><ele>451.99999999999994</ele><time>2026-04-06T12:18:23.685Z</time></trkpt><trkpt lat="43.8519617" lon="12.5258417"><ele>452.0</ele><time>2026-04-06T12:18:24.683Z</time></trkpt><trkpt lat="43.8520317" lon="12.5258833"><ele>451.57142857142856</ele><time>2026-04-06T12:18:25.687Z</time></trkpt><trkpt lat="43.8520983" lon="12.5259283"><ele>451.1428571428571</ele><time>2026-04-06T12:18:26.684Z</time></trkpt><trkpt lat="43.8521683" lon="12.5259667"><ele>450.71428571428567</ele><time>2026-04-06T12:18:27.685Z</time></trkpt><trkpt lat="43.8522383" lon="12.526005"><ele>450.2857142857143</ele><time>2026-04-06T12:18:28.685Z</time></trkpt><trkpt lat="43.8523017" lon="12.526045"><ele>449.8571428571428</ele><time>2026-04-06T12:18:29.684Z</time></trkpt><trkpt lat="43.8523667" lon="12.52608"><ele>449.4285714285714</ele><time>2026-04-06T12:18:30.684Z</time></trkpt><trkpt lat="43.8524317" lon="12.5261117"><ele>449.0</ele><time>2026-04-06T12:18:31.686Z</time></trkpt><trkpt lat="43.852545" lon="12.5261733"><ele>449.0</ele><time>2026-04-06T12:18:33.684Z</time></trkpt><trkpt lat="43.852605" lon="12.5262067"><ele>448.99999999999994</ele><time>2026-04-06T12:18:34.684Z</time></trkpt><trkpt lat="43.85267" lon="12.5262383"><ele>449.0</ele><time>2026-04-06T12:18:35.685Z</time></trkpt><trkpt lat="43.8527383" lon="12.52627"><ele>449.0</ele><time>2026-04-06T12:18:36.684Z</time></trkpt><trkpt lat="43.8528083" lon="12.5263017"><ele>448.99999999999994</ele><time>2026-04-06T12:18:37.687Z</time></trkpt><trkpt lat="43.8528783" lon="12.5263333"><ele>449.0</ele><time>2026-04-06T12:18:38.684Z</time></trkpt><trkpt lat="43.8529483" lon="12.5263667"><ele>449.0</ele><time>2026-04-06T12:18:39.684Z</time></trkpt><trkpt lat="43.8530183" lon="12.526395"><ele>446.57142857142856</ele><time>2026-04-06T12:18:40.683Z</time></trkpt><trkpt lat="43.8530883" lon="12.526425"><ele>444.1428571428571</ele><time>2026-04-06T12:18:41.685Z</time></trkpt><trkpt lat="43.8531583" lon="12.5264567"><ele>441.71428571428567</ele><time>2026-04-06T12:18:42.683Z</time></trkpt><trkpt lat="43.8532283" lon="12.5264883"><ele>439.2857142857143</ele><time>2026-04-06T12:18:43.687Z</time></trkpt><trkpt lat="43.8532933" lon="12.5265217"><ele>436.85714285714283</ele><time>2026-04-06T12:18:44.685Z</time></trkpt><trkpt lat="43.853355" lon="12.526555"><ele>434.42857142857144</ele><time>2026-04-06T12:18:45.686Z</time></trkpt><trkpt lat="43.8534117" lon="12.526595"><ele>432.0</ele><time>2026-04-06T12:18:46.684Z</time></trkpt><trkpt lat="43.853465" lon="12.5266417"><ele>428.5</ele><time>2026-04-06T12:18:47.685Z</time></trkpt><trkpt lat="43.853515" lon="12.526695"><ele>425.0</ele><time>2026-04-06T12:18:48.683Z</time></trkpt><trkpt lat="43.853605" lon="12.52682"><ele>421.5</ele><time>2026-04-06T12:18:50.685Z</time></trkpt><trkpt lat="43.85365" lon="12.5268883"><ele>418.0</ele><time>2026-04-06T12:18:51.685Z</time></trkpt><trkpt lat="43.8536933" lon="12.5269583"><ele>414.5</ele><time>2026-04-06T12:18:52.684Z</time></trkpt><trkpt lat="43.853735" lon="12.5270317"><ele>411.0</ele><time>2026-04-06T12:18:53.684Z</time></trkpt><trkpt lat="43.8537783" lon="12.527105"><ele>410.6</ele><time>2026-04-06T12:18:54.686Z</time></trkpt><trkpt lat="43.85382" lon="12.5271783"><ele>410.20000000000005</ele><time>2026-04-06T12:18:55.686Z</time></trkpt><trkpt lat="43.853865" lon="12.527245"><ele>409.79999999999995</ele><time>2026-04-06T12:18:56.685Z</time></trkpt><trkpt lat="43.85395" lon="12.52736"><ele>409.4</ele><time>2026-04-06T12:18:58.684Z</time></trkpt><trkpt lat="43.8540383" lon="12.5274517"><ele>409.0</ele><time>2026-04-06T12:19:00.686Z</time></trkpt><trkpt lat="43.8541283" lon="12.5275483"><ele>409.0</ele><time>2026-04-06T12:19:02.685Z</time></trkpt><trkpt lat="43.854225" lon="12.527635"><ele>409.0</ele><time>2026-04-06T12:19:04.684Z</time></trkpt><trkpt lat="43.854315" lon="12.5277083"><ele>409.0</ele><time>2026-04-06T12:19:06.685Z</time></trkpt><trkpt lat="43.8544067" lon="12.5277817"><ele>409.0</ele><time>2026-04-06T12:19:08.685Z</time></trkpt><trkpt lat="43.8545" lon="12.5278633"><ele>409.0</ele><time>2026-04-06T12:19:10.685Z</time></trkpt><trkpt lat="43.8545983" lon="12.527945"><ele>405.4</ele><time>2026-04-06T12:19:12.686Z</time></trkpt><trkpt lat="43.8546983" lon="12.528025"><ele>401.79999999999995</ele><time>2026-04-06T12:19:14.684Z</time></trkpt><trkpt lat="43.8547967" lon="12.5281083"><ele>398.20000000000005</ele><time>2026-04-06T12:19:16.685Z</time></trkpt><trkpt lat="43.854895" lon="12.52819"><ele>394.6</ele><time>2026-04-06T12:19:18.683Z</time></trkpt><trkpt lat="43.8549817" lon="12.5282617"><ele>391.0</ele><time>2026-04-06T12:19:20.683Z</time></trkpt><trkpt lat="43.85505" lon="12.5283333"><ele>387.1666666666667</ele><time>2026-04-06T12:19:22.683Z</time></trkpt><trkpt lat="43.8551217" lon="12.5284167"><ele>383.33333333333337</ele><time>2026-04-06T12:19:24.685Z</time></trkpt><trkpt lat="43.8551967" lon="12.5285033"><ele>379.5</ele><time>2026-04-06T12:19:26.684Z</time></trkpt><trkpt lat="43.8552567" lon="12.528575"><ele>375.6666666666667</ele><time>2026-04-06T12:19:28.684Z</time></trkpt><trkpt lat="43.8553033" lon="12.528635"><ele>371.83333333333337</ele><time>2026-04-06T12:19:30.684Z</time></trkpt><trkpt lat="43.85534" lon="12.5287467"><ele>368.0</ele><time>2026-04-06T12:19:33.683Z</time></trkpt><trkpt lat="43.8553467" lon="12.5288367"><ele>368.0</ele><time>2026-04-06T12:19:35.686Z</time></trkpt><trkpt lat="43.855345" lon="12.5289333"><ele>368.0</ele><time>2026-04-06T12:19:37.687Z</time></trkpt><trkpt lat="43.8553817" lon="12.5290117"><ele>368.0</ele><time>2026-04-06T12:20:07.685Z</time></trkpt><trkpt lat="43.855385" lon="12.5289167"><ele>368.0</ele><time>2026-04-06T12:20:13.686Z</time></trkpt><trkpt lat="43.8553433" lon="12.5287983"><ele>368.0</ele><time>2026-04-06T12:20:16.685Z</time></trkpt><trkpt lat="43.85533" lon="12.5287067"><ele>368.0</ele><time>2026-04-06T12:20:18.685Z</time></trkpt><trkpt lat="43.8553033" lon="12.5286183"><ele>368.0</ele><time>2026-04-06T12:20:20.684Z</time></trkpt><trkpt lat="43.8552467" lon="12.528545"><ele>368.0</ele><time>2026-04-06T12:20:22.686Z</time></trkpt><trkpt lat="43.8551783" lon="12.5284783"><ele>368.0</ele><time>2026-04-06T12:20:24.684Z</time></trkpt><trkpt lat="43.8551083" lon="12.5284017"><ele>368.0</ele><time>2026-04-06T12:20:26.684Z</time></trkpt><trkpt lat="43.85504" lon="12.5283233"><ele>368.0</ele><time>2026-04-06T12:20:28.687Z</time></trkpt><trkpt lat="43.8549783" lon="12.52826"><ele>368.0</ele><time>2026-04-06T12:20:30.685Z</time></trkpt><trkpt lat="43.8549183" lon="12.5282033"><ele>368.0</ele><time>2026-04-06T12:20:57.684Z</time></trkpt><trkpt lat="43.8548133" lon="12.52812"><ele>371.83333333333337</ele><time>2026-04-06T12:20:59.684Z</time></trkpt><trkpt lat="43.85475" lon="12.5280683"><ele>375.6666666666667</ele><time>2026-04-06T12:21:00.686Z</time></trkpt><trkpt lat="43.8546817" lon="12.528015"><ele>379.5</ele><time>2026-04-06T12:21:01.686Z</time></trkpt><trkpt lat="43.8546133" lon="12.52796"><ele>383.33333333333337</ele><time>2026-04-06T12:21:02.685Z</time></trkpt><trkpt lat="43.8545433" lon="12.5279"><ele>387.1666666666667</ele><time>2026-04-06T12:21:03.686Z</time></trkpt><trkpt lat="43.8544667" lon="12.5278367"><ele>391.0</ele><time>2026-04-06T12:21:04.686Z</time></trkpt><trkpt lat="43.8543917" lon="12.5277717"><ele>391.6666666666667</ele><time>2026-04-06T12:21:05.685Z</time></trkpt><trkpt lat="43.854315" lon="12.5277083"><ele>392.33333333333337</ele><time>2026-04-06T12:21:06.686Z</time></trkpt><trkpt lat="43.85424" lon="12.527645"><ele>393.0</ele><time>2026-04-06T12:21:07.686Z</time></trkpt><trkpt lat="43.854165" lon="12.5275783"><ele>393.66666666666663</ele><time>2026-04-06T12:21:08.684Z</time></trkpt><trkpt lat="43.8540917" lon="12.5275133"><ele>394.3333333333333</ele><time>2026-04-06T12:21:09.684Z</time></trkpt><trkpt lat="43.8540267" lon="12.5274583"><ele>395.0</ele><time>2026-04-06T12:21:10.684Z</time></trkpt><trkpt lat="43.8539717" lon="12.5274083"><ele>397.3333333333333</ele><time>2026-04-06T12:21:11.684Z</time></trkpt><trkpt lat="43.8539183" lon="12.5273467"><ele>399.66666666666663</ele><time>2026-04-06T12:21:12.683Z</time></trkpt><trkpt lat="43.8538583" lon="12.527265"><ele>402.0</ele><time>2026-04-06T12:21:13.685Z</time></trkpt><trkpt lat="43.8537983" lon="12.52717"><ele>404.33333333333337</ele><time>2026-04-06T12:21:14.683Z</time></trkpt><trkpt lat="43.8537333" lon="12.5270667"><ele>406.6666666666667</ele><time>2026-04-06T12:21:15.683Z</time></trkpt><trkpt lat="43.85367" lon="12.52696"><ele>409.0</ele><time>2026-04-06T12:21:16.683Z</time></trkpt><trkpt lat="43.8536067" lon="12.5268567"><ele>409.4</ele><time>2026-04-06T12:21:17.683Z</time></trkpt><trkpt lat="43.853545" lon="12.5267617"><ele>409.79999999999995</ele><time>2026-04-06T12:21:18.684Z</time></trkpt><trkpt lat="43.853475" lon="12.5266783"><ele>410.20000000000005</ele><time>2026-04-06T12:21:19.686Z</time></trkpt><trkpt lat="43.8533967" lon="12.526605"><ele>410.6</ele><time>2026-04-06T12:21:20.681Z</time></trkpt><trkpt lat="43.8533083" lon="12.5265433"><ele>411.0</ele><time>2026-04-06T12:21:21.684Z</time></trkpt><trkpt lat="43.85321" lon="12.5264917"><ele>416.25</ele><time>2026-04-06T12:21:22.685Z</time></trkpt><trkpt lat="43.853105" lon="12.5264417"><ele>421.5</ele><time>2026-04-06T12:21:23.684Z</time></trkpt><trkpt lat="43.8529933" lon="12.5263883"><ele>426.75</ele><time>2026-04-06T12:21:24.684Z</time></trkpt><trkpt lat="43.8528817" lon="12.52634"><ele>432.0</ele><time>2026-04-06T12:21:25.686Z</time></trkpt><trkpt lat="43.85278" lon="12.5262967"><ele>432.0</ele><time>2026-04-06T12:21:26.683Z</time></trkpt><trkpt lat="43.8526917" lon="12.5262583"><ele>432.00000000000006</ele><time>2026-04-06T12:21:27.684Z</time></trkpt><trkpt lat="43.85261" lon="12.5262217"><ele>432.00000000000006</ele><time>2026-04-06T12:21:28.683Z</time></trkpt><trkpt lat="43.8525283" lon="12.52618"><ele>432.0</ele><time>2026-04-06T12:21:29.684Z</time></trkpt><trkpt lat="43.8524417" lon="12.5261383"><ele>432.0</ele><time>2026-04-06T12:21:30.687Z</time></trkpt><trkpt lat="43.8523517" lon="12.5260933"><ele>435.40000000000003</ele><time>2026-04-06T12:21:31.687Z</time></trkpt><trkpt lat="43.8522617" lon="12.526045"><ele>438.80000000000007</ele><time>2026-04-06T12:21:32.685Z</time></trkpt><trkpt lat="43.8521717" lon="12.52599"><ele>442.2</ele><time>2026-04-06T12:21:33.685Z</time></trkpt><trkpt lat="43.8520783" lon="12.5259333"><ele>445.6</ele><time>2026-04-06T12:21:34.684Z</time></trkpt><trkpt lat="43.8519867" lon="12.525875"><ele>449.0</ele><time>2026-04-06T12:21:35.686Z</time></trkpt><trkpt lat="43.8518983" lon="12.5258267"><ele>449.0</ele><time>2026-04-06T12:21:36.686Z</time></trkpt><trkpt lat="43.8518083" lon="12.5257917"><ele>449.0</ele><time>2026-04-06T12:21:37.686Z</time></trkpt><trkpt lat="43.8517067" lon="12.5257667"><ele>449.0</ele><time>2026-04-06T12:21:38.685Z</time></trkpt><trkpt lat="43.8516" lon="12.5257533"><ele>449.0</ele><time>2026-04-06T12:21:39.683Z</time></trkpt><trkpt lat="43.8514917" lon="12.5257467"><ele>449.0</ele><time>2026-04-06T12:21:40.683Z</time></trkpt><trkpt lat="43.8513883" lon="12.5257483"><ele>449.6</ele><time>2026-04-06T12:21:41.684Z</time></trkpt><trkpt lat="43.8512867" lon="12.5257583"><ele>450.2</ele><time>2026-04-06T12:21:42.684Z</time></trkpt><trkpt lat="43.851185" lon="12.5257817"><ele>450.80000000000007</ele><time>2026-04-06T12:21:43.685Z</time></trkpt><trkpt lat="43.8510817" lon="12.5258117"><ele>451.40000000000003</ele><time>2026-04-06T12:21:44.683Z</time></trkpt><trkpt lat="43.8509733" lon="12.5258417"><ele>452.0</ele><time>2026-04-06T12:21:45.683Z</time></trkpt><trkpt lat="43.8508617" lon="12.5258733"><ele>454.0</ele><time>2026-04-06T12:21:46.684Z</time></trkpt><trkpt lat="43.8507567" lon="12.5259067"><ele>456.00000000000006</ele><time>2026-04-06T12:21:47.685Z</time></trkpt><trkpt lat="43.8506633" lon="12.5259283"><ele>458.00000000000006</ele><time>2026-04-06T12:21:48.683Z</time></trkpt><trkpt lat="43.8505783" lon="12.5259383"><ele>460.0</ele><time>2026-04-06T12:21:49.683Z</time></trkpt><trkpt lat="43.8504967" lon="12.525925"><ele>462.0</ele><time>2026-04-06T12:21:50.684Z</time></trkpt><trkpt lat="43.85041" lon="12.5258867"><ele>462.0</ele><time>2026-04-06T12:21:51.683Z</time></trkpt><trkpt lat="43.8503283" lon="12.5258317"><ele>462.0</ele><time>2026-04-06T12:21:52.684Z</time></trkpt><trkpt lat="43.8502567" lon="12.525775"><ele>462.0</ele><time>2026-04-06T12:21:53.688Z</time></trkpt><trkpt lat="43.8501933" lon="12.5257317"><ele>462.0</ele><time>2026-04-06T12:21:54.684Z</time></trkpt><trkpt lat="43.8501117" lon="12.525695"><ele>462.0</ele><time>2026-04-06T12:21:56.688Z</time></trkpt><trkpt lat="43.850095" lon="12.5258167"><ele>462.0</ele><time>2026-04-06T12:22:05.685Z</time></trkpt><trkpt lat="43.8501183" lon="12.5259217"><ele>462.0</ele><time>2026-04-06T12:22:06.686Z</time></trkpt><trkpt lat="43.8501483" lon="12.5260533"><ele>462.0</ele><time>2026-04-06T12:22:07.687Z</time></trkpt><trkpt lat="43.8501767" lon="12.52623"><ele>462.0</ele><time>2026-04-06T12:22:08.689Z</time></trkpt><trkpt lat="43.850205" lon="12.526405"><ele>462.0</ele><time>2026-04-06T12:22:09.684Z</time></trkpt><trkpt lat="43.850245" lon="12.5265767"><ele>462.25</ele><time>2026-04-06T12:22:10.684Z</time></trkpt><trkpt lat="43.8502983" lon="12.5267383"><ele>462.5</ele><time>2026-04-06T12:22:11.686Z</time></trkpt><trkpt lat="43.8503633" lon="12.5269"><ele>462.75</ele><time>2026-04-06T12:22:12.684Z</time></trkpt><trkpt lat="43.8504283" lon="12.5270617"><ele>463.0</ele><time>2026-04-06T12:22:13.686Z</time></trkpt><trkpt lat="43.8504867" lon="12.527225"><ele>464.25</ele><time>2026-04-06T12:22:14.685Z</time></trkpt><trkpt lat="43.85054" lon="12.52739"><ele>465.5</ele><time>2026-04-06T12:22:15.683Z</time></trkpt><trkpt lat="43.8505867" lon="12.5275517"><ele>466.75</ele><time>2026-04-06T12:22:16.684Z</time></trkpt><trkpt lat="43.8506183" lon="12.5277033"><ele>468.0</ele><time>2026-04-06T12:22:17.686Z</time></trkpt><trkpt lat="43.8506217" lon="12.5278467"><ele>468.6666666666667</ele><time>2026-04-06T12:22:18.684Z</time></trkpt><trkpt lat="43.8506017" lon="12.5279617"><ele>469.33333333333337</ele><time>2026-04-06T12:22:19.686Z</time></trkpt><trkpt lat="43.8505683" lon="12.5280467"><ele>470.0</ele><time>2026-04-06T12:22:20.684Z</time></trkpt><trkpt lat="43.85048" lon="12.5281383"><ele>470.6666666666667</ele><time>2026-04-06T12:22:22.684Z</time></trkpt><trkpt lat="43.8504117" lon="12.5281783"><ele>471.33333333333337</ele><time>2026-04-06T12:22:29.686Z</time></trkpt><trkpt lat="43.8504917" lon="12.528145"><ele>472.0</ele><time>2026-04-06T12:22:31.686Z</time></trkpt><trkpt lat="43.8505867" lon="12.52807"><ele>472.00000000000006</ele><time>2026-04-06T12:22:33.685Z</time></trkpt><trkpt lat="43.850655" lon="12.52805"><ele>472.0</ele><time>2026-04-06T12:22:35.685Z</time></trkpt><trkpt lat="43.8506983" lon="12.528145"><ele>472.0</ele><time>2026-04-06T12:22:37.686Z</time></trkpt><trkpt lat="43.8507433" lon="12.5282767"><ele>472.0</ele><time>2026-04-06T12:22:39.684Z</time></trkpt><trkpt lat="43.85077" lon="12.528375"><ele>472.00000000000006</ele><time>2026-04-06T12:22:41.683Z</time></trkpt><trkpt lat="43.8507233" lon="12.5284717"><ele>472.0</ele><time>2026-04-06T12:22:44.685Z</time></trkpt><trkpt lat="43.85067" lon="12.5285183"><ele>472.0</ele><time>2026-04-06T12:22:46.684Z</time></trkpt><trkpt lat="43.85061" lon="12.528555"><ele>472.00000000000006</ele><time>2026-04-06T12:22:48.685Z</time></trkpt><trkpt lat="43.8505167" lon="12.5286083"><ele>472.00000000000006</ele><time>2026-04-06T12:22:51.683Z</time></trkpt><trkpt lat="43.850425" lon="12.5286383"><ele>472.0</ele><time>2026-04-06T12:22:53.686Z</time></trkpt><trkpt lat="43.8503183" lon="12.5286733"><ele>472.0</ele><time>2026-04-06T12:22:55.686Z</time></trkpt><trkpt lat="43.8502167" lon="12.5287367"><ele>471.00000000000006</ele><time>2026-04-06T12:22:57.686Z</time></trkpt><trkpt lat="43.8501167" lon="12.5288367"><ele>470.0</ele><time>2026-04-06T12:22:59.686Z</time></trkpt><trkpt lat="43.8500533" lon="12.5288867"><ele>469.0</ele><time>2026-04-06T12:23:00.685Z</time></trkpt><trkpt lat="43.8499833" lon="12.5289383"><ele>468.0</ele><time>2026-04-06T12:23:01.687Z</time></trkpt><trkpt lat="43.8499083" lon="12.5289917"><ele>467.00000000000006</ele><time>2026-04-06T12:23:02.684Z</time></trkpt><trkpt lat="43.8498283" lon="12.5290467"><ele>466.0</ele><time>2026-04-06T12:23:03.685Z</time></trkpt><trkpt lat="43.84975" lon="12.5290967"><ele>466.00000000000006</ele><time>2026-04-06T12:23:04.684Z</time></trkpt><trkpt lat="43.8496717" lon="12.5291417"><ele>466.0</ele><time>2026-04-06T12:23:05.683Z</time></trkpt><trkpt lat="43.8496083" lon="12.5291733"><ele>466.0</ele><time>2026-04-06T12:23:06.686Z</time></trkpt><trkpt lat="43.8495067" lon="12.5292283"><ele>466.0</ele><time>2026-04-06T12:23:08.685Z</time></trkpt><trkpt lat="43.8494283" lon="12.52928"><ele>466.00000000000006</ele><time>2026-04-06T12:23:10.686Z</time></trkpt><trkpt lat="43.8493567" lon="12.5293583"><ele>466.0</ele><time>2026-04-06T12:23:12.684Z</time></trkpt><trkpt lat="43.8492783" lon="12.5294633"><ele>467.83333333333337</ele><time>2026-04-06T12:23:14.683Z</time></trkpt><trkpt lat="43.84921" lon="12.5295467"><ele>469.6666666666667</ele><time>2026-04-06T12:23:16.684Z</time></trkpt><trkpt lat="43.8491083" lon="12.5296083"><ele>471.5</ele><time>2026-04-06T12:23:18.683Z</time></trkpt><trkpt lat="43.8490183" lon="12.5296667"><ele>473.33333333333337</ele><time>2026-04-06T12:23:20.684Z</time></trkpt><trkpt lat="43.8489567" lon="12.5296917"><ele>475.1666666666667</ele><time>2026-04-06T12:23:22.684Z</time></trkpt><trkpt lat="43.8490183" lon="12.5296383"><ele>477.0</ele><time>2026-04-06T12:23:42.684Z</time></trkpt><trkpt lat="43.8491117" lon="12.5295867"><ele>477.0</ele><time>2026-04-06T12:23:44.684Z</time></trkpt><trkpt lat="43.8491933" lon="12.5295267"><ele>477.00000000000006</ele><time>2026-04-06T12:23:46.687Z</time></trkpt><trkpt lat="43.849255" lon="12.52945"><ele>477.00000000000006</ele><time>2026-04-06T12:23:48.684Z</time></trkpt><trkpt lat="43.8493067" lon="12.529375"><ele>477.0</ele><time>2026-04-06T12:23:50.683Z</time></trkpt><trkpt lat="43.8493917" lon="12.529295"><ele>477.0</ele><time>2026-04-06T12:23:52.684Z</time></trkpt><trkpt lat="43.8494983" lon="12.5292183"><ele>474.8</ele><time>2026-04-06T12:23:54.685Z</time></trkpt><trkpt lat="43.84961" lon="12.5291217"><ele>472.6</ele><time>2026-04-06T12:23:56.684Z</time></trkpt><trkpt lat="43.8496817" lon="12.52907"><ele>470.40000000000003</ele><time>2026-04-06T12:23:57.686Z</time></trkpt><trkpt lat="43.8497583" lon="12.5290183"><ele>468.20000000000005</ele><time>2026-04-06T12:23:58.683Z</time></trkpt><trkpt lat="43.8498417" lon="12.5289717"><ele>466.0</ele><time>2026-04-06T12:23:59.686Z</time></trkpt><trkpt lat="43.849925" lon="12.5289133"><ele>466.0</ele><time>2026-04-06T12:24:00.684Z</time></trkpt><trkpt lat="43.8500133" lon="12.528845"><ele>466.0</ele><time>2026-04-06T12:24:01.688Z</time></trkpt><trkpt lat="43.8501" lon="12.52878"><ele>466.0</ele><time>2026-04-06T12:24:02.686Z</time></trkpt><trkpt lat="43.8501833" lon="12.528715"><ele>466.0</ele><time>2026-04-06T12:24:03.686Z</time></trkpt><trkpt lat="43.8502617" lon="12.5286517"><ele>466.0</ele><time>2026-04-06T12:24:04.686Z</time></trkpt><trkpt lat="43.8503433" lon="12.5286067"><ele>467.00000000000006</ele><time>2026-04-06T12:24:05.685Z</time></trkpt><trkpt lat="43.850425" lon="12.5285767"><ele>468.0</ele><time>2026-04-06T12:24:06.684Z</time></trkpt><trkpt lat="43.85051" lon="12.5285467"><ele>469.0</ele><time>2026-04-06T12:24:07.688Z</time></trkpt><trkpt lat="43.850595" lon="12.5285117"><ele>470.0</ele><time>2026-04-06T12:24:08.683Z</time></trkpt><trkpt lat="43.85066" lon="12.52847"><ele>471.00000000000006</ele><time>2026-04-06T12:24:09.684Z</time></trkpt><trkpt lat="43.8507167" lon="12.528425"><ele>472.0</ele><time>2026-04-06T12:24:10.684Z</time></trkpt><trkpt lat="43.8507717" lon="12.5283433"><ele>472.0</ele><time>2026-04-06T12:24:12.685Z</time></trkpt><trkpt lat="43.850745" lon="12.5282267"><ele>472.00000000000006</ele><time>2026-04-06T12:24:14.685Z</time></trkpt><trkpt lat="43.8506967" lon="12.5280767"><ele>472.00000000000006</ele><time>2026-04-06T12:24:16.684Z</time></trkpt><trkpt lat="43.8506717" lon="12.527925"><ele>472.0</ele><time>2026-04-06T12:24:18.685Z</time></trkpt><trkpt lat="43.8506633" lon="12.5278217"><ele>472.0</ele><time>2026-04-06T12:24:19.684Z</time></trkpt><trkpt lat="43.8506483" lon="12.5276933"><ele>471.0</ele><time>2026-04-06T12:24:20.683Z</time></trkpt><trkpt lat="43.850605" lon="12.5275267"><ele>470.0</ele><time>2026-04-06T12:24:21.685Z</time></trkpt><trkpt lat="43.8505533" lon="12.5273533"><ele>469.0</ele><time>2026-04-06T12:24:22.685Z</time></trkpt><trkpt lat="43.85049" lon="12.5271733"><ele>468.0</ele><time>2026-04-06T12:24:23.684Z</time></trkpt><trkpt lat="43.8504233" lon="12.5269933"><ele>466.75</ele><time>2026-04-06T12:24:24.685Z</time></trkpt><trkpt lat="43.850355" lon="12.526825"><ele>465.5</ele><time>2026-04-06T12:24:25.685Z</time></trkpt><trkpt lat="43.8502933" lon="12.526655"><ele>464.25</ele><time>2026-04-06T12:24:26.685Z</time></trkpt><trkpt lat="43.8502417" lon="12.5264683"><ele>463.0</ele><time>2026-04-06T12:24:27.684Z</time></trkpt><trkpt lat="43.8501983" lon="12.5262617"><ele>462.6666666666667</ele><time>2026-04-06T12:24:28.685Z</time></trkpt><trkpt lat="43.8501567" lon="12.52605"><ele>462.33333333333337</ele><time>2026-04-06T12:24:29.686Z</time></trkpt><trkpt lat="43.8501" lon="12.5258333"><ele>462.0</ele><time>2026-04-06T12:24:30.685Z</time></trkpt><trkpt lat="43.8500383" lon="12.525615"><ele>462.0</ele><time>2026-04-06T12:24:31.688Z</time></trkpt><trkpt lat="43.8499733" lon="12.5254"><ele>462.0</ele><time>2026-04-06T12:24:32.684Z</time></trkpt><trkpt lat="43.849915" lon="12.5251967"><ele>462.0</ele><time>2026-04-06T12:24:33.685Z</time></trkpt><trkpt lat="43.849855" lon="12.525"><ele>462.0</ele><time>2026-04-06T12:24:34.685Z</time></trkpt><trkpt lat="43.8497967" lon="12.5248083"><ele>462.0</ele><time>2026-04-06T12:24:35.684Z</time></trkpt><trkpt lat="43.8497417" lon="12.5246217"><ele>462.0</ele><time>2026-04-06T12:24:36.685Z</time></trkpt><trkpt lat="43.84969" lon="12.524445"><ele>462.0</ele><time>2026-04-06T12:24:37.687Z</time></trkpt><trkpt lat="43.8496383" lon="12.52427"><ele>460.25</ele><time>2026-04-06T12:24:38.684Z</time></trkpt><trkpt lat="43.84959" lon="12.5240983"><ele>458.5</ele><time>2026-04-06T12:24:39.683Z</time></trkpt><trkpt lat="43.84954" lon="12.5239283"><ele>456.75</ele><time>2026-04-06T12:24:40.684Z</time></trkpt><trkpt lat="43.8494867" lon="12.52376"><ele>455.0</ele><time>2026-04-06T12:24:41.685Z</time></trkpt><trkpt lat="43.84943" lon="12.5235917"><ele>454.75</ele><time>2026-04-06T12:24:42.685Z</time></trkpt><trkpt lat="43.849375" lon="12.523425"><ele>454.5</ele><time>2026-04-06T12:24:43.685Z</time></trkpt><trkpt lat="43.84932" lon="12.5232583"><ele>454.25</ele><time>2026-04-06T12:24:44.684Z</time></trkpt><trkpt lat="43.84927" lon="12.5230933"><ele>454.0</ele><time>2026-04-06T12:24:45.682Z</time></trkpt><trkpt lat="43.84922" lon="12.5229333"><ele>453.5</ele><time>2026-04-06T12:24:46.685Z</time></trkpt><trkpt lat="43.84917" lon="12.5227783"><ele>453.0</ele><time>2026-04-06T12:24:47.685Z</time></trkpt><trkpt lat="43.84912" lon="12.5226233"><ele>452.5</ele><time>2026-04-06T12:24:48.683Z</time></trkpt><trkpt lat="43.8490683" lon="12.52247"><ele>452.0</ele><time>2026-04-06T12:24:49.684Z</time></trkpt><trkpt lat="43.8490133" lon="12.5223217"><ele>452.0</ele><time>2026-04-06T12:24:50.682Z</time></trkpt><trkpt lat="43.8489533" lon="12.5221767"><ele>452.0</ele><time>2026-04-06T12:24:51.683Z</time></trkpt><trkpt lat="43.8488883" lon="12.5220333"><ele>452.0</ele><time>2026-04-06T12:24:52.683Z</time></trkpt><trkpt lat="43.8488233" lon="12.5218883"><ele>452.0</ele><time>2026-04-06T12:24:53.685Z</time></trkpt><trkpt lat="43.8487567" lon="12.5217367"><ele>449.0</ele><time>2026-04-06T12:24:54.682Z</time></trkpt><trkpt lat="43.8486917" lon="12.52158"><ele>446.0</ele><time>2026-04-06T12:24:55.685Z</time></trkpt><trkpt lat="43.8486317" lon="12.5214183"><ele>443.0</ele><time>2026-04-06T12:24:56.683Z</time></trkpt><trkpt lat="43.8485767" lon="12.5212517"><ele>440.0</ele><time>2026-04-06T12:24:57.683Z</time></trkpt><trkpt lat="43.8485233" lon="12.52108"><ele>437.25</ele><time>2026-04-06T12:24:58.682Z</time></trkpt><trkpt lat="43.8484717" lon="12.5209017"><ele>434.5</ele><time>2026-04-06T12:24:59.685Z</time></trkpt><trkpt lat="43.8484267" lon="12.520715"><ele>431.75</ele><time>2026-04-06T12:25:00.685Z</time></trkpt><trkpt lat="43.8483867" lon="12.52052"><ele>429.0</ele><time>2026-04-06T12:25:01.685Z</time></trkpt><trkpt lat="43.8483567" lon="12.5203167"><ele>427.66666666666663</ele><time>2026-04-06T12:25:02.686Z</time></trkpt><trkpt lat="43.848335" lon="12.5201067"><ele>426.3333333333333</ele><time>2026-04-06T12:25:03.686Z</time></trkpt><trkpt lat="43.84833" lon="12.519895"><ele>425.0</ele><time>2026-04-06T12:25:04.684Z</time></trkpt><trkpt lat="43.8483317" lon="12.5196817"><ele>424.66666666666663</ele><time>2026-04-06T12:25:05.684Z</time></trkpt><trkpt lat="43.848335" lon="12.519475"><ele>424.33333333333337</ele><time>2026-04-06T12:25:06.686Z</time></trkpt><trkpt lat="43.8483467" lon="12.519265"><ele>424.0</ele><time>2026-04-06T12:25:07.685Z</time></trkpt><trkpt lat="43.8483567" lon="12.51905"><ele>424.0</ele><time>2026-04-06T12:25:08.683Z</time></trkpt><trkpt lat="43.8483667" lon="12.5188333"><ele>424.0</ele><time>2026-04-06T12:25:09.681Z</time></trkpt><trkpt lat="43.8483783" lon="12.518605"><ele>424.0</ele><time>2026-04-06T12:25:10.684Z</time></trkpt><trkpt lat="43.8483983" lon="12.5183617"><ele>422.0</ele><time>2026-04-06T12:25:11.685Z</time></trkpt><trkpt lat="43.848435" lon="12.5181033"><ele>420.0</ele><time>2026-04-06T12:25:12.684Z</time></trkpt><trkpt lat="43.8484867" lon="12.51783"><ele>418.0</ele><time>2026-04-06T12:25:13.685Z</time></trkpt><trkpt lat="43.8485417" lon="12.51754"><ele>417.33333333333337</ele><time>2026-04-06T12:25:14.683Z</time></trkpt><trkpt lat="43.8485783" lon="12.5172383"><ele>416.66666666666663</ele><time>2026-04-06T12:25:15.683Z</time></trkpt><trkpt lat="43.848605" lon="12.51693"><ele>416.0</ele><time>2026-04-06T12:25:16.683Z</time></trkpt><trkpt lat="43.8486233" lon="12.5166067"><ele>416.0</ele><time>2026-04-06T12:25:17.684Z</time></trkpt><trkpt lat="43.8486383" lon="12.51627"><ele>416.0</ele><time>2026-04-06T12:25:18.684Z</time></trkpt><trkpt lat="43.848655" lon="12.515925"><ele>419.0</ele><time>2026-04-06T12:25:19.684Z</time></trkpt><trkpt lat="43.8486733" lon="12.5155683"><ele>422.0</ele><time>2026-04-06T12:25:20.683Z</time></trkpt><trkpt lat="43.8486933" lon="12.51521"><ele>425.0</ele><time>2026-04-06T12:25:21.683Z</time></trkpt><trkpt lat="43.8487133" lon="12.5148433"><ele>428.0</ele><time>2026-04-06T12:25:22.686Z</time></trkpt><trkpt lat="43.848735" lon="12.51447"><ele>429.5</ele><time>2026-04-06T12:25:23.685Z</time></trkpt><trkpt lat="43.8487567" lon="12.5140917"><ele>431.0</ele><time>2026-04-06T12:25:24.684Z</time></trkpt><trkpt lat="43.8487817" lon="12.5137217"><ele>432.5</ele><time>2026-04-06T12:25:25.685Z</time></trkpt><trkpt lat="43.8488017" lon="12.5133783"><ele>434.0</ele><time>2026-04-06T12:25:26.684Z</time></trkpt><trkpt lat="43.848825" lon="12.5130583"><ele>436.0</ele><time>2026-04-06T12:25:27.682Z</time></trkpt><trkpt lat="43.8488467" lon="12.5127567"><ele>438.0</ele><time>2026-04-06T12:25:28.684Z</time></trkpt><trkpt lat="43.8488667" lon="12.5124533"><ele>440.0</ele><time>2026-04-06T12:25:29.684Z</time></trkpt><trkpt lat="43.8488867" lon="12.5121383"><ele>442.5</ele><time>2026-04-06T12:25:30.685Z</time></trkpt><trkpt lat="43.848905" lon="12.511815"><ele>445.0</ele><time>2026-04-06T12:25:31.686Z</time></trkpt><trkpt lat="43.848925" lon="12.5115017"><ele>445.6666666666667</ele><time>2026-04-06T12:25:32.684Z</time></trkpt><trkpt lat="43.8489417" lon="12.511215"><ele>446.33333333333337</ele><time>2026-04-06T12:25:33.685Z</time></trkpt><trkpt lat="43.84896" lon="12.5109483"><ele>447.0</ele><time>2026-04-06T12:25:34.685Z</time></trkpt><trkpt lat="43.84898" lon="12.5107033"><ele>447.0</ele><time>2026-04-06T12:25:35.683Z</time></trkpt><trkpt lat="43.8490033" lon="12.5104783"><ele>447.0</ele><time>2026-04-06T12:25:36.685Z</time></trkpt><trkpt lat="43.84903" lon="12.5102717"><ele>447.0</ele><time>2026-04-06T12:25:37.686Z</time></trkpt><trkpt lat="43.8490533" lon="12.5100833"><ele>448.25</ele><time>2026-04-06T12:25:38.684Z</time></trkpt><trkpt lat="43.849075" lon="12.5099083"><ele>449.5</ele><time>2026-04-06T12:25:39.682Z</time></trkpt><trkpt lat="43.849095" lon="12.50974"><ele>450.75</ele><time>2026-04-06T12:25:40.684Z</time></trkpt><trkpt lat="43.849115" lon="12.50958"><ele>452.0</ele><time>2026-04-06T12:25:41.684Z</time></trkpt><trkpt lat="43.8491367" lon="12.5094267"><ele>453.0</ele><time>2026-04-06T12:25:42.684Z</time></trkpt><trkpt lat="43.8491583" lon="12.5092783"><ele>454.0</ele><time>2026-04-06T12:25:43.684Z</time></trkpt><trkpt lat="43.8491817" lon="12.5091317"><ele>455.0</ele><time>2026-04-06T12:25:44.684Z</time></trkpt><trkpt lat="43.8492067" lon="12.50898"><ele>456.0</ele><time>2026-04-06T12:25:45.684Z</time></trkpt><trkpt lat="43.849235" lon="12.508815"><ele>456.25</ele><time>2026-04-06T12:25:46.684Z</time></trkpt><trkpt lat="43.8492717" lon="12.5086317"><ele>456.5</ele><time>2026-04-06T12:25:47.683Z</time></trkpt><trkpt lat="43.8493133" lon="12.5084483"><ele>456.75</ele><time>2026-04-06T12:25:48.684Z</time></trkpt><trkpt lat="43.8493533" lon="12.50829"><ele>457.0</ele><time>2026-04-06T12:25:49.684Z</time></trkpt><trkpt lat="43.8493867" lon="12.5081533"><ele>457.00000000000006</ele><time>2026-04-06T12:25:50.685Z</time></trkpt><trkpt lat="43.8494167" lon="12.508035"><ele>457.0</ele><time>2026-04-06T12:25:51.684Z</time></trkpt><trkpt lat="43.84944" lon="12.507935"><ele>457.0</ele><time>2026-04-06T12:25:52.684Z</time></trkpt><trkpt lat="43.8494633" lon="12.5077933"><ele>457.0</ele><time>2026-04-06T12:25:54.685Z</time></trkpt><trkpt lat="43.8493767" lon="12.5078367"><ele>457.00000000000006</ele><time>2026-04-06T12:25:58.683Z</time></trkpt><trkpt lat="43.8493383" lon="12.5079167"><ele>457.0</ele><time>2026-04-06T12:25:59.684Z</time></trkpt><trkpt lat="43.84929" lon="12.5079983"><ele>457.00000000000006</ele><time>2026-04-06T12:26:00.686Z</time></trkpt><trkpt lat="43.849235" lon="12.50807"><ele>457.0</ele><time>2026-04-06T12:26:01.686Z</time></trkpt><trkpt lat="43.8491667" lon="12.5081367"><ele>457.0</ele><time>2026-04-06T12:26:02.685Z</time></trkpt><trkpt lat="43.8490967" lon="12.5082083"><ele>457.0</ele><time>2026-04-06T12:26:03.685Z</time></trkpt><trkpt lat="43.84904" lon="12.50829"><ele>457.00000000000006</ele><time>2026-04-06T12:26:04.683Z</time></trkpt><trkpt lat="43.8489867" lon="12.50839"><ele>457.0</ele><time>2026-04-06T12:26:05.686Z</time></trkpt><trkpt lat="43.84893" lon="12.5085"><ele>457.0</ele><time>2026-04-06T12:26:06.684Z</time></trkpt><trkpt lat="43.84887" lon="12.5086117"><ele>457.00000000000006</ele><time>2026-04-06T12:26:07.686Z</time></trkpt><trkpt lat="43.848805" lon="12.5087217"><ele>457.00000000000006</ele><time>2026-04-06T12:26:08.684Z</time></trkpt><trkpt lat="43.84873" lon="12.5088367"><ele>457.0</ele><time>2026-04-06T12:26:09.683Z</time></trkpt><trkpt lat="43.848655" lon="12.50895"><ele>457.0</ele><time>2026-04-06T12:26:10.685Z</time></trkpt><trkpt lat="43.8485917" lon="12.5090617"><ele>456.83333333333337</ele><time>2026-04-06T12:26:11.685Z</time></trkpt><trkpt lat="43.8485417" lon="12.5091683"><ele>456.6666666666667</ele><time>2026-04-06T12:26:12.685Z</time></trkpt><trkpt lat="43.8485033" lon="12.5092667"><ele>456.5</ele><time>2026-04-06T12:26:13.684Z</time></trkpt><trkpt lat="43.84847" lon="12.50936"><ele>456.33333333333337</ele><time>2026-04-06T12:26:14.684Z</time></trkpt><trkpt lat="43.8484417" lon="12.5094467"><ele>456.1666666666667</ele><time>2026-04-06T12:26:15.682Z</time></trkpt><trkpt lat="43.84841" lon="12.5095317"><ele>456.0</ele><time>2026-04-06T12:26:16.683Z</time></trkpt><trkpt lat="43.8483783" lon="12.5096133"><ele>457.0</ele><time>2026-04-06T12:26:17.685Z</time></trkpt><trkpt lat="43.848345" lon="12.50969"><ele>458.0</ele><time>2026-04-06T12:26:18.683Z</time></trkpt><trkpt lat="43.8483067" lon="12.5097617"><ele>459.0</ele><time>2026-04-06T12:26:19.684Z</time></trkpt><trkpt lat="43.8482333" lon="12.5099"><ele>460.0</ele><time>2026-04-06T12:26:21.683Z</time></trkpt><trkpt lat="43.8481567" lon="12.5100333"><ele>461.0</ele><time>2026-04-06T12:26:23.686Z</time></trkpt><trkpt lat="43.8480767" lon="12.5101633"><ele>460.99999999999994</ele><time>2026-04-06T12:26:25.686Z</time></trkpt><trkpt lat="43.8480317" lon="12.5102333"><ele>461.0</ele><time>2026-04-06T12:26:26.684Z</time></trkpt><trkpt lat="43.8479517" lon="12.51034"><ele>461.0</ele><time>2026-04-06T12:26:28.684Z</time></trkpt><trkpt lat="43.8478767" lon="12.5104017"><ele>461.0</ele><time>2026-04-06T12:26:30.684Z</time></trkpt><trkpt lat="43.8477983" lon="12.5104433"><ele>460.99999999999994</ele><time>2026-04-06T12:26:32.684Z</time></trkpt><trkpt lat="43.8477233" lon="12.510475"><ele>461.0</ele><time>2026-04-06T12:26:36.684Z</time></trkpt><trkpt lat="43.847645" lon="12.510495"><ele>457.6</ele><time>2026-04-06T12:26:39.682Z</time></trkpt><trkpt lat="43.8475517" lon="12.5104933"><ele>454.20000000000005</ele><time>2026-04-06T12:26:41.685Z</time></trkpt><trkpt lat="43.8474483" lon="12.5104933"><ele>450.79999999999995</ele><time>2026-04-06T12:26:43.684Z</time></trkpt><trkpt lat="43.8473533" lon="12.5104883"><ele>447.4</ele><time>2026-04-06T12:26:45.684Z</time></trkpt><trkpt lat="43.8472417" lon="12.51046"><ele>444.0</ele><time>2026-04-06T12:26:47.685Z</time></trkpt><trkpt lat="43.84718" lon="12.5104367"><ele>444.0</ele><time>2026-04-06T12:26:48.684Z</time></trkpt><trkpt lat="43.8471167" lon="12.5104117"><ele>444.0</ele><time>2026-04-06T12:26:49.684Z</time></trkpt><trkpt lat="43.8470517" lon="12.51038"><ele>444.0</ele><time>2026-04-06T12:26:50.683Z</time></trkpt><trkpt lat="43.8469867" lon="12.5103467"><ele>444.0</ele><time>2026-04-06T12:26:51.684Z</time></trkpt><trkpt lat="43.8469183" lon="12.510315"><ele>444.0</ele><time>2026-04-06T12:26:52.685Z</time></trkpt><trkpt lat="43.84685" lon="12.5102767"><ele>444.0</ele><time>2026-04-06T12:26:53.684Z</time></trkpt><trkpt lat="43.84679" lon="12.5102333"><ele>444.0</ele><time>2026-04-06T12:26:54.684Z</time></trkpt><trkpt lat="43.8467033" lon="12.51013"><ele>443.6</ele><time>2026-04-06T12:26:56.683Z</time></trkpt><trkpt lat="43.8466433" lon="12.510015"><ele>443.2</ele><time>2026-04-06T12:26:58.683Z</time></trkpt><trkpt lat="43.846585" lon="12.5099083"><ele>442.80000000000007</ele><time>2026-04-06T12:27:00.684Z</time></trkpt><trkpt lat="43.8465067" lon="12.5098133"><ele>442.40000000000003</ele><time>2026-04-06T12:27:02.685Z</time></trkpt><trkpt lat="43.8464083" lon="12.5097267"><ele>442.0</ele><time>2026-04-06T12:27:04.684Z</time></trkpt><trkpt lat="43.84632" lon="12.509655"><ele>438.8</ele><time>2026-04-06T12:27:06.683Z</time></trkpt><trkpt lat="43.8462433" lon="12.509575"><ele>435.6</ele><time>2026-04-06T12:27:08.685Z</time></trkpt><trkpt lat="43.8461817" lon="12.50948"><ele>432.40000000000003</ele><time>2026-04-06T12:27:10.684Z</time></trkpt><trkpt lat="43.8461183" lon="12.5093617"><ele>429.20000000000005</ele><time>2026-04-06T12:27:12.684Z</time></trkpt><trkpt lat="43.8460483" lon="12.509255"><ele>426.0</ele><time>2026-04-06T12:27:14.682Z</time></trkpt><trkpt lat="43.8459833" lon="12.5091833"><ele>425.6</ele><time>2026-04-06T12:27:16.684Z</time></trkpt><trkpt lat="43.8458967" lon="12.5091317"><ele>425.20000000000005</ele><time>2026-04-06T12:27:18.684Z</time></trkpt><trkpt lat="43.8457883" lon="12.5091017"><ele>424.79999999999995</ele><time>2026-04-06T12:27:20.682Z</time></trkpt><trkpt lat="43.845675" lon="12.5090983"><ele>424.4</ele><time>2026-04-06T12:27:22.684Z</time></trkpt><trkpt lat="43.84557" lon="12.5090933"><ele>424.0</ele><time>2026-04-06T12:27:24.684Z</time></trkpt><trkpt lat="43.84547" lon="12.509095"><ele>424.0</ele><time>2026-04-06T12:27:26.681Z</time></trkpt><trkpt lat="43.8453667" lon="12.5091067"><ele>424.0</ele><time>2026-04-06T12:27:28.683Z</time></trkpt><trkpt lat="43.84525" lon="12.5091333"><ele>424.0</ele><time>2026-04-06T12:27:30.689Z</time></trkpt><trkpt lat="43.84513" lon="12.5091633"><ele>424.0</ele><time>2026-04-06T12:27:32.684Z</time></trkpt><trkpt lat="43.8450683" lon="12.5091867"><ele>424.0</ele><time>2026-04-06T12:27:33.686Z</time></trkpt><trkpt lat="43.8450083" lon="12.5092167"><ele>421.5</ele><time>2026-04-06T12:27:34.685Z</time></trkpt><trkpt lat="43.8449" lon="12.5092833"><ele>419.0</ele><time>2026-04-06T12:27:36.686Z</time></trkpt><trkpt lat="43.8447917" lon="12.5093517"><ele>416.5</ele><time>2026-04-06T12:27:38.687Z</time></trkpt><trkpt lat="43.8446817" lon="12.5093917"><ele>414.0</ele><time>2026-04-06T12:27:40.683Z</time></trkpt><trkpt lat="43.8445733" lon="12.5093733"><ele>414.0</ele><time>2026-04-06T12:27:42.684Z</time></trkpt><trkpt lat="43.844475" lon="12.5093083"><ele>414.0</ele><time>2026-04-06T12:27:44.682Z</time></trkpt><trkpt lat="43.8443917" lon="12.5091933"><ele>414.0</ele><time>2026-04-06T12:27:46.685Z</time></trkpt><trkpt lat="43.8443417" lon="12.5091283"><ele>414.0</ele><time>2026-04-06T12:27:47.68Z</time></trkpt><trkpt lat="43.8442867" lon="12.5090783"><ele>414.0</ele><time>2026-04-06T12:27:48.683Z</time></trkpt><trkpt lat="43.84418" lon="12.5090367"><ele>411.4</ele><time>2026-04-06T12:27:50.683Z</time></trkpt><trkpt lat="43.8440517" lon="12.5090117"><ele>408.79999999999995</ele><time>2026-04-06T12:27:52.684Z</time></trkpt><trkpt lat="43.8439767" lon="12.508985"><ele>406.20000000000005</ele><time>2026-04-06T12:27:53.684Z</time></trkpt><trkpt lat="43.8439017" lon="12.50895"><ele>403.6</ele><time>2026-04-06T12:27:54.684Z</time></trkpt><trkpt lat="43.8438217" lon="12.5089183"><ele>401.0</ele><time>2026-04-06T12:27:55.685Z</time></trkpt><trkpt lat="43.8437367" lon="12.508895"><ele>400.99999999999994</ele><time>2026-04-06T12:27:56.682Z</time></trkpt><trkpt lat="43.8436517" lon="12.5088717"><ele>401.0</ele><time>2026-04-06T12:27:57.683Z</time></trkpt><trkpt lat="43.8435683" lon="12.5088483"><ele>401.0</ele><time>2026-04-06T12:27:58.685Z</time></trkpt><trkpt lat="43.84348" lon="12.50882"><ele>401.0</ele><time>2026-04-06T12:27:59.685Z</time></trkpt><trkpt lat="43.8433933" lon="12.5087817"><ele>400.99999999999994</ele><time>2026-04-06T12:28:00.685Z</time></trkpt><trkpt lat="43.84332" lon="12.5087433"><ele>401.0</ele><time>2026-04-06T12:28:01.686Z</time></trkpt><trkpt lat="43.8432517" lon="12.508715"><ele>399.3333333333333</ele><time>2026-04-06T12:28:02.685Z</time></trkpt><trkpt lat="43.8431383" lon="12.5087067"><ele>397.66666666666663</ele><time>2026-04-06T12:28:04.686Z</time></trkpt><trkpt lat="43.843075" lon="12.508715"><ele>396.0</ele><time>2026-04-06T12:28:05.684Z</time></trkpt><trkpt lat="43.8430017" lon="12.50873"><ele>394.33333333333337</ele><time>2026-04-06T12:28:06.684Z</time></trkpt><trkpt lat="43.84292" lon="12.5087467"><ele>392.6666666666667</ele><time>2026-04-06T12:28:07.686Z</time></trkpt><trkpt lat="43.842835" lon="12.5087617"><ele>391.0</ele><time>2026-04-06T12:28:08.686Z</time></trkpt><trkpt lat="43.8427483" lon="12.50877"><ele>390.6</ele><time>2026-04-06T12:28:09.684Z</time></trkpt><trkpt lat="43.8426583" lon="12.5087733"><ele>390.20000000000005</ele><time>2026-04-06T12:28:10.684Z</time></trkpt><trkpt lat="43.8425633" lon="12.5087633"><ele>389.79999999999995</ele><time>2026-04-06T12:28:11.684Z</time></trkpt><trkpt lat="43.8424633" lon="12.5087533"><ele>389.4</ele><time>2026-04-06T12:28:12.684Z</time></trkpt><trkpt lat="43.842365" lon="12.5087567"><ele>389.0</ele><time>2026-04-06T12:28:13.687Z</time></trkpt><trkpt lat="43.8422683" lon="12.508765"><ele>388.66666666666663</ele><time>2026-04-06T12:28:14.683Z</time></trkpt><trkpt lat="43.8421683" lon="12.5087617"><ele>388.3333333333333</ele><time>2026-04-06T12:28:15.686Z</time></trkpt><trkpt lat="43.8420767" lon="12.5087367"><ele>388.0</ele><time>2026-04-06T12:28:16.683Z</time></trkpt><trkpt lat="43.842" lon="12.5086983"><ele>387.66666666666663</ele><time>2026-04-06T12:28:17.682Z</time></trkpt><trkpt lat="43.8419283" lon="12.5086717"><ele>387.3333333333333</ele><time>2026-04-06T12:28:18.684Z</time></trkpt><trkpt lat="43.8418567" lon="12.5086617"><ele>387.0</ele><time>2026-04-06T12:28:19.685Z</time></trkpt><trkpt lat="43.841785" lon="12.5086717"><ele>387.0</ele><time>2026-04-06T12:28:20.683Z</time></trkpt><trkpt lat="43.8417033" lon="12.5087"><ele>387.0</ele><time>2026-04-06T12:28:21.684Z</time></trkpt><trkpt lat="43.841615" lon="12.508725"><ele>387.0</ele><time>2026-04-06T12:28:22.683Z</time></trkpt><trkpt lat="43.8415233" lon="12.50872"><ele>387.0</ele><time>2026-04-06T12:28:23.684Z</time></trkpt><trkpt lat="43.8414317" lon="12.5086883"><ele>387.0</ele><time>2026-04-06T12:28:24.685Z</time></trkpt><trkpt lat="43.8413417" lon="12.5086533"><ele>387.0</ele><time>2026-04-06T12:28:25.686Z</time></trkpt><trkpt lat="43.8412483" lon="12.5086333"><ele>387.0</ele><time>2026-04-06T12:28:26.682Z</time></trkpt><trkpt lat="43.8411517" lon="12.5086233"><ele>387.0</ele><time>2026-04-06T12:28:27.684Z</time></trkpt><trkpt lat="43.8410467" lon="12.5086017"><ele>387.0</ele><time>2026-04-06T12:28:28.685Z</time></trkpt><trkpt lat="43.84094" lon="12.5085667"><ele>387.0</ele><time>2026-04-06T12:28:29.685Z</time></trkpt><trkpt lat="43.8408383" lon="12.50852"><ele>387.5</ele><time>2026-04-06T12:28:30.686Z</time></trkpt><trkpt lat="43.8407517" lon="12.5084717"><ele>388.0</ele><time>2026-04-06T12:28:31.688Z</time></trkpt><trkpt lat="43.8406733" lon="12.5084317"><ele>388.5</ele><time>2026-04-06T12:28:32.685Z</time></trkpt><trkpt lat="43.8406033" lon="12.50841"><ele>389.0</ele><time>2026-04-06T12:28:33.689Z</time></trkpt><trkpt lat="43.84054" lon="12.5084033"><ele>389.5</ele><time>2026-04-06T12:28:34.685Z</time></trkpt><trkpt lat="43.8404733" lon="12.5084067"><ele>390.0</ele><time>2026-04-06T12:28:35.685Z</time></trkpt><trkpt lat="43.840395" lon="12.508415"><ele>390.0</ele><time>2026-04-06T12:28:36.686Z</time></trkpt><trkpt lat="43.8403117" lon="12.5084133"><ele>390.0</ele><time>2026-04-06T12:28:37.686Z</time></trkpt><trkpt lat="43.8402167" lon="12.5084"><ele>390.0</ele><time>2026-04-06T12:28:38.686Z</time></trkpt><trkpt lat="43.8401117" lon="12.5083683"><ele>390.0</ele><time>2026-04-06T12:28:39.685Z</time></trkpt><trkpt lat="43.8400033" lon="12.5083217"><ele>390.0</ele><time>2026-04-06T12:28:40.686Z</time></trkpt><trkpt lat="43.8398933" lon="12.5082683"><ele>390.0</ele><time>2026-04-06T12:28:41.686Z</time></trkpt><trkpt lat="43.839785" lon="12.5082117"><ele>390.0</ele><time>2026-04-06T12:28:42.686Z</time></trkpt><trkpt lat="43.83969" lon="12.5081567"><ele>390.0</ele><time>2026-04-06T12:28:43.685Z</time></trkpt><trkpt lat="43.8396033" lon="12.5081267"><ele>390.0</ele><time>2026-04-06T12:28:44.686Z</time></trkpt><trkpt lat="43.8395183" lon="12.50813"><ele>390.0</ele><time>2026-04-06T12:28:45.687Z</time></trkpt><trkpt lat="43.83944" lon="12.5081367"><ele>390.0</ele><time>2026-04-06T12:28:46.683Z</time></trkpt><trkpt lat="43.8393667" lon="12.508115"><ele>390.0</ele><time>2026-04-06T12:28:47.683Z</time></trkpt><trkpt lat="43.8392917" lon="12.50807"><ele>390.0</ele><time>2026-04-06T12:28:48.686Z</time></trkpt><trkpt lat="43.8392067" lon="12.5080033"><ele>390.0</ele><time>2026-04-06T12:28:49.686Z</time></trkpt><trkpt lat="43.839115" lon="12.5079133"><ele>390.0</ele><time>2026-04-06T12:28:50.683Z</time></trkpt><trkpt lat="43.83902" lon="12.5078133"><ele>389.6</ele><time>2026-04-06T12:28:51.684Z</time></trkpt><trkpt lat="43.83893" lon="12.5077233"><ele>389.2</ele><time>2026-04-06T12:28:52.684Z</time></trkpt><trkpt lat="43.838845" lon="12.5076467"><ele>388.79999999999995</ele><time>2026-04-06T12:28:53.684Z</time></trkpt><trkpt lat="43.8387583" lon="12.5075833"><ele>388.4</ele><time>2026-04-06T12:28:54.685Z</time></trkpt><trkpt lat="43.8386667" lon="12.5075333"><ele>388.0</ele><time>2026-04-06T12:28:55.686Z</time></trkpt><trkpt lat="43.8385717" lon="12.5074967"><ele>388.0</ele><time>2026-04-06T12:28:56.683Z</time></trkpt><trkpt lat="43.83847" lon="12.5074733"><ele>388.0</ele><time>2026-04-06T12:28:57.683Z</time></trkpt><trkpt lat="43.838365" lon="12.5074583"><ele>388.0</ele><time>2026-04-06T12:28:58.687Z</time></trkpt><trkpt lat="43.8382583" lon="12.5074483"><ele>388.0</ele><time>2026-04-06T12:28:59.685Z</time></trkpt><trkpt lat="43.8381467" lon="12.5074367"><ele>388.0</ele><time>2026-04-06T12:29:00.685Z</time></trkpt><trkpt lat="43.838035" lon="12.507425"><ele>389.0</ele><time>2026-04-06T12:29:01.686Z</time></trkpt><trkpt lat="43.837925" lon="12.5074117"><ele>390.0</ele><time>2026-04-06T12:29:02.686Z</time></trkpt><trkpt lat="43.8378167" lon="12.5073883"><ele>391.0</ele><time>2026-04-06T12:29:03.685Z</time></trkpt><trkpt lat="43.8377083" lon="12.50735"><ele>392.0</ele><time>2026-04-06T12:29:04.686Z</time></trkpt><trkpt lat="43.83761" lon="12.5072917"><ele>393.0</ele><time>2026-04-06T12:29:05.684Z</time></trkpt><trkpt lat="43.8375233" lon="12.5072183"><ele>393.59999999999997</ele><time>2026-04-06T12:29:06.685Z</time></trkpt><trkpt lat="43.8374417" lon="12.5071517"><ele>394.2</ele><time>2026-04-06T12:29:07.685Z</time></trkpt><trkpt lat="43.837355" lon="12.507095"><ele>394.8</ele><time>2026-04-06T12:29:08.686Z</time></trkpt><trkpt lat="43.83726" lon="12.5070467"><ele>395.4</ele><time>2026-04-06T12:29:09.685Z</time></trkpt><trkpt lat="43.8371533" lon="12.507005"><ele>396.0</ele><time>2026-04-06T12:29:10.686Z</time></trkpt><trkpt lat="43.837035" lon="12.5069683"><ele>396.0</ele><time>2026-04-06T12:29:11.686Z</time></trkpt><trkpt lat="43.8369083" lon="12.5069417"><ele>396.0</ele><time>2026-04-06T12:29:12.687Z</time></trkpt><trkpt lat="43.83678" lon="12.5069183"><ele>396.0</ele><time>2026-04-06T12:29:13.686Z</time></trkpt><trkpt lat="43.8366467" lon="12.5069017"><ele>396.0</ele><time>2026-04-06T12:29:14.686Z</time></trkpt><trkpt lat="43.8365183" lon="12.5068767"><ele>397.0</ele><time>2026-04-06T12:29:15.685Z</time></trkpt><trkpt lat="43.836395" lon="12.5068483"><ele>398.0</ele><time>2026-04-06T12:29:16.683Z</time></trkpt><trkpt lat="43.836275" lon="12.506825"><ele>399.0</ele><time>2026-04-06T12:29:17.683Z</time></trkpt><trkpt lat="43.8361583" lon="12.506815"><ele>400.0</ele><time>2026-04-06T12:29:18.683Z</time></trkpt><trkpt lat="43.8360517" lon="12.5068167"><ele>400.4</ele><time>2026-04-06T12:29:19.684Z</time></trkpt><trkpt lat="43.8359517" lon="12.5068283"><ele>400.8</ele><time>2026-04-06T12:29:20.682Z</time></trkpt><trkpt lat="43.8358517" lon="12.5068533"><ele>401.20000000000005</ele><time>2026-04-06T12:29:21.683Z</time></trkpt><trkpt lat="43.8357533" lon="12.5068867"><ele>401.6</ele><time>2026-04-06T12:29:22.683Z</time></trkpt><trkpt lat="43.8356583" lon="12.5069183"><ele>402.0</ele><time>2026-04-06T12:29:23.684Z</time></trkpt><trkpt lat="43.8355667" lon="12.5069467"><ele>402.0</ele><time>2026-04-06T12:29:24.684Z</time></trkpt><trkpt lat="43.8354867" lon="12.5069717"><ele>402.0</ele><time>2026-04-06T12:29:25.685Z</time></trkpt><trkpt lat="43.835415" lon="12.5070083"><ele>402.0</ele><time>2026-04-06T12:29:26.681Z</time></trkpt><trkpt lat="43.835345" lon="12.5070633"><ele>402.0</ele><time>2026-04-06T12:29:27.686Z</time></trkpt><trkpt lat="43.835275" lon="12.5071367"><ele>402.0</ele><time>2026-04-06T12:29:28.685Z</time></trkpt><trkpt lat="43.835205" lon="12.5072167"><ele>402.0</ele><time>2026-04-06T12:29:29.686Z</time></trkpt><trkpt lat="43.8351367" lon="12.5072867"><ele>401.8333333333333</ele><time>2026-04-06T12:29:30.685Z</time></trkpt><trkpt lat="43.8350667" lon="12.5073483"><ele>401.66666666666663</ele><time>2026-04-06T12:29:31.688Z</time></trkpt><trkpt lat="43.8349967" lon="12.5074183"><ele>401.5</ele><time>2026-04-06T12:29:32.687Z</time></trkpt><trkpt lat="43.8349233" lon="12.5074817"><ele>401.3333333333333</ele><time>2026-04-06T12:29:33.686Z</time></trkpt><trkpt lat="43.8348483" lon="12.5075417"><ele>401.16666666666663</ele><time>2026-04-06T12:29:34.685Z</time></trkpt><trkpt lat="43.8347683" lon="12.5076017"><ele>401.0</ele><time>2026-04-06T12:29:35.686Z</time></trkpt><trkpt lat="43.8346883" lon="12.5076617"><ele>400.99999999999994</ele><time>2026-04-06T12:29:36.685Z</time></trkpt><trkpt lat="43.8346133" lon="12.5077167"><ele>401.0</ele><time>2026-04-06T12:29:37.687Z</time></trkpt><trkpt lat="43.8345533" lon="12.5077633"><ele>401.0</ele><time>2026-04-06T12:29:38.684Z</time></trkpt><trkpt lat="43.8344983" lon="12.5078133"><ele>401.0</ele><time>2026-04-06T12:29:39.685Z</time></trkpt><trkpt lat="43.8344433" lon="12.507865"><ele>400.99999999999994</ele><time>2026-04-06T12:29:40.686Z</time></trkpt><trkpt lat="43.8343933" lon="12.5079183"><ele>401.0</ele><time>2026-04-06T12:29:41.685Z</time></trkpt><trkpt lat="43.8343083" lon="12.5080167"><ele>400.20000000000005</ele><time>2026-04-06T12:29:43.685Z</time></trkpt><trkpt lat="43.834205" lon="12.5081083"><ele>399.40000000000003</ele><time>2026-04-06T12:29:45.684Z</time></trkpt><trkpt lat="43.8341317" lon="12.5081617"><ele>398.6</ele><time>2026-04-06T12:29:46.685Z</time></trkpt><trkpt lat="43.8340483" lon="12.5082183"><ele>397.8</ele><time>2026-04-06T12:29:47.686Z</time></trkpt><trkpt lat="43.833955" lon="12.5082767"><ele>397.0</ele><time>2026-04-06T12:29:48.684Z</time></trkpt><trkpt lat="43.8338583" lon="12.5083283"><ele>397.0</ele><time>2026-04-06T12:29:49.686Z</time></trkpt><trkpt lat="43.833755" lon="12.5083733"><ele>397.0</ele><time>2026-04-06T12:29:50.684Z</time></trkpt><trkpt lat="43.8336467" lon="12.5084133"><ele>397.0</ele><time>2026-04-06T12:29:51.683Z</time></trkpt><trkpt lat="43.8335383" lon="12.5084517"><ele>397.0</ele><time>2026-04-06T12:29:52.685Z</time></trkpt><trkpt lat="43.83343" lon="12.5084917"><ele>397.0</ele><time>2026-04-06T12:29:53.686Z</time></trkpt><trkpt lat="43.8333217" lon="12.508535"><ele>396.40000000000003</ele><time>2026-04-06T12:29:54.684Z</time></trkpt><trkpt lat="43.8332183" lon="12.50858"><ele>395.8</ele><time>2026-04-06T12:29:55.685Z</time></trkpt><trkpt lat="43.8331167" lon="12.5086283"><ele>395.2</ele><time>2026-04-06T12:29:56.684Z</time></trkpt><trkpt lat="43.8330267" lon="12.508675"><ele>394.6</ele><time>2026-04-06T12:29:57.684Z</time></trkpt><trkpt lat="43.83294" lon="12.5087167"><ele>394.0</ele><time>2026-04-06T12:29:58.683Z</time></trkpt><trkpt lat="43.8328583" lon="12.5087483"><ele>394.0</ele><time>2026-04-06T12:29:59.686Z</time></trkpt><trkpt lat="43.8327767" lon="12.5087717"><ele>394.0</ele><time>2026-04-06T12:30:00.684Z</time></trkpt><trkpt lat="43.8326883" lon="12.50878"><ele>394.0</ele><time>2026-04-06T12:30:01.684Z</time></trkpt><trkpt lat="43.8325967" lon="12.5087783"><ele>394.0</ele><time>2026-04-06T12:30:02.684Z</time></trkpt><trkpt lat="43.8325017" lon="12.5087783"><ele>394.0</ele><time>2026-04-06T12:30:03.684Z</time></trkpt><trkpt lat="43.8324" lon="12.5087833"><ele>394.79999999999995</ele><time>2026-04-06T12:30:04.685Z</time></trkpt><trkpt lat="43.8323" lon="12.5087983"><ele>395.59999999999997</ele><time>2026-04-06T12:30:05.685Z</time></trkpt><trkpt lat="43.8322017" lon="12.5088283"><ele>396.4</ele><time>2026-04-06T12:30:06.685Z</time></trkpt><trkpt lat="43.832115" lon="12.508865"><ele>397.2</ele><time>2026-04-06T12:30:07.686Z</time></trkpt><trkpt lat="43.832045" lon="12.5089033"><ele>398.0</ele><time>2026-04-06T12:30:08.685Z</time></trkpt><trkpt lat="43.8319533" lon="12.508965"><ele>398.0</ele><time>2026-04-06T12:30:10.685Z</time></trkpt><trkpt lat="43.8318717" lon="12.50901"><ele>398.0</ele><time>2026-04-06T12:30:12.685Z</time></trkpt><trkpt lat="43.8317333" lon="12.5090517"><ele>398.0</ele><time>2026-04-06T12:30:14.685Z</time></trkpt><trkpt lat="43.83164" lon="12.5090817"><ele>398.0</ele><time>2026-04-06T12:30:15.683Z</time></trkpt><trkpt lat="43.8315333" lon="12.5091217"><ele>398.0</ele><time>2026-04-06T12:30:16.685Z</time></trkpt><trkpt lat="43.831435" lon="12.5091667"><ele>399.59999999999997</ele><time>2026-04-06T12:30:17.685Z</time></trkpt><trkpt lat="43.8313467" lon="12.5092233"><ele>401.2</ele><time>2026-04-06T12:30:18.683Z</time></trkpt><trkpt lat="43.831265" lon="12.5092983"><ele>402.8</ele><time>2026-04-06T12:30:19.688Z</time></trkpt><trkpt lat="43.83119" lon="12.50939"><ele>404.4</ele><time>2026-04-06T12:30:20.684Z</time></trkpt><trkpt lat="43.8311083" lon="12.5094783"><ele>406.0</ele><time>2026-04-06T12:30:21.686Z</time></trkpt><trkpt lat="43.8310233" lon="12.5095517"><ele>407.20000000000005</ele><time>2026-04-06T12:30:22.686Z</time></trkpt><trkpt lat="43.8309333" lon="12.5096017"><ele>408.40000000000003</ele><time>2026-04-06T12:30:23.685Z</time></trkpt><trkpt lat="43.8308417" lon="12.5096533"><ele>409.6</ele><time>2026-04-06T12:30:24.685Z</time></trkpt><trkpt lat="43.830745" lon="12.5097167"><ele>410.8</ele><time>2026-04-06T12:30:25.686Z</time></trkpt><trkpt lat="43.8306533" lon="12.5097917"><ele>412.0</ele><time>2026-04-06T12:30:26.686Z</time></trkpt><trkpt lat="43.8305683" lon="12.5098617"><ele>412.0</ele><time>2026-04-06T12:30:27.683Z</time></trkpt><trkpt lat="43.830495" lon="12.5099183"><ele>412.0</ele><time>2026-04-06T12:30:28.684Z</time></trkpt><trkpt lat="43.8303817" lon="12.509955"><ele>412.0</ele><time>2026-04-06T12:30:30.684Z</time></trkpt><trkpt lat="43.83028" lon="12.5099"><ele>412.0</ele><time>2026-04-06T12:30:32.684Z</time></trkpt><trkpt lat="43.8301883" lon="12.5097783"><ele>412.0</ele><time>2026-04-06T12:30:34.683Z</time></trkpt><trkpt lat="43.830135" lon="12.509715"><ele>412.50000000000006</ele><time>2026-04-06T12:30:35.685Z</time></trkpt><trkpt lat="43.8300733" lon="12.5096533"><ele>413.0</ele><time>2026-04-06T12:30:36.685Z</time></trkpt><trkpt lat="43.8299967" lon="12.5095983"><ele>413.5</ele><time>2026-04-06T12:30:37.686Z</time></trkpt><trkpt lat="43.8299133" lon="12.5095483"><ele>414.0</ele><time>2026-04-06T12:30:38.684Z</time></trkpt><trkpt lat="43.8298333" lon="12.5095033"><ele>414.50000000000006</ele><time>2026-04-06T12:30:39.683Z</time></trkpt><trkpt lat="43.829755" lon="12.5094683"><ele>415.0</ele><time>2026-04-06T12:30:40.686Z</time></trkpt><trkpt lat="43.8296717" lon="12.5094517"><ele>415.4</ele><time>2026-04-06T12:30:41.685Z</time></trkpt><trkpt lat="43.8295767" lon="12.50944"><ele>415.8</ele><time>2026-04-06T12:30:42.687Z</time></trkpt><trkpt lat="43.82947" lon="12.509435"><ele>416.20000000000005</ele><time>2026-04-06T12:30:43.686Z</time></trkpt><trkpt lat="43.829355" lon="12.509435"><ele>416.6</ele><time>2026-04-06T12:30:44.684Z</time></trkpt><trkpt lat="43.8292417" lon="12.50944"><ele>417.0</ele><time>2026-04-06T12:30:45.684Z</time></trkpt><trkpt lat="43.8291367" lon="12.5094483"><ele>417.0</ele><time>2026-04-06T12:30:46.683Z</time></trkpt><trkpt lat="43.8290367" lon="12.5094633"><ele>417.0</ele><time>2026-04-06T12:30:47.685Z</time></trkpt><trkpt lat="43.8289467" lon="12.5094783"><ele>417.0</ele><time>2026-04-06T12:30:48.684Z</time></trkpt><trkpt lat="43.8288733" lon="12.509485"><ele>417.0</ele><time>2026-04-06T12:30:49.687Z</time></trkpt><trkpt lat="43.8288067" lon="12.5094783"><ele>417.0</ele><time>2026-04-06T12:30:50.687Z</time></trkpt><trkpt lat="43.8287417" lon="12.509455"><ele>417.0</ele><time>2026-04-06T12:30:51.682Z</time></trkpt><trkpt lat="43.8286767" lon="12.509425"><ele>417.0</ele><time>2026-04-06T12:30:52.685Z</time></trkpt><trkpt lat="43.8286183" lon="12.5093833"><ele>417.0</ele><time>2026-04-06T12:30:53.685Z</time></trkpt><trkpt lat="43.82856" lon="12.5093483"><ele>417.0</ele><time>2026-04-06T12:30:55.687Z</time></trkpt><trkpt lat="43.8285267" lon="12.5094583"><ele>417.0</ele><time>2026-04-06T12:30:59.684Z</time></trkpt><trkpt lat="43.82851" lon="12.50959"><ele>417.0</ele><time>2026-04-06T12:31:01.685Z</time></trkpt><trkpt lat="43.82848" lon="12.5097533"><ele>417.0</ele><time>2026-04-06T12:31:03.683Z</time></trkpt><trkpt lat="43.8284717" lon="12.5098467"><ele>417.2857142857143</ele><time>2026-04-06T12:31:04.682Z</time></trkpt><trkpt lat="43.8284683" lon="12.5099417"><ele>417.57142857142856</ele><time>2026-04-06T12:31:05.685Z</time></trkpt><trkpt lat="43.8284633" lon="12.5100367"><ele>417.85714285714283</ele><time>2026-04-06T12:31:06.683Z</time></trkpt><trkpt lat="43.8284583" lon="12.5101333"><ele>418.1428571428571</ele><time>2026-04-06T12:31:07.69Z</time></trkpt><trkpt lat="43.82845" lon="12.5102267"><ele>418.42857142857144</ele><time>2026-04-06T12:31:08.683Z</time></trkpt><trkpt lat="43.82844" lon="12.5103217"><ele>418.71428571428567</ele><time>2026-04-06T12:31:09.684Z</time></trkpt><trkpt lat="43.8284317" lon="12.5104183"><ele>419.0</ele><time>2026-04-06T12:31:10.684Z</time></trkpt><trkpt lat="43.82842" lon="12.51052"><ele>417.99999999999994</ele><time>2026-04-06T12:31:11.684Z</time></trkpt><trkpt lat="43.8284" lon="12.5106183"><ele>417.0</ele><time>2026-04-06T12:31:12.687Z</time></trkpt><trkpt lat="43.828375" lon="12.5107083"><ele>416.0</ele><time>2026-04-06T12:31:13.685Z</time></trkpt><trkpt lat="43.8283433" lon="12.51079"><ele>415.0</ele><time>2026-04-06T12:31:14.684Z</time></trkpt><trkpt lat="43.82831" lon="12.5108667"><ele>413.99999999999994</ele><time>2026-04-06T12:31:15.683Z</time></trkpt><trkpt lat="43.8282633" lon="12.5110117"><ele>413.0</ele><time>2026-04-06T12:31:17.686Z</time></trkpt><trkpt lat="43.8282333" lon="12.51115"><ele>411.8333333333333</ele><time>2026-04-06T12:31:19.683Z</time></trkpt><trkpt lat="43.8282167" lon="12.5112417"><ele>410.66666666666663</ele><time>2026-04-06T12:31:21.686Z</time></trkpt><trkpt lat="43.828215" lon="12.5113383"><ele>409.5</ele><time>2026-04-06T12:31:25.685Z</time></trkpt><trkpt lat="43.82822" lon="12.5114267"><ele>408.33333333333337</ele><time>2026-04-06T12:31:27.683Z</time></trkpt><trkpt lat="43.8282433" lon="12.5115683"><ele>407.1666666666667</ele><time>2026-04-06T12:31:29.685Z</time></trkpt><trkpt lat="43.8282583" lon="12.51173"><ele>406.0</ele><time>2026-04-06T12:31:31.684Z</time></trkpt><trkpt lat="43.8282567" lon="12.51182"><ele>406.00000000000006</ele><time>2026-04-06T12:31:32.682Z</time></trkpt><trkpt lat="43.8282483" lon="12.5119183"><ele>406.0</ele><time>2026-04-06T12:31:33.683Z</time></trkpt><trkpt lat="43.8282367" lon="12.51203"><ele>406.0</ele><time>2026-04-06T12:31:34.685Z</time></trkpt><trkpt lat="43.8282233" lon="12.5121483"><ele>406.0</ele><time>2026-04-06T12:31:35.686Z</time></trkpt><trkpt lat="43.8282117" lon="12.51227"><ele>406.00000000000006</ele><time>2026-04-06T12:31:36.684Z</time></trkpt><trkpt lat="43.8282" lon="12.5124"><ele>406.0</ele><time>2026-04-06T12:31:37.685Z</time></trkpt><trkpt lat="43.8281883" lon="12.51252"><ele>405.00000000000006</ele><time>2026-04-06T12:31:38.684Z</time></trkpt><trkpt lat="43.8281717" lon="12.5126317"><ele>404.0</ele><time>2026-04-06T12:31:39.683Z</time></trkpt><trkpt lat="43.82815" lon="12.5127383"><ele>403.0</ele><time>2026-04-06T12:31:40.684Z</time></trkpt><trkpt lat="43.8281183" lon="12.5128467"><ele>402.0</ele><time>2026-04-06T12:31:41.687Z</time></trkpt><trkpt lat="43.8280817" lon="12.5129517"><ele>401.00000000000006</ele><time>2026-04-06T12:31:42.683Z</time></trkpt><trkpt lat="43.82804" lon="12.5130533"><ele>400.0</ele><time>2026-04-06T12:31:43.685Z</time></trkpt><trkpt lat="43.8279933" lon="12.51315"><ele>398.83333333333337</ele><time>2026-04-06T12:31:44.683Z</time></trkpt><trkpt lat="43.8279483" lon="12.5132417"><ele>397.6666666666667</ele><time>2026-04-06T12:31:45.683Z</time></trkpt><trkpt lat="43.827905" lon="12.5133367"><ele>396.5</ele><time>2026-04-06T12:31:46.684Z</time></trkpt><trkpt lat="43.82786" lon="12.51343"><ele>395.33333333333337</ele><time>2026-04-06T12:31:47.684Z</time></trkpt><trkpt lat="43.8278167" lon="12.5135183"><ele>394.1666666666667</ele><time>2026-04-06T12:31:48.684Z</time></trkpt><trkpt lat="43.8277717" lon="12.5136017"><ele>393.0</ele><time>2026-04-06T12:31:49.685Z</time></trkpt><trkpt lat="43.8277283" lon="12.513675"><ele>393.0</ele><time>2026-04-06T12:31:50.683Z</time></trkpt><trkpt lat="43.827685" lon="12.5137433"><ele>393.0</ele><time>2026-04-06T12:31:51.684Z</time></trkpt><trkpt lat="43.82761" lon="12.5138583"><ele>393.0</ele><time>2026-04-06T12:31:53.685Z</time></trkpt><trkpt lat="43.8275433" lon="12.5139733"><ele>393.0</ele><time>2026-04-06T12:31:55.686Z</time></trkpt><trkpt lat="43.8274683" lon="12.5141267"><ele>393.0</ele><time>2026-04-06T12:31:57.684Z</time></trkpt><trkpt lat="43.8274283" lon="12.5142117"><ele>393.1666666666667</ele><time>2026-04-06T12:31:58.683Z</time></trkpt><trkpt lat="43.82739" lon="12.5142967"><ele>393.33333333333337</ele><time>2026-04-06T12:31:59.685Z</time></trkpt><trkpt lat="43.8273467" lon="12.5143883"><ele>393.5</ele><time>2026-04-06T12:32:00.686Z</time></trkpt><trkpt lat="43.8273" lon="12.51448"><ele>393.6666666666667</ele><time>2026-04-06T12:32:01.686Z</time></trkpt><trkpt lat="43.82725" lon="12.514565"><ele>393.83333333333337</ele><time>2026-04-06T12:32:02.682Z</time></trkpt><trkpt lat="43.8271933" lon="12.5146533"><ele>394.0</ele><time>2026-04-06T12:32:03.682Z</time></trkpt><trkpt lat="43.8271317" lon="12.5147433"><ele>392.6666666666667</ele><time>2026-04-06T12:32:04.685Z</time></trkpt><trkpt lat="43.8270717" lon="12.5148283"><ele>391.33333333333337</ele><time>2026-04-06T12:32:05.687Z</time></trkpt><trkpt lat="43.8270133" lon="12.5149117"><ele>390.0</ele><time>2026-04-06T12:32:06.683Z</time></trkpt><trkpt lat="43.8269567" lon="12.5149983"><ele>388.66666666666663</ele><time>2026-04-06T12:32:07.684Z</time></trkpt><trkpt lat="43.8269033" lon="12.5150933"><ele>387.3333333333333</ele><time>2026-04-06T12:32:08.684Z</time></trkpt><trkpt lat="43.8268533" lon="12.5151967"><ele>386.0</ele><time>2026-04-06T12:32:09.686Z</time></trkpt><trkpt lat="43.82681" lon="12.5153"><ele>385.49999999999994</ele><time>2026-04-06T12:32:10.685Z</time></trkpt><trkpt lat="43.826775" lon="12.5153983"><ele>385.0</ele><time>2026-04-06T12:32:11.685Z</time></trkpt><trkpt lat="43.8267433" lon="12.5154933"><ele>384.5</ele><time>2026-04-06T12:32:12.685Z</time></trkpt><trkpt lat="43.8267067" lon="12.51559"><ele>384.0</ele><time>2026-04-06T12:32:13.686Z</time></trkpt><trkpt lat="43.826665" lon="12.5156883"><ele>383.5</ele><time>2026-04-06T12:32:14.684Z</time></trkpt><trkpt lat="43.8266233" lon="12.515785"><ele>383.0</ele><time>2026-04-06T12:32:15.684Z</time></trkpt><trkpt lat="43.8265733" lon="12.5158817"><ele>382.5</ele><time>2026-04-06T12:32:16.686Z</time></trkpt><trkpt lat="43.826515" lon="12.515975"><ele>382.0</ele><time>2026-04-06T12:32:17.683Z</time></trkpt><trkpt lat="43.826445" lon="12.51606"><ele>381.5</ele><time>2026-04-06T12:32:18.686Z</time></trkpt><trkpt lat="43.8263767" lon="12.51613"><ele>381.0</ele><time>2026-04-06T12:32:19.686Z</time></trkpt><trkpt lat="43.8263067" lon="12.5162033"><ele>380.5</ele><time>2026-04-06T12:32:20.684Z</time></trkpt><trkpt lat="43.8262383" lon="12.516275"><ele>380.0</ele><time>2026-04-06T12:32:21.686Z</time></trkpt><trkpt lat="43.8261717" lon="12.5163417"><ele>379.0</ele><time>2026-04-06T12:32:22.684Z</time></trkpt><trkpt lat="43.82611" lon="12.5164033"><ele>378.0</ele><time>2026-04-06T12:32:23.683Z</time></trkpt><trkpt lat="43.8260483" lon="12.516465"><ele>377.0</ele><time>2026-04-06T12:32:24.685Z</time></trkpt><trkpt lat="43.8259917" lon="12.5165283"><ele>376.0</ele><time>2026-04-06T12:32:25.686Z</time></trkpt><trkpt lat="43.825935" lon="12.5165883"><ele>375.0</ele><time>2026-04-06T12:32:26.685Z</time></trkpt><trkpt lat="43.825885" lon="12.5166433"><ele>374.0</ele><time>2026-04-06T12:32:27.684Z</time></trkpt><trkpt lat="43.8258017" lon="12.5167417"><ele>374.0</ele><time>2026-04-06T12:32:29.687Z</time></trkpt><trkpt lat="43.82574" lon="12.5168233"><ele>374.0</ele><time>2026-04-06T12:32:31.683Z</time></trkpt><trkpt lat="43.8256883" lon="12.516915"><ele>374.0</ele><time>2026-04-06T12:32:34.685Z</time></trkpt><trkpt lat="43.8256283" lon="12.5169767"><ele>374.0</ele><time>2026-04-06T12:32:41.684Z</time></trkpt><trkpt lat="43.82557" lon="12.5170367"><ele>374.0</ele><time>2026-04-06T12:32:47.686Z</time></trkpt><trkpt lat="43.8255017" lon="12.51708"><ele>374.0</ele><time>2026-04-06T12:32:51.686Z</time></trkpt><trkpt lat="43.8254333" lon="12.5171133"><ele>373.6</ele><time>2026-04-06T12:32:53.686Z</time></trkpt><trkpt lat="43.8253267" lon="12.5171617"><ele>373.2</ele><time>2026-04-06T12:32:55.685Z</time></trkpt><trkpt lat="43.8252017" lon="12.5171833"><ele>372.8</ele><time>2026-04-06T12:32:57.685Z</time></trkpt><trkpt lat="43.825135" lon="12.5171883"><ele>372.40000000000003</ele><time>2026-04-06T12:32:58.686Z</time></trkpt><trkpt lat="43.825015" lon="12.5172017"><ele>372.0</ele><time>2026-04-06T12:33:00.686Z</time></trkpt><trkpt lat="43.8249517" lon="12.5172083"><ele>370.8571428571429</ele><time>2026-04-06T12:33:01.687Z</time></trkpt><trkpt lat="43.824885" lon="12.5172133"><ele>369.7142857142857</ele><time>2026-04-06T12:33:02.685Z</time></trkpt><trkpt lat="43.824815" lon="12.5172317"><ele>368.57142857142856</ele><time>2026-04-06T12:33:03.684Z</time></trkpt><trkpt lat="43.824745" lon="12.51726"><ele>367.42857142857144</ele><time>2026-04-06T12:33:04.686Z</time></trkpt><trkpt lat="43.8246783" lon="12.5173"><ele>366.2857142857143</ele><time>2026-04-06T12:33:05.685Z</time></trkpt><trkpt lat="43.8246133" lon="12.517335"><ele>365.14285714285717</ele><time>2026-04-06T12:33:06.684Z</time></trkpt><trkpt lat="43.82455" lon="12.51736"><ele>364.0</ele><time>2026-04-06T12:33:07.687Z</time></trkpt><trkpt lat="43.8244883" lon="12.5173783"><ele>364.0</ele><time>2026-04-06T12:33:08.686Z</time></trkpt><trkpt lat="43.8244233" lon="12.5173917"><ele>364.0</ele><time>2026-04-06T12:33:09.686Z</time></trkpt><trkpt lat="43.824355" lon="12.5173983"><ele>364.0</ele><time>2026-04-06T12:33:10.686Z</time></trkpt><trkpt lat="43.82429" lon="12.5174217"><ele>364.0</ele><time>2026-04-06T12:33:11.684Z</time></trkpt><trkpt lat="43.8242217" lon="12.5174583"><ele>364.0</ele><time>2026-04-06T12:33:12.686Z</time></trkpt><trkpt lat="43.8241467" lon="12.5174917"><ele>364.0</ele><time>2026-04-06T12:33:13.685Z</time></trkpt><trkpt lat="43.82407" lon="12.51751"><ele>364.0</ele><time>2026-04-06T12:33:14.685Z</time></trkpt><trkpt lat="43.82399" lon="12.5175183"><ele>361.4</ele><time>2026-04-06T12:33:15.685Z</time></trkpt><trkpt lat="43.8239067" lon="12.5175167"><ele>358.79999999999995</ele><time>2026-04-06T12:33:16.683Z</time></trkpt><trkpt lat="43.8238183" lon="12.5175167"><ele>356.20000000000005</ele><time>2026-04-06T12:33:17.684Z</time></trkpt><trkpt lat="43.8237217" lon="12.5175233"><ele>353.6</ele><time>2026-04-06T12:33:18.685Z</time></trkpt><trkpt lat="43.8236233" lon="12.5175367"><ele>351.0</ele><time>2026-04-06T12:33:19.685Z</time></trkpt><trkpt lat="43.8235267" lon="12.51755"><ele>349.4</ele><time>2026-04-06T12:33:20.685Z</time></trkpt><trkpt lat="43.82343" lon="12.517565"><ele>347.8</ele><time>2026-04-06T12:33:21.689Z</time></trkpt><trkpt lat="43.82333" lon="12.5175783"><ele>346.2</ele><time>2026-04-06T12:33:22.684Z</time></trkpt><trkpt lat="43.823225" lon="12.5175867"><ele>344.59999999999997</ele><time>2026-04-06T12:33:23.686Z</time></trkpt><trkpt lat="43.8231217" lon="12.5175933"><ele>343.0</ele><time>2026-04-06T12:33:24.686Z</time></trkpt><trkpt lat="43.8230233" lon="12.5175983"><ele>343.0</ele><time>2026-04-06T12:33:25.684Z</time></trkpt><trkpt lat="43.82293" lon="12.517595"><ele>343.0</ele><time>2026-04-06T12:33:26.685Z</time></trkpt><trkpt lat="43.8228467" lon="12.5175967"><ele>343.0</ele><time>2026-04-06T12:33:27.685Z</time></trkpt><trkpt lat="43.8227717" lon="12.5176117"><ele>343.0</ele><time>2026-04-06T12:33:28.686Z</time></trkpt><trkpt lat="43.8227117" lon="12.5176417"><ele>343.0</ele><time>2026-04-06T12:33:29.684Z</time></trkpt><trkpt lat="43.8226067" lon="12.5177367"><ele>343.0</ele><time>2026-04-06T12:33:31.687Z</time></trkpt><trkpt lat="43.8225567" lon="12.5178217"><ele>342.3333333333333</ele><time>2026-04-06T12:33:32.685Z</time></trkpt><trkpt lat="43.8225083" lon="12.517915"><ele>341.66666666666663</ele><time>2026-04-06T12:33:33.684Z</time></trkpt><trkpt lat="43.8224617" lon="12.5180067"><ele>341.0</ele><time>2026-04-06T12:33:34.686Z</time></trkpt><trkpt lat="43.8224083" lon="12.5180983"><ele>340.3333333333333</ele><time>2026-04-06T12:33:35.686Z</time></trkpt><trkpt lat="43.8223383" lon="12.5181883"><ele>339.6666666666667</ele><time>2026-04-06T12:33:36.686Z</time></trkpt><trkpt lat="43.822265" lon="12.5182833"><ele>339.0</ele><time>2026-04-06T12:33:37.685Z</time></trkpt><trkpt lat="43.8221883" lon="12.51838"><ele>339.0</ele><time>2026-04-06T12:33:38.686Z</time></trkpt><trkpt lat="43.8221117" lon="12.5184767"><ele>339.0</ele><time>2026-04-06T12:33:39.683Z</time></trkpt><trkpt lat="43.8220433" lon="12.518575"><ele>339.0</ele><time>2026-04-06T12:33:40.686Z</time></trkpt><trkpt lat="43.8219867" lon="12.5186667"><ele>339.0</ele><time>2026-04-06T12:33:41.686Z</time></trkpt><trkpt lat="43.8219417" lon="12.5187567"><ele>339.0</ele><time>2026-04-06T12:33:42.685Z</time></trkpt><trkpt lat="43.8219033" lon="12.5188533"><ele>339.0</ele><time>2026-04-06T12:33:43.686Z</time></trkpt><trkpt lat="43.821865" lon="12.5189517"><ele>336.6666666666667</ele><time>2026-04-06T12:33:44.685Z</time></trkpt><trkpt lat="43.8218183" lon="12.5190483"><ele>334.3333333333333</ele><time>2026-04-06T12:33:45.686Z</time></trkpt><trkpt lat="43.8217633" lon="12.5191333"><ele>332.0</ele><time>2026-04-06T12:33:46.684Z</time></trkpt><trkpt lat="43.8217017" lon="12.5192217"><ele>329.66666666666663</ele><time>2026-04-06T12:33:47.682Z</time></trkpt><trkpt lat="43.8216417" lon="12.5193133"><ele>327.3333333333333</ele><time>2026-04-06T12:33:48.684Z</time></trkpt><trkpt lat="43.8215817" lon="12.5194033"><ele>325.0</ele><time>2026-04-06T12:33:49.686Z</time></trkpt><trkpt lat="43.8215233" lon="12.5194883"><ele>324.6</ele><time>2026-04-06T12:33:50.683Z</time></trkpt><trkpt lat="43.8214567" lon="12.5195667"><ele>324.2</ele><time>2026-04-06T12:33:51.684Z</time></trkpt><trkpt lat="43.82138" lon="12.5196283"><ele>323.79999999999995</ele><time>2026-04-06T12:33:52.683Z</time></trkpt><trkpt lat="43.821295" lon="12.519685"><ele>323.4</ele><time>2026-04-06T12:33:53.688Z</time></trkpt><trkpt lat="43.8212083" lon="12.51974"><ele>323.0</ele><time>2026-04-06T12:33:54.685Z</time></trkpt><trkpt lat="43.821115" lon="12.5198017"><ele>321.0</ele><time>2026-04-06T12:33:55.686Z</time></trkpt><trkpt lat="43.8210217" lon="12.51987"><ele>319.0</ele><time>2026-04-06T12:33:56.686Z</time></trkpt><trkpt lat="43.82093" lon="12.5199433"><ele>317.0</ele><time>2026-04-06T12:33:57.684Z</time></trkpt><trkpt lat="43.8208383" lon="12.5200167"><ele>315.0</ele><time>2026-04-06T12:33:58.686Z</time></trkpt><trkpt lat="43.82075" lon="12.520085"><ele>313.0</ele><time>2026-04-06T12:33:59.685Z</time></trkpt><trkpt lat="43.8206667" lon="12.5201417"><ele>311.5</ele><time>2026-04-06T12:34:00.686Z</time></trkpt><trkpt lat="43.8205933" lon="12.52019"><ele>310.0</ele><time>2026-04-06T12:34:01.688Z</time></trkpt><trkpt lat="43.820525" lon="12.520235"><ele>308.5</ele><time>2026-04-06T12:34:02.685Z</time></trkpt><trkpt lat="43.8204617" lon="12.52028"><ele>307.0</ele><time>2026-04-06T12:34:03.686Z</time></trkpt><trkpt lat="43.8204017" lon="12.520335"><ele>305.5</ele><time>2026-04-06T12:34:04.683Z</time></trkpt><trkpt lat="43.8203467" lon="12.520405"><ele>304.0</ele><time>2026-04-06T12:34:05.684Z</time></trkpt><trkpt lat="43.8202883" lon="12.5204867"><ele>302.4</ele><time>2026-04-06T12:34:06.686Z</time></trkpt><trkpt lat="43.8202217" lon="12.5205733"><ele>300.79999999999995</ele><time>2026-04-06T12:34:07.687Z</time></trkpt><trkpt lat="43.82014" lon="12.5206533"><ele>299.20000000000005</ele><time>2026-04-06T12:34:08.684Z</time></trkpt><trkpt lat="43.8200583" lon="12.5207233"><ele>297.6</ele><time>2026-04-06T12:34:09.683Z</time></trkpt><trkpt lat="43.819985" lon="12.5207967"><ele>296.0</ele><time>2026-04-06T12:34:10.684Z</time></trkpt><trkpt lat="43.8199133" lon="12.520865"><ele>294.6666666666667</ele><time>2026-04-06T12:34:11.687Z</time></trkpt><trkpt lat="43.8198467" lon="12.5209383"><ele>293.33333333333337</ele><time>2026-04-06T12:34:12.687Z</time></trkpt><trkpt lat="43.8197867" lon="12.5210183"><ele>292.0</ele><time>2026-04-06T12:34:13.686Z</time></trkpt><trkpt lat="43.8197367" lon="12.521105"><ele>290.6666666666667</ele><time>2026-04-06T12:34:14.682Z</time></trkpt><trkpt lat="43.8196983" lon="12.521195"><ele>289.3333333333333</ele><time>2026-04-06T12:34:15.686Z</time></trkpt><trkpt lat="43.8196667" lon="12.5212917"><ele>288.0</ele><time>2026-04-06T12:34:16.684Z</time></trkpt><trkpt lat="43.81964" lon="12.521395"><ele>287.3333333333333</ele><time>2026-04-06T12:34:17.684Z</time></trkpt><trkpt lat="43.8196133" lon="12.5215067"><ele>286.6666666666667</ele><time>2026-04-06T12:34:18.684Z</time></trkpt><trkpt lat="43.81959" lon="12.5216183"><ele>286.0</ele><time>2026-04-06T12:34:19.685Z</time></trkpt><trkpt lat="43.8195733" lon="12.5217283"><ele>285.33333333333337</ele><time>2026-04-06T12:34:20.683Z</time></trkpt><trkpt lat="43.81957" lon="12.5218367"><ele>284.6666666666667</ele><time>2026-04-06T12:34:21.683Z</time></trkpt><trkpt lat="43.8195783" lon="12.521945"><ele>284.0</ele><time>2026-04-06T12:34:22.686Z</time></trkpt><trkpt lat="43.8195983" lon="12.5220483"><ele>282.33333333333337</ele><time>2026-04-06T12:34:23.688Z</time></trkpt><trkpt lat="43.8196167" lon="12.52215"><ele>280.6666666666667</ele><time>2026-04-06T12:34:24.685Z</time></trkpt><trkpt lat="43.8196267" lon="12.5222467"><ele>279.0</ele><time>2026-04-06T12:34:25.686Z</time></trkpt><trkpt lat="43.8196317" lon="12.522345"><ele>277.3333333333333</ele><time>2026-04-06T12:34:26.685Z</time></trkpt><trkpt lat="43.819625" lon="12.5224417"><ele>275.66666666666663</ele><time>2026-04-06T12:34:27.683Z</time></trkpt><trkpt lat="43.8196067" lon="12.5225317"><ele>274.0</ele><time>2026-04-06T12:34:28.686Z</time></trkpt><trkpt lat="43.8195567" lon="12.52266"><ele>274.0</ele><time>2026-04-06T12:34:30.686Z</time></trkpt><trkpt lat="43.8194933" lon="12.522715"><ele>274.0</ele><time>2026-04-06T12:34:32.684Z</time></trkpt><trkpt lat="43.8194033" lon="12.522655"><ele>274.0</ele><time>2026-04-06T12:34:34.684Z</time></trkpt><trkpt lat="43.819345" lon="12.5225917"><ele>274.0</ele><time>2026-04-06T12:34:35.683Z</time></trkpt><trkpt lat="43.8192933" lon="12.522535"><ele>274.0</ele><time>2026-04-06T12:34:36.686Z</time></trkpt><trkpt lat="43.8192183" lon="12.5224567"><ele>274.0</ele><time>2026-04-06T12:34:38.683Z</time></trkpt><trkpt lat="43.81917" lon="12.5223583"><ele>273.66666666666663</ele><time>2026-04-06T12:34:46.685Z</time></trkpt><trkpt lat="43.8191367" lon="12.5222583"><ele>273.3333333333333</ele><time>2026-04-06T12:34:48.686Z</time></trkpt><trkpt lat="43.8190833" lon="12.52213"><ele>273.0</ele><time>2026-04-06T12:34:50.683Z</time></trkpt><trkpt lat="43.8190267" lon="12.52198"><ele>272.6666666666667</ele><time>2026-04-06T12:34:52.687Z</time></trkpt><trkpt lat="43.8189883" lon="12.5219017"><ele>272.33333333333337</ele><time>2026-04-06T12:34:53.685Z</time></trkpt><trkpt lat="43.8189567" lon="12.5218217"><ele>272.0</ele><time>2026-04-06T12:34:54.686Z</time></trkpt><trkpt lat="43.8189233" lon="12.52174"><ele>271.99999999999994</ele><time>2026-04-06T12:34:55.686Z</time></trkpt><trkpt lat="43.81889" lon="12.5216567"><ele>272.0</ele><time>2026-04-06T12:34:56.684Z</time></trkpt><trkpt lat="43.8188533" lon="12.5215717"><ele>272.0</ele><time>2026-04-06T12:34:57.682Z</time></trkpt><trkpt lat="43.818815" lon="12.5214883"><ele>272.0</ele><time>2026-04-06T12:34:58.683Z</time></trkpt><trkpt lat="43.818775" lon="12.5214067"><ele>272.0</ele><time>2026-04-06T12:34:59.684Z</time></trkpt><trkpt lat="43.8187367" lon="12.52133"><ele>271.99999999999994</ele><time>2026-04-06T12:35:00.686Z</time></trkpt><trkpt lat="43.8187017" lon="12.5212517"><ele>272.0</ele><time>2026-04-06T12:35:01.684Z</time></trkpt><trkpt lat="43.818665" lon="12.5211717"><ele>271.99999999999994</ele><time>2026-04-06T12:35:02.686Z</time></trkpt><trkpt lat="43.8186283" lon="12.5210933"><ele>272.0</ele><time>2026-04-06T12:35:03.684Z</time></trkpt><trkpt lat="43.8185933" lon="12.521015"><ele>272.0</ele><time>2026-04-06T12:35:04.688Z</time></trkpt><trkpt lat="43.81855" lon="12.5209333"><ele>272.0</ele><time>2026-04-06T12:35:05.685Z</time></trkpt><trkpt lat="43.8185083" lon="12.52085"><ele>272.0</ele><time>2026-04-06T12:35:06.686Z</time></trkpt><trkpt lat="43.8184683" lon="12.5207667"><ele>271.99999999999994</ele><time>2026-04-06T12:35:07.684Z</time></trkpt><trkpt lat="43.8184283" lon="12.5206833"><ele>272.0</ele><time>2026-04-06T12:35:08.682Z</time></trkpt><trkpt lat="43.81839" lon="12.5206033"><ele>269.2857142857143</ele><time>2026-04-06T12:35:09.683Z</time></trkpt><trkpt lat="43.818355" lon="12.5205183"><ele>266.57142857142856</ele><time>2026-04-06T12:35:10.686Z</time></trkpt><trkpt lat="43.8183183" lon="12.52044"><ele>263.8571428571429</ele><time>2026-04-06T12:35:11.685Z</time></trkpt><trkpt lat="43.8182783" lon="12.5203617"><ele>261.1428571428571</ele><time>2026-04-06T12:35:12.684Z</time></trkpt><trkpt lat="43.8182367" lon="12.5202883"><ele>258.42857142857144</ele><time>2026-04-06T12:35:13.686Z</time></trkpt><trkpt lat="43.8181883" lon="12.5202233"><ele>255.71428571428575</ele><time>2026-04-06T12:35:14.686Z</time></trkpt><trkpt lat="43.8181367" lon="12.5201617"><ele>253.00000000000003</ele><time>2026-04-06T12:35:15.685Z</time></trkpt><trkpt lat="43.8180867" lon="12.5201017"><ele>252.14285714285717</ele><time>2026-04-06T12:35:16.684Z</time></trkpt><trkpt lat="43.81804" lon="12.5200333"><ele>251.28571428571428</ele><time>2026-04-06T12:35:17.683Z</time></trkpt><trkpt lat="43.8179917" lon="12.51996"><ele>250.42857142857144</ele><time>2026-04-06T12:35:18.684Z</time></trkpt><trkpt lat="43.8179383" lon="12.5198883"><ele>249.57142857142858</ele><time>2026-04-06T12:35:19.687Z</time></trkpt><trkpt lat="43.8178867" lon="12.5198183"><ele>248.71428571428572</ele><time>2026-04-06T12:35:20.685Z</time></trkpt><trkpt lat="43.817815" lon="12.5197217"><ele>247.85714285714286</ele><time>2026-04-06T12:35:22.686Z</time></trkpt><trkpt lat="43.8177717" lon="12.5196583"><ele>247.0</ele><time>2026-04-06T12:35:24.685Z</time></trkpt><trkpt lat="43.8177183" lon="12.5195533"><ele>245.2</ele><time>2026-04-06T12:35:27.683Z</time></trkpt><trkpt lat="43.8176617" lon="12.5194967"><ele>243.39999999999998</ele><time>2026-04-06T12:35:29.686Z</time></trkpt><trkpt lat="43.8175783" lon="12.5194483"><ele>241.60000000000002</ele><time>2026-04-06T12:35:31.685Z</time></trkpt><trkpt lat="43.8174733" lon="12.5193767"><ele>239.8</ele><time>2026-04-06T12:35:33.685Z</time></trkpt><trkpt lat="43.8173633" lon="12.5193017"><ele>238.0</ele><time>2026-04-06T12:35:35.688Z</time></trkpt><trkpt lat="43.817255" lon="12.519255"><ele>236.66666666666666</ele><time>2026-04-06T12:35:37.685Z</time></trkpt><trkpt lat="43.817135" lon="12.5192367"><ele>235.33333333333331</ele><time>2026-04-06T12:35:39.684Z</time></trkpt><trkpt lat="43.8170133" lon="12.51924"><ele>234.0</ele><time>2026-04-06T12:35:41.686Z</time></trkpt><trkpt lat="43.8169483" lon="12.51925"><ele>232.66666666666669</ele><time>2026-04-06T12:35:42.686Z</time></trkpt><trkpt lat="43.81688" lon="12.519265"><ele>231.33333333333334</ele><time>2026-04-06T12:35:43.686Z</time></trkpt><trkpt lat="43.8168117" lon="12.51928"><ele>230.0</ele><time>2026-04-06T12:35:44.685Z</time></trkpt><trkpt lat="43.816745" lon="12.5193"><ele>227.99999999999997</ele><time>2026-04-06T12:35:45.685Z</time></trkpt><trkpt lat="43.8166717" lon="12.5193283"><ele>226.0</ele><time>2026-04-06T12:35:46.685Z</time></trkpt><trkpt lat="43.8166" lon="12.5193617"><ele>224.0</ele><time>2026-04-06T12:35:47.686Z</time></trkpt><trkpt lat="43.8165283" lon="12.5193967"><ele>222.0</ele><time>2026-04-06T12:35:48.686Z</time></trkpt><trkpt lat="43.8164583" lon="12.519435"><ele>220.0</ele><time>2026-04-06T12:35:49.686Z</time></trkpt><trkpt lat="43.81639" lon="12.5194717"><ele>218.0</ele><time>2026-04-06T12:35:50.687Z</time></trkpt><trkpt lat="43.8163267" lon="12.5195067"><ele>216.0</ele><time>2026-04-06T12:35:51.686Z</time></trkpt><trkpt lat="43.8162667" lon="12.5195333"><ele>216.0</ele><time>2026-04-06T12:35:52.686Z</time></trkpt><trkpt lat="43.8162067" lon="12.5195617"><ele>216.0</ele><time>2026-04-06T12:35:53.686Z</time></trkpt><trkpt lat="43.81615" lon="12.5196017"><ele>216.0</ele><time>2026-04-06T12:35:54.685Z</time></trkpt><trkpt lat="43.8160283" lon="12.5196483"><ele>216.0</ele><time>2026-04-06T12:35:56.686Z</time></trkpt><trkpt lat="43.8159533" lon="12.51965"><ele>216.0</ele><time>2026-04-06T12:35:57.686Z</time></trkpt><trkpt lat="43.8158667" lon="12.5196483"><ele>216.0</ele><time>2026-04-06T12:35:58.684Z</time></trkpt><trkpt lat="43.8157717" lon="12.5196417"><ele>213.5</ele><time>2026-04-06T12:35:59.686Z</time></trkpt><trkpt lat="43.8156817" lon="12.5196367"><ele>211.0</ele><time>2026-04-06T12:36:00.683Z</time></trkpt><trkpt lat="43.8156" lon="12.5196317"><ele>208.5</ele><time>2026-04-06T12:36:01.686Z</time></trkpt><trkpt lat="43.8155233" lon="12.519625"><ele>206.0</ele><time>2026-04-06T12:36:02.686Z</time></trkpt><trkpt lat="43.815455" lon="12.5196183"><ele>203.5</ele><time>2026-04-06T12:36:03.683Z</time></trkpt><trkpt lat="43.8153867" lon="12.5196083"><ele>201.0</ele><time>2026-04-06T12:36:04.684Z</time></trkpt><trkpt lat="43.8153183" lon="12.5195917"><ele>201.42857142857142</ele><time>2026-04-06T12:36:05.685Z</time></trkpt><trkpt lat="43.81525" lon="12.5195633"><ele>201.85714285714286</ele><time>2026-04-06T12:36:06.684Z</time></trkpt><trkpt lat="43.8151833" lon="12.5195233"><ele>202.28571428571428</ele><time>2026-04-06T12:36:07.687Z</time></trkpt><trkpt lat="43.8151183" lon="12.5194767"><ele>202.71428571428572</ele><time>2026-04-06T12:36:08.685Z</time></trkpt><trkpt lat="43.815055" lon="12.5194167"><ele>203.14285714285717</ele><time>2026-04-06T12:36:09.683Z</time></trkpt><trkpt lat="43.8149917" lon="12.5193533"><ele>203.57142857142858</ele><time>2026-04-06T12:36:10.686Z</time></trkpt><trkpt lat="43.81493" lon="12.519295"><ele>204.0</ele><time>2026-04-06T12:36:11.686Z</time></trkpt><trkpt lat="43.8148733" lon="12.5192383"><ele>201.83333333333334</ele><time>2026-04-06T12:36:12.684Z</time></trkpt><trkpt lat="43.8148217" lon="12.5191783"><ele>199.66666666666666</ele><time>2026-04-06T12:36:13.687Z</time></trkpt><trkpt lat="43.814775" lon="12.519115"><ele>197.5</ele><time>2026-04-06T12:36:14.684Z</time></trkpt><trkpt lat="43.8147367" lon="12.519045"><ele>195.33333333333331</ele><time>2026-04-06T12:36:15.685Z</time></trkpt><trkpt lat="43.8146933" lon="12.518905"><ele>193.16666666666666</ele><time>2026-04-06T12:36:17.686Z</time></trkpt><trkpt lat="43.8146567" lon="12.5187817"><ele>191.0</ele><time>2026-04-06T12:36:19.687Z</time></trkpt><trkpt lat="43.8145983" lon="12.51867"><ele>190.16666666666666</ele><time>2026-04-06T12:36:21.686Z</time></trkpt><trkpt lat="43.8145483" lon="12.5185633"><ele>189.33333333333331</ele><time>2026-04-06T12:36:23.687Z</time></trkpt><trkpt lat="43.8145317" lon="12.518455"><ele>188.5</ele><time>2026-04-06T12:36:25.687Z</time></trkpt><trkpt lat="43.8145233" lon="12.518315"><ele>187.66666666666666</ele><time>2026-04-06T12:36:27.684Z</time></trkpt><trkpt lat="43.8145133" lon="12.51819"><ele>186.83333333333334</ele><time>2026-04-06T12:36:29.685Z</time></trkpt><trkpt lat="43.8144867" lon="12.5180783"><ele>186.0</ele><time>2026-04-06T12:36:31.686Z</time></trkpt><trkpt lat="43.8144667" lon="12.51798"><ele>184.8</ele><time>2026-04-06T12:36:33.686Z</time></trkpt><trkpt lat="43.814445" lon="12.5178883"><ele>183.60000000000002</ele><time>2026-04-06T12:36:35.686Z</time></trkpt><trkpt lat="43.8144133" lon="12.5177483"><ele>182.4</ele><time>2026-04-06T12:36:37.686Z</time></trkpt><trkpt lat="43.8143883" lon="12.5176383"><ele>181.2</ele><time>2026-04-06T12:36:38.685Z</time></trkpt><trkpt lat="43.81436" lon="12.5175033"><ele>180.0</ele><time>2026-04-06T12:36:39.683Z</time></trkpt><trkpt lat="43.8143217" lon="12.5173383"><ele>178.66666666666666</ele><time>2026-04-06T12:36:40.686Z</time></trkpt><trkpt lat="43.8142767" lon="12.5171483"><ele>177.33333333333331</ele><time>2026-04-06T12:36:41.683Z</time></trkpt><trkpt lat="43.8142283" lon="12.516945"><ele>176.0</ele><time>2026-04-06T12:36:42.685Z</time></trkpt><trkpt lat="43.8141767" lon="12.5167333"><ele>176.0</ele><time>2026-04-06T12:36:43.686Z</time></trkpt><trkpt lat="43.8141267" lon="12.5165183"><ele>176.0</ele><time>2026-04-06T12:36:44.685Z</time></trkpt><trkpt lat="43.8140783" lon="12.5162983"><ele>176.0</ele><time>2026-04-06T12:36:45.686Z</time></trkpt><trkpt lat="43.81403" lon="12.516075"><ele>177.0</ele><time>2026-04-06T12:36:46.684Z</time></trkpt><trkpt lat="43.81398" lon="12.5158467"><ele>178.0</ele><time>2026-04-06T12:36:47.681Z</time></trkpt><trkpt lat="43.8139283" lon="12.5156117"><ele>179.0</ele><time>2026-04-06T12:36:48.684Z</time></trkpt><trkpt lat="43.81387" lon="12.515375"><ele>180.0</ele><time>2026-04-06T12:36:49.687Z</time></trkpt><trkpt lat="43.81381" lon="12.515135"><ele>181.0</ele><time>2026-04-06T12:36:50.684Z</time></trkpt><trkpt lat="43.81375" lon="12.5148867"><ele>182.0</ele><time>2026-04-06T12:36:51.684Z</time></trkpt><trkpt lat="43.8136917" lon="12.514635"><ele>182.66666666666666</ele><time>2026-04-06T12:36:52.685Z</time></trkpt><trkpt lat="43.8136317" lon="12.51438"><ele>183.33333333333334</ele><time>2026-04-06T12:36:53.686Z</time></trkpt><trkpt lat="43.8135717" lon="12.51412"><ele>184.0</ele><time>2026-04-06T12:36:54.685Z</time></trkpt><trkpt lat="43.813515" lon="12.5138567"><ele>179.66666666666669</ele><time>2026-04-06T12:36:55.685Z</time></trkpt><trkpt lat="43.8134567" lon="12.51359"><ele>175.33333333333334</ele><time>2026-04-06T12:36:56.684Z</time></trkpt><trkpt lat="43.8133983" lon="12.5133167"><ele>171.0</ele><time>2026-04-06T12:36:57.683Z</time></trkpt><trkpt lat="43.8133367" lon="12.5130433"><ele>172.33333333333334</ele><time>2026-04-06T12:36:58.685Z</time></trkpt><trkpt lat="43.8132733" lon="12.5127833"><ele>173.66666666666669</ele><time>2026-04-06T12:36:59.685Z</time></trkpt><trkpt lat="43.81321" lon="12.5125367"><ele>175.0</ele><time>2026-04-06T12:37:00.684Z</time></trkpt><trkpt lat="43.81314" lon="12.5123033"><ele>175.0</ele><time>2026-04-06T12:37:01.687Z</time></trkpt><trkpt lat="43.8130517" lon="12.5120817"><ele>175.0</ele><time>2026-04-06T12:37:02.681Z</time></trkpt><trkpt lat="43.812945" lon="12.5118733"><ele>175.0</ele><time>2026-04-06T12:37:03.684Z</time></trkpt><trkpt lat="43.8128217" lon="12.5116867"><ele>176.33333333333334</ele><time>2026-04-06T12:37:04.684Z</time></trkpt><trkpt lat="43.8126817" lon="12.51153"><ele>177.66666666666666</ele><time>2026-04-06T12:37:05.683Z</time></trkpt><trkpt lat="43.812525" lon="12.511395"><ele>179.0</ele><time>2026-04-06T12:37:06.683Z</time></trkpt><trkpt lat="43.8123533" lon="12.5112867"><ele>177.33333333333331</ele><time>2026-04-06T12:37:07.685Z</time></trkpt><trkpt lat="43.812165" lon="12.5112"><ele>175.66666666666666</ele><time>2026-04-06T12:37:08.683Z</time></trkpt><trkpt lat="43.81197" lon="12.5111317"><ele>174.0</ele><time>2026-04-06T12:37:09.683Z</time></trkpt><trkpt lat="43.8117733" lon="12.5110717"><ele>174.0</ele><time>2026-04-06T12:37:10.686Z</time></trkpt><trkpt lat="43.8115733" lon="12.5110083"><ele>174.0</ele><time>2026-04-06T12:37:11.684Z</time></trkpt><trkpt lat="43.8113817" lon="12.5109383"><ele>174.0</ele><time>2026-04-06T12:37:12.685Z</time></trkpt><trkpt lat="43.811205" lon="12.5108583"><ele>174.0</ele><time>2026-04-06T12:37:13.687Z</time></trkpt><trkpt lat="43.8110417" lon="12.51077"><ele>174.0</ele><time>2026-04-06T12:37:14.684Z</time></trkpt><trkpt lat="43.810895" lon="12.5106683"><ele>174.0</ele><time>2026-04-06T12:37:15.684Z</time></trkpt><trkpt lat="43.8107567" lon="12.5105567"><ele>173.66666666666666</ele><time>2026-04-06T12:37:16.683Z</time></trkpt><trkpt lat="43.8106167" lon="12.51044"><ele>173.33333333333331</ele><time>2026-04-06T12:37:17.685Z</time></trkpt><trkpt lat="43.8104833" lon="12.510325"><ele>173.0</ele><time>2026-04-06T12:37:18.685Z</time></trkpt><trkpt lat="43.8103517" lon="12.510215"><ele>173.75</ele><time>2026-04-06T12:37:19.684Z</time></trkpt><trkpt lat="43.81023" lon="12.5101083"><ele>174.5</ele><time>2026-04-06T12:37:20.683Z</time></trkpt><trkpt lat="43.810115" lon="12.510005"><ele>175.25</ele><time>2026-04-06T12:37:21.683Z</time></trkpt><trkpt lat="43.81" lon="12.5099033"><ele>176.0</ele><time>2026-04-06T12:37:22.686Z</time></trkpt><trkpt lat="43.8098883" lon="12.5097967"><ele>176.0</ele><time>2026-04-06T12:37:23.684Z</time></trkpt><trkpt lat="43.8097783" lon="12.50969"><ele>176.0</ele><time>2026-04-06T12:37:24.685Z</time></trkpt><trkpt lat="43.8096617" lon="12.5095867"><ele>176.0</ele><time>2026-04-06T12:37:25.686Z</time></trkpt><trkpt lat="43.809545" lon="12.50948"><ele>176.0</ele><time>2026-04-06T12:37:26.685Z</time></trkpt><trkpt lat="43.809425" lon="12.50938"><ele>175.75</ele><time>2026-04-06T12:37:27.684Z</time></trkpt><trkpt lat="43.8093017" lon="12.5092767"><ele>175.5</ele><time>2026-04-06T12:37:28.683Z</time></trkpt><trkpt lat="43.80918" lon="12.5091717"><ele>175.25</ele><time>2026-04-06T12:37:29.687Z</time></trkpt><trkpt lat="43.8090683" lon="12.5090583"><ele>175.0</ele><time>2026-04-06T12:37:30.685Z</time></trkpt><trkpt lat="43.808965" lon="12.5089317"><ele>175.0</ele><time>2026-04-06T12:37:31.685Z</time></trkpt><trkpt lat="43.8088767" lon="12.5087883"><ele>175.0</ele><time>2026-04-06T12:37:32.685Z</time></trkpt><trkpt lat="43.8088" lon="12.508635"><ele>175.0</ele><time>2026-04-06T12:37:33.682Z</time></trkpt><trkpt lat="43.8087367" lon="12.5084733"><ele>175.0</ele><time>2026-04-06T12:37:34.683Z</time></trkpt><trkpt lat="43.8086917" lon="12.5083017"><ele>178.0</ele><time>2026-04-06T12:37:35.684Z</time></trkpt><trkpt lat="43.80867" lon="12.5081183"><ele>181.0</ele><time>2026-04-06T12:37:36.684Z</time></trkpt><trkpt lat="43.8086583" lon="12.507925"><ele>184.0</ele><time>2026-04-06T12:37:37.685Z</time></trkpt><trkpt lat="43.8086633" lon="12.507715"><ele>187.0</ele><time>2026-04-06T12:37:38.681Z</time></trkpt><trkpt lat="43.80867" lon="12.5074917"><ele>188.66666666666669</ele><time>2026-04-06T12:37:39.683Z</time></trkpt><trkpt lat="43.80868" lon="12.5072533"><ele>190.33333333333334</ele><time>2026-04-06T12:37:40.684Z</time></trkpt><trkpt lat="43.80869" lon="12.506995"><ele>192.0</ele><time>2026-04-06T12:37:41.687Z</time></trkpt><trkpt lat="43.8087" lon="12.5067267"><ele>192.0</ele><time>2026-04-06T12:37:42.689Z</time></trkpt><trkpt lat="43.8087067" lon="12.5064567"><ele>192.0</ele><time>2026-04-06T12:37:43.686Z</time></trkpt><trkpt lat="43.808715" lon="12.506185"><ele>192.0</ele><time>2026-04-06T12:37:44.68Z</time></trkpt><trkpt lat="43.80872" lon="12.5059117"><ele>191.66666666666666</ele><time>2026-04-06T12:37:45.686Z</time></trkpt><trkpt lat="43.808725" lon="12.505635"><ele>191.33333333333331</ele><time>2026-04-06T12:37:46.683Z</time></trkpt><trkpt lat="43.8087367" lon="12.5053567"><ele>191.0</ele><time>2026-04-06T12:37:47.683Z</time></trkpt><trkpt lat="43.8087483" lon="12.5050767"><ele>192.33333333333331</ele><time>2026-04-06T12:37:48.683Z</time></trkpt><trkpt lat="43.8087617" lon="12.5048067"><ele>193.66666666666666</ele><time>2026-04-06T12:37:49.683Z</time></trkpt><trkpt lat="43.8087717" lon="12.5045467"><ele>195.0</ele><time>2026-04-06T12:37:50.685Z</time></trkpt><trkpt lat="43.8087833" lon="12.5043"><ele>196.0</ele><time>2026-04-06T12:37:51.684Z</time></trkpt><trkpt lat="43.808795" lon="12.5040533"><ele>197.0</ele><time>2026-04-06T12:37:52.684Z</time></trkpt><trkpt lat="43.8088033" lon="12.503805"><ele>198.0</ele><time>2026-04-06T12:37:53.682Z</time></trkpt><trkpt lat="43.8088083" lon="12.50356"><ele>198.0</ele><time>2026-04-06T12:37:54.685Z</time></trkpt><trkpt lat="43.8088067" lon="12.5033217"><ele>198.0</ele><time>2026-04-06T12:37:55.686Z</time></trkpt><trkpt lat="43.8087833" lon="12.5030983"><ele>198.0</ele><time>2026-04-06T12:37:56.684Z</time></trkpt><trkpt lat="43.8087333" lon="12.5028833"><ele>199.33333333333331</ele><time>2026-04-06T12:37:57.682Z</time></trkpt><trkpt lat="43.808655" lon="12.5026783"><ele>200.66666666666666</ele><time>2026-04-06T12:37:58.683Z</time></trkpt><trkpt lat="43.8085483" lon="12.5024917"><ele>202.0</ele><time>2026-04-06T12:37:59.681Z</time></trkpt><trkpt lat="43.80842" lon="12.50232"><ele>198.33333333333331</ele><time>2026-04-06T12:38:00.684Z</time></trkpt><trkpt lat="43.8082867" lon="12.5021467"><ele>194.66666666666666</ele><time>2026-04-06T12:38:01.686Z</time></trkpt><trkpt lat="43.8081533" lon="12.501965"><ele>191.0</ele><time>2026-04-06T12:38:02.683Z</time></trkpt><trkpt lat="43.8080167" lon="12.5017817"><ele>191.0</ele><time>2026-04-06T12:38:03.684Z</time></trkpt><trkpt lat="43.80788" lon="12.501605"><ele>191.0</ele><time>2026-04-06T12:38:04.684Z</time></trkpt><trkpt lat="43.8077367" lon="12.5014383"><ele>191.0</ele><time>2026-04-06T12:38:05.685Z</time></trkpt><trkpt lat="43.8075833" lon="12.5012883"><ele>193.33333333333331</ele><time>2026-04-06T12:38:06.683Z</time></trkpt><trkpt lat="43.8074217" lon="12.501155"><ele>195.66666666666666</ele><time>2026-04-06T12:38:07.685Z</time></trkpt><trkpt lat="43.8072467" lon="12.5010533"><ele>198.0</ele><time>2026-04-06T12:38:08.683Z</time></trkpt><trkpt lat="43.8070667" lon="12.5009767"><ele>198.0</ele><time>2026-04-06T12:38:09.683Z</time></trkpt><trkpt lat="43.8068817" lon="12.5009217"><ele>198.0</ele><time>2026-04-06T12:38:10.684Z</time></trkpt><trkpt lat="43.8066983" lon="12.500885"><ele>198.0</ele><time>2026-04-06T12:38:11.687Z</time></trkpt><trkpt lat="43.80651" lon="12.50087"><ele>195.33333333333334</ele><time>2026-04-06T12:38:12.685Z</time></trkpt><trkpt lat="43.8063183" lon="12.5008667"><ele>192.66666666666669</ele><time>2026-04-06T12:38:13.686Z</time></trkpt><trkpt lat="43.8061283" lon="12.5008683"><ele>190.0</ele><time>2026-04-06T12:38:14.684Z</time></trkpt><trkpt lat="43.80595" lon="12.5008667"><ele>188.66666666666669</ele><time>2026-04-06T12:38:15.684Z</time></trkpt><trkpt lat="43.8057767" lon="12.5008517"><ele>187.33333333333334</ele><time>2026-04-06T12:38:16.683Z</time></trkpt><trkpt lat="43.8056" lon="12.5008083"><ele>186.0</ele><time>2026-04-06T12:38:17.685Z</time></trkpt><trkpt lat="43.8054217" lon="12.5007383"><ele>186.0</ele><time>2026-04-06T12:38:18.685Z</time></trkpt><trkpt lat="43.8052467" lon="12.5006617"><ele>186.0</ele><time>2026-04-06T12:38:19.686Z</time></trkpt><trkpt lat="43.805065" lon="12.5005833"><ele>186.0</ele><time>2026-04-06T12:38:20.685Z</time></trkpt><trkpt lat="43.8048917" lon="12.500505"><ele>184.66666666666666</ele><time>2026-04-06T12:38:21.684Z</time></trkpt><trkpt lat="43.8047233" lon="12.5004333"><ele>183.33333333333331</ele><time>2026-04-06T12:38:22.687Z</time></trkpt><trkpt lat="43.8045533" lon="12.5003517"><ele>182.0</ele><time>2026-04-06T12:38:23.685Z</time></trkpt><trkpt lat="43.8043867" lon="12.5002633"><ele>184.33333333333331</ele><time>2026-04-06T12:38:24.686Z</time></trkpt><trkpt lat="43.8042233" lon="12.5001533"><ele>186.66666666666666</ele><time>2026-04-06T12:38:25.687Z</time></trkpt><trkpt lat="43.804065" lon="12.500025"><ele>189.0</ele><time>2026-04-06T12:38:26.686Z</time></trkpt><trkpt lat="43.8039083" lon="12.4998833"><ele>189.0</ele><time>2026-04-06T12:38:27.684Z</time></trkpt><trkpt lat="43.803745" lon="12.499735"><ele>189.0</ele><time>2026-04-06T12:38:28.683Z</time></trkpt><trkpt lat="43.8035817" lon="12.4995867"><ele>189.0</ele><time>2026-04-06T12:38:29.684Z</time></trkpt><trkpt lat="43.8034167" lon="12.4994383"><ele>190.66666666666669</ele><time>2026-04-06T12:38:30.685Z</time></trkpt><trkpt lat="43.80325" lon="12.4992967"><ele>192.33333333333334</ele><time>2026-04-06T12:38:31.686Z</time></trkpt><trkpt lat="43.8030833" lon="12.4991567"><ele>194.0</ele><time>2026-04-06T12:38:32.685Z</time></trkpt><trkpt lat="43.8029183" lon="12.49901"><ele>194.0</ele><time>2026-04-06T12:38:33.684Z</time></trkpt><trkpt lat="43.802755" lon="12.49886"><ele>194.0</ele><time>2026-04-06T12:38:34.685Z</time></trkpt><trkpt lat="43.8025883" lon="12.4987083"><ele>194.0</ele><time>2026-04-06T12:38:35.684Z</time></trkpt><trkpt lat="43.80242" lon="12.4985617"><ele>193.66666666666669</ele><time>2026-04-06T12:38:36.683Z</time></trkpt><trkpt lat="43.80225" lon="12.498415"><ele>193.33333333333331</ele><time>2026-04-06T12:38:37.687Z</time></trkpt><trkpt lat="43.802085" lon="12.498275"><ele>193.0</ele><time>2026-04-06T12:38:38.685Z</time></trkpt><trkpt lat="43.8019233" lon="12.4981333"><ele>191.0</ele><time>2026-04-06T12:38:39.685Z</time></trkpt><trkpt lat="43.8017617" lon="12.4979883"><ele>189.0</ele><time>2026-04-06T12:38:40.686Z</time></trkpt><trkpt lat="43.8016017" lon="12.4978433"><ele>187.0</ele><time>2026-04-06T12:38:41.685Z</time></trkpt><trkpt lat="43.80144" lon="12.4977"><ele>187.33333333333334</ele><time>2026-04-06T12:38:42.686Z</time></trkpt><trkpt lat="43.8012783" lon="12.4975567"><ele>187.66666666666666</ele><time>2026-04-06T12:38:43.686Z</time></trkpt><trkpt lat="43.8011167" lon="12.49741"><ele>188.0</ele><time>2026-04-06T12:38:44.687Z</time></trkpt><trkpt lat="43.8009533" lon="12.4972633"><ele>188.0</ele><time>2026-04-06T12:38:45.685Z</time></trkpt><trkpt lat="43.800795" lon="12.4971217"><ele>188.0</ele><time>2026-04-06T12:38:46.685Z</time></trkpt><trkpt lat="43.800645" lon="12.4969917"><ele>188.0</ele><time>2026-04-06T12:38:47.686Z</time></trkpt><trkpt lat="43.8005017" lon="12.4968717"><ele>190.0</ele><time>2026-04-06T12:38:48.685Z</time></trkpt><trkpt lat="43.80036" lon="12.4967517"><ele>192.0</ele><time>2026-04-06T12:38:49.689Z</time></trkpt><trkpt lat="43.8002133" lon="12.4966267"><ele>194.0</ele><time>2026-04-06T12:38:50.686Z</time></trkpt><trkpt lat="43.8000633" lon="12.4964933"><ele>194.0</ele><time>2026-04-06T12:38:51.686Z</time></trkpt><trkpt lat="43.7999083" lon="12.496355"><ele>194.0</ele><time>2026-04-06T12:38:52.685Z</time></trkpt><trkpt lat="43.79975" lon="12.496215"><ele>194.0</ele><time>2026-04-06T12:38:53.685Z</time></trkpt><trkpt lat="43.7995883" lon="12.49607"><ele>195.0</ele><time>2026-04-06T12:38:54.684Z</time></trkpt><trkpt lat="43.7994283" lon="12.4959233"><ele>196.0</ele><time>2026-04-06T12:38:55.687Z</time></trkpt><trkpt lat="43.7992633" lon="12.4957783"><ele>197.0</ele><time>2026-04-06T12:38:56.686Z</time></trkpt><trkpt lat="43.7990967" lon="12.4956317"><ele>197.0</ele><time>2026-04-06T12:38:57.685Z</time></trkpt><trkpt lat="43.7989383" lon="12.4954783"><ele>197.0</ele><time>2026-04-06T12:38:58.684Z</time></trkpt><trkpt lat="43.7987967" lon="12.4953"><ele>197.0</ele><time>2026-04-06T12:38:59.683Z</time></trkpt><trkpt lat="43.7986883" lon="12.4950933"><ele>197.0</ele><time>2026-04-06T12:39:00.684Z</time></trkpt><trkpt lat="43.79861" lon="12.4948617"><ele>197.0</ele><time>2026-04-06T12:39:01.686Z</time></trkpt><trkpt lat="43.7985517" lon="12.494615"><ele>197.0</ele><time>2026-04-06T12:39:02.685Z</time></trkpt><trkpt lat="43.79849" lon="12.4943733"><ele>197.0</ele><time>2026-04-06T12:39:03.685Z</time></trkpt><trkpt lat="43.79841" lon="12.49416"><ele>197.0</ele><time>2026-04-06T12:39:04.686Z</time></trkpt><trkpt lat="43.7983" lon="12.493975"><ele>197.0</ele><time>2026-04-06T12:39:05.685Z</time></trkpt><trkpt lat="43.7981733" lon="12.493815"><ele>200.33333333333334</ele><time>2026-04-06T12:39:06.686Z</time></trkpt><trkpt lat="43.7980267" lon="12.493685"><ele>203.66666666666669</ele><time>2026-04-06T12:39:07.687Z</time></trkpt><trkpt lat="43.797865" lon="12.4935883"><ele>207.0</ele><time>2026-04-06T12:39:08.686Z</time></trkpt><trkpt lat="43.7976917" lon="12.4935233"><ele>206.66666666666669</ele><time>2026-04-06T12:39:09.685Z</time></trkpt><trkpt lat="43.7975133" lon="12.4934983"><ele>206.33333333333334</ele><time>2026-04-06T12:39:10.686Z</time></trkpt><trkpt lat="43.7973383" lon="12.4935167"><ele>206.0</ele><time>2026-04-06T12:39:11.687Z</time></trkpt><trkpt lat="43.7971733" lon="12.49356"><ele>206.0</ele><time>2026-04-06T12:39:12.685Z</time></trkpt><trkpt lat="43.79701" lon="12.4935767"><ele>206.0</ele><time>2026-04-06T12:39:13.685Z</time></trkpt><trkpt lat="43.7968467" lon="12.4935383"><ele>206.0</ele><time>2026-04-06T12:39:14.686Z</time></trkpt><trkpt lat="43.7966833" lon="12.4934567"><ele>206.66666666666669</ele><time>2026-04-06T12:39:15.685Z</time></trkpt><trkpt lat="43.7965133" lon="12.4933533"><ele>207.33333333333331</ele><time>2026-04-06T12:39:16.685Z</time></trkpt><trkpt lat="43.7963433" lon="12.4932483"><ele>208.0</ele><time>2026-04-06T12:39:17.681Z</time></trkpt><trkpt lat="43.7961717" lon="12.4931517"><ele>207.66666666666666</ele><time>2026-04-06T12:39:18.683Z</time></trkpt><trkpt lat="43.7959967" lon="12.4930633"><ele>207.33333333333331</ele><time>2026-04-06T12:39:19.686Z</time></trkpt><trkpt lat="43.7958167" lon="12.4929883"><ele>207.0</ele><time>2026-04-06T12:39:20.683Z</time></trkpt><trkpt lat="43.79563" lon="12.4929267"><ele>208.33333333333331</ele><time>2026-04-06T12:39:21.684Z</time></trkpt><trkpt lat="43.79544" lon="12.49288"><ele>209.66666666666666</ele><time>2026-04-06T12:39:22.683Z</time></trkpt><trkpt lat="43.795245" lon="12.4928467"><ele>211.0</ele><time>2026-04-06T12:39:23.683Z</time></trkpt><trkpt lat="43.7950517" lon="12.4928167"><ele>211.0</ele><time>2026-04-06T12:39:24.684Z</time></trkpt><trkpt lat="43.7948567" lon="12.492785"><ele>211.0</ele><time>2026-04-06T12:39:25.686Z</time></trkpt><trkpt lat="43.7946633" lon="12.49275"><ele>211.0</ele><time>2026-04-06T12:39:26.682Z</time></trkpt><trkpt lat="43.7944683" lon="12.4927133"><ele>211.0</ele><time>2026-04-06T12:39:27.684Z</time></trkpt><trkpt lat="43.7942767" lon="12.49268"><ele>211.0</ele><time>2026-04-06T12:39:28.685Z</time></trkpt><trkpt lat="43.7940833" lon="12.492645"><ele>211.0</ele><time>2026-04-06T12:39:29.684Z</time></trkpt><trkpt lat="43.79389" lon="12.49261"><ele>211.0</ele><time>2026-04-06T12:39:30.684Z</time></trkpt><trkpt lat="43.793695" lon="12.492575"><ele>211.0</ele><time>2026-04-06T12:39:31.686Z</time></trkpt><trkpt lat="43.7934983" lon="12.4925383"><ele>211.0</ele><time>2026-04-06T12:39:32.683Z</time></trkpt><trkpt lat="43.7933" lon="12.4925033"><ele>212.33333333333331</ele><time>2026-04-06T12:39:33.683Z</time></trkpt><trkpt lat="43.7931017" lon="12.49247"><ele>213.66666666666669</ele><time>2026-04-06T12:39:34.685Z</time></trkpt><trkpt lat="43.7929017" lon="12.4924367"><ele>215.0</ele><time>2026-04-06T12:39:35.684Z</time></trkpt><trkpt lat="43.7927017" lon="12.4924033"><ele>216.33333333333334</ele><time>2026-04-06T12:39:36.684Z</time></trkpt><trkpt lat="43.7925" lon="12.49237"><ele>217.66666666666669</ele><time>2026-04-06T12:39:37.685Z</time></trkpt><trkpt lat="43.7923" lon="12.492335"><ele>219.0</ele><time>2026-04-06T12:39:38.683Z</time></trkpt><trkpt lat="43.7921" lon="12.4923"><ele>219.0</ele><time>2026-04-06T12:39:39.687Z</time></trkpt><trkpt lat="43.7919017" lon="12.4922667"><ele>219.0</ele><time>2026-04-06T12:39:40.685Z</time></trkpt><trkpt lat="43.7917083" lon="12.4922367"><ele>219.0</ele><time>2026-04-06T12:39:41.683Z</time></trkpt><trkpt lat="43.7915233" lon="12.492205"><ele>219.33333333333331</ele><time>2026-04-06T12:39:42.684Z</time></trkpt><trkpt lat="43.7913483" lon="12.4921733"><ele>219.66666666666666</ele><time>2026-04-06T12:39:43.686Z</time></trkpt><trkpt lat="43.7911817" lon="12.4921417"><ele>220.0</ele><time>2026-04-06T12:39:44.685Z</time></trkpt><trkpt lat="43.7910217" lon="12.4921083"><ele>220.0</ele><time>2026-04-06T12:39:45.688Z</time></trkpt><trkpt lat="43.79087" lon="12.4920767"><ele>220.0</ele><time>2026-04-06T12:39:46.684Z</time></trkpt><trkpt lat="43.7907233" lon="12.4920517"><ele>220.0</ele><time>2026-04-06T12:39:47.681Z</time></trkpt><trkpt lat="43.7905783" lon="12.492025"><ele>220.0</ele><time>2026-04-06T12:39:48.683Z</time></trkpt><trkpt lat="43.7904383" lon="12.4919967"><ele>220.0</ele><time>2026-04-06T12:39:49.685Z</time></trkpt><trkpt lat="43.7903" lon="12.49197"><ele>220.0</ele><time>2026-04-06T12:39:50.683Z</time></trkpt><trkpt lat="43.790165" lon="12.4919433"><ele>220.0</ele><time>2026-04-06T12:39:51.683Z</time></trkpt><trkpt lat="43.7900317" lon="12.4919183"><ele>220.0</ele><time>2026-04-06T12:39:52.685Z</time></trkpt><trkpt lat="43.7899" lon="12.4918917"><ele>221.0</ele><time>2026-04-06T12:39:53.683Z</time></trkpt><trkpt lat="43.7897683" lon="12.4918683"><ele>222.0</ele><time>2026-04-06T12:39:54.685Z</time></trkpt><trkpt lat="43.7896367" lon="12.4918483"><ele>223.0</ele><time>2026-04-06T12:39:55.686Z</time></trkpt><trkpt lat="43.7895017" lon="12.49183"><ele>224.0</ele><time>2026-04-06T12:39:56.683Z</time></trkpt><trkpt lat="43.789365" lon="12.4918083"><ele>224.5</ele><time>2026-04-06T12:39:57.684Z</time></trkpt><trkpt lat="43.789225" lon="12.4917767"><ele>225.0</ele><time>2026-04-06T12:39:58.686Z</time></trkpt><trkpt lat="43.7890833" lon="12.4917317"><ele>225.5</ele><time>2026-04-06T12:39:59.684Z</time></trkpt><trkpt lat="43.7889417" lon="12.4916733"><ele>226.0</ele><time>2026-04-06T12:40:00.686Z</time></trkpt><trkpt lat="43.7888017" lon="12.4916"><ele>226.0</ele><time>2026-04-06T12:40:01.686Z</time></trkpt><trkpt lat="43.7886617" lon="12.4915233"><ele>226.0</ele><time>2026-04-06T12:40:02.687Z</time></trkpt><trkpt lat="43.7885217" lon="12.49145"><ele>226.0</ele><time>2026-04-06T12:40:03.685Z</time></trkpt><trkpt lat="43.7883817" lon="12.491375"><ele>226.0</ele><time>2026-04-06T12:40:04.686Z</time></trkpt><trkpt lat="43.78825" lon="12.4913017"><ele>226.0</ele><time>2026-04-06T12:40:05.685Z</time></trkpt><trkpt lat="43.7881267" lon="12.4912233"><ele>226.0</ele><time>2026-04-06T12:40:06.685Z</time></trkpt><trkpt lat="43.7880167" lon="12.4911383"><ele>226.0</ele><time>2026-04-06T12:40:07.685Z</time></trkpt><trkpt lat="43.7879233" lon="12.49105"><ele>225.99999999999997</ele><time>2026-04-06T12:40:08.686Z</time></trkpt><trkpt lat="43.7878467" lon="12.4909667"><ele>226.0</ele><time>2026-04-06T12:40:09.686Z</time></trkpt><trkpt lat="43.7877817" lon="12.4909"><ele>226.0</ele><time>2026-04-06T12:40:10.685Z</time></trkpt><trkpt lat="43.7877167" lon="12.490805"><ele>226.0</ele><time>2026-04-06T12:40:12.686Z</time></trkpt><trkpt lat="43.7876783" lon="12.4906817"><ele>225.99999999999997</ele><time>2026-04-06T12:40:15.684Z</time></trkpt><trkpt lat="43.7876617" lon="12.4905833"><ele>226.0</ele><time>2026-04-06T12:40:16.686Z</time></trkpt><trkpt lat="43.78763" lon="12.490485"><ele>226.20000000000002</ele><time>2026-04-06T12:40:17.68Z</time></trkpt><trkpt lat="43.7875833" lon="12.4903983"><ele>226.40000000000003</ele><time>2026-04-06T12:40:18.684Z</time></trkpt><trkpt lat="43.7875133" lon="12.49033"><ele>226.6</ele><time>2026-04-06T12:40:19.685Z</time></trkpt><trkpt lat="43.7874217" lon="12.4902733"><ele>226.8</ele><time>2026-04-06T12:40:20.683Z</time></trkpt><trkpt lat="43.787315" lon="12.4902233"><ele>227.0</ele><time>2026-04-06T12:40:21.682Z</time></trkpt><trkpt lat="43.7872033" lon="12.4901733"><ele>227.0</ele><time>2026-04-06T12:40:22.683Z</time></trkpt><trkpt lat="43.7871033" lon="12.4901233"><ele>227.0</ele><time>2026-04-06T12:40:23.684Z</time></trkpt><trkpt lat="43.7870033" lon="12.49007"><ele>227.0</ele><time>2026-04-06T12:40:24.685Z</time></trkpt><trkpt lat="43.7869033" lon="12.490015"><ele>227.0</ele><time>2026-04-06T12:40:25.686Z</time></trkpt><trkpt lat="43.7867967" lon="12.4899567"><ele>227.0</ele><time>2026-04-06T12:40:26.683Z</time></trkpt><trkpt lat="43.7866867" lon="12.4898917"><ele>226.75</ele><time>2026-04-06T12:40:27.685Z</time></trkpt><trkpt lat="43.7865767" lon="12.4898217"><ele>226.5</ele><time>2026-04-06T12:40:28.683Z</time></trkpt><trkpt lat="43.786465" lon="12.48974"><ele>226.25</ele><time>2026-04-06T12:40:29.688Z</time></trkpt><trkpt lat="43.7863583" lon="12.489645"><ele>226.0</ele><time>2026-04-06T12:40:30.683Z</time></trkpt><trkpt lat="43.78626" lon="12.48953"><ele>225.75</ele><time>2026-04-06T12:40:31.686Z</time></trkpt><trkpt lat="43.7861683" lon="12.4894117"><ele>225.5</ele><time>2026-04-06T12:40:32.683Z</time></trkpt><trkpt lat="43.7860817" lon="12.4893"><ele>225.25</ele><time>2026-04-06T12:40:33.684Z</time></trkpt><trkpt lat="43.785995" lon="12.48919"><ele>225.0</ele><time>2026-04-06T12:40:34.684Z</time></trkpt><trkpt lat="43.785905" lon="12.4890817"><ele>225.75</ele><time>2026-04-06T12:40:35.685Z</time></trkpt><trkpt lat="43.7858167" lon="12.4889717"><ele>226.5</ele><time>2026-04-06T12:40:36.683Z</time></trkpt><trkpt lat="43.7857283" lon="12.4888617"><ele>227.25</ele><time>2026-04-06T12:40:37.686Z</time></trkpt><trkpt lat="43.7856383" lon="12.4887517"><ele>228.0</ele><time>2026-04-06T12:40:38.683Z</time></trkpt><trkpt lat="43.785545" lon="12.488635"><ele>228.0</ele><time>2026-04-06T12:40:39.684Z</time></trkpt><trkpt lat="43.78545" lon="12.48852"><ele>228.0</ele><time>2026-04-06T12:40:40.686Z</time></trkpt><trkpt lat="43.785355" lon="12.4884"><ele>228.0</ele><time>2026-04-06T12:40:41.686Z</time></trkpt><trkpt lat="43.7852567" lon="12.4882767"><ele>228.0</ele><time>2026-04-06T12:40:42.686Z</time></trkpt><trkpt lat="43.7851583" lon="12.4881533"><ele>229.0</ele><time>2026-04-06T12:40:43.688Z</time></trkpt><trkpt lat="43.78506" lon="12.4880267"><ele>230.0</ele><time>2026-04-06T12:40:44.686Z</time></trkpt><trkpt lat="43.7849617" lon="12.4879033"><ele>231.0</ele><time>2026-04-06T12:40:45.685Z</time></trkpt><trkpt lat="43.7848667" lon="12.4877817"><ele>232.0</ele><time>2026-04-06T12:40:46.686Z</time></trkpt><trkpt lat="43.78477" lon="12.4876617"><ele>232.5</ele><time>2026-04-06T12:40:47.683Z</time></trkpt><trkpt lat="43.7846733" lon="12.4875417"><ele>233.0</ele><time>2026-04-06T12:40:48.684Z</time></trkpt><trkpt lat="43.7845783" lon="12.487425"><ele>233.5</ele><time>2026-04-06T12:40:49.684Z</time></trkpt><trkpt lat="43.784485" lon="12.48731"><ele>234.0</ele><time>2026-04-06T12:40:50.682Z</time></trkpt><trkpt lat="43.7843917" lon="12.487195"><ele>234.5</ele><time>2026-04-06T12:40:51.684Z</time></trkpt><trkpt lat="43.7843" lon="12.4870833"><ele>235.0</ele><time>2026-04-06T12:40:52.683Z</time></trkpt><trkpt lat="43.7842083" lon="12.4869717"><ele>235.5</ele><time>2026-04-06T12:40:53.683Z</time></trkpt><trkpt lat="43.784115" lon="12.4868583"><ele>236.0</ele><time>2026-04-06T12:40:54.685Z</time></trkpt><trkpt lat="43.784025" lon="12.4867467"><ele>236.0</ele><time>2026-04-06T12:40:55.686Z</time></trkpt><trkpt lat="43.7839367" lon="12.4866383"><ele>236.0</ele><time>2026-04-06T12:40:56.683Z</time></trkpt><trkpt lat="43.7838483" lon="12.4865283"><ele>236.0</ele><time>2026-04-06T12:40:57.683Z</time></trkpt><trkpt lat="43.7837583" lon="12.4864133"><ele>236.0</ele><time>2026-04-06T12:40:58.687Z</time></trkpt><trkpt lat="43.783665" lon="12.4862983"><ele>236.0</ele><time>2026-04-06T12:40:59.686Z</time></trkpt><trkpt lat="43.78357" lon="12.486185"><ele>236.0</ele><time>2026-04-06T12:41:00.686Z</time></trkpt><trkpt lat="43.78348" lon="12.4860767"><ele>236.0</ele><time>2026-04-06T12:41:01.686Z</time></trkpt><trkpt lat="43.78339" lon="12.4859683"><ele>236.0</ele><time>2026-04-06T12:41:02.687Z</time></trkpt><trkpt lat="43.7832983" lon="12.485855"><ele>236.0</ele><time>2026-04-06T12:41:03.689Z</time></trkpt><trkpt lat="43.7832017" lon="12.4857383"><ele>236.0</ele><time>2026-04-06T12:41:04.685Z</time></trkpt><trkpt lat="43.7831017" lon="12.48561"><ele>236.0</ele><time>2026-04-06T12:41:05.687Z</time></trkpt><trkpt lat="43.783" lon="12.48548"><ele>236.0</ele><time>2026-04-06T12:41:06.683Z</time></trkpt><trkpt lat="43.7828983" lon="12.4853533"><ele>236.25</ele><time>2026-04-06T12:41:07.686Z</time></trkpt><trkpt lat="43.7827983" lon="12.4852283"><ele>236.5</ele><time>2026-04-06T12:41:08.686Z</time></trkpt><trkpt lat="43.7827017" lon="12.4851083"><ele>236.75</ele><time>2026-04-06T12:41:09.686Z</time></trkpt><trkpt lat="43.7826117" lon="12.4850017"><ele>237.0</ele><time>2026-04-06T12:41:10.686Z</time></trkpt><trkpt lat="43.7825283" lon="12.4849"><ele>237.0</ele><time>2026-04-06T12:41:11.685Z</time></trkpt><trkpt lat="43.7824517" lon="12.4848017"><ele>237.0</ele><time>2026-04-06T12:41:12.684Z</time></trkpt><trkpt lat="43.78238" lon="12.4847083"><ele>237.0</ele><time>2026-04-06T12:41:13.69Z</time></trkpt><trkpt lat="43.7823033" lon="12.484625"><ele>237.0</ele><time>2026-04-06T12:41:14.687Z</time></trkpt><trkpt lat="43.7822217" lon="12.4845417"><ele>237.0</ele><time>2026-04-06T12:41:15.685Z</time></trkpt><trkpt lat="43.7821383" lon="12.4844667"><ele>237.39999999999998</ele><time>2026-04-06T12:41:16.685Z</time></trkpt><trkpt lat="43.782055" lon="12.4843967"><ele>237.79999999999998</ele><time>2026-04-06T12:41:17.684Z</time></trkpt><trkpt lat="43.7819683" lon="12.4843283"><ele>238.2</ele><time>2026-04-06T12:41:18.683Z</time></trkpt><trkpt lat="43.7818833" lon="12.4842617"><ele>238.6</ele><time>2026-04-06T12:41:19.686Z</time></trkpt><trkpt lat="43.7817917" lon="12.4841917"><ele>239.0</ele><time>2026-04-06T12:41:20.682Z</time></trkpt><trkpt lat="43.781695" lon="12.484115"><ele>239.0</ele><time>2026-04-06T12:41:21.683Z</time></trkpt><trkpt lat="43.7815933" lon="12.4840367"><ele>239.0</ele><time>2026-04-06T12:41:22.685Z</time></trkpt><trkpt lat="43.781495" lon="12.4839533"><ele>239.0</ele><time>2026-04-06T12:41:23.687Z</time></trkpt><trkpt lat="43.78139" lon="12.4838733"><ele>239.0</ele><time>2026-04-06T12:41:24.684Z</time></trkpt><trkpt lat="43.781285" lon="12.483795"><ele>238.79999999999998</ele><time>2026-04-06T12:41:25.687Z</time></trkpt><trkpt lat="43.7811867" lon="12.4837183"><ele>238.59999999999997</ele><time>2026-04-06T12:41:26.686Z</time></trkpt><trkpt lat="43.7810933" lon="12.4836467"><ele>238.4</ele><time>2026-04-06T12:41:27.684Z</time></trkpt><trkpt lat="43.7810067" lon="12.483585"><ele>238.2</ele><time>2026-04-06T12:41:28.684Z</time></trkpt><trkpt lat="43.780925" lon="12.4835283"><ele>238.0</ele><time>2026-04-06T12:41:29.687Z</time></trkpt><trkpt lat="43.7808483" lon="12.483475"><ele>237.99999999999997</ele><time>2026-04-06T12:41:30.685Z</time></trkpt><trkpt lat="43.78078" lon="12.4834233"><ele>238.0</ele><time>2026-04-06T12:41:31.688Z</time></trkpt><trkpt lat="43.780725" lon="12.483375"><ele>238.0</ele><time>2026-04-06T12:41:32.683Z</time></trkpt><trkpt lat="43.780665" lon="12.4832933"><ele>238.0</ele><time>2026-04-06T12:41:34.685Z</time></trkpt><trkpt lat="43.780705" lon="12.4832033"><ele>237.99999999999997</ele><time>2026-04-06T12:41:36.686Z</time></trkpt><trkpt lat="43.78077" lon="12.483085"><ele>238.0</ele><time>2026-04-06T12:41:38.685Z</time></trkpt><trkpt lat="43.7808067" lon="12.4830133"><ele>239.2</ele><time>2026-04-06T12:41:39.686Z</time></trkpt><trkpt lat="43.7808583" lon="12.4829217"><ele>240.4</ele><time>2026-04-06T12:41:40.684Z</time></trkpt><trkpt lat="43.7809167" lon="12.482825"><ele>241.59999999999997</ele><time>2026-04-06T12:41:41.684Z</time></trkpt><trkpt lat="43.7809817" lon="12.4827083"><ele>242.79999999999998</ele><time>2026-04-06T12:41:42.686Z</time></trkpt><trkpt lat="43.781055" lon="12.4825833"><ele>244.0</ele><time>2026-04-06T12:41:43.686Z</time></trkpt><trkpt lat="43.7811267" lon="12.4824583"><ele>246.75</ele><time>2026-04-06T12:41:44.684Z</time></trkpt><trkpt lat="43.7812017" lon="12.4823267"><ele>249.5</ele><time>2026-04-06T12:41:45.685Z</time></trkpt><trkpt lat="43.78127" lon="12.4821967"><ele>252.25</ele><time>2026-04-06T12:41:46.685Z</time></trkpt><trkpt lat="43.7813283" lon="12.4820633"><ele>255.0</ele><time>2026-04-06T12:41:47.683Z</time></trkpt><trkpt lat="43.7813733" lon="12.4819333"><ele>257.5</ele><time>2026-04-06T12:41:48.684Z</time></trkpt><trkpt lat="43.781385" lon="12.4818167"><ele>260.0</ele><time>2026-04-06T12:41:49.684Z</time></trkpt><trkpt lat="43.78138" lon="12.4817"><ele>262.5</ele><time>2026-04-06T12:41:50.682Z</time></trkpt><trkpt lat="43.7813567" lon="12.481595"><ele>265.0</ele><time>2026-04-06T12:41:51.685Z</time></trkpt><trkpt lat="43.7813383" lon="12.48149"><ele>267.5</ele><time>2026-04-06T12:41:52.685Z</time></trkpt><trkpt lat="43.7813317" lon="12.4813833"><ele>270.0</ele><time>2026-04-06T12:41:53.685Z</time></trkpt><trkpt lat="43.7813433" lon="12.4812467"><ele>272.0</ele><time>2026-04-06T12:41:54.684Z</time></trkpt><trkpt lat="43.7813533" lon="12.481125"><ele>274.0</ele><time>2026-04-06T12:41:55.685Z</time></trkpt><trkpt lat="43.7813483" lon="12.4810033"><ele>276.0</ele><time>2026-04-06T12:41:56.684Z</time></trkpt><trkpt lat="43.7813217" lon="12.48088"><ele>278.0</ele><time>2026-04-06T12:41:57.685Z</time></trkpt><trkpt lat="43.781275" lon="12.4807467"><ele>280.0</ele><time>2026-04-06T12:41:58.684Z</time></trkpt><trkpt lat="43.78122" lon="12.4806067"><ele>280.0</ele><time>2026-04-06T12:41:59.683Z</time></trkpt><trkpt lat="43.78116" lon="12.4804817"><ele>280.0</ele><time>2026-04-06T12:42:00.686Z</time></trkpt><trkpt lat="43.7811083" lon="12.4803633"><ele>280.0</ele><time>2026-04-06T12:42:01.687Z</time></trkpt><trkpt lat="43.7810567" lon="12.4802567"><ele>280.0</ele><time>2026-04-06T12:42:02.683Z</time></trkpt><trkpt lat="43.7810267" lon="12.4801417"><ele>280.0</ele><time>2026-04-06T12:42:03.686Z</time></trkpt><trkpt lat="43.7810133" lon="12.48001"><ele>280.25</ele><time>2026-04-06T12:42:04.683Z</time></trkpt><trkpt lat="43.781015" lon="12.4798667"><ele>280.5</ele><time>2026-04-06T12:42:05.684Z</time></trkpt><trkpt lat="43.7810183" lon="12.4797083"><ele>280.75</ele><time>2026-04-06T12:42:06.685Z</time></trkpt><trkpt lat="43.781005" lon="12.4795533"><ele>281.0</ele><time>2026-04-06T12:42:07.685Z</time></trkpt><trkpt lat="43.7809617" lon="12.479395"><ele>284.75</ele><time>2026-04-06T12:42:08.683Z</time></trkpt><trkpt lat="43.7809017" lon="12.4792183"><ele>288.5</ele><time>2026-04-06T12:42:09.684Z</time></trkpt><trkpt lat="43.7808333" lon="12.4790567"><ele>292.25</ele><time>2026-04-06T12:42:10.685Z</time></trkpt><trkpt lat="43.7807717" lon="12.4789083"><ele>296.0</ele><time>2026-04-06T12:42:11.683Z</time></trkpt><trkpt lat="43.7807283" lon="12.4788067"><ele>296.8</ele><time>2026-04-06T12:42:12.685Z</time></trkpt><trkpt lat="43.7807283" lon="12.4787033"><ele>297.6</ele><time>2026-04-06T12:42:13.688Z</time></trkpt><trkpt lat="43.7807433" lon="12.4786033"><ele>298.4</ele><time>2026-04-06T12:42:14.687Z</time></trkpt><trkpt lat="43.7808283" lon="12.47856"><ele>299.2</ele><time>2026-04-06T12:42:15.684Z</time></trkpt><trkpt lat="43.78091" lon="12.4785117"><ele>300.0</ele><time>2026-04-06T12:42:16.685Z</time></trkpt><trkpt lat="43.78107" lon="12.4785067"><ele>304.25</ele><time>2026-04-06T12:42:17.687Z</time></trkpt><trkpt lat="43.7811933" lon="12.478485"><ele>308.5</ele><time>2026-04-06T12:42:18.685Z</time></trkpt><trkpt lat="43.7813117" lon="12.47845"><ele>312.75</ele><time>2026-04-06T12:42:19.688Z</time></trkpt><trkpt lat="43.7814183" lon="12.4783983"><ele>317.0</ele><time>2026-04-06T12:42:20.685Z</time></trkpt><trkpt lat="43.7815267" lon="12.4783383"><ele>317.0</ele><time>2026-04-06T12:42:21.688Z</time></trkpt><trkpt lat="43.7816117" lon="12.478285"><ele>317.0</ele><time>2026-04-06T12:42:22.685Z</time></trkpt><trkpt lat="43.7816917" lon="12.478255"><ele>317.0</ele><time>2026-04-06T12:42:23.684Z</time></trkpt><trkpt lat="43.7817617" lon="12.4782533"><ele>317.0</ele><time>2026-04-06T12:42:24.685Z</time></trkpt><trkpt lat="43.7818267" lon="12.478275"><ele>317.0</ele><time>2026-04-06T12:42:25.686Z</time></trkpt><trkpt lat="43.781885" lon="12.4783317"><ele>317.0</ele><time>2026-04-06T12:42:26.683Z</time></trkpt><trkpt lat="43.7819483" lon="12.4784117"><ele>317.4</ele><time>2026-04-06T12:42:27.685Z</time></trkpt><trkpt lat="43.7820233" lon="12.47849"><ele>317.79999999999995</ele><time>2026-04-06T12:42:28.685Z</time></trkpt><trkpt lat="43.78211" lon="12.4785633"><ele>318.2</ele><time>2026-04-06T12:42:29.685Z</time></trkpt><trkpt lat="43.7822067" lon="12.47862"><ele>318.59999999999997</ele><time>2026-04-06T12:42:30.684Z</time></trkpt><trkpt lat="43.78231" lon="12.4786667"><ele>319.0</ele><time>2026-04-06T12:42:31.685Z</time></trkpt><trkpt lat="43.7824183" lon="12.478705"><ele>319.0</ele><time>2026-04-06T12:42:32.684Z</time></trkpt><trkpt lat="43.7825317" lon="12.4787367"><ele>319.0</ele><time>2026-04-06T12:42:33.685Z</time></trkpt><trkpt lat="43.7826517" lon="12.4787533"><ele>319.0</ele><time>2026-04-06T12:42:34.686Z</time></trkpt><trkpt lat="43.7827683" lon="12.478765"><ele>319.0</ele><time>2026-04-06T12:42:35.682Z</time></trkpt><trkpt lat="43.78288" lon="12.4787783"><ele>319.79999999999995</ele><time>2026-04-06T12:42:36.684Z</time></trkpt><trkpt lat="43.7829917" lon="12.4787883"><ele>320.59999999999997</ele><time>2026-04-06T12:42:37.684Z</time></trkpt><trkpt lat="43.7831033" lon="12.47879"><ele>321.4</ele><time>2026-04-06T12:42:38.682Z</time></trkpt><trkpt lat="43.7832117" lon="12.47878"><ele>322.2</ele><time>2026-04-06T12:42:39.684Z</time></trkpt><trkpt lat="43.78331" lon="12.47876"><ele>323.0</ele><time>2026-04-06T12:42:40.684Z</time></trkpt><trkpt lat="43.7834083" lon="12.4787383"><ele>323.0</ele><time>2026-04-06T12:42:41.685Z</time></trkpt><trkpt lat="43.783505" lon="12.47872"><ele>323.0</ele><time>2026-04-06T12:42:42.685Z</time></trkpt><trkpt lat="43.7836" lon="12.4787067"><ele>323.0</ele><time>2026-04-06T12:42:43.686Z</time></trkpt><trkpt lat="43.78369" lon="12.4786967"><ele>323.0</ele><time>2026-04-06T12:42:44.682Z</time></trkpt><trkpt lat="43.7837783" lon="12.4786967"><ele>323.0</ele><time>2026-04-06T12:42:45.684Z</time></trkpt><trkpt lat="43.7838633" lon="12.4787067"><ele>325.5</ele><time>2026-04-06T12:42:46.685Z</time></trkpt><trkpt lat="43.78395" lon="12.4787183"><ele>328.0</ele><time>2026-04-06T12:42:47.686Z</time></trkpt><trkpt lat="43.784035" lon="12.4787167"><ele>330.5</ele><time>2026-04-06T12:42:48.683Z</time></trkpt><trkpt lat="43.7841217" lon="12.4786867"><ele>333.0</ele><time>2026-04-06T12:42:49.684Z</time></trkpt><trkpt lat="43.784205" lon="12.4786367"><ele>335.5</ele><time>2026-04-06T12:42:50.685Z</time></trkpt><trkpt lat="43.7842733" lon="12.4785867"><ele>338.0</ele><time>2026-04-06T12:42:51.685Z</time></trkpt><trkpt lat="43.78434" lon="12.47854"><ele>338.33333333333337</ele><time>2026-04-06T12:42:52.684Z</time></trkpt><trkpt lat="43.7844083" lon="12.4785017"><ele>338.6666666666667</ele><time>2026-04-06T12:42:53.684Z</time></trkpt><trkpt lat="43.784475" lon="12.4784667"><ele>339.0</ele><time>2026-04-06T12:42:54.685Z</time></trkpt><trkpt lat="43.7845833" lon="12.47845"><ele>339.3333333333333</ele><time>2026-04-06T12:42:56.685Z</time></trkpt><trkpt lat="43.7846817" lon="12.47852"><ele>339.66666666666663</ele><time>2026-04-06T12:42:58.684Z</time></trkpt><trkpt lat="43.78473" lon="12.4785783"><ele>340.0</ele><time>2026-04-06T12:42:59.686Z</time></trkpt><trkpt lat="43.7847817" lon="12.478635"><ele>340.0</ele><time>2026-04-06T12:43:00.684Z</time></trkpt><trkpt lat="43.7848717" lon="12.4787283"><ele>340.0</ele><time>2026-04-06T12:43:02.681Z</time></trkpt><trkpt lat="43.7849683" lon="12.4788033"><ele>340.0</ele><time>2026-04-06T12:43:04.685Z</time></trkpt><trkpt lat="43.78503" lon="12.4788417"><ele>340.0</ele><time>2026-04-06T12:43:05.684Z</time></trkpt><trkpt lat="43.7851083" lon="12.4788817"><ele>340.0</ele><time>2026-04-06T12:43:06.686Z</time></trkpt><trkpt lat="43.78519" lon="12.47892"><ele>342.16666666666663</ele><time>2026-04-06T12:43:07.684Z</time></trkpt><trkpt lat="43.78527" lon="12.4789567"><ele>344.3333333333333</ele><time>2026-04-06T12:43:08.682Z</time></trkpt><trkpt lat="43.7853483" lon="12.479"><ele>346.5</ele><time>2026-04-06T12:43:09.682Z</time></trkpt><trkpt lat="43.785425" lon="12.4790517"><ele>348.6666666666667</ele><time>2026-04-06T12:43:10.687Z</time></trkpt><trkpt lat="43.7855033" lon="12.4791017"><ele>350.83333333333337</ele><time>2026-04-06T12:43:11.684Z</time></trkpt><trkpt lat="43.78558" lon="12.4791383"><ele>353.0</ele><time>2026-04-06T12:43:12.685Z</time></trkpt><trkpt lat="43.7856567" lon="12.4791617"><ele>353.0</ele><time>2026-04-06T12:43:13.686Z</time></trkpt><trkpt lat="43.785735" lon="12.4791717"><ele>353.0</ele><time>2026-04-06T12:43:14.686Z</time></trkpt><trkpt lat="43.785815" lon="12.47916"><ele>353.0</ele><time>2026-04-06T12:43:15.686Z</time></trkpt><trkpt lat="43.7859017" lon="12.479125"><ele>353.0</ele><time>2026-04-06T12:43:16.683Z</time></trkpt><trkpt lat="43.7859967" lon="12.47908"><ele>353.0</ele><time>2026-04-06T12:43:17.686Z</time></trkpt><trkpt lat="43.7860983" lon="12.4790283"><ele>356.0</ele><time>2026-04-06T12:43:18.686Z</time></trkpt><trkpt lat="43.7862083" lon="12.4789683"><ele>359.0</ele><time>2026-04-06T12:43:19.687Z</time></trkpt><trkpt lat="43.7863217" lon="12.4789083"><ele>362.0</ele><time>2026-04-06T12:43:20.685Z</time></trkpt><trkpt lat="43.7864217" lon="12.4788517"><ele>365.0</ele><time>2026-04-06T12:43:21.684Z</time></trkpt><trkpt lat="43.7865167" lon="12.47878"><ele>365.33333333333337</ele><time>2026-04-06T12:43:22.686Z</time></trkpt><trkpt lat="43.7866017" lon="12.4787117"><ele>365.6666666666667</ele><time>2026-04-06T12:43:23.685Z</time></trkpt><trkpt lat="43.78668" lon="12.4786517"><ele>366.0</ele><time>2026-04-06T12:43:24.686Z</time></trkpt><trkpt lat="43.786745" lon="12.478595"><ele>366.3333333333333</ele><time>2026-04-06T12:43:25.686Z</time></trkpt><trkpt lat="43.7868033" lon="12.4785333"><ele>366.66666666666663</ele><time>2026-04-06T12:43:26.686Z</time></trkpt><trkpt lat="43.78686" lon="12.478465"><ele>367.0</ele><time>2026-04-06T12:43:27.685Z</time></trkpt><trkpt lat="43.7869133" lon="12.4783867"><ele>365.8</ele><time>2026-04-06T12:43:28.685Z</time></trkpt><trkpt lat="43.78696" lon="12.4782867"><ele>364.6</ele><time>2026-04-06T12:43:29.685Z</time></trkpt><trkpt lat="43.78701" lon="12.4781717"><ele>363.40000000000003</ele><time>2026-04-06T12:43:30.685Z</time></trkpt><trkpt lat="43.7870617" lon="12.47805"><ele>362.20000000000005</ele><time>2026-04-06T12:43:31.685Z</time></trkpt><trkpt lat="43.7871267" lon="12.4779283"><ele>361.0</ele><time>2026-04-06T12:43:32.683Z</time></trkpt><trkpt lat="43.7872" lon="12.4778217"><ele>363.66666666666663</ele><time>2026-04-06T12:43:33.685Z</time></trkpt><trkpt lat="43.7872717" lon="12.4777333"><ele>366.3333333333333</ele><time>2026-04-06T12:43:34.684Z</time></trkpt><trkpt lat="43.7873283" lon="12.47766"><ele>369.0</ele><time>2026-04-06T12:43:35.687Z</time></trkpt><trkpt lat="43.7873817" lon="12.4775933"><ele>371.6666666666667</ele><time>2026-04-06T12:43:36.684Z</time></trkpt><trkpt lat="43.7874267" lon="12.4775233"><ele>374.33333333333337</ele><time>2026-04-06T12:43:37.687Z</time></trkpt><trkpt lat="43.7874533" lon="12.4774433"><ele>377.0</ele><time>2026-04-06T12:43:38.683Z</time></trkpt><trkpt lat="43.7874883" lon="12.4772983"><ele>377.0</ele><time>2026-04-06T12:43:40.685Z</time></trkpt><trkpt lat="43.787495" lon="12.477195"><ele>377.0</ele><time>2026-04-06T12:43:42.683Z</time></trkpt><trkpt lat="43.787515" lon="12.477065"><ele>377.0</ele><time>2026-04-06T12:43:44.684Z</time></trkpt><trkpt lat="43.7875583" lon="12.4768733"><ele>377.0</ele><time>2026-04-06T12:43:46.684Z</time></trkpt><trkpt lat="43.7875917" lon="12.4767533"><ele>377.0</ele><time>2026-04-06T12:43:47.681Z</time></trkpt><trkpt lat="43.7876217" lon="12.4766317"><ele>378.83333333333337</ele><time>2026-04-06T12:43:48.683Z</time></trkpt><trkpt lat="43.7876417" lon="12.4765217"><ele>380.6666666666667</ele><time>2026-04-06T12:43:49.685Z</time></trkpt><trkpt lat="43.7876617" lon="12.4764167"><ele>382.5</ele><time>2026-04-06T12:43:50.682Z</time></trkpt><trkpt lat="43.787675" lon="12.47632"><ele>384.33333333333337</ele><time>2026-04-06T12:43:51.683Z</time></trkpt><trkpt lat="43.7876833" lon="12.4762167"><ele>386.1666666666667</ele><time>2026-04-06T12:43:52.683Z</time></trkpt><trkpt lat="43.7876883" lon="12.4760967"><ele>388.0</ele><time>2026-04-06T12:43:53.684Z</time></trkpt><trkpt lat="43.7876883" lon="12.4759917"><ele>384.6666666666667</ele><time>2026-04-06T12:43:54.685Z</time></trkpt><trkpt lat="43.7876783" lon="12.475905"><ele>381.33333333333337</ele><time>2026-04-06T12:43:55.685Z</time></trkpt><trkpt lat="43.7876933" lon="12.4757533"><ele>378.0</ele><time>2026-04-06T12:43:57.683Z</time></trkpt><trkpt lat="43.787695" lon="12.4755933"><ele>374.6666666666667</ele><time>2026-04-06T12:43:59.682Z</time></trkpt><trkpt lat="43.7876917" lon="12.4755033"><ele>371.33333333333337</ele><time>2026-04-06T12:44:00.683Z</time></trkpt><trkpt lat="43.7876933" lon="12.4754117"><ele>368.0</ele><time>2026-04-06T12:44:01.685Z</time></trkpt><trkpt lat="43.7877067" lon="12.475315"><ele>368.0</ele><time>2026-04-06T12:44:02.684Z</time></trkpt><trkpt lat="43.7877333" lon="12.475205"><ele>368.0</ele><time>2026-04-06T12:44:03.685Z</time></trkpt><trkpt lat="43.787765" lon="12.4751067"><ele>368.0</ele><time>2026-04-06T12:44:04.683Z</time></trkpt><trkpt lat="43.7878033" lon="12.4750217"><ele>368.0</ele><time>2026-04-06T12:44:05.685Z</time></trkpt><trkpt lat="43.7878417" lon="12.474945"><ele>368.0</ele><time>2026-04-06T12:44:06.686Z</time></trkpt><trkpt lat="43.7878767" lon="12.4748717"><ele>368.0</ele><time>2026-04-06T12:44:07.686Z</time></trkpt><trkpt lat="43.7879283" lon="12.4747483"><ele>368.0</ele><time>2026-04-06T12:44:09.685Z</time></trkpt><trkpt lat="43.7879983" lon="12.474645"><ele>368.0</ele><time>2026-04-06T12:44:11.684Z</time></trkpt><trkpt lat="43.7880533" lon="12.47459"><ele>368.0</ele><time>2026-04-06T12:44:12.686Z</time></trkpt><trkpt lat="43.78812" lon="12.4745283"><ele>368.0</ele><time>2026-04-06T12:44:13.687Z</time></trkpt><trkpt lat="43.78819" lon="12.4744567"><ele>368.0</ele><time>2026-04-06T12:44:14.685Z</time></trkpt><trkpt lat="43.788255" lon="12.4743783"><ele>368.0</ele><time>2026-04-06T12:44:15.685Z</time></trkpt><trkpt lat="43.7883217" lon="12.4742817"><ele>367.0</ele><time>2026-04-06T12:44:16.686Z</time></trkpt><trkpt lat="43.78838" lon="12.4741733"><ele>366.0</ele><time>2026-04-06T12:44:17.686Z</time></trkpt><trkpt lat="43.7884333" lon="12.4740633"><ele>365.0</ele><time>2026-04-06T12:44:18.687Z</time></trkpt><trkpt lat="43.7884833" lon="12.47396"><ele>364.0</ele><time>2026-04-06T12:44:19.686Z</time></trkpt><trkpt lat="43.78854" lon="12.4738633"><ele>363.0</ele><time>2026-04-06T12:44:20.684Z</time></trkpt><trkpt lat="43.788595" lon="12.4737733"><ele>367.1666666666667</ele><time>2026-04-06T12:44:21.686Z</time></trkpt><trkpt lat="43.78865" lon="12.4736917"><ele>371.33333333333337</ele><time>2026-04-06T12:44:22.684Z</time></trkpt><trkpt lat="43.788705" lon="12.4736083"><ele>375.5</ele><time>2026-04-06T12:44:23.687Z</time></trkpt><trkpt lat="43.7887567" lon="12.47353"><ele>379.6666666666667</ele><time>2026-04-06T12:44:24.684Z</time></trkpt><trkpt lat="43.7888133" lon="12.4734567"><ele>383.83333333333337</ele><time>2026-04-06T12:44:25.686Z</time></trkpt><trkpt lat="43.7888667" lon="12.4733817"><ele>388.0</ele><time>2026-04-06T12:44:26.686Z</time></trkpt><trkpt lat="43.7889217" lon="12.4733083"><ele>388.0</ele><time>2026-04-06T12:44:27.685Z</time></trkpt><trkpt lat="43.7889817" lon="12.4732367"><ele>388.0</ele><time>2026-04-06T12:44:28.686Z</time></trkpt><trkpt lat="43.78904" lon="12.4731683"><ele>388.0</ele><time>2026-04-06T12:44:29.686Z</time></trkpt><trkpt lat="43.7890967" lon="12.473105"><ele>388.0</ele><time>2026-04-06T12:44:30.684Z</time></trkpt><trkpt lat="43.78915" lon="12.473045"><ele>388.0</ele><time>2026-04-06T12:44:31.686Z</time></trkpt><trkpt lat="43.789205" lon="12.4729833"><ele>388.0</ele><time>2026-04-06T12:44:32.686Z</time></trkpt><trkpt lat="43.78926" lon="12.4729367"><ele>388.0</ele><time>2026-04-06T12:44:33.685Z</time></trkpt><trkpt lat="43.78935" lon="12.4728483"><ele>390.4</ele><time>2026-04-06T12:44:35.685Z</time></trkpt><trkpt lat="43.7894133" lon="12.4727433"><ele>392.79999999999995</ele><time>2026-04-06T12:44:37.686Z</time></trkpt><trkpt lat="43.7895117" lon="12.472625"><ele>395.2</ele><time>2026-04-06T12:44:39.686Z</time></trkpt><trkpt lat="43.7895817" lon="12.4725617"><ele>397.6</ele><time>2026-04-06T12:44:40.685Z</time></trkpt><trkpt lat="43.78967" lon="12.4724867"><ele>400.0</ele><time>2026-04-06T12:44:41.686Z</time></trkpt><trkpt lat="43.7897633" lon="12.4724083"><ele>400.0</ele><time>2026-04-06T12:44:42.685Z</time></trkpt><trkpt lat="43.789855" lon="12.47233"><ele>400.0</ele><time>2026-04-06T12:44:43.685Z</time></trkpt><trkpt lat="43.78993" lon="12.47226"><ele>400.0</ele><time>2026-04-06T12:44:44.683Z</time></trkpt><trkpt lat="43.7899983" lon="12.4722033"><ele>400.0</ele><time>2026-04-06T12:44:45.684Z</time></trkpt><trkpt lat="43.7900567" lon="12.4721617"><ele>400.0</ele><time>2026-04-06T12:44:46.684Z</time></trkpt><trkpt lat="43.7901617" lon="12.4720883"><ele>400.5714285714286</ele><time>2026-04-06T12:44:48.685Z</time></trkpt><trkpt lat="43.790215" lon="12.47204"><ele>401.14285714285717</ele><time>2026-04-06T12:44:49.686Z</time></trkpt><trkpt lat="43.7902717" lon="12.471975"><ele>401.7142857142857</ele><time>2026-04-06T12:44:50.686Z</time></trkpt><trkpt lat="43.7903267" lon="12.4719117"><ele>402.28571428571433</ele><time>2026-04-06T12:44:51.684Z</time></trkpt><trkpt lat="43.7903817" lon="12.4718483"><ele>402.85714285714283</ele><time>2026-04-06T12:44:52.685Z</time></trkpt><trkpt lat="43.79045" lon="12.4717883"><ele>403.42857142857144</ele><time>2026-04-06T12:44:53.684Z</time></trkpt><trkpt lat="43.79052" lon="12.4717417"><ele>404.0</ele><time>2026-04-06T12:44:54.686Z</time></trkpt><trkpt lat="43.7905967" lon="12.471695"><ele>404.0</ele><time>2026-04-06T12:44:55.686Z</time></trkpt><trkpt lat="43.7906683" lon="12.47166"><ele>404.0</ele><time>2026-04-06T12:44:56.684Z</time></trkpt><trkpt lat="43.79074" lon="12.4716317"><ele>404.0</ele><time>2026-04-06T12:44:57.684Z</time></trkpt><trkpt lat="43.7908017" lon="12.4716083"><ele>404.0</ele><time>2026-04-06T12:44:58.685Z</time></trkpt><trkpt lat="43.79087" lon="12.4715767"><ele>404.0</ele><time>2026-04-06T12:44:59.683Z</time></trkpt><trkpt lat="43.7909267" lon="12.4715383"><ele>404.0</ele><time>2026-04-06T12:45:00.685Z</time></trkpt><trkpt lat="43.79098" lon="12.471485"><ele>404.0</ele><time>2026-04-06T12:45:01.689Z</time></trkpt><trkpt lat="43.7910317" lon="12.47142"><ele>404.0</ele><time>2026-04-06T12:45:02.684Z</time></trkpt><trkpt lat="43.7910867" lon="12.4713467"><ele>404.0</ele><time>2026-04-06T12:45:03.684Z</time></trkpt><trkpt lat="43.7911533" lon="12.4712667"><ele>404.0</ele><time>2026-04-06T12:45:04.683Z</time></trkpt><trkpt lat="43.7912283" lon="12.47117"><ele>404.0</ele><time>2026-04-06T12:45:05.684Z</time></trkpt><trkpt lat="43.7913033" lon="12.4710783"><ele>404.0</ele><time>2026-04-06T12:45:06.684Z</time></trkpt><trkpt lat="43.7913767" lon="12.4709867"><ele>404.0</ele><time>2026-04-06T12:45:07.685Z</time></trkpt><trkpt lat="43.7914533" lon="12.470905"><ele>404.0</ele><time>2026-04-06T12:45:08.685Z</time></trkpt><trkpt lat="43.7915417" lon="12.4708233"><ele>404.0</ele><time>2026-04-06T12:45:09.683Z</time></trkpt><trkpt lat="43.791615" lon="12.47075"><ele>404.0</ele><time>2026-04-06T12:45:10.685Z</time></trkpt><trkpt lat="43.7916867" lon="12.4706783"><ele>404.0</ele><time>2026-04-06T12:45:11.683Z</time></trkpt><trkpt lat="43.7917633" lon="12.4706067"><ele>405.79999999999995</ele><time>2026-04-06T12:45:12.684Z</time></trkpt><trkpt lat="43.7918467" lon="12.4705133"><ele>407.59999999999997</ele><time>2026-04-06T12:45:13.685Z</time></trkpt><trkpt lat="43.79193" lon="12.4704333"><ele>409.4</ele><time>2026-04-06T12:45:14.684Z</time></trkpt><trkpt lat="43.79201" lon="12.47036"><ele>411.2</ele><time>2026-04-06T12:45:15.684Z</time></trkpt><trkpt lat="43.7920967" lon="12.4703017"><ele>413.0</ele><time>2026-04-06T12:45:16.686Z</time></trkpt><trkpt lat="43.792185" lon="12.4702533"><ele>413.0</ele><time>2026-04-06T12:45:17.686Z</time></trkpt><trkpt lat="43.7922767" lon="12.4702167"><ele>413.0</ele><time>2026-04-06T12:45:18.685Z</time></trkpt><trkpt lat="43.7923683" lon="12.4701717"><ele>413.0</ele><time>2026-04-06T12:45:19.686Z</time></trkpt><trkpt lat="43.7924517" lon="12.4701317"><ele>413.0</ele><time>2026-04-06T12:45:20.686Z</time></trkpt><trkpt lat="43.7925317" lon="12.4700883"><ele>413.0</ele><time>2026-04-06T12:45:21.686Z</time></trkpt><trkpt lat="43.79261" lon="12.4700417"><ele>413.16666666666663</ele><time>2026-04-06T12:45:22.685Z</time></trkpt><trkpt lat="43.7926833" lon="12.4700017"><ele>413.3333333333333</ele><time>2026-04-06T12:45:23.684Z</time></trkpt><trkpt lat="43.79276" lon="12.469955"><ele>413.5</ele><time>2026-04-06T12:45:24.685Z</time></trkpt><trkpt lat="43.792845" lon="12.4699133"><ele>413.66666666666663</ele><time>2026-04-06T12:45:25.686Z</time></trkpt><trkpt lat="43.79294" lon="12.4698717"><ele>413.8333333333333</ele><time>2026-04-06T12:45:26.685Z</time></trkpt><trkpt lat="43.79303" lon="12.4698333"><ele>414.0</ele><time>2026-04-06T12:45:27.685Z</time></trkpt><trkpt lat="43.7931133" lon="12.4697983"><ele>414.0</ele><time>2026-04-06T12:45:28.686Z</time></trkpt><trkpt lat="43.793195" lon="12.4697617"><ele>414.0</ele><time>2026-04-06T12:45:29.686Z</time></trkpt><trkpt lat="43.7932717" lon="12.4697233"><ele>414.0</ele><time>2026-04-06T12:45:30.686Z</time></trkpt><trkpt lat="43.7933467" lon="12.4696833"><ele>414.0</ele><time>2026-04-06T12:45:31.687Z</time></trkpt><trkpt lat="43.79342" lon="12.46965"><ele>414.0</ele><time>2026-04-06T12:45:32.686Z</time></trkpt><trkpt lat="43.7934917" lon="12.46963"><ele>414.0</ele><time>2026-04-06T12:45:33.684Z</time></trkpt><trkpt lat="43.79356" lon="12.469615"><ele>415.79999999999995</ele><time>2026-04-06T12:45:34.683Z</time></trkpt><trkpt lat="43.79367" lon="12.469565"><ele>417.59999999999997</ele><time>2026-04-06T12:45:36.685Z</time></trkpt><trkpt lat="43.7937733" lon="12.46946"><ele>419.4</ele><time>2026-04-06T12:45:38.684Z</time></trkpt><trkpt lat="43.7938283" lon="12.4693917"><ele>421.2</ele><time>2026-04-06T12:45:39.686Z</time></trkpt><trkpt lat="43.7938933" lon="12.4693183"><ele>423.0</ele><time>2026-04-06T12:45:40.686Z</time></trkpt><trkpt lat="43.7939667" lon="12.4692433"><ele>423.0</ele><time>2026-04-06T12:45:41.685Z</time></trkpt><trkpt lat="43.7940467" lon="12.4691683"><ele>423.0</ele><time>2026-04-06T12:45:42.684Z</time></trkpt><trkpt lat="43.7941233" lon="12.46909"><ele>423.0</ele><time>2026-04-06T12:45:43.686Z</time></trkpt><trkpt lat="43.7942117" lon="12.4689983"><ele>423.0</ele><time>2026-04-06T12:45:44.686Z</time></trkpt><trkpt lat="43.7942983" lon="12.4688983"><ele>423.0</ele><time>2026-04-06T12:45:45.685Z</time></trkpt><trkpt lat="43.7943833" lon="12.4687917"><ele>422.25</ele><time>2026-04-06T12:45:46.683Z</time></trkpt><trkpt lat="43.794465" lon="12.46868"><ele>421.5</ele><time>2026-04-06T12:45:47.684Z</time></trkpt><trkpt lat="43.7945467" lon="12.4685617"><ele>420.75</ele><time>2026-04-06T12:45:48.684Z</time></trkpt><trkpt lat="43.79462" lon="12.4684417"><ele>420.0</ele><time>2026-04-06T12:45:49.685Z</time></trkpt><trkpt lat="43.7946833" lon="12.4683283"><ele>420.0</ele><time>2026-04-06T12:45:50.683Z</time></trkpt><trkpt lat="43.79474" lon="12.46822"><ele>420.0</ele><time>2026-04-06T12:45:51.683Z</time></trkpt><trkpt lat="43.79479" lon="12.4681133"><ele>420.0</ele><time>2026-04-06T12:45:52.685Z</time></trkpt><trkpt lat="43.7948367" lon="12.4680067"><ele>420.0</ele><time>2026-04-06T12:45:53.688Z</time></trkpt><trkpt lat="43.794885" lon="12.4679067"><ele>420.0</ele><time>2026-04-06T12:45:54.686Z</time></trkpt><trkpt lat="43.7949333" lon="12.4678167"><ele>420.0</ele><time>2026-04-06T12:45:55.685Z</time></trkpt><trkpt lat="43.7949917" lon="12.4677317"><ele>420.0</ele><time>2026-04-06T12:45:56.685Z</time></trkpt><trkpt lat="43.7950517" lon="12.4676583"><ele>420.0</ele><time>2026-04-06T12:45:57.685Z</time></trkpt><trkpt lat="43.7951167" lon="12.46758"><ele>420.0</ele><time>2026-04-06T12:45:58.686Z</time></trkpt><trkpt lat="43.7951767" lon="12.4675"><ele>420.0</ele><time>2026-04-06T12:45:59.686Z</time></trkpt><trkpt lat="43.7952433" lon="12.4674083"><ele>420.0</ele><time>2026-04-06T12:46:00.683Z</time></trkpt><trkpt lat="43.79531" lon="12.467315"><ele>420.0</ele><time>2026-04-06T12:46:01.684Z</time></trkpt><trkpt lat="43.795375" lon="12.4672267"><ele>420.8333333333333</ele><time>2026-04-06T12:46:02.682Z</time></trkpt><trkpt lat="43.7954467" lon="12.4671417"><ele>421.66666666666663</ele><time>2026-04-06T12:46:03.685Z</time></trkpt><trkpt lat="43.795515" lon="12.4670533"><ele>422.5</ele><time>2026-04-06T12:46:04.685Z</time></trkpt><trkpt lat="43.7955817" lon="12.466965"><ele>423.3333333333333</ele><time>2026-04-06T12:46:05.682Z</time></trkpt><trkpt lat="43.7956417" lon="12.466885"><ele>424.16666666666663</ele><time>2026-04-06T12:46:06.686Z</time></trkpt><trkpt lat="43.7956933" lon="12.4668083"><ele>425.0</ele><time>2026-04-06T12:46:07.686Z</time></trkpt><trkpt lat="43.795735" lon="12.46673"><ele>426.8333333333333</ele><time>2026-04-06T12:46:08.686Z</time></trkpt><trkpt lat="43.7957717" lon="12.4666433"><ele>428.66666666666663</ele><time>2026-04-06T12:46:09.686Z</time></trkpt><trkpt lat="43.7958017" lon="12.4665533"><ele>430.5</ele><time>2026-04-06T12:46:10.686Z</time></trkpt><trkpt lat="43.7958233" lon="12.4664483"><ele>432.33333333333337</ele><time>2026-04-06T12:46:11.686Z</time></trkpt><trkpt lat="43.7958383" lon="12.4663383"><ele>434.1666666666667</ele><time>2026-04-06T12:46:12.686Z</time></trkpt><trkpt lat="43.7958533" lon="12.4662233"><ele>436.0</ele><time>2026-04-06T12:46:13.687Z</time></trkpt><trkpt lat="43.7958667" lon="12.4661117"><ele>436.0</ele><time>2026-04-06T12:46:14.687Z</time></trkpt><trkpt lat="43.7958817" lon="12.4659983"><ele>436.0</ele><time>2026-04-06T12:46:15.685Z</time></trkpt><trkpt lat="43.79589" lon="12.465885"><ele>436.0</ele><time>2026-04-06T12:46:16.685Z</time></trkpt><trkpt lat="43.7958917" lon="12.46578"><ele>436.0</ele><time>2026-04-06T12:46:17.684Z</time></trkpt><trkpt lat="43.7958867" lon="12.4656833"><ele>436.0</ele><time>2026-04-06T12:46:18.684Z</time></trkpt><trkpt lat="43.79588" lon="12.4655917"><ele>436.0</ele><time>2026-04-06T12:46:19.688Z</time></trkpt><trkpt lat="43.7958767" lon="12.4655017"><ele>436.0</ele><time>2026-04-06T12:46:20.686Z</time></trkpt><trkpt lat="43.7958767" lon="12.4653567"><ele>436.6</ele><time>2026-04-06T12:46:22.683Z</time></trkpt><trkpt lat="43.7959267" lon="12.46525"><ele>437.20000000000005</ele><time>2026-04-06T12:46:24.686Z</time></trkpt><trkpt lat="43.79605" lon="12.4651917"><ele>437.79999999999995</ele><time>2026-04-06T12:46:26.686Z</time></trkpt><trkpt lat="43.7961283" lon="12.46519"><ele>438.4</ele><time>2026-04-06T12:46:27.685Z</time></trkpt><trkpt lat="43.7962267" lon="12.4651817"><ele>439.0</ele><time>2026-04-06T12:46:28.685Z</time></trkpt><trkpt lat="43.7963283" lon="12.4651667"><ele>439.0</ele><time>2026-04-06T12:46:29.683Z</time></trkpt><trkpt lat="43.7964333" lon="12.4651417"><ele>439.0</ele><time>2026-04-06T12:46:30.684Z</time></trkpt><trkpt lat="43.7965367" lon="12.4651167"><ele>439.0</ele><time>2026-04-06T12:46:31.685Z</time></trkpt><trkpt lat="43.796635" lon="12.4650917"><ele>439.0</ele><time>2026-04-06T12:46:32.683Z</time></trkpt><trkpt lat="43.7967333" lon="12.465065"><ele>439.0</ele><time>2026-04-06T12:46:33.684Z</time></trkpt><trkpt lat="43.7968233" lon="12.46505"><ele>442.4</ele><time>2026-04-06T12:46:34.686Z</time></trkpt><trkpt lat="43.7969167" lon="12.46504"><ele>445.79999999999995</ele><time>2026-04-06T12:46:35.687Z</time></trkpt><trkpt lat="43.7970083" lon="12.465035"><ele>449.20000000000005</ele><time>2026-04-06T12:46:36.686Z</time></trkpt><trkpt lat="43.7971" lon="12.4650183"><ele>452.6</ele><time>2026-04-06T12:46:37.685Z</time></trkpt><trkpt lat="43.7971933" lon="12.4650017"><ele>456.0</ele><time>2026-04-06T12:46:38.683Z</time></trkpt><trkpt lat="43.7972817" lon="12.4649717"><ele>456.0</ele><time>2026-04-06T12:46:39.684Z</time></trkpt><trkpt lat="43.7973683" lon="12.4649383"><ele>456.0</ele><time>2026-04-06T12:46:40.686Z</time></trkpt><trkpt lat="43.7974517" lon="12.46491"><ele>456.0</ele><time>2026-04-06T12:46:41.686Z</time></trkpt><trkpt lat="43.7975233" lon="12.4648883"><ele>456.0</ele><time>2026-04-06T12:46:42.684Z</time></trkpt><trkpt lat="43.79763" lon="12.4648667"><ele>456.0</ele><time>2026-04-06T12:46:44.686Z</time></trkpt><trkpt lat="43.7977283" lon="12.464825"><ele>456.6666666666667</ele><time>2026-04-06T12:46:46.684Z</time></trkpt><trkpt lat="43.7978167" lon="12.46474"><ele>457.33333333333337</ele><time>2026-04-06T12:46:48.685Z</time></trkpt><trkpt lat="43.79791" lon="12.4646367"><ele>458.0</ele><time>2026-04-06T12:46:50.683Z</time></trkpt><trkpt lat="43.7979617" lon="12.4645783"><ele>458.6666666666667</ele><time>2026-04-06T12:46:51.684Z</time></trkpt><trkpt lat="43.7980183" lon="12.4645167"><ele>459.33333333333337</ele><time>2026-04-06T12:46:52.688Z</time></trkpt><trkpt lat="43.7980783" lon="12.46445"><ele>460.0</ele><time>2026-04-06T12:46:53.685Z</time></trkpt><trkpt lat="43.79814" lon="12.464385"><ele>461.1666666666667</ele><time>2026-04-06T12:46:54.684Z</time></trkpt><trkpt lat="43.7981933" lon="12.4643333"><ele>462.33333333333337</ele><time>2026-04-06T12:46:55.688Z</time></trkpt><trkpt lat="43.798275" lon="12.4642517"><ele>463.5</ele><time>2026-04-06T12:46:57.686Z</time></trkpt><trkpt lat="43.7983317" lon="12.4642083"><ele>464.66666666666663</ele><time>2026-04-06T12:46:59.683Z</time></trkpt><trkpt lat="43.7983917" lon="12.4641683"><ele>465.8333333333333</ele><time>2026-04-06T12:47:01.685Z</time></trkpt><trkpt lat="43.7984533" lon="12.4641167"><ele>467.0</ele><time>2026-04-06T12:47:03.684Z</time></trkpt><trkpt lat="43.798525" lon="12.4640617"><ele>467.8333333333333</ele><time>2026-04-06T12:47:05.684Z</time></trkpt><trkpt lat="43.7985733" lon="12.464"><ele>468.66666666666663</ele><time>2026-04-06T12:47:07.688Z</time></trkpt><trkpt lat="43.798585" lon="12.4639083"><ele>469.5</ele><time>2026-04-06T12:47:09.685Z</time></trkpt><trkpt lat="43.7985717" lon="12.463795"><ele>470.33333333333337</ele><time>2026-04-06T12:47:11.687Z</time></trkpt><trkpt lat="43.798565" lon="12.4636383"><ele>471.1666666666667</ele><time>2026-04-06T12:47:13.687Z</time></trkpt><trkpt lat="43.7985617" lon="12.4635467"><ele>472.0</ele><time>2026-04-06T12:47:14.683Z</time></trkpt><trkpt lat="43.79856" lon="12.4634433"><ele>472.1428571428571</ele><time>2026-04-06T12:47:15.685Z</time></trkpt><trkpt lat="43.7985533" lon="12.46334"><ele>472.28571428571433</ele><time>2026-04-06T12:47:16.685Z</time></trkpt><trkpt lat="43.7985383" lon="12.4632367"><ele>472.42857142857144</ele><time>2026-04-06T12:47:17.686Z</time></trkpt><trkpt lat="43.798515" lon="12.4631333"><ele>472.57142857142856</ele><time>2026-04-06T12:47:18.683Z</time></trkpt><trkpt lat="43.79849" lon="12.4630317"><ele>472.71428571428567</ele><time>2026-04-06T12:47:19.687Z</time></trkpt><trkpt lat="43.7984633" lon="12.4629367"><ele>472.8571428571429</ele><time>2026-04-06T12:47:20.685Z</time></trkpt><trkpt lat="43.7984333" lon="12.4628567"><ele>473.0</ele><time>2026-04-06T12:47:21.684Z</time></trkpt><trkpt lat="43.7983733" lon="12.4626933"><ele>472.99999999999994</ele><time>2026-04-06T12:47:23.686Z</time></trkpt><trkpt lat="43.7983283" lon="12.462605"><ele>473.0</ele><time>2026-04-06T12:47:24.687Z</time></trkpt><trkpt lat="43.798275" lon="12.4625183"><ele>473.0</ele><time>2026-04-06T12:47:25.684Z</time></trkpt><trkpt lat="43.79822" lon="12.462425"><ele>473.0</ele><time>2026-04-06T12:47:26.688Z</time></trkpt><trkpt lat="43.7981617" lon="12.46232"><ele>472.99999999999994</ele><time>2026-04-06T12:47:27.683Z</time></trkpt><trkpt lat="43.7981167" lon="12.4622167"><ele>473.0</ele><time>2026-04-06T12:47:28.686Z</time></trkpt><trkpt lat="43.7980733" lon="12.4620983"><ele>475.79999999999995</ele><time>2026-04-06T12:47:29.685Z</time></trkpt><trkpt lat="43.79804" lon="12.4619817"><ele>478.59999999999997</ele><time>2026-04-06T12:47:30.684Z</time></trkpt><trkpt lat="43.7980133" lon="12.4618417"><ele>481.40000000000003</ele><time>2026-04-06T12:47:31.687Z</time></trkpt><trkpt lat="43.7979933" lon="12.461715"><ele>484.20000000000005</ele><time>2026-04-06T12:47:32.685Z</time></trkpt><trkpt lat="43.797975" lon="12.4615867"><ele>487.0</ele><time>2026-04-06T12:47:33.683Z</time></trkpt><trkpt lat="43.7979517" lon="12.4614617"><ele>487.0</ele><time>2026-04-06T12:47:34.684Z</time></trkpt><trkpt lat="43.7979267" lon="12.4613483"><ele>487.0</ele><time>2026-04-06T12:47:35.687Z</time></trkpt><trkpt lat="43.7979033" lon="12.4612583"><ele>487.0</ele><time>2026-04-06T12:47:36.685Z</time></trkpt><trkpt lat="43.7978833" lon="12.46117"><ele>487.0</ele><time>2026-04-06T12:47:37.688Z</time></trkpt><trkpt lat="43.79786" lon="12.4610867"><ele>487.0</ele><time>2026-04-06T12:47:38.684Z</time></trkpt><trkpt lat="43.7978283" lon="12.4609917"><ele>487.0</ele><time>2026-04-06T12:47:39.686Z</time></trkpt><trkpt lat="43.7978017" lon="12.460895"><ele>487.0</ele><time>2026-04-06T12:47:40.686Z</time></trkpt><trkpt lat="43.79778" lon="12.4607917"><ele>485.00000000000006</ele><time>2026-04-06T12:47:41.686Z</time></trkpt><trkpt lat="43.7977583" lon="12.4606867"><ele>483.0</ele><time>2026-04-06T12:47:42.686Z</time></trkpt><trkpt lat="43.79774" lon="12.4605783"><ele>481.0</ele><time>2026-04-06T12:47:43.686Z</time></trkpt><trkpt lat="43.797715" lon="12.4604767"><ele>479.0</ele><time>2026-04-06T12:47:44.686Z</time></trkpt><trkpt lat="43.7976817" lon="12.460385"><ele>477.00000000000006</ele><time>2026-04-06T12:47:45.686Z</time></trkpt><trkpt lat="43.79763" lon="12.4603133"><ele>475.0</ele><time>2026-04-06T12:47:46.685Z</time></trkpt><trkpt lat="43.7975633" lon="12.4602567"><ele>472.6666666666667</ele><time>2026-04-06T12:47:47.684Z</time></trkpt><trkpt lat="43.7974833" lon="12.4602183"><ele>470.33333333333337</ele><time>2026-04-06T12:47:48.686Z</time></trkpt><trkpt lat="43.7974033" lon="12.460195"><ele>468.0</ele><time>2026-04-06T12:47:49.688Z</time></trkpt><trkpt lat="43.797325" lon="12.4601717"><ele>465.66666666666663</ele><time>2026-04-06T12:47:50.683Z</time></trkpt><trkpt lat="43.7972467" lon="12.460155"><ele>463.3333333333333</ele><time>2026-04-06T12:47:51.686Z</time></trkpt><trkpt lat="43.797165" lon="12.460135"><ele>461.0</ele><time>2026-04-06T12:47:52.685Z</time></trkpt><trkpt lat="43.7970883" lon="12.4601083"><ele>460.99999999999994</ele><time>2026-04-06T12:47:53.686Z</time></trkpt><trkpt lat="43.7970133" lon="12.4600817"><ele>461.0</ele><time>2026-04-06T12:47:54.686Z</time></trkpt><trkpt lat="43.7969367" lon="12.46005"><ele>461.0</ele><time>2026-04-06T12:47:55.688Z</time></trkpt><trkpt lat="43.7968633" lon="12.4600183"><ele>461.0</ele><time>2026-04-06T12:47:56.686Z</time></trkpt><trkpt lat="43.7967867" lon="12.4599867"><ele>460.99999999999994</ele><time>2026-04-06T12:47:57.684Z</time></trkpt><trkpt lat="43.7967117" lon="12.45995"><ele>461.0</ele><time>2026-04-06T12:47:58.686Z</time></trkpt><trkpt lat="43.7966383" lon="12.4599083"><ele>459.49999999999994</ele><time>2026-04-06T12:47:59.687Z</time></trkpt><trkpt lat="43.79657" lon="12.4598567"><ele>458.0</ele><time>2026-04-06T12:48:00.686Z</time></trkpt><trkpt lat="43.7964967" lon="12.459805"><ele>456.5</ele><time>2026-04-06T12:48:01.687Z</time></trkpt><trkpt lat="43.7964167" lon="12.4597583"><ele>455.0</ele><time>2026-04-06T12:48:02.685Z</time></trkpt><trkpt lat="43.79634" lon="12.4597117"><ele>453.49999999999994</ele><time>2026-04-06T12:48:03.686Z</time></trkpt><trkpt lat="43.7962633" lon="12.4596717"><ele>452.0</ele><time>2026-04-06T12:48:04.686Z</time></trkpt><trkpt lat="43.7961817" lon="12.459635"><ele>451.16666666666663</ele><time>2026-04-06T12:48:05.685Z</time></trkpt><trkpt lat="43.7960983" lon="12.4596"><ele>450.3333333333333</ele><time>2026-04-06T12:48:06.688Z</time></trkpt><trkpt lat="43.7960183" lon="12.4595667"><ele>449.5</ele><time>2026-04-06T12:48:07.688Z</time></trkpt><trkpt lat="43.7959433" lon="12.45953"><ele>448.66666666666663</ele><time>2026-04-06T12:48:08.684Z</time></trkpt><trkpt lat="43.7958667" lon="12.4594967"><ele>447.8333333333333</ele><time>2026-04-06T12:48:09.686Z</time></trkpt><trkpt lat="43.795795" lon="12.4594583"><ele>447.0</ele><time>2026-04-06T12:48:10.684Z</time></trkpt><trkpt lat="43.7957333" lon="12.459405"><ele>445.4285714285714</ele><time>2026-04-06T12:48:11.687Z</time></trkpt><trkpt lat="43.7956917" lon="12.4593367"><ele>443.85714285714283</ele><time>2026-04-06T12:48:12.686Z</time></trkpt><trkpt lat="43.7956667" lon="12.4592517"><ele>442.2857142857143</ele><time>2026-04-06T12:48:13.687Z</time></trkpt><trkpt lat="43.7956533" lon="12.459155"><ele>440.71428571428567</ele><time>2026-04-06T12:48:14.685Z</time></trkpt><trkpt lat="43.795645" lon="12.45905"><ele>439.14285714285717</ele><time>2026-04-06T12:48:15.686Z</time></trkpt><trkpt lat="43.7956383" lon="12.4589433"><ele>437.57142857142856</ele><time>2026-04-06T12:48:16.686Z</time></trkpt><trkpt lat="43.7956267" lon="12.4588333"><ele>436.0</ele><time>2026-04-06T12:48:17.688Z</time></trkpt><trkpt lat="43.795615" lon="12.4587233"><ele>433.20000000000005</ele><time>2026-04-06T12:48:18.686Z</time></trkpt><trkpt lat="43.7956017" lon="12.458625"><ele>430.40000000000003</ele><time>2026-04-06T12:48:19.687Z</time></trkpt><trkpt lat="43.795575" lon="12.4584633"><ele>427.6</ele><time>2026-04-06T12:48:21.684Z</time></trkpt><trkpt lat="43.7955117" lon="12.4583567"><ele>424.8</ele><time>2026-04-06T12:48:23.685Z</time></trkpt><trkpt lat="43.7953917" lon="12.458355"><ele>422.0</ele><time>2026-04-06T12:48:25.687Z</time></trkpt><trkpt lat="43.7953233" lon="12.458385"><ele>421.99999999999994</ele><time>2026-04-06T12:48:26.684Z</time></trkpt><trkpt lat="43.795245" lon="12.4584233"><ele>422.0</ele><time>2026-04-06T12:48:27.684Z</time></trkpt><trkpt lat="43.79517" lon="12.45846"><ele>422.0</ele><time>2026-04-06T12:48:28.685Z</time></trkpt><trkpt lat="43.7950983" lon="12.458495"><ele>422.0</ele><time>2026-04-06T12:48:29.685Z</time></trkpt><trkpt lat="43.79502" lon="12.45853"><ele>421.99999999999994</ele><time>2026-04-06T12:48:30.683Z</time></trkpt><trkpt lat="43.7949417" lon="12.45856"><ele>422.0</ele><time>2026-04-06T12:48:31.684Z</time></trkpt><trkpt lat="43.7948583" lon="12.458585"><ele>421.3333333333333</ele><time>2026-04-06T12:48:32.684Z</time></trkpt><trkpt lat="43.794775" lon="12.4586067"><ele>420.66666666666663</ele><time>2026-04-06T12:48:33.683Z</time></trkpt><trkpt lat="43.7946933" lon="12.4586267"><ele>420.0</ele><time>2026-04-06T12:48:34.683Z</time></trkpt><trkpt lat="43.7946183" lon="12.45864"><ele>419.33333333333337</ele><time>2026-04-06T12:48:35.687Z</time></trkpt><trkpt lat="43.7945417" lon="12.458625"><ele>418.6666666666667</ele><time>2026-04-06T12:48:36.684Z</time></trkpt><trkpt lat="43.79447" lon="12.4585767"><ele>418.0</ele><time>2026-04-06T12:48:37.687Z</time></trkpt><trkpt lat="43.794405" lon="12.4584983"><ele>418.0</ele><time>2026-04-06T12:48:38.682Z</time></trkpt><trkpt lat="43.7943417" lon="12.458405"><ele>418.0</ele><time>2026-04-06T12:48:39.685Z</time></trkpt><trkpt lat="43.7942733" lon="12.4583017"><ele>418.0</ele><time>2026-04-06T12:48:40.686Z</time></trkpt><trkpt lat="43.794205" lon="12.4581983"><ele>418.0</ele><time>2026-04-06T12:48:41.685Z</time></trkpt><trkpt lat="43.794135" lon="12.4581017"><ele>418.0</ele><time>2026-04-06T12:48:42.684Z</time></trkpt><trkpt lat="43.7940583" lon="12.4580117"><ele>414.4</ele><time>2026-04-06T12:48:43.686Z</time></trkpt><trkpt lat="43.7939783" lon="12.4579317"><ele>410.79999999999995</ele><time>2026-04-06T12:48:44.685Z</time></trkpt><trkpt lat="43.793895" lon="12.45786"><ele>407.2</ele><time>2026-04-06T12:48:45.685Z</time></trkpt><trkpt lat="43.7938017" lon="12.457805"><ele>403.6</ele><time>2026-04-06T12:48:46.683Z</time></trkpt><trkpt lat="43.7937017" lon="12.4577633"><ele>400.0</ele><time>2026-04-06T12:48:47.684Z</time></trkpt><trkpt lat="43.7935983" lon="12.4577267"><ele>401.6666666666667</ele><time>2026-04-06T12:48:48.684Z</time></trkpt><trkpt lat="43.793505" lon="12.4576883"><ele>403.33333333333337</ele><time>2026-04-06T12:48:49.684Z</time></trkpt><trkpt lat="43.7934383" lon="12.4576367"><ele>405.0</ele><time>2026-04-06T12:48:50.686Z</time></trkpt><trkpt lat="43.79338" lon="12.45758"><ele>406.66666666666663</ele><time>2026-04-06T12:48:51.684Z</time></trkpt><trkpt lat="43.7932933" lon="12.4575133"><ele>408.3333333333333</ele><time>2026-04-06T12:48:53.686Z</time></trkpt><trkpt lat="43.7932733" lon="12.45763"><ele>410.0</ele><time>2026-04-06T12:48:56.686Z</time></trkpt><trkpt lat="43.79332" lon="12.457785"><ele>410.0</ele><time>2026-04-06T12:48:58.684Z</time></trkpt><trkpt lat="43.7933517" lon="12.45787"><ele>410.0</ele><time>2026-04-06T12:48:59.684Z</time></trkpt><trkpt lat="43.7933783" lon="12.4579533"><ele>410.0</ele><time>2026-04-06T12:49:00.686Z</time></trkpt><trkpt lat="43.7934233" lon="12.4581067"><ele>410.0</ele><time>2026-04-06T12:49:02.684Z</time></trkpt><trkpt lat="43.7934817" lon="12.4582517"><ele>410.0</ele><time>2026-04-06T12:49:04.685Z</time></trkpt><trkpt lat="43.793545" lon="12.4584067"><ele>410.42857142857144</ele><time>2026-04-06T12:49:06.685Z</time></trkpt><trkpt lat="43.79358" lon="12.45849"><ele>410.85714285714283</ele><time>2026-04-06T12:49:07.685Z</time></trkpt><trkpt lat="43.7936167" lon="12.4585717"><ele>411.2857142857143</ele><time>2026-04-06T12:49:08.684Z</time></trkpt><trkpt lat="43.793665" lon="12.45865"><ele>411.7142857142857</ele><time>2026-04-06T12:49:09.686Z</time></trkpt><trkpt lat="43.7937233" lon="12.4587167"><ele>412.1428571428571</ele><time>2026-04-06T12:49:10.683Z</time></trkpt><trkpt lat="43.7937833" lon="12.458765"><ele>412.57142857142856</ele><time>2026-04-06T12:49:11.684Z</time></trkpt><trkpt lat="43.7938483" lon="12.458805"><ele>413.0</ele><time>2026-04-06T12:49:12.684Z</time></trkpt><trkpt lat="43.7939133" lon="12.4588367"><ele>411.14285714285717</ele><time>2026-04-06T12:49:13.686Z</time></trkpt><trkpt lat="43.7939783" lon="12.4588667"><ele>409.2857142857143</ele><time>2026-04-06T12:49:14.684Z</time></trkpt><trkpt lat="43.7940383" lon="12.4588983"><ele>407.42857142857144</ele><time>2026-04-06T12:49:15.686Z</time></trkpt><trkpt lat="43.7940967" lon="12.4589383"><ele>405.57142857142856</ele><time>2026-04-06T12:49:16.684Z</time></trkpt><trkpt lat="43.7941517" lon="12.4589933"><ele>403.7142857142857</ele><time>2026-04-06T12:49:17.684Z</time></trkpt><trkpt lat="43.7942" lon="12.4590667"><ele>401.8571428571429</ele><time>2026-04-06T12:49:18.683Z</time></trkpt><trkpt lat="43.7942433" lon="12.459145"><ele>400.0</ele><time>2026-04-06T12:49:19.686Z</time></trkpt><trkpt lat="43.79426" lon="12.4592783"><ele>400.0</ele><time>2026-04-06T12:49:21.683Z</time></trkpt><trkpt lat="43.79422" lon="12.4593633"><ele>400.0</ele><time>2026-04-06T12:49:23.686Z</time></trkpt><trkpt lat="43.7940917" lon="12.4593717"><ele>400.0</ele><time>2026-04-06T12:49:25.686Z</time></trkpt><trkpt lat="43.794005" lon="12.4593767"><ele>400.0</ele><time>2026-04-06T12:49:26.684Z</time></trkpt><trkpt lat="43.79391" lon="12.4593783"><ele>400.0</ele><time>2026-04-06T12:49:27.686Z</time></trkpt><trkpt lat="43.7938083" lon="12.4593667"><ele>400.00000000000006</ele><time>2026-04-06T12:49:28.684Z</time></trkpt><trkpt lat="43.7937133" lon="12.4593533"><ele>400.0</ele><time>2026-04-06T12:49:29.685Z</time></trkpt><trkpt lat="43.793625" lon="12.459325"><ele>400.0</ele><time>2026-04-06T12:49:30.686Z</time></trkpt><trkpt lat="43.7935517" lon="12.4592783"><ele>400.0</ele><time>2026-04-06T12:49:31.687Z</time></trkpt><trkpt lat="43.7934883" lon="12.459225"><ele>400.00000000000006</ele><time>2026-04-06T12:49:32.684Z</time></trkpt><trkpt lat="43.793425" lon="12.45916"><ele>400.0</ele><time>2026-04-06T12:49:33.684Z</time></trkpt><trkpt lat="43.7933483" lon="12.4591033"><ele>397.00000000000006</ele><time>2026-04-06T12:49:34.684Z</time></trkpt><trkpt lat="43.7932617" lon="12.4590617"><ele>394.0</ele><time>2026-04-06T12:49:35.688Z</time></trkpt><trkpt lat="43.7931717" lon="12.4590267"><ele>391.0</ele><time>2026-04-06T12:49:36.684Z</time></trkpt><trkpt lat="43.79309" lon="12.45899"><ele>388.0</ele><time>2026-04-06T12:49:37.686Z</time></trkpt><trkpt lat="43.7930067" lon="12.4589533"><ele>385.0</ele><time>2026-04-06T12:49:38.685Z</time></trkpt><trkpt lat="43.79292" lon="12.4589217"><ele>382.0</ele><time>2026-04-06T12:49:39.685Z</time></trkpt><trkpt lat="43.7928367" lon="12.4588733"><ele>382.0</ele><time>2026-04-06T12:49:40.684Z</time></trkpt><trkpt lat="43.79276" lon="12.4588117"><ele>382.0</ele><time>2026-04-06T12:49:41.686Z</time></trkpt><trkpt lat="43.79269" lon="12.4587517"><ele>382.0</ele><time>2026-04-06T12:49:42.686Z</time></trkpt><trkpt lat="43.7926167" lon="12.458695"><ele>382.0</ele><time>2026-04-06T12:49:43.686Z</time></trkpt><trkpt lat="43.792545" lon="12.4586533"><ele>382.0</ele><time>2026-04-06T12:49:44.685Z</time></trkpt><trkpt lat="43.792465" lon="12.4586317"><ele>382.0</ele><time>2026-04-06T12:49:45.685Z</time></trkpt><trkpt lat="43.7923967" lon="12.4586217"><ele>380.8</ele><time>2026-04-06T12:49:46.686Z</time></trkpt><trkpt lat="43.7923233" lon="12.458635"><ele>379.6</ele><time>2026-04-06T12:49:47.684Z</time></trkpt><trkpt lat="43.7922583" lon="12.4586617"><ele>378.40000000000003</ele><time>2026-04-06T12:49:48.686Z</time></trkpt><trkpt lat="43.7921517" lon="12.4586917"><ele>377.20000000000005</ele><time>2026-04-06T12:49:50.685Z</time></trkpt><trkpt lat="43.79203" lon="12.4586783"><ele>376.0</ele><time>2026-04-06T12:49:52.685Z</time></trkpt><trkpt lat="43.791905" lon="12.45869"><ele>371.5</ele><time>2026-04-06T12:49:54.685Z</time></trkpt><trkpt lat="43.7918383" lon="12.4586867"><ele>367.0</ele><time>2026-04-06T12:49:55.685Z</time></trkpt><trkpt lat="43.7917733" lon="12.4586767"><ele>362.5</ele><time>2026-04-06T12:49:56.682Z</time></trkpt><trkpt lat="43.7917083" lon="12.4586667"><ele>358.0</ele><time>2026-04-06T12:49:57.686Z</time></trkpt><trkpt lat="43.7916083" lon="12.45863"><ele>353.5</ele><time>2026-04-06T12:49:59.686Z</time></trkpt><trkpt lat="43.791545" lon="12.4585517"><ele>349.0</ele><time>2026-04-06T12:50:01.683Z</time></trkpt><trkpt lat="43.7915233" lon="12.4584333"><ele>349.0</ele><time>2026-04-06T12:50:03.684Z</time></trkpt><trkpt lat="43.79154" lon="12.4582883"><ele>349.0</ele><time>2026-04-06T12:50:05.684Z</time></trkpt><trkpt lat="43.7915683" lon="12.4581483"><ele>349.0</ele><time>2026-04-06T12:50:07.685Z</time></trkpt><trkpt lat="43.7916017" lon="12.4580183"><ele>349.0</ele><time>2026-04-06T12:50:09.686Z</time></trkpt><trkpt lat="43.7916267" lon="12.457885"><ele>349.0</ele><time>2026-04-06T12:50:11.684Z</time></trkpt><trkpt lat="43.7916283" lon="12.4577383"><ele>348.79999999999995</ele><time>2026-04-06T12:50:13.685Z</time></trkpt><trkpt lat="43.7916083" lon="12.45757"><ele>348.59999999999997</ele><time>2026-04-06T12:50:15.683Z</time></trkpt><trkpt lat="43.7915667" lon="12.4574"><ele>348.4</ele><time>2026-04-06T12:50:17.683Z</time></trkpt><trkpt lat="43.791505" lon="12.4572483"><ele>348.2</ele><time>2026-04-06T12:50:19.686Z</time></trkpt><trkpt lat="43.7914583" lon="12.4571817"><ele>348.0</ele><time>2026-04-06T12:50:20.682Z</time></trkpt><trkpt lat="43.7913667" lon="12.4570817"><ele>349.6666666666667</ele><time>2026-04-06T12:50:22.684Z</time></trkpt><trkpt lat="43.7912967" lon="12.457055"><ele>351.3333333333333</ele><time>2026-04-06T12:50:23.687Z</time></trkpt><trkpt lat="43.7912317" lon="12.45702"><ele>353.0</ele><time>2026-04-06T12:50:24.686Z</time></trkpt><trkpt lat="43.7911767" lon="12.4569733"><ele>354.66666666666663</ele><time>2026-04-06T12:50:25.686Z</time></trkpt><trkpt lat="43.7911033" lon="12.45684"><ele>356.3333333333333</ele><time>2026-04-06T12:50:27.684Z</time></trkpt><trkpt lat="43.7910683" lon="12.4567517"><ele>358.0</ele><time>2026-04-06T12:50:28.684Z</time></trkpt><trkpt lat="43.7910317" lon="12.45666"><ele>353.8333333333333</ele><time>2026-04-06T12:50:29.685Z</time></trkpt><trkpt lat="43.7909883" lon="12.4565683"><ele>349.66666666666663</ele><time>2026-04-06T12:50:30.683Z</time></trkpt><trkpt lat="43.7909417" lon="12.456485"><ele>345.5</ele><time>2026-04-06T12:50:31.685Z</time></trkpt><trkpt lat="43.7908833" lon="12.4564067"><ele>341.3333333333333</ele><time>2026-04-06T12:50:32.682Z</time></trkpt><trkpt lat="43.7908183" lon="12.4563483"><ele>337.1666666666667</ele><time>2026-04-06T12:50:33.684Z</time></trkpt><trkpt lat="43.7907583" lon="12.456295"><ele>333.0</ele><time>2026-04-06T12:50:34.686Z</time></trkpt><trkpt lat="43.7907" lon="12.45625"><ele>333.0</ele><time>2026-04-06T12:50:35.686Z</time></trkpt><trkpt lat="43.7906317" lon="12.4562117"><ele>333.0</ele><time>2026-04-06T12:50:36.683Z</time></trkpt><trkpt lat="43.7905583" lon="12.4561783"><ele>333.0</ele><time>2026-04-06T12:50:37.685Z</time></trkpt><trkpt lat="43.7904933" lon="12.4561467"><ele>333.0</ele><time>2026-04-06T12:50:38.686Z</time></trkpt><trkpt lat="43.79043" lon="12.4561183"><ele>333.0</ele><time>2026-04-06T12:50:39.686Z</time></trkpt><trkpt lat="43.7903733" lon="12.4560783"><ele>333.0</ele><time>2026-04-06T12:50:40.686Z</time></trkpt><trkpt lat="43.7902883" lon="12.455955"><ele>333.0</ele><time>2026-04-06T12:50:42.684Z</time></trkpt><trkpt lat="43.7902517" lon="12.4558767"><ele>333.0</ele><time>2026-04-06T12:50:43.685Z</time></trkpt><trkpt lat="43.7902283" lon="12.4557817"><ele>333.0</ele><time>2026-04-06T12:50:44.683Z</time></trkpt><trkpt lat="43.790205" lon="12.4556783"><ele>333.0</ele><time>2026-04-06T12:50:45.682Z</time></trkpt><trkpt lat="43.7901717" lon="12.4555683"><ele>333.0</ele><time>2026-04-06T12:50:46.684Z</time></trkpt><trkpt lat="43.79014" lon="12.455455"><ele>333.0</ele><time>2026-04-06T12:50:47.683Z</time></trkpt><trkpt lat="43.7901117" lon="12.4553417"><ele>327.5</ele><time>2026-04-06T12:50:48.684Z</time></trkpt><trkpt lat="43.7900883" lon="12.4552217"><ele>322.0</ele><time>2026-04-06T12:50:49.685Z</time></trkpt><trkpt lat="43.7900667" lon="12.45511"><ele>316.5</ele><time>2026-04-06T12:50:50.682Z</time></trkpt><trkpt lat="43.7900467" lon="12.455005"><ele>311.0</ele><time>2026-04-06T12:50:51.684Z</time></trkpt><trkpt lat="43.7900333" lon="12.4549017"><ele>305.5</ele><time>2026-04-06T12:50:52.684Z</time></trkpt><trkpt lat="43.7900167" lon="12.4547917"><ele>300.0</ele><time>2026-04-06T12:50:53.684Z</time></trkpt><trkpt lat="43.79" lon="12.454685"><ele>299.1666666666667</ele><time>2026-04-06T12:50:54.685Z</time></trkpt><trkpt lat="43.789975" lon="12.454575"><ele>298.3333333333333</ele><time>2026-04-06T12:50:55.683Z</time></trkpt><trkpt lat="43.789955" lon="12.4544633"><ele>297.5</ele><time>2026-04-06T12:50:56.686Z</time></trkpt><trkpt lat="43.7899383" lon="12.4543567"><ele>296.66666666666663</ele><time>2026-04-06T12:50:57.684Z</time></trkpt><trkpt lat="43.7899267" lon="12.4542617"><ele>295.8333333333333</ele><time>2026-04-06T12:50:58.684Z</time></trkpt><trkpt lat="43.7899183" lon="12.4541633"><ele>295.0</ele><time>2026-04-06T12:50:59.684Z</time></trkpt><trkpt lat="43.7899117" lon="12.4540717"><ele>295.0</ele><time>2026-04-06T12:51:00.684Z</time></trkpt><trkpt lat="43.7899017" lon="12.453975"><ele>295.0</ele><time>2026-04-06T12:51:01.686Z</time></trkpt><trkpt lat="43.7898933" lon="12.4538683"><ele>295.0</ele><time>2026-04-06T12:51:02.682Z</time></trkpt><trkpt lat="43.7898883" lon="12.4537583"><ele>295.0</ele><time>2026-04-06T12:51:03.685Z</time></trkpt><trkpt lat="43.78989" lon="12.4536567"><ele>295.0</ele><time>2026-04-06T12:51:04.685Z</time></trkpt><trkpt lat="43.7898867" lon="12.4535233"><ele>295.0</ele><time>2026-04-06T12:51:05.684Z</time></trkpt><trkpt lat="43.7898833" lon="12.45339"><ele>293.3333333333333</ele><time>2026-04-06T12:51:06.684Z</time></trkpt><trkpt lat="43.789885" lon="12.453255"><ele>291.66666666666663</ele><time>2026-04-06T12:51:07.683Z</time></trkpt><trkpt lat="43.789875" lon="12.4531283"><ele>290.0</ele><time>2026-04-06T12:51:08.681Z</time></trkpt><trkpt lat="43.7898617" lon="12.453005"><ele>288.3333333333333</ele><time>2026-04-06T12:51:09.684Z</time></trkpt><trkpt lat="43.789835" lon="12.4528917"><ele>286.6666666666667</ele><time>2026-04-06T12:51:10.686Z</time></trkpt><trkpt lat="43.78981" lon="12.4527933"><ele>285.0</ele><time>2026-04-06T12:51:11.682Z</time></trkpt><trkpt lat="43.78978" lon="12.45269"><ele>283.0</ele><time>2026-04-06T12:51:12.684Z</time></trkpt><trkpt lat="43.7897533" lon="12.45259"><ele>281.0</ele><time>2026-04-06T12:51:13.684Z</time></trkpt><trkpt lat="43.7897333" lon="12.4524917"><ele>279.0</ele><time>2026-04-06T12:51:14.683Z</time></trkpt><trkpt lat="43.789725" lon="12.4523367"><ele>277.0</ele><time>2026-04-06T12:51:16.684Z</time></trkpt><trkpt lat="43.789715" lon="12.45223"><ele>275.0</ele><time>2026-04-06T12:51:18.683Z</time></trkpt><trkpt lat="43.7897967" lon="12.45219"><ele>273.0</ele><time>2026-04-06T12:51:21.684Z</time></trkpt><trkpt lat="43.7898617" lon="12.4521867"><ele>273.0</ele><time>2026-04-06T12:51:22.686Z</time></trkpt><trkpt lat="43.7899533" lon="12.45219"><ele>273.0</ele><time>2026-04-06T12:51:23.684Z</time></trkpt><trkpt lat="43.790055" lon="12.452195"><ele>273.0</ele><time>2026-04-06T12:51:24.684Z</time></trkpt><trkpt lat="43.7901583" lon="12.4522"><ele>273.0</ele><time>2026-04-06T12:51:25.685Z</time></trkpt><trkpt lat="43.790265" lon="12.4522"><ele>273.0</ele><time>2026-04-06T12:51:26.683Z</time></trkpt><trkpt lat="43.7903683" lon="12.4521933"><ele>273.0</ele><time>2026-04-06T12:51:27.682Z</time></trkpt><trkpt lat="43.7904567" lon="12.452175"><ele>273.0</ele><time>2026-04-06T12:51:28.686Z</time></trkpt><trkpt lat="43.7905433" lon="12.45214"><ele>273.0</ele><time>2026-04-06T12:51:29.685Z</time></trkpt><trkpt lat="43.7906233" lon="12.452095"><ele>273.0</ele><time>2026-04-06T12:51:30.683Z</time></trkpt><trkpt lat="43.7907" lon="12.452035"><ele>273.0</ele><time>2026-04-06T12:51:31.684Z</time></trkpt><trkpt lat="43.7907767" lon="12.451955"><ele>273.0</ele><time>2026-04-06T12:51:32.684Z</time></trkpt><trkpt lat="43.7908483" lon="12.451865"><ele>273.0</ele><time>2026-04-06T12:51:33.684Z</time></trkpt><trkpt lat="43.7909133" lon="12.45176"><ele>273.0</ele><time>2026-04-06T12:51:34.684Z</time></trkpt><trkpt lat="43.7909733" lon="12.45165"><ele>273.0</ele><time>2026-04-06T12:51:35.686Z</time></trkpt><trkpt lat="43.79103" lon="12.451545"><ele>273.0</ele><time>2026-04-06T12:51:36.684Z</time></trkpt><trkpt lat="43.79108" lon="12.4514467"><ele>275.8333333333333</ele><time>2026-04-06T12:51:37.684Z</time></trkpt><trkpt lat="43.7911333" lon="12.4513517"><ele>278.6666666666667</ele><time>2026-04-06T12:51:38.683Z</time></trkpt><trkpt lat="43.791185" lon="12.4512567"><ele>281.5</ele><time>2026-04-06T12:51:39.684Z</time></trkpt><trkpt lat="43.7912333" lon="12.45116"><ele>284.33333333333337</ele><time>2026-04-06T12:51:40.685Z</time></trkpt><trkpt lat="43.79128" lon="12.4510633"><ele>287.1666666666667</ele><time>2026-04-06T12:51:41.686Z</time></trkpt><trkpt lat="43.791325" lon="12.4509683"><ele>290.0</ele><time>2026-04-06T12:51:42.683Z</time></trkpt><trkpt lat="43.79137" lon="12.45088"><ele>290.0</ele><time>2026-04-06T12:51:43.684Z</time></trkpt><trkpt lat="43.79141" lon="12.4507933"><ele>290.0</ele><time>2026-04-06T12:51:44.686Z</time></trkpt><trkpt lat="43.7914467" lon="12.4507017"><ele>290.0</ele><time>2026-04-06T12:51:45.685Z</time></trkpt><trkpt lat="43.7914833" lon="12.4506083"><ele>290.0</ele><time>2026-04-06T12:51:46.684Z</time></trkpt><trkpt lat="43.79152" lon="12.4505217"><ele>290.0</ele><time>2026-04-06T12:51:47.684Z</time></trkpt><trkpt lat="43.7915533" lon="12.4504433"><ele>290.0</ele><time>2026-04-06T12:51:48.683Z</time></trkpt><trkpt lat="43.791605" lon="12.45029"><ele>288.33333333333337</ele><time>2026-04-06T12:51:50.683Z</time></trkpt><trkpt lat="43.7916533" lon="12.4501517"><ele>286.6666666666667</ele><time>2026-04-06T12:51:52.684Z</time></trkpt><trkpt lat="43.79169" lon="12.4500667"><ele>285.0</ele><time>2026-04-06T12:51:54.684Z</time></trkpt><trkpt lat="43.7916983" lon="12.4499683"><ele>283.3333333333333</ele><time>2026-04-06T12:51:58.683Z</time></trkpt><trkpt lat="43.7916533" lon="12.4498933"><ele>281.66666666666663</ele><time>2026-04-06T12:52:00.683Z</time></trkpt><trkpt lat="43.7916033" lon="12.4498083"><ele>280.0</ele><time>2026-04-06T12:52:02.683Z</time></trkpt><trkpt lat="43.791565" lon="12.4496917"><ele>278.8</ele><time>2026-04-06T12:52:04.683Z</time></trkpt><trkpt lat="43.7915333" lon="12.4495783"><ele>277.6</ele><time>2026-04-06T12:52:06.684Z</time></trkpt><trkpt lat="43.79146" lon="12.4494933"><ele>276.4</ele><time>2026-04-06T12:52:08.684Z</time></trkpt><trkpt lat="43.7913617" lon="12.4494617"><ele>275.2</ele><time>2026-04-06T12:52:10.684Z</time></trkpt><trkpt lat="43.7912317" lon="12.44948"><ele>274.0</ele><time>2026-04-06T12:52:12.685Z</time></trkpt><trkpt lat="43.7911667" lon="12.4494917"><ele>274.0</ele><time>2026-04-06T12:52:13.685Z</time></trkpt><trkpt lat="43.7910633" lon="12.4495067"><ele>274.0</ele><time>2026-04-06T12:52:15.683Z</time></trkpt><trkpt lat="43.7909933" lon="12.4495167"><ele>274.0</ele><time>2026-04-06T12:52:18.684Z</time></trkpt><trkpt lat="43.7909517" lon="12.4494117"><ele>274.0</ele><time>2026-04-06T12:52:28.686Z</time></trkpt><trkpt lat="43.790915" lon="12.4493033"><ele>274.0</ele><time>2026-04-06T12:52:30.684Z</time></trkpt><trkpt lat="43.790875" lon="12.44915"><ele>274.00000000000006</ele><time>2026-04-06T12:52:32.685Z</time></trkpt><trkpt lat="43.7908517" lon="12.4490617"><ele>274.0</ele><time>2026-04-06T12:52:33.685Z</time></trkpt><trkpt lat="43.790825" lon="12.4489717"><ele>274.0</ele><time>2026-04-06T12:52:34.685Z</time></trkpt><trkpt lat="43.7907933" lon="12.44888"><ele>274.0</ele><time>2026-04-06T12:52:35.685Z</time></trkpt><trkpt lat="43.790755" lon="12.4487917"><ele>274.0</ele><time>2026-04-06T12:52:36.684Z</time></trkpt><trkpt lat="43.7907067" lon="12.4487133"><ele>274.00000000000006</ele><time>2026-04-06T12:52:37.685Z</time></trkpt><trkpt lat="43.7906583" lon="12.44864"><ele>274.0</ele><time>2026-04-06T12:52:38.687Z</time></trkpt><trkpt lat="43.7906217" lon="12.4485617"><ele>274.14285714285717</ele><time>2026-04-06T12:52:39.686Z</time></trkpt><trkpt lat="43.7905967" lon="12.4484733"><ele>274.2857142857143</ele><time>2026-04-06T12:52:40.683Z</time></trkpt><trkpt lat="43.7905783" lon="12.44838"><ele>274.42857142857144</ele><time>2026-04-06T12:52:41.686Z</time></trkpt><trkpt lat="43.790565" lon="12.4482817"><ele>274.57142857142856</ele><time>2026-04-06T12:52:42.685Z</time></trkpt><trkpt lat="43.790555" lon="12.4481833"><ele>274.7142857142857</ele><time>2026-04-06T12:52:43.683Z</time></trkpt><trkpt lat="43.79054" lon="12.4480783"><ele>274.8571428571429</ele><time>2026-04-06T12:52:44.684Z</time></trkpt><trkpt lat="43.7905267" lon="12.44798"><ele>275.0</ele><time>2026-04-06T12:52:45.684Z</time></trkpt><trkpt lat="43.7905267" lon="12.4478783"><ele>275.2</ele><time>2026-04-06T12:52:46.685Z</time></trkpt><trkpt lat="43.7905317" lon="12.447785"><ele>275.4</ele><time>2026-04-06T12:52:47.686Z</time></trkpt><trkpt lat="43.7905417" lon="12.447695"><ele>275.6</ele><time>2026-04-06T12:52:48.685Z</time></trkpt><trkpt lat="43.790535" lon="12.447555"><ele>275.8</ele><time>2026-04-06T12:52:50.684Z</time></trkpt><trkpt lat="43.7905067" lon="12.4474117"><ele>276.0</ele><time>2026-04-06T12:52:52.685Z</time></trkpt><trkpt lat="43.7904617" lon="12.4472683"><ele>276.0</ele><time>2026-04-06T12:52:54.685Z</time></trkpt><trkpt lat="43.7903867" lon="12.4471783"><ele>276.0</ele><time>2026-04-06T12:52:56.685Z</time></trkpt><trkpt lat="43.7902717" lon="12.4471217"><ele>276.0</ele><time>2026-04-06T12:52:58.685Z</time></trkpt><trkpt lat="43.79021" lon="12.447075"><ele>276.0</ele><time>2026-04-06T12:52:59.688Z</time></trkpt><trkpt lat="43.7901517" lon="12.44702"><ele>276.0</ele><time>2026-04-06T12:53:00.685Z</time></trkpt><trkpt lat="43.7900883" lon="12.446955"><ele>276.0</ele><time>2026-04-06T12:53:01.685Z</time></trkpt><trkpt lat="43.7900267" lon="12.4468967"><ele>279.6666666666667</ele><time>2026-04-06T12:53:02.684Z</time></trkpt><trkpt lat="43.7899733" lon="12.446835"><ele>283.3333333333333</ele><time>2026-04-06T12:53:03.684Z</time></trkpt><trkpt lat="43.789915" lon="12.4467833"><ele>287.0</ele><time>2026-04-06T12:53:04.685Z</time></trkpt><trkpt lat="43.7898483" lon="12.4467517"><ele>290.66666666666663</ele><time>2026-04-06T12:53:05.684Z</time></trkpt><trkpt lat="43.78978" lon="12.4467333"><ele>294.3333333333333</ele><time>2026-04-06T12:53:06.684Z</time></trkpt><trkpt lat="43.789665" lon="12.4467583"><ele>298.0</ele><time>2026-04-06T12:53:08.684Z</time></trkpt><trkpt lat="43.7895667" lon="12.446845"><ele>298.0</ele><time>2026-04-06T12:53:10.684Z</time></trkpt><trkpt lat="43.78952" lon="12.4469167"><ele>298.0</ele><time>2026-04-06T12:53:11.688Z</time></trkpt><trkpt lat="43.7894333" lon="12.447055"><ele>298.0</ele><time>2026-04-06T12:53:13.687Z</time></trkpt><trkpt lat="43.7893817" lon="12.447125"><ele>298.0</ele><time>2026-04-06T12:53:14.684Z</time></trkpt><trkpt lat="43.789335" lon="12.4472"><ele>298.0</ele><time>2026-04-06T12:53:15.684Z</time></trkpt><trkpt lat="43.7892983" lon="12.4472817"><ele>298.0</ele><time>2026-04-06T12:53:16.685Z</time></trkpt><trkpt lat="43.7892617" lon="12.4473617"><ele>301.66666666666663</ele><time>2026-04-06T12:53:17.686Z</time></trkpt><trkpt lat="43.7892117" lon="12.447445"><ele>305.3333333333333</ele><time>2026-04-06T12:53:18.684Z</time></trkpt><trkpt lat="43.78915" lon="12.4475233"><ele>309.0</ele><time>2026-04-06T12:53:19.685Z</time></trkpt><trkpt lat="43.7890783" lon="12.4475833"><ele>312.6666666666667</ele><time>2026-04-06T12:53:20.685Z</time></trkpt><trkpt lat="43.7890067" lon="12.4476433"><ele>316.33333333333337</ele><time>2026-04-06T12:53:21.684Z</time></trkpt><trkpt lat="43.7889333" lon="12.44771"><ele>320.0</ele><time>2026-04-06T12:53:22.688Z</time></trkpt><trkpt lat="43.7888633" lon="12.4477833"><ele>320.0</ele><time>2026-04-06T12:53:23.687Z</time></trkpt><trkpt lat="43.7887933" lon="12.4478467"><ele>320.0</ele><time>2026-04-06T12:53:24.684Z</time></trkpt><trkpt lat="43.78872" lon="12.4479"><ele>320.0</ele><time>2026-04-06T12:53:25.688Z</time></trkpt><trkpt lat="43.7886433" lon="12.4479467"><ele>320.0</ele><time>2026-04-06T12:53:26.685Z</time></trkpt><trkpt lat="43.7885717" lon="12.4479967"><ele>320.0</ele><time>2026-04-06T12:53:27.686Z</time></trkpt><trkpt lat="43.7885117" lon="12.4480533"><ele>320.0</ele><time>2026-04-06T12:53:28.685Z</time></trkpt><trkpt lat="43.78846" lon="12.4481117"><ele>323.5</ele><time>2026-04-06T12:53:29.684Z</time></trkpt><trkpt lat="43.788375" lon="12.4482483"><ele>327.0</ele><time>2026-04-06T12:53:31.685Z</time></trkpt><trkpt lat="43.7883317" lon="12.4483117"><ele>330.5</ele><time>2026-04-06T12:53:32.686Z</time></trkpt><trkpt lat="43.7882433" lon="12.44837"><ele>334.0</ele><time>2026-04-06T12:53:34.686Z</time></trkpt><trkpt lat="43.78818" lon="12.448305"><ele>337.5</ele><time>2026-04-06T12:53:36.684Z</time></trkpt><trkpt lat="43.788175" lon="12.4481983"><ele>341.0</ele><time>2026-04-06T12:53:38.685Z</time></trkpt><trkpt lat="43.7882333" lon="12.4480867"><ele>342.8</ele><time>2026-04-06T12:53:40.685Z</time></trkpt><trkpt lat="43.78828" lon="12.4479233"><ele>344.6</ele><time>2026-04-06T12:53:42.685Z</time></trkpt><trkpt lat="43.788265" lon="12.4477633"><ele>346.4</ele><time>2026-04-06T12:53:44.686Z</time></trkpt><trkpt lat="43.788185" lon="12.447635"><ele>348.2</ele><time>2026-04-06T12:53:46.684Z</time></trkpt><trkpt lat="43.788125" lon="12.4475783"><ele>350.0</ele><time>2026-04-06T12:53:47.779Z</time></trkpt><trkpt lat="43.7880633" lon="12.4475233"><ele>350.0</ele><time>2026-04-06T12:53:48.685Z</time></trkpt><trkpt lat="43.7880067" lon="12.4474667"><ele>350.0</ele><time>2026-04-06T12:53:49.685Z</time></trkpt><trkpt lat="43.7879467" lon="12.4474033"><ele>350.0</ele><time>2026-04-06T12:53:50.686Z</time></trkpt><trkpt lat="43.7878733" lon="12.4473433"><ele>350.0</ele><time>2026-04-06T12:53:51.685Z</time></trkpt><trkpt lat="43.7877933" lon="12.447295"><ele>350.0</ele><time>2026-04-06T12:53:52.685Z</time></trkpt><trkpt lat="43.7877117" lon="12.4472583"><ele>350.0</ele><time>2026-04-06T12:53:53.688Z</time></trkpt><trkpt lat="43.7876267" lon="12.4472367"><ele>353.33333333333337</ele><time>2026-04-06T12:53:54.685Z</time></trkpt><trkpt lat="43.78754" lon="12.44723"><ele>356.6666666666667</ele><time>2026-04-06T12:53:55.687Z</time></trkpt><trkpt lat="43.7874567" lon="12.44724"><ele>360.0</ele><time>2026-04-06T12:53:56.687Z</time></trkpt><trkpt lat="43.7873817" lon="12.4472683"><ele>363.3333333333333</ele><time>2026-04-06T12:53:57.686Z</time></trkpt><trkpt lat="43.78732" lon="12.447315"><ele>366.66666666666663</ele><time>2026-04-06T12:53:58.686Z</time></trkpt><trkpt lat="43.7872667" lon="12.447375"><ele>370.0</ele><time>2026-04-06T12:53:59.683Z</time></trkpt><trkpt lat="43.7872133" lon="12.4474483"><ele>370.0</ele><time>2026-04-06T12:54:00.685Z</time></trkpt><trkpt lat="43.7871617" lon="12.4475317"><ele>370.0</ele><time>2026-04-06T12:54:01.687Z</time></trkpt><trkpt lat="43.787105" lon="12.4476217"><ele>370.0</ele><time>2026-04-06T12:54:02.686Z</time></trkpt><trkpt lat="43.787045" lon="12.447715"><ele>370.0</ele><time>2026-04-06T12:54:03.684Z</time></trkpt><trkpt lat="43.78698" lon="12.4478"><ele>370.0</ele><time>2026-04-06T12:54:04.684Z</time></trkpt><trkpt lat="43.7869167" lon="12.4478683"><ele>370.0</ele><time>2026-04-06T12:54:05.685Z</time></trkpt><trkpt lat="43.7868533" lon="12.447925"><ele>371.3333333333333</ele><time>2026-04-06T12:54:06.686Z</time></trkpt><trkpt lat="43.786785" lon="12.4479683"><ele>372.66666666666663</ele><time>2026-04-06T12:54:07.685Z</time></trkpt><trkpt lat="43.786715" lon="12.44799"><ele>374.0</ele><time>2026-04-06T12:54:08.685Z</time></trkpt><trkpt lat="43.78664" lon="12.4479867"><ele>375.3333333333333</ele><time>2026-04-06T12:54:09.683Z</time></trkpt><trkpt lat="43.7865567" lon="12.4479617"><ele>376.6666666666667</ele><time>2026-04-06T12:54:10.685Z</time></trkpt><trkpt lat="43.7864717" lon="12.4479117"><ele>378.0</ele><time>2026-04-06T12:54:11.686Z</time></trkpt><trkpt lat="43.7863817" lon="12.4478467"><ele>378.0</ele><time>2026-04-06T12:54:12.683Z</time></trkpt><trkpt lat="43.7862883" lon="12.447775"><ele>378.0</ele><time>2026-04-06T12:54:13.686Z</time></trkpt><trkpt lat="43.7862" lon="12.4476983"><ele>378.0</ele><time>2026-04-06T12:54:14.682Z</time></trkpt><trkpt lat="43.7861117" lon="12.4476233"><ele>378.0</ele><time>2026-04-06T12:54:15.682Z</time></trkpt><trkpt lat="43.7860217" lon="12.44755"><ele>378.0</ele><time>2026-04-06T12:54:16.684Z</time></trkpt><trkpt lat="43.7859267" lon="12.4474833"><ele>382.2</ele><time>2026-04-06T12:54:17.685Z</time></trkpt><trkpt lat="43.7858267" lon="12.447425"><ele>386.4</ele><time>2026-04-06T12:54:18.684Z</time></trkpt><trkpt lat="43.7857317" lon="12.4473733"><ele>390.59999999999997</ele><time>2026-04-06T12:54:19.685Z</time></trkpt><trkpt lat="43.7856433" lon="12.447335"><ele>394.79999999999995</ele><time>2026-04-06T12:54:20.684Z</time></trkpt><trkpt lat="43.7855583" lon="12.44731"><ele>399.0</ele><time>2026-04-06T12:54:21.682Z</time></trkpt><trkpt lat="43.7854633" lon="12.4473017"><ele>399.0</ele><time>2026-04-06T12:54:22.685Z</time></trkpt><trkpt lat="43.7853683" lon="12.4472933"><ele>399.0</ele><time>2026-04-06T12:54:23.684Z</time></trkpt><trkpt lat="43.7852883" lon="12.44728"><ele>399.0</ele><time>2026-04-06T12:54:24.684Z</time></trkpt><trkpt lat="43.78519" lon="12.4472333"><ele>399.0</ele><time>2026-04-06T12:54:26.685Z</time></trkpt><trkpt lat="43.7851617" lon="12.447135"><ele>399.0</ele><time>2026-04-06T12:54:28.685Z</time></trkpt><trkpt lat="43.7851517" lon="12.446985"><ele>399.5</ele><time>2026-04-06T12:54:30.684Z</time></trkpt><trkpt lat="43.7850817" lon="12.44685"><ele>400.0</ele><time>2026-04-06T12:54:32.685Z</time></trkpt><trkpt lat="43.785025" lon="12.446805"><ele>400.5</ele><time>2026-04-06T12:54:33.684Z</time></trkpt><trkpt lat="43.78496" lon="12.4467683"><ele>401.0</ele><time>2026-04-06T12:54:34.684Z</time></trkpt><trkpt lat="43.7848833" lon="12.446735"><ele>401.5</ele><time>2026-04-06T12:54:35.685Z</time></trkpt><trkpt lat="43.7848" lon="12.4467017"><ele>402.0</ele><time>2026-04-06T12:54:36.685Z</time></trkpt><trkpt lat="43.7847167" lon="12.4466717"><ele>402.0</ele><time>2026-04-06T12:54:37.687Z</time></trkpt><trkpt lat="43.78464" lon="12.4466383"><ele>402.0</ele><time>2026-04-06T12:54:38.685Z</time></trkpt><trkpt lat="43.7845683" lon="12.44661"><ele>402.0</ele><time>2026-04-06T12:54:39.686Z</time></trkpt><trkpt lat="43.784495" lon="12.446585"><ele>402.0</ele><time>2026-04-06T12:54:40.686Z</time></trkpt><trkpt lat="43.78442" lon="12.4465633"><ele>402.0</ele><time>2026-04-06T12:54:41.684Z</time></trkpt><trkpt lat="43.78434" lon="12.4465433"><ele>402.0</ele><time>2026-04-06T12:54:42.684Z</time></trkpt><trkpt lat="43.78426" lon="12.4465133"><ele>401.0</ele><time>2026-04-06T12:54:43.687Z</time></trkpt><trkpt lat="43.784175" lon="12.44648"><ele>400.0</ele><time>2026-04-06T12:54:44.682Z</time></trkpt><trkpt lat="43.7840933" lon="12.446445"><ele>399.0</ele><time>2026-04-06T12:54:45.685Z</time></trkpt><trkpt lat="43.7840133" lon="12.4464117"><ele>398.0</ele><time>2026-04-06T12:54:46.684Z</time></trkpt><trkpt lat="43.7839383" lon="12.4463783"><ele>397.0</ele><time>2026-04-06T12:54:47.684Z</time></trkpt><trkpt lat="43.7838683" lon="12.44635"><ele>396.0</ele><time>2026-04-06T12:54:48.685Z</time></trkpt><trkpt lat="43.783805" lon="12.4463267"><ele>394.0</ele><time>2026-04-06T12:54:49.687Z</time></trkpt><trkpt lat="43.7836883" lon="12.4462867"><ele>392.0</ele><time>2026-04-06T12:54:51.684Z</time></trkpt><trkpt lat="43.7835667" lon="12.4462617"><ele>390.0</ele><time>2026-04-06T12:54:53.686Z</time></trkpt><trkpt lat="43.78346" lon="12.4462633"><ele>388.0</ele><time>2026-04-06T12:54:55.684Z</time></trkpt><trkpt lat="43.78336" lon="12.446295"><ele>388.0</ele><time>2026-04-06T12:54:57.685Z</time></trkpt><trkpt lat="43.78326" lon="12.4462833"><ele>388.0</ele><time>2026-04-06T12:54:59.685Z</time></trkpt><trkpt lat="43.7831917" lon="12.4461917"><ele>388.0</ele><time>2026-04-06T12:55:01.687Z</time></trkpt><trkpt lat="43.7831517" lon="12.4460383"><ele>388.0</ele><time>2026-04-06T12:55:03.685Z</time></trkpt><trkpt lat="43.783165" lon="12.4458783"><ele>388.0</ele><time>2026-04-06T12:55:05.682Z</time></trkpt><trkpt lat="43.78321" lon="12.4457233"><ele>388.00000000000006</ele><time>2026-04-06T12:55:07.687Z</time></trkpt><trkpt lat="43.7832733" lon="12.44559"><ele>388.0</ele><time>2026-04-06T12:55:09.684Z</time></trkpt><trkpt lat="43.7833117" lon="12.4455167"><ele>388.0</ele><time>2026-04-06T12:55:10.686Z</time></trkpt><trkpt lat="43.7833583" lon="12.4454317"><ele>388.0</ele><time>2026-04-06T12:55:11.685Z</time></trkpt><trkpt lat="43.78341" lon="12.4453467"><ele>388.00000000000006</ele><time>2026-04-06T12:55:12.685Z</time></trkpt><trkpt lat="43.7834667" lon="12.4452633"><ele>388.0</ele><time>2026-04-06T12:55:13.685Z</time></trkpt><trkpt lat="43.7835267" lon="12.4451867"><ele>390.50000000000006</ele><time>2026-04-06T12:55:14.682Z</time></trkpt><trkpt lat="43.7835917" lon="12.44511"><ele>393.0</ele><time>2026-04-06T12:55:15.683Z</time></trkpt><trkpt lat="43.78366" lon="12.4450267"><ele>395.5</ele><time>2026-04-06T12:55:16.684Z</time></trkpt><trkpt lat="43.783725" lon="12.444935"><ele>398.0</ele><time>2026-04-06T12:55:17.683Z</time></trkpt><trkpt lat="43.7837867" lon="12.4448383"><ele>400.50000000000006</ele><time>2026-04-06T12:55:18.686Z</time></trkpt><trkpt lat="43.7838433" lon="12.4447483"><ele>403.0</ele><time>2026-04-06T12:55:19.687Z</time></trkpt><trkpt lat="43.7838983" lon="12.4446633"><ele>402.00000000000006</ele><time>2026-04-06T12:55:20.682Z</time></trkpt><trkpt lat="43.7839467" lon="12.4445783"><ele>401.0</ele><time>2026-04-06T12:55:21.686Z</time></trkpt><trkpt lat="43.783985" lon="12.4444817"><ele>400.0</ele><time>2026-04-06T12:55:22.684Z</time></trkpt><trkpt lat="43.78401" lon="12.4443833"><ele>399.0</ele><time>2026-04-06T12:55:23.687Z</time></trkpt><trkpt lat="43.7840167" lon="12.444275"><ele>398.00000000000006</ele><time>2026-04-06T12:55:24.685Z</time></trkpt><trkpt lat="43.7840083" lon="12.44416"><ele>397.0</ele><time>2026-04-06T12:55:25.687Z</time></trkpt><trkpt lat="43.7839883" lon="12.44404"><ele>397.00000000000006</ele><time>2026-04-06T12:55:26.686Z</time></trkpt><trkpt lat="43.783965" lon="12.4439233"><ele>397.0</ele><time>2026-04-06T12:55:27.685Z</time></trkpt><trkpt lat="43.7839417" lon="12.4438167"><ele>397.0</ele><time>2026-04-06T12:55:28.686Z</time></trkpt><trkpt lat="43.783925" lon="12.44372"><ele>397.0</ele><time>2026-04-06T12:55:29.685Z</time></trkpt><trkpt lat="43.7839233" lon="12.44362"><ele>397.00000000000006</ele><time>2026-04-06T12:55:30.685Z</time></trkpt><trkpt lat="43.783935" lon="12.4435183"><ele>397.0</ele><time>2026-04-06T12:55:31.686Z</time></trkpt><trkpt lat="43.7839517" lon="12.4434067"><ele>396.0</ele><time>2026-04-06T12:55:32.686Z</time></trkpt><trkpt lat="43.783975" lon="12.44329"><ele>395.0</ele><time>2026-04-06T12:55:33.686Z</time></trkpt><trkpt lat="43.7839933" lon="12.44317"><ele>394.0</ele><time>2026-04-06T12:55:34.685Z</time></trkpt><trkpt lat="43.78401" lon="12.4430367"><ele>393.0</ele><time>2026-04-06T12:55:35.686Z</time></trkpt><trkpt lat="43.784025" lon="12.4429"><ele>392.0</ele><time>2026-04-06T12:55:36.685Z</time></trkpt><trkpt lat="43.784045" lon="12.4427717"><ele>390.99999999999994</ele><time>2026-04-06T12:55:37.687Z</time></trkpt><trkpt lat="43.7840717" lon="12.4426467"><ele>390.0</ele><time>2026-04-06T12:55:38.686Z</time></trkpt><trkpt lat="43.784105" lon="12.4425367"><ele>389.0</ele><time>2026-04-06T12:55:39.686Z</time></trkpt><trkpt lat="43.7841417" lon="12.4424417"><ele>388.0</ele><time>2026-04-06T12:55:40.685Z</time></trkpt><trkpt lat="43.7841883" lon="12.442355"><ele>386.99999999999994</ele><time>2026-04-06T12:55:41.686Z</time></trkpt><trkpt lat="43.7842483" lon="12.44228"><ele>386.0</ele><time>2026-04-06T12:55:42.685Z</time></trkpt><trkpt lat="43.7843167" lon="12.442225"><ele>386.99999999999994</ele><time>2026-04-06T12:55:43.687Z</time></trkpt><trkpt lat="43.7843833" lon="12.4421833"><ele>388.0</ele><time>2026-04-06T12:55:44.683Z</time></trkpt><trkpt lat="43.7844617" lon="12.442155"><ele>389.0</ele><time>2026-04-06T12:55:45.685Z</time></trkpt><trkpt lat="43.7845517" lon="12.4421233"><ele>390.0</ele><time>2026-04-06T12:55:46.686Z</time></trkpt><trkpt lat="43.7846433" lon="12.44209"><ele>390.99999999999994</ele><time>2026-04-06T12:55:47.686Z</time></trkpt><trkpt lat="43.7847283" lon="12.4420467"><ele>392.0</ele><time>2026-04-06T12:55:48.686Z</time></trkpt><trkpt lat="43.784805" lon="12.4419867"><ele>391.99999999999994</ele><time>2026-04-06T12:55:49.686Z</time></trkpt><trkpt lat="43.7848683" lon="12.44191"><ele>392.0</ele><time>2026-04-06T12:55:50.686Z</time></trkpt><trkpt lat="43.7849217" lon="12.4418217"><ele>392.0</ele><time>2026-04-06T12:55:51.686Z</time></trkpt><trkpt lat="43.7849717" lon="12.44173"><ele>392.0</ele><time>2026-04-06T12:55:52.686Z</time></trkpt><trkpt lat="43.78502" lon="12.4416467"><ele>391.99999999999994</ele><time>2026-04-06T12:55:53.686Z</time></trkpt><trkpt lat="43.7850683" lon="12.4415667"><ele>392.0</ele><time>2026-04-06T12:55:54.685Z</time></trkpt><trkpt lat="43.7851183" lon="12.4414933"><ele>391.99999999999994</ele><time>2026-04-06T12:55:55.687Z</time></trkpt><trkpt lat="43.785175" lon="12.4414233"><ele>392.0</ele><time>2026-04-06T12:55:56.683Z</time></trkpt><trkpt lat="43.78523" lon="12.4413583"><ele>392.0</ele><time>2026-04-06T12:55:57.686Z</time></trkpt><trkpt lat="43.7852817" lon="12.4413017"><ele>392.0</ele><time>2026-04-06T12:55:58.685Z</time></trkpt><trkpt lat="43.7853933" lon="12.4412167"><ele>391.99999999999994</ele><time>2026-04-06T12:56:00.684Z</time></trkpt><trkpt lat="43.7854617" lon="12.441185"><ele>392.0</ele><time>2026-04-06T12:56:01.686Z</time></trkpt><trkpt lat="43.7855533" lon="12.4411583"><ele>389.8</ele><time>2026-04-06T12:56:02.685Z</time></trkpt><trkpt lat="43.7856567" lon="12.4411217"><ele>387.6</ele><time>2026-04-06T12:56:03.684Z</time></trkpt><trkpt lat="43.78576" lon="12.4410767"><ele>385.40000000000003</ele><time>2026-04-06T12:56:04.684Z</time></trkpt><trkpt lat="43.7858583" lon="12.4410183"><ele>383.20000000000005</ele><time>2026-04-06T12:56:05.687Z</time></trkpt><trkpt lat="43.7859467" lon="12.4409533"><ele>381.0</ele><time>2026-04-06T12:56:06.685Z</time></trkpt><trkpt lat="43.7860333" lon="12.440885"><ele>380.8</ele><time>2026-04-06T12:56:07.686Z</time></trkpt><trkpt lat="43.7861083" lon="12.4408117"><ele>380.6</ele><time>2026-04-06T12:56:08.684Z</time></trkpt><trkpt lat="43.7861833" lon="12.4407267"><ele>380.4</ele><time>2026-04-06T12:56:09.684Z</time></trkpt><trkpt lat="43.7862567" lon="12.440625"><ele>380.2</ele><time>2026-04-06T12:56:10.686Z</time></trkpt><trkpt lat="43.786315" lon="12.440505"><ele>380.0</ele><time>2026-04-06T12:56:11.682Z</time></trkpt><trkpt lat="43.786385" lon="12.4403767"><ele>379.75</ele><time>2026-04-06T12:56:12.684Z</time></trkpt><trkpt lat="43.786455" lon="12.4402483"><ele>379.5</ele><time>2026-04-06T12:56:13.687Z</time></trkpt><trkpt lat="43.7865317" lon="12.440125"><ele>379.25</ele><time>2026-04-06T12:56:14.686Z</time></trkpt><trkpt lat="43.7866167" lon="12.440005"><ele>379.0</ele><time>2026-04-06T12:56:15.685Z</time></trkpt><trkpt lat="43.78671" lon="12.4398817"><ele>379.0</ele><time>2026-04-06T12:56:16.684Z</time></trkpt><trkpt lat="43.7868" lon="12.439755"><ele>379.0</ele><time>2026-04-06T12:56:17.687Z</time></trkpt><trkpt lat="43.7868817" lon="12.43962"><ele>379.0</ele><time>2026-04-06T12:56:18.686Z</time></trkpt><trkpt lat="43.7869583" lon="12.4394867"><ele>379.0</ele><time>2026-04-06T12:56:19.688Z</time></trkpt><trkpt lat="43.7870317" lon="12.4393617"><ele>380.4</ele><time>2026-04-06T12:56:20.683Z</time></trkpt><trkpt lat="43.7871033" lon="12.4392533"><ele>381.79999999999995</ele><time>2026-04-06T12:56:21.683Z</time></trkpt><trkpt lat="43.7871717" lon="12.43915"><ele>383.20000000000005</ele><time>2026-04-06T12:56:22.684Z</time></trkpt><trkpt lat="43.7872367" lon="12.4390583"><ele>384.6</ele><time>2026-04-06T12:56:23.685Z</time></trkpt><trkpt lat="43.7873017" lon="12.4389733"><ele>386.0</ele><time>2026-04-06T12:56:24.685Z</time></trkpt><trkpt lat="43.7873717" lon="12.4388967"><ele>386.0</ele><time>2026-04-06T12:56:25.687Z</time></trkpt><trkpt lat="43.7874367" lon="12.4388367"><ele>386.0</ele><time>2026-04-06T12:56:26.683Z</time></trkpt><trkpt lat="43.787505" lon="12.4387933"><ele>386.0</ele><time>2026-04-06T12:56:27.683Z</time></trkpt><trkpt lat="43.7875867" lon="12.4387583"><ele>386.0</ele><time>2026-04-06T12:56:28.686Z</time></trkpt><trkpt lat="43.787685" lon="12.43873"><ele>386.0</ele><time>2026-04-06T12:56:29.686Z</time></trkpt><trkpt lat="43.7878" lon="12.4387033"><ele>389.25</ele><time>2026-04-06T12:56:30.686Z</time></trkpt><trkpt lat="43.787915" lon="12.4386733"><ele>392.5</ele><time>2026-04-06T12:56:31.686Z</time></trkpt><trkpt lat="43.7880317" lon="12.43865"><ele>395.75</ele><time>2026-04-06T12:56:32.686Z</time></trkpt><trkpt lat="43.7881467" lon="12.4386267"><ele>399.0</ele><time>2026-04-06T12:56:33.686Z</time></trkpt><trkpt lat="43.7882533" lon="12.4386183"><ele>399.0</ele><time>2026-04-06T12:56:34.686Z</time></trkpt><trkpt lat="43.78836" lon="12.4386117"><ele>399.0</ele><time>2026-04-06T12:56:35.686Z</time></trkpt><trkpt lat="43.7884617" lon="12.4386133"><ele>399.0</ele><time>2026-04-06T12:56:36.686Z</time></trkpt><trkpt lat="43.788555" lon="12.4386217"><ele>399.0</ele><time>2026-04-06T12:56:37.685Z</time></trkpt><trkpt lat="43.788645" lon="12.4386233"><ele>399.0</ele><time>2026-04-06T12:56:38.684Z</time></trkpt><trkpt lat="43.7887317" lon="12.4386117"><ele>398.4</ele><time>2026-04-06T12:56:39.684Z</time></trkpt><trkpt lat="43.788815" lon="12.4385817"><ele>397.79999999999995</ele><time>2026-04-06T12:56:40.683Z</time></trkpt><trkpt lat="43.7888967" lon="12.4385333"><ele>397.20000000000005</ele><time>2026-04-06T12:56:41.687Z</time></trkpt><trkpt lat="43.7889717" lon="12.43847"><ele>396.6</ele><time>2026-04-06T12:56:42.685Z</time></trkpt><trkpt lat="43.7890483" lon="12.438395"><ele>396.0</ele><time>2026-04-06T12:56:43.687Z</time></trkpt><trkpt lat="43.78913" lon="12.4383133"><ele>396.0</ele><time>2026-04-06T12:56:44.683Z</time></trkpt><trkpt lat="43.7892083" lon="12.4382367"><ele>396.0</ele><time>2026-04-06T12:56:45.684Z</time></trkpt><trkpt lat="43.7892917" lon="12.438155"><ele>396.0</ele><time>2026-04-06T12:56:46.683Z</time></trkpt><trkpt lat="43.7893717" lon="12.4380783"><ele>396.0</ele><time>2026-04-06T12:56:47.684Z</time></trkpt><trkpt lat="43.7894517" lon="12.4380083"><ele>396.0</ele><time>2026-04-06T12:56:48.686Z</time></trkpt><trkpt lat="43.7895433" lon="12.4379383"><ele>399.8</ele><time>2026-04-06T12:56:49.687Z</time></trkpt><trkpt lat="43.7896367" lon="12.43787"><ele>403.6</ele><time>2026-04-06T12:56:50.685Z</time></trkpt><trkpt lat="43.78973" lon="12.4378167"><ele>407.4</ele><time>2026-04-06T12:56:51.686Z</time></trkpt><trkpt lat="43.7898267" lon="12.4377817"><ele>411.2</ele><time>2026-04-06T12:56:52.686Z</time></trkpt><trkpt lat="43.78991" lon="12.43777"><ele>415.0</ele><time>2026-04-06T12:56:53.686Z</time></trkpt><trkpt lat="43.7899883" lon="12.437745"><ele>415.00000000000006</ele><time>2026-04-06T12:56:54.686Z</time></trkpt><trkpt lat="43.7900683" lon="12.4377133"><ele>415.0</ele><time>2026-04-06T12:56:55.686Z</time></trkpt><trkpt lat="43.7901467" lon="12.437685"><ele>415.0</ele><time>2026-04-06T12:56:56.686Z</time></trkpt><trkpt lat="43.7902333" lon="12.4376733"><ele>415.0</ele><time>2026-04-06T12:56:57.686Z</time></trkpt><trkpt lat="43.79032" lon="12.43766"><ele>415.00000000000006</ele><time>2026-04-06T12:56:58.685Z</time></trkpt><trkpt lat="43.790405" lon="12.43763"><ele>415.0</ele><time>2026-04-06T12:56:59.686Z</time></trkpt><trkpt lat="43.790485" lon="12.4375883"><ele>415.83333333333337</ele><time>2026-04-06T12:57:00.685Z</time></trkpt><trkpt lat="43.79056" lon="12.4375517"><ele>416.6666666666667</ele><time>2026-04-06T12:57:01.686Z</time></trkpt><trkpt lat="43.79064" lon="12.43752"><ele>417.5</ele><time>2026-04-06T12:57:02.684Z</time></trkpt><trkpt lat="43.7907167" lon="12.4374917"><ele>418.33333333333337</ele><time>2026-04-06T12:57:03.683Z</time></trkpt><trkpt lat="43.79078" lon="12.4374633"><ele>419.1666666666667</ele><time>2026-04-06T12:57:04.686Z</time></trkpt><trkpt lat="43.7908783" lon="12.43743"><ele>420.0</ele><time>2026-04-06T12:57:06.685Z</time></trkpt><trkpt lat="43.7907883" lon="12.4373483"><ele>420.0</ele><time>2026-04-06T12:57:14.687Z</time></trkpt><trkpt lat="43.7907283" lon="12.4373167"><ele>420.0</ele><time>2026-04-06T12:57:15.686Z</time></trkpt><trkpt lat="43.7906567" lon="12.4372767"><ele>420.0</ele><time>2026-04-06T12:57:16.683Z</time></trkpt><trkpt lat="43.7905833" lon="12.43722"><ele>420.0</ele><time>2026-04-06T12:57:17.688Z</time></trkpt><trkpt lat="43.7905133" lon="12.4371483"><ele>420.0</ele><time>2026-04-06T12:57:18.684Z</time></trkpt><trkpt lat="43.79045" lon="12.4370617"><ele>420.0</ele><time>2026-04-06T12:57:19.688Z</time></trkpt><trkpt lat="43.79039" lon="12.4369867"><ele>422.3333333333333</ele><time>2026-04-06T12:57:20.683Z</time></trkpt><trkpt lat="43.7903233" lon="12.43692"><ele>424.66666666666663</ele><time>2026-04-06T12:57:21.686Z</time></trkpt><trkpt lat="43.7902567" lon="12.436875"><ele>427.0</ele><time>2026-04-06T12:57:22.686Z</time></trkpt><trkpt lat="43.79018" lon="12.4368533"><ele>429.3333333333333</ele><time>2026-04-06T12:57:23.686Z</time></trkpt><trkpt lat="43.7901017" lon="12.4368517"><ele>431.66666666666663</ele><time>2026-04-06T12:57:24.691Z</time></trkpt><trkpt lat="43.790015" lon="12.43689"><ele>434.0</ele><time>2026-04-06T12:57:25.685Z</time></trkpt><trkpt lat="43.7899167" lon="12.43696"><ele>434.75</ele><time>2026-04-06T12:57:26.688Z</time></trkpt><trkpt lat="43.7898267" lon="12.4370117"><ele>435.5</ele><time>2026-04-06T12:57:27.685Z</time></trkpt><trkpt lat="43.7897333" lon="12.4370433"><ele>436.25</ele><time>2026-04-06T12:57:28.686Z</time></trkpt><trkpt lat="43.789615" lon="12.4370417"><ele>437.0</ele><time>2026-04-06T12:57:29.686Z</time></trkpt><trkpt lat="43.7894767" lon="12.4370267"><ele>437.5</ele><time>2026-04-06T12:57:30.686Z</time></trkpt><trkpt lat="43.78933" lon="12.437"><ele>438.0</ele><time>2026-04-06T12:57:31.685Z</time></trkpt><trkpt lat="43.789195" lon="12.4369767"><ele>438.5</ele><time>2026-04-06T12:57:32.682Z</time></trkpt><trkpt lat="43.7890617" lon="12.4369483"><ele>439.0</ele><time>2026-04-06T12:57:33.684Z</time></trkpt><trkpt lat="43.78894" lon="12.43692"><ele>439.0</ele><time>2026-04-06T12:57:34.685Z</time></trkpt><trkpt lat="43.788825" lon="12.4368933"><ele>439.0</ele><time>2026-04-06T12:57:35.684Z</time></trkpt><trkpt lat="43.78872" lon="12.436855"><ele>439.0</ele><time>2026-04-06T12:57:36.686Z</time></trkpt><trkpt lat="43.7886217" lon="12.4368117"><ele>439.0</ele><time>2026-04-06T12:57:37.685Z</time></trkpt><trkpt lat="43.7885317" lon="12.436755"><ele>439.0</ele><time>2026-04-06T12:57:38.683Z</time></trkpt><trkpt lat="43.788445" lon="12.4366783"><ele>437.4</ele><time>2026-04-06T12:57:39.684Z</time></trkpt><trkpt lat="43.7883567" lon="12.436585"><ele>435.79999999999995</ele><time>2026-04-06T12:57:40.685Z</time></trkpt><trkpt lat="43.7882817" lon="12.4364767"><ele>434.20000000000005</ele><time>2026-04-06T12:57:41.685Z</time></trkpt><trkpt lat="43.788215" lon="12.4363683"><ele>432.6</ele><time>2026-04-06T12:57:42.685Z</time></trkpt><trkpt lat="43.78817" lon="12.4362667"><ele>431.0</ele><time>2026-04-06T12:57:43.688Z</time></trkpt><trkpt lat="43.7881317" lon="12.43618"><ele>431.0</ele><time>2026-04-06T12:57:44.685Z</time></trkpt><trkpt lat="43.788085" lon="12.4361117"><ele>431.0</ele><time>2026-04-06T12:57:45.686Z</time></trkpt><trkpt lat="43.78797" lon="12.4360233"><ele>431.0</ele><time>2026-04-06T12:57:47.683Z</time></trkpt><trkpt lat="43.7878983" lon="12.43599"><ele>431.0</ele><time>2026-04-06T12:57:48.685Z</time></trkpt><trkpt lat="43.7878317" lon="12.4359583"><ele>431.0</ele><time>2026-04-06T12:57:49.685Z</time></trkpt><trkpt lat="43.7877183" lon="12.4359017"><ele>430.6</ele><time>2026-04-06T12:57:51.684Z</time></trkpt><trkpt lat="43.7876117" lon="12.4358483"><ele>430.20000000000005</ele><time>2026-04-06T12:57:53.684Z</time></trkpt><trkpt lat="43.78751" lon="12.4358067"><ele>429.79999999999995</ele><time>2026-04-06T12:57:55.686Z</time></trkpt><trkpt lat="43.7874033" lon="12.4357833"><ele>429.4</ele><time>2026-04-06T12:57:57.683Z</time></trkpt><trkpt lat="43.787335" lon="12.4357817"><ele>429.0</ele><time>2026-04-06T12:58:00.685Z</time></trkpt><trkpt lat="43.7874217" lon="12.43581"><ele>429.0</ele><time>2026-04-06T12:58:05.686Z</time></trkpt><trkpt lat="43.787485" lon="12.4358183"><ele>429.0</ele><time>2026-04-06T12:58:06.686Z</time></trkpt><trkpt lat="43.7875567" lon="12.435835"><ele>429.0</ele><time>2026-04-06T12:58:07.686Z</time></trkpt><trkpt lat="43.78763" lon="12.4358617"><ele>429.0</ele><time>2026-04-06T12:58:08.688Z</time></trkpt><trkpt lat="43.7877133" lon="12.4358967"><ele>429.0</ele><time>2026-04-06T12:58:09.683Z</time></trkpt><trkpt lat="43.7878017" lon="12.4359383"><ele>429.0</ele><time>2026-04-06T12:58:10.684Z</time></trkpt><trkpt lat="43.78788" lon="12.4359817"><ele>429.3333333333333</ele><time>2026-04-06T12:58:11.687Z</time></trkpt><trkpt lat="43.78795" lon="12.4360233"><ele>429.66666666666663</ele><time>2026-04-06T12:58:12.686Z</time></trkpt><trkpt lat="43.7880133" lon="12.4360617"><ele>430.0</ele><time>2026-04-06T12:58:13.686Z</time></trkpt><trkpt lat="43.7881067" lon="12.4361183"><ele>430.3333333333333</ele><time>2026-04-06T12:58:15.686Z</time></trkpt><trkpt lat="43.7881833" lon="12.4361167"><ele>430.66666666666663</ele><time>2026-04-06T12:58:17.685Z</time></trkpt><trkpt lat="43.788285" lon="12.4360433"><ele>431.0</ele><time>2026-04-06T12:58:19.686Z</time></trkpt><trkpt lat="43.78836" lon="12.4359767"><ele>431.0</ele><time>2026-04-06T12:58:20.683Z</time></trkpt><trkpt lat="43.7884433" lon="12.435905"><ele>431.0</ele><time>2026-04-06T12:58:21.684Z</time></trkpt><trkpt lat="43.78852" lon="12.43584"><ele>431.0</ele><time>2026-04-06T12:58:22.685Z</time></trkpt><trkpt lat="43.7885967" lon="12.4357833"><ele>431.0</ele><time>2026-04-06T12:58:23.687Z</time></trkpt><trkpt lat="43.7886733" lon="12.4357333"><ele>431.0</ele><time>2026-04-06T12:58:24.685Z</time></trkpt><trkpt lat="43.7887617" lon="12.435695"><ele>433.0</ele><time>2026-04-06T12:58:25.687Z</time></trkpt><trkpt lat="43.7888617" lon="12.435665"><ele>435.0</ele><time>2026-04-06T12:58:26.683Z</time></trkpt><trkpt lat="43.78897" lon="12.4356433"><ele>437.0</ele><time>2026-04-06T12:58:27.684Z</time></trkpt><trkpt lat="43.7890783" lon="12.4356217"><ele>439.0</ele><time>2026-04-06T12:58:28.684Z</time></trkpt><trkpt lat="43.789185" lon="12.4355967"><ele>441.0</ele><time>2026-04-06T12:58:29.686Z</time></trkpt><trkpt lat="43.7892867" lon="12.43557"><ele>442.1666666666667</ele><time>2026-04-06T12:58:30.685Z</time></trkpt><trkpt lat="43.78938" lon="12.43554"><ele>443.33333333333337</ele><time>2026-04-06T12:58:31.685Z</time></trkpt><trkpt lat="43.7894617" lon="12.435495"><ele>444.5</ele><time>2026-04-06T12:58:32.684Z</time></trkpt><trkpt lat="43.7895367" lon="12.4354283"><ele>445.6666666666667</ele><time>2026-04-06T12:58:33.685Z</time></trkpt><trkpt lat="43.7895983" lon="12.4353567"><ele>446.83333333333337</ele><time>2026-04-06T12:58:34.687Z</time></trkpt><trkpt lat="43.7896433" lon="12.4352733"><ele>448.0</ele><time>2026-04-06T12:58:35.683Z</time></trkpt><trkpt lat="43.7896683" lon="12.4351867"><ele>448.6666666666667</ele><time>2026-04-06T12:58:36.685Z</time></trkpt><trkpt lat="43.78968" lon="12.4350683"><ele>449.33333333333337</ele><time>2026-04-06T12:58:38.685Z</time></trkpt><trkpt lat="43.7896567" lon="12.43497"><ele>450.0</ele><time>2026-04-06T12:58:41.688Z</time></trkpt><trkpt lat="43.7896" lon="12.4348667"><ele>450.66666666666663</ele><time>2026-04-06T12:59:15.686Z</time></trkpt><trkpt lat="43.7895567" lon="12.4347983"><ele>451.3333333333333</ele><time>2026-04-06T12:59:16.686Z</time></trkpt><trkpt lat="43.7895067" lon="12.43472"><ele>452.0</ele><time>2026-04-06T12:59:17.686Z</time></trkpt><trkpt lat="43.78945" lon="12.4346417"><ele>449.8333333333333</ele><time>2026-04-06T12:59:18.686Z</time></trkpt><trkpt lat="43.789395" lon="12.4345667"><ele>447.66666666666663</ele><time>2026-04-06T12:59:19.684Z</time></trkpt><trkpt lat="43.7893383" lon="12.434495"><ele>445.5</ele><time>2026-04-06T12:59:20.689Z</time></trkpt><trkpt lat="43.7892783" lon="12.4344333"><ele>443.33333333333337</ele><time>2026-04-06T12:59:21.685Z</time></trkpt><trkpt lat="43.789215" lon="12.4343717"><ele>441.1666666666667</ele><time>2026-04-06T12:59:22.685Z</time></trkpt><trkpt lat="43.7891483" lon="12.4343083"><ele>439.0</ele><time>2026-04-06T12:59:23.688Z</time></trkpt><trkpt lat="43.789075" lon="12.4342467"><ele>439.00000000000006</ele><time>2026-04-06T12:59:24.685Z</time></trkpt><trkpt lat="43.7890033" lon="12.43418"><ele>439.0</ele><time>2026-04-06T12:59:25.687Z</time></trkpt><trkpt lat="43.788935" lon="12.4341117"><ele>439.0</ele><time>2026-04-06T12:59:26.685Z</time></trkpt><trkpt lat="43.7888717" lon="12.4340467"><ele>439.0</ele><time>2026-04-06T12:59:27.684Z</time></trkpt><trkpt lat="43.7888" lon="12.4339817"><ele>439.00000000000006</ele><time>2026-04-06T12:59:28.685Z</time></trkpt><trkpt lat="43.7887333" lon="12.4339217"><ele>439.0</ele><time>2026-04-06T12:59:29.685Z</time></trkpt><trkpt lat="43.78865" lon="12.43384"><ele>437.0</ele><time>2026-04-06T12:59:30.684Z</time></trkpt><trkpt lat="43.7885733" lon="12.4337817"><ele>435.0</ele><time>2026-04-06T12:59:31.686Z</time></trkpt><trkpt lat="43.788495" lon="12.4337167"><ele>433.0</ele><time>2026-04-06T12:59:32.685Z</time></trkpt><trkpt lat="43.7884017" lon="12.433645"><ele>431.0</ele><time>2026-04-06T12:59:33.686Z</time></trkpt><trkpt lat="43.7883067" lon="12.4335717"><ele>429.0</ele><time>2026-04-06T12:59:34.684Z</time></trkpt><trkpt lat="43.7882133" lon="12.4334983"><ele>429.0</ele><time>2026-04-06T12:59:35.687Z</time></trkpt><trkpt lat="43.7881183" lon="12.4334283"><ele>429.0</ele><time>2026-04-06T12:59:36.686Z</time></trkpt><trkpt lat="43.7880217" lon="12.4333783"><ele>429.0</ele><time>2026-04-06T12:59:37.688Z</time></trkpt><trkpt lat="43.787915" lon="12.4333367"><ele>429.0</ele><time>2026-04-06T12:59:38.685Z</time></trkpt><trkpt lat="43.7878" lon="12.4333033"><ele>429.0</ele><time>2026-04-06T12:59:39.689Z</time></trkpt><trkpt lat="43.78768" lon="12.4332783"><ele>424.0</ele><time>2026-04-06T12:59:40.686Z</time></trkpt><trkpt lat="43.787555" lon="12.4332617"><ele>419.0</ele><time>2026-04-06T12:59:41.684Z</time></trkpt><trkpt lat="43.7874333" lon="12.4332483"><ele>414.0</ele><time>2026-04-06T12:59:42.686Z</time></trkpt><trkpt lat="43.7873183" lon="12.43324"><ele>409.0</ele><time>2026-04-06T12:59:43.687Z</time></trkpt><trkpt lat="43.7872017" lon="12.4332333"><ele>409.0</ele><time>2026-04-06T12:59:44.684Z</time></trkpt><trkpt lat="43.78709" lon="12.4332267"><ele>409.0</ele><time>2026-04-06T12:59:45.683Z</time></trkpt><trkpt lat="43.7869833" lon="12.43322"><ele>409.0</ele><time>2026-04-06T12:59:46.685Z</time></trkpt><trkpt lat="43.7868867" lon="12.43321"><ele>409.0</ele><time>2026-04-06T12:59:47.682Z</time></trkpt><trkpt lat="43.7867933" lon="12.4331883"><ele>409.0</ele><time>2026-04-06T12:59:48.685Z</time></trkpt><trkpt lat="43.7867017" lon="12.43316"><ele>406.79999999999995</ele><time>2026-04-06T12:59:49.686Z</time></trkpt><trkpt lat="43.786605" lon="12.4331283"><ele>404.59999999999997</ele><time>2026-04-06T12:59:50.685Z</time></trkpt><trkpt lat="43.78651" lon="12.4330933"><ele>402.4</ele><time>2026-04-06T12:59:51.686Z</time></trkpt><trkpt lat="43.78642" lon="12.43306"><ele>400.2</ele><time>2026-04-06T12:59:52.685Z</time></trkpt><trkpt lat="43.7863383" lon="12.4330283"><ele>398.0</ele><time>2026-04-06T12:59:53.684Z</time></trkpt><trkpt lat="43.7862617" lon="12.4330017"><ele>398.0</ele><time>2026-04-06T12:59:54.685Z</time></trkpt><trkpt lat="43.7861833" lon="12.432975"><ele>398.0</ele><time>2026-04-06T12:59:55.686Z</time></trkpt><trkpt lat="43.7860967" lon="12.4329383"><ele>398.0</ele><time>2026-04-06T12:59:56.685Z</time></trkpt><trkpt lat="43.7860083" lon="12.4328917"><ele>398.0</ele><time>2026-04-06T12:59:57.682Z</time></trkpt><trkpt lat="43.785915" lon="12.4328383"><ele>398.0</ele><time>2026-04-06T12:59:58.683Z</time></trkpt><trkpt lat="43.7858233" lon="12.4327783"><ele>397.4</ele><time>2026-04-06T12:59:59.685Z</time></trkpt><trkpt lat="43.7857283" lon="12.4327167"><ele>396.79999999999995</ele><time>2026-04-06T13:00:00.684Z</time></trkpt><trkpt lat="43.7856367" lon="12.4326583"><ele>396.2</ele><time>2026-04-06T13:00:01.685Z</time></trkpt><trkpt lat="43.78555" lon="12.4325967"><ele>395.6</ele><time>2026-04-06T13:00:02.684Z</time></trkpt><trkpt lat="43.7854583" lon="12.4325383"><ele>395.0</ele><time>2026-04-06T13:00:03.684Z</time></trkpt><trkpt lat="43.7853683" lon="12.4324767"><ele>395.0</ele><time>2026-04-06T13:00:04.684Z</time></trkpt><trkpt lat="43.7852833" lon="12.4324017"><ele>395.0</ele><time>2026-04-06T13:00:05.685Z</time></trkpt><trkpt lat="43.78521" lon="12.432305"><ele>395.0</ele><time>2026-04-06T13:00:06.686Z</time></trkpt><trkpt lat="43.7851383" lon="12.4322117"><ele>395.0</ele><time>2026-04-06T13:00:07.687Z</time></trkpt><trkpt lat="43.7850633" lon="12.432115"><ele>395.0</ele><time>2026-04-06T13:00:08.684Z</time></trkpt><trkpt lat="43.7849883" lon="12.43202"><ele>393.0</ele><time>2026-04-06T13:00:09.683Z</time></trkpt><trkpt lat="43.78492" lon="12.4319267"><ele>391.0</ele><time>2026-04-06T13:00:10.685Z</time></trkpt><trkpt lat="43.784855" lon="12.431835"><ele>389.0</ele><time>2026-04-06T13:00:11.686Z</time></trkpt><trkpt lat="43.7847983" lon="12.431735"><ele>387.0</ele><time>2026-04-06T13:00:12.685Z</time></trkpt><trkpt lat="43.7847467" lon="12.431635"><ele>385.0</ele><time>2026-04-06T13:00:13.686Z</time></trkpt><trkpt lat="43.7847083" lon="12.4315367"><ele>385.0</ele><time>2026-04-06T13:00:14.685Z</time></trkpt><trkpt lat="43.7846683" lon="12.4314417"><ele>385.0</ele><time>2026-04-06T13:00:15.684Z</time></trkpt><trkpt lat="43.7846333" lon="12.4313317"><ele>385.0</ele><time>2026-04-06T13:00:16.684Z</time></trkpt><trkpt lat="43.7846" lon="12.4312117"><ele>385.0</ele><time>2026-04-06T13:00:17.685Z</time></trkpt><trkpt lat="43.7845633" lon="12.4310883"><ele>385.0</ele><time>2026-04-06T13:00:18.684Z</time></trkpt><trkpt lat="43.7845283" lon="12.4309517"><ele>385.2</ele><time>2026-04-06T13:00:19.684Z</time></trkpt><trkpt lat="43.78449" lon="12.43081"><ele>385.4</ele><time>2026-04-06T13:00:20.684Z</time></trkpt><trkpt lat="43.7844517" lon="12.4306667"><ele>385.6</ele><time>2026-04-06T13:00:21.683Z</time></trkpt><trkpt lat="43.7844117" lon="12.4305283"><ele>385.8</ele><time>2026-04-06T13:00:22.684Z</time></trkpt><trkpt lat="43.784365" lon="12.4303933"><ele>386.0</ele><time>2026-04-06T13:00:23.687Z</time></trkpt><trkpt lat="43.78432" lon="12.4302717"><ele>381.20000000000005</ele><time>2026-04-06T13:00:24.684Z</time></trkpt><trkpt lat="43.7842783" lon="12.43015"><ele>376.40000000000003</ele><time>2026-04-06T13:00:25.687Z</time></trkpt><trkpt lat="43.784245" lon="12.430035"><ele>371.6</ele><time>2026-04-06T13:00:26.683Z</time></trkpt><trkpt lat="43.78421" lon="12.4299167"><ele>366.8</ele><time>2026-04-06T13:00:27.684Z</time></trkpt><trkpt lat="43.7841767" lon="12.429795"><ele>362.0</ele><time>2026-04-06T13:00:28.685Z</time></trkpt><trkpt lat="43.78414" lon="12.4296817"><ele>362.33333333333337</ele><time>2026-04-06T13:00:29.686Z</time></trkpt><trkpt lat="43.7840967" lon="12.4295783"><ele>362.6666666666667</ele><time>2026-04-06T13:00:30.684Z</time></trkpt><trkpt lat="43.7840533" lon="12.4294817"><ele>363.0</ele><time>2026-04-06T13:00:31.685Z</time></trkpt><trkpt lat="43.7839983" lon="12.429405"><ele>363.3333333333333</ele><time>2026-04-06T13:00:32.684Z</time></trkpt><trkpt lat="43.7839433" lon="12.4293333"><ele>363.66666666666663</ele><time>2026-04-06T13:00:33.684Z</time></trkpt><trkpt lat="43.783905" lon="12.4292617"><ele>364.0</ele><time>2026-04-06T13:00:34.685Z</time></trkpt><trkpt lat="43.7838883" lon="12.4291067"><ele>364.0</ele><time>2026-04-06T13:00:36.683Z</time></trkpt><trkpt lat="43.7839483" lon="12.4289367"><ele>364.0</ele><time>2026-04-06T13:00:38.684Z</time></trkpt><trkpt lat="43.784" lon="12.4288417"><ele>364.0</ele><time>2026-04-06T13:00:39.684Z</time></trkpt><trkpt lat="43.78406" lon="12.4287433"><ele>364.0</ele><time>2026-04-06T13:00:40.684Z</time></trkpt><trkpt lat="43.7841367" lon="12.4286467"><ele>364.0</ele><time>2026-04-06T13:00:41.685Z</time></trkpt><trkpt lat="43.7842217" lon="12.42856"><ele>365.0</ele><time>2026-04-06T13:00:42.685Z</time></trkpt><trkpt lat="43.7843117" lon="12.4284817"><ele>366.0</ele><time>2026-04-06T13:00:43.686Z</time></trkpt><trkpt lat="43.784395" lon="12.42841"><ele>367.0</ele><time>2026-04-06T13:00:44.684Z</time></trkpt><trkpt lat="43.78448" lon="12.4283417"><ele>368.0</ele><time>2026-04-06T13:00:45.684Z</time></trkpt><trkpt lat="43.7845533" lon="12.4282733"><ele>369.0</ele><time>2026-04-06T13:00:46.683Z</time></trkpt><trkpt lat="43.7846217" lon="12.4281867"><ele>369.0</ele><time>2026-04-06T13:00:47.684Z</time></trkpt><trkpt lat="43.7846717" lon="12.428075"><ele>369.0</ele><time>2026-04-06T13:00:48.685Z</time></trkpt><trkpt lat="43.7847083" lon="12.42795"><ele>369.0</ele><time>2026-04-06T13:00:49.687Z</time></trkpt><trkpt lat="43.7847433" lon="12.42782"><ele>369.0</ele><time>2026-04-06T13:00:50.686Z</time></trkpt><trkpt lat="43.784775" lon="12.4276917"><ele>369.0</ele><time>2026-04-06T13:00:51.685Z</time></trkpt><trkpt lat="43.7848033" lon="12.4275783"><ele>365.8333333333333</ele><time>2026-04-06T13:00:52.685Z</time></trkpt><trkpt lat="43.7848333" lon="12.427465"><ele>362.6666666666667</ele><time>2026-04-06T13:00:53.686Z</time></trkpt><trkpt lat="43.7848633" lon="12.42735"><ele>359.5</ele><time>2026-04-06T13:00:54.686Z</time></trkpt><trkpt lat="43.7848867" lon="12.42724"><ele>356.33333333333337</ele><time>2026-04-06T13:00:55.689Z</time></trkpt><trkpt lat="43.7848983" lon="12.4271367"><ele>353.1666666666667</ele><time>2026-04-06T13:00:56.685Z</time></trkpt><trkpt lat="43.7848983" lon="12.42704"><ele>350.0</ele><time>2026-04-06T13:00:57.683Z</time></trkpt><trkpt lat="43.78488" lon="12.4269517"><ele>348.2857142857143</ele><time>2026-04-06T13:00:58.684Z</time></trkpt><trkpt lat="43.7848383" lon="12.426875"><ele>346.57142857142856</ele><time>2026-04-06T13:00:59.684Z</time></trkpt><trkpt lat="43.7847883" lon="12.426805"><ele>344.8571428571429</ele><time>2026-04-06T13:01:00.684Z</time></trkpt><trkpt lat="43.78473" lon="12.4267417"><ele>343.1428571428571</ele><time>2026-04-06T13:01:01.686Z</time></trkpt><trkpt lat="43.7846667" lon="12.4266867"><ele>341.42857142857144</ele><time>2026-04-06T13:01:02.684Z</time></trkpt><trkpt lat="43.7845967" lon="12.4266467"><ele>339.7142857142857</ele><time>2026-04-06T13:01:03.685Z</time></trkpt><trkpt lat="43.78452" lon="12.4266217"><ele>338.0</ele><time>2026-04-06T13:01:04.683Z</time></trkpt><trkpt lat="43.78444" lon="12.4265983"><ele>338.0</ele><time>2026-04-06T13:01:05.683Z</time></trkpt><trkpt lat="43.78436" lon="12.4265767"><ele>338.0</ele><time>2026-04-06T13:01:06.684Z</time></trkpt><trkpt lat="43.7842767" lon="12.42656"><ele>338.0</ele><time>2026-04-06T13:01:07.687Z</time></trkpt><trkpt lat="43.7841967" lon="12.42655"><ele>338.0</ele><time>2026-04-06T13:01:08.684Z</time></trkpt><trkpt lat="43.7841283" lon="12.42654"><ele>338.0</ele><time>2026-04-06T13:01:09.683Z</time></trkpt><trkpt lat="43.7840617" lon="12.426525"><ele>338.0</ele><time>2026-04-06T13:01:10.685Z</time></trkpt><trkpt lat="43.7839517" lon="12.4265"><ele>337.0</ele><time>2026-04-06T13:01:12.685Z</time></trkpt><trkpt lat="43.7838567" lon="12.4264983"><ele>336.0</ele><time>2026-04-06T13:01:14.683Z</time></trkpt><trkpt lat="43.7837517" lon="12.42649"><ele>335.0</ele><time>2026-04-06T13:01:45.686Z</time></trkpt><trkpt lat="43.7836817" lon="12.426495"><ele>334.0</ele><time>2026-04-06T13:01:46.685Z</time></trkpt><trkpt lat="43.7835933" lon="12.4264917"><ele>333.0</ele><time>2026-04-06T13:01:47.685Z</time></trkpt><trkpt lat="43.783495" lon="12.426485"><ele>333.0</ele><time>2026-04-06T13:01:48.684Z</time></trkpt><trkpt lat="43.7833967" lon="12.4264717"><ele>333.0</ele><time>2026-04-06T13:01:49.686Z</time></trkpt><trkpt lat="43.7832983" lon="12.4264683"><ele>333.0</ele><time>2026-04-06T13:01:50.686Z</time></trkpt><trkpt lat="43.7832017" lon="12.4264733"><ele>333.0</ele><time>2026-04-06T13:01:51.686Z</time></trkpt><trkpt lat="43.7831" lon="12.4264867"><ele>333.0</ele><time>2026-04-06T13:01:52.685Z</time></trkpt><trkpt lat="43.782995" lon="12.4265217"><ele>333.0</ele><time>2026-04-06T13:01:53.686Z</time></trkpt><trkpt lat="43.782895" lon="12.4265667"><ele>333.0</ele><time>2026-04-06T13:01:54.684Z</time></trkpt><trkpt lat="43.7828" lon="12.4266233"><ele>333.0</ele><time>2026-04-06T13:01:55.684Z</time></trkpt><trkpt lat="43.7827117" lon="12.42669"><ele>333.0</ele><time>2026-04-06T13:01:56.683Z</time></trkpt><trkpt lat="43.7826417" lon="12.4267683"><ele>333.0</ele><time>2026-04-06T13:01:57.684Z</time></trkpt><trkpt lat="43.7825833" lon="12.4268683"><ele>334.8333333333333</ele><time>2026-04-06T13:01:58.683Z</time></trkpt><trkpt lat="43.782535" lon="12.42696"><ele>336.6666666666667</ele><time>2026-04-06T13:01:59.684Z</time></trkpt><trkpt lat="43.7824833" lon="12.4270383"><ele>338.5</ele><time>2026-04-06T13:02:00.683Z</time></trkpt><trkpt lat="43.78243" lon="12.4270967"><ele>340.33333333333337</ele><time>2026-04-06T13:02:01.685Z</time></trkpt><trkpt lat="43.782295" lon="12.4271067"><ele>342.1666666666667</ele><time>2026-04-06T13:02:03.684Z</time></trkpt><trkpt lat="43.7822333" lon="12.427065"><ele>344.0</ele><time>2026-04-06T13:02:04.685Z</time></trkpt><trkpt lat="43.7821783" lon="12.4270083"><ele>344.00000000000006</ele><time>2026-04-06T13:02:05.684Z</time></trkpt><trkpt lat="43.78214" lon="12.426935"><ele>344.0</ele><time>2026-04-06T13:02:06.685Z</time></trkpt><trkpt lat="43.7821167" lon="12.4268517"><ele>344.0</ele><time>2026-04-06T13:02:07.685Z</time></trkpt><trkpt lat="43.7821167" lon="12.4267617"><ele>344.0</ele><time>2026-04-06T13:02:08.684Z</time></trkpt><trkpt lat="43.7821267" lon="12.4266717"><ele>344.0</ele><time>2026-04-06T13:02:09.683Z</time></trkpt><trkpt lat="43.7821617" lon="12.426585"><ele>344.00000000000006</ele><time>2026-04-06T13:02:10.686Z</time></trkpt><trkpt lat="43.78222" lon="12.4265133"><ele>344.0</ele><time>2026-04-06T13:02:11.685Z</time></trkpt><trkpt lat="43.782265" lon="12.4264417"><ele>344.0</ele><time>2026-04-06T13:02:12.686Z</time></trkpt><trkpt lat="43.7823067" lon="12.4263617"><ele>344.0</ele><time>2026-04-06T13:02:13.687Z</time></trkpt><trkpt lat="43.7823333" lon="12.4262617"><ele>344.0</ele><time>2026-04-06T13:02:14.685Z</time></trkpt><trkpt lat="43.78234" lon="12.4261517"><ele>344.0</ele><time>2026-04-06T13:02:15.686Z</time></trkpt><trkpt lat="43.782335" lon="12.4260233"><ele>344.0</ele><time>2026-04-06T13:02:16.685Z</time></trkpt><trkpt lat="43.7823167" lon="12.4258633"><ele>344.0</ele><time>2026-04-06T13:02:17.682Z</time></trkpt><trkpt lat="43.7823083" lon="12.4256783"><ele>345.75</ele><time>2026-04-06T13:02:18.683Z</time></trkpt><trkpt lat="43.782295" lon="12.4254867"><ele>347.5</ele><time>2026-04-06T13:02:19.685Z</time></trkpt><trkpt lat="43.7822767" lon="12.4253133"><ele>349.25</ele><time>2026-04-06T13:02:20.686Z</time></trkpt><trkpt lat="43.7822633" lon="12.4251483"><ele>351.0</ele><time>2026-04-06T13:02:21.684Z</time></trkpt><trkpt lat="43.782245" lon="12.4249967"><ele>351.1666666666667</ele><time>2026-04-06T13:02:22.686Z</time></trkpt><trkpt lat="43.782225" lon="12.4248733"><ele>351.3333333333333</ele><time>2026-04-06T13:02:23.685Z</time></trkpt><trkpt lat="43.782195" lon="12.4247667"><ele>351.5</ele><time>2026-04-06T13:02:24.686Z</time></trkpt><trkpt lat="43.7821483" lon="12.4246717"><ele>351.66666666666663</ele><time>2026-04-06T13:02:25.687Z</time></trkpt><trkpt lat="43.7820883" lon="12.42459"><ele>351.8333333333333</ele><time>2026-04-06T13:02:26.686Z</time></trkpt><trkpt lat="43.7820167" lon="12.4245233"><ele>352.0</ele><time>2026-04-06T13:02:27.683Z</time></trkpt><trkpt lat="43.781945" lon="12.4244783"><ele>352.6</ele><time>2026-04-06T13:02:28.684Z</time></trkpt><trkpt lat="43.7818783" lon="12.4244567"><ele>353.20000000000005</ele><time>2026-04-06T13:02:29.686Z</time></trkpt><trkpt lat="43.7817633" lon="12.4244783"><ele>353.8</ele><time>2026-04-06T13:02:31.687Z</time></trkpt><trkpt lat="43.781685" lon="12.42461"><ele>354.4</ele><time>2026-04-06T13:02:33.684Z</time></trkpt><trkpt lat="43.7816217" lon="12.4247517"><ele>355.0</ele><time>2026-04-06T13:02:35.686Z</time></trkpt><trkpt lat="43.7815433" lon="12.424795"><ele>356.16666666666663</ele><time>2026-04-06T13:02:37.685Z</time></trkpt><trkpt lat="43.7814517" lon="12.424695"><ele>357.3333333333333</ele><time>2026-04-06T13:02:39.684Z</time></trkpt><trkpt lat="43.7814067" lon="12.42463"><ele>358.5</ele><time>2026-04-06T13:02:40.686Z</time></trkpt><trkpt lat="43.7813867" lon="12.42454"><ele>359.6666666666667</ele><time>2026-04-06T13:02:41.686Z</time></trkpt><trkpt lat="43.7813783" lon="12.424445"><ele>360.83333333333337</ele><time>2026-04-06T13:02:42.686Z</time></trkpt><trkpt lat="43.781365" lon="12.424355"><ele>362.0</ele><time>2026-04-06T13:02:43.687Z</time></trkpt><trkpt lat="43.7813117" lon="12.42423"><ele>363.0</ele><time>2026-04-06T13:02:45.685Z</time></trkpt><trkpt lat="43.7812317" lon="12.4242067"><ele>364.0</ele><time>2026-04-06T13:02:46.686Z</time></trkpt><trkpt lat="43.7811517" lon="12.42419"><ele>365.0</ele><time>2026-04-06T13:02:47.686Z</time></trkpt><trkpt lat="43.781085" lon="12.4241517"><ele>366.0</ele><time>2026-04-06T13:02:48.686Z</time></trkpt><trkpt lat="43.781035" lon="12.4240983"><ele>367.0</ele><time>2026-04-06T13:02:49.686Z</time></trkpt><trkpt lat="43.7809683" lon="12.4239567"><ele>368.0</ele><time>2026-04-06T13:02:51.685Z</time></trkpt><trkpt lat="43.780965" lon="12.4237833"><ele>368.6666666666667</ele><time>2026-04-06T13:02:53.687Z</time></trkpt><trkpt lat="43.781005" lon="12.4236667"><ele>369.33333333333337</ele><time>2026-04-06T13:02:54.685Z</time></trkpt><trkpt lat="43.7810483" lon="12.4235617"><ele>370.0</ele><time>2026-04-06T13:02:55.687Z</time></trkpt><trkpt lat="43.7810783" lon="12.42346"><ele>370.6666666666667</ele><time>2026-04-06T13:02:56.686Z</time></trkpt><trkpt lat="43.7810883" lon="12.4233567"><ele>371.3333333333333</ele><time>2026-04-06T13:02:57.684Z</time></trkpt><trkpt lat="43.7810767" lon="12.4232617"><ele>372.0</ele><time>2026-04-06T13:02:58.684Z</time></trkpt><trkpt lat="43.7810333" lon="12.42318"><ele>374.3333333333333</ele><time>2026-04-06T13:02:59.685Z</time></trkpt><trkpt lat="43.7809783" lon="12.42311"><ele>376.66666666666663</ele><time>2026-04-06T13:03:00.684Z</time></trkpt><trkpt lat="43.7809067" lon="12.4230467"><ele>379.0</ele><time>2026-04-06T13:03:01.686Z</time></trkpt><trkpt lat="43.7808267" lon="12.4229883"><ele>381.3333333333333</ele><time>2026-04-06T13:03:02.685Z</time></trkpt><trkpt lat="43.78075" lon="12.422925"><ele>383.66666666666663</ele><time>2026-04-06T13:03:03.684Z</time></trkpt><trkpt lat="43.7806867" lon="12.4228533"><ele>386.0</ele><time>2026-04-06T13:03:04.686Z</time></trkpt><trkpt lat="43.7806417" lon="12.4227633"><ele>386.4</ele><time>2026-04-06T13:03:05.685Z</time></trkpt><trkpt lat="43.7806017" lon="12.4226583"><ele>386.8</ele><time>2026-04-06T13:03:06.684Z</time></trkpt><trkpt lat="43.78056" lon="12.4225417"><ele>387.2</ele><time>2026-04-06T13:03:07.686Z</time></trkpt><trkpt lat="43.78051" lon="12.4224383"><ele>387.59999999999997</ele><time>2026-04-06T13:03:08.684Z</time></trkpt><trkpt lat="43.7804383" lon="12.422355"><ele>388.0</ele><time>2026-04-06T13:03:09.683Z</time></trkpt><trkpt lat="43.7803567" lon="12.4222817"><ele>388.00000000000006</ele><time>2026-04-06T13:03:10.686Z</time></trkpt><trkpt lat="43.78028" lon="12.4222067"><ele>388.0</ele><time>2026-04-06T13:03:11.686Z</time></trkpt><trkpt lat="43.780215" lon="12.422125"><ele>388.0</ele><time>2026-04-06T13:03:12.686Z</time></trkpt><trkpt lat="43.7801583" lon="12.42205"><ele>388.0</ele><time>2026-04-06T13:03:13.687Z</time></trkpt><trkpt lat="43.7801167" lon="12.4219833"><ele>388.00000000000006</ele><time>2026-04-06T13:03:14.685Z</time></trkpt><trkpt lat="43.7800483" lon="12.42184"><ele>388.0</ele><time>2026-04-06T13:03:16.685Z</time></trkpt><trkpt lat="43.7800183" lon="12.42176"><ele>391.33333333333337</ele><time>2026-04-06T13:03:17.683Z</time></trkpt><trkpt lat="43.77998" lon="12.42168"><ele>394.6666666666667</ele><time>2026-04-06T13:03:18.684Z</time></trkpt><trkpt lat="43.779935" lon="12.42159"><ele>398.0</ele><time>2026-04-06T13:03:19.685Z</time></trkpt><trkpt lat="43.779885" lon="12.4214867"><ele>401.33333333333337</ele><time>2026-04-06T13:03:20.685Z</time></trkpt><trkpt lat="43.7798317" lon="12.4213733"><ele>404.6666666666667</ele><time>2026-04-06T13:03:21.686Z</time></trkpt><trkpt lat="43.779775" lon="12.4212567"><ele>408.0</ele><time>2026-04-06T13:03:22.685Z</time></trkpt><trkpt lat="43.779715" lon="12.421135"><ele>408.2</ele><time>2026-04-06T13:03:23.683Z</time></trkpt><trkpt lat="43.7796533" lon="12.42101"><ele>408.4</ele><time>2026-04-06T13:03:24.684Z</time></trkpt><trkpt lat="43.7795917" lon="12.4208867"><ele>408.59999999999997</ele><time>2026-04-06T13:03:25.686Z</time></trkpt><trkpt lat="43.7795283" lon="12.4207633"><ele>408.79999999999995</ele><time>2026-04-06T13:03:26.684Z</time></trkpt><trkpt lat="43.779465" lon="12.4206383"><ele>409.0</ele><time>2026-04-06T13:03:27.684Z</time></trkpt><trkpt lat="43.7794" lon="12.420515"><ele>412.79999999999995</ele><time>2026-04-06T13:03:28.683Z</time></trkpt><trkpt lat="43.7793367" lon="12.42039"><ele>416.59999999999997</ele><time>2026-04-06T13:03:29.684Z</time></trkpt><trkpt lat="43.77927" lon="12.4202733"><ele>420.4</ele><time>2026-04-06T13:03:30.684Z</time></trkpt><trkpt lat="43.779195" lon="12.4201683"><ele>424.2</ele><time>2026-04-06T13:03:31.685Z</time></trkpt><trkpt lat="43.779115" lon="12.4200767"><ele>428.0</ele><time>2026-04-06T13:03:32.684Z</time></trkpt><trkpt lat="43.7790233" lon="12.4199967"><ele>427.99999999999994</ele><time>2026-04-06T13:03:33.684Z</time></trkpt><trkpt lat="43.7789283" lon="12.4199267"><ele>428.0</ele><time>2026-04-06T13:03:34.686Z</time></trkpt><trkpt lat="43.7788433" lon="12.419865"><ele>428.0</ele><time>2026-04-06T13:03:35.688Z</time></trkpt><trkpt lat="43.7787733" lon="12.4198067"><ele>428.0</ele><time>2026-04-06T13:03:36.686Z</time></trkpt><trkpt lat="43.778715" lon="12.4197383"><ele>427.99999999999994</ele><time>2026-04-06T13:03:37.686Z</time></trkpt><trkpt lat="43.778675" lon="12.41965"><ele>428.0</ele><time>2026-04-06T13:03:38.683Z</time></trkpt><trkpt lat="43.77865" lon="12.41955"><ele>428.16666666666663</ele><time>2026-04-06T13:03:39.684Z</time></trkpt><trkpt lat="43.7786333" lon="12.4194433"><ele>428.3333333333333</ele><time>2026-04-06T13:03:40.685Z</time></trkpt><trkpt lat="43.77861" lon="12.41934"><ele>428.5</ele><time>2026-04-06T13:03:41.686Z</time></trkpt><trkpt lat="43.7785783" lon="12.4192533"><ele>428.66666666666663</ele><time>2026-04-06T13:03:42.686Z</time></trkpt><trkpt lat="43.7784683" lon="12.41917"><ele>428.8333333333333</ele><time>2026-04-06T13:03:44.686Z</time></trkpt><trkpt lat="43.7783933" lon="12.4191733"><ele>429.0</ele><time>2026-04-06T13:03:45.688Z</time></trkpt><trkpt lat="43.778315" lon="12.4192"><ele>431.8333333333333</ele><time>2026-04-06T13:03:46.686Z</time></trkpt><trkpt lat="43.7782267" lon="12.4192383"><ele>434.66666666666663</ele><time>2026-04-06T13:03:47.684Z</time></trkpt><trkpt lat="43.77813" lon="12.4192817"><ele>437.5</ele><time>2026-04-06T13:03:48.685Z</time></trkpt><trkpt lat="43.7780367" lon="12.4193133"><ele>440.3333333333333</ele><time>2026-04-06T13:03:49.685Z</time></trkpt><trkpt lat="43.777955" lon="12.419325"><ele>443.16666666666663</ele><time>2026-04-06T13:03:50.684Z</time></trkpt><trkpt lat="43.7778867" lon="12.4193083"><ele>446.0</ele><time>2026-04-06T13:03:51.685Z</time></trkpt><trkpt lat="43.7778267" lon="12.4192617"><ele>446.0</ele><time>2026-04-06T13:03:52.686Z</time></trkpt><trkpt lat="43.77775" lon="12.41915"><ele>446.0</ele><time>2026-04-06T13:03:54.686Z</time></trkpt><trkpt lat="43.77767" lon="12.419085"><ele>446.0</ele><time>2026-04-06T13:03:56.686Z</time></trkpt><trkpt lat="43.7775283" lon="12.419075"><ele>446.0</ele><time>2026-04-06T13:03:58.685Z</time></trkpt><trkpt lat="43.77742" lon="12.4190817"><ele>448.0</ele><time>2026-04-06T13:03:59.687Z</time></trkpt><trkpt lat="43.777305" lon="12.4190883"><ele>450.0</ele><time>2026-04-06T13:04:00.685Z</time></trkpt><trkpt lat="43.7771867" lon="12.4190917"><ele>452.0</ele><time>2026-04-06T13:04:01.685Z</time></trkpt><trkpt lat="43.7770517" lon="12.4190933"><ele>454.0</ele><time>2026-04-06T13:04:02.686Z</time></trkpt><trkpt lat="43.7769067" lon="12.419095"><ele>456.0</ele><time>2026-04-06T13:04:03.686Z</time></trkpt><trkpt lat="43.7767733" lon="12.4190917"><ele>458.0</ele><time>2026-04-06T13:04:04.684Z</time></trkpt><trkpt lat="43.776655" lon="12.4190767"><ele>460.0</ele><time>2026-04-06T13:04:05.686Z</time></trkpt><trkpt lat="43.7765467" lon="12.419065"><ele>462.0</ele><time>2026-04-06T13:04:06.685Z</time></trkpt><trkpt lat="43.7764417" lon="12.4190533"><ele>462.0</ele><time>2026-04-06T13:04:07.687Z</time></trkpt><trkpt lat="43.7763317" lon="12.419035"><ele>462.0</ele><time>2026-04-06T13:04:08.684Z</time></trkpt><trkpt lat="43.776215" lon="12.4190167"><ele>462.0</ele><time>2026-04-06T13:04:09.685Z</time></trkpt><trkpt lat="43.7760933" lon="12.419"><ele>462.0</ele><time>2026-04-06T13:04:10.687Z</time></trkpt><trkpt lat="43.77597" lon="12.4189867"><ele>462.5</ele><time>2026-04-06T13:04:11.685Z</time></trkpt><trkpt lat="43.7758467" lon="12.4189683"><ele>463.0</ele><time>2026-04-06T13:04:12.686Z</time></trkpt><trkpt lat="43.7757267" lon="12.4189617"><ele>463.5</ele><time>2026-04-06T13:04:13.688Z</time></trkpt><trkpt lat="43.7756117" lon="12.4189517"><ele>464.0</ele><time>2026-04-06T13:04:14.685Z</time></trkpt><trkpt lat="43.7755083" lon="12.41894"><ele>463.99999999999994</ele><time>2026-04-06T13:04:15.685Z</time></trkpt><trkpt lat="43.77542" lon="12.4189333"><ele>464.0</ele><time>2026-04-06T13:04:16.687Z</time></trkpt><trkpt lat="43.775345" lon="12.41894"><ele>464.0</ele><time>2026-04-06T13:04:17.683Z</time></trkpt><trkpt lat="43.7752783" lon="12.4189733"><ele>464.0</ele><time>2026-04-06T13:04:18.684Z</time></trkpt><trkpt lat="43.7752233" lon="12.4190267"><ele>463.99999999999994</ele><time>2026-04-06T13:04:19.686Z</time></trkpt><trkpt lat="43.7751883" lon="12.4191117"><ele>464.0</ele><time>2026-04-06T13:04:20.685Z</time></trkpt><trkpt lat="43.7751883" lon="12.4192383"><ele>464.0</ele><time>2026-04-06T13:04:21.685Z</time></trkpt><trkpt lat="43.7751933" lon="12.4194117"><ele>464.0</ele><time>2026-04-06T13:04:22.686Z</time></trkpt><trkpt lat="43.775225" lon="12.41965"><ele>464.0</ele><time>2026-04-06T13:04:23.686Z</time></trkpt><trkpt lat="43.775245" lon="12.4198583"><ele>461.75</ele><time>2026-04-06T13:04:24.684Z</time></trkpt><trkpt lat="43.7752633" lon="12.4200533"><ele>459.5</ele><time>2026-04-06T13:04:25.685Z</time></trkpt><trkpt lat="43.7752733" lon="12.4202383"><ele>457.25</ele><time>2026-04-06T13:04:26.684Z</time></trkpt><trkpt lat="43.7752833" lon="12.4204083"><ele>455.0</ele><time>2026-04-06T13:04:27.685Z</time></trkpt><trkpt lat="43.7752933" lon="12.4205667"><ele>454.6</ele><time>2026-04-06T13:04:28.686Z</time></trkpt><trkpt lat="43.7753067" lon="12.4207117"><ele>454.2</ele><time>2026-04-06T13:04:29.686Z</time></trkpt><trkpt lat="43.7753233" lon="12.42085"><ele>453.79999999999995</ele><time>2026-04-06T13:04:30.686Z</time></trkpt><trkpt lat="43.7753517" lon="12.4209833"><ele>453.4</ele><time>2026-04-06T13:04:31.685Z</time></trkpt><trkpt lat="43.77539" lon="12.4211083"><ele>453.0</ele><time>2026-04-06T13:04:32.685Z</time></trkpt><trkpt lat="43.7754217" lon="12.42122"><ele>453.0</ele><time>2026-04-06T13:04:33.685Z</time></trkpt><trkpt lat="43.77545" lon="12.42131"><ele>453.0</ele><time>2026-04-06T13:04:34.684Z</time></trkpt><trkpt lat="43.77547" lon="12.4214017"><ele>453.0</ele><time>2026-04-06T13:04:36.686Z</time></trkpt><trkpt lat="43.775375" lon="12.42136"><ele>453.0</ele><time>2026-04-06T13:04:40.686Z</time></trkpt><trkpt lat="43.7753167" lon="12.42131"><ele>453.0</ele><time>2026-04-06T13:04:41.685Z</time></trkpt><trkpt lat="43.7752217" lon="12.4212267"><ele>453.0</ele><time>2026-04-06T13:04:42.685Z</time></trkpt><trkpt lat="43.7751233" lon="12.42114"><ele>457.0</ele><time>2026-04-06T13:04:43.686Z</time></trkpt><trkpt lat="43.7750233" lon="12.4210667"><ele>461.0</ele><time>2026-04-06T13:04:44.686Z</time></trkpt><trkpt lat="43.7749217" lon="12.4209933"><ele>465.0</ele><time>2026-04-06T13:04:45.686Z</time></trkpt><trkpt lat="43.7748133" lon="12.4209217"><ele>469.0</ele><time>2026-04-06T13:04:46.687Z</time></trkpt><trkpt lat="43.7746983" lon="12.4208633"><ele>469.0</ele><time>2026-04-06T13:04:47.685Z</time></trkpt><trkpt lat="43.77458" lon="12.42083"><ele>469.0</ele><time>2026-04-06T13:04:48.685Z</time></trkpt><trkpt lat="43.7744583" lon="12.42081"><ele>469.0</ele><time>2026-04-06T13:04:49.685Z</time></trkpt><trkpt lat="43.774335" lon="12.4208033"><ele>469.0</ele><time>2026-04-06T13:04:50.684Z</time></trkpt><trkpt lat="43.774215" lon="12.420805"><ele>473.25</ele><time>2026-04-06T13:04:51.683Z</time></trkpt><trkpt lat="43.7740967" lon="12.4208167"><ele>477.5</ele><time>2026-04-06T13:04:52.685Z</time></trkpt><trkpt lat="43.773975" lon="12.4208383"><ele>481.75</ele><time>2026-04-06T13:04:53.686Z</time></trkpt><trkpt lat="43.7738667" lon="12.42087"><ele>486.0</ele><time>2026-04-06T13:04:54.685Z</time></trkpt><trkpt lat="43.7737583" lon="12.4209017"><ele>486.0</ele><time>2026-04-06T13:04:55.686Z</time></trkpt><trkpt lat="43.7736483" lon="12.4209167"><ele>486.0</ele><time>2026-04-06T13:04:56.686Z</time></trkpt><trkpt lat="43.7735317" lon="12.4209233"><ele>486.0</ele><time>2026-04-06T13:04:57.685Z</time></trkpt><trkpt lat="43.7734117" lon="12.42092"><ele>486.0</ele><time>2026-04-06T13:04:58.685Z</time></trkpt><trkpt lat="43.7732833" lon="12.4209117"><ele>489.25</ele><time>2026-04-06T13:04:59.686Z</time></trkpt><trkpt lat="43.773155" lon="12.4208917"><ele>492.5</ele><time>2026-04-06T13:05:00.685Z</time></trkpt><trkpt lat="43.7730367" lon="12.4208667"><ele>495.75</ele><time>2026-04-06T13:05:01.686Z</time></trkpt><trkpt lat="43.7729117" lon="12.4208517"><ele>499.0</ele><time>2026-04-06T13:05:02.685Z</time></trkpt><trkpt lat="43.77279" lon="12.4208367"><ele>501.0</ele><time>2026-04-06T13:05:03.686Z</time></trkpt><trkpt lat="43.77267" lon="12.4208183"><ele>503.0</ele><time>2026-04-06T13:05:04.685Z</time></trkpt><trkpt lat="43.7725467" lon="12.4207833"><ele>505.0</ele><time>2026-04-06T13:05:05.688Z</time></trkpt><trkpt lat="43.7724167" lon="12.4207333"><ele>507.0</ele><time>2026-04-06T13:05:06.686Z</time></trkpt><trkpt lat="43.77229" lon="12.4206717"><ele>507.0</ele><time>2026-04-06T13:05:07.686Z</time></trkpt><trkpt lat="43.7721717" lon="12.420615"><ele>507.00000000000006</ele><time>2026-04-06T13:05:08.685Z</time></trkpt><trkpt lat="43.772065" lon="12.420575"><ele>507.00000000000006</ele><time>2026-04-06T13:05:09.685Z</time></trkpt><trkpt lat="43.771965" lon="12.4205583"><ele>507.0</ele><time>2026-04-06T13:05:10.687Z</time></trkpt><trkpt lat="43.7718667" lon="12.420565"><ele>507.0</ele><time>2026-04-06T13:05:11.686Z</time></trkpt><trkpt lat="43.771765" lon="12.4206017"><ele>509.20000000000005</ele><time>2026-04-06T13:05:12.686Z</time></trkpt><trkpt lat="43.771655" lon="12.4206617"><ele>511.40000000000003</ele><time>2026-04-06T13:05:13.688Z</time></trkpt><trkpt lat="43.771555" lon="12.4207183"><ele>513.5999999999999</ele><time>2026-04-06T13:05:14.686Z</time></trkpt><trkpt lat="43.77146" lon="12.4207567"><ele>515.8</ele><time>2026-04-06T13:05:15.687Z</time></trkpt><trkpt lat="43.7713783" lon="12.4207833"><ele>518.0</ele><time>2026-04-06T13:05:16.686Z</time></trkpt><trkpt lat="43.7713" lon="12.4208033"><ele>518.0</ele><time>2026-04-06T13:05:17.686Z</time></trkpt><trkpt lat="43.7712183" lon="12.42083"><ele>518.0</ele><time>2026-04-06T13:05:18.684Z</time></trkpt><trkpt lat="43.7711367" lon="12.4208617"><ele>518.0</ele><time>2026-04-06T13:05:19.684Z</time></trkpt><trkpt lat="43.7710617" lon="12.420895"><ele>518.0</ele><time>2026-04-06T13:05:20.685Z</time></trkpt><trkpt lat="43.7709883" lon="12.420935"><ele>518.0</ele><time>2026-04-06T13:05:21.683Z</time></trkpt><trkpt lat="43.7709183" lon="12.420975"><ele>518.0</ele><time>2026-04-06T13:05:22.685Z</time></trkpt><trkpt lat="43.7708433" lon="12.421005"><ele>520.0</ele><time>2026-04-06T13:05:23.686Z</time></trkpt><trkpt lat="43.7707667" lon="12.4210267"><ele>522.0</ele><time>2026-04-06T13:05:24.684Z</time></trkpt><trkpt lat="43.7706883" lon="12.4210433"><ele>524.0</ele><time>2026-04-06T13:05:25.687Z</time></trkpt><trkpt lat="43.77062" lon="12.4210517"><ele>526.0</ele><time>2026-04-06T13:05:26.685Z</time></trkpt><trkpt lat="43.7705567" lon="12.4210567"><ele>528.0</ele><time>2026-04-06T13:05:27.683Z</time></trkpt><trkpt lat="43.770445" lon="12.4210667"><ele>530.0</ele><time>2026-04-06T13:05:29.684Z</time></trkpt><trkpt lat="43.770335" lon="12.4210817"><ele>529.9999999999999</ele><time>2026-04-06T13:05:31.686Z</time></trkpt><trkpt lat="43.770265" lon="12.42109"><ele>530.0</ele><time>2026-04-06T13:05:32.684Z</time></trkpt><trkpt lat="43.77019" lon="12.4210883"><ele>530.0</ele><time>2026-04-06T13:05:33.683Z</time></trkpt><trkpt lat="43.77012" lon="12.4210783"><ele>530.0</ele><time>2026-04-06T13:05:34.684Z</time></trkpt><trkpt lat="43.7700483" lon="12.421065"><ele>530.0</ele><time>2026-04-06T13:05:35.685Z</time></trkpt><trkpt lat="43.7699817" lon="12.4210433"><ele>529.9999999999999</ele><time>2026-04-06T13:05:36.684Z</time></trkpt><trkpt lat="43.769915" lon="12.4210117"><ele>530.0</ele><time>2026-04-06T13:05:37.687Z</time></trkpt><trkpt lat="43.7698467" lon="12.42098"><ele>533.3333333333333</ele><time>2026-04-06T13:05:38.685Z</time></trkpt><trkpt lat="43.7697783" lon="12.42095"><ele>536.6666666666666</ele><time>2026-04-06T13:05:39.684Z</time></trkpt><trkpt lat="43.7697167" lon="12.420925"><ele>540.0</ele><time>2026-04-06T13:05:40.686Z</time></trkpt><trkpt lat="43.769625" lon="12.4208867"><ele>543.3333333333334</ele><time>2026-04-06T13:05:42.685Z</time></trkpt><trkpt lat="43.7694983" lon="12.4208433"><ele>546.6666666666667</ele><time>2026-04-06T13:05:44.686Z</time></trkpt><trkpt lat="43.76943" lon="12.420825"><ele>550.0</ele><time>2026-04-06T13:05:45.685Z</time></trkpt><trkpt lat="43.76936" lon="12.4208017"><ele>553.6666666666667</ele><time>2026-04-06T13:05:46.684Z</time></trkpt><trkpt lat="43.7692967" lon="12.4207783"><ele>557.3333333333334</ele><time>2026-04-06T13:05:47.688Z</time></trkpt><trkpt lat="43.7691867" lon="12.420745"><ele>561.0</ele><time>2026-04-06T13:05:49.685Z</time></trkpt><trkpt lat="43.7691" lon="12.420705"><ele>564.6666666666666</ele><time>2026-04-06T13:05:51.685Z</time></trkpt><trkpt lat="43.76903" lon="12.4206917"><ele>568.3333333333333</ele><time>2026-04-06T13:05:54.685Z</time></trkpt><trkpt lat="43.7689583" lon="12.4206917"><ele>572.0</ele><time>2026-04-06T13:06:35.686Z</time></trkpt><trkpt lat="43.768895" lon="12.4207117"><ele>572.0</ele><time>2026-04-06T13:06:37.686Z</time></trkpt><trkpt lat="43.7688267" lon="12.420755"><ele>572.0</ele><time>2026-04-06T13:06:39.686Z</time></trkpt><trkpt lat="43.7687633" lon="12.420795"><ele>572.0</ele><time>2026-04-06T13:06:41.687Z</time></trkpt><trkpt lat="43.7686983" lon="12.42086"><ele>572.0</ele><time>2026-04-06T13:06:43.685Z</time></trkpt><trkpt lat="43.7686383" lon="12.420935"><ele>572.0</ele><time>2026-04-06T13:06:45.685Z</time></trkpt><trkpt lat="43.768565" lon="12.42103"><ele>572.0</ele><time>2026-04-06T13:06:47.684Z</time></trkpt><trkpt lat="43.7684883" lon="12.4211367"><ele>573.3333333333333</ele><time>2026-04-06T13:06:49.687Z</time></trkpt><trkpt lat="43.7684233" lon="12.4212533"><ele>574.6666666666666</ele><time>2026-04-06T13:06:51.686Z</time></trkpt><trkpt lat="43.7683817" lon="12.4213517"><ele>576.0</ele><time>2026-04-06T13:06:53.685Z</time></trkpt><trkpt lat="43.7683483" lon="12.4214417"><ele>577.3333333333334</ele><time>2026-04-06T13:06:56.685Z</time></trkpt><trkpt lat="43.7683217" lon="12.4215367"><ele>578.6666666666667</ele><time>2026-04-06T13:07:00.689Z</time></trkpt><trkpt lat="43.7683033" lon="12.4216317"><ele>580.0</ele><time>2026-04-06T13:07:03.686Z</time></trkpt><trkpt lat="43.7682833" lon="12.4217667"><ele>580.0</ele><time>2026-04-06T13:07:06.685Z</time></trkpt><trkpt lat="43.7682817" lon="12.4218883"><ele>580.0</ele><time>2026-04-06T13:07:08.686Z</time></trkpt><trkpt lat="43.7682817" lon="12.421985"><ele>580.0</ele><time>2026-04-06T13:07:10.685Z</time></trkpt><trkpt lat="43.7682467" lon="12.422095"><ele>580.0</ele><time>2026-04-06T13:07:12.686Z</time></trkpt><trkpt lat="43.7681933" lon="12.4222167"><ele>580.0</ele><time>2026-04-06T13:07:14.685Z</time></trkpt><trkpt lat="43.76813" lon="12.4223267"><ele>580.0</ele><time>2026-04-06T13:07:16.684Z</time></trkpt><trkpt lat="43.768065" lon="12.4224217"><ele>582.0</ele><time>2026-04-06T13:07:18.685Z</time></trkpt><trkpt lat="43.7679967" lon="12.4225283"><ele>584.0</ele><time>2026-04-06T13:07:20.686Z</time></trkpt><trkpt lat="43.7679167" lon="12.422655"><ele>586.0</ele><time>2026-04-06T13:07:22.684Z</time></trkpt><trkpt lat="43.7678333" lon="12.422775"><ele>588.0</ele><time>2026-04-06T13:07:24.684Z</time></trkpt><trkpt lat="43.7677567" lon="12.42288"><ele>585.8333333333334</ele><time>2026-04-06T13:07:26.683Z</time></trkpt><trkpt lat="43.7676917" lon="12.4229783"><ele>583.6666666666666</ele><time>2026-04-06T13:07:28.686Z</time></trkpt><trkpt lat="43.7676233" lon="12.4230667"><ele>581.5</ele><time>2026-04-06T13:07:30.686Z</time></trkpt><trkpt lat="43.7675433" lon="12.4231767"><ele>579.3333333333333</ele><time>2026-04-06T13:07:32.685Z</time></trkpt><trkpt lat="43.7675017" lon="12.423245"><ele>577.1666666666666</ele><time>2026-04-06T13:07:33.686Z</time></trkpt><trkpt lat="43.7674633" lon="12.4233233"><ele>575.0</ele><time>2026-04-06T13:07:34.686Z</time></trkpt><trkpt lat="43.7674267" lon="12.4234033"><ele>575.0</ele><time>2026-04-06T13:07:35.686Z</time></trkpt><trkpt lat="43.7673983" lon="12.4234867"><ele>575.0</ele><time>2026-04-06T13:07:36.685Z</time></trkpt><trkpt lat="43.7673717" lon="12.42357"><ele>575.0</ele><time>2026-04-06T13:07:37.687Z</time></trkpt><trkpt lat="43.767355" lon="12.4236583"><ele>575.0</ele><time>2026-04-06T13:07:38.685Z</time></trkpt><trkpt lat="43.7673417" lon="12.4237483"><ele>575.0</ele><time>2026-04-06T13:07:39.685Z</time></trkpt><trkpt lat="43.76734" lon="12.423925"><ele>575.0</ele><time>2026-04-06T13:07:41.687Z</time></trkpt><trkpt lat="43.7673417" lon="12.4240167"><ele>575.3333333333333</ele><time>2026-04-06T13:07:42.684Z</time></trkpt><trkpt lat="43.76734" lon="12.4241083"><ele>575.6666666666666</ele><time>2026-04-06T13:07:43.686Z</time></trkpt><trkpt lat="43.7673483" lon="12.4242617"><ele>576.0</ele><time>2026-04-06T13:07:45.686Z</time></trkpt><trkpt lat="43.7673667" lon="12.4243633"><ele>576.3333333333334</ele><time>2026-04-06T13:07:47.686Z</time></trkpt><trkpt lat="43.767385" lon="12.4244717"><ele>576.6666666666667</ele><time>2026-04-06T13:07:52.684Z</time></trkpt><trkpt lat="43.7674117" lon="12.4245783"><ele>577.0</ele><time>2026-04-06T13:07:55.686Z</time></trkpt><trkpt lat="43.7674717" lon="12.424745"><ele>577.0</ele><time>2026-04-06T13:07:57.686Z</time></trkpt><trkpt lat="43.76751" lon="12.4248433"><ele>577.0</ele><time>2026-04-06T13:07:58.687Z</time></trkpt><trkpt lat="43.76755" lon="12.424935"><ele>577.0</ele><time>2026-04-06T13:07:59.685Z</time></trkpt><trkpt lat="43.7675833" lon="12.4250183"><ele>577.0</ele><time>2026-04-06T13:08:00.686Z</time></trkpt><trkpt lat="43.76761" lon="12.4250983"><ele>577.0</ele><time>2026-04-06T13:08:01.685Z</time></trkpt><trkpt lat="43.7676317" lon="12.4252533"><ele>577.0</ele><time>2026-04-06T13:08:03.684Z</time></trkpt><trkpt lat="43.7676117" lon="12.425425"><ele>577.0</ele><time>2026-04-06T13:08:05.684Z</time></trkpt><trkpt lat="43.7675717" lon="12.4255667"><ele>577.0</ele><time>2026-04-06T13:08:07.685Z</time></trkpt><trkpt lat="43.7675417" lon="12.4256817"><ele>577.0</ele><time>2026-04-06T13:08:10.685Z</time></trkpt><trkpt lat="43.7675133" lon="12.4258"><ele>577.0</ele><time>2026-04-06T13:08:12.685Z</time></trkpt><trkpt lat="43.7674533" lon="12.42593"><ele>577.0</ele><time>2026-04-06T13:08:14.684Z</time></trkpt><trkpt lat="43.7674167" lon="12.4260083"><ele>577.0</ele><time>2026-04-06T13:08:15.686Z</time></trkpt><trkpt lat="43.7673783" lon="12.4260933"><ele>577.0</ele><time>2026-04-06T13:08:16.685Z</time></trkpt><trkpt lat="43.767345" lon="12.4261817"><ele>577.0</ele><time>2026-04-06T13:08:17.684Z</time></trkpt><trkpt lat="43.7673133" lon="12.4262683"><ele>577.0</ele><time>2026-04-06T13:08:18.683Z</time></trkpt><trkpt lat="43.7672933" lon="12.4263583"><ele>577.0</ele><time>2026-04-06T13:08:19.689Z</time></trkpt><trkpt lat="43.7672783" lon="12.4265183"><ele>577.0</ele><time>2026-04-06T13:08:21.684Z</time></trkpt><trkpt lat="43.767275" lon="12.4266283"><ele>577.3333333333334</ele><time>2026-04-06T13:08:23.686Z</time></trkpt><trkpt lat="43.7672817" lon="12.42673"><ele>577.6666666666667</ele><time>2026-04-06T13:08:25.687Z</time></trkpt><trkpt lat="43.7672833" lon="12.426855"><ele>578.0</ele><time>2026-04-06T13:08:27.686Z</time></trkpt><trkpt lat="43.7672833" lon="12.4269783"><ele>578.3333333333334</ele><time>2026-04-06T13:08:29.682Z</time></trkpt><trkpt lat="43.7672867" lon="12.4271083"><ele>578.6666666666666</ele><time>2026-04-06T13:08:31.686Z</time></trkpt><trkpt lat="43.7672817" lon="12.4272483"><ele>579.0</ele><time>2026-04-06T13:08:33.685Z</time></trkpt><trkpt lat="43.7672667" lon="12.4273917"><ele>578.2</ele><time>2026-04-06T13:08:35.688Z</time></trkpt><trkpt lat="43.7672483" lon="12.4275267"><ele>577.4</ele><time>2026-04-06T13:08:37.687Z</time></trkpt><trkpt lat="43.7672233" lon="12.4276533"><ele>576.6</ele><time>2026-04-06T13:08:39.684Z</time></trkpt><trkpt lat="43.7671867" lon="12.4277817"><ele>575.8</ele><time>2026-04-06T13:08:41.688Z</time></trkpt><trkpt lat="43.7671467" lon="12.4279183"><ele>575.0</ele><time>2026-04-06T13:08:43.686Z</time></trkpt><trkpt lat="43.7671183" lon="12.42804"><ele>573.3333333333333</ele><time>2026-04-06T13:08:45.684Z</time></trkpt><trkpt lat="43.7670967" lon="12.4281233"><ele>571.6666666666666</ele><time>2026-04-06T13:08:47.685Z</time></trkpt><trkpt lat="43.7670333" lon="12.4281967"><ele>570.0</ele><time>2026-04-06T13:08:50.685Z</time></trkpt><trkpt lat="43.766965" lon="12.4282517"><ele>568.3333333333334</ele><time>2026-04-06T13:09:49.686Z</time></trkpt><trkpt lat="43.7668917" lon="12.4283133"><ele>566.6666666666667</ele><time>2026-04-06T13:09:51.685Z</time></trkpt><trkpt lat="43.7668217" lon="12.428375"><ele>565.0</ele><time>2026-04-06T13:09:53.685Z</time></trkpt><trkpt lat="43.7667533" lon="12.42843"><ele>565.0</ele><time>2026-04-06T13:09:55.686Z</time></trkpt><trkpt lat="43.76668" lon="12.4284667"><ele>565.0</ele><time>2026-04-06T13:09:57.685Z</time></trkpt><trkpt lat="43.7666117" lon="12.4284733"><ele>565.0</ele><time>2026-04-06T13:09:59.685Z</time></trkpt><trkpt lat="43.7665383" lon="12.4284433"><ele>565.0</ele><time>2026-04-06T13:10:02.686Z</time></trkpt><trkpt lat="43.7664733" lon="12.4283983"><ele>565.0</ele><time>2026-04-06T13:10:05.685Z</time></trkpt><trkpt lat="43.7664217" lon="12.428315"><ele>565.0</ele><time>2026-04-06T13:10:08.685Z</time></trkpt><trkpt lat="43.7663783" lon="12.42819"><ele>565.0</ele><time>2026-04-06T13:10:11.683Z</time></trkpt><trkpt lat="43.7663383" lon="12.4280917"><ele>565.0</ele><time>2026-04-06T13:10:13.686Z</time></trkpt><trkpt lat="43.766305" lon="12.427995"><ele>565.0</ele><time>2026-04-06T13:10:15.685Z</time></trkpt><trkpt lat="43.76627" lon="12.4278933"><ele>565.0</ele><time>2026-04-06T13:10:17.685Z</time></trkpt><trkpt lat="43.766245" lon="12.4277833"><ele>565.0</ele><time>2026-04-06T13:10:19.685Z</time></trkpt><trkpt lat="43.7662083" lon="12.4277033"><ele>565.0</ele><time>2026-04-06T13:10:21.685Z</time></trkpt><trkpt lat="43.7661367" lon="12.427665"><ele>564.2</ele><time>2026-04-06T13:10:23.688Z</time></trkpt><trkpt lat="43.766045" lon="12.427685"><ele>563.4</ele><time>2026-04-06T13:10:25.685Z</time></trkpt><trkpt lat="43.7659633" lon="12.4277167"><ele>562.6</ele><time>2026-04-06T13:10:27.685Z</time></trkpt><trkpt lat="43.7658817" lon="12.4277533"><ele>561.8</ele><time>2026-04-06T13:10:29.687Z</time></trkpt><trkpt lat="43.765775" lon="12.4277917"><ele>561.0</ele><time>2026-04-06T13:10:31.688Z</time></trkpt><trkpt lat="43.7656667" lon="12.427805"><ele>557.8333333333334</ele><time>2026-04-06T13:10:33.684Z</time></trkpt><trkpt lat="43.7655783" lon="12.4278117"><ele>554.6666666666666</ele><time>2026-04-06T13:10:35.685Z</time></trkpt><trkpt lat="43.7655117" lon="12.4277933"><ele>551.5</ele><time>2026-04-06T13:10:37.687Z</time></trkpt><trkpt lat="43.7654267" lon="12.427745"><ele>548.3333333333333</ele><time>2026-04-06T13:10:40.687Z</time></trkpt><trkpt lat="43.7653667" lon="12.427685"><ele>545.1666666666666</ele><time>2026-04-06T13:10:42.687Z</time></trkpt><trkpt lat="43.7653217" lon="12.4276067"><ele>542.0</ele><time>2026-04-06T13:10:44.685Z</time></trkpt><trkpt lat="43.7652617" lon="12.42752"><ele>539.3333333333333</ele><time>2026-04-06T13:10:46.686Z</time></trkpt><trkpt lat="43.765185" lon="12.4274433"><ele>536.6666666666666</ele><time>2026-04-06T13:10:48.686Z</time></trkpt><trkpt lat="43.7651217" lon="12.4273917"><ele>534.0</ele><time>2026-04-06T13:10:50.684Z</time></trkpt><trkpt lat="43.7650583" lon="12.42735"><ele>531.3333333333334</ele><time>2026-04-06T13:10:55.687Z</time></trkpt><trkpt lat="43.765" lon="12.427315"><ele>528.6666666666667</ele><time>2026-04-06T13:10:58.685Z</time></trkpt><trkpt lat="43.764915" lon="12.4272533"><ele>526.0</ele><time>2026-04-06T13:11:01.687Z</time></trkpt><trkpt lat="43.7648533" lon="12.427205"><ele>526.0</ele><time>2026-04-06T13:11:03.683Z</time></trkpt><trkpt lat="43.76479" lon="12.427165"><ele>526.0</ele><time>2026-04-06T13:11:05.686Z</time></trkpt><trkpt lat="43.7647167" lon="12.42712"><ele>526.0</ele><time>2026-04-06T13:11:08.683Z</time></trkpt><trkpt lat="43.7646367" lon="12.42708"><ele>526.0</ele><time>2026-04-06T13:11:11.685Z</time></trkpt><trkpt lat="43.76457" lon="12.4270633"><ele>526.0</ele><time>2026-04-06T13:11:13.686Z</time></trkpt><trkpt lat="43.764505" lon="12.42705"><ele>526.0</ele><time>2026-04-06T13:11:15.684Z</time></trkpt><trkpt lat="43.764415" lon="12.4270183"><ele>522.3333333333334</ele><time>2026-04-06T13:11:18.685Z</time></trkpt><trkpt lat="43.764335" lon="12.4269883"><ele>518.6666666666667</ele><time>2026-04-06T13:11:21.683Z</time></trkpt><trkpt lat="43.7642667" lon="12.4269933"><ele>515.0</ele><time>2026-04-06T13:11:44.686Z</time></trkpt><trkpt lat="43.7642" lon="12.42698"><ele>511.33333333333337</ele><time>2026-04-06T13:11:49.685Z</time></trkpt><trkpt lat="43.7641133" lon="12.4269767"><ele>507.6666666666667</ele><time>2026-04-06T13:11:52.685Z</time></trkpt><trkpt lat="43.7640233" lon="12.42698"><ele>504.0</ele><time>2026-04-06T13:11:55.687Z</time></trkpt><trkpt lat="43.7639383" lon="12.4269833"><ele>504.0</ele><time>2026-04-06T13:11:58.685Z</time></trkpt><trkpt lat="43.763875" lon="12.4269783"><ele>504.0</ele><time>2026-04-06T13:12:00.686Z</time></trkpt><trkpt lat="43.7638017" lon="12.426975"><ele>504.0</ele><time>2026-04-06T13:12:02.685Z</time></trkpt><trkpt lat="43.7637283" lon="12.4269767"><ele>504.0</ele><time>2026-04-06T13:12:04.686Z</time></trkpt><trkpt lat="43.7636417" lon="12.4269867"><ele>504.0</ele><time>2026-04-06T13:12:06.686Z</time></trkpt><trkpt lat="43.763555" lon="12.427005"><ele>504.0</ele><time>2026-04-06T13:12:08.686Z</time></trkpt><trkpt lat="43.7634867" lon="12.4270017"><ele>504.0</ele><time>2026-04-06T13:12:10.686Z</time></trkpt><trkpt lat="43.763445" lon="12.4269117"><ele>504.0</ele><time>2026-04-06T13:12:13.686Z</time></trkpt><trkpt lat="43.7634683" lon="12.4267917"><ele>504.0</ele><time>2026-04-06T13:12:16.685Z</time></trkpt><trkpt lat="43.7635083" lon="12.42672"><ele>504.0</ele><time>2026-04-06T13:12:18.686Z</time></trkpt><trkpt lat="43.76355" lon="12.42662"><ele>504.0</ele><time>2026-04-06T13:12:20.685Z</time></trkpt><trkpt lat="43.763565" lon="12.42653"><ele>504.0</ele><time>2026-04-06T13:12:22.685Z</time></trkpt><trkpt lat="43.7635867" lon="12.4264133"><ele>502.6666666666667</ele><time>2026-04-06T13:12:25.686Z</time></trkpt><trkpt lat="43.7635917" lon="12.4262917"><ele>501.33333333333337</ele><time>2026-04-06T13:12:28.683Z</time></trkpt><trkpt lat="43.7635967" lon="12.4261983"><ele>500.0</ele><time>2026-04-06T13:12:30.684Z</time></trkpt><trkpt lat="43.763605" lon="12.4260833"><ele>498.6666666666667</ele><time>2026-04-06T13:12:32.684Z</time></trkpt><trkpt lat="43.763615" lon="12.4259783"><ele>497.33333333333337</ele><time>2026-04-06T13:12:48.683Z</time></trkpt><trkpt lat="43.763515" lon="12.425965"><ele>496.0</ele><time>2026-04-06T13:12:53.687Z</time></trkpt><trkpt lat="43.7634517" lon="12.42597"><ele>494.1666666666667</ele><time>2026-04-06T13:12:54.684Z</time></trkpt><trkpt lat="43.76334" lon="12.4259717"><ele>492.33333333333337</ele><time>2026-04-06T13:12:56.685Z</time></trkpt><trkpt lat="43.7632417" lon="12.4259483"><ele>490.5</ele><time>2026-04-06T13:12:58.684Z</time></trkpt><trkpt lat="43.76316" lon="12.4259233"><ele>488.66666666666663</ele><time>2026-04-06T13:13:00.687Z</time></trkpt><trkpt lat="43.7630917" lon="12.425895"><ele>486.8333333333333</ele><time>2026-04-06T13:13:03.684Z</time></trkpt><trkpt lat="43.7630467" lon="12.42582"><ele>485.0</ele><time>2026-04-06T13:13:08.684Z</time></trkpt><trkpt lat="43.7629883" lon="12.4257717"><ele>484.99999999999994</ele><time>2026-04-06T13:13:10.687Z</time></trkpt><trkpt lat="43.7629017" lon="12.4257467"><ele>485.0</ele><time>2026-04-06T13:13:12.684Z</time></trkpt><trkpt lat="43.7628233" lon="12.4257467"><ele>485.0</ele><time>2026-04-06T13:13:14.684Z</time></trkpt><trkpt lat="43.762745" lon="12.42576"><ele>485.0</ele><time>2026-04-06T13:13:16.686Z</time></trkpt><trkpt lat="43.76267" lon="12.4257883"><ele>484.99999999999994</ele><time>2026-04-06T13:13:18.685Z</time></trkpt><trkpt lat="43.762585" lon="12.4258117"><ele>485.0</ele><time>2026-04-06T13:13:20.686Z</time></trkpt><trkpt lat="43.7625" lon="12.42583"><ele>483.49999999999994</ele><time>2026-04-06T13:13:22.685Z</time></trkpt><trkpt lat="43.7624217" lon="12.4258533"><ele>482.0</ele><time>2026-04-06T13:13:24.685Z</time></trkpt><trkpt lat="43.7623533" lon="12.4259317"><ele>480.5</ele><time>2026-04-06T13:13:27.684Z</time></trkpt><trkpt lat="43.762335" lon="12.4260267"><ele>479.0</ele><time>2026-04-06T13:13:29.685Z</time></trkpt><trkpt lat="43.7623067" lon="12.4261367"><ele>477.49999999999994</ele><time>2026-04-06T13:13:31.686Z</time></trkpt><trkpt lat="43.7622683" lon="12.4262367"><ele>476.0</ele><time>2026-04-06T13:13:33.684Z</time></trkpt><trkpt lat="43.76223" lon="12.42632"><ele>474.57142857142856</ele><time>2026-04-06T13:13:35.686Z</time></trkpt><trkpt lat="43.7621733" lon="12.4263783"><ele>473.1428571428571</ele><time>2026-04-06T13:13:37.686Z</time></trkpt><trkpt lat="43.7621183" lon="12.4264317"><ele>471.7142857142857</ele><time>2026-04-06T13:13:39.683Z</time></trkpt><trkpt lat="43.7620517" lon="12.426485"><ele>470.2857142857143</ele><time>2026-04-06T13:13:41.686Z</time></trkpt><trkpt lat="43.76199" lon="12.426545"><ele>468.85714285714283</ele><time>2026-04-06T13:13:43.687Z</time></trkpt><trkpt lat="43.761935" lon="12.4265967"><ele>467.42857142857144</ele><time>2026-04-06T13:13:45.684Z</time></trkpt><trkpt lat="43.7618817" lon="12.4266517"><ele>466.0</ele><time>2026-04-06T13:13:47.689Z</time></trkpt><trkpt lat="43.7618167" lon="12.4267033"><ele>463.83333333333337</ele><time>2026-04-06T13:13:49.686Z</time></trkpt><trkpt lat="43.7617483" lon="12.4267417"><ele>461.6666666666667</ele><time>2026-04-06T13:13:51.685Z</time></trkpt><trkpt lat="43.7616767" lon="12.4267783"><ele>459.5</ele><time>2026-04-06T13:13:53.685Z</time></trkpt><trkpt lat="43.7616067" lon="12.426825"><ele>457.33333333333337</ele><time>2026-04-06T13:13:55.687Z</time></trkpt><trkpt lat="43.7615367" lon="12.4268633"><ele>455.1666666666667</ele><time>2026-04-06T13:13:57.685Z</time></trkpt><trkpt lat="43.76145" lon="12.4269083"><ele>453.0</ele><time>2026-04-06T13:14:00.687Z</time></trkpt><trkpt lat="43.7613733" lon="12.42692"><ele>453.0</ele><time>2026-04-06T13:14:04.683Z</time></trkpt><trkpt lat="43.7613017" lon="12.4269017"><ele>453.0</ele><time>2026-04-06T13:14:07.688Z</time></trkpt><trkpt lat="43.7612583" lon="12.42682"><ele>453.0</ele><time>2026-04-06T13:14:10.685Z</time></trkpt><trkpt lat="43.76122" lon="12.4267267"><ele>453.0</ele><time>2026-04-06T13:14:13.688Z</time></trkpt><trkpt lat="43.7611317" lon="12.4267117"><ele>453.0</ele><time>2026-04-06T13:14:16.686Z</time></trkpt><trkpt lat="43.7610483" lon="12.4267533"><ele>453.0</ele><time>2026-04-06T13:14:18.684Z</time></trkpt><trkpt lat="43.76099" lon="12.4267867"><ele>451.8571428571428</ele><time>2026-04-06T13:14:20.683Z</time></trkpt><trkpt lat="43.7609167" lon="12.42682"><ele>450.71428571428567</ele><time>2026-04-06T13:14:23.684Z</time></trkpt><trkpt lat="43.7608583" lon="12.4268883"><ele>449.57142857142856</ele><time>2026-04-06T13:14:27.686Z</time></trkpt><trkpt lat="43.7607967" lon="12.4269383"><ele>448.4285714285714</ele><time>2026-04-06T13:14:29.688Z</time></trkpt><trkpt lat="43.7607317" lon="12.4269967"><ele>447.2857142857142</ele><time>2026-04-06T13:14:31.687Z</time></trkpt><trkpt lat="43.7606767" lon="12.427055"><ele>446.14285714285717</ele><time>2026-04-06T13:14:34.685Z</time></trkpt><trkpt lat="43.7606467" lon="12.4271383"><ele>445.0</ele><time>2026-04-06T13:14:38.685Z</time></trkpt><trkpt lat="43.760605" lon="12.42722"><ele>443.1666666666667</ele><time>2026-04-06T13:14:41.686Z</time></trkpt><trkpt lat="43.760565" lon="12.4273133"><ele>441.33333333333337</ele><time>2026-04-06T13:14:43.687Z</time></trkpt><trkpt lat="43.7605233" lon="12.427405"><ele>439.5</ele><time>2026-04-06T13:14:45.684Z</time></trkpt><trkpt lat="43.76047" lon="12.427475"><ele>437.66666666666663</ele><time>2026-04-06T13:14:48.684Z</time></trkpt><trkpt lat="43.7603917" lon="12.42752"><ele>435.8333333333333</ele><time>2026-04-06T13:14:51.684Z</time></trkpt><trkpt lat="43.7603283" lon="12.4275817"><ele>434.0</ele><time>2026-04-06T13:14:54.686Z</time></trkpt><trkpt lat="43.7603183" lon="12.4276833"><ele>434.0</ele><time>2026-04-06T13:14:56.684Z</time></trkpt><trkpt lat="43.76032" lon="12.4277933"><ele>434.0</ele><time>2026-04-06T13:14:58.685Z</time></trkpt><trkpt lat="43.760315" lon="12.427895"><ele>434.0</ele><time>2026-04-06T13:15:00.683Z</time></trkpt><trkpt lat="43.7602917" lon="12.4279817"><ele>434.0</ele><time>2026-04-06T13:15:02.685Z</time></trkpt><trkpt lat="43.7602417" lon="12.4280817"><ele>434.0</ele><time>2026-04-06T13:15:05.687Z</time></trkpt><trkpt lat="43.76022" lon="12.428165"><ele>434.0</ele><time>2026-04-06T13:15:09.683Z</time></trkpt><trkpt lat="43.760205" lon="12.4282567"><ele>434.0</ele><time>2026-04-06T13:15:12.686Z</time></trkpt><trkpt lat="43.7601733" lon="12.4283533"><ele>432.66666666666663</ele><time>2026-04-06T13:15:16.685Z</time></trkpt><trkpt lat="43.76013" lon="12.4284167"><ele>431.3333333333333</ele><time>2026-04-06T13:15:18.687Z</time></trkpt><trkpt lat="43.7600517" lon="12.42849"><ele>430.0</ele><time>2026-04-06T13:15:21.684Z</time></trkpt><trkpt lat="43.7599883" lon="12.4285367"><ele>428.66666666666663</ele><time>2026-04-06T13:15:23.685Z</time></trkpt><trkpt lat="43.759925" lon="12.428575"><ele>427.3333333333333</ele><time>2026-04-06T13:15:25.685Z</time></trkpt><trkpt lat="43.7598517" lon="12.4286033"><ele>426.0</ele><time>2026-04-06T13:15:27.684Z</time></trkpt><trkpt lat="43.75976" lon="12.428735"><ele>426.0</ele><time>2026-04-06T13:18:48.685Z</time></trkpt><trkpt lat="43.75969" lon="12.428735"><ele>426.0</ele><time>2026-04-06T13:19:25.685Z</time></trkpt><trkpt lat="43.7596283" lon="12.4287683"><ele>426.0</ele><time>2026-04-06T13:19:27.686Z</time></trkpt><trkpt lat="43.7595617" lon="12.4287933"><ele>426.0</ele><time>2026-04-06T13:19:29.684Z</time></trkpt><trkpt lat="43.75948" lon="12.42882"><ele>426.0</ele><time>2026-04-06T13:19:31.686Z</time></trkpt><trkpt lat="43.7594133" lon="12.4288767"><ele>426.0</ele><time>2026-04-06T13:19:33.684Z</time></trkpt><trkpt lat="43.75937" lon="12.4289783"><ele>426.0</ele><time>2026-04-06T13:19:36.685Z</time></trkpt><trkpt lat="43.75932" lon="12.429095"><ele>426.0</ele><time>2026-04-06T13:19:39.688Z</time></trkpt><trkpt lat="43.7592817" lon="12.4291667"><ele>426.0</ele><time>2026-04-06T13:19:41.687Z</time></trkpt><trkpt lat="43.75923" lon="12.4292233"><ele>426.0</ele><time>2026-04-06T13:19:43.686Z</time></trkpt><trkpt lat="43.7591533" lon="12.4292783"><ele>426.0</ele><time>2026-04-06T13:19:45.685Z</time></trkpt><trkpt lat="43.7590717" lon="12.4293217"><ele>426.0</ele><time>2026-04-06T13:19:47.687Z</time></trkpt><trkpt lat="43.758975" lon="12.4293817"><ele>426.0</ele><time>2026-04-06T13:19:49.687Z</time></trkpt><trkpt lat="43.7588783" lon="12.4294533"><ele>426.0</ele><time>2026-04-06T13:19:51.686Z</time></trkpt><trkpt lat="43.7587667" lon="12.4295133"><ele>426.0</ele><time>2026-04-06T13:19:53.686Z</time></trkpt><trkpt lat="43.7587" lon="12.4295433"><ele>426.0</ele><time>2026-04-06T13:19:54.686Z</time></trkpt><trkpt lat="43.75859" lon="12.4296017"><ele>426.0</ele><time>2026-04-06T13:19:56.688Z</time></trkpt><trkpt lat="43.7584883" lon="12.4296717"><ele>429.20000000000005</ele><time>2026-04-06T13:19:58.686Z</time></trkpt><trkpt lat="43.758385" lon="12.429755"><ele>432.40000000000003</ele><time>2026-04-06T13:20:00.687Z</time></trkpt><trkpt lat="43.75828" lon="12.4298367"><ele>435.6</ele><time>2026-04-06T13:20:02.684Z</time></trkpt><trkpt lat="43.7581867" lon="12.429925"><ele>438.8</ele><time>2026-04-06T13:20:04.686Z</time></trkpt><trkpt lat="43.7581333" lon="12.4299733"><ele>442.0</ele><time>2026-04-06T13:20:05.685Z</time></trkpt><trkpt lat="43.7580267" lon="12.430055"><ele>442.0</ele><time>2026-04-06T13:20:07.688Z</time></trkpt><trkpt lat="43.7579183" lon="12.430135"><ele>442.0</ele><time>2026-04-06T13:20:09.684Z</time></trkpt><trkpt lat="43.7578133" lon="12.4302367"><ele>442.0</ele><time>2026-04-06T13:20:11.686Z</time></trkpt><trkpt lat="43.75772" lon="12.4303183"><ele>442.0</ele><time>2026-04-06T13:20:13.686Z</time></trkpt><trkpt lat="43.757615" lon="12.4303483"><ele>445.6</ele><time>2026-04-06T13:20:15.685Z</time></trkpt><trkpt lat="43.7575517" lon="12.4303467"><ele>449.20000000000005</ele><time>2026-04-06T13:20:16.685Z</time></trkpt><trkpt lat="43.757435" lon="12.43034"><ele>452.8</ele><time>2026-04-06T13:20:18.686Z</time></trkpt><trkpt lat="43.75733" lon="12.4303167"><ele>456.4</ele><time>2026-04-06T13:20:20.685Z</time></trkpt><trkpt lat="43.7572267" lon="12.4302817"><ele>460.0</ele><time>2026-04-06T13:20:22.687Z</time></trkpt><trkpt lat="43.75711" lon="12.430235"><ele>460.0</ele><time>2026-04-06T13:20:24.687Z</time></trkpt><trkpt lat="43.7569983" lon="12.4301933"><ele>460.0</ele><time>2026-04-06T13:20:26.686Z</time></trkpt><trkpt lat="43.7568917" lon="12.430135"><ele>460.0</ele><time>2026-04-06T13:20:28.687Z</time></trkpt><trkpt lat="43.7567883" lon="12.4300517"><ele>460.0</ele><time>2026-04-06T13:20:30.687Z</time></trkpt><trkpt lat="43.756695" lon="12.4299483"><ele>462.00000000000006</ele><time>2026-04-06T13:20:32.687Z</time></trkpt><trkpt lat="43.7565917" lon="12.4298433"><ele>464.0</ele><time>2026-04-06T13:20:34.685Z</time></trkpt><trkpt lat="43.756535" lon="12.4297867"><ele>466.0</ele><time>2026-04-06T13:20:35.682Z</time></trkpt><trkpt lat="43.7564833" lon="12.4297333"><ele>468.0</ele><time>2026-04-06T13:20:36.684Z</time></trkpt><trkpt lat="43.75643" lon="12.42968"><ele>470.00000000000006</ele><time>2026-04-06T13:20:37.685Z</time></trkpt><trkpt lat="43.7563717" lon="12.42963"><ele>472.0</ele><time>2026-04-06T13:20:38.681Z</time></trkpt><trkpt lat="43.7563083" lon="12.4295833"><ele>473.0</ele><time>2026-04-06T13:20:39.683Z</time></trkpt><trkpt lat="43.7562433" lon="12.4295367"><ele>474.0</ele><time>2026-04-06T13:20:40.685Z</time></trkpt><trkpt lat="43.7561783" lon="12.42949"><ele>475.0</ele><time>2026-04-06T13:20:41.683Z</time></trkpt><trkpt lat="43.756115" lon="12.4294433"><ele>476.0</ele><time>2026-04-06T13:20:42.684Z</time></trkpt><trkpt lat="43.7560517" lon="12.4293983"><ele>477.0</ele><time>2026-04-06T13:20:43.684Z</time></trkpt><trkpt lat="43.755985" lon="12.42935"><ele>478.0</ele><time>2026-04-06T13:20:44.683Z</time></trkpt><trkpt lat="43.7559183" lon="12.429305"><ele>479.0</ele><time>2026-04-06T13:20:45.684Z</time></trkpt><trkpt lat="43.7558517" lon="12.42926"><ele>481.42857142857144</ele><time>2026-04-06T13:20:46.684Z</time></trkpt><trkpt lat="43.7557833" lon="12.4292133"><ele>483.8571428571429</ele><time>2026-04-06T13:20:47.684Z</time></trkpt><trkpt lat="43.7557167" lon="12.429165"><ele>486.28571428571433</ele><time>2026-04-06T13:20:48.684Z</time></trkpt><trkpt lat="43.7556483" lon="12.4291217"><ele>488.7142857142857</ele><time>2026-04-06T13:20:49.685Z</time></trkpt><trkpt lat="43.75558" lon="12.4290817"><ele>491.1428571428572</ele><time>2026-04-06T13:20:50.684Z</time></trkpt><trkpt lat="43.755515" lon="12.4290467"><ele>493.5714285714286</ele><time>2026-04-06T13:20:51.686Z</time></trkpt><trkpt lat="43.7554517" lon="12.429015"><ele>496.0</ele><time>2026-04-06T13:20:52.686Z</time></trkpt><trkpt lat="43.75539" lon="12.42899"><ele>496.0</ele><time>2026-04-06T13:20:53.685Z</time></trkpt><trkpt lat="43.7552767" lon="12.4289683"><ele>496.0</ele><time>2026-04-06T13:20:55.687Z</time></trkpt><trkpt lat="43.7551783" lon="12.4289533"><ele>496.0</ele><time>2026-04-06T13:20:57.686Z</time></trkpt><trkpt lat="43.7550667" lon="12.4288917"><ele>496.0</ele><time>2026-04-06T13:20:59.685Z</time></trkpt><trkpt lat="43.754955" lon="12.42881"><ele>498.50000000000006</ele><time>2026-04-06T13:21:01.686Z</time></trkpt><trkpt lat="43.7548617" lon="12.4287033"><ele>501.0</ele><time>2026-04-06T13:21:03.685Z</time></trkpt><trkpt lat="43.7547817" lon="12.4286017"><ele>503.5</ele><time>2026-04-06T13:21:05.683Z</time></trkpt><trkpt lat="43.7547283" lon="12.4285467"><ele>506.0</ele><time>2026-04-06T13:21:06.686Z</time></trkpt><trkpt lat="43.75467" lon="12.42849"><ele>508.50000000000006</ele><time>2026-04-06T13:21:07.689Z</time></trkpt><trkpt lat="43.754605" lon="12.4284283"><ele>511.0</ele><time>2026-04-06T13:21:08.684Z</time></trkpt><trkpt lat="43.7545383" lon="12.4283633"><ele>511.00000000000006</ele><time>2026-04-06T13:21:09.686Z</time></trkpt><trkpt lat="43.7544733" lon="12.4282967"><ele>511.0</ele><time>2026-04-06T13:21:10.686Z</time></trkpt><trkpt lat="43.7544083" lon="12.4282317"><ele>511.0</ele><time>2026-04-06T13:21:11.686Z</time></trkpt><trkpt lat="43.7543483" lon="12.4281667"><ele>511.0</ele><time>2026-04-06T13:21:12.685Z</time></trkpt><trkpt lat="43.7542833" lon="12.4280983"><ele>511.00000000000006</ele><time>2026-04-06T13:21:13.687Z</time></trkpt><trkpt lat="43.7542183" lon="12.42803"><ele>511.0</ele><time>2026-04-06T13:21:14.685Z</time></trkpt><trkpt lat="43.7541558" lon="12.4279601"><ele>515.0</ele><time>2026-04-06T13:21:15.686Z</time></trkpt><trkpt lat="43.7540943" lon="12.4278924"><ele>519.0</ele><time>2026-04-06T13:21:16.686Z</time></trkpt><trkpt lat="43.7540356" lon="12.4278293"><ele>523.0</ele><time>2026-04-06T13:21:17.686Z</time></trkpt><trkpt lat="43.7539796" lon="12.4277692"><ele>527.0</ele><time>2026-04-06T13:21:18.686Z</time></trkpt><trkpt lat="43.7539308" lon="12.4277139"><ele>531.0</ele><time>2026-04-06T13:21:19.687Z</time></trkpt><trkpt lat="43.7538378" lon="12.4276345"><ele>535.0</ele><time>2026-04-06T13:21:21.684Z</time></trkpt><trkpt lat="43.7537347" lon="12.427597"><ele>535.0</ele><time>2026-04-06T13:21:23.687Z</time></trkpt><trkpt lat="43.7536082" lon="12.427611"><ele>535.0</ele><time>2026-04-06T13:21:25.683Z</time></trkpt><trkpt lat="43.7535383" lon="12.4276352"><ele>535.0</ele><time>2026-04-06T13:21:26.681Z</time></trkpt><trkpt lat="43.7534741" lon="12.4276691"><ele>535.0</ele><time>2026-04-06T13:21:27.682Z</time></trkpt><trkpt lat="43.753408" lon="12.4277078"><ele>535.0</ele><time>2026-04-06T13:21:28.686Z</time></trkpt><trkpt lat="43.7533444" lon="12.4277447"><ele>535.0</ele><time>2026-04-06T13:21:29.682Z</time></trkpt><trkpt lat="43.7532837" lon="12.4277795"><ele>538.0</ele><time>2026-04-06T13:21:30.689Z</time></trkpt><trkpt lat="43.7532215" lon="12.4278039"><ele>541.0</ele><time>2026-04-06T13:21:31.684Z</time></trkpt><trkpt lat="43.7531538" lon="12.4278332"><ele>544.0</ele><time>2026-04-06T13:21:32.684Z</time></trkpt><trkpt lat="43.7530806" lon="12.4278657"><ele>547.0</ele><time>2026-04-06T13:21:33.682Z</time></trkpt><trkpt lat="43.7530086" lon="12.4278842"><ele>550.0</ele><time>2026-04-06T13:21:34.683Z</time></trkpt><trkpt lat="43.7529414" lon="12.4278927"><ele>553.0</ele><time>2026-04-06T13:21:35.685Z</time></trkpt><trkpt lat="43.752832" lon="12.4279056"><ele>553.0</ele><time>2026-04-06T13:21:37.686Z</time></trkpt><trkpt lat="43.7527607" lon="12.4279107"><ele>553.0</ele><time>2026-04-06T13:21:39.684Z</time></trkpt><trkpt lat="43.7526727" lon="12.4279505"><ele>553.0</ele><time>2026-04-06T13:21:42.686Z</time></trkpt><trkpt lat="43.7525764" lon="12.4280274"><ele>553.0</ele><time>2026-04-06T13:21:44.685Z</time></trkpt><trkpt lat="43.7525209" lon="12.4280967"><ele>553.0</ele><time>2026-04-06T13:21:45.685Z</time></trkpt><trkpt lat="43.7524557" lon="12.4281853"><ele>553.0</ele><time>2026-04-06T13:21:46.684Z</time></trkpt><trkpt lat="43.7523786" lon="12.4282872"><ele>549.1999999999999</ele><time>2026-04-06T13:21:47.685Z</time></trkpt><trkpt lat="43.7522983" lon="12.4283983"><ele>545.4</ele><time>2026-04-06T13:21:48.685Z</time></trkpt><trkpt lat="43.7522217" lon="12.4285083"><ele>541.5999999999999</ele><time>2026-04-06T13:21:49.685Z</time></trkpt><trkpt lat="43.7521417" lon="12.4286183"><ele>537.8</ele><time>2026-04-06T13:21:50.686Z</time></trkpt><trkpt lat="43.75207" lon="12.4287317"><ele>534.0</ele><time>2026-04-06T13:21:51.684Z</time></trkpt><trkpt lat="43.752" lon="12.42884"><ele>532.8</ele><time>2026-04-06T13:21:52.683Z</time></trkpt><trkpt lat="43.7519267" lon="12.4289433"><ele>531.5999999999999</ele><time>2026-04-06T13:21:53.687Z</time></trkpt><trkpt lat="43.7518583" lon="12.4290433"><ele>530.4</ele><time>2026-04-06T13:21:54.686Z</time></trkpt><trkpt lat="43.7517867" lon="12.42914"><ele>529.1999999999999</ele><time>2026-04-06T13:21:55.684Z</time></trkpt><trkpt lat="43.7517117" lon="12.4292283"><ele>528.0</ele><time>2026-04-06T13:21:56.685Z</time></trkpt><trkpt lat="43.7516367" lon="12.429305"><ele>528.0</ele><time>2026-04-06T13:21:57.686Z</time></trkpt><trkpt lat="43.7515617" lon="12.4293733"><ele>528.0</ele><time>2026-04-06T13:21:58.683Z</time></trkpt><trkpt lat="43.7514883" lon="12.4294367"><ele>528.0</ele><time>2026-04-06T13:21:59.688Z</time></trkpt><trkpt lat="43.751415" lon="12.4294967"><ele>528.0</ele><time>2026-04-06T13:22:00.684Z</time></trkpt><trkpt lat="43.7513417" lon="12.4295433"><ele>528.0</ele><time>2026-04-06T13:22:01.685Z</time></trkpt><trkpt lat="43.7512667" lon="12.4295817"><ele>528.0</ele><time>2026-04-06T13:22:02.682Z</time></trkpt><trkpt lat="43.751185" lon="12.4296117"><ele>528.0</ele><time>2026-04-06T13:22:03.683Z</time></trkpt><trkpt lat="43.7511033" lon="12.429635"><ele>528.0</ele><time>2026-04-06T13:22:04.685Z</time></trkpt><trkpt lat="43.751015" lon="12.429655"><ele>528.0</ele><time>2026-04-06T13:22:05.688Z</time></trkpt><trkpt lat="43.7509183" lon="12.429665"><ele>528.0</ele><time>2026-04-06T13:22:06.685Z</time></trkpt><trkpt lat="43.750825" lon="12.4296667"><ele>528.0</ele><time>2026-04-06T13:22:07.684Z</time></trkpt><trkpt lat="43.75074" lon="12.429665"><ele>528.0</ele><time>2026-04-06T13:22:08.683Z</time></trkpt><trkpt lat="43.7506583" lon="12.4296633"><ele>527.8</ele><time>2026-04-06T13:22:09.684Z</time></trkpt><trkpt lat="43.7505733" lon="12.42967"><ele>527.5999999999999</ele><time>2026-04-06T13:22:10.685Z</time></trkpt><trkpt lat="43.75048" lon="12.4296917"><ele>527.4000000000001</ele><time>2026-04-06T13:22:11.686Z</time></trkpt><trkpt lat="43.750385" lon="12.429715"><ele>527.2</ele><time>2026-04-06T13:22:12.686Z</time></trkpt><trkpt lat="43.7502867" lon="12.4297483"><ele>527.0</ele><time>2026-04-06T13:22:13.685Z</time></trkpt><trkpt lat="43.7501933" lon="12.42979"><ele>527.0</ele><time>2026-04-06T13:22:14.686Z</time></trkpt><trkpt lat="43.7501" lon="12.4298317"><ele>527.0</ele><time>2026-04-06T13:22:15.686Z</time></trkpt><trkpt lat="43.7500083" lon="12.4298767"><ele>527.0</ele><time>2026-04-06T13:22:16.684Z</time></trkpt><trkpt lat="43.7499133" lon="12.4299183"><ele>527.0</ele><time>2026-04-06T13:22:17.685Z</time></trkpt><trkpt lat="43.7498167" lon="12.4299583"><ele>527.0</ele><time>2026-04-06T13:22:18.684Z</time></trkpt><trkpt lat="43.74972" lon="12.43"><ele>527.0</ele><time>2026-04-06T13:22:19.683Z</time></trkpt><trkpt lat="43.7496267" lon="12.4300367"><ele>527.0</ele><time>2026-04-06T13:22:20.684Z</time></trkpt><trkpt lat="43.7495383" lon="12.4300767"><ele>527.0</ele><time>2026-04-06T13:22:21.683Z</time></trkpt><trkpt lat="43.7494467" lon="12.4301217"><ele>527.0</ele><time>2026-04-06T13:22:22.683Z</time></trkpt><trkpt lat="43.7493517" lon="12.4301683"><ele>527.0</ele><time>2026-04-06T13:22:23.688Z</time></trkpt><trkpt lat="43.7492583" lon="12.4302117"><ele>523.2</ele><time>2026-04-06T13:22:24.685Z</time></trkpt><trkpt lat="43.7491617" lon="12.43025"><ele>519.4000000000001</ele><time>2026-04-06T13:22:25.683Z</time></trkpt><trkpt lat="43.74907" lon="12.4302833"><ele>515.5999999999999</ele><time>2026-04-06T13:22:26.686Z</time></trkpt><trkpt lat="43.74898" lon="12.4303117"><ele>511.79999999999995</ele><time>2026-04-06T13:22:27.686Z</time></trkpt><trkpt lat="43.74889" lon="12.43034"><ele>508.0</ele><time>2026-04-06T13:22:28.684Z</time></trkpt><trkpt lat="43.748805" lon="12.4303683"><ele>508.0</ele><time>2026-04-06T13:22:29.685Z</time></trkpt><trkpt lat="43.7487233" lon="12.430395"><ele>507.99999999999994</ele><time>2026-04-06T13:22:30.685Z</time></trkpt><trkpt lat="43.7486433" lon="12.4304217"><ele>507.99999999999994</ele><time>2026-04-06T13:22:31.686Z</time></trkpt><trkpt lat="43.7485533" lon="12.4304433"><ele>508.0</ele><time>2026-04-06T13:22:32.686Z</time></trkpt><trkpt lat="43.7484567" lon="12.43047"><ele>508.0</ele><time>2026-04-06T13:22:33.684Z</time></trkpt><trkpt lat="43.7483633" lon="12.4305067"><ele>509.59999999999997</ele><time>2026-04-06T13:22:34.686Z</time></trkpt><trkpt lat="43.7482633" lon="12.4305483"><ele>511.19999999999993</ele><time>2026-04-06T13:22:35.686Z</time></trkpt><trkpt lat="43.7481583" lon="12.4305967"><ele>512.8</ele><time>2026-04-06T13:22:36.684Z</time></trkpt><trkpt lat="43.748055" lon="12.4306417"><ele>514.4</ele><time>2026-04-06T13:22:37.686Z</time></trkpt><trkpt lat="43.7479533" lon="12.4306667"><ele>516.0</ele><time>2026-04-06T13:22:38.685Z</time></trkpt><trkpt lat="43.747855" lon="12.430675"><ele>516.0</ele><time>2026-04-06T13:22:39.686Z</time></trkpt><trkpt lat="43.7477717" lon="12.4306733"><ele>516.0</ele><time>2026-04-06T13:22:40.686Z</time></trkpt><trkpt lat="43.7476867" lon="12.4306717"><ele>516.0</ele><time>2026-04-06T13:22:41.686Z</time></trkpt><trkpt lat="43.7475933" lon="12.430675"><ele>516.0</ele><time>2026-04-06T13:22:42.686Z</time></trkpt><trkpt lat="43.7474983" lon="12.4306833"><ele>516.0</ele><time>2026-04-06T13:22:43.685Z</time></trkpt><trkpt lat="43.7474017" lon="12.4306933"><ele>512.4</ele><time>2026-04-06T13:22:44.685Z</time></trkpt><trkpt lat="43.7473" lon="12.4307033"><ele>508.8</ele><time>2026-04-06T13:22:45.686Z</time></trkpt><trkpt lat="43.7472017" lon="12.430715"><ele>505.19999999999993</ele><time>2026-04-06T13:22:46.684Z</time></trkpt><trkpt lat="43.747105" lon="12.430725"><ele>501.59999999999997</ele><time>2026-04-06T13:22:47.685Z</time></trkpt><trkpt lat="43.747005" lon="12.4307283"><ele>498.0</ele><time>2026-04-06T13:22:48.683Z</time></trkpt><trkpt lat="43.7468983" lon="12.430725"><ele>494.5</ele><time>2026-04-06T13:22:49.685Z</time></trkpt><trkpt lat="43.7467833" lon="12.43072"><ele>491.0</ele><time>2026-04-06T13:22:50.684Z</time></trkpt><trkpt lat="43.7466717" lon="12.4307"><ele>487.5</ele><time>2026-04-06T13:22:51.684Z</time></trkpt><trkpt lat="43.7465583" lon="12.43067"><ele>484.0</ele><time>2026-04-06T13:22:52.685Z</time></trkpt><trkpt lat="43.7464467" lon="12.4306283"><ele>484.0</ele><time>2026-04-06T13:22:53.686Z</time></trkpt><trkpt lat="43.74633" lon="12.4305867"><ele>484.0</ele><time>2026-04-06T13:22:54.686Z</time></trkpt><trkpt lat="43.74621" lon="12.4305433"><ele>484.0</ele><time>2026-04-06T13:22:55.683Z</time></trkpt><trkpt lat="43.7460917" lon="12.430495"><ele>484.0</ele><time>2026-04-06T13:22:56.686Z</time></trkpt><trkpt lat="43.7459733" lon="12.4304467"><ele>482.75</ele><time>2026-04-06T13:22:57.685Z</time></trkpt><trkpt lat="43.745855" lon="12.4303983"><ele>481.5</ele><time>2026-04-06T13:22:58.686Z</time></trkpt><trkpt lat="43.74574" lon="12.4303483"><ele>480.25</ele><time>2026-04-06T13:22:59.685Z</time></trkpt><trkpt lat="43.7456283" lon="12.4302967"><ele>479.0</ele><time>2026-04-06T13:23:00.685Z</time></trkpt><trkpt lat="43.7455317" lon="12.4302433"><ele>478.99999999999994</ele><time>2026-04-06T13:23:01.686Z</time></trkpt><trkpt lat="43.7454467" lon="12.43019"><ele>479.0</ele><time>2026-04-06T13:23:02.688Z</time></trkpt><trkpt lat="43.7453733" lon="12.430145"><ele>479.0</ele><time>2026-04-06T13:23:03.682Z</time></trkpt><trkpt lat="43.7453033" lon="12.43012"><ele>479.0</ele><time>2026-04-06T13:23:04.686Z</time></trkpt><trkpt lat="43.745235" lon="12.4301217"><ele>478.99999999999994</ele><time>2026-04-06T13:23:05.682Z</time></trkpt><trkpt lat="43.745175" lon="12.43015"><ele>479.0</ele><time>2026-04-06T13:23:06.686Z</time></trkpt><trkpt lat="43.7451133" lon="12.4302033"><ele>478.99999999999994</ele><time>2026-04-06T13:23:07.685Z</time></trkpt><trkpt lat="43.7450433" lon="12.43027"><ele>479.0</ele><time>2026-04-06T13:23:08.685Z</time></trkpt><trkpt lat="43.7449633" lon="12.4303367"><ele>479.0</ele><time>2026-04-06T13:23:09.685Z</time></trkpt><trkpt lat="43.744885" lon="12.4304"><ele>479.0</ele><time>2026-04-06T13:23:10.684Z</time></trkpt><trkpt lat="43.7448067" lon="12.4304617"><ele>478.99999999999994</ele><time>2026-04-06T13:23:11.685Z</time></trkpt><trkpt lat="43.7447317" lon="12.43052"><ele>479.0</ele><time>2026-04-06T13:23:12.686Z</time></trkpt><trkpt lat="43.7446567" lon="12.4305783"><ele>478.8333333333333</ele><time>2026-04-06T13:23:13.685Z</time></trkpt><trkpt lat="43.7445817" lon="12.4306383"><ele>478.66666666666663</ele><time>2026-04-06T13:23:14.684Z</time></trkpt><trkpt lat="43.74451" lon="12.4307033"><ele>478.5</ele><time>2026-04-06T13:23:15.685Z</time></trkpt><trkpt lat="43.7444367" lon="12.4307767"><ele>478.33333333333337</ele><time>2026-04-06T13:23:16.684Z</time></trkpt><trkpt lat="43.74437" lon="12.430855"><ele>478.1666666666667</ele><time>2026-04-06T13:23:17.686Z</time></trkpt><trkpt lat="43.7443033" lon="12.4309367"><ele>478.0</ele><time>2026-04-06T13:23:18.684Z</time></trkpt><trkpt lat="43.7442383" lon="12.4310183"><ele>475.1666666666667</ele><time>2026-04-06T13:23:19.685Z</time></trkpt><trkpt lat="43.7441783" lon="12.4311"><ele>472.33333333333337</ele><time>2026-04-06T13:23:20.684Z</time></trkpt><trkpt lat="43.7441267" lon="12.4311867"><ele>469.5</ele><time>2026-04-06T13:23:21.683Z</time></trkpt><trkpt lat="43.7440833" lon="12.431275"><ele>466.66666666666663</ele><time>2026-04-06T13:23:22.683Z</time></trkpt><trkpt lat="43.7440467" lon="12.4313617"><ele>463.8333333333333</ele><time>2026-04-06T13:23:23.685Z</time></trkpt><trkpt lat="43.7440233" lon="12.431445"><ele>461.0</ele><time>2026-04-06T13:23:24.687Z</time></trkpt><trkpt lat="43.7440133" lon="12.4316217"><ele>460.42857142857144</ele><time>2026-04-06T13:23:26.686Z</time></trkpt><trkpt lat="43.744035" lon="12.4317117"><ele>459.8571428571429</ele><time>2026-04-06T13:23:27.684Z</time></trkpt><trkpt lat="43.7440667" lon="12.4318083"><ele>459.28571428571433</ele><time>2026-04-06T13:23:28.684Z</time></trkpt><trkpt lat="43.74409" lon="12.4319117"><ele>458.7142857142858</ele><time>2026-04-06T13:23:29.685Z</time></trkpt><trkpt lat="43.7441033" lon="12.4320167"><ele>458.14285714285717</ele><time>2026-04-06T13:23:30.683Z</time></trkpt><trkpt lat="43.7440967" lon="12.4321117"><ele>457.57142857142867</ele><time>2026-04-06T13:23:31.687Z</time></trkpt><trkpt lat="43.7440583" lon="12.4322"><ele>457.00000000000006</ele><time>2026-04-06T13:23:32.684Z</time></trkpt><trkpt lat="43.7440083" lon="12.4322917"><ele>456.1666666666667</ele><time>2026-04-06T13:23:33.684Z</time></trkpt><trkpt lat="43.7439533" lon="12.43238"><ele>455.33333333333337</ele><time>2026-04-06T13:23:34.684Z</time></trkpt><trkpt lat="43.7438933" lon="12.4324667"><ele>454.5</ele><time>2026-04-06T13:23:35.686Z</time></trkpt><trkpt lat="43.7438333" lon="12.4325467"><ele>453.66666666666663</ele><time>2026-04-06T13:23:36.684Z</time></trkpt><trkpt lat="43.74377" lon="12.4326267"><ele>452.8333333333333</ele><time>2026-04-06T13:23:37.686Z</time></trkpt><trkpt lat="43.7437" lon="12.432715"><ele>452.0</ele><time>2026-04-06T13:23:38.683Z</time></trkpt><trkpt lat="43.7436317" lon="12.4328033"><ele>452.0</ele><time>2026-04-06T13:23:39.684Z</time></trkpt><trkpt lat="43.743565" lon="12.432895"><ele>452.00000000000006</ele><time>2026-04-06T13:23:40.684Z</time></trkpt><trkpt lat="43.7434983" lon="12.43299"><ele>452.00000000000006</ele><time>2026-04-06T13:23:41.686Z</time></trkpt><trkpt lat="43.7434383" lon="12.4330883"><ele>452.0</ele><time>2026-04-06T13:23:42.684Z</time></trkpt><trkpt lat="43.7433783" lon="12.43319"><ele>452.0</ele><time>2026-04-06T13:23:43.685Z</time></trkpt><trkpt lat="43.7433183" lon="12.433295"><ele>449.8</ele><time>2026-04-06T13:23:44.685Z</time></trkpt><trkpt lat="43.7432633" lon="12.4333967"><ele>447.6</ele><time>2026-04-06T13:23:45.685Z</time></trkpt><trkpt lat="43.7432083" lon="12.4334967"><ele>445.40000000000003</ele><time>2026-04-06T13:23:46.684Z</time></trkpt><trkpt lat="43.7431533" lon="12.4335933"><ele>443.20000000000005</ele><time>2026-04-06T13:23:47.686Z</time></trkpt><trkpt lat="43.7430917" lon="12.433685"><ele>441.0</ele><time>2026-04-06T13:23:48.685Z</time></trkpt><trkpt lat="43.743025" lon="12.4337717"><ele>439.4</ele><time>2026-04-06T13:23:49.685Z</time></trkpt><trkpt lat="43.74295" lon="12.4338483"><ele>437.8</ele><time>2026-04-06T13:23:50.684Z</time></trkpt><trkpt lat="43.7428667" lon="12.433915"><ele>436.19999999999993</ele><time>2026-04-06T13:23:51.683Z</time></trkpt><trkpt lat="43.742785" lon="12.433975"><ele>434.59999999999997</ele><time>2026-04-06T13:23:52.684Z</time></trkpt><trkpt lat="43.742705" lon="12.43403"><ele>433.0</ele><time>2026-04-06T13:23:53.688Z</time></trkpt><trkpt lat="43.7426283" lon="12.4340867"><ele>433.00000000000006</ele><time>2026-04-06T13:23:54.685Z</time></trkpt><trkpt lat="43.7425467" lon="12.4341383"><ele>433.0</ele><time>2026-04-06T13:23:55.685Z</time></trkpt><trkpt lat="43.742465" lon="12.4341817"><ele>433.0</ele><time>2026-04-06T13:23:56.685Z</time></trkpt><trkpt lat="43.742385" lon="12.4342117"><ele>433.0</ele><time>2026-04-06T13:23:57.684Z</time></trkpt><trkpt lat="43.74231" lon="12.4342317"><ele>433.00000000000006</ele><time>2026-04-06T13:23:58.684Z</time></trkpt><trkpt lat="43.742245" lon="12.4342417"><ele>433.0</ele><time>2026-04-06T13:23:59.684Z</time></trkpt><trkpt lat="43.7421417" lon="12.4342583"><ele>433.00000000000006</ele><time>2026-04-06T13:24:01.685Z</time></trkpt><trkpt lat="43.7420683" lon="12.4342933"><ele>433.0</ele><time>2026-04-06T13:24:18.683Z</time></trkpt><trkpt lat="43.7419533" lon="12.43436"><ele>433.0</ele><time>2026-04-06T13:24:20.685Z</time></trkpt><trkpt lat="43.7418917" lon="12.43442"><ele>433.0</ele><time>2026-04-06T13:24:21.684Z</time></trkpt><trkpt lat="43.7418367" lon="12.4344967"><ele>433.00000000000006</ele><time>2026-04-06T13:24:22.685Z</time></trkpt><trkpt lat="43.7417933" lon="12.4345933"><ele>433.0</ele><time>2026-04-06T13:24:23.685Z</time></trkpt><trkpt lat="43.741755" lon="12.4347033"><ele>431.33333333333337</ele><time>2026-04-06T13:24:24.687Z</time></trkpt><trkpt lat="43.741715" lon="12.434815"><ele>429.6666666666667</ele><time>2026-04-06T13:24:25.686Z</time></trkpt><trkpt lat="43.7416783" lon="12.43492"><ele>428.0</ele><time>2026-04-06T13:24:26.686Z</time></trkpt><trkpt lat="43.7416367" lon="12.43502"><ele>426.33333333333337</ele><time>2026-04-06T13:24:27.685Z</time></trkpt><trkpt lat="43.7415883" lon="12.435115"><ele>424.6666666666667</ele><time>2026-04-06T13:24:28.685Z</time></trkpt><trkpt lat="43.7415283" lon="12.4352033"><ele>423.0</ele><time>2026-04-06T13:24:29.684Z</time></trkpt><trkpt lat="43.7414483" lon="12.4352867"><ele>423.0</ele><time>2026-04-06T13:24:30.684Z</time></trkpt><trkpt lat="43.741355" lon="12.43536"><ele>423.0</ele><time>2026-04-06T13:24:31.686Z</time></trkpt><trkpt lat="43.74125" lon="12.4354333"><ele>423.0</ele><time>2026-04-06T13:24:32.685Z</time></trkpt><trkpt lat="43.7411417" lon="12.4355033"><ele>423.0</ele><time>2026-04-06T13:24:33.685Z</time></trkpt><trkpt lat="43.7410333" lon="12.4355633"><ele>423.5</ele><time>2026-04-06T13:24:34.684Z</time></trkpt><trkpt lat="43.74092" lon="12.4356167"><ele>424.0</ele><time>2026-04-06T13:24:35.685Z</time></trkpt><trkpt lat="43.7407983" lon="12.4356567"><ele>424.5</ele><time>2026-04-06T13:24:36.685Z</time></trkpt><trkpt lat="43.7406717" lon="12.435685"><ele>425.0</ele><time>2026-04-06T13:24:37.687Z</time></trkpt><trkpt lat="43.7405483" lon="12.435715"><ele>425.0</ele><time>2026-04-06T13:24:38.685Z</time></trkpt><trkpt lat="43.7404367" lon="12.43574"><ele>425.0</ele><time>2026-04-06T13:24:39.684Z</time></trkpt><trkpt lat="43.74034" lon="12.4357617"><ele>425.0</ele><time>2026-04-06T13:24:40.689Z</time></trkpt><trkpt lat="43.7402517" lon="12.43579"><ele>425.0</ele><time>2026-04-06T13:24:41.687Z</time></trkpt><trkpt lat="43.740165" lon="12.4358183"><ele>425.0</ele><time>2026-04-06T13:24:42.686Z</time></trkpt><trkpt lat="43.7400683" lon="12.4358283"><ele>426.4</ele><time>2026-04-06T13:24:43.687Z</time></trkpt><trkpt lat="43.7399667" lon="12.4358333"><ele>427.8</ele><time>2026-04-06T13:24:44.687Z</time></trkpt><trkpt lat="43.7398633" lon="12.4358233"><ele>429.20000000000005</ele><time>2026-04-06T13:24:45.687Z</time></trkpt><trkpt lat="43.7397583" lon="12.4358"><ele>430.6</ele><time>2026-04-06T13:24:46.686Z</time></trkpt><trkpt lat="43.73965" lon="12.4357717"><ele>432.0</ele><time>2026-04-06T13:24:47.687Z</time></trkpt><trkpt lat="43.739545" lon="12.4357367"><ele>432.0</ele><time>2026-04-06T13:24:48.685Z</time></trkpt><trkpt lat="43.7394417" lon="12.435695"><ele>432.00000000000006</ele><time>2026-04-06T13:24:49.686Z</time></trkpt><trkpt lat="43.739335" lon="12.4356467"><ele>432.00000000000006</ele><time>2026-04-06T13:24:50.686Z</time></trkpt><trkpt lat="43.7392283" lon="12.435595"><ele>432.0</ele><time>2026-04-06T13:24:51.683Z</time></trkpt><trkpt lat="43.7391267" lon="12.4355433"><ele>432.0</ele><time>2026-04-06T13:24:52.685Z</time></trkpt><trkpt lat="43.7390317" lon="12.4354983"><ele>428.40000000000003</ele><time>2026-04-06T13:24:53.686Z</time></trkpt><trkpt lat="43.7389417" lon="12.4354583"><ele>424.80000000000007</ele><time>2026-04-06T13:24:54.685Z</time></trkpt><trkpt lat="43.7388517" lon="12.4354267"><ele>421.2</ele><time>2026-04-06T13:24:55.687Z</time></trkpt><trkpt lat="43.7387583" lon="12.4353967"><ele>417.6</ele><time>2026-04-06T13:24:56.682Z</time></trkpt><trkpt lat="43.7386617" lon="12.4353633"><ele>414.0</ele><time>2026-04-06T13:24:57.684Z</time></trkpt><trkpt lat="43.7385583" lon="12.4353267"><ele>414.5</ele><time>2026-04-06T13:24:58.684Z</time></trkpt><trkpt lat="43.7384517" lon="12.4352833"><ele>415.0</ele><time>2026-04-06T13:24:59.688Z</time></trkpt><trkpt lat="43.7383383" lon="12.4352367"><ele>415.5</ele><time>2026-04-06T13:25:00.685Z</time></trkpt><trkpt lat="43.738225" lon="12.4351733"><ele>416.0</ele><time>2026-04-06T13:25:01.686Z</time></trkpt><trkpt lat="43.7381133" lon="12.4350883"><ele>416.0</ele><time>2026-04-06T13:25:02.685Z</time></trkpt><trkpt lat="43.7380083" lon="12.4349983"><ele>416.0</ele><time>2026-04-06T13:25:03.682Z</time></trkpt><trkpt lat="43.7379083" lon="12.4349333"><ele>416.0</ele><time>2026-04-06T13:25:04.685Z</time></trkpt><trkpt lat="43.737815" lon="12.43489"><ele>416.0</ele><time>2026-04-06T13:25:05.684Z</time></trkpt><trkpt lat="43.7377167" lon="12.4348683"><ele>416.0</ele><time>2026-04-06T13:25:06.683Z</time></trkpt><trkpt lat="43.73762" lon="12.4348683"><ele>417.0</ele><time>2026-04-06T13:25:07.687Z</time></trkpt><trkpt lat="43.737515" lon="12.4348867"><ele>418.0</ele><time>2026-04-06T13:25:08.681Z</time></trkpt><trkpt lat="43.7374017" lon="12.43492"><ele>419.0</ele><time>2026-04-06T13:25:09.683Z</time></trkpt><trkpt lat="43.7372883" lon="12.4349633"><ele>420.0</ele><time>2026-04-06T13:25:10.684Z</time></trkpt><trkpt lat="43.7371833" lon="12.4350117"><ele>420.0</ele><time>2026-04-06T13:25:11.685Z</time></trkpt><trkpt lat="43.7370917" lon="12.43507"><ele>420.0</ele><time>2026-04-06T13:25:12.683Z</time></trkpt><trkpt lat="43.7370133" lon="12.4351317"><ele>420.0</ele><time>2026-04-06T13:25:13.687Z</time></trkpt><trkpt lat="43.7369467" lon="12.4351917"><ele>420.0</ele><time>2026-04-06T13:25:14.684Z</time></trkpt><trkpt lat="43.7368833" lon="12.4352433"><ele>420.0</ele><time>2026-04-06T13:25:15.682Z</time></trkpt><trkpt lat="43.7368133" lon="12.435285"><ele>420.0</ele><time>2026-04-06T13:25:16.683Z</time></trkpt><trkpt lat="43.736735" lon="12.4353133"><ele>420.6</ele><time>2026-04-06T13:25:17.685Z</time></trkpt><trkpt lat="43.7366483" lon="12.4353333"><ele>421.2</ele><time>2026-04-06T13:25:18.683Z</time></trkpt><trkpt lat="43.7365533" lon="12.4353483"><ele>421.79999999999995</ele><time>2026-04-06T13:25:19.685Z</time></trkpt><trkpt lat="43.73645" lon="12.4353633"><ele>422.4</ele><time>2026-04-06T13:25:20.683Z</time></trkpt><trkpt lat="43.7363467" lon="12.435375"><ele>423.0</ele><time>2026-04-06T13:25:21.683Z</time></trkpt><trkpt lat="43.73625" lon="12.4353767"><ele>423.0</ele><time>2026-04-06T13:25:22.684Z</time></trkpt><trkpt lat="43.7361633" lon="12.4353717"><ele>423.0</ele><time>2026-04-06T13:25:23.685Z</time></trkpt><trkpt lat="43.7360883" lon="12.4353567"><ele>423.0</ele><time>2026-04-06T13:25:24.685Z</time></trkpt><trkpt lat="43.7360217" lon="12.43533"><ele>423.0</ele><time>2026-04-06T13:25:25.684Z</time></trkpt><trkpt lat="43.7359617" lon="12.4352883"><ele>423.0</ele><time>2026-04-06T13:25:26.682Z</time></trkpt><trkpt lat="43.7359167" lon="12.4352217"><ele>423.0</ele><time>2026-04-06T13:25:27.684Z</time></trkpt><trkpt lat="43.735855" lon="12.4351083"><ele>421.57142857142856</ele><time>2026-04-06T13:25:29.684Z</time></trkpt><trkpt lat="43.7357867" lon="12.4351067"><ele>420.14285714285717</ele><time>2026-04-06T13:25:32.681Z</time></trkpt><trkpt lat="43.73575" lon="12.435225"><ele>418.7142857142857</ele><time>2026-04-06T13:25:34.684Z</time></trkpt><trkpt lat="43.73574" lon="12.4353183"><ele>417.2857142857143</ele><time>2026-04-06T13:25:35.686Z</time></trkpt><trkpt lat="43.7357433" lon="12.4354167"><ele>415.8571428571429</ele><time>2026-04-06T13:25:36.685Z</time></trkpt><trkpt lat="43.7357483" lon="12.4355167"><ele>414.42857142857144</ele><time>2026-04-06T13:25:37.686Z</time></trkpt><trkpt lat="43.73575" lon="12.4356067"><ele>413.0</ele><time>2026-04-06T13:25:38.684Z</time></trkpt><trkpt lat="43.7357183" lon="12.4357717"><ele>410.2</ele><time>2026-04-06T13:25:40.684Z</time></trkpt><trkpt lat="43.73563" lon="12.43589"><ele>407.4</ele><time>2026-04-06T13:25:42.684Z</time></trkpt><trkpt lat="43.7355233" lon="12.4359817"><ele>404.59999999999997</ele><time>2026-04-06T13:25:44.685Z</time></trkpt><trkpt lat="43.7354567" lon="12.4360283"><ele>401.79999999999995</ele><time>2026-04-06T13:25:45.686Z</time></trkpt><trkpt lat="43.73538" lon="12.43607"><ele>399.0</ele><time>2026-04-06T13:25:46.684Z</time></trkpt><trkpt lat="43.7353017" lon="12.43611"><ele>397.3333333333333</ele><time>2026-04-06T13:25:47.683Z</time></trkpt><trkpt lat="43.7352183" lon="12.43615"><ele>395.66666666666663</ele><time>2026-04-06T13:25:48.686Z</time></trkpt><trkpt lat="43.7351383" lon="12.43619"><ele>394.0</ele><time>2026-04-06T13:25:49.687Z</time></trkpt><trkpt lat="43.7350583" lon="12.436225"><ele>392.3333333333333</ele><time>2026-04-06T13:25:50.683Z</time></trkpt><trkpt lat="43.7349767" lon="12.43625"><ele>390.66666666666663</ele><time>2026-04-06T13:25:51.684Z</time></trkpt><trkpt lat="43.7348933" lon="12.43626"><ele>389.0</ele><time>2026-04-06T13:25:52.684Z</time></trkpt><trkpt lat="43.7348" lon="12.436255"><ele>388.99999999999994</ele><time>2026-04-06T13:25:53.683Z</time></trkpt><trkpt lat="43.7347033" lon="12.4362483"><ele>389.0</ele><time>2026-04-06T13:25:54.684Z</time></trkpt><trkpt lat="43.734615" lon="12.4362383"><ele>389.0</ele><time>2026-04-06T13:25:55.687Z</time></trkpt><trkpt lat="43.7345267" lon="12.4362333"><ele>389.0</ele><time>2026-04-06T13:25:56.684Z</time></trkpt><trkpt lat="43.73444" lon="12.4362283"><ele>388.99999999999994</ele><time>2026-04-06T13:25:57.682Z</time></trkpt><trkpt lat="43.7343633" lon="12.4362267"><ele>389.0</ele><time>2026-04-06T13:25:58.683Z</time></trkpt><trkpt lat="43.7342517" lon="12.4362183"><ele>388.66666666666663</ele><time>2026-04-06T13:26:00.684Z</time></trkpt><trkpt lat="43.7341617" lon="12.43622"><ele>388.3333333333333</ele><time>2026-04-06T13:26:02.684Z</time></trkpt><trkpt lat="43.73405" lon="12.4362233"><ele>388.0</ele><time>2026-04-06T13:26:04.685Z</time></trkpt><trkpt lat="43.73394" lon="12.4362433"><ele>387.66666666666663</ele><time>2026-04-06T13:26:06.684Z</time></trkpt><trkpt lat="43.733875" lon="12.4362767"><ele>387.3333333333333</ele><time>2026-04-06T13:26:09.684Z</time></trkpt><trkpt lat="43.7338233" lon="12.4363267"><ele>387.0</ele><time>2026-04-06T13:26:12.685Z</time></trkpt><trkpt lat="43.7337467" lon="12.4363667"><ele>387.0</ele><time>2026-04-06T13:26:14.684Z</time></trkpt><trkpt lat="43.733645" lon="12.4364017"><ele>387.0</ele><time>2026-04-06T13:26:16.685Z</time></trkpt><trkpt lat="43.7335383" lon="12.43645"><ele>387.0</ele><time>2026-04-06T13:26:18.684Z</time></trkpt><trkpt lat="43.7334183" lon="12.436515"><ele>387.0</ele><time>2026-04-06T13:26:20.686Z</time></trkpt><trkpt lat="43.73335" lon="12.43656"><ele>387.0</ele><time>2026-04-06T13:26:21.686Z</time></trkpt><trkpt lat="43.733275" lon="12.4366117"><ele>389.0</ele><time>2026-04-06T13:26:22.684Z</time></trkpt><trkpt lat="43.7332" lon="12.436665"><ele>391.0</ele><time>2026-04-06T13:26:23.684Z</time></trkpt><trkpt lat="43.7331283" lon="12.4367283"><ele>393.0</ele><time>2026-04-06T13:26:24.684Z</time></trkpt><trkpt lat="43.7330583" lon="12.4368083"><ele>395.0</ele><time>2026-04-06T13:26:25.684Z</time></trkpt><trkpt lat="43.7329967" lon="12.4369067"><ele>397.0</ele><time>2026-04-06T13:26:26.684Z</time></trkpt><trkpt lat="43.7329383" lon="12.4370183"><ele>397.0</ele><time>2026-04-06T13:26:27.683Z</time></trkpt><trkpt lat="43.7328817" lon="12.4371333"><ele>397.0</ele><time>2026-04-06T13:26:28.684Z</time></trkpt><trkpt lat="43.7328283" lon="12.4372483"><ele>397.0</ele><time>2026-04-06T13:26:29.683Z</time></trkpt><trkpt lat="43.7327767" lon="12.4373617"><ele>397.0</ele><time>2026-04-06T13:26:30.684Z</time></trkpt><trkpt lat="43.732735" lon="12.4374733"><ele>397.0</ele><time>2026-04-06T13:26:31.683Z</time></trkpt><trkpt lat="43.7326967" lon="12.437585"><ele>397.50000000000006</ele><time>2026-04-06T13:26:32.684Z</time></trkpt><trkpt lat="43.732665" lon="12.43769"><ele>398.0</ele><time>2026-04-06T13:26:33.684Z</time></trkpt><trkpt lat="43.7326433" lon="12.437795"><ele>398.5</ele><time>2026-04-06T13:26:34.685Z</time></trkpt><trkpt lat="43.7326267" lon="12.4378883"><ele>399.0</ele><time>2026-04-06T13:26:35.687Z</time></trkpt><trkpt lat="43.7326233" lon="12.4379767"><ele>399.50000000000006</ele><time>2026-04-06T13:26:36.685Z</time></trkpt><trkpt lat="43.7326883" lon="12.4381133"><ele>400.0</ele><time>2026-04-06T13:26:38.684Z</time></trkpt><trkpt lat="43.7327433" lon="12.4381583"><ele>395.33333333333337</ele><time>2026-04-06T13:26:39.684Z</time></trkpt><trkpt lat="43.7328067" lon="12.4381717"><ele>390.6666666666667</ele><time>2026-04-06T13:26:40.683Z</time></trkpt><trkpt lat="43.7328783" lon="12.438145"><ele>386.0</ele><time>2026-04-06T13:26:41.685Z</time></trkpt><trkpt lat="43.7329433" lon="12.4380733"><ele>381.33333333333337</ele><time>2026-04-06T13:26:42.683Z</time></trkpt><trkpt lat="43.7330067" lon="12.43797"><ele>376.6666666666667</ele><time>2026-04-06T13:26:43.686Z</time></trkpt><trkpt lat="43.7330767" lon="12.4378367"><ele>372.0</ele><time>2026-04-06T13:26:44.685Z</time></trkpt><trkpt lat="43.7331367" lon="12.43772"><ele>372.0</ele><time>2026-04-06T13:26:45.686Z</time></trkpt><trkpt lat="43.7331967" lon="12.437615"><ele>372.0</ele><time>2026-04-06T13:26:46.683Z</time></trkpt><trkpt lat="43.7332517" lon="12.4375267"><ele>372.0</ele><time>2026-04-06T13:26:47.687Z</time></trkpt><trkpt lat="43.733305" lon="12.4374533"><ele>372.0</ele><time>2026-04-06T13:26:48.684Z</time></trkpt><trkpt lat="43.7333617" lon="12.4374"><ele>372.0</ele><time>2026-04-06T13:26:49.685Z</time></trkpt><trkpt lat="43.7334267" lon="12.4373817"><ele>372.0</ele><time>2026-04-06T13:26:50.683Z</time></trkpt><trkpt lat="43.73349" lon="12.4374033"><ele>372.0</ele><time>2026-04-06T13:26:51.682Z</time></trkpt><trkpt lat="43.733535" lon="12.4375633"><ele>372.0</ele><time>2026-04-06T13:26:53.68Z</time></trkpt><trkpt lat="43.7335067" lon="12.437685"><ele>372.0</ele><time>2026-04-06T13:26:54.683Z</time></trkpt><trkpt lat="43.733455" lon="12.437835"><ele>372.0</ele><time>2026-04-06T13:26:55.685Z</time></trkpt><trkpt lat="43.73339" lon="12.437975"><ele>369.20000000000005</ele><time>2026-04-06T13:26:56.683Z</time></trkpt><trkpt lat="43.733335" lon="12.4381083"><ele>366.4</ele><time>2026-04-06T13:26:57.681Z</time></trkpt><trkpt lat="43.7332817" lon="12.4382367"><ele>363.6</ele><time>2026-04-06T13:26:58.684Z</time></trkpt><trkpt lat="43.7332167" lon="12.43834"><ele>360.79999999999995</ele><time>2026-04-06T13:26:59.685Z</time></trkpt><trkpt lat="43.73315" lon="12.438425"><ele>358.0</ele><time>2026-04-06T13:27:00.684Z</time></trkpt><trkpt lat="43.73307" lon="12.4384983"><ele>358.0</ele><time>2026-04-06T13:27:01.685Z</time></trkpt><trkpt lat="43.732975" lon="12.438565"><ele>358.0</ele><time>2026-04-06T13:27:02.683Z</time></trkpt><trkpt lat="43.7328783" lon="12.4386267"><ele>358.0</ele><time>2026-04-06T13:27:03.685Z</time></trkpt><trkpt lat="43.73278" lon="12.43869"><ele>358.0</ele><time>2026-04-06T13:27:04.684Z</time></trkpt><trkpt lat="43.7326767" lon="12.4387517"><ele>358.0</ele><time>2026-04-06T13:27:05.684Z</time></trkpt><trkpt lat="43.73257" lon="12.4388083"><ele>355.2</ele><time>2026-04-06T13:27:06.686Z</time></trkpt><trkpt lat="43.7324633" lon="12.4388617"><ele>352.4</ele><time>2026-04-06T13:27:07.686Z</time></trkpt><trkpt lat="43.732365" lon="12.4389133"><ele>349.59999999999997</ele><time>2026-04-06T13:27:08.684Z</time></trkpt><trkpt lat="43.7322617" lon="12.43897"><ele>346.79999999999995</ele><time>2026-04-06T13:27:09.685Z</time></trkpt><trkpt lat="43.7321633" lon="12.4390183"><ele>344.0</ele><time>2026-04-06T13:27:10.685Z</time></trkpt><trkpt lat="43.732065" lon="12.43907"><ele>344.0</ele><time>2026-04-06T13:27:11.682Z</time></trkpt><trkpt lat="43.7319683" lon="12.4391217"><ele>344.0</ele><time>2026-04-06T13:27:12.684Z</time></trkpt><trkpt lat="43.7318717" lon="12.4391717"><ele>344.0</ele><time>2026-04-06T13:27:13.683Z</time></trkpt><trkpt lat="43.7317833" lon="12.4392067"><ele>344.0</ele><time>2026-04-06T13:27:14.686Z</time></trkpt><trkpt lat="43.731695" lon="12.4392217"><ele>344.0</ele><time>2026-04-06T13:27:15.682Z</time></trkpt><trkpt lat="43.7316" lon="12.4392183"><ele>344.5</ele><time>2026-04-06T13:27:16.686Z</time></trkpt><trkpt lat="43.7315067" lon="12.4392133"><ele>345.0</ele><time>2026-04-06T13:27:17.684Z</time></trkpt><trkpt lat="43.73142" lon="12.4392133"><ele>345.5</ele><time>2026-04-06T13:27:18.685Z</time></trkpt><trkpt lat="43.7313367" lon="12.43923"><ele>346.0</ele><time>2026-04-06T13:27:19.684Z</time></trkpt><trkpt lat="43.7312583" lon="12.4392633"><ele>346.5</ele><time>2026-04-06T13:27:20.684Z</time></trkpt><trkpt lat="43.7311817" lon="12.439315"><ele>347.0</ele><time>2026-04-06T13:27:21.686Z</time></trkpt><trkpt lat="43.7311183" lon="12.4393817"><ele>347.0</ele><time>2026-04-06T13:27:22.684Z</time></trkpt><trkpt lat="43.73106" lon="12.439465"><ele>347.0</ele><time>2026-04-06T13:27:23.686Z</time></trkpt><trkpt lat="43.731005" lon="12.4395583"><ele>347.0</ele><time>2026-04-06T13:27:24.684Z</time></trkpt><trkpt lat="43.730945" lon="12.43966"><ele>347.0</ele><time>2026-04-06T13:27:25.684Z</time></trkpt><trkpt lat="43.73088" lon="12.439745"><ele>347.0</ele><time>2026-04-06T13:27:26.684Z</time></trkpt><trkpt lat="43.730805" lon="12.4398033"><ele>347.0</ele><time>2026-04-06T13:27:27.684Z</time></trkpt><trkpt lat="43.7307183" lon="12.4398317"><ele>343.0</ele><time>2026-04-06T13:27:28.684Z</time></trkpt><trkpt lat="43.7306217" lon="12.4398317"><ele>339.0</ele><time>2026-04-06T13:27:29.685Z</time></trkpt><trkpt lat="43.73053" lon="12.43981"><ele>335.0</ele><time>2026-04-06T13:27:30.686Z</time></trkpt><trkpt lat="43.7304317" lon="12.4397883"><ele>331.0</ele><time>2026-04-06T13:27:31.686Z</time></trkpt><trkpt lat="43.7303317" lon="12.4397767"><ele>327.0</ele><time>2026-04-06T13:27:32.686Z</time></trkpt><trkpt lat="43.730235" lon="12.4397417"><ele>325.6</ele><time>2026-04-06T13:27:33.685Z</time></trkpt><trkpt lat="43.7301417" lon="12.4396867"><ele>324.20000000000005</ele><time>2026-04-06T13:27:34.686Z</time></trkpt><trkpt lat="43.7300417" lon="12.4396217"><ele>322.8</ele><time>2026-04-06T13:27:35.683Z</time></trkpt><trkpt lat="43.7299433" lon="12.439545"><ele>321.4</ele><time>2026-04-06T13:27:36.685Z</time></trkpt><trkpt lat="43.7298467" lon="12.4394717"><ele>320.0</ele><time>2026-04-06T13:27:37.688Z</time></trkpt><trkpt lat="43.7297517" lon="12.4394"><ele>320.4</ele><time>2026-04-06T13:27:38.686Z</time></trkpt><trkpt lat="43.729655" lon="12.4393317"><ele>320.8</ele><time>2026-04-06T13:27:39.683Z</time></trkpt><trkpt lat="43.7295583" lon="12.43926"><ele>321.20000000000005</ele><time>2026-04-06T13:27:40.685Z</time></trkpt><trkpt lat="43.7294633" lon="12.439195"><ele>321.6</ele><time>2026-04-06T13:27:41.68Z</time></trkpt><trkpt lat="43.729365" lon="12.4391383"><ele>322.0</ele><time>2026-04-06T13:27:42.686Z</time></trkpt><trkpt lat="43.7292733" lon="12.4390817"><ele>322.0</ele><time>2026-04-06T13:27:43.689Z</time></trkpt><trkpt lat="43.7291867" lon="12.43903"><ele>322.0</ele><time>2026-04-06T13:27:44.682Z</time></trkpt><trkpt lat="43.7291033" lon="12.4389733"><ele>322.0</ele><time>2026-04-06T13:27:45.686Z</time></trkpt><trkpt lat="43.7290233" lon="12.4389183"><ele>322.0</ele><time>2026-04-06T13:27:46.684Z</time></trkpt><trkpt lat="43.7289583" lon="12.4388467"><ele>322.0</ele><time>2026-04-06T13:27:47.682Z</time></trkpt><trkpt lat="43.7289083" lon="12.4387517"><ele>322.0</ele><time>2026-04-06T13:27:48.684Z</time></trkpt><trkpt lat="43.7288717" lon="12.4386417"><ele>324.6</ele><time>2026-04-06T13:27:49.685Z</time></trkpt><trkpt lat="43.7288417" lon="12.4385067"><ele>327.20000000000005</ele><time>2026-04-06T13:27:50.683Z</time></trkpt><trkpt lat="43.7288" lon="12.438385"><ele>329.8</ele><time>2026-04-06T13:27:51.684Z</time></trkpt><trkpt lat="43.728745" lon="12.438285"><ele>332.4</ele><time>2026-04-06T13:27:52.684Z</time></trkpt><trkpt lat="43.7286817" lon="12.4381917"><ele>335.0</ele><time>2026-04-06T13:27:53.684Z</time></trkpt><trkpt lat="43.728615" lon="12.4381067"><ele>332.33333333333337</ele><time>2026-04-06T13:27:54.684Z</time></trkpt><trkpt lat="43.7285433" lon="12.4380283"><ele>329.6666666666667</ele><time>2026-04-06T13:27:55.684Z</time></trkpt><trkpt lat="43.7284683" lon="12.4379517"><ele>327.0</ele><time>2026-04-06T13:27:56.682Z</time></trkpt><trkpt lat="43.7283933" lon="12.4378833"><ele>324.3333333333333</ele><time>2026-04-06T13:27:57.684Z</time></trkpt><trkpt lat="43.7283167" lon="12.4378333"><ele>321.66666666666663</ele><time>2026-04-06T13:27:58.683Z</time></trkpt><trkpt lat="43.7282367" lon="12.4378083"><ele>319.0</ele><time>2026-04-06T13:27:59.684Z</time></trkpt><trkpt lat="43.7281467" lon="12.4378133"><ele>319.0</ele><time>2026-04-06T13:28:00.684Z</time></trkpt><trkpt lat="43.7280567" lon="12.4378367"><ele>319.0</ele><time>2026-04-06T13:28:01.685Z</time></trkpt><trkpt lat="43.7279583" lon="12.4378783"><ele>319.0</ele><time>2026-04-06T13:28:02.682Z</time></trkpt><trkpt lat="43.727865" lon="12.4379367"><ele>319.0</ele><time>2026-04-06T13:28:03.685Z</time></trkpt><trkpt lat="43.72778" lon="12.438"><ele>319.0</ele><time>2026-04-06T13:28:04.684Z</time></trkpt><trkpt lat="43.7277083" lon="12.4380567"><ele>316.4</ele><time>2026-04-06T13:28:05.686Z</time></trkpt><trkpt lat="43.7276117" lon="12.4381183"><ele>313.79999999999995</ele><time>2026-04-06T13:28:07.685Z</time></trkpt><trkpt lat="43.727545" lon="12.438105"><ele>311.20000000000005</ele><time>2026-04-06T13:28:09.684Z</time></trkpt><trkpt lat="43.7274717" lon="12.4379883"><ele>308.6</ele><time>2026-04-06T13:28:11.682Z</time></trkpt><trkpt lat="43.727425" lon="12.43789"><ele>306.0</ele><time>2026-04-06T13:28:12.683Z</time></trkpt><trkpt lat="43.72737" lon="12.4377667"><ele>306.0</ele><time>2026-04-06T13:28:13.687Z</time></trkpt><trkpt lat="43.7273133" lon="12.4376317"><ele>306.0</ele><time>2026-04-06T13:28:14.686Z</time></trkpt><trkpt lat="43.7272533" lon="12.4375033"><ele>306.0</ele><time>2026-04-06T13:28:15.685Z</time></trkpt><trkpt lat="43.727195" lon="12.4373683"><ele>306.0</ele><time>2026-04-06T13:28:16.683Z</time></trkpt><trkpt lat="43.727145" lon="12.4372517"><ele>306.0</ele><time>2026-04-06T13:28:17.682Z</time></trkpt><trkpt lat="43.7270983" lon="12.4371467"><ele>306.3333333333333</ele><time>2026-04-06T13:28:18.683Z</time></trkpt><trkpt lat="43.7270567" lon="12.4370433"><ele>306.6666666666667</ele><time>2026-04-06T13:28:19.685Z</time></trkpt><trkpt lat="43.7270117" lon="12.4369383"><ele>307.0</ele><time>2026-04-06T13:28:20.683Z</time></trkpt><trkpt lat="43.726965" lon="12.4368367"><ele>307.33333333333337</ele><time>2026-04-06T13:28:21.683Z</time></trkpt><trkpt lat="43.72692" lon="12.4367333"><ele>307.6666666666667</ele><time>2026-04-06T13:28:22.685Z</time></trkpt><trkpt lat="43.726875" lon="12.4366283"><ele>308.0</ele><time>2026-04-06T13:28:23.683Z</time></trkpt><trkpt lat="43.7268383" lon="12.4365367"><ele>306.5</ele><time>2026-04-06T13:28:24.682Z</time></trkpt><trkpt lat="43.72681" lon="12.4364583"><ele>305.0</ele><time>2026-04-06T13:28:25.685Z</time></trkpt><trkpt lat="43.726765" lon="12.4363683"><ele>303.5</ele><time>2026-04-06T13:28:27.684Z</time></trkpt><trkpt lat="43.7266917" lon="12.4364033"><ele>302.0</ele><time>2026-04-06T13:28:31.687Z</time></trkpt><trkpt lat="43.7266483" lon="12.43648"><ele>300.5</ele><time>2026-04-06T13:28:32.684Z</time></trkpt><trkpt lat="43.7265967" lon="12.4365833"><ele>299.0</ele><time>2026-04-06T13:28:33.685Z</time></trkpt><trkpt lat="43.72654" lon="12.4367083"><ele>299.0</ele><time>2026-04-06T13:28:34.684Z</time></trkpt><trkpt lat="43.7265017" lon="12.4368233"><ele>299.0</ele><time>2026-04-06T13:28:35.685Z</time></trkpt><trkpt lat="43.72649" lon="12.4369433"><ele>299.0</ele><time>2026-04-06T13:28:36.685Z</time></trkpt><trkpt lat="43.7264917" lon="12.43706"><ele>299.0</ele><time>2026-04-06T13:28:37.683Z</time></trkpt><trkpt lat="43.72652" lon="12.4371717"><ele>299.0</ele><time>2026-04-06T13:28:38.684Z</time></trkpt><trkpt lat="43.7265717" lon="12.4372933"><ele>298.6666666666667</ele><time>2026-04-06T13:28:39.682Z</time></trkpt><trkpt lat="43.7266183" lon="12.4374033"><ele>298.33333333333337</ele><time>2026-04-06T13:28:40.684Z</time></trkpt><trkpt lat="43.7266667" lon="12.437505"><ele>298.0</ele><time>2026-04-06T13:28:41.682Z</time></trkpt><trkpt lat="43.726715" lon="12.4376067"><ele>297.6666666666667</ele><time>2026-04-06T13:28:42.684Z</time></trkpt><trkpt lat="43.7267617" lon="12.43771"><ele>297.3333333333333</ele><time>2026-04-06T13:28:43.684Z</time></trkpt><trkpt lat="43.7268017" lon="12.4378217"><ele>297.0</ele><time>2026-04-06T13:28:44.684Z</time></trkpt><trkpt lat="43.72684" lon="12.43793"><ele>297.6666666666667</ele><time>2026-04-06T13:28:45.684Z</time></trkpt><trkpt lat="43.726885" lon="12.4380383"><ele>298.3333333333333</ele><time>2026-04-06T13:28:46.684Z</time></trkpt><trkpt lat="43.7269333" lon="12.4381433"><ele>299.0</ele><time>2026-04-06T13:28:47.685Z</time></trkpt><trkpt lat="43.72698" lon="12.4382433"><ele>299.66666666666663</ele><time>2026-04-06T13:28:48.684Z</time></trkpt><trkpt lat="43.7270267" lon="12.4383333"><ele>300.3333333333333</ele><time>2026-04-06T13:28:49.684Z</time></trkpt><trkpt lat="43.7270683" lon="12.4384167"><ele>301.0</ele><time>2026-04-06T13:28:50.684Z</time></trkpt><trkpt lat="43.7271233" lon="12.438545"><ele>301.0</ele><time>2026-04-06T13:28:52.686Z</time></trkpt><trkpt lat="43.7270483" lon="12.43852"><ele>301.0</ele><time>2026-04-06T13:28:58.683Z</time></trkpt><trkpt lat="43.727" lon="12.43842"><ele>301.0</ele><time>2026-04-06T13:28:59.686Z</time></trkpt><trkpt lat="43.7269467" lon="12.4382917"><ele>301.0</ele><time>2026-04-06T13:29:00.689Z</time></trkpt><trkpt lat="43.726885" lon="12.43816"><ele>301.0</ele><time>2026-04-06T13:29:01.686Z</time></trkpt><trkpt lat="43.7268133" lon="12.4380183"><ele>300.0</ele><time>2026-04-06T13:29:02.685Z</time></trkpt><trkpt lat="43.7267417" lon="12.4378683"><ele>299.0</ele><time>2026-04-06T13:29:03.687Z</time></trkpt><trkpt lat="43.7266733" lon="12.4377217"><ele>298.0</ele><time>2026-04-06T13:29:04.684Z</time></trkpt><trkpt lat="43.7266083" lon="12.43758"><ele>297.0</ele><time>2026-04-06T13:29:05.686Z</time></trkpt><trkpt lat="43.726545" lon="12.4374433"><ele>297.0</ele><time>2026-04-06T13:29:06.685Z</time></trkpt><trkpt lat="43.726485" lon="12.437315"><ele>297.0</ele><time>2026-04-06T13:29:07.686Z</time></trkpt><trkpt lat="43.7264283" lon="12.4371967"><ele>297.0</ele><time>2026-04-06T13:29:08.685Z</time></trkpt><trkpt lat="43.7263817" lon="12.437095"><ele>297.0</ele><time>2026-04-06T13:29:09.682Z</time></trkpt><trkpt lat="43.7263417" lon="12.4370033"><ele>297.0</ele><time>2026-04-06T13:29:10.683Z</time></trkpt><trkpt lat="43.726315" lon="12.43691"><ele>296.8</ele><time>2026-04-06T13:29:11.685Z</time></trkpt><trkpt lat="43.726295" lon="12.4368033"><ele>296.6</ele><time>2026-04-06T13:29:12.684Z</time></trkpt><trkpt lat="43.7262933" lon="12.4366833"><ele>296.40000000000003</ele><time>2026-04-06T13:29:13.686Z</time></trkpt><trkpt lat="43.7262983" lon="12.4365417"><ele>296.2</ele><time>2026-04-06T13:29:14.682Z</time></trkpt><trkpt lat="43.726315" lon="12.4363867"><ele>296.0</ele><time>2026-04-06T13:29:15.683Z</time></trkpt><trkpt lat="43.726345" lon="12.4362233"><ele>296.0</ele><time>2026-04-06T13:29:16.683Z</time></trkpt><trkpt lat="43.726395" lon="12.4360517"><ele>296.0</ele><time>2026-04-06T13:29:17.683Z</time></trkpt><trkpt lat="43.72646" lon="12.4358917"><ele>296.0</ele><time>2026-04-06T13:29:18.683Z</time></trkpt><trkpt lat="43.7265383" lon="12.4357383"><ele>296.0</ele><time>2026-04-06T13:29:19.684Z</time></trkpt><trkpt lat="43.726635" lon="12.435595"><ele>297.75</ele><time>2026-04-06T13:29:20.683Z</time></trkpt><trkpt lat="43.7267467" lon="12.4354683"><ele>299.5</ele><time>2026-04-06T13:29:21.683Z</time></trkpt><trkpt lat="43.7268667" lon="12.435355"><ele>301.25</ele><time>2026-04-06T13:29:22.683Z</time></trkpt><trkpt lat="43.7269883" lon="12.435245"><ele>303.0</ele><time>2026-04-06T13:29:23.684Z</time></trkpt><trkpt lat="43.7271067" lon="12.4351383"><ele>303.0</ele><time>2026-04-06T13:29:24.684Z</time></trkpt><trkpt lat="43.7272217" lon="12.4350283"><ele>303.0</ele><time>2026-04-06T13:29:25.684Z</time></trkpt><trkpt lat="43.72733" lon="12.4349117"><ele>303.0</ele><time>2026-04-06T13:29:26.683Z</time></trkpt><trkpt lat="43.7274333" lon="12.4347883"><ele>303.0</ele><time>2026-04-06T13:29:27.684Z</time></trkpt><trkpt lat="43.72753" lon="12.4346533"><ele>300.75</ele><time>2026-04-06T13:29:28.684Z</time></trkpt><trkpt lat="43.7276133" lon="12.434505"><ele>298.5</ele><time>2026-04-06T13:29:29.685Z</time></trkpt><trkpt lat="43.7276817" lon="12.4343383"><ele>296.25</ele><time>2026-04-06T13:29:30.683Z</time></trkpt><trkpt lat="43.7277367" lon="12.43416"><ele>294.0</ele><time>2026-04-06T13:29:31.685Z</time></trkpt><trkpt lat="43.7277767" lon="12.4339733"><ele>297.5</ele><time>2026-04-06T13:29:32.685Z</time></trkpt><trkpt lat="43.7278033" lon="12.4337817"><ele>301.0</ele><time>2026-04-06T13:29:33.683Z</time></trkpt><trkpt lat="43.7278133" lon="12.4335883"><ele>304.5</ele><time>2026-04-06T13:29:34.682Z</time></trkpt><trkpt lat="43.7278233" lon="12.4333983"><ele>308.0</ele><time>2026-04-06T13:29:35.683Z</time></trkpt><trkpt lat="43.7278233" lon="12.4332183"><ele>308.0</ele><time>2026-04-06T13:29:36.683Z</time></trkpt><trkpt lat="43.7278367" lon="12.4330483"><ele>308.0</ele><time>2026-04-06T13:29:37.684Z</time></trkpt><trkpt lat="43.727865" lon="12.432895"><ele>308.0</ele><time>2026-04-06T13:29:38.683Z</time></trkpt><trkpt lat="43.7278967" lon="12.4327567"><ele>308.0</ele><time>2026-04-06T13:29:39.683Z</time></trkpt><trkpt lat="43.7279367" lon="12.432635"><ele>308.0</ele><time>2026-04-06T13:29:40.683Z</time></trkpt><trkpt lat="43.7279767" lon="12.4325267"><ele>306.1666666666667</ele><time>2026-04-06T13:29:41.685Z</time></trkpt><trkpt lat="43.7280183" lon="12.43244"><ele>304.33333333333337</ele><time>2026-04-06T13:29:42.687Z</time></trkpt><trkpt lat="43.7280583" lon="12.4323633"><ele>302.5</ele><time>2026-04-06T13:29:43.685Z</time></trkpt><trkpt lat="43.7281383" lon="12.4322567"><ele>300.6666666666667</ele><time>2026-04-06T13:29:45.685Z</time></trkpt><trkpt lat="43.7282083" lon="12.4321733"><ele>298.8333333333333</ele><time>2026-04-06T13:29:47.683Z</time></trkpt><trkpt lat="43.7282733" lon="12.43212"><ele>297.0</ele><time>2026-04-06T13:29:50.684Z</time></trkpt><trkpt lat="43.7283483" lon="12.43208"><ele>296.0</ele><time>2026-04-06T13:31:14.684Z</time></trkpt><trkpt lat="43.728465" lon="12.4320483"><ele>295.0</ele><time>2026-04-06T13:31:16.684Z</time></trkpt><trkpt lat="43.7285417" lon="12.4320483"><ele>294.0</ele><time>2026-04-06T13:31:17.684Z</time></trkpt><trkpt lat="43.7286333" lon="12.43207"><ele>293.0</ele><time>2026-04-06T13:31:18.684Z</time></trkpt><trkpt lat="43.7287283" lon="12.4321017"><ele>292.0</ele><time>2026-04-06T13:31:19.684Z</time></trkpt><trkpt lat="43.72883" lon="12.432165"><ele>292.0</ele><time>2026-04-06T13:31:20.685Z</time></trkpt><trkpt lat="43.7289317" lon="12.4322283"><ele>292.0</ele><time>2026-04-06T13:31:21.684Z</time></trkpt><trkpt lat="43.7290267" lon="12.4322633"><ele>292.0</ele><time>2026-04-06T13:31:22.684Z</time></trkpt><trkpt lat="43.729105" lon="12.43227"><ele>292.0</ele><time>2026-04-06T13:31:23.683Z</time></trkpt><trkpt lat="43.72917" lon="12.4322517"><ele>292.0</ele><time>2026-04-06T13:31:24.684Z</time></trkpt><trkpt lat="43.7292233" lon="12.4322"><ele>292.0</ele><time>2026-04-06T13:31:25.687Z</time></trkpt><trkpt lat="43.729265" lon="12.4321117"><ele>292.0</ele><time>2026-04-06T13:31:26.685Z</time></trkpt><trkpt lat="43.7293083" lon="12.43202"><ele>292.0</ele><time>2026-04-06T13:31:27.686Z</time></trkpt><trkpt lat="43.7293533" lon="12.4319483"><ele>292.0</ele><time>2026-04-06T13:31:28.685Z</time></trkpt><trkpt lat="43.7294017" lon="12.4318833"><ele>292.0</ele><time>2026-04-06T13:31:29.685Z</time></trkpt><trkpt lat="43.729465" lon="12.4318583"><ele>292.0</ele><time>2026-04-06T13:31:30.685Z</time></trkpt><trkpt lat="43.7295533" lon="12.43186"><ele>292.0</ele><time>2026-04-06T13:31:31.687Z</time></trkpt><trkpt lat="43.7296417" lon="12.431875"><ele>292.16666666666663</ele><time>2026-04-06T13:31:32.685Z</time></trkpt><trkpt lat="43.729725" lon="12.43189"><ele>292.3333333333333</ele><time>2026-04-06T13:31:33.685Z</time></trkpt><trkpt lat="43.7298033" lon="12.431905"><ele>292.5</ele><time>2026-04-06T13:31:34.684Z</time></trkpt><trkpt lat="43.7298883" lon="12.4319233"><ele>292.6666666666667</ele><time>2026-04-06T13:31:35.686Z</time></trkpt><trkpt lat="43.7299817" lon="12.4319433"><ele>292.83333333333337</ele><time>2026-04-06T13:31:36.686Z</time></trkpt><trkpt lat="43.7300833" lon="12.4319617"><ele>293.0</ele><time>2026-04-06T13:31:37.687Z</time></trkpt><trkpt lat="43.730195" lon="12.4319667"><ele>294.25</ele><time>2026-04-06T13:31:38.686Z</time></trkpt><trkpt lat="43.730315" lon="12.4319617"><ele>295.5</ele><time>2026-04-06T13:31:39.685Z</time></trkpt><trkpt lat="43.7304433" lon="12.4319533"><ele>296.75</ele><time>2026-04-06T13:31:40.686Z</time></trkpt><trkpt lat="43.7305833" lon="12.4319467"><ele>298.0</ele><time>2026-04-06T13:31:41.687Z</time></trkpt><trkpt lat="43.7307283" lon="12.4319367"><ele>298.0</ele><time>2026-04-06T13:31:42.684Z</time></trkpt><trkpt lat="43.7308783" lon="12.4319217"><ele>298.0</ele><time>2026-04-06T13:31:43.688Z</time></trkpt><trkpt lat="43.7310333" lon="12.4318967"><ele>298.0</ele><time>2026-04-06T13:31:44.684Z</time></trkpt><trkpt lat="43.731195" lon="12.431855"><ele>301.66666666666663</ele><time>2026-04-06T13:31:45.685Z</time></trkpt><trkpt lat="43.7313583" lon="12.4318067"><ele>305.3333333333333</ele><time>2026-04-06T13:31:46.684Z</time></trkpt><trkpt lat="43.7315217" lon="12.4317433"><ele>309.0</ele><time>2026-04-06T13:31:47.685Z</time></trkpt><trkpt lat="43.7316867" lon="12.4316733"><ele>309.0</ele><time>2026-04-06T13:31:48.686Z</time></trkpt><trkpt lat="43.73185" lon="12.4315967"><ele>309.0</ele><time>2026-04-06T13:31:49.685Z</time></trkpt><trkpt lat="43.7320133" lon="12.43152"><ele>309.0</ele><time>2026-04-06T13:31:50.685Z</time></trkpt><trkpt lat="43.7321767" lon="12.43144"><ele>306.3333333333333</ele><time>2026-04-06T13:31:51.685Z</time></trkpt><trkpt lat="43.73234" lon="12.43136"><ele>303.66666666666663</ele><time>2026-04-06T13:31:52.685Z</time></trkpt><trkpt lat="43.7325017" lon="12.4312833"><ele>301.0</ele><time>2026-04-06T13:31:53.684Z</time></trkpt><trkpt lat="43.7326633" lon="12.431205"><ele>303.3333333333333</ele><time>2026-04-06T13:31:54.685Z</time></trkpt><trkpt lat="43.7328283" lon="12.4311283"><ele>305.6666666666667</ele><time>2026-04-06T13:31:55.684Z</time></trkpt><trkpt lat="43.732995" lon="12.4310483"><ele>308.0</ele><time>2026-04-06T13:31:56.686Z</time></trkpt><trkpt lat="43.7331633" lon="12.4309717"><ele>308.0</ele><time>2026-04-06T13:31:57.683Z</time></trkpt><trkpt lat="43.7333333" lon="12.4308967"><ele>308.0</ele><time>2026-04-06T13:31:58.684Z</time></trkpt><trkpt lat="43.7335033" lon="12.4308217"><ele>308.0</ele><time>2026-04-06T13:31:59.685Z</time></trkpt><trkpt lat="43.7336733" lon="12.4307417"><ele>311.33333333333337</ele><time>2026-04-06T13:32:00.683Z</time></trkpt><trkpt lat="43.7338417" lon="12.4306633"><ele>314.6666666666667</ele><time>2026-04-06T13:32:01.685Z</time></trkpt><trkpt lat="43.7340083" lon="12.4305867"><ele>318.0</ele><time>2026-04-06T13:32:02.684Z</time></trkpt><trkpt lat="43.734175" lon="12.4305"><ele>317.0</ele><time>2026-04-06T13:32:03.684Z</time></trkpt><trkpt lat="43.7343383" lon="12.4303967"><ele>316.0</ele><time>2026-04-06T13:32:04.687Z</time></trkpt><trkpt lat="43.73451" lon="12.43031"><ele>315.0</ele><time>2026-04-06T13:32:05.686Z</time></trkpt><trkpt lat="43.73468" lon="12.4302283"><ele>315.0</ele><time>2026-04-06T13:32:06.683Z</time></trkpt><trkpt lat="43.7348467" lon="12.430145"><ele>315.0</ele><time>2026-04-06T13:32:07.685Z</time></trkpt><trkpt lat="43.735015" lon="12.4300683"><ele>315.0</ele><time>2026-04-06T13:32:08.685Z</time></trkpt><trkpt lat="43.73518" lon="12.4299917"><ele>318.3333333333333</ele><time>2026-04-06T13:32:09.688Z</time></trkpt><trkpt lat="43.7353433" lon="12.42991"><ele>321.66666666666663</ele><time>2026-04-06T13:32:10.684Z</time></trkpt><trkpt lat="43.7355017" lon="12.42981"><ele>325.0</ele><time>2026-04-06T13:32:11.685Z</time></trkpt><trkpt lat="43.7356517" lon="12.4296983"><ele>323.66666666666663</ele><time>2026-04-06T13:32:12.685Z</time></trkpt><trkpt lat="43.7358067" lon="12.4295917"><ele>322.3333333333333</ele><time>2026-04-06T13:32:13.686Z</time></trkpt><trkpt lat="43.7359617" lon="12.4294833"><ele>321.0</ele><time>2026-04-06T13:32:14.684Z</time></trkpt><trkpt lat="43.736115" lon="12.429375"><ele>321.0</ele><time>2026-04-06T13:32:15.683Z</time></trkpt><trkpt lat="43.73627" lon="12.429265"><ele>321.0</ele><time>2026-04-06T13:32:16.684Z</time></trkpt><trkpt lat="43.736425" lon="12.4291533"><ele>321.0</ele><time>2026-04-06T13:32:17.686Z</time></trkpt><trkpt lat="43.7365833" lon="12.4290417"><ele>321.0</ele><time>2026-04-06T13:32:18.684Z</time></trkpt><trkpt lat="43.73675" lon="12.4289383"><ele>321.0</ele><time>2026-04-06T13:32:19.686Z</time></trkpt><trkpt lat="43.7369133" lon="12.42883"><ele>321.0</ele><time>2026-04-06T13:32:20.684Z</time></trkpt><trkpt lat="43.7370767" lon="12.4287167"><ele>321.3333333333333</ele><time>2026-04-06T13:32:21.686Z</time></trkpt><trkpt lat="43.7372433" lon="12.4285983"><ele>321.66666666666663</ele><time>2026-04-06T13:32:22.685Z</time></trkpt><trkpt lat="43.73741" lon="12.42848"><ele>322.0</ele><time>2026-04-06T13:32:23.685Z</time></trkpt><trkpt lat="43.737575" lon="12.4283583"><ele>323.3333333333333</ele><time>2026-04-06T13:32:24.685Z</time></trkpt><trkpt lat="43.737735" lon="12.4282283"><ele>324.6666666666667</ele><time>2026-04-06T13:32:25.69Z</time></trkpt><trkpt lat="43.7378867" lon="12.428085"><ele>326.0</ele><time>2026-04-06T13:32:26.685Z</time></trkpt><trkpt lat="43.7380317" lon="12.427935"><ele>326.0</ele><time>2026-04-06T13:32:27.686Z</time></trkpt><trkpt lat="43.73817" lon="12.4277733"><ele>326.0</ele><time>2026-04-06T13:32:28.686Z</time></trkpt><trkpt lat="43.738305" lon="12.4276017"><ele>326.0</ele><time>2026-04-06T13:32:29.689Z</time></trkpt><trkpt lat="43.7384367" lon="12.4274267"><ele>327.33333333333337</ele><time>2026-04-06T13:32:30.684Z</time></trkpt><trkpt lat="43.7385683" lon="12.4272533"><ele>328.6666666666667</ele><time>2026-04-06T13:32:31.687Z</time></trkpt><trkpt lat="43.7387" lon="12.4270767"><ele>330.0</ele><time>2026-04-06T13:32:32.683Z</time></trkpt><trkpt lat="43.7388283" lon="12.426895"><ele>330.0</ele><time>2026-04-06T13:32:33.683Z</time></trkpt><trkpt lat="43.7389633" lon="12.4267167"><ele>330.0</ele><time>2026-04-06T13:32:34.683Z</time></trkpt><trkpt lat="43.7391033" lon="12.4265433"><ele>330.0</ele><time>2026-04-06T13:32:35.686Z</time></trkpt><trkpt lat="43.7392433" lon="12.426375"><ele>333.3333333333333</ele><time>2026-04-06T13:32:36.685Z</time></trkpt><trkpt lat="43.739385" lon="12.42621"><ele>336.66666666666663</ele><time>2026-04-06T13:32:37.688Z</time></trkpt><trkpt lat="43.7395317" lon="12.4260467"><ele>340.0</ele><time>2026-04-06T13:32:38.684Z</time></trkpt><trkpt lat="43.7396767" lon="12.4258817"><ele>340.0</ele><time>2026-04-06T13:32:39.685Z</time></trkpt><trkpt lat="43.7398183" lon="12.4257183"><ele>340.0</ele><time>2026-04-06T13:32:40.687Z</time></trkpt><trkpt lat="43.7399583" lon="12.4255517"><ele>340.0</ele><time>2026-04-06T13:32:41.685Z</time></trkpt><trkpt lat="43.7401017" lon="12.4253817"><ele>342.0</ele><time>2026-04-06T13:32:42.683Z</time></trkpt><trkpt lat="43.7402467" lon="12.4252133"><ele>344.0</ele><time>2026-04-06T13:32:43.684Z</time></trkpt><trkpt lat="43.740395" lon="12.42505"><ele>346.0</ele><time>2026-04-06T13:32:44.685Z</time></trkpt><trkpt lat="43.7405483" lon="12.42489"><ele>346.0</ele><time>2026-04-06T13:32:45.684Z</time></trkpt><trkpt lat="43.740705" lon="12.42474"><ele>346.0</ele><time>2026-04-06T13:32:46.683Z</time></trkpt><trkpt lat="43.7408633" lon="12.4246"><ele>346.0</ele><time>2026-04-06T13:32:47.686Z</time></trkpt><trkpt lat="43.7410117" lon="12.4244667"><ele>350.0</ele><time>2026-04-06T13:32:48.684Z</time></trkpt><trkpt lat="43.7411517" lon="12.4243333"><ele>354.0</ele><time>2026-04-06T13:32:49.688Z</time></trkpt><trkpt lat="43.7412867" lon="12.424195"><ele>358.0</ele><time>2026-04-06T13:32:50.685Z</time></trkpt><trkpt lat="43.74141" lon="12.42404"><ele>358.0</ele><time>2026-04-06T13:32:51.685Z</time></trkpt><trkpt lat="43.74153" lon="12.42387"><ele>358.0</ele><time>2026-04-06T13:32:52.685Z</time></trkpt><trkpt lat="43.7416483" lon="12.4236867"><ele>358.0</ele><time>2026-04-06T13:32:53.686Z</time></trkpt><trkpt lat="43.7417717" lon="12.423505"><ele>360.66666666666663</ele><time>2026-04-06T13:32:54.686Z</time></trkpt><trkpt lat="43.7418833" lon="12.4233017"><ele>363.3333333333333</ele><time>2026-04-06T13:32:55.691Z</time></trkpt><trkpt lat="43.7419883" lon="12.423085"><ele>366.0</ele><time>2026-04-06T13:32:56.684Z</time></trkpt><trkpt lat="43.74209" lon="12.422855"><ele>358.3333333333333</ele><time>2026-04-06T13:32:57.685Z</time></trkpt><trkpt lat="43.7421917" lon="12.42263"><ele>350.66666666666663</ele><time>2026-04-06T13:32:58.684Z</time></trkpt><trkpt lat="43.742295" lon="12.4224017"><ele>343.0</ele><time>2026-04-06T13:32:59.685Z</time></trkpt><trkpt lat="43.7423967" lon="12.42217"><ele>341.3333333333333</ele><time>2026-04-06T13:33:00.685Z</time></trkpt><trkpt lat="43.7424983" lon="12.4219467"><ele>339.6666666666667</ele><time>2026-04-06T13:33:01.686Z</time></trkpt><trkpt lat="43.7425933" lon="12.4217317"><ele>338.0</ele><time>2026-04-06T13:33:02.685Z</time></trkpt><trkpt lat="43.7426917" lon="12.4215267"><ele>341.33333333333337</ele><time>2026-04-06T13:33:03.686Z</time></trkpt><trkpt lat="43.7427933" lon="12.4213183"><ele>344.6666666666667</ele><time>2026-04-06T13:33:04.687Z</time></trkpt><trkpt lat="43.7429067" lon="12.4211083"><ele>348.0</ele><time>2026-04-06T13:33:05.686Z</time></trkpt><trkpt lat="43.7430217" lon="12.4209"><ele>348.0</ele><time>2026-04-06T13:33:06.686Z</time></trkpt><trkpt lat="43.7431417" lon="12.4206933"><ele>348.0</ele><time>2026-04-06T13:33:07.688Z</time></trkpt><trkpt lat="43.7432583" lon="12.420485"><ele>348.0</ele><time>2026-04-06T13:33:08.686Z</time></trkpt><trkpt lat="43.74337" lon="12.420275"><ele>345.0</ele><time>2026-04-06T13:33:09.686Z</time></trkpt><trkpt lat="43.7434867" lon="12.4200617"><ele>342.0</ele><time>2026-04-06T13:33:10.686Z</time></trkpt><trkpt lat="43.7436" lon="12.41985"><ele>339.0</ele><time>2026-04-06T13:33:11.686Z</time></trkpt><trkpt lat="43.7437117" lon="12.4196283"><ele>345.0</ele><time>2026-04-06T13:33:12.686Z</time></trkpt><trkpt lat="43.7438183" lon="12.4194017"><ele>351.0</ele><time>2026-04-06T13:33:13.688Z</time></trkpt><trkpt lat="43.743925" lon="12.4191733"><ele>357.0</ele><time>2026-04-06T13:33:14.685Z</time></trkpt><trkpt lat="43.744025" lon="12.418945"><ele>352.6666666666667</ele><time>2026-04-06T13:33:15.686Z</time></trkpt><trkpt lat="43.744125" lon="12.4187133"><ele>348.33333333333337</ele><time>2026-04-06T13:33:16.685Z</time></trkpt><trkpt lat="43.74423" lon="12.4184817"><ele>344.0</ele><time>2026-04-06T13:33:17.683Z</time></trkpt><trkpt lat="43.7443333" lon="12.41825"><ele>349.6666666666667</ele><time>2026-04-06T13:33:18.685Z</time></trkpt><trkpt lat="43.7444367" lon="12.4180267"><ele>355.3333333333333</ele><time>2026-04-06T13:33:19.685Z</time></trkpt><trkpt lat="43.7445417" lon="12.4178017"><ele>361.0</ele><time>2026-04-06T13:33:20.684Z</time></trkpt><trkpt lat="43.7446283" lon="12.41757"><ele>361.0</ele><time>2026-04-06T13:33:21.685Z</time></trkpt><trkpt lat="43.7447017" lon="12.4173283"><ele>361.0</ele><time>2026-04-06T13:33:22.687Z</time></trkpt><trkpt lat="43.744765" lon="12.4170783"><ele>361.0</ele><time>2026-04-06T13:33:23.686Z</time></trkpt><trkpt lat="43.744825" lon="12.4168233"><ele>356.3333333333333</ele><time>2026-04-06T13:33:24.684Z</time></trkpt><trkpt lat="43.744885" lon="12.4165617"><ele>351.6666666666667</ele><time>2026-04-06T13:33:25.683Z</time></trkpt><trkpt lat="43.7449417" lon="12.4163083"><ele>347.0</ele><time>2026-04-06T13:33:26.686Z</time></trkpt><trkpt lat="43.745" lon="12.4160633"><ele>344.0</ele><time>2026-04-06T13:33:27.686Z</time></trkpt><trkpt lat="43.7450567" lon="12.4158133"><ele>341.0</ele><time>2026-04-06T13:33:28.686Z</time></trkpt><trkpt lat="43.7451133" lon="12.41556"><ele>338.0</ele><time>2026-04-06T13:33:29.687Z</time></trkpt><trkpt lat="43.745165" lon="12.4153067"><ele>339.6666666666667</ele><time>2026-04-06T13:33:30.686Z</time></trkpt><trkpt lat="43.7452233" lon="12.415045"><ele>341.3333333333333</ele><time>2026-04-06T13:33:31.686Z</time></trkpt><trkpt lat="43.745285" lon="12.4147883"><ele>343.0</ele><time>2026-04-06T13:33:32.684Z</time></trkpt><trkpt lat="43.7453417" lon="12.414545"><ele>343.0</ele><time>2026-04-06T13:33:33.686Z</time></trkpt><trkpt lat="43.745395" lon="12.41431"><ele>343.0</ele><time>2026-04-06T13:33:34.687Z</time></trkpt><trkpt lat="43.7454467" lon="12.4140867"><ele>343.0</ele><time>2026-04-06T13:33:35.686Z</time></trkpt><trkpt lat="43.7454983" lon="12.4138617"><ele>343.0</ele><time>2026-04-06T13:33:36.686Z</time></trkpt><trkpt lat="43.7455583" lon="12.4136517"><ele>343.0</ele><time>2026-04-06T13:33:37.686Z</time></trkpt><trkpt lat="43.7456283" lon="12.4134617"><ele>343.0</ele><time>2026-04-06T13:33:38.685Z</time></trkpt><trkpt lat="43.74571" lon="12.41329"><ele>343.0</ele><time>2026-04-06T13:33:39.685Z</time></trkpt><trkpt lat="43.7458083" lon="12.4131217"><ele>343.0</ele><time>2026-04-06T13:33:40.685Z</time></trkpt><trkpt lat="43.745915" lon="12.4129583"><ele>343.0</ele><time>2026-04-06T13:33:41.688Z</time></trkpt><trkpt lat="43.7460233" lon="12.4127983"><ele>350.3333333333333</ele><time>2026-04-06T13:33:42.687Z</time></trkpt><trkpt lat="43.7461267" lon="12.412645"><ele>357.6666666666667</ele><time>2026-04-06T13:33:43.688Z</time></trkpt><trkpt lat="43.7462283" lon="12.4124917"><ele>365.0</ele><time>2026-04-06T13:33:44.686Z</time></trkpt><trkpt lat="43.7463283" lon="12.41234"><ele>365.0</ele><time>2026-04-06T13:33:45.686Z</time></trkpt><trkpt lat="43.7464317" lon="12.4121883"><ele>365.0</ele><time>2026-04-06T13:33:46.686Z</time></trkpt><trkpt lat="43.746535" lon="12.4120367"><ele>365.0</ele><time>2026-04-06T13:33:47.683Z</time></trkpt><trkpt lat="43.7466317" lon="12.4118867"><ele>365.0</ele><time>2026-04-06T13:33:48.685Z</time></trkpt><trkpt lat="43.7467317" lon="12.4117367"><ele>368.0</ele><time>2026-04-06T13:33:49.687Z</time></trkpt><trkpt lat="43.7468333" lon="12.411585"><ele>371.0</ele><time>2026-04-06T13:33:50.684Z</time></trkpt><trkpt lat="43.7469333" lon="12.41143"><ele>374.0</ele><time>2026-04-06T13:33:51.685Z</time></trkpt><trkpt lat="43.747035" lon="12.4112767"><ele>369.25</ele><time>2026-04-06T13:33:52.685Z</time></trkpt><trkpt lat="43.74714" lon="12.41113"><ele>364.5</ele><time>2026-04-06T13:33:53.689Z</time></trkpt><trkpt lat="43.747255" lon="12.4109883"><ele>359.75</ele><time>2026-04-06T13:33:54.686Z</time></trkpt><trkpt lat="43.7473617" lon="12.410855"><ele>355.0</ele><time>2026-04-06T13:33:55.687Z</time></trkpt><trkpt lat="43.747465" lon="12.4107317"><ele>355.0</ele><time>2026-04-06T13:33:56.686Z</time></trkpt><trkpt lat="43.7475683" lon="12.4106133"><ele>355.0</ele><time>2026-04-06T13:33:57.686Z</time></trkpt><trkpt lat="43.7476633" lon="12.4104917"><ele>355.0</ele><time>2026-04-06T13:33:58.683Z</time></trkpt><trkpt lat="43.7477517" lon="12.410365"><ele>355.0</ele><time>2026-04-06T13:33:59.685Z</time></trkpt><trkpt lat="43.747835" lon="12.41022"><ele>353.5</ele><time>2026-04-06T13:34:00.687Z</time></trkpt><trkpt lat="43.7479017" lon="12.4100617"><ele>352.0</ele><time>2026-04-06T13:34:01.688Z</time></trkpt><trkpt lat="43.7479633" lon="12.409895"><ele>350.5</ele><time>2026-04-06T13:34:02.686Z</time></trkpt><trkpt lat="43.7480283" lon="12.4097233"><ele>349.0</ele><time>2026-04-06T13:34:03.685Z</time></trkpt><trkpt lat="43.7480967" lon="12.4095483"><ele>349.0</ele><time>2026-04-06T13:34:04.687Z</time></trkpt><trkpt lat="43.748155" lon="12.4093767"><ele>349.0</ele><time>2026-04-06T13:34:05.686Z</time></trkpt><trkpt lat="43.7482283" lon="12.4092133"><ele>349.0</ele><time>2026-04-06T13:34:06.687Z</time></trkpt><trkpt lat="43.7483083" lon="12.409055"><ele>349.0</ele><time>2026-04-06T13:34:07.687Z</time></trkpt><trkpt lat="43.7484117" lon="12.40891"><ele>350.5</ele><time>2026-04-06T13:34:08.686Z</time></trkpt><trkpt lat="43.7485233" lon="12.4087783"><ele>352.0</ele><time>2026-04-06T13:34:09.687Z</time></trkpt><trkpt lat="43.748635" lon="12.4086483"><ele>353.5</ele><time>2026-04-06T13:34:10.685Z</time></trkpt><trkpt lat="43.7487517" lon="12.40852"><ele>355.0</ele><time>2026-04-06T13:34:11.686Z</time></trkpt><trkpt lat="43.7488683" lon="12.40839"><ele>355.0</ele><time>2026-04-06T13:34:12.684Z</time></trkpt><trkpt lat="43.7489867" lon="12.4082667"><ele>355.0</ele><time>2026-04-06T13:34:13.685Z</time></trkpt><trkpt lat="43.7491117" lon="12.4081533"><ele>355.0</ele><time>2026-04-06T13:34:14.683Z</time></trkpt><trkpt lat="43.7492417" lon="12.4080417"><ele>355.75</ele><time>2026-04-06T13:34:15.686Z</time></trkpt><trkpt lat="43.7493767" lon="12.40794"><ele>356.5</ele><time>2026-04-06T13:34:16.684Z</time></trkpt><trkpt lat="43.7495083" lon="12.4078467"><ele>357.25</ele><time>2026-04-06T13:34:17.686Z</time></trkpt><trkpt lat="43.74964" lon="12.40776"><ele>358.0</ele><time>2026-04-06T13:34:18.684Z</time></trkpt><trkpt lat="43.7497683" lon="12.4076783"><ele>358.0</ele><time>2026-04-06T13:34:19.684Z</time></trkpt><trkpt lat="43.7498917" lon="12.4075983"><ele>358.0</ele><time>2026-04-06T13:34:20.683Z</time></trkpt><trkpt lat="43.7500167" lon="12.4075267"><ele>358.0</ele><time>2026-04-06T13:34:21.684Z</time></trkpt><trkpt lat="43.7501333" lon="12.4074583"><ele>358.0</ele><time>2026-04-06T13:34:22.683Z</time></trkpt><trkpt lat="43.7502433" lon="12.40739"><ele>356.0</ele><time>2026-04-06T13:34:23.686Z</time></trkpt><trkpt lat="43.750345" lon="12.407315"><ele>354.0</ele><time>2026-04-06T13:34:24.685Z</time></trkpt><trkpt lat="43.7504533" lon="12.4072433"><ele>352.0</ele><time>2026-04-06T13:34:25.685Z</time></trkpt><trkpt lat="43.75057" lon="12.4071667"><ele>350.0</ele><time>2026-04-06T13:34:26.685Z</time></trkpt><trkpt lat="43.7506917" lon="12.4070883"><ele>350.0</ele><time>2026-04-06T13:34:27.684Z</time></trkpt><trkpt lat="43.7508033" lon="12.4069933"><ele>350.0</ele><time>2026-04-06T13:34:28.683Z</time></trkpt><trkpt lat="43.75091" lon="12.4068833"><ele>350.0</ele><time>2026-04-06T13:34:29.685Z</time></trkpt><trkpt lat="43.751015" lon="12.406765"><ele>350.0</ele><time>2026-04-06T13:34:30.683Z</time></trkpt><trkpt lat="43.7511183" lon="12.4066417"><ele>351.25</ele><time>2026-04-06T13:34:31.687Z</time></trkpt><trkpt lat="43.75122" lon="12.406515"><ele>352.5</ele><time>2026-04-06T13:34:32.683Z</time></trkpt><trkpt lat="43.7513117" lon="12.4063933"><ele>353.75</ele><time>2026-04-06T13:34:33.685Z</time></trkpt><trkpt lat="43.7514" lon="12.40628"><ele>355.0</ele><time>2026-04-06T13:34:34.683Z</time></trkpt><trkpt lat="43.7514867" lon="12.40618"><ele>355.0</ele><time>2026-04-06T13:34:35.686Z</time></trkpt><trkpt lat="43.7515667" lon="12.406085"><ele>355.0</ele><time>2026-04-06T13:34:36.684Z</time></trkpt><trkpt lat="43.7516483" lon="12.405995"><ele>355.0</ele><time>2026-04-06T13:34:37.687Z</time></trkpt><trkpt lat="43.7517317" lon="12.4059"><ele>355.0</ele><time>2026-04-06T13:34:38.683Z</time></trkpt><trkpt lat="43.7518167" lon="12.405805"><ele>355.0</ele><time>2026-04-06T13:34:39.685Z</time></trkpt><trkpt lat="43.7518967" lon="12.405715"><ele>356.0</ele><time>2026-04-06T13:34:40.684Z</time></trkpt><trkpt lat="43.75198" lon="12.4056267"><ele>357.0</ele><time>2026-04-06T13:34:41.685Z</time></trkpt><trkpt lat="43.7520583" lon="12.4055333"><ele>358.0</ele><time>2026-04-06T13:34:42.686Z</time></trkpt><trkpt lat="43.7521417" lon="12.4054483"><ele>359.0</ele><time>2026-04-06T13:34:43.686Z</time></trkpt><trkpt lat="43.7522217" lon="12.4053617"><ele>360.0</ele><time>2026-04-06T13:34:44.685Z</time></trkpt><trkpt lat="43.7523017" lon="12.4052783"><ele>360.0</ele><time>2026-04-06T13:34:45.685Z</time></trkpt><trkpt lat="43.7523783" lon="12.4052"><ele>360.0</ele><time>2026-04-06T13:34:46.683Z</time></trkpt><trkpt lat="43.7524567" lon="12.40512"><ele>360.0</ele><time>2026-04-06T13:34:47.684Z</time></trkpt><trkpt lat="43.7525317" lon="12.4050433"><ele>360.0</ele><time>2026-04-06T13:34:48.684Z</time></trkpt><trkpt lat="43.7526033" lon="12.404975"><ele>360.0</ele><time>2026-04-06T13:34:49.683Z</time></trkpt><trkpt lat="43.7526683" lon="12.404915"><ele>359.1666666666667</ele><time>2026-04-06T13:34:50.684Z</time></trkpt><trkpt lat="43.7527217" lon="12.4048617"><ele>358.3333333333333</ele><time>2026-04-06T13:34:51.685Z</time></trkpt><trkpt lat="43.7528133" lon="12.4047633"><ele>357.5</ele><time>2026-04-06T13:34:53.686Z</time></trkpt><trkpt lat="43.7528833" lon="12.4047033"><ele>356.66666666666663</ele><time>2026-04-06T13:34:55.684Z</time></trkpt><trkpt lat="43.7529367" lon="12.4046567"><ele>355.8333333333333</ele><time>2026-04-06T13:34:57.683Z</time></trkpt><trkpt lat="43.7528417" lon="12.4046817"><ele>355.0</ele><time>2026-04-06T13:36:48.684Z</time></trkpt><trkpt lat="43.752765" lon="12.4047583"><ele>355.8333333333333</ele><time>2026-04-06T13:36:50.686Z</time></trkpt><trkpt lat="43.75269" lon="12.4047983"><ele>356.66666666666663</ele><time>2026-04-06T13:36:52.685Z</time></trkpt><trkpt lat="43.75261" lon="12.40477"><ele>357.5</ele><time>2026-04-06T13:36:54.686Z</time></trkpt><trkpt lat="43.7524833" lon="12.4047017"><ele>358.3333333333333</ele><time>2026-04-06T13:36:56.684Z</time></trkpt><trkpt lat="43.7524183" lon="12.404665"><ele>359.1666666666667</ele><time>2026-04-06T13:36:57.685Z</time></trkpt><trkpt lat="43.7523483" lon="12.4046267"><ele>360.0</ele><time>2026-04-06T13:36:58.684Z</time></trkpt><trkpt lat="43.75228" lon="12.4045883"><ele>358.1666666666667</ele><time>2026-04-06T13:36:59.686Z</time></trkpt><trkpt lat="43.7522133" lon="12.4045433"><ele>356.3333333333333</ele><time>2026-04-06T13:37:00.684Z</time></trkpt><trkpt lat="43.7521433" lon="12.4044917"><ele>354.5</ele><time>2026-04-06T13:37:01.686Z</time></trkpt><trkpt lat="43.752075" lon="12.4044467"><ele>352.66666666666663</ele><time>2026-04-06T13:37:02.684Z</time></trkpt><trkpt lat="43.7519533" lon="12.4043933"><ele>350.8333333333333</ele><time>2026-04-06T13:37:04.684Z</time></trkpt><trkpt lat="43.751885" lon="12.4043833"><ele>349.0</ele><time>2026-04-06T13:37:05.686Z</time></trkpt><trkpt lat="43.7518167" lon="12.404385"><ele>348.0</ele><time>2026-04-06T13:37:06.685Z</time></trkpt><trkpt lat="43.7517483" lon="12.4044"><ele>347.0</ele><time>2026-04-06T13:37:07.686Z</time></trkpt><trkpt lat="43.7516783" lon="12.404425"><ele>346.0</ele><time>2026-04-06T13:37:08.684Z</time></trkpt><trkpt lat="43.7516133" lon="12.4044533"><ele>345.0</ele><time>2026-04-06T13:37:09.683Z</time></trkpt><trkpt lat="43.7515033" lon="12.40449"><ele>344.0</ele><time>2026-04-06T13:37:11.687Z</time></trkpt><trkpt lat="43.7514267" lon="12.4044533"><ele>343.0</ele><time>2026-04-06T13:37:14.685Z</time></trkpt><trkpt lat="43.751385" lon="12.404325"><ele>343.0</ele><time>2026-04-06T13:37:16.683Z</time></trkpt><trkpt lat="43.7513583" lon="12.4042283"><ele>343.0</ele><time>2026-04-06T13:37:17.685Z</time></trkpt><trkpt lat="43.7513267" lon="12.404115"><ele>343.0</ele><time>2026-04-06T13:37:18.683Z</time></trkpt><trkpt lat="43.75129" lon="12.4039967"><ele>343.0</ele><time>2026-04-06T13:37:19.685Z</time></trkpt><trkpt lat="43.7512533" lon="12.403875"><ele>343.0</ele><time>2026-04-06T13:37:20.682Z</time></trkpt><trkpt lat="43.751215" lon="12.4037533"><ele>343.0</ele><time>2026-04-06T13:37:21.684Z</time></trkpt><trkpt lat="43.75118" lon="12.4036317"><ele>342.5</ele><time>2026-04-06T13:37:22.683Z</time></trkpt><trkpt lat="43.751145" lon="12.4035083"><ele>342.0</ele><time>2026-04-06T13:37:23.683Z</time></trkpt><trkpt lat="43.7511083" lon="12.40339"><ele>341.5</ele><time>2026-04-06T13:37:24.685Z</time></trkpt><trkpt lat="43.75108" lon="12.4032833"><ele>341.0</ele><time>2026-04-06T13:37:25.685Z</time></trkpt><trkpt lat="43.7510467" lon="12.40318"><ele>340.5</ele><time>2026-04-06T13:37:26.682Z</time></trkpt><trkpt lat="43.7510167" lon="12.4030883"><ele>340.0</ele><time>2026-04-06T13:37:27.683Z</time></trkpt><trkpt lat="43.7509867" lon="12.403"><ele>343.5</ele><time>2026-04-06T13:37:28.684Z</time></trkpt><trkpt lat="43.7509533" lon="12.40292"><ele>347.0</ele><time>2026-04-06T13:37:29.687Z</time></trkpt><trkpt lat="43.7509117" lon="12.4028483"><ele>350.5</ele><time>2026-04-06T13:37:30.685Z</time></trkpt><trkpt lat="43.75085" lon="12.4027833"><ele>354.0</ele><time>2026-04-06T13:37:31.688Z</time></trkpt><trkpt lat="43.7507783" lon="12.4027233"><ele>357.5</ele><time>2026-04-06T13:37:32.685Z</time></trkpt><trkpt lat="43.7507017" lon="12.4026667"><ele>361.0</ele><time>2026-04-06T13:37:33.685Z</time></trkpt><trkpt lat="43.750625" lon="12.4026083"><ele>361.0</ele><time>2026-04-06T13:37:34.685Z</time></trkpt><trkpt lat="43.75055" lon="12.402555"><ele>361.0</ele><time>2026-04-06T13:37:35.682Z</time></trkpt><trkpt lat="43.7504733" lon="12.402505"><ele>361.0</ele><time>2026-04-06T13:37:36.684Z</time></trkpt><trkpt lat="43.7504083" lon="12.4024483"><ele>361.0</ele><time>2026-04-06T13:37:37.688Z</time></trkpt><trkpt lat="43.7503517" lon="12.402375"><ele>361.0</ele><time>2026-04-06T13:37:38.685Z</time></trkpt><trkpt lat="43.7503017" lon="12.4022783"><ele>361.0</ele><time>2026-04-06T13:37:39.684Z</time></trkpt><trkpt lat="43.7502583" lon="12.4021533"><ele>362.25</ele><time>2026-04-06T13:37:40.685Z</time></trkpt><trkpt lat="43.7502183" lon="12.4019983"><ele>363.5</ele><time>2026-04-06T13:37:41.685Z</time></trkpt><trkpt lat="43.7501733" lon="12.4018433"><ele>364.75</ele><time>2026-04-06T13:37:42.685Z</time></trkpt><trkpt lat="43.750135" lon="12.4017017"><ele>366.0</ele><time>2026-04-06T13:37:43.688Z</time></trkpt><trkpt lat="43.750115" lon="12.4015533"><ele>366.0</ele><time>2026-04-06T13:37:44.683Z</time></trkpt><trkpt lat="43.750105" lon="12.4014"><ele>366.0</ele><time>2026-04-06T13:37:45.684Z</time></trkpt><trkpt lat="43.7501067" lon="12.4012283"><ele>366.0</ele><time>2026-04-06T13:37:46.684Z</time></trkpt><trkpt lat="43.750095" lon="12.4010517"><ele>366.0</ele><time>2026-04-06T13:37:47.683Z</time></trkpt><trkpt lat="43.750075" lon="12.4008783"><ele>366.8</ele><time>2026-04-06T13:37:48.684Z</time></trkpt><trkpt lat="43.750055" lon="12.40071"><ele>367.6</ele><time>2026-04-06T13:37:49.685Z</time></trkpt><trkpt lat="43.7500483" lon="12.4005617"><ele>368.4</ele><time>2026-04-06T13:37:50.682Z</time></trkpt><trkpt lat="43.7500567" lon="12.4004133"><ele>369.2</ele><time>2026-04-06T13:37:51.684Z</time></trkpt><trkpt lat="43.750085" lon="12.4002833"><ele>370.0</ele><time>2026-04-06T13:37:52.685Z</time></trkpt><trkpt lat="43.7501217" lon="12.4001717"><ele>370.8333333333333</ele><time>2026-04-06T13:37:53.683Z</time></trkpt><trkpt lat="43.7501467" lon="12.40007"><ele>371.66666666666663</ele><time>2026-04-06T13:37:54.683Z</time></trkpt><trkpt lat="43.750165" lon="12.3999667"><ele>372.5</ele><time>2026-04-06T13:37:55.686Z</time></trkpt><trkpt lat="43.750165" lon="12.3998617"><ele>373.3333333333333</ele><time>2026-04-06T13:37:56.683Z</time></trkpt><trkpt lat="43.7501383" lon="12.3997383"><ele>374.1666666666667</ele><time>2026-04-06T13:37:57.684Z</time></trkpt><trkpt lat="43.7500733" lon="12.399595"><ele>375.0</ele><time>2026-04-06T13:37:58.686Z</time></trkpt><trkpt lat="43.74999" lon="12.3994417"><ele>379.0</ele><time>2026-04-06T13:37:59.682Z</time></trkpt><trkpt lat="43.7499233" lon="12.39929"><ele>383.0</ele><time>2026-04-06T13:38:00.685Z</time></trkpt><trkpt lat="43.74988" lon="12.3991267"><ele>387.0</ele><time>2026-04-06T13:38:01.687Z</time></trkpt><trkpt lat="43.7498433" lon="12.39895"><ele>391.0</ele><time>2026-04-06T13:38:02.681Z</time></trkpt><trkpt lat="43.749805" lon="12.3987533"><ele>397.6666666666667</ele><time>2026-04-06T13:38:03.683Z</time></trkpt><trkpt lat="43.7497633" lon="12.3985483"><ele>404.33333333333337</ele><time>2026-04-06T13:38:04.684Z</time></trkpt><trkpt lat="43.74972" lon="12.398345"><ele>411.0</ele><time>2026-04-06T13:38:05.684Z</time></trkpt><trkpt lat="43.7496717" lon="12.39815"><ele>414.33333333333337</ele><time>2026-04-06T13:38:06.685Z</time></trkpt><trkpt lat="43.7496133" lon="12.397945"><ele>417.6666666666667</ele><time>2026-04-06T13:38:07.688Z</time></trkpt><trkpt lat="43.7495433" lon="12.3977367"><ele>421.0</ele><time>2026-04-06T13:38:08.682Z</time></trkpt><trkpt lat="43.7494767" lon="12.397535"><ele>421.0</ele><time>2026-04-06T13:38:09.686Z</time></trkpt><trkpt lat="43.7494183" lon="12.397355"><ele>421.0</ele><time>2026-04-06T13:38:10.685Z</time></trkpt><trkpt lat="43.7493633" lon="12.3971917"><ele>421.0</ele><time>2026-04-06T13:38:11.682Z</time></trkpt><trkpt lat="43.7493167" lon="12.3970517"><ele>421.0</ele><time>2026-04-06T13:38:12.684Z</time></trkpt><trkpt lat="43.74929" lon="12.3969367"><ele>419.33333333333337</ele><time>2026-04-06T13:38:13.685Z</time></trkpt><trkpt lat="43.7492783" lon="12.3968267"><ele>417.6666666666667</ele><time>2026-04-06T13:38:14.685Z</time></trkpt><trkpt lat="43.7492917" lon="12.3967217"><ele>416.0</ele><time>2026-04-06T13:38:15.686Z</time></trkpt><trkpt lat="43.7493317" lon="12.3966433"><ele>414.33333333333337</ele><time>2026-04-06T13:38:16.686Z</time></trkpt><trkpt lat="43.7493917" lon="12.3965833"><ele>412.6666666666667</ele><time>2026-04-06T13:38:17.687Z</time></trkpt><trkpt lat="43.749465" lon="12.39655"><ele>411.0</ele><time>2026-04-06T13:38:18.684Z</time></trkpt><trkpt lat="43.7495467" lon="12.3965283"><ele>411.0</ele><time>2026-04-06T13:38:19.688Z</time></trkpt><trkpt lat="43.7496483" lon="12.3965167"><ele>411.0</ele><time>2026-04-06T13:38:20.686Z</time></trkpt><trkpt lat="43.749775" lon="12.396505"><ele>411.0</ele><time>2026-04-06T13:38:21.686Z</time></trkpt><trkpt lat="43.749875" lon="12.3964783"><ele>411.0</ele><time>2026-04-06T13:38:22.686Z</time></trkpt><trkpt lat="43.7499683" lon="12.3964417"><ele>411.0</ele><time>2026-04-06T13:38:23.687Z</time></trkpt><trkpt lat="43.7500433" lon="12.3963867"><ele>411.20000000000005</ele><time>2026-04-06T13:38:24.686Z</time></trkpt><trkpt lat="43.7500933" lon="12.3963083"><ele>411.40000000000003</ele><time>2026-04-06T13:38:25.688Z</time></trkpt><trkpt lat="43.75013" lon="12.3962033"><ele>411.6</ele><time>2026-04-06T13:38:26.685Z</time></trkpt><trkpt lat="43.7501383" lon="12.3960667"><ele>411.8</ele><time>2026-04-06T13:38:27.686Z</time></trkpt><trkpt lat="43.750125" lon="12.3959167"><ele>412.0</ele><time>2026-04-06T13:38:28.686Z</time></trkpt><trkpt lat="43.7500833" lon="12.3957567"><ele>412.0</ele><time>2026-04-06T13:38:29.686Z</time></trkpt><trkpt lat="43.7500267" lon="12.3956"><ele>412.0</ele><time>2026-04-06T13:38:30.686Z</time></trkpt><trkpt lat="43.7499517" lon="12.39545"><ele>412.0</ele><time>2026-04-06T13:38:31.687Z</time></trkpt><trkpt lat="43.7498567" lon="12.3953033"><ele>412.0</ele><time>2026-04-06T13:38:32.685Z</time></trkpt><trkpt lat="43.7497567" lon="12.3951583"><ele>415.25</ele><time>2026-04-06T13:38:33.684Z</time></trkpt><trkpt lat="43.7496617" lon="12.3950217"><ele>418.5</ele><time>2026-04-06T13:38:34.685Z</time></trkpt><trkpt lat="43.7495833" lon="12.39489"><ele>421.75</ele><time>2026-04-06T13:38:35.687Z</time></trkpt><trkpt lat="43.7495233" lon="12.3947567"><ele>425.0</ele><time>2026-04-06T13:38:36.686Z</time></trkpt><trkpt lat="43.7494817" lon="12.3946217"><ele>425.0</ele><time>2026-04-06T13:38:37.686Z</time></trkpt><trkpt lat="43.7494617" lon="12.3944933"><ele>425.0</ele><time>2026-04-06T13:38:38.687Z</time></trkpt><trkpt lat="43.749465" lon="12.3943717"><ele>425.0</ele><time>2026-04-06T13:38:39.686Z</time></trkpt><trkpt lat="43.74949" lon="12.394255"><ele>425.0</ele><time>2026-04-06T13:38:40.688Z</time></trkpt><trkpt lat="43.7495317" lon="12.3941417"><ele>425.0</ele><time>2026-04-06T13:38:41.686Z</time></trkpt><trkpt lat="43.7496" lon="12.3940267"><ele>425.0</ele><time>2026-04-06T13:38:42.685Z</time></trkpt><trkpt lat="43.7497033" lon="12.3939233"><ele>425.0</ele><time>2026-04-06T13:38:43.687Z</time></trkpt><trkpt lat="43.7498" lon="12.39383"><ele>425.0</ele><time>2026-04-06T13:38:44.685Z</time></trkpt><trkpt lat="43.749885" lon="12.3937483"><ele>425.0</ele><time>2026-04-06T13:38:45.687Z</time></trkpt><trkpt lat="43.7499433" lon="12.3936583"><ele>425.0</ele><time>2026-04-06T13:38:46.685Z</time></trkpt><trkpt lat="43.7499883" lon="12.3935733"><ele>422.99999999999994</ele><time>2026-04-06T13:38:47.684Z</time></trkpt><trkpt lat="43.7500183" lon="12.3934883"><ele>421.0</ele><time>2026-04-06T13:38:48.684Z</time></trkpt><trkpt lat="43.7500333" lon="12.3933567"><ele>419.0</ele><time>2026-04-06T13:38:50.685Z</time></trkpt><trkpt lat="43.7499967" lon="12.3932667"><ele>417.0</ele><time>2026-04-06T13:38:52.684Z</time></trkpt><trkpt lat="43.74995" lon="12.3932017"><ele>414.99999999999994</ele><time>2026-04-06T13:38:53.685Z</time></trkpt><trkpt lat="43.7498717" lon="12.3931267"><ele>413.0</ele><time>2026-04-06T13:38:54.685Z</time></trkpt><trkpt lat="43.7497883" lon="12.39304"><ele>415.5</ele><time>2026-04-06T13:38:55.687Z</time></trkpt><trkpt lat="43.7496883" lon="12.392935"><ele>418.0</ele><time>2026-04-06T13:38:56.685Z</time></trkpt><trkpt lat="43.7495917" lon="12.39283"><ele>420.5</ele><time>2026-04-06T13:38:57.684Z</time></trkpt><trkpt lat="43.7495" lon="12.392725"><ele>423.0</ele><time>2026-04-06T13:38:58.685Z</time></trkpt><trkpt lat="43.7494183" lon="12.3926283"><ele>419.1666666666667</ele><time>2026-04-06T13:38:59.687Z</time></trkpt><trkpt lat="43.74934" lon="12.3925317"><ele>415.33333333333337</ele><time>2026-04-06T13:39:00.685Z</time></trkpt><trkpt lat="43.74928" lon="12.3924367"><ele>411.5</ele><time>2026-04-06T13:39:01.687Z</time></trkpt><trkpt lat="43.7492367" lon="12.3923417"><ele>407.6666666666667</ele><time>2026-04-06T13:39:02.684Z</time></trkpt><trkpt lat="43.7492067" lon="12.3922417"><ele>403.83333333333337</ele><time>2026-04-06T13:39:03.684Z</time></trkpt><trkpt lat="43.7491933" lon="12.3921283"><ele>400.0</ele><time>2026-04-06T13:39:04.684Z</time></trkpt><trkpt lat="43.7491983" lon="12.3920067"><ele>399.5</ele><time>2026-04-06T13:39:05.687Z</time></trkpt><trkpt lat="43.7492183" lon="12.3918683"><ele>399.0</ele><time>2026-04-06T13:39:06.686Z</time></trkpt><trkpt lat="43.74925" lon="12.3916933"><ele>398.5</ele><time>2026-04-06T13:39:07.687Z</time></trkpt><trkpt lat="43.7492833" lon="12.39152"><ele>398.0</ele><time>2026-04-06T13:39:08.685Z</time></trkpt><trkpt lat="43.7493133" lon="12.3913383"><ele>397.75</ele><time>2026-04-06T13:39:09.686Z</time></trkpt><trkpt lat="43.74934" lon="12.391155"><ele>397.5</ele><time>2026-04-06T13:39:10.685Z</time></trkpt><trkpt lat="43.7493567" lon="12.390965"><ele>397.25</ele><time>2026-04-06T13:39:11.686Z</time></trkpt><trkpt lat="43.7493683" lon="12.3907717"><ele>397.0</ele><time>2026-04-06T13:39:12.684Z</time></trkpt><trkpt lat="43.749375" lon="12.3905833"><ele>401.5</ele><time>2026-04-06T13:39:13.687Z</time></trkpt><trkpt lat="43.7493983" lon="12.390405"><ele>406.0</ele><time>2026-04-06T13:39:14.685Z</time></trkpt><trkpt lat="43.749435" lon="12.3902333"><ele>410.5</ele><time>2026-04-06T13:39:15.686Z</time></trkpt><trkpt lat="43.749485" lon="12.3900767"><ele>415.0</ele><time>2026-04-06T13:39:16.687Z</time></trkpt><trkpt lat="43.7495383" lon="12.38993"><ele>415.0</ele><time>2026-04-06T13:39:17.681Z</time></trkpt><trkpt lat="43.749585" lon="12.3897967"><ele>415.0</ele><time>2026-04-06T13:39:18.683Z</time></trkpt><trkpt lat="43.7496233" lon="12.3896667"><ele>415.0</ele><time>2026-04-06T13:39:19.684Z</time></trkpt><trkpt lat="43.7496417" lon="12.38954"><ele>415.0</ele><time>2026-04-06T13:39:20.683Z</time></trkpt><trkpt lat="43.7496433" lon="12.3894133"><ele>415.0</ele><time>2026-04-06T13:39:21.682Z</time></trkpt><trkpt lat="43.7496283" lon="12.38929"><ele>415.14285714285717</ele><time>2026-04-06T13:39:22.686Z</time></trkpt><trkpt lat="43.7496017" lon="12.389185"><ele>415.28571428571433</ele><time>2026-04-06T13:39:23.684Z</time></trkpt><trkpt lat="43.7495617" lon="12.3890967"><ele>415.42857142857144</ele><time>2026-04-06T13:39:24.685Z</time></trkpt><trkpt lat="43.74951" lon="12.3890333"><ele>415.57142857142856</ele><time>2026-04-06T13:39:25.684Z</time></trkpt><trkpt lat="43.7494467" lon="12.388995"><ele>415.7142857142857</ele><time>2026-04-06T13:39:26.682Z</time></trkpt><trkpt lat="43.7493817" lon="12.3889917"><ele>415.85714285714283</ele><time>2026-04-06T13:39:27.684Z</time></trkpt><trkpt lat="43.7493033" lon="12.3890217"><ele>416.0</ele><time>2026-04-06T13:39:28.684Z</time></trkpt><trkpt lat="43.7492217" lon="12.3890433"><ele>415.99999999999994</ele><time>2026-04-06T13:39:29.683Z</time></trkpt><trkpt lat="43.7491567" lon="12.38904"><ele>416.0</ele><time>2026-04-06T13:39:30.685Z</time></trkpt><trkpt lat="43.7490933" lon="12.3890217"><ele>416.0</ele><time>2026-04-06T13:39:31.687Z</time></trkpt><trkpt lat="43.7490167" lon="12.38892"><ele>416.0</ele><time>2026-04-06T13:39:33.684Z</time></trkpt><trkpt lat="43.7489983" lon="12.3887967"><ele>415.99999999999994</ele><time>2026-04-06T13:39:34.686Z</time></trkpt><trkpt lat="43.7489883" lon="12.38863"><ele>416.0</ele><time>2026-04-06T13:39:35.681Z</time></trkpt><trkpt lat="43.7489533" lon="12.388465"><ele>418.0</ele><time>2026-04-06T13:39:36.683Z</time></trkpt><trkpt lat="43.7489017" lon="12.38829"><ele>420.0</ele><time>2026-04-06T13:39:37.687Z</time></trkpt><trkpt lat="43.7488433" lon="12.3881383"><ele>422.0</ele><time>2026-04-06T13:39:38.682Z</time></trkpt><trkpt lat="43.7487867" lon="12.38801"><ele>424.0</ele><time>2026-04-06T13:39:39.686Z</time></trkpt><trkpt lat="43.748725" lon="12.3879083"><ele>425.00000000000006</ele><time>2026-04-06T13:39:40.685Z</time></trkpt><trkpt lat="43.7486583" lon="12.387825"><ele>426.0</ele><time>2026-04-06T13:39:41.686Z</time></trkpt><trkpt lat="43.7485883" lon="12.38777"><ele>427.0</ele><time>2026-04-06T13:39:42.685Z</time></trkpt><trkpt lat="43.7485083" lon="12.387755"><ele>428.0</ele><time>2026-04-06T13:39:43.687Z</time></trkpt><trkpt lat="43.7484183" lon="12.3877733"><ele>429.00000000000006</ele><time>2026-04-06T13:39:44.685Z</time></trkpt><trkpt lat="43.7483417" lon="12.387765"><ele>430.0</ele><time>2026-04-06T13:39:45.686Z</time></trkpt><trkpt lat="43.7482367" lon="12.3877"><ele>430.0</ele><time>2026-04-06T13:39:47.682Z</time></trkpt><trkpt lat="43.748195" lon="12.3876283"><ele>430.0</ele><time>2026-04-06T13:39:48.683Z</time></trkpt><trkpt lat="43.7481617" lon="12.38752"><ele>430.0</ele><time>2026-04-06T13:39:49.685Z</time></trkpt><trkpt lat="43.7481283" lon="12.387375"><ele>430.0</ele><time>2026-04-06T13:39:50.682Z</time></trkpt><trkpt lat="43.7480983" lon="12.387205"><ele>430.0</ele><time>2026-04-06T13:39:51.682Z</time></trkpt><trkpt lat="43.7480617" lon="12.38704"><ele>432.4</ele><time>2026-04-06T13:39:52.685Z</time></trkpt><trkpt lat="43.748025" lon="12.3868783"><ele>434.8</ele><time>2026-04-06T13:39:53.684Z</time></trkpt><trkpt lat="43.7479983" lon="12.3867267"><ele>437.20000000000005</ele><time>2026-04-06T13:39:54.683Z</time></trkpt><trkpt lat="43.7479767" lon="12.3865833"><ele>439.6</ele><time>2026-04-06T13:39:55.686Z</time></trkpt><trkpt lat="43.7479717" lon="12.3864583"><ele>442.0</ele><time>2026-04-06T13:39:56.683Z</time></trkpt><trkpt lat="43.7479817" lon="12.38635"><ele>442.00000000000006</ele><time>2026-04-06T13:39:57.684Z</time></trkpt><trkpt lat="43.7480067" lon="12.386255"><ele>442.0</ele><time>2026-04-06T13:39:58.686Z</time></trkpt><trkpt lat="43.7480433" lon="12.386175"><ele>442.0</ele><time>2026-04-06T13:39:59.686Z</time></trkpt><trkpt lat="43.748085" lon="12.3861"><ele>442.0</ele><time>2026-04-06T13:40:00.686Z</time></trkpt><trkpt lat="43.748145" lon="12.3860483"><ele>442.00000000000006</ele><time>2026-04-06T13:40:01.687Z</time></trkpt><trkpt lat="43.7482367" lon="12.386"><ele>442.0</ele><time>2026-04-06T13:40:02.682Z</time></trkpt><trkpt lat="43.748355" lon="12.3859467"><ele>442.0</ele><time>2026-04-06T13:40:03.683Z</time></trkpt><trkpt lat="43.7484667" lon="12.385885"><ele>442.00000000000006</ele><time>2026-04-06T13:40:04.686Z</time></trkpt><trkpt lat="43.7485633" lon="12.3858117"><ele>442.00000000000006</ele><time>2026-04-06T13:40:05.686Z</time></trkpt><trkpt lat="43.74866" lon="12.38573"><ele>442.0</ele><time>2026-04-06T13:40:06.685Z</time></trkpt><trkpt lat="43.7487417" lon="12.3856383"><ele>442.0</ele><time>2026-04-06T13:40:07.686Z</time></trkpt><trkpt lat="43.7488067" lon="12.3855417"><ele>446.6</ele><time>2026-04-06T13:40:08.682Z</time></trkpt><trkpt lat="43.74886" lon="12.385435"><ele>451.20000000000005</ele><time>2026-04-06T13:40:09.685Z</time></trkpt><trkpt lat="43.748895" lon="12.3853183"><ele>455.8</ele><time>2026-04-06T13:40:10.685Z</time></trkpt><trkpt lat="43.74891" lon="12.385185"><ele>460.4</ele><time>2026-04-06T13:40:11.687Z</time></trkpt><trkpt lat="43.7489083" lon="12.385025"><ele>465.0</ele><time>2026-04-06T13:40:12.683Z</time></trkpt><trkpt lat="43.7488867" lon="12.3848517"><ele>465.0</ele><time>2026-04-06T13:40:13.686Z</time></trkpt><trkpt lat="43.7488583" lon="12.38469"><ele>465.0</ele><time>2026-04-06T13:40:14.682Z</time></trkpt><trkpt lat="43.748835" lon="12.3845467"><ele>465.0</ele><time>2026-04-06T13:40:15.687Z</time></trkpt><trkpt lat="43.74882" lon="12.38443"><ele>465.0</ele><time>2026-04-06T13:40:16.686Z</time></trkpt><trkpt lat="43.74881" lon="12.3843367"><ele>465.0</ele><time>2026-04-06T13:40:17.683Z</time></trkpt><trkpt lat="43.7488317" lon="12.3841883"><ele>464.4</ele><time>2026-04-06T13:40:19.684Z</time></trkpt><trkpt lat="43.7489267" lon="12.3841133"><ele>463.8</ele><time>2026-04-06T13:40:21.685Z</time></trkpt><trkpt lat="43.749" lon="12.3841"><ele>463.20000000000005</ele><time>2026-04-06T13:40:22.684Z</time></trkpt><trkpt lat="43.7490867" lon="12.3841083"><ele>462.6</ele><time>2026-04-06T13:40:23.684Z</time></trkpt><trkpt lat="43.749195" lon="12.3841417"><ele>462.0</ele><time>2026-04-06T13:40:24.685Z</time></trkpt><trkpt lat="43.7493067" lon="12.3842033"><ele>460.5</ele><time>2026-04-06T13:40:25.686Z</time></trkpt><trkpt lat="43.7494267" lon="12.38428"><ele>459.0</ele><time>2026-04-06T13:40:26.684Z</time></trkpt><trkpt lat="43.7495467" lon="12.3843633"><ele>457.5</ele><time>2026-04-06T13:40:27.684Z</time></trkpt><trkpt lat="43.749665" lon="12.3844433"><ele>456.0</ele><time>2026-04-06T13:40:28.685Z</time></trkpt><trkpt lat="43.7497867" lon="12.3845183"><ele>456.0</ele><time>2026-04-06T13:40:29.685Z</time></trkpt><trkpt lat="43.7499083" lon="12.3846017"><ele>456.0</ele><time>2026-04-06T13:40:30.685Z</time></trkpt><trkpt lat="43.7500267" lon="12.3847033"><ele>456.0</ele><time>2026-04-06T13:40:31.684Z</time></trkpt><trkpt lat="43.750145" lon="12.38481"><ele>456.0</ele><time>2026-04-06T13:40:32.685Z</time></trkpt><trkpt lat="43.7502533" lon="12.3849217"><ele>456.25</ele><time>2026-04-06T13:40:33.686Z</time></trkpt><trkpt lat="43.750355" lon="12.3850317"><ele>456.5</ele><time>2026-04-06T13:40:34.684Z</time></trkpt><trkpt lat="43.7504567" lon="12.3851483"><ele>456.75</ele><time>2026-04-06T13:40:35.686Z</time></trkpt><trkpt lat="43.750555" lon="12.385265"><ele>457.0</ele><time>2026-04-06T13:40:36.683Z</time></trkpt><trkpt lat="43.750645" lon="12.3853817"><ele>457.0</ele><time>2026-04-06T13:40:37.685Z</time></trkpt><trkpt lat="43.7507317" lon="12.38548"><ele>457.00000000000006</ele><time>2026-04-06T13:40:38.686Z</time></trkpt><trkpt lat="43.750815" lon="12.3855617"><ele>457.00000000000006</ele><time>2026-04-06T13:40:39.686Z</time></trkpt><trkpt lat="43.7508933" lon="12.3856233"><ele>457.0</ele><time>2026-04-06T13:40:40.685Z</time></trkpt><trkpt lat="43.75097" lon="12.3856783"><ele>457.0</ele><time>2026-04-06T13:40:41.685Z</time></trkpt><trkpt lat="43.75104" lon="12.3857117"><ele>458.20000000000005</ele><time>2026-04-06T13:40:42.686Z</time></trkpt><trkpt lat="43.75111" lon="12.3857133"><ele>459.40000000000003</ele><time>2026-04-06T13:40:43.686Z</time></trkpt><trkpt lat="43.75119" lon="12.3856667"><ele>460.59999999999997</ele><time>2026-04-06T13:40:44.688Z</time></trkpt><trkpt lat="43.751255" lon="12.385565"><ele>461.79999999999995</ele><time>2026-04-06T13:40:45.686Z</time></trkpt><trkpt lat="43.7513117" lon="12.3854267"><ele>463.0</ele><time>2026-04-06T13:40:46.685Z</time></trkpt><trkpt lat="43.751345" lon="12.3852617"><ele>463.0</ele><time>2026-04-06T13:40:47.686Z</time></trkpt><trkpt lat="43.7513467" lon="12.3850933"><ele>463.0</ele><time>2026-04-06T13:40:48.684Z</time></trkpt><trkpt lat="43.75132" lon="12.3849183"><ele>463.0</ele><time>2026-04-06T13:40:49.685Z</time></trkpt><trkpt lat="43.7512717" lon="12.3847483"><ele>463.0</ele><time>2026-04-06T13:40:50.684Z</time></trkpt><trkpt lat="43.7512267" lon="12.3845933"><ele>463.79999999999995</ele><time>2026-04-06T13:40:51.683Z</time></trkpt><trkpt lat="43.7511867" lon="12.3844467"><ele>464.59999999999997</ele><time>2026-04-06T13:40:52.685Z</time></trkpt><trkpt lat="43.7511617" lon="12.3843033"><ele>465.40000000000003</ele><time>2026-04-06T13:40:53.684Z</time></trkpt><trkpt lat="43.7511533" lon="12.384155"><ele>466.20000000000005</ele><time>2026-04-06T13:40:54.687Z</time></trkpt><trkpt lat="43.751165" lon="12.383995"><ele>467.0</ele><time>2026-04-06T13:40:55.686Z</time></trkpt><trkpt lat="43.75119" lon="12.3838217"><ele>467.25</ele><time>2026-04-06T13:40:56.683Z</time></trkpt><trkpt lat="43.7512233" lon="12.3836383"><ele>467.5</ele><time>2026-04-06T13:40:57.683Z</time></trkpt><trkpt lat="43.7512617" lon="12.3834483"><ele>467.75</ele><time>2026-04-06T13:40:58.685Z</time></trkpt><trkpt lat="43.7512983" lon="12.3832567"><ele>468.0</ele><time>2026-04-06T13:40:59.683Z</time></trkpt><trkpt lat="43.7513317" lon="12.383065"><ele>468.25</ele><time>2026-04-06T13:41:00.684Z</time></trkpt><trkpt lat="43.751365" lon="12.3828683"><ele>468.5</ele><time>2026-04-06T13:41:01.688Z</time></trkpt><trkpt lat="43.7514" lon="12.382675"><ele>468.75</ele><time>2026-04-06T13:41:02.685Z</time></trkpt><trkpt lat="43.7514383" lon="12.3824967"><ele>469.0</ele><time>2026-04-06T13:41:03.684Z</time></trkpt><trkpt lat="43.7514833" lon="12.3823317"><ele>470.4</ele><time>2026-04-06T13:41:04.683Z</time></trkpt><trkpt lat="43.7515383" lon="12.38217"><ele>471.79999999999995</ele><time>2026-04-06T13:41:05.684Z</time></trkpt><trkpt lat="43.7515917" lon="12.38203"><ele>473.20000000000005</ele><time>2026-04-06T13:41:06.69Z</time></trkpt><trkpt lat="43.7516333" lon="12.3819083"><ele>474.6</ele><time>2026-04-06T13:41:07.685Z</time></trkpt><trkpt lat="43.7516567" lon="12.3817967"><ele>476.0</ele><time>2026-04-06T13:41:08.683Z</time></trkpt><trkpt lat="43.7516583" lon="12.3816917"><ele>476.0</ele><time>2026-04-06T13:41:09.686Z</time></trkpt><trkpt lat="43.7516467" lon="12.3815933"><ele>476.0</ele><time>2026-04-06T13:41:10.686Z</time></trkpt><trkpt lat="43.7516" lon="12.3814917"><ele>476.0</ele><time>2026-04-06T13:41:11.686Z</time></trkpt><trkpt lat="43.751515" lon="12.3813967"><ele>476.0</ele><time>2026-04-06T13:41:12.685Z</time></trkpt><trkpt lat="43.751405" lon="12.38131"><ele>476.0</ele><time>2026-04-06T13:41:13.686Z</time></trkpt><trkpt lat="43.7513" lon="12.3812733"><ele>478.20000000000005</ele><time>2026-04-06T13:41:14.685Z</time></trkpt><trkpt lat="43.75119" lon="12.3812733"><ele>480.40000000000003</ele><time>2026-04-06T13:41:15.686Z</time></trkpt><trkpt lat="43.7511" lon="12.3812917"><ele>482.6</ele><time>2026-04-06T13:41:16.684Z</time></trkpt><trkpt lat="43.7510117" lon="12.3812867"><ele>484.8</ele><time>2026-04-06T13:41:17.683Z</time></trkpt><trkpt lat="43.7509383" lon="12.381265"><ele>487.0</ele><time>2026-04-06T13:41:18.684Z</time></trkpt><trkpt lat="43.7508717" lon="12.3811683"><ele>487.0</ele><time>2026-04-06T13:41:20.684Z</time></trkpt><trkpt lat="43.7509167" lon="12.3810333"><ele>487.0</ele><time>2026-04-06T13:41:22.685Z</time></trkpt><trkpt lat="43.7509667" lon="12.38098"><ele>487.0</ele><time>2026-04-06T13:41:23.688Z</time></trkpt><trkpt lat="43.7510233" lon="12.380935"><ele>487.0</ele><time>2026-04-06T13:41:24.683Z</time></trkpt><trkpt lat="43.7510883" lon="12.3809017"><ele>487.0</ele><time>2026-04-06T13:41:25.686Z</time></trkpt><trkpt lat="43.7511567" lon="12.38089"><ele>487.0</ele><time>2026-04-06T13:41:26.685Z</time></trkpt><trkpt lat="43.751225" lon="12.3808817"><ele>487.0</ele><time>2026-04-06T13:41:27.685Z</time></trkpt><trkpt lat="43.7513283" lon="12.38084"><ele>487.0</ele><time>2026-04-06T13:41:29.683Z</time></trkpt><trkpt lat="43.75121" lon="12.3807333"><ele>487.0</ele><time>2026-04-06T13:41:32.685Z</time></trkpt><trkpt lat="43.7510983" lon="12.380685"><ele>487.0</ele><time>2026-04-06T13:41:33.685Z</time></trkpt><trkpt lat="43.7509917" lon="12.3806517"><ele>487.0</ele><time>2026-04-06T13:41:34.684Z</time></trkpt><trkpt lat="43.750845" lon="12.3806167"><ele>487.0</ele><time>2026-04-06T13:41:35.683Z</time></trkpt><trkpt lat="43.7506967" lon="12.3805817"><ele>487.0</ele><time>2026-04-06T13:41:36.686Z</time></trkpt><trkpt lat="43.750555" lon="12.38055"><ele>487.0</ele><time>2026-04-06T13:41:37.688Z</time></trkpt><trkpt lat="43.7504067" lon="12.3805217"><ele>487.0</ele><time>2026-04-06T13:41:38.686Z</time></trkpt><trkpt lat="43.75026" lon="12.3804967"><ele>491.75</ele><time>2026-04-06T13:41:39.684Z</time></trkpt><trkpt lat="43.7501233" lon="12.3804867"><ele>496.5</ele><time>2026-04-06T13:41:40.686Z</time></trkpt><trkpt lat="43.7500067" lon="12.380475"><ele>501.25</ele><time>2026-04-06T13:41:41.686Z</time></trkpt><trkpt lat="43.749905" lon="12.3804633"><ele>506.0</ele><time>2026-04-06T13:41:42.685Z</time></trkpt><trkpt lat="43.7498117" lon="12.38044"><ele>506.0</ele><time>2026-04-06T13:41:43.688Z</time></trkpt><trkpt lat="43.7497333" lon="12.38038"><ele>506.0</ele><time>2026-04-06T13:41:44.69Z</time></trkpt><trkpt lat="43.7496683" lon="12.380285"><ele>506.0</ele><time>2026-04-06T13:41:45.686Z</time></trkpt><trkpt lat="43.7496167" lon="12.380155"><ele>506.0</ele><time>2026-04-06T13:41:46.684Z</time></trkpt><trkpt lat="43.74958" lon="12.38"><ele>506.0</ele><time>2026-04-06T13:41:47.684Z</time></trkpt><trkpt lat="43.7495467" lon="12.37984"><ele>506.0</ele><time>2026-04-06T13:41:48.684Z</time></trkpt><trkpt lat="43.7494967" lon="12.3796917"><ele>506.0</ele><time>2026-04-06T13:41:49.685Z</time></trkpt><trkpt lat="43.7494317" lon="12.37956"><ele>506.0</ele><time>2026-04-06T13:41:50.685Z</time></trkpt><trkpt lat="43.7493367" lon="12.3794517"><ele>506.0</ele><time>2026-04-06T13:41:51.684Z</time></trkpt><trkpt lat="43.7492133" lon="12.3793583"><ele>507.0</ele><time>2026-04-06T13:41:52.684Z</time></trkpt><trkpt lat="43.74909" lon="12.379275"><ele>508.0</ele><time>2026-04-06T13:41:53.687Z</time></trkpt><trkpt lat="43.748965" lon="12.3791833"><ele>509.0</ele><time>2026-04-06T13:41:54.684Z</time></trkpt><trkpt lat="43.74885" lon="12.3790633"><ele>510.0</ele><time>2026-04-06T13:41:55.688Z</time></trkpt><trkpt lat="43.748735" lon="12.3789367"><ele>512.75</ele><time>2026-04-06T13:41:56.682Z</time></trkpt><trkpt lat="43.74862" lon="12.37881"><ele>515.5</ele><time>2026-04-06T13:41:57.685Z</time></trkpt><trkpt lat="43.7485033" lon="12.378705"><ele>518.25</ele><time>2026-04-06T13:41:58.684Z</time></trkpt><trkpt lat="43.7483783" lon="12.3786383"><ele>521.0</ele><time>2026-04-06T13:41:59.684Z</time></trkpt><trkpt lat="43.7482467" lon="12.3786117"><ele>521.0</ele><time>2026-04-06T13:42:00.686Z</time></trkpt><trkpt lat="43.7481067" lon="12.3786233"><ele>521.0</ele><time>2026-04-06T13:42:01.686Z</time></trkpt><trkpt lat="43.7479667" lon="12.3786567"><ele>521.0</ele><time>2026-04-06T13:42:02.682Z</time></trkpt><trkpt lat="43.7478267" lon="12.3787083"><ele>521.0</ele><time>2026-04-06T13:42:03.684Z</time></trkpt><trkpt lat="43.747685" lon="12.3787833"><ele>516.6666666666666</ele><time>2026-04-06T13:42:04.685Z</time></trkpt><trkpt lat="43.747545" lon="12.378875"><ele>512.3333333333334</ele><time>2026-04-06T13:42:05.684Z</time></trkpt><trkpt lat="43.747405" lon="12.3789683"><ele>508.0</ele><time>2026-04-06T13:42:06.684Z</time></trkpt><trkpt lat="43.7472717" lon="12.379055"><ele>508.0</ele><time>2026-04-06T13:42:07.686Z</time></trkpt><trkpt lat="43.7471467" lon="12.3791233"><ele>508.0</ele><time>2026-04-06T13:42:08.683Z</time></trkpt><trkpt lat="43.74703" lon="12.3791717"><ele>508.0</ele><time>2026-04-06T13:42:09.684Z</time></trkpt><trkpt lat="43.7469133" lon="12.3792183"><ele>508.0</ele><time>2026-04-06T13:42:10.685Z</time></trkpt><trkpt lat="43.7468017" lon="12.3792517"><ele>510.83333333333337</ele><time>2026-04-06T13:42:11.686Z</time></trkpt><trkpt lat="43.74669" lon="12.3792667"><ele>513.6666666666667</ele><time>2026-04-06T13:42:12.684Z</time></trkpt><trkpt lat="43.7465917" lon="12.3792817"><ele>516.5</ele><time>2026-04-06T13:42:13.686Z</time></trkpt><trkpt lat="43.74652" lon="12.379305"><ele>519.3333333333334</ele><time>2026-04-06T13:42:14.687Z</time></trkpt><trkpt lat="43.7464333" lon="12.3793083"><ele>522.1666666666666</ele><time>2026-04-06T13:42:16.685Z</time></trkpt><trkpt lat="43.7464183" lon="12.3792183"><ele>525.0</ele><time>2026-04-06T13:42:18.686Z</time></trkpt><trkpt lat="43.7464783" lon="12.3791217"><ele>525.0</ele><time>2026-04-06T13:42:20.685Z</time></trkpt><trkpt lat="43.7465417" lon="12.3790883"><ele>525.0</ele><time>2026-04-06T13:42:21.685Z</time></trkpt><trkpt lat="43.746625" lon="12.3790583"><ele>525.0</ele><time>2026-04-06T13:42:22.687Z</time></trkpt><trkpt lat="43.74674" lon="12.3790167"><ele>525.0</ele><time>2026-04-06T13:42:23.686Z</time></trkpt><trkpt lat="43.74685" lon="12.3789667"><ele>525.0</ele><time>2026-04-06T13:42:24.685Z</time></trkpt><trkpt lat="43.74694" lon="12.3789017"><ele>524.8333333333334</ele><time>2026-04-06T13:42:25.687Z</time></trkpt><trkpt lat="43.7470217" lon="12.3788417"><ele>524.6666666666666</ele><time>2026-04-06T13:42:26.686Z</time></trkpt><trkpt lat="43.747095" lon="12.37879"><ele>524.5</ele><time>2026-04-06T13:42:27.686Z</time></trkpt><trkpt lat="43.7471483" lon="12.37874"><ele>524.3333333333333</ele><time>2026-04-06T13:42:28.683Z</time></trkpt><trkpt lat="43.7472467" lon="12.3786517"><ele>524.1666666666666</ele><time>2026-04-06T13:42:30.685Z</time></trkpt><trkpt lat="43.7472983" lon="12.3785867"><ele>524.0</ele><time>2026-04-06T13:42:31.686Z</time></trkpt><trkpt lat="43.7473533" lon="12.378495"><ele>524.0</ele><time>2026-04-06T13:42:32.684Z</time></trkpt><trkpt lat="43.7474033" lon="12.3783733"><ele>524.0</ele><time>2026-04-06T13:42:33.684Z</time></trkpt><trkpt lat="43.747455" lon="12.3782233"><ele>524.0</ele><time>2026-04-06T13:42:34.686Z</time></trkpt><trkpt lat="43.747505" lon="12.3780517"><ele>524.0</ele><time>2026-04-06T13:42:35.684Z</time></trkpt><trkpt lat="43.7475533" lon="12.37787"><ele>525.0</ele><time>2026-04-06T13:42:36.687Z</time></trkpt><trkpt lat="43.747605" lon="12.3776767"><ele>526.0</ele><time>2026-04-06T13:42:37.688Z</time></trkpt><trkpt lat="43.7476567" lon="12.37748"><ele>527.0</ele><time>2026-04-06T13:42:38.684Z</time></trkpt><trkpt lat="43.747705" lon="12.3772917"><ele>528.0</ele><time>2026-04-06T13:42:39.686Z</time></trkpt><trkpt lat="43.7477433" lon="12.3771133"><ele>528.5</ele><time>2026-04-06T13:42:40.688Z</time></trkpt><trkpt lat="43.747775" lon="12.3769383"><ele>529.0</ele><time>2026-04-06T13:42:41.686Z</time></trkpt><trkpt lat="43.7478017" lon="12.3767583"><ele>529.5</ele><time>2026-04-06T13:42:42.684Z</time></trkpt><trkpt lat="43.7478283" lon="12.37657"><ele>530.0</ele><time>2026-04-06T13:42:43.688Z</time></trkpt><trkpt lat="43.747855" lon="12.3763817"><ele>527.25</ele><time>2026-04-06T13:42:44.685Z</time></trkpt><trkpt lat="43.747885" lon="12.3761917"><ele>524.5</ele><time>2026-04-06T13:42:45.689Z</time></trkpt><trkpt lat="43.7479217" lon="12.3760017"><ele>521.75</ele><time>2026-04-06T13:42:46.686Z</time></trkpt><trkpt lat="43.7479583" lon="12.3758167"><ele>519.0</ele><time>2026-04-06T13:42:47.686Z</time></trkpt><trkpt lat="43.7479867" lon="12.3756367"><ele>519.25</ele><time>2026-04-06T13:42:48.686Z</time></trkpt><trkpt lat="43.7480133" lon="12.3754533"><ele>519.5</ele><time>2026-04-06T13:42:49.687Z</time></trkpt><trkpt lat="43.7480367" lon="12.3752633"><ele>519.75</ele><time>2026-04-06T13:42:50.687Z</time></trkpt><trkpt lat="43.7480567" lon="12.3750833"><ele>520.0</ele><time>2026-04-06T13:42:51.686Z</time></trkpt><trkpt lat="43.7480717" lon="12.3749083"><ele>520.0</ele><time>2026-04-06T13:42:52.685Z</time></trkpt><trkpt lat="43.7480733" lon="12.37474"><ele>520.0</ele><time>2026-04-06T13:42:53.689Z</time></trkpt><trkpt lat="43.748055" lon="12.374575"><ele>520.0</ele><time>2026-04-06T13:42:54.686Z</time></trkpt><trkpt lat="43.74801" lon="12.3744067"><ele>520.0</ele><time>2026-04-06T13:42:55.689Z</time></trkpt><trkpt lat="43.7479367" lon="12.3742417"><ele>518.6666666666667</ele><time>2026-04-06T13:42:56.686Z</time></trkpt><trkpt lat="43.7478467" lon="12.374075"><ele>517.3333333333334</ele><time>2026-04-06T13:42:57.685Z</time></trkpt><trkpt lat="43.7477567" lon="12.3739067"><ele>516.0</ele><time>2026-04-06T13:42:58.684Z</time></trkpt><trkpt lat="43.74767" lon="12.3737317"><ele>520.0</ele><time>2026-04-06T13:42:59.683Z</time></trkpt><trkpt lat="43.747595" lon="12.3735483"><ele>524.0</ele><time>2026-04-06T13:43:00.684Z</time></trkpt><trkpt lat="43.747525" lon="12.373365"><ele>528.0</ele><time>2026-04-06T13:43:01.687Z</time></trkpt><trkpt lat="43.7474533" lon="12.3731883"><ele>532.0</ele><time>2026-04-06T13:43:02.684Z</time></trkpt><trkpt lat="43.7473833" lon="12.37303"><ele>534.6</ele><time>2026-04-06T13:43:03.684Z</time></trkpt><trkpt lat="43.7473217" lon="12.3728967"><ele>537.2</ele><time>2026-04-06T13:43:04.685Z</time></trkpt><trkpt lat="43.7472783" lon="12.3727733"><ele>539.8</ele><time>2026-04-06T13:43:05.685Z</time></trkpt><trkpt lat="43.7472583" lon="12.3726467"><ele>542.4</ele><time>2026-04-06T13:43:06.684Z</time></trkpt><trkpt lat="43.747265" lon="12.3725233"><ele>545.0</ele><time>2026-04-06T13:43:07.685Z</time></trkpt><trkpt lat="43.747285" lon="12.37241"><ele>545.0</ele><time>2026-04-06T13:43:08.685Z</time></trkpt><trkpt lat="43.74736" lon="12.3723333"><ele>545.0</ele><time>2026-04-06T13:43:09.687Z</time></trkpt><trkpt lat="43.7474533" lon="12.3722967"><ele>545.0</ele><time>2026-04-06T13:43:10.686Z</time></trkpt><trkpt lat="43.747555" lon="12.3722833"><ele>545.0</ele><time>2026-04-06T13:43:11.682Z</time></trkpt><trkpt lat="43.7476867" lon="12.37229"><ele>545.0</ele><time>2026-04-06T13:43:12.684Z</time></trkpt><trkpt lat="43.747815" lon="12.3722867"><ele>545.0</ele><time>2026-04-06T13:43:13.687Z</time></trkpt><trkpt lat="43.7479233" lon="12.3722533"><ele>545.0</ele><time>2026-04-06T13:43:14.683Z</time></trkpt><trkpt lat="43.7480133" lon="12.372205"><ele>545.0</ele><time>2026-04-06T13:43:15.682Z</time></trkpt><trkpt lat="43.74809" lon="12.3721383"><ele>545.0</ele><time>2026-04-06T13:43:16.687Z</time></trkpt><trkpt lat="43.7481367" lon="12.372055"><ele>545.0</ele><time>2026-04-06T13:43:17.682Z</time></trkpt><trkpt lat="43.7481467" lon="12.3719533"><ele>545.0</ele><time>2026-04-06T13:43:18.684Z</time></trkpt><trkpt lat="43.7481217" lon="12.3718433"><ele>545.0</ele><time>2026-04-06T13:43:19.686Z</time></trkpt><trkpt lat="43.7480533" lon="12.3717117"><ele>545.0</ele><time>2026-04-06T13:43:20.682Z</time></trkpt><trkpt lat="43.7479517" lon="12.371555"><ele>545.0</ele><time>2026-04-06T13:43:21.685Z</time></trkpt><trkpt lat="43.7478717" lon="12.3713783"><ele>545.0</ele><time>2026-04-06T13:43:22.684Z</time></trkpt><trkpt lat="43.7478017" lon="12.3712"><ele>547.0</ele><time>2026-04-06T13:43:23.685Z</time></trkpt><trkpt lat="43.7477233" lon="12.3710217"><ele>549.0</ele><time>2026-04-06T13:43:24.684Z</time></trkpt><trkpt lat="43.7476333" lon="12.3708467"><ele>551.0</ele><time>2026-04-06T13:43:25.686Z</time></trkpt><trkpt lat="43.7475383" lon="12.37067"><ele>560.3333333333333</ele><time>2026-04-06T13:43:26.684Z</time></trkpt><trkpt lat="43.7474417" lon="12.370495"><ele>569.6666666666666</ele><time>2026-04-06T13:43:27.682Z</time></trkpt><trkpt lat="43.7473517" lon="12.3703233"><ele>579.0</ele><time>2026-04-06T13:43:28.684Z</time></trkpt><trkpt lat="43.7472667" lon="12.3701567"><ele>579.0</ele><time>2026-04-06T13:43:29.682Z</time></trkpt><trkpt lat="43.7471833" lon="12.3699967"><ele>579.0</ele><time>2026-04-06T13:43:30.686Z</time></trkpt><trkpt lat="43.747105" lon="12.3698483"><ele>579.0</ele><time>2026-04-06T13:43:31.684Z</time></trkpt><trkpt lat="43.74704" lon="12.3697033"><ele>579.0</ele><time>2026-04-06T13:43:32.684Z</time></trkpt><trkpt lat="43.746995" lon="12.36955"><ele>579.5</ele><time>2026-04-06T13:43:33.682Z</time></trkpt><trkpt lat="43.74697" lon="12.369385"><ele>580.0</ele><time>2026-04-06T13:43:34.686Z</time></trkpt><trkpt lat="43.74696" lon="12.369205"><ele>580.5</ele><time>2026-04-06T13:43:35.682Z</time></trkpt><trkpt lat="43.7469633" lon="12.369015"><ele>581.0</ele><time>2026-04-06T13:43:36.683Z</time></trkpt><trkpt lat="43.74697" lon="12.368825"><ele>581.0</ele><time>2026-04-06T13:43:37.686Z</time></trkpt><trkpt lat="43.7469783" lon="12.3686617"><ele>581.0</ele><time>2026-04-06T13:43:38.685Z</time></trkpt><trkpt lat="43.7469867" lon="12.36852"><ele>581.0</ele><time>2026-04-06T13:43:39.688Z</time></trkpt><trkpt lat="43.746995" lon="12.3683967"><ele>581.0</ele><time>2026-04-06T13:43:40.685Z</time></trkpt><trkpt lat="43.7470033" lon="12.3682933"><ele>581.0</ele><time>2026-04-06T13:43:41.684Z</time></trkpt><trkpt lat="43.7470117" lon="12.3682033"><ele>581.0</ele><time>2026-04-06T13:43:42.685Z</time></trkpt><trkpt lat="43.7470283" lon="12.3680617"><ele>581.0</ele><time>2026-04-06T13:43:44.685Z</time></trkpt><trkpt lat="43.747015" lon="12.36796"><ele>581.0</ele><time>2026-04-06T13:43:49.685Z</time></trkpt><trkpt lat="43.747005" lon="12.3680917"><ele>581.0</ele><time>2026-04-06T13:43:53.685Z</time></trkpt><trkpt lat="43.7469917" lon="12.3682233"><ele>581.0</ele><time>2026-04-06T13:43:55.686Z</time></trkpt><trkpt lat="43.7469767" lon="12.36835"><ele>581.0</ele><time>2026-04-06T13:43:57.683Z</time></trkpt><trkpt lat="43.7469733" lon="12.3684533"><ele>581.0</ele><time>2026-04-06T13:43:59.683Z</time></trkpt><trkpt lat="43.7469833" lon="12.368555"><ele>581.0</ele><time>2026-04-06T13:44:03.684Z</time></trkpt><trkpt lat="43.7470317" lon="12.3686233"><ele>581.0</ele><time>2026-04-06T13:44:06.686Z</time></trkpt><trkpt lat="43.747075" lon="12.368725"><ele>581.0</ele><time>2026-04-06T13:44:09.683Z</time></trkpt><trkpt lat="43.7470333" lon="12.3686233"><ele>581.0</ele><time>2026-04-06T13:47:13.688Z</time></trkpt><trkpt lat="43.7470167" lon="12.3685333"><ele>581.0</ele><time>2026-04-06T13:47:15.686Z</time></trkpt><trkpt lat="43.7470117" lon="12.3683817"><ele>581.0</ele><time>2026-04-06T13:47:17.681Z</time></trkpt><trkpt lat="43.74701" lon="12.36821"><ele>581.0</ele><time>2026-04-06T13:47:19.685Z</time></trkpt><trkpt lat="43.74701" lon="12.368065"><ele>581.0</ele><time>2026-04-06T13:47:21.687Z</time></trkpt><trkpt lat="43.747015" lon="12.3679517"><ele>581.0</ele><time>2026-04-06T13:47:23.688Z</time></trkpt><trkpt lat="43.7470217" lon="12.3678283"><ele>583.0</ele><time>2026-04-06T13:47:25.688Z</time></trkpt><trkpt lat="43.747035" lon="12.3676933"><ele>585.0</ele><time>2026-04-06T13:47:27.685Z</time></trkpt><trkpt lat="43.7470417" lon="12.3676"><ele>587.0</ele><time>2026-04-06T13:47:28.685Z</time></trkpt><trkpt lat="43.7470533" lon="12.3674833"><ele>589.0</ele><time>2026-04-06T13:47:29.686Z</time></trkpt><trkpt lat="43.747065" lon="12.3673583"><ele>591.0</ele><time>2026-04-06T13:47:30.685Z</time></trkpt><trkpt lat="43.74708" lon="12.367225"><ele>593.0</ele><time>2026-04-06T13:47:31.688Z</time></trkpt><trkpt lat="43.7470967" lon="12.36708"><ele>593.6666666666666</ele><time>2026-04-06T13:47:32.685Z</time></trkpt><trkpt lat="43.7471133" lon="12.36694"><ele>594.3333333333333</ele><time>2026-04-06T13:47:33.686Z</time></trkpt><trkpt lat="43.7471283" lon="12.3668167"><ele>595.0</ele><time>2026-04-06T13:47:34.686Z</time></trkpt><trkpt lat="43.7471383" lon="12.366705"><ele>595.6666666666666</ele><time>2026-04-06T13:47:35.685Z</time></trkpt><trkpt lat="43.747145" lon="12.3666083"><ele>596.3333333333334</ele><time>2026-04-06T13:47:36.685Z</time></trkpt><trkpt lat="43.74714" lon="12.36652"><ele>597.0</ele><time>2026-04-06T13:47:37.687Z</time></trkpt><trkpt lat="43.7471233" lon="12.3664333"><ele>597.6</ele><time>2026-04-06T13:47:38.685Z</time></trkpt><trkpt lat="43.7470967" lon="12.36634"><ele>598.2</ele><time>2026-04-06T13:47:39.686Z</time></trkpt><trkpt lat="43.747055" lon="12.36624"><ele>598.8</ele><time>2026-04-06T13:47:40.685Z</time></trkpt><trkpt lat="43.7470017" lon="12.366135"><ele>599.4</ele><time>2026-04-06T13:47:41.686Z</time></trkpt><trkpt lat="43.7469433" lon="12.3660267"><ele>600.0</ele><time>2026-04-06T13:47:42.685Z</time></trkpt><trkpt lat="43.7468817" lon="12.3659117"><ele>600.6</ele><time>2026-04-06T13:47:43.688Z</time></trkpt><trkpt lat="43.74682" lon="12.3657933"><ele>601.2</ele><time>2026-04-06T13:47:44.685Z</time></trkpt><trkpt lat="43.7467633" lon="12.3656667"><ele>601.8</ele><time>2026-04-06T13:47:45.685Z</time></trkpt><trkpt lat="43.746715" lon="12.3655417"><ele>602.4</ele><time>2026-04-06T13:47:46.684Z</time></trkpt><trkpt lat="43.7466867" lon="12.365425"><ele>603.0</ele><time>2026-04-06T13:47:47.683Z</time></trkpt><trkpt lat="43.74668" lon="12.3653167"><ele>604.1666666666666</ele><time>2026-04-06T13:47:48.686Z</time></trkpt><trkpt lat="43.7466867" lon="12.3652233"><ele>605.3333333333334</ele><time>2026-04-06T13:47:49.687Z</time></trkpt><trkpt lat="43.7467433" lon="12.3650717"><ele>606.5</ele><time>2026-04-06T13:47:51.685Z</time></trkpt><trkpt lat="43.7467783" lon="12.3649967"><ele>607.6666666666667</ele><time>2026-04-06T13:47:52.684Z</time></trkpt><trkpt lat="43.7468117" lon="12.3649217"><ele>608.8333333333334</ele><time>2026-04-06T13:47:53.688Z</time></trkpt><trkpt lat="43.74686" lon="12.36477"><ele>610.0</ele><time>2026-04-06T13:47:55.685Z</time></trkpt><trkpt lat="43.7468817" lon="12.36463"><ele>610.0</ele><time>2026-04-06T13:47:57.685Z</time></trkpt><trkpt lat="43.7468883" lon="12.3644883"><ele>610.0</ele><time>2026-04-06T13:47:59.685Z</time></trkpt><trkpt lat="43.74688" lon="12.3643383"><ele>610.0</ele><time>2026-04-06T13:48:01.687Z</time></trkpt><trkpt lat="43.74686" lon="12.3641667"><ele>610.0</ele><time>2026-04-06T13:48:03.684Z</time></trkpt><trkpt lat="43.7468483" lon="12.364075"><ele>610.0</ele><time>2026-04-06T13:48:04.685Z</time></trkpt><trkpt lat="43.7468333" lon="12.363985"><ele>609.5714285714286</ele><time>2026-04-06T13:48:05.686Z</time></trkpt><trkpt lat="43.7468167" lon="12.363895"><ele>609.1428571428571</ele><time>2026-04-06T13:48:06.686Z</time></trkpt><trkpt lat="43.7467933" lon="12.36381"><ele>608.7142857142857</ele><time>2026-04-06T13:48:07.688Z</time></trkpt><trkpt lat="43.7467617" lon="12.3637283"><ele>608.2857142857142</ele><time>2026-04-06T13:48:08.685Z</time></trkpt><trkpt lat="43.7467283" lon="12.3636483"><ele>607.8571428571429</ele><time>2026-04-06T13:48:09.686Z</time></trkpt><trkpt lat="43.746695" lon="12.3635717"><ele>607.4285714285713</ele><time>2026-04-06T13:48:10.685Z</time></trkpt><trkpt lat="43.7466667" lon="12.3634933"><ele>607.0</ele><time>2026-04-06T13:48:11.685Z</time></trkpt><trkpt lat="43.74664" lon="12.363335"><ele>605.6</ele><time>2026-04-06T13:48:13.685Z</time></trkpt><trkpt lat="43.7466567" lon="12.3631833"><ele>604.2</ele><time>2026-04-06T13:48:15.686Z</time></trkpt><trkpt lat="43.7467117" lon="12.3630267"><ele>602.8</ele><time>2026-04-06T13:48:17.687Z</time></trkpt><trkpt lat="43.746745" lon="12.3629417"><ele>601.4</ele><time>2026-04-06T13:48:18.683Z</time></trkpt><trkpt lat="43.74678" lon="12.36285"><ele>600.0</ele><time>2026-04-06T13:48:19.688Z</time></trkpt><trkpt lat="43.746815" lon="12.362755"><ele>599.3333333333334</ele><time>2026-04-06T13:48:20.684Z</time></trkpt><trkpt lat="43.74685" lon="12.3626583"><ele>598.6666666666666</ele><time>2026-04-06T13:48:21.684Z</time></trkpt><trkpt lat="43.7468867" lon="12.3625617"><ele>598.0</ele><time>2026-04-06T13:48:22.686Z</time></trkpt><trkpt lat="43.7469333" lon="12.3624567"><ele>597.3333333333333</ele><time>2026-04-06T13:48:23.685Z</time></trkpt><trkpt lat="43.7469833" lon="12.3623467"><ele>596.6666666666666</ele><time>2026-04-06T13:48:24.686Z</time></trkpt><trkpt lat="43.7470317" lon="12.36224"><ele>596.0</ele><time>2026-04-06T13:48:25.684Z</time></trkpt><trkpt lat="43.74708" lon="12.3621383"><ele>594.6666666666666</ele><time>2026-04-06T13:48:26.685Z</time></trkpt><trkpt lat="43.7471183" lon="12.362045"><ele>593.3333333333333</ele><time>2026-04-06T13:48:27.685Z</time></trkpt><trkpt lat="43.7471467" lon="12.3619467"><ele>592.0</ele><time>2026-04-06T13:48:28.685Z</time></trkpt><trkpt lat="43.7471683" lon="12.3618383"><ele>590.6666666666666</ele><time>2026-04-06T13:48:29.683Z</time></trkpt><trkpt lat="43.7471733" lon="12.36173"><ele>589.3333333333334</ele><time>2026-04-06T13:48:30.684Z</time></trkpt><trkpt lat="43.74716" lon="12.36162"><ele>588.0</ele><time>2026-04-06T13:48:31.687Z</time></trkpt><trkpt lat="43.7471317" lon="12.3615117"><ele>588.0</ele><time>2026-04-06T13:48:32.685Z</time></trkpt><trkpt lat="43.7470783" lon="12.3613933"><ele>588.0</ele><time>2026-04-06T13:48:33.684Z</time></trkpt><trkpt lat="43.7470233" lon="12.361275"><ele>588.0</ele><time>2026-04-06T13:48:34.686Z</time></trkpt><trkpt lat="43.7469717" lon="12.3611517"><ele>588.0</ele><time>2026-04-06T13:48:35.684Z</time></trkpt><trkpt lat="43.7469283" lon="12.3610317"><ele>588.0</ele><time>2026-04-06T13:48:36.686Z</time></trkpt><trkpt lat="43.7468983" lon="12.36093"><ele>590.1666666666666</ele><time>2026-04-06T13:48:37.685Z</time></trkpt><trkpt lat="43.7468717" lon="12.3608383"><ele>592.3333333333334</ele><time>2026-04-06T13:48:38.684Z</time></trkpt><trkpt lat="43.7468517" lon="12.3607533"><ele>594.5</ele><time>2026-04-06T13:48:39.684Z</time></trkpt><trkpt lat="43.7468317" lon="12.3605867"><ele>596.6666666666667</ele><time>2026-04-06T13:48:41.682Z</time></trkpt><trkpt lat="43.7468233" lon="12.3604983"><ele>598.8333333333334</ele><time>2026-04-06T13:48:42.682Z</time></trkpt><trkpt lat="43.7468183" lon="12.3604033"><ele>601.0</ele><time>2026-04-06T13:48:43.688Z</time></trkpt><trkpt lat="43.7468183" lon="12.360305"><ele>601.1666666666667</ele><time>2026-04-06T13:48:44.684Z</time></trkpt><trkpt lat="43.74682" lon="12.36021"><ele>601.3333333333334</ele><time>2026-04-06T13:48:45.682Z</time></trkpt><trkpt lat="43.746855" lon="12.3600567"><ele>601.5</ele><time>2026-04-06T13:48:47.682Z</time></trkpt><trkpt lat="43.7469317" lon="12.35994"><ele>601.6666666666666</ele><time>2026-04-06T13:48:49.684Z</time></trkpt><trkpt lat="43.74698" lon="12.3598833"><ele>601.8333333333333</ele><time>2026-04-06T13:48:50.682Z</time></trkpt><trkpt lat="43.7470333" lon="12.3598233"><ele>602.0</ele><time>2026-04-06T13:48:51.683Z</time></trkpt><trkpt lat="43.747095" lon="12.3597633"><ele>603.0</ele><time>2026-04-06T13:48:52.683Z</time></trkpt><trkpt lat="43.7471633" lon="12.3597017"><ele>604.0</ele><time>2026-04-06T13:48:53.686Z</time></trkpt><trkpt lat="43.7472317" lon="12.3596283"><ele>605.0</ele><time>2026-04-06T13:48:54.685Z</time></trkpt><trkpt lat="43.747295" lon="12.3595433"><ele>606.0</ele><time>2026-04-06T13:48:55.686Z</time></trkpt><trkpt lat="43.7473517" lon="12.35945"><ele>607.0</ele><time>2026-04-06T13:48:56.685Z</time></trkpt><trkpt lat="43.7474033" lon="12.3593517"><ele>608.0</ele><time>2026-04-06T13:48:57.683Z</time></trkpt><trkpt lat="43.7474433" lon="12.3592567"><ele>608.8333333333333</ele><time>2026-04-06T13:48:58.685Z</time></trkpt><trkpt lat="43.747475" lon="12.3591567"><ele>609.6666666666666</ele><time>2026-04-06T13:48:59.684Z</time></trkpt><trkpt lat="43.7475033" lon="12.3590483"><ele>610.5</ele><time>2026-04-06T13:49:00.685Z</time></trkpt><trkpt lat="43.7475267" lon="12.35894"><ele>611.3333333333334</ele><time>2026-04-06T13:49:01.686Z</time></trkpt><trkpt lat="43.7475433" lon="12.3588317"><ele>612.1666666666667</ele><time>2026-04-06T13:49:02.686Z</time></trkpt><trkpt lat="43.747555" lon="12.3587217"><ele>613.0</ele><time>2026-04-06T13:49:03.685Z</time></trkpt><trkpt lat="43.747565" lon="12.35862"><ele>613.0</ele><time>2026-04-06T13:49:04.684Z</time></trkpt><trkpt lat="43.747575" lon="12.358515"><ele>613.0</ele><time>2026-04-06T13:49:05.684Z</time></trkpt><trkpt lat="43.747585" lon="12.3584017"><ele>613.0</ele><time>2026-04-06T13:49:06.683Z</time></trkpt><trkpt lat="43.7475917" lon="12.358285"><ele>613.0</ele><time>2026-04-06T13:49:07.688Z</time></trkpt><trkpt lat="43.7475983" lon="12.358165"><ele>613.0</ele><time>2026-04-06T13:49:08.684Z</time></trkpt><trkpt lat="43.7476" lon="12.3580467"><ele>613.0</ele><time>2026-04-06T13:49:09.684Z</time></trkpt><trkpt lat="43.7476017" lon="12.3579333"><ele>611.8333333333334</ele><time>2026-04-06T13:49:10.683Z</time></trkpt><trkpt lat="43.7476" lon="12.3578283"><ele>610.6666666666667</ele><time>2026-04-06T13:49:11.687Z</time></trkpt><trkpt lat="43.7475967" lon="12.35773"><ele>609.5</ele><time>2026-04-06T13:49:12.685Z</time></trkpt><trkpt lat="43.7476017" lon="12.3576317"><ele>608.3333333333334</ele><time>2026-04-06T13:49:13.685Z</time></trkpt><trkpt lat="43.7476167" lon="12.3575283"><ele>607.1666666666666</ele><time>2026-04-06T13:49:14.684Z</time></trkpt><trkpt lat="43.7476417" lon="12.3574217"><ele>606.0</ele><time>2026-04-06T13:49:15.683Z</time></trkpt><trkpt lat="43.7476767" lon="12.3573083"><ele>606.0</ele><time>2026-04-06T13:49:16.684Z</time></trkpt><trkpt lat="43.7477217" lon="12.35719"><ele>606.0</ele><time>2026-04-06T13:49:17.683Z</time></trkpt><trkpt lat="43.7477733" lon="12.3570767"><ele>606.0</ele><time>2026-04-06T13:49:18.684Z</time></trkpt><trkpt lat="43.7478283" lon="12.3569667"><ele>606.0</ele><time>2026-04-06T13:49:19.683Z</time></trkpt><trkpt lat="43.7478817" lon="12.3568633"><ele>606.0</ele><time>2026-04-06T13:49:20.682Z</time></trkpt><trkpt lat="43.7479333" lon="12.3567633"><ele>606.0</ele><time>2026-04-06T13:49:21.683Z</time></trkpt><trkpt lat="43.747985" lon="12.3566667"><ele>606.0</ele><time>2026-04-06T13:49:22.684Z</time></trkpt><trkpt lat="43.748045" lon="12.35657"><ele>606.0</ele><time>2026-04-06T13:49:23.686Z</time></trkpt><trkpt lat="43.7481117" lon="12.3564783"><ele>606.0</ele><time>2026-04-06T13:49:24.684Z</time></trkpt><trkpt lat="43.7481783" lon="12.356395"><ele>606.0</ele><time>2026-04-06T13:49:25.687Z</time></trkpt><trkpt lat="43.7482417" lon="12.3563117"><ele>606.3333333333334</ele><time>2026-04-06T13:49:26.686Z</time></trkpt><trkpt lat="43.748305" lon="12.35623"><ele>606.6666666666666</ele><time>2026-04-06T13:49:27.683Z</time></trkpt><trkpt lat="43.7483633" lon="12.3561517"><ele>607.0</ele><time>2026-04-06T13:49:28.684Z</time></trkpt><trkpt lat="43.74842" lon="12.3560633"><ele>607.3333333333333</ele><time>2026-04-06T13:49:29.683Z</time></trkpt><trkpt lat="43.7484717" lon="12.355975"><ele>607.6666666666666</ele><time>2026-04-06T13:49:30.684Z</time></trkpt><trkpt lat="43.7485117" lon="12.3558867"><ele>608.0</ele><time>2026-04-06T13:49:31.686Z</time></trkpt><trkpt lat="43.7485467" lon="12.3557983"><ele>608.0</ele><time>2026-04-06T13:49:32.683Z</time></trkpt><trkpt lat="43.7485783" lon="12.355715"><ele>608.0</ele><time>2026-04-06T13:49:33.687Z</time></trkpt><trkpt lat="43.74861" lon="12.355635"><ele>608.0</ele><time>2026-04-06T13:49:34.685Z</time></trkpt><trkpt lat="43.7486517" lon="12.3555117"><ele>608.0</ele><time>2026-04-06T13:49:36.684Z</time></trkpt><trkpt lat="43.748645" lon="12.3553683"><ele>608.0</ele><time>2026-04-06T13:49:54.685Z</time></trkpt><trkpt lat="43.74868" lon="12.35519"><ele>612.1666666666666</ele><time>2026-04-06T13:49:56.685Z</time></trkpt><trkpt lat="43.7487067" lon="12.355095"><ele>616.3333333333333</ele><time>2026-04-06T13:49:57.684Z</time></trkpt><trkpt lat="43.7487433" lon="12.355"><ele>620.5</ele><time>2026-04-06T13:49:58.687Z</time></trkpt><trkpt lat="43.748785" lon="12.3549017"><ele>624.6666666666666</ele><time>2026-04-06T13:49:59.682Z</time></trkpt><trkpt lat="43.74882" lon="12.3548083"><ele>628.8333333333334</ele><time>2026-04-06T13:50:00.686Z</time></trkpt><trkpt lat="43.748845" lon="12.354715"><ele>633.0</ele><time>2026-04-06T13:50:01.686Z</time></trkpt><trkpt lat="43.7488633" lon="12.35462"><ele>635.8</ele><time>2026-04-06T13:50:02.686Z</time></trkpt><trkpt lat="43.7488817" lon="12.3545"><ele>638.5999999999999</ele><time>2026-04-06T13:50:03.686Z</time></trkpt><trkpt lat="43.748905" lon="12.354375"><ele>641.4000000000001</ele><time>2026-04-06T13:50:04.686Z</time></trkpt><trkpt lat="43.7489233" lon="12.354255"><ele>644.2</ele><time>2026-04-06T13:50:05.685Z</time></trkpt><trkpt lat="43.7489433" lon="12.3541333"><ele>647.0</ele><time>2026-04-06T13:50:06.685Z</time></trkpt><trkpt lat="43.7489633" lon="12.35401"><ele>647.0</ele><time>2026-04-06T13:50:07.686Z</time></trkpt><trkpt lat="43.7489833" lon="12.3538933"><ele>647.0</ele><time>2026-04-06T13:50:08.686Z</time></trkpt><trkpt lat="43.7490083" lon="12.3537767"><ele>647.0</ele><time>2026-04-06T13:50:09.688Z</time></trkpt><trkpt lat="43.7490417" lon="12.353675"><ele>647.0</ele><time>2026-04-06T13:50:10.685Z</time></trkpt><trkpt lat="43.7490783" lon="12.3535817"><ele>647.0</ele><time>2026-04-06T13:50:11.689Z</time></trkpt><trkpt lat="43.7491267" lon="12.353505"><ele>647.0</ele><time>2026-04-06T13:50:12.686Z</time></trkpt><trkpt lat="43.749185" lon="12.3534417"><ele>646.0</ele><time>2026-04-06T13:50:13.685Z</time></trkpt><trkpt lat="43.749245" lon="12.3534"><ele>645.0</ele><time>2026-04-06T13:50:14.683Z</time></trkpt><trkpt lat="43.7493067" lon="12.3533667"><ele>644.0</ele><time>2026-04-06T13:50:15.684Z</time></trkpt><trkpt lat="43.7494117" lon="12.3533"><ele>643.0</ele><time>2026-04-06T13:50:17.683Z</time></trkpt><trkpt lat="43.7495083" lon="12.35324"><ele>642.0</ele><time>2026-04-06T13:50:19.684Z</time></trkpt><trkpt lat="43.7496117" lon="12.3531767"><ele>642.4000000000001</ele><time>2026-04-06T13:50:21.683Z</time></trkpt><trkpt lat="43.7496883" lon="12.35308"><ele>642.8000000000001</ele><time>2026-04-06T13:50:23.684Z</time></trkpt><trkpt lat="43.7497467" lon="12.3529583"><ele>643.2</ele><time>2026-04-06T13:50:25.687Z</time></trkpt><trkpt lat="43.7498" lon="12.3528067"><ele>643.6</ele><time>2026-04-06T13:50:27.683Z</time></trkpt><trkpt lat="43.74983" lon="12.3527267"><ele>644.0</ele><time>2026-04-06T13:50:28.686Z</time></trkpt><trkpt lat="43.749845" lon="12.3526333"><ele>644.0</ele><time>2026-04-06T13:50:29.684Z</time></trkpt><trkpt lat="43.7498683" lon="12.3525467"><ele>644.0</ele><time>2026-04-06T13:50:30.686Z</time></trkpt><trkpt lat="43.7499067" lon="12.3523817"><ele>644.0</ele><time>2026-04-06T13:50:32.684Z</time></trkpt><trkpt lat="43.7499117" lon="12.3522917"><ele>644.0</ele><time>2026-04-06T13:50:33.682Z</time></trkpt><trkpt lat="43.7498833" lon="12.3521333"><ele>644.0</ele><time>2026-04-06T13:50:35.683Z</time></trkpt><trkpt lat="43.7498483" lon="12.3520583"><ele>644.0</ele><time>2026-04-06T13:50:36.684Z</time></trkpt><trkpt lat="43.7498083" lon="12.351985"><ele>644.1428571428571</ele><time>2026-04-06T13:50:37.684Z</time></trkpt><trkpt lat="43.7497717" lon="12.35191"><ele>644.2857142857142</ele><time>2026-04-06T13:50:38.682Z</time></trkpt><trkpt lat="43.74974" lon="12.35183"><ele>644.4285714285714</ele><time>2026-04-06T13:50:39.683Z</time></trkpt><trkpt lat="43.7497067" lon="12.3517433"><ele>644.5714285714286</ele><time>2026-04-06T13:50:40.684Z</time></trkpt><trkpt lat="43.74967" lon="12.3516517"><ele>644.7142857142857</ele><time>2026-04-06T13:50:41.683Z</time></trkpt><trkpt lat="43.7496317" lon="12.351555"><ele>644.8571428571429</ele><time>2026-04-06T13:50:42.685Z</time></trkpt><trkpt lat="43.7495883" lon="12.3514583"><ele>645.0</ele><time>2026-04-06T13:50:43.685Z</time></trkpt><trkpt lat="43.749545" lon="12.3513633"><ele>646.0</ele><time>2026-04-06T13:50:44.684Z</time></trkpt><trkpt lat="43.74951" lon="12.3512683"><ele>647.0</ele><time>2026-04-06T13:50:45.684Z</time></trkpt><trkpt lat="43.7494733" lon="12.3511767"><ele>648.0</ele><time>2026-04-06T13:50:46.684Z</time></trkpt><trkpt lat="43.7494333" lon="12.3510883"><ele>649.0</ele><time>2026-04-06T13:50:47.686Z</time></trkpt><trkpt lat="43.7493917" lon="12.351005"><ele>650.0</ele><time>2026-04-06T13:50:48.684Z</time></trkpt><trkpt lat="43.7493467" lon="12.350925"><ele>651.0</ele><time>2026-04-06T13:50:49.686Z</time></trkpt><trkpt lat="43.7493017" lon="12.3508483"><ele>652.0</ele><time>2026-04-06T13:50:50.685Z</time></trkpt><trkpt lat="43.7492633" lon="12.3507733"><ele>654.0</ele><time>2026-04-06T13:50:51.681Z</time></trkpt><trkpt lat="43.7492017" lon="12.3506433"><ele>656.0</ele><time>2026-04-06T13:50:53.685Z</time></trkpt><trkpt lat="43.74912" lon="12.350555"><ele>658.0</ele><time>2026-04-06T13:50:55.686Z</time></trkpt><trkpt lat="43.7490233" lon="12.35047"><ele>660.0</ele><time>2026-04-06T13:50:57.682Z</time></trkpt><trkpt lat="43.7489683" lon="12.350425"><ele>662.0</ele><time>2026-04-06T13:50:58.683Z</time></trkpt><trkpt lat="43.7489067" lon="12.350385"><ele>662.3333333333333</ele><time>2026-04-06T13:50:59.684Z</time></trkpt><trkpt lat="43.748845" lon="12.3503483"><ele>662.6666666666666</ele><time>2026-04-06T13:51:00.683Z</time></trkpt><trkpt lat="43.7487417" lon="12.3502967"><ele>663.0</ele><time>2026-04-06T13:51:02.683Z</time></trkpt><trkpt lat="43.7486583" lon="12.3502367"><ele>663.3333333333334</ele><time>2026-04-06T13:51:04.683Z</time></trkpt><trkpt lat="43.7485833" lon="12.3501233"><ele>663.6666666666667</ele><time>2026-04-06T13:51:06.683Z</time></trkpt><trkpt lat="43.7485483" lon="12.3500467"><ele>664.0</ele><time>2026-04-06T13:51:07.687Z</time></trkpt><trkpt lat="43.7485067" lon="12.34996"><ele>664.0</ele><time>2026-04-06T13:51:08.681Z</time></trkpt><trkpt lat="43.7484617" lon="12.349875"><ele>664.0</ele><time>2026-04-06T13:51:09.682Z</time></trkpt><trkpt lat="43.7484167" lon="12.349785"><ele>664.0</ele><time>2026-04-06T13:51:10.684Z</time></trkpt><trkpt lat="43.748375" lon="12.3496967"><ele>664.0</ele><time>2026-04-06T13:51:11.684Z</time></trkpt><trkpt lat="43.748335" lon="12.3496083"><ele>664.0</ele><time>2026-04-06T13:51:12.685Z</time></trkpt><trkpt lat="43.7483067" lon="12.3495233"><ele>664.0</ele><time>2026-04-06T13:51:13.686Z</time></trkpt><trkpt lat="43.7482817" lon="12.3494383"><ele>664.0</ele><time>2026-04-06T13:51:14.682Z</time></trkpt><trkpt lat="43.7482467" lon="12.3492867"><ele>665.8000000000001</ele><time>2026-04-06T13:51:16.684Z</time></trkpt><trkpt lat="43.7482233" lon="12.3491567"><ele>667.6</ele><time>2026-04-06T13:51:18.683Z</time></trkpt><trkpt lat="43.7481983" lon="12.3490267"><ele>669.4</ele><time>2026-04-06T13:51:20.682Z</time></trkpt><trkpt lat="43.7481767" lon="12.34888"><ele>671.2</ele><time>2026-04-06T13:51:22.685Z</time></trkpt><trkpt lat="43.74816" lon="12.3487167"><ele>673.0</ele><time>2026-04-06T13:51:24.684Z</time></trkpt><trkpt lat="43.748145" lon="12.348545"><ele>673.8571428571429</ele><time>2026-04-06T13:51:26.682Z</time></trkpt><trkpt lat="43.7481117" lon="12.3483833"><ele>674.7142857142857</ele><time>2026-04-06T13:51:28.686Z</time></trkpt><trkpt lat="43.74809" lon="12.3482983"><ele>675.5714285714286</ele><time>2026-04-06T13:51:29.681Z</time></trkpt><trkpt lat="43.7480667" lon="12.3482167"><ele>676.4285714285714</ele><time>2026-04-06T13:51:30.685Z</time></trkpt><trkpt lat="43.7480383" lon="12.348135"><ele>677.2857142857142</ele><time>2026-04-06T13:51:31.686Z</time></trkpt><trkpt lat="43.74801" lon="12.34805"><ele>678.1428571428571</ele><time>2026-04-06T13:51:32.688Z</time></trkpt><trkpt lat="43.7479883" lon="12.347965"><ele>679.0</ele><time>2026-04-06T13:51:33.685Z</time></trkpt><trkpt lat="43.7479667" lon="12.3478783"><ele>680.3333333333334</ele><time>2026-04-06T13:51:34.686Z</time></trkpt><trkpt lat="43.74795" lon="12.3477883"><ele>681.6666666666667</ele><time>2026-04-06T13:51:35.687Z</time></trkpt><trkpt lat="43.747935" lon="12.3476983"><ele>683.0</ele><time>2026-04-06T13:51:36.685Z</time></trkpt><trkpt lat="43.7479217" lon="12.34761"><ele>684.3333333333334</ele><time>2026-04-06T13:51:37.688Z</time></trkpt><trkpt lat="43.747905" lon="12.3475233"><ele>685.6666666666666</ele><time>2026-04-06T13:51:38.686Z</time></trkpt><trkpt lat="43.7478683" lon="12.3473583"><ele>687.0</ele><time>2026-04-06T13:51:40.685Z</time></trkpt><trkpt lat="43.7478517" lon="12.3472733"><ele>688.0</ele><time>2026-04-06T13:51:41.683Z</time></trkpt><trkpt lat="43.7478333" lon="12.3471817"><ele>689.0</ele><time>2026-04-06T13:51:42.686Z</time></trkpt><trkpt lat="43.7478167" lon="12.3470817"><ele>690.0</ele><time>2026-04-06T13:51:43.687Z</time></trkpt><trkpt lat="43.7478067" lon="12.3469783"><ele>691.0</ele><time>2026-04-06T13:51:44.682Z</time></trkpt><trkpt lat="43.7478017" lon="12.3468733"><ele>692.0</ele><time>2026-04-06T13:51:45.686Z</time></trkpt><trkpt lat="43.747805" lon="12.34677"><ele>693.0</ele><time>2026-04-06T13:51:46.684Z</time></trkpt><trkpt lat="43.7478067" lon="12.346665"><ele>694.0</ele><time>2026-04-06T13:51:47.683Z</time></trkpt><trkpt lat="43.747805" lon="12.3465483"><ele>694.0</ele><time>2026-04-06T13:51:48.685Z</time></trkpt><trkpt lat="43.7478" lon="12.3464233"><ele>694.0</ele><time>2026-04-06T13:51:49.687Z</time></trkpt><trkpt lat="43.7477867" lon="12.3462983"><ele>694.0</ele><time>2026-04-06T13:51:50.682Z</time></trkpt><trkpt lat="43.74777" lon="12.3461783"><ele>694.0</ele><time>2026-04-06T13:51:51.683Z</time></trkpt><trkpt lat="43.74775" lon="12.34607"><ele>694.0</ele><time>2026-04-06T13:51:52.685Z</time></trkpt><trkpt lat="43.7477317" lon="12.345975"><ele>694.0</ele><time>2026-04-06T13:51:53.684Z</time></trkpt><trkpt lat="43.7476983" lon="12.345815"><ele>692.1666666666667</ele><time>2026-04-06T13:51:55.686Z</time></trkpt><trkpt lat="43.7476717" lon="12.3456767"><ele>690.3333333333334</ele><time>2026-04-06T13:51:57.685Z</time></trkpt><trkpt lat="43.7476567" lon="12.34557"><ele>688.5</ele><time>2026-04-06T13:51:59.686Z</time></trkpt><trkpt lat="43.7476417" lon="12.34546"><ele>686.6666666666666</ele><time>2026-04-06T13:52:01.684Z</time></trkpt><trkpt lat="43.74764" lon="12.3453317"><ele>684.8333333333333</ele><time>2026-04-06T13:52:03.684Z</time></trkpt><trkpt lat="43.7476467" lon="12.3452117"><ele>683.0</ele><time>2026-04-06T13:52:05.684Z</time></trkpt><trkpt lat="43.747655" lon="12.3451017"><ele>683.0</ele><time>2026-04-06T13:52:08.681Z</time></trkpt><trkpt lat="43.7476433" lon="12.34501"><ele>683.0</ele><time>2026-04-06T13:52:32.685Z</time></trkpt><trkpt lat="43.7476283" lon="12.3448467"><ele>683.0</ele><time>2026-04-06T13:52:34.685Z</time></trkpt><trkpt lat="43.7476267" lon="12.3447383"><ele>683.0</ele><time>2026-04-06T13:52:35.686Z</time></trkpt><trkpt lat="43.7476283" lon="12.3446233"><ele>683.0</ele><time>2026-04-06T13:52:36.685Z</time></trkpt><trkpt lat="43.7476267" lon="12.3445083"><ele>683.0</ele><time>2026-04-06T13:52:37.686Z</time></trkpt><trkpt lat="43.7476217" lon="12.3444033"><ele>683.5</ele><time>2026-04-06T13:52:38.684Z</time></trkpt><trkpt lat="43.7476167" lon="12.3443"><ele>684.0</ele><time>2026-04-06T13:52:39.686Z</time></trkpt><trkpt lat="43.7476" lon="12.3441983"><ele>684.5</ele><time>2026-04-06T13:52:40.686Z</time></trkpt><trkpt lat="43.7475733" lon="12.3441017"><ele>685.0</ele><time>2026-04-06T13:52:41.684Z</time></trkpt><trkpt lat="43.74753" lon="12.3440183"><ele>685.5</ele><time>2026-04-06T13:52:42.684Z</time></trkpt><trkpt lat="43.74747" lon="12.3439467"><ele>686.0</ele><time>2026-04-06T13:52:43.687Z</time></trkpt><trkpt lat="43.747405" lon="12.3438867"><ele>686.7142857142857</ele><time>2026-04-06T13:52:44.683Z</time></trkpt><trkpt lat="43.7473467" lon="12.343835"><ele>687.4285714285714</ele><time>2026-04-06T13:52:45.683Z</time></trkpt><trkpt lat="43.7472933" lon="12.3437767"><ele>688.1428571428571</ele><time>2026-04-06T13:52:46.685Z</time></trkpt><trkpt lat="43.74724" lon="12.3437117"><ele>688.8571428571429</ele><time>2026-04-06T13:52:47.683Z</time></trkpt><trkpt lat="43.74719" lon="12.34364"><ele>689.5714285714286</ele><time>2026-04-06T13:52:48.684Z</time></trkpt><trkpt lat="43.7471417" lon="12.34356"><ele>690.2857142857142</ele><time>2026-04-06T13:52:49.686Z</time></trkpt><trkpt lat="43.7470967" lon="12.34348"><ele>691.0</ele><time>2026-04-06T13:52:50.683Z</time></trkpt><trkpt lat="43.7470517" lon="12.3433983"><ele>691.0</ele><time>2026-04-06T13:52:51.684Z</time></trkpt><trkpt lat="43.747" lon="12.3433133"><ele>691.0</ele><time>2026-04-06T13:52:52.684Z</time></trkpt><trkpt lat="43.7469333" lon="12.343225"><ele>691.0</ele><time>2026-04-06T13:52:53.684Z</time></trkpt><trkpt lat="43.7468583" lon="12.3431317"><ele>691.0</ele><time>2026-04-06T13:52:54.685Z</time></trkpt><trkpt lat="43.7467767" lon="12.3430383"><ele>691.0</ele><time>2026-04-06T13:52:55.684Z</time></trkpt><trkpt lat="43.7466983" lon="12.3429483"><ele>690.0</ele><time>2026-04-06T13:52:56.684Z</time></trkpt><trkpt lat="43.746625" lon="12.3428617"><ele>689.0</ele><time>2026-04-06T13:52:57.683Z</time></trkpt><trkpt lat="43.7465517" lon="12.3427717"><ele>688.0</ele><time>2026-04-06T13:52:58.687Z</time></trkpt><trkpt lat="43.74648" lon="12.342675"><ele>687.0</ele><time>2026-04-06T13:52:59.686Z</time></trkpt><trkpt lat="43.746405" lon="12.3425783"><ele>686.0</ele><time>2026-04-06T13:53:00.684Z</time></trkpt><trkpt lat="43.7463333" lon="12.34248"><ele>686.0</ele><time>2026-04-06T13:53:01.688Z</time></trkpt><trkpt lat="43.7462633" lon="12.34238"><ele>686.0</ele><time>2026-04-06T13:53:02.684Z</time></trkpt><trkpt lat="43.74619" lon="12.3422833"><ele>686.0</ele><time>2026-04-06T13:53:03.684Z</time></trkpt><trkpt lat="43.7461183" lon="12.3421867"><ele>686.0</ele><time>2026-04-06T13:53:04.683Z</time></trkpt><trkpt lat="43.7460467" lon="12.34209"><ele>686.0</ele><time>2026-04-06T13:53:05.686Z</time></trkpt><trkpt lat="43.7459767" lon="12.341995"><ele>685.8333333333333</ele><time>2026-04-06T13:53:06.685Z</time></trkpt><trkpt lat="43.7459067" lon="12.3419067"><ele>685.6666666666666</ele><time>2026-04-06T13:53:07.686Z</time></trkpt><trkpt lat="43.7458417" lon="12.3418283"><ele>685.5</ele><time>2026-04-06T13:53:08.684Z</time></trkpt><trkpt lat="43.7457783" lon="12.341765"><ele>685.3333333333334</ele><time>2026-04-06T13:53:09.685Z</time></trkpt><trkpt lat="43.7457117" lon="12.341715"><ele>685.1666666666667</ele><time>2026-04-06T13:53:10.685Z</time></trkpt><trkpt lat="43.7456383" lon="12.3416817"><ele>685.0</ele><time>2026-04-06T13:53:11.686Z</time></trkpt><trkpt lat="43.7455583" lon="12.3416733"><ele>685.0</ele><time>2026-04-06T13:53:12.686Z</time></trkpt><trkpt lat="43.7454767" lon="12.3416817"><ele>685.0</ele><time>2026-04-06T13:53:13.686Z</time></trkpt><trkpt lat="43.7453917" lon="12.3417017"><ele>685.0</ele><time>2026-04-06T13:53:14.684Z</time></trkpt><trkpt lat="43.745305" lon="12.3417283"><ele>685.0</ele><time>2026-04-06T13:53:15.683Z</time></trkpt><trkpt lat="43.74522" lon="12.34176"><ele>685.0</ele><time>2026-04-06T13:53:16.684Z</time></trkpt><trkpt lat="43.7451333" lon="12.3417883"><ele>685.0</ele><time>2026-04-06T13:53:17.687Z</time></trkpt><trkpt lat="43.74505" lon="12.341815"><ele>685.8333333333334</ele><time>2026-04-06T13:53:18.687Z</time></trkpt><trkpt lat="43.744975" lon="12.3418333"><ele>686.6666666666667</ele><time>2026-04-06T13:53:19.686Z</time></trkpt><trkpt lat="43.744905" lon="12.3418417"><ele>687.5</ele><time>2026-04-06T13:53:20.685Z</time></trkpt><trkpt lat="43.74484" lon="12.3418367"><ele>688.3333333333334</ele><time>2026-04-06T13:53:21.684Z</time></trkpt><trkpt lat="43.7447317" lon="12.341775"><ele>689.1666666666666</ele><time>2026-04-06T13:53:23.688Z</time></trkpt><trkpt lat="43.744665" lon="12.3416367"><ele>690.0</ele><time>2026-04-06T13:53:25.688Z</time></trkpt><trkpt lat="43.74464" lon="12.341545"><ele>690.0</ele><time>2026-04-06T13:53:26.686Z</time></trkpt><trkpt lat="43.7446183" lon="12.3414467"><ele>690.0</ele><time>2026-04-06T13:53:27.685Z</time></trkpt><trkpt lat="43.7446" lon="12.3413467"><ele>690.0</ele><time>2026-04-06T13:53:28.686Z</time></trkpt><trkpt lat="43.74459" lon="12.34124"><ele>690.0</ele><time>2026-04-06T13:53:29.686Z</time></trkpt><trkpt lat="43.744585" lon="12.3411333"><ele>690.0</ele><time>2026-04-06T13:53:30.685Z</time></trkpt><trkpt lat="43.7445933" lon="12.3410283"><ele>690.0</ele><time>2026-04-06T13:53:31.687Z</time></trkpt><trkpt lat="43.7446133" lon="12.3409233"><ele>690.5714285714286</ele><time>2026-04-06T13:53:32.687Z</time></trkpt><trkpt lat="43.7446433" lon="12.340825"><ele>691.1428571428571</ele><time>2026-04-06T13:53:33.687Z</time></trkpt><trkpt lat="43.7446783" lon="12.34073"><ele>691.7142857142858</ele><time>2026-04-06T13:53:34.686Z</time></trkpt><trkpt lat="43.7447067" lon="12.3406383"><ele>692.2857142857142</ele><time>2026-04-06T13:53:35.687Z</time></trkpt><trkpt lat="43.7447267" lon="12.3405417"><ele>692.8571428571428</ele><time>2026-04-06T13:53:36.685Z</time></trkpt><trkpt lat="43.7447383" lon="12.3404533"><ele>693.4285714285714</ele><time>2026-04-06T13:53:37.69Z</time></trkpt><trkpt lat="43.744745" lon="12.3403633"><ele>694.0</ele><time>2026-04-06T13:53:38.686Z</time></trkpt><trkpt lat="43.7447483" lon="12.340275"><ele>694.6</ele><time>2026-04-06T13:53:39.686Z</time></trkpt><trkpt lat="43.744755" lon="12.3401883"><ele>695.2</ele><time>2026-04-06T13:53:40.685Z</time></trkpt><trkpt lat="43.74477" lon="12.34003"><ele>695.8000000000001</ele><time>2026-04-06T13:53:42.686Z</time></trkpt><trkpt lat="43.7448083" lon="12.3399067"><ele>696.4000000000001</ele><time>2026-04-06T13:53:44.683Z</time></trkpt><trkpt lat="43.7448367" lon="12.33977"><ele>697.0</ele><time>2026-04-06T13:53:46.686Z</time></trkpt><trkpt lat="43.744855" lon="12.3396433"><ele>698.0</ele><time>2026-04-06T13:53:48.683Z</time></trkpt><trkpt lat="43.7448783" lon="12.3395083"><ele>699.0</ele><time>2026-04-06T13:53:50.683Z</time></trkpt><trkpt lat="43.7449083" lon="12.3393633"><ele>700.0</ele><time>2026-04-06T13:53:52.685Z</time></trkpt><trkpt lat="43.744935" lon="12.3392483"><ele>701.0</ele><time>2026-04-06T13:53:54.686Z</time></trkpt><trkpt lat="43.7449567" lon="12.3391533"><ele>702.0</ele><time>2026-04-06T13:53:56.685Z</time></trkpt><trkpt lat="43.7449783" lon="12.3390633"><ele>703.0</ele><time>2026-04-06T13:53:59.684Z</time></trkpt><trkpt lat="43.74503" lon="12.3389683"><ele>703.8</ele><time>2026-04-06T13:54:13.686Z</time></trkpt><trkpt lat="43.7450217" lon="12.3388533"><ele>704.5999999999999</ele><time>2026-04-06T13:54:16.686Z</time></trkpt><trkpt lat="43.7450267" lon="12.33873"><ele>705.4000000000001</ele><time>2026-04-06T13:54:18.685Z</time></trkpt><trkpt lat="43.74505" lon="12.3385917"><ele>706.2</ele><time>2026-04-06T13:54:20.684Z</time></trkpt><trkpt lat="43.745085" lon="12.3384283"><ele>707.0</ele><time>2026-04-06T13:54:22.684Z</time></trkpt><trkpt lat="43.7451033" lon="12.33834"><ele>707.0</ele><time>2026-04-06T13:54:23.683Z</time></trkpt><trkpt lat="43.7451267" lon="12.3381867"><ele>707.0</ele><time>2026-04-06T13:54:25.687Z</time></trkpt><trkpt lat="43.7451317" lon="12.3380667"><ele>707.0</ele><time>2026-04-06T13:54:27.682Z</time></trkpt><trkpt lat="43.7451317" lon="12.3379183"><ele>707.0</ele><time>2026-04-06T13:54:29.684Z</time></trkpt><trkpt lat="43.74513" lon="12.3377717"><ele>707.0</ele><time>2026-04-06T13:54:31.685Z</time></trkpt><trkpt lat="43.7451467" lon="12.33764"><ele>707.6</ele><time>2026-04-06T13:54:33.683Z</time></trkpt><trkpt lat="43.7452033" lon="12.3375317"><ele>708.2</ele><time>2026-04-06T13:54:35.685Z</time></trkpt><trkpt lat="43.7452817" lon="12.3374317"><ele>708.8</ele><time>2026-04-06T13:54:37.685Z</time></trkpt><trkpt lat="43.7453433" lon="12.3373367"><ele>709.4</ele><time>2026-04-06T13:54:39.684Z</time></trkpt><trkpt lat="43.7453733" lon="12.3372233"><ele>710.0</ele><time>2026-04-06T13:54:41.683Z</time></trkpt><trkpt lat="43.7454083" lon="12.3371083"><ele>711.3333333333333</ele><time>2026-04-06T13:54:43.685Z</time></trkpt><trkpt lat="43.745455" lon="12.3370017"><ele>712.6666666666666</ele><time>2026-04-06T13:54:45.683Z</time></trkpt><trkpt lat="43.7455083" lon="12.3369067"><ele>714.0</ele><time>2026-04-06T13:54:47.689Z</time></trkpt><trkpt lat="43.745565" lon="12.3367983"><ele>715.3333333333334</ele><time>2026-04-06T13:54:49.684Z</time></trkpt><trkpt lat="43.7456183" lon="12.3367017"><ele>716.6666666666667</ele><time>2026-04-06T13:54:51.681Z</time></trkpt><trkpt lat="43.74567" lon="12.3366217"><ele>718.0</ele><time>2026-04-06T13:54:53.684Z</time></trkpt><trkpt lat="43.745735" lon="12.3365717"><ele>718.0</ele><time>2026-04-06T13:54:55.686Z</time></trkpt><trkpt lat="43.7458133" lon="12.3365533"><ele>718.0</ele><time>2026-04-06T13:54:57.682Z</time></trkpt><trkpt lat="43.7459083" lon="12.336515"><ele>718.0</ele><time>2026-04-06T13:54:59.686Z</time></trkpt><trkpt lat="43.7459933" lon="12.3364583"><ele>718.0</ele><time>2026-04-06T13:55:01.685Z</time></trkpt><trkpt lat="43.7460667" lon="12.33638"><ele>718.0</ele><time>2026-04-06T13:55:03.687Z</time></trkpt><trkpt lat="43.74614" lon="12.3363083"><ele>721.0</ele><time>2026-04-06T13:55:05.684Z</time></trkpt><trkpt lat="43.7462183" lon="12.3362267"><ele>724.0</ele><time>2026-04-06T13:55:07.685Z</time></trkpt><trkpt lat="43.7462967" lon="12.3361367"><ele>727.0</ele><time>2026-04-06T13:55:09.684Z</time></trkpt><trkpt lat="43.7463833" lon="12.33604"><ele>730.0</ele><time>2026-04-06T13:55:11.683Z</time></trkpt><trkpt lat="43.7464667" lon="12.3359317"><ele>733.0</ele><time>2026-04-06T13:55:13.685Z</time></trkpt><trkpt lat="43.74654" lon="12.33581"><ele>733.0</ele><time>2026-04-06T13:55:15.683Z</time></trkpt><trkpt lat="43.7465983" lon="12.33573"><ele>733.0</ele><time>2026-04-06T13:55:17.686Z</time></trkpt><trkpt lat="43.74666" lon="12.335685"><ele>733.0</ele><time>2026-04-06T13:55:19.687Z</time></trkpt><trkpt lat="43.7467283" lon="12.3356533"><ele>733.0</ele><time>2026-04-06T13:55:21.683Z</time></trkpt><trkpt lat="43.7468117" lon="12.3356467"><ele>733.0</ele><time>2026-04-06T13:55:24.684Z</time></trkpt><trkpt lat="43.7468883" lon="12.3356767"><ele>733.0</ele><time>2026-04-06T13:55:27.685Z</time></trkpt><trkpt lat="43.7469517" lon="12.335735"><ele>735.8333333333334</ele><time>2026-04-06T13:55:30.683Z</time></trkpt><trkpt lat="43.7470133" lon="12.3357917"><ele>738.6666666666667</ele><time>2026-04-06T13:55:33.685Z</time></trkpt><trkpt lat="43.747115" lon="12.3358267"><ele>741.5</ele><time>2026-04-06T13:55:36.685Z</time></trkpt><trkpt lat="43.747195" lon="12.3358433"><ele>744.3333333333334</ele><time>2026-04-06T13:55:38.684Z</time></trkpt><trkpt lat="43.7472833" lon="12.3358767"><ele>747.1666666666666</ele><time>2026-04-06T13:55:40.686Z</time></trkpt><trkpt lat="43.747365" lon="12.3359033"><ele>750.0</ele><time>2026-04-06T13:55:42.684Z</time></trkpt><trkpt lat="43.7474317" lon="12.3359083"><ele>750.0</ele><time>2026-04-06T13:55:44.684Z</time></trkpt><trkpt lat="43.747515" lon="12.335905"><ele>750.0</ele><time>2026-04-06T13:55:46.683Z</time></trkpt><trkpt lat="43.7475983" lon="12.3359017"><ele>750.0</ele><time>2026-04-06T13:55:48.684Z</time></trkpt><trkpt lat="43.7476617" lon="12.335925"><ele>750.0</ele><time>2026-04-06T13:55:50.683Z</time></trkpt><trkpt lat="43.74774" lon="12.335965"><ele>750.0</ele><time>2026-04-06T13:55:52.684Z</time></trkpt><trkpt lat="43.74782" lon="12.336005"><ele>750.0</ele><time>2026-04-06T13:55:54.686Z</time></trkpt><trkpt lat="43.7479" lon="12.3360267"><ele>753.2</ele><time>2026-04-06T13:55:56.681Z</time></trkpt><trkpt lat="43.7479983" lon="12.3360433"><ele>756.4</ele><time>2026-04-06T13:55:58.684Z</time></trkpt><trkpt lat="43.7480867" lon="12.3360367"><ele>759.5999999999999</ele><time>2026-04-06T13:56:00.685Z</time></trkpt><trkpt lat="43.7481633" lon="12.33599"><ele>762.8</ele><time>2026-04-06T13:56:02.686Z</time></trkpt><trkpt lat="43.7482117" lon="12.3358817"><ele>766.0</ele><time>2026-04-06T13:58:02.685Z</time></trkpt><trkpt lat="43.7482517" lon="12.3357617"><ele>766.0</ele><time>2026-04-06T13:58:04.685Z</time></trkpt><trkpt lat="43.74828" lon="12.3356617"><ele>766.0</ele><time>2026-04-06T13:58:06.685Z</time></trkpt><trkpt lat="43.7483217" lon="12.33555"><ele>766.0</ele><time>2026-04-06T13:58:09.685Z</time></trkpt><trkpt lat="43.7483417" lon="12.335445"><ele>766.0</ele><time>2026-04-06T13:58:14.686Z</time></trkpt><trkpt lat="43.7483583" lon="12.3353367"><ele>766.0</ele><time>2026-04-06T13:58:17.684Z</time></trkpt><trkpt lat="43.7483617" lon="12.33522"><ele>766.0</ele><time>2026-04-06T13:58:25.686Z</time></trkpt><trkpt lat="43.7483733" lon="12.3351083"><ele>768.3333333333334</ele><time>2026-04-06T13:58:27.684Z</time></trkpt><trkpt lat="43.7484033" lon="12.3349933"><ele>770.6666666666667</ele><time>2026-04-06T13:58:59.685Z</time></trkpt><trkpt lat="43.7484233" lon="12.33491"><ele>773.0</ele><time>2026-04-06T13:59:02.686Z</time></trkpt><trkpt lat="43.7484067" lon="12.334995"><ele>775.3333333333334</ele><time>2026-04-06T13:59:46.685Z</time></trkpt><trkpt lat="43.7483733" lon="12.335095"><ele>777.6666666666666</ele><time>2026-04-06T13:59:51.684Z</time></trkpt><trkpt lat="43.748355" lon="12.3352033"><ele>780.0</ele><time>2026-04-06T13:59:54.686Z</time></trkpt><trkpt lat="43.7483533" lon="12.3353483"><ele>780.0</ele><time>2026-04-06T14:00:14.683Z</time></trkpt><trkpt lat="43.7483383" lon="12.3354483"><ele>780.0</ele><time>2026-04-06T14:00:19.685Z</time></trkpt><trkpt lat="43.74832" lon="12.33555"><ele>780.0</ele><time>2026-04-06T14:00:25.687Z</time></trkpt><trkpt lat="43.7482933" lon="12.33564"><ele>780.0</ele><time>2026-04-06T14:00:29.683Z</time></trkpt><trkpt lat="43.74826" lon="12.3357283"><ele>780.0</ele><time>2026-04-06T14:00:33.684Z</time></trkpt><trkpt lat="43.7482133" lon="12.3358433"><ele>780.0</ele><time>2026-04-06T14:00:36.684Z</time></trkpt><trkpt lat="43.7481717" lon="12.3359233"><ele>777.6666666666666</ele><time>2026-04-06T14:00:38.682Z</time></trkpt><trkpt lat="43.7481117" lon="12.3359833"><ele>775.3333333333334</ele><time>2026-04-06T14:00:40.684Z</time></trkpt><trkpt lat="43.748035" lon="12.3360033"><ele>773.0</ele><time>2026-04-06T14:00:42.683Z</time></trkpt><trkpt lat="43.74796" lon="12.3359983"><ele>770.6666666666667</ele><time>2026-04-06T14:00:44.686Z</time></trkpt><trkpt lat="43.7478883" lon="12.3359833"><ele>768.3333333333334</ele><time>2026-04-06T14:00:46.684Z</time></trkpt><trkpt lat="43.7478033" lon="12.3359633"><ele>766.0</ele><time>2026-04-06T14:00:48.684Z</time></trkpt><trkpt lat="43.747725" lon="12.3359367"><ele>763.3333333333334</ele><time>2026-04-06T14:00:50.682Z</time></trkpt><trkpt lat="43.74766" lon="12.3359133"><ele>760.6666666666667</ele><time>2026-04-06T14:00:52.685Z</time></trkpt><trkpt lat="43.747565" lon="12.3359017"><ele>758.0</ele><time>2026-04-06T14:00:55.684Z</time></trkpt><trkpt lat="43.7474833" lon="12.3359033"><ele>755.3333333333334</ele><time>2026-04-06T14:00:57.684Z</time></trkpt><trkpt lat="43.7474017" lon="12.3359067"><ele>752.6666666666666</ele><time>2026-04-06T14:00:59.684Z</time></trkpt><trkpt lat="43.7473217" lon="12.3358933"><ele>750.0</ele><time>2026-04-06T14:01:01.685Z</time></trkpt><trkpt lat="43.7472417" lon="12.3358617"><ele>750.0</ele><time>2026-04-06T14:01:03.683Z</time></trkpt><trkpt lat="43.747165" lon="12.3358317"><ele>750.0</ele><time>2026-04-06T14:01:05.684Z</time></trkpt><trkpt lat="43.7470783" lon="12.3358083"><ele>750.0</ele><time>2026-04-06T14:01:07.685Z</time></trkpt><trkpt lat="43.7470117" lon="12.3357767"><ele>750.0</ele><time>2026-04-06T14:01:09.683Z</time></trkpt><trkpt lat="43.7469417" lon="12.3357117"><ele>750.0</ele><time>2026-04-06T14:01:12.683Z</time></trkpt><trkpt lat="43.7468683" lon="12.33565"><ele>750.0</ele><time>2026-04-06T14:01:15.684Z</time></trkpt><trkpt lat="43.7467817" lon="12.3356333"><ele>747.1666666666666</ele><time>2026-04-06T14:01:18.684Z</time></trkpt><trkpt lat="43.746715" lon="12.3356367"><ele>744.3333333333334</ele><time>2026-04-06T14:01:20.681Z</time></trkpt><trkpt lat="43.746645" lon="12.3356683"><ele>741.5</ele><time>2026-04-06T14:01:22.684Z</time></trkpt><trkpt lat="43.7465817" lon="12.3357267"><ele>738.6666666666667</ele><time>2026-04-06T14:01:24.684Z</time></trkpt><trkpt lat="43.746525" lon="12.3358067"><ele>735.8333333333334</ele><time>2026-04-06T14:01:26.682Z</time></trkpt><trkpt lat="43.7464683" lon="12.3358967"><ele>733.0</ele><time>2026-04-06T14:01:28.684Z</time></trkpt><trkpt lat="43.746405" lon="12.33599"><ele>733.0</ele><time>2026-04-06T14:01:30.684Z</time></trkpt><trkpt lat="43.74634" lon="12.33606"><ele>733.0</ele><time>2026-04-06T14:01:32.682Z</time></trkpt><trkpt lat="43.7462767" lon="12.3361283"><ele>733.0</ele><time>2026-04-06T14:01:34.685Z</time></trkpt><trkpt lat="43.7462167" lon="12.3362"><ele>733.0</ele><time>2026-04-06T14:01:36.684Z</time></trkpt><trkpt lat="43.7461567" lon="12.3362733"><ele>733.0</ele><time>2026-04-06T14:01:38.684Z</time></trkpt><trkpt lat="43.7460967" lon="12.3363367"><ele>733.0</ele><time>2026-04-06T14:01:40.684Z</time></trkpt><trkpt lat="43.7460317" lon="12.3363983"><ele>730.0</ele><time>2026-04-06T14:01:42.684Z</time></trkpt><trkpt lat="43.74596" lon="12.3364667"><ele>727.0</ele><time>2026-04-06T14:01:44.684Z</time></trkpt><trkpt lat="43.74588" lon="12.336515"><ele>724.0</ele><time>2026-04-06T14:01:46.684Z</time></trkpt><trkpt lat="43.7457833" lon="12.336545"><ele>721.0</ele><time>2026-04-06T14:01:48.684Z</time></trkpt><trkpt lat="43.74569" lon="12.3365917"><ele>718.0</ele><time>2026-04-06T14:01:50.684Z</time></trkpt><trkpt lat="43.7456117" lon="12.336685"><ele>718.0</ele><time>2026-04-06T14:01:52.685Z</time></trkpt><trkpt lat="43.74553" lon="12.3368117"><ele>718.0</ele><time>2026-04-06T14:01:54.683Z</time></trkpt><trkpt lat="43.74549" lon="12.3368883"><ele>718.0</ele><time>2026-04-06T14:01:55.686Z</time></trkpt><trkpt lat="43.7454483" lon="12.3369667"><ele>718.0</ele><time>2026-04-06T14:01:56.685Z</time></trkpt><trkpt lat="43.7454117" lon="12.3370417"><ele>718.0</ele><time>2026-04-06T14:01:57.684Z</time></trkpt><trkpt lat="43.7453783" lon="12.3371183"><ele>718.0</ele><time>2026-04-06T14:01:58.683Z</time></trkpt><trkpt lat="43.7453417" lon="12.337265"><ele>716.5999999999999</ele><time>2026-04-06T14:02:00.684Z</time></trkpt><trkpt lat="43.7452983" lon="12.3374"><ele>715.1999999999999</ele><time>2026-04-06T14:02:02.681Z</time></trkpt><trkpt lat="43.7452283" lon="12.337505"><ele>713.8</ele><time>2026-04-06T14:02:04.686Z</time></trkpt><trkpt lat="43.7451567" lon="12.337615"><ele>712.4</ele><time>2026-04-06T14:02:06.686Z</time></trkpt><trkpt lat="43.74512" lon="12.3377467"><ele>711.0</ele><time>2026-04-06T14:02:08.682Z</time></trkpt><trkpt lat="43.7451217" lon="12.33792"><ele>710.8571428571429</ele><time>2026-04-06T14:02:10.685Z</time></trkpt><trkpt lat="43.745125" lon="12.3380233"><ele>710.7142857142857</ele><time>2026-04-06T14:02:11.685Z</time></trkpt><trkpt lat="43.745125" lon="12.3381233"><ele>710.5714285714286</ele><time>2026-04-06T14:02:12.685Z</time></trkpt><trkpt lat="43.7451183" lon="12.3382217"><ele>710.4285714285714</ele><time>2026-04-06T14:02:13.686Z</time></trkpt><trkpt lat="43.745105" lon="12.33832"><ele>710.2857142857143</ele><time>2026-04-06T14:02:14.683Z</time></trkpt><trkpt lat="43.7450883" lon="12.33842"><ele>710.1428571428571</ele><time>2026-04-06T14:02:15.686Z</time></trkpt><trkpt lat="43.7450683" lon="12.3385083"><ele>710.0</ele><time>2026-04-06T14:02:16.684Z</time></trkpt><trkpt lat="43.74505" lon="12.3385933"><ele>709.4</ele><time>2026-04-06T14:02:17.684Z</time></trkpt><trkpt lat="43.74503" lon="12.3386783"><ele>708.8</ele><time>2026-04-06T14:02:18.684Z</time></trkpt><trkpt lat="43.7449933" lon="12.33883"><ele>708.2</ele><time>2026-04-06T14:02:20.684Z</time></trkpt><trkpt lat="43.744965" lon="12.33897"><ele>707.6</ele><time>2026-04-06T14:02:22.688Z</time></trkpt><trkpt lat="43.7449433" lon="12.3391217"><ele>707.0</ele><time>2026-04-06T14:02:24.684Z</time></trkpt><trkpt lat="43.7449267" lon="12.33921"><ele>706.3333333333333</ele><time>2026-04-06T14:02:25.687Z</time></trkpt><trkpt lat="43.7449083" lon="12.339305"><ele>705.6666666666666</ele><time>2026-04-06T14:02:26.685Z</time></trkpt><trkpt lat="43.744895" lon="12.3394"><ele>705.0</ele><time>2026-04-06T14:02:27.684Z</time></trkpt><trkpt lat="43.744885" lon="12.3394883"><ele>704.3333333333334</ele><time>2026-04-06T14:02:28.686Z</time></trkpt><trkpt lat="43.7448583" lon="12.3396417"><ele>703.6666666666667</ele><time>2026-04-06T14:02:30.684Z</time></trkpt><trkpt lat="43.7448267" lon="12.3397917"><ele>703.0</ele><time>2026-04-06T14:02:32.685Z</time></trkpt><trkpt lat="43.7447917" lon="12.3399433"><ele>702.0</ele><time>2026-04-06T14:02:34.684Z</time></trkpt><trkpt lat="43.7447533" lon="12.3401167"><ele>701.0</ele><time>2026-04-06T14:02:36.683Z</time></trkpt><trkpt lat="43.74474" lon="12.3402183"><ele>700.0</ele><time>2026-04-06T14:02:37.686Z</time></trkpt><trkpt lat="43.744735" lon="12.3403183"><ele>699.0</ele><time>2026-04-06T14:02:38.685Z</time></trkpt><trkpt lat="43.7447333" lon="12.3404133"><ele>698.0</ele><time>2026-04-06T14:02:39.683Z</time></trkpt><trkpt lat="43.74473" lon="12.3405017"><ele>697.0</ele><time>2026-04-06T14:02:40.684Z</time></trkpt><trkpt lat="43.7447017" lon="12.34066"><ele>696.5</ele><time>2026-04-06T14:02:42.683Z</time></trkpt><trkpt lat="43.74465" lon="12.3408083"><ele>696.0</ele><time>2026-04-06T14:02:44.685Z</time></trkpt><trkpt lat="43.7446183" lon="12.34089"><ele>695.5</ele><time>2026-04-06T14:02:45.684Z</time></trkpt><trkpt lat="43.7445967" lon="12.3409783"><ele>695.0</ele><time>2026-04-06T14:02:46.685Z</time></trkpt><trkpt lat="43.7445833" lon="12.34108"><ele>694.5</ele><time>2026-04-06T14:02:47.686Z</time></trkpt><trkpt lat="43.7445833" lon="12.3411883"><ele>694.0</ele><time>2026-04-06T14:02:48.684Z</time></trkpt><trkpt lat="43.7445933" lon="12.3413067"><ele>693.3333333333334</ele><time>2026-04-06T14:02:49.688Z</time></trkpt><trkpt lat="43.7446117" lon="12.3414217"><ele>692.6666666666667</ele><time>2026-04-06T14:02:50.684Z</time></trkpt><trkpt lat="43.7446317" lon="12.3415283"><ele>692.0</ele><time>2026-04-06T14:02:51.683Z</time></trkpt><trkpt lat="43.7446567" lon="12.3416233"><ele>691.3333333333334</ele><time>2026-04-06T14:02:52.684Z</time></trkpt><trkpt lat="43.74469" lon="12.3417067"><ele>690.6666666666666</ele><time>2026-04-06T14:02:53.686Z</time></trkpt><trkpt lat="43.7447333" lon="12.34177"><ele>690.0</ele><time>2026-04-06T14:02:54.685Z</time></trkpt><trkpt lat="43.74485" lon="12.34184"><ele>690.0</ele><time>2026-04-06T14:02:56.684Z</time></trkpt><trkpt lat="43.7449267" lon="12.3418483"><ele>690.0</ele><time>2026-04-06T14:02:57.683Z</time></trkpt><trkpt lat="43.7450117" lon="12.3418383"><ele>690.0</ele><time>2026-04-06T14:02:58.686Z</time></trkpt><trkpt lat="43.7451033" lon="12.341815"><ele>690.0</ele><time>2026-04-06T14:02:59.685Z</time></trkpt><trkpt lat="43.745205" lon="12.341785"><ele>690.0</ele><time>2026-04-06T14:03:00.685Z</time></trkpt><trkpt lat="43.7453067" lon="12.3417567"><ele>689.1666666666666</ele><time>2026-04-06T14:03:01.688Z</time></trkpt><trkpt lat="43.7454" lon="12.3417283"><ele>688.3333333333334</ele><time>2026-04-06T14:03:02.686Z</time></trkpt><trkpt lat="43.7454833" lon="12.341715"><ele>687.5</ele><time>2026-04-06T14:03:03.686Z</time></trkpt><trkpt lat="43.7455583" lon="12.3417133"><ele>686.6666666666667</ele><time>2026-04-06T14:03:04.686Z</time></trkpt><trkpt lat="43.745625" lon="12.3417233"><ele>685.8333333333334</ele><time>2026-04-06T14:03:05.686Z</time></trkpt><trkpt lat="43.74569" lon="12.3417483"><ele>685.0</ele><time>2026-04-06T14:03:06.686Z</time></trkpt><trkpt lat="43.7457533" lon="12.3417833"><ele>685.0</ele><time>2026-04-06T14:03:07.687Z</time></trkpt><trkpt lat="43.745815" lon="12.3418283"><ele>685.0</ele><time>2026-04-06T14:03:08.686Z</time></trkpt><trkpt lat="43.7458733" lon="12.3418833"><ele>685.0</ele><time>2026-04-06T14:03:09.683Z</time></trkpt><trkpt lat="43.74593" lon="12.341945"><ele>685.0</ele><time>2026-04-06T14:03:10.687Z</time></trkpt><trkpt lat="43.74598" lon="12.34201"><ele>685.0</ele><time>2026-04-06T14:03:11.681Z</time></trkpt><trkpt lat="43.7460333" lon="12.3420783"><ele>685.0</ele><time>2026-04-06T14:03:12.686Z</time></trkpt><trkpt lat="43.74608" lon="12.3421483"><ele>685.0</ele><time>2026-04-06T14:03:13.686Z</time></trkpt><trkpt lat="43.7461267" lon="12.3422083"><ele>685.1666666666667</ele><time>2026-04-06T14:03:14.686Z</time></trkpt><trkpt lat="43.74621" lon="12.3423133"><ele>685.3333333333334</ele><time>2026-04-06T14:03:16.686Z</time></trkpt><trkpt lat="43.746255" lon="12.3423783"><ele>685.5</ele><time>2026-04-06T14:03:17.682Z</time></trkpt><trkpt lat="43.74631" lon="12.34246"><ele>685.6666666666666</ele><time>2026-04-06T14:03:18.684Z</time></trkpt><trkpt lat="43.7463717" lon="12.3425533"><ele>685.8333333333333</ele><time>2026-04-06T14:03:19.686Z</time></trkpt><trkpt lat="43.7464367" lon="12.3426483"><ele>686.0</ele><time>2026-04-06T14:03:20.684Z</time></trkpt><trkpt lat="43.7465067" lon="12.3427417"><ele>686.0</ele><time>2026-04-06T14:03:21.685Z</time></trkpt><trkpt lat="43.7465817" lon="12.3428317"><ele>686.0</ele><time>2026-04-06T14:03:22.685Z</time></trkpt><trkpt lat="43.7466617" lon="12.3429283"><ele>686.0</ele><time>2026-04-06T14:03:23.684Z</time></trkpt><trkpt lat="43.7467417" lon="12.3430233"><ele>686.0</ele><time>2026-04-06T14:03:24.686Z</time></trkpt><trkpt lat="43.74682" lon="12.3431183"><ele>686.0</ele><time>2026-04-06T14:03:25.685Z</time></trkpt><trkpt lat="43.7469" lon="12.3432117"><ele>686.8333333333333</ele><time>2026-04-06T14:03:26.683Z</time></trkpt><trkpt lat="43.74697" lon="12.3433017"><ele>687.6666666666666</ele><time>2026-04-06T14:03:27.685Z</time></trkpt><trkpt lat="43.747025" lon="12.3433867"><ele>688.5</ele><time>2026-04-06T14:03:28.685Z</time></trkpt><trkpt lat="43.7470767" lon="12.343475"><ele>689.3333333333334</ele><time>2026-04-06T14:03:29.686Z</time></trkpt><trkpt lat="43.7471233" lon="12.3435633"><ele>690.1666666666667</ele><time>2026-04-06T14:03:30.685Z</time></trkpt><trkpt lat="43.7471783" lon="12.343655"><ele>691.0</ele><time>2026-04-06T14:03:31.685Z</time></trkpt><trkpt lat="43.7472367" lon="12.3437367"><ele>691.0</ele><time>2026-04-06T14:03:32.683Z</time></trkpt><trkpt lat="43.7473017" lon="12.3438133"><ele>691.0</ele><time>2026-04-06T14:03:33.684Z</time></trkpt><trkpt lat="43.747375" lon="12.3438867"><ele>691.0</ele><time>2026-04-06T14:03:34.684Z</time></trkpt><trkpt lat="43.74745" lon="12.3439533"><ele>691.0</ele><time>2026-04-06T14:03:35.684Z</time></trkpt><trkpt lat="43.7475133" lon="12.3440183"><ele>691.0</ele><time>2026-04-06T14:03:36.685Z</time></trkpt><trkpt lat="43.74756" lon="12.3440883"><ele>691.0</ele><time>2026-04-06T14:03:37.689Z</time></trkpt><trkpt lat="43.7475833" lon="12.3441717"><ele>690.1666666666667</ele><time>2026-04-06T14:03:38.681Z</time></trkpt><trkpt lat="43.7475967" lon="12.3442733"><ele>689.3333333333334</ele><time>2026-04-06T14:03:39.685Z</time></trkpt><trkpt lat="43.747605" lon="12.344385"><ele>688.5</ele><time>2026-04-06T14:03:40.685Z</time></trkpt><trkpt lat="43.7476117" lon="12.34451"><ele>687.6666666666666</ele><time>2026-04-06T14:03:41.686Z</time></trkpt><trkpt lat="43.747615" lon="12.3446433"><ele>686.8333333333333</ele><time>2026-04-06T14:03:42.686Z</time></trkpt><trkpt lat="43.7476167" lon="12.3447717"><ele>686.0</ele><time>2026-04-06T14:03:43.688Z</time></trkpt><trkpt lat="43.74762" lon="12.3448933"><ele>685.5</ele><time>2026-04-06T14:03:44.686Z</time></trkpt><trkpt lat="43.7476233" lon="12.34501"><ele>685.0</ele><time>2026-04-06T14:03:45.685Z</time></trkpt><trkpt lat="43.747625" lon="12.345125"><ele>684.5</ele><time>2026-04-06T14:03:46.686Z</time></trkpt><trkpt lat="43.7476267" lon="12.3452417"><ele>684.0</ele><time>2026-04-06T14:03:47.681Z</time></trkpt><trkpt lat="43.747625" lon="12.3453617"><ele>683.5</ele><time>2026-04-06T14:03:48.684Z</time></trkpt><trkpt lat="43.74763" lon="12.345485"><ele>683.0</ele><time>2026-04-06T14:03:49.686Z</time></trkpt><trkpt lat="43.747645" lon="12.3456133"><ele>682.4</ele><time>2026-04-06T14:03:50.683Z</time></trkpt><trkpt lat="43.7476667" lon="12.3457417"><ele>681.8</ele><time>2026-04-06T14:03:51.685Z</time></trkpt><trkpt lat="43.74769" lon="12.3458667"><ele>681.2</ele><time>2026-04-06T14:03:52.685Z</time></trkpt><trkpt lat="43.7477133" lon="12.34599"><ele>680.6</ele><time>2026-04-06T14:03:53.682Z</time></trkpt><trkpt lat="43.7477367" lon="12.3461117"><ele>680.0</ele><time>2026-04-06T14:03:54.686Z</time></trkpt><trkpt lat="43.7477567" lon="12.3462267"><ele>682.3333333333333</ele><time>2026-04-06T14:03:55.687Z</time></trkpt><trkpt lat="43.7477733" lon="12.3463367"><ele>684.6666666666666</ele><time>2026-04-06T14:03:56.684Z</time></trkpt><trkpt lat="43.747785" lon="12.3464417"><ele>687.0</ele><time>2026-04-06T14:03:57.685Z</time></trkpt><trkpt lat="43.7477883" lon="12.3465467"><ele>689.3333333333334</ele><time>2026-04-06T14:03:58.686Z</time></trkpt><trkpt lat="43.7477883" lon="12.3466583"><ele>691.6666666666667</ele><time>2026-04-06T14:03:59.686Z</time></trkpt><trkpt lat="43.7477883" lon="12.3467767"><ele>694.0</ele><time>2026-04-06T14:04:00.685Z</time></trkpt><trkpt lat="43.7477867" lon="12.34689"><ele>694.0</ele><time>2026-04-06T14:04:01.688Z</time></trkpt><trkpt lat="43.74779" lon="12.3469867"><ele>694.0</ele><time>2026-04-06T14:04:02.686Z</time></trkpt><trkpt lat="43.7477933" lon="12.3470767"><ele>694.0</ele><time>2026-04-06T14:04:04.685Z</time></trkpt><trkpt lat="43.7478583" lon="12.3471033"><ele>694.0</ele><time>2026-04-06T14:04:30.686Z</time></trkpt><trkpt lat="43.7479217" lon="12.3470883"><ele>694.0</ele><time>2026-04-06T14:04:32.686Z</time></trkpt><trkpt lat="43.74801" lon="12.347055"><ele>694.0</ele><time>2026-04-06T14:04:34.686Z</time></trkpt><trkpt lat="43.7481017" lon="12.347025"><ele>694.0</ele><time>2026-04-06T14:04:36.685Z</time></trkpt><trkpt lat="43.7481867" lon="12.34699"><ele>694.0</ele><time>2026-04-06T14:04:38.686Z</time></trkpt><trkpt lat="43.7482617" lon="12.3469383"><ele>694.0</ele><time>2026-04-06T14:04:40.684Z</time></trkpt><trkpt lat="43.7483417" lon="12.3469067"><ele>694.0</ele><time>2026-04-06T14:04:42.687Z</time></trkpt><trkpt lat="43.7484233" lon="12.34689"><ele>694.0</ele><time>2026-04-06T14:04:44.685Z</time></trkpt><trkpt lat="43.7485083" lon="12.3468967"><ele>694.0</ele><time>2026-04-06T14:04:46.684Z</time></trkpt><trkpt lat="43.7485933" lon="12.34691"><ele>696.1666666666667</ele><time>2026-04-06T14:04:48.686Z</time></trkpt><trkpt lat="43.7486767" lon="12.3469"><ele>698.3333333333334</ele><time>2026-04-06T14:04:50.684Z</time></trkpt><trkpt lat="43.74876" lon="12.34687"><ele>700.5</ele><time>2026-04-06T14:04:52.685Z</time></trkpt><trkpt lat="43.7488217" lon="12.3468433"><ele>702.6666666666666</ele><time>2026-04-06T14:04:54.686Z</time></trkpt><trkpt lat="43.7488883" lon="12.3468183"><ele>704.8333333333333</ele><time>2026-04-06T14:05:15.685Z</time></trkpt><trkpt lat="43.7489633" lon="12.346795"><ele>707.0</ele><time>2026-04-06T14:05:17.684Z</time></trkpt><trkpt lat="43.7490433" lon="12.3467733"><ele>707.0</ele><time>2026-04-06T14:05:19.685Z</time></trkpt><trkpt lat="43.7491367" lon="12.34675"><ele>707.0</ele><time>2026-04-06T14:05:21.683Z</time></trkpt><trkpt lat="43.74923" lon="12.3467333"><ele>707.0</ele><time>2026-04-06T14:05:23.683Z</time></trkpt><trkpt lat="43.74931" lon="12.3467233"><ele>707.0</ele><time>2026-04-06T14:05:25.684Z</time></trkpt><trkpt lat="43.7493967" lon="12.3467183"><ele>707.0</ele><time>2026-04-06T14:05:27.682Z</time></trkpt><trkpt lat="43.7494817" lon="12.3467083"><ele>707.0</ele><time>2026-04-06T14:05:29.683Z</time></trkpt><trkpt lat="43.7495617" lon="12.3466783"><ele>708.6666666666666</ele><time>2026-04-06T14:05:32.686Z</time></trkpt><trkpt lat="43.7496433" lon="12.3466433"><ele>710.3333333333333</ele><time>2026-04-06T14:05:35.683Z</time></trkpt><trkpt lat="43.749715" lon="12.34662"><ele>712.0</ele><time>2026-04-06T14:05:39.685Z</time></trkpt><trkpt lat="43.7497967" lon="12.3465933"><ele>713.6666666666666</ele><time>2026-04-06T14:05:42.684Z</time></trkpt><trkpt lat="43.7498683" lon="12.3465667"><ele>715.3333333333334</ele><time>2026-04-06T14:05:45.684Z</time></trkpt><trkpt lat="43.7499633" lon="12.34656"><ele>717.0</ele><time>2026-04-06T14:05:48.685Z</time></trkpt><trkpt lat="43.7500483" lon="12.3465817"><ele>717.0</ele><time>2026-04-06T14:05:50.682Z</time></trkpt><trkpt lat="43.7501317" lon="12.3466267"><ele>717.0</ele><time>2026-04-06T14:05:52.684Z</time></trkpt><trkpt lat="43.7502083" lon="12.34667"><ele>717.0</ele><time>2026-04-06T14:05:54.683Z</time></trkpt><trkpt lat="43.7502683" lon="12.3466967"><ele>717.0</ele><time>2026-04-06T14:05:56.682Z</time></trkpt><trkpt lat="43.75032" lon="12.3467483"><ele>717.0</ele><time>2026-04-06T14:06:10.686Z</time></trkpt><trkpt lat="43.7503633" lon="12.3468133"><ele>717.0</ele><time>2026-04-06T14:06:17.682Z</time></trkpt><trkpt lat="43.75042" lon="12.346905"><ele>718.3333333333334</ele><time>2026-04-06T14:06:20.682Z</time></trkpt><trkpt lat="43.75048" lon="12.3469767"><ele>719.6666666666666</ele><time>2026-04-06T14:06:22.685Z</time></trkpt><trkpt lat="43.7505433" lon="12.3470583"><ele>721.0</ele><time>2026-04-06T14:06:24.684Z</time></trkpt><trkpt lat="43.7505833" lon="12.347155"><ele>722.3333333333333</ele><time>2026-04-06T14:06:26.682Z</time></trkpt><trkpt lat="43.75062" lon="12.34726"><ele>723.6666666666666</ele><time>2026-04-06T14:06:28.685Z</time></trkpt><trkpt lat="43.7506433" lon="12.347345"><ele>725.0</ele><time>2026-04-06T14:06:30.689Z</time></trkpt><trkpt lat="43.7507333" lon="12.347345"><ele>725.0</ele><time>2026-04-06T14:10:35.684Z</time></trkpt><trkpt lat="43.7506633" lon="12.3472867"><ele>725.0</ele><time>2026-04-06T14:10:58.684Z</time></trkpt><trkpt lat="43.7506233" lon="12.3472083"><ele>725.0</ele><time>2026-04-06T14:11:01.684Z</time></trkpt><trkpt lat="43.7505783" lon="12.3471183"><ele>725.0</ele><time>2026-04-06T14:11:04.684Z</time></trkpt><trkpt lat="43.7505367" lon="12.34705"><ele>725.0</ele><time>2026-04-06T14:11:06.684Z</time></trkpt><trkpt lat="43.75049" lon="12.3469883"><ele>725.0</ele><time>2026-04-06T14:11:08.682Z</time></trkpt><trkpt lat="43.75042" lon="12.3469067"><ele>725.8333333333333</ele><time>2026-04-06T14:11:11.684Z</time></trkpt><trkpt lat="43.750365" lon="12.346825"><ele>726.6666666666666</ele><time>2026-04-06T14:11:14.685Z</time></trkpt><trkpt lat="43.750305" lon="12.34675"><ele>727.5</ele><time>2026-04-06T14:11:17.683Z</time></trkpt><trkpt lat="43.7502317" lon="12.346695"><ele>728.3333333333334</ele><time>2026-04-06T14:11:20.682Z</time></trkpt><trkpt lat="43.7501683" lon="12.346655"><ele>729.1666666666667</ele><time>2026-04-06T14:11:23.684Z</time></trkpt><trkpt lat="43.7500967" lon="12.3466083"><ele>730.0</ele><time>2026-04-06T14:11:26.686Z</time></trkpt><trkpt lat="43.750035" lon="12.3465783"><ele>727.8333333333334</ele><time>2026-04-06T14:11:28.684Z</time></trkpt><trkpt lat="43.7499383" lon="12.346555"><ele>725.6666666666667</ele><time>2026-04-06T14:11:31.686Z</time></trkpt><trkpt lat="43.74987" lon="12.346565"><ele>723.5</ele><time>2026-04-06T14:11:33.681Z</time></trkpt><trkpt lat="43.7497983" lon="12.3465867"><ele>721.3333333333334</ele><time>2026-04-06T14:11:35.683Z</time></trkpt><trkpt lat="43.7497367" lon="12.3466067"><ele>719.1666666666666</ele><time>2026-04-06T14:11:37.686Z</time></trkpt><trkpt lat="43.7496583" lon="12.3466367"><ele>717.0</ele><time>2026-04-06T14:11:40.682Z</time></trkpt><trkpt lat="43.7495967" lon="12.3466683"><ele>717.0</ele><time>2026-04-06T14:11:43.685Z</time></trkpt><trkpt lat="43.7495017" lon="12.346705"><ele>717.0</ele><time>2026-04-06T14:11:51.683Z</time></trkpt><trkpt lat="43.74942" lon="12.34672"><ele>717.0</ele><time>2026-04-06T14:11:56.688Z</time></trkpt><trkpt lat="43.74935" lon="12.3467117"><ele>717.0</ele><time>2026-04-06T14:11:59.686Z</time></trkpt><trkpt lat="43.749285" lon="12.34672"><ele>717.0</ele><time>2026-04-06T14:12:01.685Z</time></trkpt><trkpt lat="43.7492033" lon="12.3467367"><ele>717.0</ele><time>2026-04-06T14:12:03.685Z</time></trkpt><trkpt lat="43.74911" lon="12.3467567"><ele>715.3333333333334</ele><time>2026-04-06T14:12:05.684Z</time></trkpt><trkpt lat="43.7490217" lon="12.346775"><ele>713.6666666666666</ele><time>2026-04-06T14:12:07.686Z</time></trkpt><trkpt lat="43.7489317" lon="12.3468"><ele>712.0</ele><time>2026-04-06T14:12:09.685Z</time></trkpt><trkpt lat="43.7488417" lon="12.3468333"><ele>710.3333333333333</ele><time>2026-04-06T14:12:11.684Z</time></trkpt><trkpt lat="43.74876" lon="12.3468617"><ele>708.6666666666666</ele><time>2026-04-06T14:12:13.686Z</time></trkpt><trkpt lat="43.74868" lon="12.3468867"><ele>707.0</ele><time>2026-04-06T14:12:15.685Z</time></trkpt><trkpt lat="43.7485967" lon="12.3469017"><ele>704.8333333333333</ele><time>2026-04-06T14:12:17.683Z</time></trkpt><trkpt lat="43.74851" lon="12.34689"><ele>702.6666666666666</ele><time>2026-04-06T14:12:19.686Z</time></trkpt><trkpt lat="43.7484317" lon="12.3468783"><ele>700.5</ele><time>2026-04-06T14:12:21.685Z</time></trkpt><trkpt lat="43.7483567" lon="12.346895"><ele>698.3333333333334</ele><time>2026-04-06T14:12:23.687Z</time></trkpt><trkpt lat="43.7482817" lon="12.3469233"><ele>696.1666666666667</ele><time>2026-04-06T14:12:25.687Z</time></trkpt><trkpt lat="43.748185" lon="12.346955"><ele>694.0</ele><time>2026-04-06T14:12:27.685Z</time></trkpt><trkpt lat="43.7480683" lon="12.34697"><ele>694.0</ele><time>2026-04-06T14:12:29.684Z</time></trkpt><trkpt lat="43.7479717" lon="12.3469617"><ele>694.0</ele><time>2026-04-06T14:12:31.685Z</time></trkpt><trkpt lat="43.7478817" lon="12.3469617"><ele>694.0</ele><time>2026-04-06T14:12:33.685Z</time></trkpt><trkpt lat="43.7478183" lon="12.346985"><ele>694.0</ele><time>2026-04-06T14:12:35.686Z</time></trkpt><trkpt lat="43.74779" lon="12.3471083"><ele>694.0</ele><time>2026-04-06T14:12:38.688Z</time></trkpt><trkpt lat="43.74783" lon="12.34727"><ele>692.8333333333334</ele><time>2026-04-06T14:12:40.684Z</time></trkpt><trkpt lat="43.7478567" lon="12.34737"><ele>691.6666666666667</ele><time>2026-04-06T14:12:41.685Z</time></trkpt><trkpt lat="43.7478817" lon="12.3474733"><ele>690.5</ele><time>2026-04-06T14:12:42.687Z</time></trkpt><trkpt lat="43.7479017" lon="12.3475733"><ele>689.3333333333334</ele><time>2026-04-06T14:12:43.69Z</time></trkpt><trkpt lat="43.7479167" lon="12.347675"><ele>688.1666666666666</ele><time>2026-04-06T14:12:44.685Z</time></trkpt><trkpt lat="43.7479317" lon="12.34778"><ele>687.0</ele><time>2026-04-06T14:12:45.685Z</time></trkpt><trkpt lat="43.7479467" lon="12.34788"><ele>687.0</ele><time>2026-04-06T14:12:46.683Z</time></trkpt><trkpt lat="43.74797" lon="12.34798"><ele>687.0</ele><time>2026-04-06T14:12:47.683Z</time></trkpt><trkpt lat="43.748" lon="12.3480833"><ele>687.0</ele><time>2026-04-06T14:12:48.686Z</time></trkpt><trkpt lat="43.7480367" lon="12.3481867"><ele>687.0</ele><time>2026-04-06T14:12:49.685Z</time></trkpt><trkpt lat="43.7480683" lon="12.34829"><ele>687.0</ele><time>2026-04-06T14:12:50.683Z</time></trkpt><trkpt lat="43.7481" lon="12.3483933"><ele>687.0</ele><time>2026-04-06T14:12:51.683Z</time></trkpt><trkpt lat="43.7481233" lon="12.3484983"><ele>685.8571428571429</ele><time>2026-04-06T14:12:52.685Z</time></trkpt><trkpt lat="43.7481383" lon="12.3486067"><ele>684.7142857142857</ele><time>2026-04-06T14:12:53.686Z</time></trkpt><trkpt lat="43.748145" lon="12.3487083"><ele>683.5714285714286</ele><time>2026-04-06T14:12:54.685Z</time></trkpt><trkpt lat="43.74815" lon="12.3488067"><ele>682.4285714285714</ele><time>2026-04-06T14:12:55.687Z</time></trkpt><trkpt lat="43.74816" lon="12.348905"><ele>681.2857142857142</ele><time>2026-04-06T14:12:56.685Z</time></trkpt><trkpt lat="43.74818" lon="12.349005"><ele>680.1428571428571</ele><time>2026-04-06T14:12:57.685Z</time></trkpt><trkpt lat="43.7481933" lon="12.3490967"><ele>679.0</ele><time>2026-04-06T14:12:58.686Z</time></trkpt><trkpt lat="43.74821" lon="12.3491883"><ele>678.0</ele><time>2026-04-06T14:12:59.686Z</time></trkpt><trkpt lat="43.7482217" lon="12.3492767"><ele>677.0</ele><time>2026-04-06T14:13:00.684Z</time></trkpt><trkpt lat="43.74825" lon="12.3494533"><ele>676.0</ele><time>2026-04-06T14:13:02.686Z</time></trkpt><trkpt lat="43.748275" lon="12.34955"><ele>675.0</ele><time>2026-04-06T14:13:03.685Z</time></trkpt><trkpt lat="43.7483117" lon="12.34965"><ele>674.0</ele><time>2026-04-06T14:13:04.686Z</time></trkpt><trkpt lat="43.7483583" lon="12.3497433"><ele>673.0</ele><time>2026-04-06T14:13:05.68Z</time></trkpt><trkpt lat="43.7484083" lon="12.34983"><ele>672.8333333333334</ele><time>2026-04-06T14:13:06.683Z</time></trkpt><trkpt lat="43.7484567" lon="12.3499117"><ele>672.6666666666667</ele><time>2026-04-06T14:13:07.687Z</time></trkpt><trkpt lat="43.7484983" lon="12.3499933"><ele>672.5</ele><time>2026-04-06T14:13:08.686Z</time></trkpt><trkpt lat="43.748535" lon="12.3500683"><ele>672.3333333333334</ele><time>2026-04-06T14:13:09.682Z</time></trkpt><trkpt lat="43.7485883" lon="12.3501783"><ele>672.1666666666666</ele><time>2026-04-06T14:13:11.688Z</time></trkpt><trkpt lat="43.7486533" lon="12.3502717"><ele>672.0</ele><time>2026-04-06T14:13:14.682Z</time></trkpt><trkpt lat="43.7487767" lon="12.350355"><ele>672.0</ele><time>2026-04-06T14:13:16.688Z</time></trkpt><trkpt lat="43.748865" lon="12.3503983"><ele>672.0</ele><time>2026-04-06T14:13:17.684Z</time></trkpt><trkpt lat="43.7489617" lon="12.350435"><ele>672.0</ele><time>2026-04-06T14:13:18.685Z</time></trkpt><trkpt lat="43.7490633" lon="12.35046"><ele>672.0</ele><time>2026-04-06T14:13:19.684Z</time></trkpt><trkpt lat="43.7491633" lon="12.3504667"><ele>672.0</ele><time>2026-04-06T14:13:20.683Z</time></trkpt><trkpt lat="43.7492667" lon="12.3504483"><ele>671.0</ele><time>2026-04-06T14:13:21.684Z</time></trkpt><trkpt lat="43.7493783" lon="12.35041"><ele>670.0</ele><time>2026-04-06T14:13:22.684Z</time></trkpt><trkpt lat="43.7494917" lon="12.3503517"><ele>669.0</ele><time>2026-04-06T14:13:23.688Z</time></trkpt><trkpt lat="43.7496033" lon="12.3502767"><ele>668.0</ele><time>2026-04-06T14:13:24.683Z</time></trkpt><trkpt lat="43.749715" lon="12.3501883"><ele>668.0</ele><time>2026-04-06T14:13:25.684Z</time></trkpt><trkpt lat="43.749825" lon="12.3500983"><ele>668.0</ele><time>2026-04-06T14:13:26.686Z</time></trkpt><trkpt lat="43.74993" lon="12.3500133"><ele>668.0</ele><time>2026-04-06T14:13:27.687Z</time></trkpt><trkpt lat="43.7500233" lon="12.3499167"><ele>668.0</ele><time>2026-04-06T14:13:28.686Z</time></trkpt><trkpt lat="43.7501017" lon="12.3497983"><ele>670.5</ele><time>2026-04-06T14:13:29.685Z</time></trkpt><trkpt lat="43.7501717" lon="12.3496567"><ele>673.0</ele><time>2026-04-06T14:13:30.685Z</time></trkpt><trkpt lat="43.75024" lon="12.349505"><ele>675.5</ele><time>2026-04-06T14:13:31.687Z</time></trkpt><trkpt lat="43.7503067" lon="12.3493583"><ele>678.0</ele><time>2026-04-06T14:13:32.687Z</time></trkpt><trkpt lat="43.7503717" lon="12.3492133"><ele>678.0</ele><time>2026-04-06T14:13:33.686Z</time></trkpt><trkpt lat="43.7504383" lon="12.34907"><ele>678.0</ele><time>2026-04-06T14:13:34.686Z</time></trkpt><trkpt lat="43.7505133" lon="12.3489633"><ele>678.0</ele><time>2026-04-06T14:13:35.686Z</time></trkpt><trkpt lat="43.750615" lon="12.3488917"><ele>678.0</ele><time>2026-04-06T14:13:36.686Z</time></trkpt><trkpt lat="43.7507333" lon="12.3488467"><ele>684.75</ele><time>2026-04-06T14:13:37.688Z</time></trkpt><trkpt lat="43.75086" lon="12.3488083"><ele>691.5</ele><time>2026-04-06T14:13:38.685Z</time></trkpt><trkpt lat="43.7509933" lon="12.3487767"><ele>698.25</ele><time>2026-04-06T14:13:39.684Z</time></trkpt><trkpt lat="43.7511267" lon="12.3487433"><ele>705.0</ele><time>2026-04-06T14:13:40.685Z</time></trkpt><trkpt lat="43.75126" lon="12.3487083"><ele>705.0</ele><time>2026-04-06T14:13:41.686Z</time></trkpt><trkpt lat="43.75139" lon="12.3486667"><ele>705.0</ele><time>2026-04-06T14:13:42.686Z</time></trkpt><trkpt lat="43.7515133" lon="12.3486283"><ele>705.0</ele><time>2026-04-06T14:13:43.684Z</time></trkpt><trkpt lat="43.751625" lon="12.3486"><ele>705.0</ele><time>2026-04-06T14:13:44.685Z</time></trkpt><trkpt lat="43.7517217" lon="12.3485783"><ele>705.0</ele><time>2026-04-06T14:13:45.684Z</time></trkpt><trkpt lat="43.7518133" lon="12.34855"><ele>705.0</ele><time>2026-04-06T14:13:46.684Z</time></trkpt><trkpt lat="43.751895" lon="12.3485067"><ele>705.0</ele><time>2026-04-06T14:13:47.684Z</time></trkpt><trkpt lat="43.7519617" lon="12.34845"><ele>705.0</ele><time>2026-04-06T14:13:48.685Z</time></trkpt><trkpt lat="43.75202" lon="12.3483883"><ele>705.0</ele><time>2026-04-06T14:13:49.685Z</time></trkpt><trkpt lat="43.7520783" lon="12.3483467"><ele>705.0</ele><time>2026-04-06T14:13:50.685Z</time></trkpt><trkpt lat="43.7522" lon="12.3483383"><ele>705.6</ele><time>2026-04-06T14:13:52.685Z</time></trkpt><trkpt lat="43.7522667" lon="12.3483967"><ele>706.2</ele><time>2026-04-06T14:13:53.685Z</time></trkpt><trkpt lat="43.7523217" lon="12.348495"><ele>706.8</ele><time>2026-04-06T14:13:54.685Z</time></trkpt><trkpt lat="43.7523717" lon="12.3485933"><ele>707.4</ele><time>2026-04-06T14:13:55.688Z</time></trkpt><trkpt lat="43.7523917" lon="12.3487117"><ele>708.0</ele><time>2026-04-06T14:13:56.686Z</time></trkpt><trkpt lat="43.752375" lon="12.3488667"><ele>706.75</ele><time>2026-04-06T14:13:57.688Z</time></trkpt><trkpt lat="43.7523267" lon="12.3490683"><ele>705.5</ele><time>2026-04-06T14:13:58.686Z</time></trkpt><trkpt lat="43.75229" lon="12.349255"><ele>704.25</ele><time>2026-04-06T14:13:59.685Z</time></trkpt><trkpt lat="43.752255" lon="12.3494317"><ele>703.0</ele><time>2026-04-06T14:14:00.686Z</time></trkpt><trkpt lat="43.752225" lon="12.34961"><ele>702.8</ele><time>2026-04-06T14:14:01.686Z</time></trkpt><trkpt lat="43.7522017" lon="12.349775"><ele>702.5999999999999</ele><time>2026-04-06T14:14:02.686Z</time></trkpt><trkpt lat="43.7521867" lon="12.3499217"><ele>702.4000000000001</ele><time>2026-04-06T14:14:03.685Z</time></trkpt><trkpt lat="43.7521933" lon="12.35006"><ele>702.2</ele><time>2026-04-06T14:14:04.688Z</time></trkpt><trkpt lat="43.7522267" lon="12.3501967"><ele>702.0</ele><time>2026-04-06T14:14:05.686Z</time></trkpt><trkpt lat="43.7522883" lon="12.35034"><ele>702.0</ele><time>2026-04-06T14:14:06.686Z</time></trkpt><trkpt lat="43.7523717" lon="12.350485"><ele>702.0</ele><time>2026-04-06T14:14:07.687Z</time></trkpt><trkpt lat="43.7524517" lon="12.3506283"><ele>702.0</ele><time>2026-04-06T14:14:08.684Z</time></trkpt><trkpt lat="43.7525383" lon="12.3507767"><ele>702.0</ele><time>2026-04-06T14:14:09.684Z</time></trkpt><trkpt lat="43.7526117" lon="12.350905"><ele>702.0</ele><time>2026-04-06T14:14:10.687Z</time></trkpt><trkpt lat="43.7526783" lon="12.3510183"><ele>702.0</ele><time>2026-04-06T14:14:11.685Z</time></trkpt><trkpt lat="43.75275" lon="12.3511067"><ele>702.0</ele><time>2026-04-06T14:14:12.683Z</time></trkpt><trkpt lat="43.7528283" lon="12.351165"><ele>702.0</ele><time>2026-04-06T14:14:13.687Z</time></trkpt><trkpt lat="43.7529117" lon="12.3511917"><ele>702.0</ele><time>2026-04-06T14:14:14.686Z</time></trkpt><trkpt lat="43.753005" lon="12.3511833"><ele>702.0</ele><time>2026-04-06T14:14:15.684Z</time></trkpt><trkpt lat="43.753105" lon="12.3511367"><ele>702.0</ele><time>2026-04-06T14:14:16.684Z</time></trkpt><trkpt lat="43.75319" lon="12.3511"><ele>702.0</ele><time>2026-04-06T14:14:17.693Z</time></trkpt><trkpt lat="43.75327" lon="12.35106"><ele>702.0</ele><time>2026-04-06T14:14:18.686Z</time></trkpt><trkpt lat="43.7533417" lon="12.351025"><ele>702.0</ele><time>2026-04-06T14:14:19.688Z</time></trkpt><trkpt lat="43.7534033" lon="12.3509967"><ele>702.0</ele><time>2026-04-06T14:14:20.686Z</time></trkpt><trkpt lat="43.753505" lon="12.3509567"><ele>701.8333333333334</ele><time>2026-04-06T14:14:22.686Z</time></trkpt><trkpt lat="43.7536" lon="12.350925"><ele>701.6666666666666</ele><time>2026-04-06T14:14:40.685Z</time></trkpt><trkpt lat="43.753685" lon="12.35088"><ele>701.5</ele><time>2026-04-06T14:14:42.686Z</time></trkpt><trkpt lat="43.7537517" lon="12.3508483"><ele>701.3333333333333</ele><time>2026-04-06T14:14:43.687Z</time></trkpt><trkpt lat="43.7538333" lon="12.3508133"><ele>701.1666666666666</ele><time>2026-04-06T14:14:44.685Z</time></trkpt><trkpt lat="43.7539267" lon="12.350775"><ele>701.0</ele><time>2026-04-06T14:14:45.684Z</time></trkpt><trkpt lat="43.7540333" lon="12.3507267"><ele>701.0</ele><time>2026-04-06T14:14:46.686Z</time></trkpt><trkpt lat="43.7541483" lon="12.3506767"><ele>701.0</ele><time>2026-04-06T14:14:47.683Z</time></trkpt><trkpt lat="43.754275" lon="12.350625"><ele>701.0</ele><time>2026-04-06T14:14:48.686Z</time></trkpt><trkpt lat="43.7544133" lon="12.3505767"><ele>701.0</ele><time>2026-04-06T14:14:49.685Z</time></trkpt><trkpt lat="43.7545617" lon="12.3505283"><ele>710.3333333333333</ele><time>2026-04-06T14:14:50.686Z</time></trkpt><trkpt lat="43.7547133" lon="12.350485"><ele>719.6666666666666</ele><time>2026-04-06T14:14:51.686Z</time></trkpt><trkpt lat="43.75487" lon="12.3504583"><ele>729.0</ele><time>2026-04-06T14:14:52.686Z</time></trkpt><trkpt lat="43.75503" lon="12.3504517"><ele>729.0</ele><time>2026-04-06T14:14:53.686Z</time></trkpt><trkpt lat="43.7551917" lon="12.3504567"><ele>729.0</ele><time>2026-04-06T14:14:54.685Z</time></trkpt><trkpt lat="43.75535" lon="12.3504617"><ele>729.0</ele><time>2026-04-06T14:14:55.688Z</time></trkpt><trkpt lat="43.75551" lon="12.35046"><ele>730.3333333333334</ele><time>2026-04-06T14:14:56.686Z</time></trkpt><trkpt lat="43.7556683" lon="12.3504567"><ele>731.6666666666667</ele><time>2026-04-06T14:14:57.686Z</time></trkpt><trkpt lat="43.7558233" lon="12.350465"><ele>733.0</ele><time>2026-04-06T14:14:58.686Z</time></trkpt><trkpt lat="43.7559733" lon="12.3505"><ele>731.0</ele><time>2026-04-06T14:14:59.686Z</time></trkpt><trkpt lat="43.756115" lon="12.3505617"><ele>729.0</ele><time>2026-04-06T14:15:00.686Z</time></trkpt><trkpt lat="43.75625" lon="12.3506267"><ele>727.0</ele><time>2026-04-06T14:15:01.686Z</time></trkpt><trkpt lat="43.7563867" lon="12.3506817"><ele>725.0</ele><time>2026-04-06T14:15:02.685Z</time></trkpt><trkpt lat="43.75652" lon="12.35072"><ele>725.0</ele><time>2026-04-06T14:15:03.686Z</time></trkpt><trkpt lat="43.7566617" lon="12.350735"><ele>725.0</ele><time>2026-04-06T14:15:04.687Z</time></trkpt><trkpt lat="43.7568067" lon="12.3507267"><ele>725.0</ele><time>2026-04-06T14:15:05.686Z</time></trkpt><trkpt lat="43.75695" lon="12.35071"><ele>725.0</ele><time>2026-04-06T14:15:06.686Z</time></trkpt><trkpt lat="43.7570933" lon="12.350695"><ele>725.75</ele><time>2026-04-06T14:15:07.687Z</time></trkpt><trkpt lat="43.7572267" lon="12.3506783"><ele>726.5</ele><time>2026-04-06T14:15:08.684Z</time></trkpt><trkpt lat="43.75735" lon="12.3506567"><ele>727.25</ele><time>2026-04-06T14:15:09.687Z</time></trkpt><trkpt lat="43.7574683" lon="12.35062"><ele>728.0</ele><time>2026-04-06T14:15:10.686Z</time></trkpt><trkpt lat="43.7575867" lon="12.350565"><ele>729.25</ele><time>2026-04-06T14:15:11.687Z</time></trkpt><trkpt lat="43.757705" lon="12.3504933"><ele>730.5</ele><time>2026-04-06T14:15:12.684Z</time></trkpt><trkpt lat="43.7578217" lon="12.3504083"><ele>731.75</ele><time>2026-04-06T14:15:13.685Z</time></trkpt><trkpt lat="43.7579367" lon="12.350305"><ele>733.0</ele><time>2026-04-06T14:15:14.685Z</time></trkpt><trkpt lat="43.7580467" lon="12.3501817"><ele>733.0</ele><time>2026-04-06T14:15:15.685Z</time></trkpt><trkpt lat="43.75815" lon="12.350045"><ele>733.0</ele><time>2026-04-06T14:15:16.686Z</time></trkpt><trkpt lat="43.75825" lon="12.3499"><ele>733.0</ele><time>2026-04-06T14:15:17.685Z</time></trkpt><trkpt lat="43.7583467" lon="12.3497533"><ele>733.0</ele><time>2026-04-06T14:15:18.685Z</time></trkpt><trkpt lat="43.7584333" lon="12.3496133"><ele>732.25</ele><time>2026-04-06T14:15:19.686Z</time></trkpt><trkpt lat="43.7585233" lon="12.34948"><ele>731.5</ele><time>2026-04-06T14:15:20.685Z</time></trkpt><trkpt lat="43.7586117" lon="12.349365"><ele>730.75</ele><time>2026-04-06T14:15:21.686Z</time></trkpt><trkpt lat="43.7587083" lon="12.349265"><ele>730.0</ele><time>2026-04-06T14:15:22.686Z</time></trkpt><trkpt lat="43.758815" lon="12.34918"><ele>730.0</ele><time>2026-04-06T14:15:23.686Z</time></trkpt><trkpt lat="43.75893" lon="12.3491183"><ele>730.0</ele><time>2026-04-06T14:15:24.684Z</time></trkpt><trkpt lat="43.7590517" lon="12.3490833"><ele>730.0</ele><time>2026-04-06T14:15:25.687Z</time></trkpt><trkpt lat="43.75918" lon="12.34907"><ele>730.0</ele><time>2026-04-06T14:15:26.685Z</time></trkpt><trkpt lat="43.7593133" lon="12.3490683"><ele>731.0</ele><time>2026-04-06T14:15:27.684Z</time></trkpt><trkpt lat="43.75945" lon="12.3490783"><ele>732.0</ele><time>2026-04-06T14:15:28.686Z</time></trkpt><trkpt lat="43.7595833" lon="12.34911"><ele>733.0</ele><time>2026-04-06T14:15:29.688Z</time></trkpt><trkpt lat="43.7597117" lon="12.3491583"><ele>734.0</ele><time>2026-04-06T14:15:30.686Z</time></trkpt><trkpt lat="43.7598367" lon="12.3492167"><ele>734.0</ele><time>2026-04-06T14:15:31.686Z</time></trkpt><trkpt lat="43.759955" lon="12.3492717"><ele>734.0</ele><time>2026-04-06T14:15:32.685Z</time></trkpt><trkpt lat="43.7600767" lon="12.3493083"><ele>734.0</ele><time>2026-04-06T14:15:33.684Z</time></trkpt><trkpt lat="43.7602017" lon="12.34933"><ele>734.0</ele><time>2026-04-06T14:15:34.687Z</time></trkpt><trkpt lat="43.7603283" lon="12.34932"><ele>732.25</ele><time>2026-04-06T14:15:35.682Z</time></trkpt><trkpt lat="43.7604517" lon="12.349275"><ele>730.5</ele><time>2026-04-06T14:15:36.685Z</time></trkpt><trkpt lat="43.7605767" lon="12.3492017"><ele>728.75</ele><time>2026-04-06T14:15:37.686Z</time></trkpt><trkpt lat="43.7607033" lon="12.34912"><ele>727.0</ele><time>2026-04-06T14:15:38.686Z</time></trkpt><trkpt lat="43.7608333" lon="12.3490433"><ele>727.0</ele><time>2026-04-06T14:15:39.685Z</time></trkpt><trkpt lat="43.7609667" lon="12.3489917"><ele>727.0</ele><time>2026-04-06T14:15:40.687Z</time></trkpt><trkpt lat="43.7611067" lon="12.3489567"><ele>727.0</ele><time>2026-04-06T14:15:41.684Z</time></trkpt><trkpt lat="43.7612467" lon="12.3489383"><ele>727.0</ele><time>2026-04-06T14:15:42.684Z</time></trkpt><trkpt lat="43.7613867" lon="12.34894"><ele>726.5</ele><time>2026-04-06T14:15:43.686Z</time></trkpt><trkpt lat="43.7615317" lon="12.3489483"><ele>726.0</ele><time>2026-04-06T14:15:44.686Z</time></trkpt><trkpt lat="43.7616717" lon="12.3489517"><ele>725.5</ele><time>2026-04-06T14:15:45.685Z</time></trkpt><trkpt lat="43.7618083" lon="12.3489483"><ele>725.0</ele><time>2026-04-06T14:15:46.686Z</time></trkpt><trkpt lat="43.7619433" lon="12.3489467"><ele>726.25</ele><time>2026-04-06T14:15:47.686Z</time></trkpt><trkpt lat="43.7620667" lon="12.34895"><ele>727.5</ele><time>2026-04-06T14:15:48.685Z</time></trkpt><trkpt lat="43.7621817" lon="12.34895"><ele>728.75</ele><time>2026-04-06T14:15:49.685Z</time></trkpt><trkpt lat="43.7622917" lon="12.3489383"><ele>730.0</ele><time>2026-04-06T14:15:50.683Z</time></trkpt><trkpt lat="43.7623967" lon="12.3489017"><ele>728.4</ele><time>2026-04-06T14:15:51.683Z</time></trkpt><trkpt lat="43.7624967" lon="12.3488383"><ele>726.8</ele><time>2026-04-06T14:15:52.684Z</time></trkpt><trkpt lat="43.76259" lon="12.3487583"><ele>725.2</ele><time>2026-04-06T14:15:53.685Z</time></trkpt><trkpt lat="43.7626783" lon="12.3486683"><ele>723.6</ele><time>2026-04-06T14:15:54.688Z</time></trkpt><trkpt lat="43.762765" lon="12.34858"><ele>722.0</ele><time>2026-04-06T14:15:55.684Z</time></trkpt><trkpt lat="43.7628483" lon="12.348495"><ele>722.0</ele><time>2026-04-06T14:15:56.686Z</time></trkpt><trkpt lat="43.76293" lon="12.348415"><ele>722.0</ele><time>2026-04-06T14:15:57.683Z</time></trkpt><trkpt lat="43.7630083" lon="12.3483383"><ele>722.0</ele><time>2026-04-06T14:15:58.687Z</time></trkpt><trkpt lat="43.7630883" lon="12.3482633"><ele>722.0</ele><time>2026-04-06T14:15:59.685Z</time></trkpt><trkpt lat="43.7631633" lon="12.3481883"><ele>722.0</ele><time>2026-04-06T14:16:00.684Z</time></trkpt><trkpt lat="43.76324" lon="12.3481167"><ele>722.6</ele><time>2026-04-06T14:16:01.685Z</time></trkpt><trkpt lat="43.7633267" lon="12.3480383"><ele>723.2</ele><time>2026-04-06T14:16:02.682Z</time></trkpt><trkpt lat="43.763415" lon="12.3479583"><ele>723.8</ele><time>2026-04-06T14:16:03.685Z</time></trkpt><trkpt lat="43.7635083" lon="12.3478817"><ele>724.4</ele><time>2026-04-06T14:16:04.685Z</time></trkpt><trkpt lat="43.7636067" lon="12.3478"><ele>725.0</ele><time>2026-04-06T14:16:05.685Z</time></trkpt><trkpt lat="43.76371" lon="12.3477217"><ele>725.0</ele><time>2026-04-06T14:16:06.684Z</time></trkpt><trkpt lat="43.7638067" lon="12.3476567"><ele>725.0</ele><time>2026-04-06T14:16:07.688Z</time></trkpt><trkpt lat="43.7638967" lon="12.3475883"><ele>725.0</ele><time>2026-04-06T14:16:08.685Z</time></trkpt><trkpt lat="43.7639783" lon="12.3475083"><ele>725.0</ele><time>2026-04-06T14:16:09.685Z</time></trkpt><trkpt lat="43.764045" lon="12.3474117"><ele>725.0</ele><time>2026-04-06T14:16:10.685Z</time></trkpt><trkpt lat="43.764095" lon="12.3473017"><ele>725.6666666666666</ele><time>2026-04-06T14:16:11.682Z</time></trkpt><trkpt lat="43.7641267" lon="12.3471883"><ele>726.3333333333333</ele><time>2026-04-06T14:16:12.686Z</time></trkpt><trkpt lat="43.7641417" lon="12.34708"><ele>727.0</ele><time>2026-04-06T14:16:13.684Z</time></trkpt><trkpt lat="43.7641383" lon="12.3469733"><ele>727.6666666666666</ele><time>2026-04-06T14:16:14.684Z</time></trkpt><trkpt lat="43.764115" lon="12.3468583"><ele>728.3333333333334</ele><time>2026-04-06T14:16:15.684Z</time></trkpt><trkpt lat="43.76407" lon="12.3467317"><ele>729.0</ele><time>2026-04-06T14:16:16.684Z</time></trkpt><trkpt lat="43.7640167" lon="12.3465917"><ele>729.0</ele><time>2026-04-06T14:16:17.683Z</time></trkpt><trkpt lat="43.7639617" lon="12.346435"><ele>729.0</ele><time>2026-04-06T14:16:18.683Z</time></trkpt><trkpt lat="43.76392" lon="12.3462717"><ele>729.0</ele><time>2026-04-06T14:16:19.686Z</time></trkpt><trkpt lat="43.763895" lon="12.3461117"><ele>729.0</ele><time>2026-04-06T14:16:20.684Z</time></trkpt><trkpt lat="43.7638933" lon="12.34596"><ele>728.0</ele><time>2026-04-06T14:16:21.683Z</time></trkpt><trkpt lat="43.76391" lon="12.34581"><ele>727.0</ele><time>2026-04-06T14:16:22.685Z</time></trkpt><trkpt lat="43.7639533" lon="12.34566"><ele>726.0</ele><time>2026-04-06T14:16:23.686Z</time></trkpt><trkpt lat="43.7640183" lon="12.345515"><ele>725.0</ele><time>2026-04-06T14:16:24.684Z</time></trkpt><trkpt lat="43.7641033" lon="12.3453817"><ele>725.0</ele><time>2026-04-06T14:16:25.685Z</time></trkpt><trkpt lat="43.7642017" lon="12.3452633"><ele>725.0</ele><time>2026-04-06T14:16:26.685Z</time></trkpt><trkpt lat="43.76431" lon="12.3451733"><ele>725.0</ele><time>2026-04-06T14:16:27.683Z</time></trkpt><trkpt lat="43.7644217" lon="12.3451133"><ele>725.0</ele><time>2026-04-06T14:16:28.685Z</time></trkpt><trkpt lat="43.7645333" lon="12.3450583"><ele>723.0</ele><time>2026-04-06T14:16:29.686Z</time></trkpt><trkpt lat="43.76464" lon="12.3449917"><ele>721.0</ele><time>2026-04-06T14:16:30.685Z</time></trkpt><trkpt lat="43.7647417" lon="12.3449017"><ele>719.0</ele><time>2026-04-06T14:16:31.686Z</time></trkpt><trkpt lat="43.7648383" lon="12.34479"><ele>717.0</ele><time>2026-04-06T14:16:32.685Z</time></trkpt><trkpt lat="43.7649317" lon="12.3446633"><ele>717.0</ele><time>2026-04-06T14:16:33.685Z</time></trkpt><trkpt lat="43.7650117" lon="12.3445283"><ele>717.0</ele><time>2026-04-06T14:16:34.683Z</time></trkpt><trkpt lat="43.7650783" lon="12.3443867"><ele>717.0</ele><time>2026-04-06T14:16:35.686Z</time></trkpt><trkpt lat="43.76513" lon="12.3442433"><ele>717.0</ele><time>2026-04-06T14:16:36.686Z</time></trkpt><trkpt lat="43.7651633" lon="12.3440967"><ele>717.0</ele><time>2026-04-06T14:16:37.684Z</time></trkpt><trkpt lat="43.7651767" lon="12.3439333"><ele>717.0</ele><time>2026-04-06T14:16:38.686Z</time></trkpt><trkpt lat="43.7651733" lon="12.3437617"><ele>717.0</ele><time>2026-04-06T14:16:39.685Z</time></trkpt><trkpt lat="43.7651533" lon="12.3435767"><ele>717.0</ele><time>2026-04-06T14:16:40.685Z</time></trkpt><trkpt lat="43.7651317" lon="12.3433917"><ele>716.25</ele><time>2026-04-06T14:16:41.685Z</time></trkpt><trkpt lat="43.7651117" lon="12.3432117"><ele>715.5</ele><time>2026-04-06T14:16:42.683Z</time></trkpt><trkpt lat="43.7651033" lon="12.3430367"><ele>714.75</ele><time>2026-04-06T14:16:43.687Z</time></trkpt><trkpt lat="43.7651133" lon="12.34286"><ele>714.0</ele><time>2026-04-06T14:16:44.686Z</time></trkpt><trkpt lat="43.765145" lon="12.3426783"><ele>713.5</ele><time>2026-04-06T14:16:45.685Z</time></trkpt><trkpt lat="43.765205" lon="12.3425033"><ele>713.0</ele><time>2026-04-06T14:16:46.684Z</time></trkpt><trkpt lat="43.7652817" lon="12.3423383"><ele>712.5</ele><time>2026-04-06T14:16:47.683Z</time></trkpt><trkpt lat="43.76537" lon="12.34219"><ele>712.0</ele><time>2026-04-06T14:16:48.683Z</time></trkpt><trkpt lat="43.7654717" lon="12.3420583"><ele>712.0</ele><time>2026-04-06T14:16:49.685Z</time></trkpt><trkpt lat="43.7655833" lon="12.3419433"><ele>712.0</ele><time>2026-04-06T14:16:50.684Z</time></trkpt><trkpt lat="43.7657" lon="12.3418367"><ele>712.0</ele><time>2026-04-06T14:16:51.684Z</time></trkpt><trkpt lat="43.7658167" lon="12.341735"><ele>712.0</ele><time>2026-04-06T14:16:52.686Z</time></trkpt><trkpt lat="43.76594" lon="12.3416483"><ele>712.0</ele><time>2026-04-06T14:16:53.683Z</time></trkpt><trkpt lat="43.76607" lon="12.3415883"><ele>712.0</ele><time>2026-04-06T14:16:54.685Z</time></trkpt><trkpt lat="43.7662117" lon="12.3415517"><ele>712.0</ele><time>2026-04-06T14:16:55.685Z</time></trkpt><trkpt lat="43.7663533" lon="12.3415283"><ele>712.0</ele><time>2026-04-06T14:16:56.683Z</time></trkpt><trkpt lat="43.7664967" lon="12.34151"><ele>712.0</ele><time>2026-04-06T14:16:57.683Z</time></trkpt><trkpt lat="43.7666417" lon="12.34149"><ele>712.0</ele><time>2026-04-06T14:16:58.686Z</time></trkpt><trkpt lat="43.7667883" lon="12.341475"><ele>712.0</ele><time>2026-04-06T14:16:59.686Z</time></trkpt><trkpt lat="43.7669367" lon="12.3414567"><ele>712.0</ele><time>2026-04-06T14:17:00.686Z</time></trkpt><trkpt lat="43.7670867" lon="12.3414367"><ele>712.6666666666667</ele><time>2026-04-06T14:17:01.686Z</time></trkpt><trkpt lat="43.7672383" lon="12.341415"><ele>713.3333333333334</ele><time>2026-04-06T14:17:02.685Z</time></trkpt><trkpt lat="43.7673933" lon="12.3413983"><ele>714.0</ele><time>2026-04-06T14:17:03.686Z</time></trkpt><trkpt lat="43.7675433" lon="12.3413817"><ele>715.0</ele><time>2026-04-06T14:17:04.689Z</time></trkpt><trkpt lat="43.7676883" lon="12.3413667"><ele>716.0</ele><time>2026-04-06T14:17:05.684Z</time></trkpt><trkpt lat="43.767825" lon="12.3413517"><ele>717.0</ele><time>2026-04-06T14:17:06.687Z</time></trkpt><trkpt lat="43.7679667" lon="12.3413367"><ele>718.0</ele><time>2026-04-06T14:17:07.687Z</time></trkpt><trkpt lat="43.7681017" lon="12.3413217"><ele>718.2</ele><time>2026-04-06T14:17:08.685Z</time></trkpt><trkpt lat="43.7682267" lon="12.3413067"><ele>718.4</ele><time>2026-04-06T14:17:09.684Z</time></trkpt><trkpt lat="43.7683417" lon="12.3412933"><ele>718.6</ele><time>2026-04-06T14:17:10.684Z</time></trkpt><trkpt lat="43.7684467" lon="12.3412783"><ele>718.8000000000001</ele><time>2026-04-06T14:17:11.684Z</time></trkpt><trkpt lat="43.7685483" lon="12.3412617"><ele>719.0</ele><time>2026-04-06T14:17:12.685Z</time></trkpt><trkpt lat="43.768655" lon="12.341245"><ele>719.0</ele><time>2026-04-06T14:17:13.685Z</time></trkpt><trkpt lat="43.7687667" lon="12.3412283"><ele>719.0</ele><time>2026-04-06T14:17:14.681Z</time></trkpt><trkpt lat="43.7688833" lon="12.34121"><ele>719.0</ele><time>2026-04-06T14:17:15.683Z</time></trkpt><trkpt lat="43.7690017" lon="12.3411883"><ele>719.0</ele><time>2026-04-06T14:17:16.685Z</time></trkpt><trkpt lat="43.769125" lon="12.3411583"><ele>719.0</ele><time>2026-04-06T14:17:17.685Z</time></trkpt><trkpt lat="43.7692483" lon="12.3411233"><ele>719.0</ele><time>2026-04-06T14:17:18.685Z</time></trkpt><trkpt lat="43.7693717" lon="12.3410833"><ele>719.0</ele><time>2026-04-06T14:17:19.685Z</time></trkpt><trkpt lat="43.769495" lon="12.3410383"><ele>719.0</ele><time>2026-04-06T14:17:20.684Z</time></trkpt><trkpt lat="43.769615" lon="12.3409917"><ele>717.5</ele><time>2026-04-06T14:17:21.684Z</time></trkpt><trkpt lat="43.76973" lon="12.34095"><ele>716.0</ele><time>2026-04-06T14:17:22.683Z</time></trkpt><trkpt lat="43.7698417" lon="12.34091"><ele>714.5</ele><time>2026-04-06T14:17:23.684Z</time></trkpt><trkpt lat="43.76995" lon="12.34087"><ele>713.0</ele><time>2026-04-06T14:17:24.683Z</time></trkpt><trkpt lat="43.7700567" lon="12.3408283"><ele>713.0</ele><time>2026-04-06T14:17:25.685Z</time></trkpt><trkpt lat="43.7701567" lon="12.340785"><ele>713.0</ele><time>2026-04-06T14:17:26.683Z</time></trkpt><trkpt lat="43.77025" lon="12.3407467"><ele>713.0</ele><time>2026-04-06T14:17:27.685Z</time></trkpt><trkpt lat="43.7703367" lon="12.3407117"><ele>713.0</ele><time>2026-04-06T14:17:28.685Z</time></trkpt><trkpt lat="43.770415" lon="12.3406833"><ele>713.0</ele><time>2026-04-06T14:17:29.683Z</time></trkpt><trkpt lat="43.7704867" lon="12.3406533"><ele>713.0</ele><time>2026-04-06T14:17:30.684Z</time></trkpt><trkpt lat="43.7705517" lon="12.340625"><ele>713.5999999999999</ele><time>2026-04-06T14:17:31.684Z</time></trkpt><trkpt lat="43.7706133" lon="12.3406033"><ele>714.1999999999999</ele><time>2026-04-06T14:17:32.684Z</time></trkpt><trkpt lat="43.7707133" lon="12.3405717"><ele>714.8</ele><time>2026-04-06T14:17:34.686Z</time></trkpt><trkpt lat="43.77079" lon="12.3405533"><ele>715.4</ele><time>2026-04-06T14:17:37.686Z</time></trkpt><trkpt lat="43.7707733" lon="12.340415"><ele>716.0</ele><time>2026-04-06T14:17:43.688Z</time></trkpt><trkpt lat="43.77071" lon="12.3402533"><ele>717.4</ele><time>2026-04-06T14:17:45.686Z</time></trkpt><trkpt lat="43.770675" lon="12.3401383"><ele>718.8</ele><time>2026-04-06T14:17:46.684Z</time></trkpt><trkpt lat="43.770635" lon="12.340005"><ele>720.1999999999999</ele><time>2026-04-06T14:17:47.683Z</time></trkpt><trkpt lat="43.77059" lon="12.3398667"><ele>721.5999999999999</ele><time>2026-04-06T14:17:48.683Z</time></trkpt><trkpt lat="43.7705467" lon="12.339725"><ele>723.0</ele><time>2026-04-06T14:17:49.685Z</time></trkpt><trkpt lat="43.770505" lon="12.3395833"><ele>724.2</ele><time>2026-04-06T14:17:50.684Z</time></trkpt><trkpt lat="43.7704667" lon="12.3394433"><ele>725.4</ele><time>2026-04-06T14:17:51.684Z</time></trkpt><trkpt lat="43.7704217" lon="12.339305"><ele>726.6</ele><time>2026-04-06T14:17:52.683Z</time></trkpt><trkpt lat="43.7703767" lon="12.3391667"><ele>727.8000000000001</ele><time>2026-04-06T14:17:53.684Z</time></trkpt><trkpt lat="43.7703283" lon="12.3390217"><ele>729.0</ele><time>2026-04-06T14:17:54.684Z</time></trkpt><trkpt lat="43.770285" lon="12.3388783"><ele>730.25</ele><time>2026-04-06T14:17:55.686Z</time></trkpt><trkpt lat="43.77024" lon="12.3387267"><ele>731.5</ele><time>2026-04-06T14:17:56.682Z</time></trkpt><trkpt lat="43.7701883" lon="12.3385617"><ele>732.75</ele><time>2026-04-06T14:17:57.683Z</time></trkpt><trkpt lat="43.77013" lon="12.3383917"><ele>734.0</ele><time>2026-04-06T14:17:58.684Z</time></trkpt><trkpt lat="43.77007" lon="12.3382233"><ele>734.0</ele><time>2026-04-06T14:17:59.684Z</time></trkpt><trkpt lat="43.770015" lon="12.3380633"><ele>734.0</ele><time>2026-04-06T14:18:00.683Z</time></trkpt><trkpt lat="43.7699633" lon="12.3379017"><ele>734.0</ele><time>2026-04-06T14:18:01.685Z</time></trkpt><trkpt lat="43.7699117" lon="12.33774"><ele>734.0</ele><time>2026-04-06T14:18:02.683Z</time></trkpt><trkpt lat="43.7698583" lon="12.33758"><ele>736.5</ele><time>2026-04-06T14:18:03.683Z</time></trkpt><trkpt lat="43.7698083" lon="12.3374183"><ele>739.0</ele><time>2026-04-06T14:18:04.684Z</time></trkpt><trkpt lat="43.7697567" lon="12.337255"><ele>741.5</ele><time>2026-04-06T14:18:05.684Z</time></trkpt><trkpt lat="43.7697083" lon="12.3370983"><ele>744.0</ele><time>2026-04-06T14:18:06.685Z</time></trkpt><trkpt lat="43.7696583" lon="12.3369433"><ele>746.75</ele><time>2026-04-06T14:18:07.686Z</time></trkpt><trkpt lat="43.7696067" lon="12.3367883"><ele>749.5</ele><time>2026-04-06T14:18:08.683Z</time></trkpt><trkpt lat="43.7695533" lon="12.3366283"><ele>752.25</ele><time>2026-04-06T14:18:09.684Z</time></trkpt><trkpt lat="43.7694983" lon="12.3364617"><ele>755.0</ele><time>2026-04-06T14:18:10.683Z</time></trkpt><trkpt lat="43.76944" lon="12.3362933"><ele>756.5</ele><time>2026-04-06T14:18:11.683Z</time></trkpt><trkpt lat="43.769385" lon="12.3361217"><ele>758.0</ele><time>2026-04-06T14:18:12.684Z</time></trkpt><trkpt lat="43.7693383" lon="12.335955"><ele>759.5</ele><time>2026-04-06T14:18:13.686Z</time></trkpt><trkpt lat="43.769295" lon="12.3358067"><ele>761.0</ele><time>2026-04-06T14:18:14.682Z</time></trkpt><trkpt lat="43.7692467" lon="12.33567"><ele>763.75</ele><time>2026-04-06T14:18:15.684Z</time></trkpt><trkpt lat="43.7692017" lon="12.335535"><ele>766.5</ele><time>2026-04-06T14:18:16.686Z</time></trkpt><trkpt lat="43.76916" lon="12.3353933"><ele>769.25</ele><time>2026-04-06T14:18:17.683Z</time></trkpt><trkpt lat="43.7691133" lon="12.3352467"><ele>772.0</ele><time>2026-04-06T14:18:18.685Z</time></trkpt><trkpt lat="43.7690633" lon="12.335095"><ele>772.0</ele><time>2026-04-06T14:18:19.686Z</time></trkpt><trkpt lat="43.7690133" lon="12.334945"><ele>772.0</ele><time>2026-04-06T14:18:20.686Z</time></trkpt><trkpt lat="43.76896" lon="12.33479"><ele>772.0</ele><time>2026-04-06T14:18:21.684Z</time></trkpt><trkpt lat="43.7689033" lon="12.33463"><ele>772.0</ele><time>2026-04-06T14:18:22.686Z</time></trkpt><trkpt lat="43.7688467" lon="12.3344733"><ele>773.2</ele><time>2026-04-06T14:18:23.682Z</time></trkpt><trkpt lat="43.7688" lon="12.3343383"><ele>774.4000000000001</ele><time>2026-04-06T14:18:24.685Z</time></trkpt><trkpt lat="43.7687567" lon="12.3342217"><ele>775.5999999999999</ele><time>2026-04-06T14:18:25.69Z</time></trkpt><trkpt lat="43.7687117" lon="12.3341167"><ele>776.8</ele><time>2026-04-06T14:18:26.685Z</time></trkpt><trkpt lat="43.7686733" lon="12.334025"><ele>778.0</ele><time>2026-04-06T14:18:27.686Z</time></trkpt><trkpt lat="43.7686383" lon="12.3338683"><ele>779.8333333333333</ele><time>2026-04-06T14:18:29.683Z</time></trkpt><trkpt lat="43.76868" lon="12.33377"><ele>781.6666666666666</ele><time>2026-04-06T14:18:31.687Z</time></trkpt><trkpt lat="43.76877" lon="12.3337583"><ele>783.5</ele><time>2026-04-06T14:18:32.685Z</time></trkpt><trkpt lat="43.7688583" lon="12.333735"><ele>785.3333333333333</ele><time>2026-04-06T14:18:33.686Z</time></trkpt><trkpt lat="43.7689467" lon="12.33371"><ele>787.1666666666666</ele><time>2026-04-06T14:18:34.686Z</time></trkpt><trkpt lat="43.7690367" lon="12.3336817"><ele>789.0</ele><time>2026-04-06T14:18:35.686Z</time></trkpt><trkpt lat="43.7691233" lon="12.3336483"><ele>789.0</ele><time>2026-04-06T14:18:36.686Z</time></trkpt><trkpt lat="43.769205" lon="12.3336067"><ele>789.0</ele><time>2026-04-06T14:18:37.688Z</time></trkpt><trkpt lat="43.7692867" lon="12.3335683"><ele>789.0</ele><time>2026-04-06T14:18:38.687Z</time></trkpt><trkpt lat="43.7693733" lon="12.3335233"><ele>789.0</ele><time>2026-04-06T14:18:39.686Z</time></trkpt><trkpt lat="43.76947" lon="12.333475"><ele>789.0</ele><time>2026-04-06T14:18:40.686Z</time></trkpt><trkpt lat="43.76957" lon="12.3334217"><ele>787.8000000000001</ele><time>2026-04-06T14:18:41.685Z</time></trkpt><trkpt lat="43.7696717" lon="12.333365"><ele>786.6</ele><time>2026-04-06T14:18:42.687Z</time></trkpt><trkpt lat="43.7697667" lon="12.3333133"><ele>785.4</ele><time>2026-04-06T14:18:43.686Z</time></trkpt><trkpt lat="43.76986" lon="12.33326"><ele>784.2</ele><time>2026-04-06T14:18:44.685Z</time></trkpt><trkpt lat="43.7699583" lon="12.3332083"><ele>783.0</ele><time>2026-04-06T14:18:45.686Z</time></trkpt><trkpt lat="43.7700517" lon="12.33316"><ele>783.0</ele><time>2026-04-06T14:18:46.686Z</time></trkpt><trkpt lat="43.7701417" lon="12.3331133"><ele>783.0</ele><time>2026-04-06T14:18:47.686Z</time></trkpt><trkpt lat="43.77023" lon="12.3330683"><ele>783.0</ele><time>2026-04-06T14:18:48.684Z</time></trkpt><trkpt lat="43.7703183" lon="12.333025"><ele>783.0</ele><time>2026-04-06T14:18:49.687Z</time></trkpt><trkpt lat="43.7703983" lon="12.332985"><ele>783.0</ele><time>2026-04-06T14:18:50.683Z</time></trkpt><trkpt lat="43.7704717" lon="12.3329467"><ele>783.0</ele><time>2026-04-06T14:18:51.684Z</time></trkpt><trkpt lat="43.7705417" lon="12.3329033"><ele>783.6666666666666</ele><time>2026-04-06T14:18:52.686Z</time></trkpt><trkpt lat="43.7706083" lon="12.3328583"><ele>784.3333333333333</ele><time>2026-04-06T14:18:53.687Z</time></trkpt><trkpt lat="43.7706733" lon="12.3328233"><ele>785.0</ele><time>2026-04-06T14:18:54.686Z</time></trkpt><trkpt lat="43.7707333" lon="12.3327967"><ele>785.6666666666666</ele><time>2026-04-06T14:18:55.687Z</time></trkpt><trkpt lat="43.7708467" lon="12.332805"><ele>786.3333333333333</ele><time>2026-04-06T14:18:57.685Z</time></trkpt><trkpt lat="43.7709583" lon="12.332885"><ele>787.0</ele><time>2026-04-06T14:18:59.687Z</time></trkpt><trkpt lat="43.771015" lon="12.332935"><ele>785.3333333333333</ele><time>2026-04-06T14:19:00.685Z</time></trkpt><trkpt lat="43.7710733" lon="12.3329833"><ele>783.6666666666666</ele><time>2026-04-06T14:19:01.688Z</time></trkpt><trkpt lat="43.771145" lon="12.3330333"><ele>782.0</ele><time>2026-04-06T14:19:02.682Z</time></trkpt><trkpt lat="43.77122" lon="12.333085"><ele>780.3333333333333</ele><time>2026-04-06T14:19:03.684Z</time></trkpt><trkpt lat="43.7712917" lon="12.3331383"><ele>778.6666666666666</ele><time>2026-04-06T14:19:04.686Z</time></trkpt><trkpt lat="43.7713683" lon="12.3332"><ele>777.0</ele><time>2026-04-06T14:19:05.683Z</time></trkpt><trkpt lat="43.7714467" lon="12.333265"><ele>777.0</ele><time>2026-04-06T14:19:06.686Z</time></trkpt><trkpt lat="43.771525" lon="12.3333317"><ele>777.0</ele><time>2026-04-06T14:19:07.688Z</time></trkpt><trkpt lat="43.7716017" lon="12.3334017"><ele>777.0</ele><time>2026-04-06T14:19:08.687Z</time></trkpt><trkpt lat="43.7716767" lon="12.3334667"><ele>777.0</ele><time>2026-04-06T14:19:09.686Z</time></trkpt><trkpt lat="43.7717533" lon="12.3335283"><ele>777.0</ele><time>2026-04-06T14:19:10.685Z</time></trkpt><trkpt lat="43.77183" lon="12.3335833"><ele>777.0</ele><time>2026-04-06T14:19:11.685Z</time></trkpt><trkpt lat="43.7719083" lon="12.33364"><ele>774.8333333333334</ele><time>2026-04-06T14:19:12.686Z</time></trkpt><trkpt lat="43.7719783" lon="12.33369"><ele>772.6666666666666</ele><time>2026-04-06T14:19:13.687Z</time></trkpt><trkpt lat="43.772045" lon="12.333745"><ele>770.5</ele><time>2026-04-06T14:19:14.685Z</time></trkpt><trkpt lat="43.77211" lon="12.333795"><ele>768.3333333333333</ele><time>2026-04-06T14:19:15.685Z</time></trkpt><trkpt lat="43.772175" lon="12.3338383"><ele>766.1666666666666</ele><time>2026-04-06T14:19:16.685Z</time></trkpt><trkpt lat="43.7722417" lon="12.3338817"><ele>764.0</ele><time>2026-04-06T14:19:17.685Z</time></trkpt><trkpt lat="43.77231" lon="12.33392"><ele>764.0</ele><time>2026-04-06T14:19:18.686Z</time></trkpt><trkpt lat="43.7723817" lon="12.3339583"><ele>764.0</ele><time>2026-04-06T14:19:19.685Z</time></trkpt><trkpt lat="43.7724483" lon="12.33399"><ele>764.0</ele><time>2026-04-06T14:19:20.686Z</time></trkpt><trkpt lat="43.77251" lon="12.334015"><ele>764.0</ele><time>2026-04-06T14:19:21.685Z</time></trkpt><trkpt lat="43.7725733" lon="12.33404"><ele>764.0</ele><time>2026-04-06T14:19:22.687Z</time></trkpt><trkpt lat="43.7726367" lon="12.33406"><ele>764.0</ele><time>2026-04-06T14:19:23.687Z</time></trkpt><trkpt lat="43.77275" lon="12.33411"><ele>761.4000000000001</ele><time>2026-04-06T14:19:25.686Z</time></trkpt><trkpt lat="43.7728517" lon="12.3341917"><ele>758.8</ele><time>2026-04-06T14:19:27.684Z</time></trkpt><trkpt lat="43.7729017" lon="12.33425"><ele>756.2</ele><time>2026-04-06T14:19:28.685Z</time></trkpt><trkpt lat="43.7729967" lon="12.3343517"><ele>753.5999999999999</ele><time>2026-04-06T14:19:30.683Z</time></trkpt><trkpt lat="43.7731233" lon="12.3343783"><ele>751.0</ele><time>2026-04-06T14:19:32.684Z</time></trkpt><trkpt lat="43.7731917" lon="12.3343883"><ele>751.0</ele><time>2026-04-06T14:19:33.683Z</time></trkpt><trkpt lat="43.7732633" lon="12.3344183"><ele>751.0</ele><time>2026-04-06T14:19:34.686Z</time></trkpt><trkpt lat="43.7733233" lon="12.3344717"><ele>751.0</ele><time>2026-04-06T14:19:35.685Z</time></trkpt><trkpt lat="43.7733933" lon="12.3345333"><ele>751.0</ele><time>2026-04-06T14:19:36.686Z</time></trkpt><trkpt lat="43.773465" lon="12.3345983"><ele>751.0</ele><time>2026-04-06T14:19:37.685Z</time></trkpt><trkpt lat="43.773535" lon="12.33466"><ele>751.0</ele><time>2026-04-06T14:19:38.684Z</time></trkpt><trkpt lat="43.77361" lon="12.33471"><ele>748.1666666666667</ele><time>2026-04-06T14:19:39.688Z</time></trkpt><trkpt lat="43.7736817" lon="12.3347533"><ele>745.3333333333334</ele><time>2026-04-06T14:19:40.685Z</time></trkpt><trkpt lat="43.7737533" lon="12.3348"><ele>742.5</ele><time>2026-04-06T14:19:41.687Z</time></trkpt><trkpt lat="43.77382" lon="12.3348533"><ele>739.6666666666666</ele><time>2026-04-06T14:19:42.683Z</time></trkpt><trkpt lat="43.7738817" lon="12.3349167"><ele>736.8333333333333</ele><time>2026-04-06T14:19:43.685Z</time></trkpt><trkpt lat="43.7739467" lon="12.3349817"><ele>734.0</ele><time>2026-04-06T14:19:44.686Z</time></trkpt><trkpt lat="43.7740167" lon="12.3350467"><ele>734.0</ele><time>2026-04-06T14:19:45.686Z</time></trkpt><trkpt lat="43.7740967" lon="12.3351083"><ele>734.0</ele><time>2026-04-06T14:19:46.686Z</time></trkpt><trkpt lat="43.7741783" lon="12.3351633"><ele>734.0</ele><time>2026-04-06T14:19:47.686Z</time></trkpt><trkpt lat="43.7742617" lon="12.33522"><ele>734.0</ele><time>2026-04-06T14:19:48.686Z</time></trkpt><trkpt lat="43.7743433" lon="12.335275"><ele>734.0</ele><time>2026-04-06T14:19:49.688Z</time></trkpt><trkpt lat="43.7744233" lon="12.3353433"><ele>732.2</ele><time>2026-04-06T14:19:50.683Z</time></trkpt><trkpt lat="43.7745033" lon="12.3354233"><ele>730.4000000000001</ele><time>2026-04-06T14:19:51.686Z</time></trkpt><trkpt lat="43.7745817" lon="12.3354967"><ele>728.6</ele><time>2026-04-06T14:19:52.684Z</time></trkpt><trkpt lat="43.7746583" lon="12.3355683"><ele>726.8</ele><time>2026-04-06T14:19:53.685Z</time></trkpt><trkpt lat="43.7747333" lon="12.3356367"><ele>725.0</ele><time>2026-04-06T14:19:54.685Z</time></trkpt><trkpt lat="43.7748017" lon="12.335705"><ele>724.2857142857143</ele><time>2026-04-06T14:19:55.688Z</time></trkpt><trkpt lat="43.7748583" lon="12.335775"><ele>723.5714285714287</ele><time>2026-04-06T14:19:56.685Z</time></trkpt><trkpt lat="43.7749133" lon="12.3358483"><ele>722.8571428571429</ele><time>2026-04-06T14:19:57.685Z</time></trkpt><trkpt lat="43.77497" lon="12.3359167"><ele>722.1428571428571</ele><time>2026-04-06T14:19:58.684Z</time></trkpt><trkpt lat="43.775025" lon="12.3359783"><ele>721.4285714285714</ele><time>2026-04-06T14:19:59.688Z</time></trkpt><trkpt lat="43.7750767" lon="12.3360333"><ele>720.7142857142857</ele><time>2026-04-06T14:20:00.684Z</time></trkpt><trkpt lat="43.7751267" lon="12.3360883"><ele>720.0</ele><time>2026-04-06T14:20:01.688Z</time></trkpt><trkpt lat="43.775205" lon="12.3361783"><ele>719.6666666666666</ele><time>2026-04-06T14:20:03.684Z</time></trkpt><trkpt lat="43.7752683" lon="12.3362533"><ele>719.3333333333334</ele><time>2026-04-06T14:20:06.685Z</time></trkpt><trkpt lat="43.775355" lon="12.33631"><ele>719.0</ele><time>2026-04-06T14:20:08.687Z</time></trkpt><trkpt lat="43.7754183" lon="12.3363317"><ele>718.6666666666667</ele><time>2026-04-06T14:20:09.686Z</time></trkpt><trkpt lat="43.7754883" lon="12.3363483"><ele>718.3333333333334</ele><time>2026-04-06T14:20:10.686Z</time></trkpt><trkpt lat="43.7755583" lon="12.3363583"><ele>718.0</ele><time>2026-04-06T14:20:11.684Z</time></trkpt><trkpt lat="43.7756333" lon="12.336365"><ele>718.0</ele><time>2026-04-06T14:20:12.686Z</time></trkpt><trkpt lat="43.7757083" lon="12.3363717"><ele>718.0</ele><time>2026-04-06T14:20:13.687Z</time></trkpt><trkpt lat="43.7757867" lon="12.3363767"><ele>718.0</ele><time>2026-04-06T14:20:14.687Z</time></trkpt><trkpt lat="43.7758633" lon="12.3363783"><ele>718.0</ele><time>2026-04-06T14:20:15.684Z</time></trkpt><trkpt lat="43.7759417" lon="12.33638"><ele>718.0</ele><time>2026-04-06T14:20:16.686Z</time></trkpt><trkpt lat="43.7760217" lon="12.3363833"><ele>718.0</ele><time>2026-04-06T14:20:17.685Z</time></trkpt><trkpt lat="43.7761033" lon="12.3363833"><ele>719.0</ele><time>2026-04-06T14:20:18.685Z</time></trkpt><trkpt lat="43.7761883" lon="12.3363817"><ele>720.0</ele><time>2026-04-06T14:20:19.688Z</time></trkpt><trkpt lat="43.77628" lon="12.33638"><ele>721.0</ele><time>2026-04-06T14:20:20.686Z</time></trkpt><trkpt lat="43.7763767" lon="12.336375"><ele>722.0</ele><time>2026-04-06T14:20:21.686Z</time></trkpt><trkpt lat="43.776475" lon="12.3363733"><ele>723.0</ele><time>2026-04-06T14:20:22.686Z</time></trkpt><trkpt lat="43.7765717" lon="12.3363733"><ele>723.0</ele><time>2026-04-06T14:20:23.685Z</time></trkpt><trkpt lat="43.7766667" lon="12.3363717"><ele>723.0</ele><time>2026-04-06T14:20:24.686Z</time></trkpt><trkpt lat="43.7767583" lon="12.3363683"><ele>723.0</ele><time>2026-04-06T14:20:25.687Z</time></trkpt><trkpt lat="43.7768517" lon="12.33636"><ele>723.0</ele><time>2026-04-06T14:20:26.686Z</time></trkpt><trkpt lat="43.7769417" lon="12.3363567"><ele>723.0</ele><time>2026-04-06T14:20:27.686Z</time></trkpt><trkpt lat="43.7770333" lon="12.336355"><ele>724.0</ele><time>2026-04-06T14:20:28.686Z</time></trkpt><trkpt lat="43.777125" lon="12.336355"><ele>725.0</ele><time>2026-04-06T14:20:29.685Z</time></trkpt><trkpt lat="43.7772183" lon="12.336355"><ele>726.0</ele><time>2026-04-06T14:20:30.686Z</time></trkpt><trkpt lat="43.7773133" lon="12.3363567"><ele>727.0</ele><time>2026-04-06T14:20:31.688Z</time></trkpt><trkpt lat="43.77741" lon="12.3363583"><ele>728.0</ele><time>2026-04-06T14:20:32.685Z</time></trkpt><trkpt lat="43.777505" lon="12.3363567"><ele>728.0</ele><time>2026-04-06T14:20:33.687Z</time></trkpt><trkpt lat="43.7776017" lon="12.3363583"><ele>728.0</ele><time>2026-04-06T14:20:34.685Z</time></trkpt><trkpt lat="43.7776983" lon="12.3363633"><ele>728.0</ele><time>2026-04-06T14:20:35.685Z</time></trkpt><trkpt lat="43.7777867" lon="12.3363783"><ele>728.0</ele><time>2026-04-06T14:20:36.684Z</time></trkpt><trkpt lat="43.7778667" lon="12.3364017"><ele>728.0</ele><time>2026-04-06T14:20:37.687Z</time></trkpt><trkpt lat="43.7779483" lon="12.336435"><ele>728.0</ele><time>2026-04-06T14:20:38.686Z</time></trkpt><trkpt lat="43.77803" lon="12.3364767"><ele>727.3333333333333</ele><time>2026-04-06T14:20:39.684Z</time></trkpt><trkpt lat="43.7781083" lon="12.3365233"><ele>726.6666666666666</ele><time>2026-04-06T14:20:40.685Z</time></trkpt><trkpt lat="43.7781833" lon="12.33657"><ele>726.0</ele><time>2026-04-06T14:20:41.686Z</time></trkpt><trkpt lat="43.778255" lon="12.33662"><ele>725.3333333333334</ele><time>2026-04-06T14:20:42.685Z</time></trkpt><trkpt lat="43.7783283" lon="12.3366733"><ele>724.6666666666667</ele><time>2026-04-06T14:20:43.687Z</time></trkpt><trkpt lat="43.778405" lon="12.33673"><ele>724.0</ele><time>2026-04-06T14:20:44.684Z</time></trkpt><trkpt lat="43.778485" lon="12.33679"><ele>724.0</ele><time>2026-04-06T14:20:45.686Z</time></trkpt><trkpt lat="43.7785617" lon="12.33685"><ele>724.0</ele><time>2026-04-06T14:20:46.689Z</time></trkpt><trkpt lat="43.77864" lon="12.3369083"><ele>724.0</ele><time>2026-04-06T14:20:47.684Z</time></trkpt><trkpt lat="43.7787217" lon="12.3369717"><ele>724.0</ele><time>2026-04-06T14:20:48.685Z</time></trkpt><trkpt lat="43.7788067" lon="12.3370383"><ele>724.0</ele><time>2026-04-06T14:20:49.687Z</time></trkpt><trkpt lat="43.778895" lon="12.337105"><ele>724.0</ele><time>2026-04-06T14:20:50.685Z</time></trkpt><trkpt lat="43.7789867" lon="12.3371733"><ele>724.0</ele><time>2026-04-06T14:20:51.683Z</time></trkpt><trkpt lat="43.7790867" lon="12.3372433"><ele>724.0</ele><time>2026-04-06T14:20:52.686Z</time></trkpt><trkpt lat="43.7791967" lon="12.3373217"><ele>724.0</ele><time>2026-04-06T14:20:53.686Z</time></trkpt><trkpt lat="43.77931" lon="12.3374017"><ele>724.25</ele><time>2026-04-06T14:20:54.686Z</time></trkpt><trkpt lat="43.7794217" lon="12.337485"><ele>724.5</ele><time>2026-04-06T14:20:55.688Z</time></trkpt><trkpt lat="43.779535" lon="12.3375683"><ele>724.75</ele><time>2026-04-06T14:20:56.686Z</time></trkpt><trkpt lat="43.7796467" lon="12.3376583"><ele>725.0</ele><time>2026-04-06T14:20:57.685Z</time></trkpt><trkpt lat="43.7797533" lon="12.3377583"><ele>725.0</ele><time>2026-04-06T14:20:58.686Z</time></trkpt><trkpt lat="43.7798517" lon="12.3378783"><ele>725.0</ele><time>2026-04-06T14:20:59.684Z</time></trkpt><trkpt lat="43.7799383" lon="12.338015"><ele>725.0</ele><time>2026-04-06T14:21:00.687Z</time></trkpt><trkpt lat="43.78001" lon="12.3381667"><ele>725.0</ele><time>2026-04-06T14:21:01.687Z</time></trkpt><trkpt lat="43.7800733" lon="12.3383333"><ele>725.25</ele><time>2026-04-06T14:21:02.686Z</time></trkpt><trkpt lat="43.78013" lon="12.3385117"><ele>725.5</ele><time>2026-04-06T14:21:03.685Z</time></trkpt><trkpt lat="43.7801867" lon="12.3386933"><ele>725.75</ele><time>2026-04-06T14:21:04.687Z</time></trkpt><trkpt lat="43.7802433" lon="12.3388833"><ele>726.0</ele><time>2026-04-06T14:21:05.681Z</time></trkpt><trkpt lat="43.7803017" lon="12.3390783"><ele>725.0</ele><time>2026-04-06T14:21:06.683Z</time></trkpt><trkpt lat="43.7803617" lon="12.339275"><ele>724.0</ele><time>2026-04-06T14:21:07.688Z</time></trkpt><trkpt lat="43.78042" lon="12.339465"><ele>723.0</ele><time>2026-04-06T14:21:08.686Z</time></trkpt><trkpt lat="43.7804733" lon="12.3396417"><ele>722.0</ele><time>2026-04-06T14:21:09.685Z</time></trkpt><trkpt lat="43.7805233" lon="12.3398117"><ele>721.0</ele><time>2026-04-06T14:21:10.686Z</time></trkpt><trkpt lat="43.780575" lon="12.3399767"><ele>720.0</ele><time>2026-04-06T14:21:11.686Z</time></trkpt><trkpt lat="43.7806267" lon="12.3401433"><ele>719.0</ele><time>2026-04-06T14:21:12.686Z</time></trkpt><trkpt lat="43.7806817" lon="12.3403167"><ele>718.0</ele><time>2026-04-06T14:21:13.686Z</time></trkpt><trkpt lat="43.7807367" lon="12.3404933"><ele>717.0</ele><time>2026-04-06T14:21:14.683Z</time></trkpt><trkpt lat="43.7807933" lon="12.34067"><ele>716.0</ele><time>2026-04-06T14:21:15.684Z</time></trkpt><trkpt lat="43.7808483" lon="12.3408417"><ele>715.0</ele><time>2026-04-06T14:21:16.685Z</time></trkpt><trkpt lat="43.780905" lon="12.3410133"><ele>714.0</ele><time>2026-04-06T14:21:17.684Z</time></trkpt><trkpt lat="43.7809583" lon="12.341185"><ele>714.0</ele><time>2026-04-06T14:21:18.684Z</time></trkpt><trkpt lat="43.78101" lon="12.3413567"><ele>714.0</ele><time>2026-04-06T14:21:19.687Z</time></trkpt><trkpt lat="43.7810633" lon="12.341535"><ele>714.0</ele><time>2026-04-06T14:21:20.683Z</time></trkpt><trkpt lat="43.7811217" lon="12.341725"><ele>714.0</ele><time>2026-04-06T14:21:21.685Z</time></trkpt><trkpt lat="43.7811867" lon="12.3419267"><ele>713.6666666666666</ele><time>2026-04-06T14:21:22.684Z</time></trkpt><trkpt lat="43.781255" lon="12.342135"><ele>713.3333333333333</ele><time>2026-04-06T14:21:23.685Z</time></trkpt><trkpt lat="43.7813217" lon="12.3423517"><ele>713.0</ele><time>2026-04-06T14:21:24.686Z</time></trkpt><trkpt lat="43.781385" lon="12.3425633"><ele>712.0</ele><time>2026-04-06T14:21:25.687Z</time></trkpt><trkpt lat="43.78145" lon="12.342775"><ele>711.0</ele><time>2026-04-06T14:21:26.684Z</time></trkpt><trkpt lat="43.7815233" lon="12.342995"><ele>710.0</ele><time>2026-04-06T14:21:27.688Z</time></trkpt><trkpt lat="43.7815967" lon="12.3432217"><ele>706.0</ele><time>2026-04-06T14:21:28.685Z</time></trkpt><trkpt lat="43.781665" lon="12.3434533"><ele>702.0</ele><time>2026-04-06T14:21:29.684Z</time></trkpt><trkpt lat="43.7817333" lon="12.3436833"><ele>698.0</ele><time>2026-04-06T14:21:30.685Z</time></trkpt><trkpt lat="43.7817917" lon="12.3439117"><ele>699.3333333333333</ele><time>2026-04-06T14:21:31.687Z</time></trkpt><trkpt lat="43.78184" lon="12.3441367"><ele>700.6666666666666</ele><time>2026-04-06T14:21:32.684Z</time></trkpt><trkpt lat="43.78188" lon="12.344365"><ele>702.0</ele><time>2026-04-06T14:21:33.686Z</time></trkpt><trkpt lat="43.7819133" lon="12.3445933"><ele>701.3333333333334</ele><time>2026-04-06T14:21:34.685Z</time></trkpt><trkpt lat="43.7819467" lon="12.3448117"><ele>700.6666666666667</ele><time>2026-04-06T14:21:35.684Z</time></trkpt><trkpt lat="43.7819883" lon="12.345015"><ele>700.0</ele><time>2026-04-06T14:21:36.685Z</time></trkpt><trkpt lat="43.7820433" lon="12.34521"><ele>700.0</ele><time>2026-04-06T14:21:37.687Z</time></trkpt><trkpt lat="43.78212" lon="12.3453867"><ele>700.0</ele><time>2026-04-06T14:21:38.685Z</time></trkpt><trkpt lat="43.78222" lon="12.3455483"><ele>700.0</ele><time>2026-04-06T14:21:39.685Z</time></trkpt><trkpt lat="43.7823417" lon="12.3456967"><ele>699.0</ele><time>2026-04-06T14:21:40.684Z</time></trkpt><trkpt lat="43.78248" lon="12.3458367"><ele>698.0</ele><time>2026-04-06T14:21:41.685Z</time></trkpt><trkpt lat="43.7826283" lon="12.3459717"><ele>697.0</ele><time>2026-04-06T14:21:42.685Z</time></trkpt><trkpt lat="43.7827767" lon="12.34611"><ele>697.0</ele><time>2026-04-06T14:21:43.687Z</time></trkpt><trkpt lat="43.78293" lon="12.3462517"><ele>697.0</ele><time>2026-04-06T14:21:44.686Z</time></trkpt><trkpt lat="43.783085" lon="12.3463967"><ele>697.0</ele><time>2026-04-06T14:21:45.684Z</time></trkpt><trkpt lat="43.78324" lon="12.3465433"><ele>696.0</ele><time>2026-04-06T14:21:46.684Z</time></trkpt><trkpt lat="43.7833967" lon="12.3466883"><ele>695.0</ele><time>2026-04-06T14:21:47.685Z</time></trkpt><trkpt lat="43.7835533" lon="12.346835"><ele>694.0</ele><time>2026-04-06T14:21:48.683Z</time></trkpt><trkpt lat="43.78371" lon="12.3469817"><ele>694.0</ele><time>2026-04-06T14:21:49.685Z</time></trkpt><trkpt lat="43.7838683" lon="12.3471283"><ele>694.0</ele><time>2026-04-06T14:21:50.684Z</time></trkpt><trkpt lat="43.7840267" lon="12.3472767"><ele>694.0</ele><time>2026-04-06T14:21:51.684Z</time></trkpt><trkpt lat="43.784185" lon="12.3474267"><ele>694.3333333333334</ele><time>2026-04-06T14:21:52.687Z</time></trkpt><trkpt lat="43.784345" lon="12.3475767"><ele>694.6666666666666</ele><time>2026-04-06T14:21:53.686Z</time></trkpt><trkpt lat="43.7845033" lon="12.3477267"><ele>695.0</ele><time>2026-04-06T14:21:54.685Z</time></trkpt><trkpt lat="43.784665" lon="12.3478767"><ele>695.0</ele><time>2026-04-06T14:21:55.686Z</time></trkpt><trkpt lat="43.7848283" lon="12.34803"><ele>695.0</ele><time>2026-04-06T14:21:56.683Z</time></trkpt><trkpt lat="43.78499" lon="12.3481817"><ele>695.0</ele><time>2026-04-06T14:21:57.688Z</time></trkpt><trkpt lat="43.785155" lon="12.3483333"><ele>695.6666666666666</ele><time>2026-04-06T14:21:58.685Z</time></trkpt><trkpt lat="43.78532" lon="12.348485"><ele>696.3333333333334</ele><time>2026-04-06T14:21:59.685Z</time></trkpt><trkpt lat="43.7854767" lon="12.34864"><ele>697.0</ele><time>2026-04-06T14:22:00.684Z</time></trkpt><trkpt lat="43.78561" lon="12.3488017"><ele>695.6666666666667</ele><time>2026-04-06T14:22:01.687Z</time></trkpt><trkpt lat="43.7857183" lon="12.3489867"><ele>694.3333333333334</ele><time>2026-04-06T14:22:02.685Z</time></trkpt><trkpt lat="43.7858" lon="12.349195"><ele>693.0</ele><time>2026-04-06T14:22:03.685Z</time></trkpt><trkpt lat="43.7858617" lon="12.3494183"><ele>693.0</ele><time>2026-04-06T14:22:04.684Z</time></trkpt><trkpt lat="43.7859183" lon="12.3496533"><ele>693.0</ele><time>2026-04-06T14:22:05.685Z</time></trkpt><trkpt lat="43.785975" lon="12.349895"><ele>693.0</ele><time>2026-04-06T14:22:06.685Z</time></trkpt><trkpt lat="43.786035" lon="12.35014"><ele>694.6666666666666</ele><time>2026-04-06T14:22:07.683Z</time></trkpt><trkpt lat="43.78609" lon="12.3503733"><ele>696.3333333333333</ele><time>2026-04-06T14:22:08.684Z</time></trkpt><trkpt lat="43.7861433" lon="12.350595"><ele>698.0</ele><time>2026-04-06T14:22:09.686Z</time></trkpt><trkpt lat="43.786195" lon="12.3508017"><ele>698.0</ele><time>2026-04-06T14:22:10.689Z</time></trkpt><trkpt lat="43.7862417" lon="12.3509933"><ele>698.0</ele><time>2026-04-06T14:22:11.686Z</time></trkpt><trkpt lat="43.7862867" lon="12.351175"><ele>698.0</ele><time>2026-04-06T14:22:12.684Z</time></trkpt><trkpt lat="43.7863333" lon="12.351355"><ele>698.0</ele><time>2026-04-06T14:22:13.684Z</time></trkpt><trkpt lat="43.7863833" lon="12.3515383"><ele>698.0</ele><time>2026-04-06T14:22:14.685Z</time></trkpt><trkpt lat="43.7864383" lon="12.35172"><ele>698.0</ele><time>2026-04-06T14:22:15.685Z</time></trkpt><trkpt lat="43.7864983" lon="12.3518933"><ele>698.0</ele><time>2026-04-06T14:22:16.683Z</time></trkpt><trkpt lat="43.7865583" lon="12.3520567"><ele>698.0</ele><time>2026-04-06T14:22:17.684Z</time></trkpt><trkpt lat="43.7866183" lon="12.3522167"><ele>698.0</ele><time>2026-04-06T14:22:18.685Z</time></trkpt><trkpt lat="43.78668" lon="12.35238"><ele>698.0</ele><time>2026-04-06T14:22:19.684Z</time></trkpt><trkpt lat="43.7867417" lon="12.3525433"><ele>698.0</ele><time>2026-04-06T14:22:20.682Z</time></trkpt><trkpt lat="43.7868033" lon="12.3527033"><ele>698.0</ele><time>2026-04-06T14:22:21.682Z</time></trkpt><trkpt lat="43.7868683" lon="12.352865"><ele>702.5</ele><time>2026-04-06T14:22:22.685Z</time></trkpt><trkpt lat="43.78693" lon="12.3530317"><ele>707.0</ele><time>2026-04-06T14:22:23.686Z</time></trkpt><trkpt lat="43.78699" lon="12.3532067"><ele>711.5</ele><time>2026-04-06T14:22:24.685Z</time></trkpt><trkpt lat="43.78705" lon="12.3533883"><ele>716.0</ele><time>2026-04-06T14:22:25.687Z</time></trkpt><trkpt lat="43.7871167" lon="12.3535733"><ele>716.0</ele><time>2026-04-06T14:22:26.685Z</time></trkpt><trkpt lat="43.78719" lon="12.353765"><ele>716.0</ele><time>2026-04-06T14:22:27.686Z</time></trkpt><trkpt lat="43.7872567" lon="12.353965"><ele>716.0</ele><time>2026-04-06T14:22:28.686Z</time></trkpt><trkpt lat="43.7873167" lon="12.3541683"><ele>713.6666666666666</ele><time>2026-04-06T14:22:29.685Z</time></trkpt><trkpt lat="43.7873667" lon="12.354375"><ele>711.3333333333334</ele><time>2026-04-06T14:22:30.684Z</time></trkpt><trkpt lat="43.7873967" lon="12.35459"><ele>709.0</ele><time>2026-04-06T14:22:31.684Z</time></trkpt><trkpt lat="43.78741" lon="12.3548133"><ele>708.0</ele><time>2026-04-06T14:22:32.683Z</time></trkpt><trkpt lat="43.7874167" lon="12.35504"><ele>707.0</ele><time>2026-04-06T14:22:33.684Z</time></trkpt><trkpt lat="43.7874217" lon="12.35527"><ele>706.0</ele><time>2026-04-06T14:22:34.685Z</time></trkpt><trkpt lat="43.7874233" lon="12.3555017"><ele>705.6666666666667</ele><time>2026-04-06T14:22:35.682Z</time></trkpt><trkpt lat="43.7874267" lon="12.3557283"><ele>705.3333333333334</ele><time>2026-04-06T14:22:36.683Z</time></trkpt><trkpt lat="43.78744" lon="12.3559583"><ele>705.0</ele><time>2026-04-06T14:22:37.686Z</time></trkpt><trkpt lat="43.7874717" lon="12.3561833"><ele>704.3333333333334</ele><time>2026-04-06T14:22:38.683Z</time></trkpt><trkpt lat="43.78752" lon="12.3564033"><ele>703.6666666666667</ele><time>2026-04-06T14:22:39.684Z</time></trkpt><trkpt lat="43.7875783" lon="12.3566217"><ele>703.0</ele><time>2026-04-06T14:22:40.686Z</time></trkpt><trkpt lat="43.7876417" lon="12.3568383"><ele>706.6666666666667</ele><time>2026-04-06T14:22:41.683Z</time></trkpt><trkpt lat="43.7877067" lon="12.3570517"><ele>710.3333333333334</ele><time>2026-04-06T14:22:42.686Z</time></trkpt><trkpt lat="43.78777" lon="12.3572533"><ele>714.0</ele><time>2026-04-06T14:22:43.687Z</time></trkpt><trkpt lat="43.7878417" lon="12.3574333"><ele>714.0</ele><time>2026-04-06T14:22:44.685Z</time></trkpt><trkpt lat="43.787935" lon="12.3575917"><ele>714.0</ele><time>2026-04-06T14:22:45.684Z</time></trkpt><trkpt lat="43.78805" lon="12.3577267"><ele>714.0</ele><time>2026-04-06T14:22:46.683Z</time></trkpt><trkpt lat="43.7881867" lon="12.35783"><ele>714.0</ele><time>2026-04-06T14:22:47.686Z</time></trkpt><trkpt lat="43.7883367" lon="12.357905"><ele>714.0</ele><time>2026-04-06T14:22:48.683Z</time></trkpt><trkpt lat="43.7884967" lon="12.3579617"><ele>714.0</ele><time>2026-04-06T14:22:49.686Z</time></trkpt><trkpt lat="43.78866" lon="12.3580167"><ele>714.3333333333334</ele><time>2026-04-06T14:22:50.684Z</time></trkpt><trkpt lat="43.7888183" lon="12.3580733"><ele>714.6666666666667</ele><time>2026-04-06T14:22:51.684Z</time></trkpt><trkpt lat="43.7889683" lon="12.35815"><ele>715.0</ele><time>2026-04-06T14:22:52.686Z</time></trkpt><trkpt lat="43.7890983" lon="12.3582567"><ele>715.0</ele><time>2026-04-06T14:22:53.684Z</time></trkpt><trkpt lat="43.78921" lon="12.3583883"><ele>715.0</ele><time>2026-04-06T14:22:54.686Z</time></trkpt><trkpt lat="43.7893183" lon="12.3585317"><ele>715.0</ele><time>2026-04-06T14:22:55.686Z</time></trkpt><trkpt lat="43.7894233" lon="12.35868"><ele>715.0</ele><time>2026-04-06T14:22:56.686Z</time></trkpt><trkpt lat="43.7895267" lon="12.3588333"><ele>718.3333333333334</ele><time>2026-04-06T14:22:57.686Z</time></trkpt><trkpt lat="43.7896267" lon="12.3589967"><ele>721.6666666666666</ele><time>2026-04-06T14:22:58.686Z</time></trkpt><trkpt lat="43.7897117" lon="12.3591783"><ele>725.0</ele><time>2026-04-06T14:22:59.681Z</time></trkpt><trkpt lat="43.7897633" lon="12.3593767"><ele>725.0</ele><time>2026-04-06T14:23:00.686Z</time></trkpt><trkpt lat="43.7897783" lon="12.35959"><ele>725.0</ele><time>2026-04-06T14:23:01.686Z</time></trkpt><trkpt lat="43.7897533" lon="12.3598083"><ele>725.0</ele><time>2026-04-06T14:23:02.683Z</time></trkpt><trkpt lat="43.7897033" lon="12.3600283"><ele>724.6666666666666</ele><time>2026-04-06T14:23:03.686Z</time></trkpt><trkpt lat="43.7896333" lon="12.36024"><ele>724.3333333333334</ele><time>2026-04-06T14:23:04.684Z</time></trkpt><trkpt lat="43.7895583" lon="12.3604383"><ele>724.0</ele><time>2026-04-06T14:23:05.687Z</time></trkpt><trkpt lat="43.789485" lon="12.360615"><ele>725.5</ele><time>2026-04-06T14:23:06.684Z</time></trkpt><trkpt lat="43.7894183" lon="12.36078"><ele>727.0</ele><time>2026-04-06T14:23:07.686Z</time></trkpt><trkpt lat="43.78935" lon="12.3609333"><ele>728.5</ele><time>2026-04-06T14:23:08.684Z</time></trkpt><trkpt lat="43.7892933" lon="12.3610767"><ele>730.0</ele><time>2026-04-06T14:23:09.686Z</time></trkpt><trkpt lat="43.789255" lon="12.3612217"><ele>728.6</ele><time>2026-04-06T14:23:10.685Z</time></trkpt><trkpt lat="43.78924" lon="12.3613517"><ele>727.2</ele><time>2026-04-06T14:23:11.686Z</time></trkpt><trkpt lat="43.7892567" lon="12.3614617"><ele>725.8</ele><time>2026-04-06T14:23:12.685Z</time></trkpt><trkpt lat="43.7893" lon="12.36155"><ele>724.4</ele><time>2026-04-06T14:23:13.686Z</time></trkpt><trkpt lat="43.7893767" lon="12.36161"><ele>723.0</ele><time>2026-04-06T14:23:14.686Z</time></trkpt><trkpt lat="43.7894883" lon="12.3616433"><ele>723.0</ele><time>2026-04-06T14:23:15.684Z</time></trkpt><trkpt lat="43.789625" lon="12.3616333"><ele>723.0</ele><time>2026-04-06T14:23:16.684Z</time></trkpt><trkpt lat="43.7897683" lon="12.3616183"><ele>723.0</ele><time>2026-04-06T14:23:17.685Z</time></trkpt><trkpt lat="43.7899117" lon="12.3616083"><ele>723.0</ele><time>2026-04-06T14:23:18.683Z</time></trkpt><trkpt lat="43.7900533" lon="12.3616083"><ele>726.0</ele><time>2026-04-06T14:23:19.686Z</time></trkpt><trkpt lat="43.79019" lon="12.3616133"><ele>729.0</ele><time>2026-04-06T14:23:20.684Z</time></trkpt><trkpt lat="43.7903333" lon="12.3616333"><ele>732.0</ele><time>2026-04-06T14:23:21.688Z</time></trkpt><trkpt lat="43.790485" lon="12.3616817"><ele>735.0</ele><time>2026-04-06T14:23:22.684Z</time></trkpt><trkpt lat="43.79063" lon="12.3617617"><ele>735.0</ele><time>2026-04-06T14:23:23.688Z</time></trkpt><trkpt lat="43.79076" lon="12.3618867"><ele>735.0</ele><time>2026-04-06T14:23:24.686Z</time></trkpt><trkpt lat="43.7908833" lon="12.3620433"><ele>735.0</ele><time>2026-04-06T14:23:25.685Z</time></trkpt><trkpt lat="43.7909917" lon="12.362215"><ele>738.6666666666666</ele><time>2026-04-06T14:23:26.685Z</time></trkpt><trkpt lat="43.7911" lon="12.3623867"><ele>742.3333333333333</ele><time>2026-04-06T14:23:27.686Z</time></trkpt><trkpt lat="43.7912117" lon="12.3625583"><ele>746.0</ele><time>2026-04-06T14:23:28.685Z</time></trkpt><trkpt lat="43.7913267" lon="12.3627317"><ele>746.0</ele><time>2026-04-06T14:23:29.684Z</time></trkpt><trkpt lat="43.7914433" lon="12.3629017"><ele>746.0</ele><time>2026-04-06T14:23:30.686Z</time></trkpt><trkpt lat="43.791555" lon="12.3630667"><ele>746.0</ele><time>2026-04-06T14:23:31.686Z</time></trkpt><trkpt lat="43.7916633" lon="12.3632217"><ele>747.3333333333333</ele><time>2026-04-06T14:23:32.685Z</time></trkpt><trkpt lat="43.79177" lon="12.363375"><ele>748.6666666666666</ele><time>2026-04-06T14:23:33.685Z</time></trkpt><trkpt lat="43.791865" lon="12.3635367"><ele>750.0</ele><time>2026-04-06T14:23:34.684Z</time></trkpt><trkpt lat="43.7919433" lon="12.36371"><ele>750.25</ele><time>2026-04-06T14:23:35.683Z</time></trkpt><trkpt lat="43.7919967" lon="12.3638983"><ele>750.5</ele><time>2026-04-06T14:23:36.686Z</time></trkpt><trkpt lat="43.7920217" lon="12.3641"><ele>750.75</ele><time>2026-04-06T14:23:37.686Z</time></trkpt><trkpt lat="43.792025" lon="12.3643117"><ele>751.0</ele><time>2026-04-06T14:23:38.686Z</time></trkpt><trkpt lat="43.7920083" lon="12.3645283"><ele>751.0</ele><time>2026-04-06T14:23:39.685Z</time></trkpt><trkpt lat="43.7919867" lon="12.3647383"><ele>751.0</ele><time>2026-04-06T14:23:40.687Z</time></trkpt><trkpt lat="43.7919633" lon="12.3649467"><ele>751.0</ele><time>2026-04-06T14:23:41.685Z</time></trkpt><trkpt lat="43.7919417" lon="12.3651633"><ele>751.0</ele><time>2026-04-06T14:23:42.685Z</time></trkpt><trkpt lat="43.79192" lon="12.3653883"><ele>751.0</ele><time>2026-04-06T14:23:43.686Z</time></trkpt><trkpt lat="43.7919" lon="12.3656067"><ele>751.0</ele><time>2026-04-06T14:23:44.686Z</time></trkpt><trkpt lat="43.7918767" lon="12.3658183"><ele>749.75</ele><time>2026-04-06T14:23:45.685Z</time></trkpt><trkpt lat="43.7918567" lon="12.3660083"><ele>748.5</ele><time>2026-04-06T14:23:46.683Z</time></trkpt><trkpt lat="43.791845" lon="12.36618"><ele>747.25</ele><time>2026-04-06T14:23:47.686Z</time></trkpt><trkpt lat="43.7918533" lon="12.3663283"><ele>746.0</ele><time>2026-04-06T14:23:48.683Z</time></trkpt><trkpt lat="43.7918817" lon="12.3664633"><ele>744.5999999999999</ele><time>2026-04-06T14:23:49.686Z</time></trkpt><trkpt lat="43.7919067" lon="12.3665883"><ele>743.2</ele><time>2026-04-06T14:23:50.684Z</time></trkpt><trkpt lat="43.7919183" lon="12.3667117"><ele>741.8</ele><time>2026-04-06T14:23:51.683Z</time></trkpt><trkpt lat="43.7918983" lon="12.3668383"><ele>740.4000000000001</ele><time>2026-04-06T14:23:52.684Z</time></trkpt><trkpt lat="43.7918733" lon="12.366975"><ele>739.0</ele><time>2026-04-06T14:23:53.687Z</time></trkpt><trkpt lat="43.79184" lon="12.3671083"><ele>738.5</ele><time>2026-04-06T14:23:54.684Z</time></trkpt><trkpt lat="43.7918117" lon="12.3672333"><ele>738.0</ele><time>2026-04-06T14:23:55.687Z</time></trkpt><trkpt lat="43.7917833" lon="12.3673467"><ele>737.5</ele><time>2026-04-06T14:23:56.685Z</time></trkpt><trkpt lat="43.79176" lon="12.36745"><ele>737.0</ele><time>2026-04-06T14:23:57.684Z</time></trkpt><trkpt lat="43.7917383" lon="12.36754"><ele>736.5</ele><time>2026-04-06T14:23:58.684Z</time></trkpt><trkpt lat="43.7917033" lon="12.36764"><ele>736.0</ele><time>2026-04-06T14:24:00.685Z</time></trkpt><trkpt lat="43.7917117" lon="12.3677567"><ele>736.0</ele><time>2026-04-06T14:27:39.685Z</time></trkpt><trkpt lat="43.79169" lon="12.3678933"><ele>736.0</ele><time>2026-04-06T14:27:41.686Z</time></trkpt><trkpt lat="43.79167" lon="12.3679767"><ele>736.0</ele><time>2026-04-06T14:27:42.684Z</time></trkpt><trkpt lat="43.7916117" lon="12.3681333"><ele>736.0</ele><time>2026-04-06T14:27:44.686Z</time></trkpt><trkpt lat="43.7915767" lon="12.36821"><ele>736.0</ele><time>2026-04-06T14:27:45.685Z</time></trkpt><trkpt lat="43.7915417" lon="12.368285"><ele>736.0</ele><time>2026-04-06T14:27:46.685Z</time></trkpt><trkpt lat="43.7915017" lon="12.3683683"><ele>735.6666666666667</ele><time>2026-04-06T14:27:47.682Z</time></trkpt><trkpt lat="43.79146" lon="12.36846"><ele>735.3333333333334</ele><time>2026-04-06T14:27:48.683Z</time></trkpt><trkpt lat="43.791415" lon="12.3685617"><ele>735.0</ele><time>2026-04-06T14:27:49.685Z</time></trkpt><trkpt lat="43.7913667" lon="12.368665"><ele>734.6666666666666</ele><time>2026-04-06T14:27:50.683Z</time></trkpt><trkpt lat="43.7913183" lon="12.3687683"><ele>734.3333333333333</ele><time>2026-04-06T14:27:51.683Z</time></trkpt><trkpt lat="43.7912717" lon="12.368875"><ele>734.0</ele><time>2026-04-06T14:27:52.684Z</time></trkpt><trkpt lat="43.7912233" lon="12.3689817"><ele>732.6666666666666</ele><time>2026-04-06T14:27:53.685Z</time></trkpt><trkpt lat="43.7911767" lon="12.3690867"><ele>731.3333333333333</ele><time>2026-04-06T14:27:54.684Z</time></trkpt><trkpt lat="43.7911333" lon="12.3691867"><ele>730.0</ele><time>2026-04-06T14:27:55.684Z</time></trkpt><trkpt lat="43.7910883" lon="12.3692833"><ele>728.6666666666666</ele><time>2026-04-06T14:27:56.684Z</time></trkpt><trkpt lat="43.7910417" lon="12.369375"><ele>727.3333333333334</ele><time>2026-04-06T14:27:57.685Z</time></trkpt><trkpt lat="43.790995" lon="12.3694683"><ele>726.0</ele><time>2026-04-06T14:27:58.686Z</time></trkpt><trkpt lat="43.7909433" lon="12.369565"><ele>725.8</ele><time>2026-04-06T14:27:59.686Z</time></trkpt><trkpt lat="43.7908833" lon="12.3696683"><ele>725.5999999999999</ele><time>2026-04-06T14:28:00.684Z</time></trkpt><trkpt lat="43.7908183" lon="12.3697783"><ele>725.4</ele><time>2026-04-06T14:28:01.686Z</time></trkpt><trkpt lat="43.79075" lon="12.369895"><ele>725.2</ele><time>2026-04-06T14:28:02.685Z</time></trkpt><trkpt lat="43.790685" lon="12.3700167"><ele>725.0</ele><time>2026-04-06T14:28:03.686Z</time></trkpt><trkpt lat="43.7906217" lon="12.37014"><ele>724.6</ele><time>2026-04-06T14:28:04.685Z</time></trkpt><trkpt lat="43.7905617" lon="12.3702633"><ele>724.2</ele><time>2026-04-06T14:28:05.684Z</time></trkpt><trkpt lat="43.790515" lon="12.37039"><ele>723.8</ele><time>2026-04-06T14:28:06.685Z</time></trkpt><trkpt lat="43.7904883" lon="12.370525"><ele>723.4</ele><time>2026-04-06T14:28:07.686Z</time></trkpt><trkpt lat="43.79048" lon="12.3706717"><ele>723.0</ele><time>2026-04-06T14:28:08.684Z</time></trkpt><trkpt lat="43.79049" lon="12.3708283"><ele>723.0</ele><time>2026-04-06T14:28:09.684Z</time></trkpt><trkpt lat="43.7905067" lon="12.370995"><ele>723.0</ele><time>2026-04-06T14:28:10.684Z</time></trkpt><trkpt lat="43.7905267" lon="12.3711633"><ele>723.0</ele><time>2026-04-06T14:28:11.686Z</time></trkpt><trkpt lat="43.790545" lon="12.37132"><ele>723.0</ele><time>2026-04-06T14:28:12.685Z</time></trkpt><trkpt lat="43.790555" lon="12.3714767"><ele>723.0</ele><time>2026-04-06T14:28:13.684Z</time></trkpt><trkpt lat="43.7905583" lon="12.371635"><ele>723.0</ele><time>2026-04-06T14:28:14.684Z</time></trkpt><trkpt lat="43.79055" lon="12.3717783"><ele>723.0</ele><time>2026-04-06T14:28:15.685Z</time></trkpt><trkpt lat="43.79053" lon="12.3719083"><ele>723.0</ele><time>2026-04-06T14:28:16.685Z</time></trkpt><trkpt lat="43.790495" lon="12.3720233"><ele>723.0</ele><time>2026-04-06T14:28:17.684Z</time></trkpt><trkpt lat="43.7904467" lon="12.3721333"><ele>723.4</ele><time>2026-04-06T14:28:18.686Z</time></trkpt><trkpt lat="43.7903683" lon="12.3722317"><ele>723.8</ele><time>2026-04-06T14:28:19.684Z</time></trkpt><trkpt lat="43.7902867" lon="12.37232"><ele>724.2</ele><time>2026-04-06T14:28:20.685Z</time></trkpt><trkpt lat="43.7902033" lon="12.3724"><ele>724.6</ele><time>2026-04-06T14:28:21.684Z</time></trkpt><trkpt lat="43.7901217" lon="12.3724767"><ele>725.0</ele><time>2026-04-06T14:28:22.683Z</time></trkpt><trkpt lat="43.7900417" lon="12.3725417"><ele>727.8333333333333</ele><time>2026-04-06T14:28:23.685Z</time></trkpt><trkpt lat="43.7899617" lon="12.3725883"><ele>730.6666666666666</ele><time>2026-04-06T14:28:24.684Z</time></trkpt><trkpt lat="43.7898783" lon="12.37262"><ele>733.5</ele><time>2026-04-06T14:28:25.686Z</time></trkpt><trkpt lat="43.789785" lon="12.37263"><ele>736.3333333333334</ele><time>2026-04-06T14:28:26.684Z</time></trkpt><trkpt lat="43.7896917" lon="12.3726433"><ele>739.1666666666667</ele><time>2026-04-06T14:28:27.684Z</time></trkpt><trkpt lat="43.7896083" lon="12.37268"><ele>742.0</ele><time>2026-04-06T14:28:28.685Z</time></trkpt><trkpt lat="43.7895333" lon="12.3727383"><ele>742.0</ele><time>2026-04-06T14:28:29.686Z</time></trkpt><trkpt lat="43.7894617" lon="12.37281"><ele>742.0</ele><time>2026-04-06T14:28:30.685Z</time></trkpt><trkpt lat="43.7893883" lon="12.3728783"><ele>742.0</ele><time>2026-04-06T14:28:31.685Z</time></trkpt><trkpt lat="43.7893083" lon="12.3729283"><ele>742.0</ele><time>2026-04-06T14:28:32.684Z</time></trkpt><trkpt lat="43.78923" lon="12.37297"><ele>742.0</ele><time>2026-04-06T14:28:33.687Z</time></trkpt><trkpt lat="43.7891483" lon="12.3730117"><ele>742.0</ele><time>2026-04-06T14:28:34.685Z</time></trkpt><trkpt lat="43.7890733" lon="12.3730767"><ele>744.6666666666667</ele><time>2026-04-06T14:28:35.683Z</time></trkpt><trkpt lat="43.789" lon="12.3731583"><ele>747.3333333333334</ele><time>2026-04-06T14:28:36.683Z</time></trkpt><trkpt lat="43.7889333" lon="12.3732433"><ele>750.0</ele><time>2026-04-06T14:28:37.687Z</time></trkpt><trkpt lat="43.788865" lon="12.3733217"><ele>752.6666666666666</ele><time>2026-04-06T14:28:38.686Z</time></trkpt><trkpt lat="43.788795" lon="12.3733867"><ele>755.3333333333333</ele><time>2026-04-06T14:28:39.684Z</time></trkpt><trkpt lat="43.7887333" lon="12.373445"><ele>758.0</ele><time>2026-04-06T14:28:40.684Z</time></trkpt><trkpt lat="43.7886417" lon="12.3735533"><ele>758.0</ele><time>2026-04-06T14:28:42.684Z</time></trkpt><trkpt lat="43.7885767" lon="12.3736783"><ele>758.0</ele><time>2026-04-06T14:28:44.684Z</time></trkpt><trkpt lat="43.7885133" lon="12.37382"><ele>758.0</ele><time>2026-04-06T14:28:46.685Z</time></trkpt><trkpt lat="43.788475" lon="12.3739033"><ele>758.0</ele><time>2026-04-06T14:28:47.688Z</time></trkpt><trkpt lat="43.78844" lon="12.37399"><ele>758.0</ele><time>2026-04-06T14:28:48.683Z</time></trkpt><trkpt lat="43.7884067" lon="12.3740783"><ele>758.0</ele><time>2026-04-06T14:28:49.69Z</time></trkpt><trkpt lat="43.7883717" lon="12.374175"><ele>757.5</ele><time>2026-04-06T14:28:50.685Z</time></trkpt><trkpt lat="43.78834" lon="12.3742733"><ele>757.0</ele><time>2026-04-06T14:28:51.685Z</time></trkpt><trkpt lat="43.7883133" lon="12.3743733"><ele>756.5</ele><time>2026-04-06T14:28:52.684Z</time></trkpt><trkpt lat="43.7883" lon="12.37448"><ele>756.0</ele><time>2026-04-06T14:28:53.684Z</time></trkpt><trkpt lat="43.7883033" lon="12.374585"><ele>755.5</ele><time>2026-04-06T14:28:54.684Z</time></trkpt><trkpt lat="43.7883167" lon="12.374675"><ele>755.0</ele><time>2026-04-06T14:28:55.684Z</time></trkpt><trkpt lat="43.7883467" lon="12.3748083"><ele>755.0</ele><time>2026-04-06T14:28:57.683Z</time></trkpt><trkpt lat="43.78838" lon="12.3749117"><ele>755.0</ele><time>2026-04-06T14:28:59.684Z</time></trkpt><trkpt lat="43.788435" lon="12.3750433"><ele>755.0</ele><time>2026-04-06T14:29:01.687Z</time></trkpt><trkpt lat="43.7884717" lon="12.375125"><ele>755.0</ele><time>2026-04-06T14:29:02.686Z</time></trkpt><trkpt lat="43.788505" lon="12.3752167"><ele>755.0</ele><time>2026-04-06T14:29:03.686Z</time></trkpt><trkpt lat="43.7885333" lon="12.37532"><ele>755.0</ele><time>2026-04-06T14:29:04.684Z</time></trkpt><trkpt lat="43.7885617" lon="12.375435"><ele>757.8</ele><time>2026-04-06T14:29:05.685Z</time></trkpt><trkpt lat="43.78859" lon="12.3755517"><ele>760.6</ele><time>2026-04-06T14:29:06.686Z</time></trkpt><trkpt lat="43.7886217" lon="12.3756683"><ele>763.4000000000001</ele><time>2026-04-06T14:29:07.687Z</time></trkpt><trkpt lat="43.7886533" lon="12.3757917"><ele>766.2</ele><time>2026-04-06T14:29:08.684Z</time></trkpt><trkpt lat="43.78868" lon="12.375925"><ele>769.0</ele><time>2026-04-06T14:29:09.685Z</time></trkpt><trkpt lat="43.7886933" lon="12.3760667"><ele>769.0</ele><time>2026-04-06T14:29:10.683Z</time></trkpt><trkpt lat="43.7886967" lon="12.376215"><ele>769.0</ele><time>2026-04-06T14:29:11.686Z</time></trkpt><trkpt lat="43.788695" lon="12.3763683"><ele>769.0</ele><time>2026-04-06T14:29:12.685Z</time></trkpt><trkpt lat="43.7886983" lon="12.376515"><ele>769.0</ele><time>2026-04-06T14:29:13.685Z</time></trkpt><trkpt lat="43.7887017" lon="12.3766583"><ele>769.0</ele><time>2026-04-06T14:29:14.687Z</time></trkpt><trkpt lat="43.7887067" lon="12.3767983"><ele>768.0</ele><time>2026-04-06T14:29:15.686Z</time></trkpt><trkpt lat="43.7887083" lon="12.376935"><ele>767.0</ele><time>2026-04-06T14:29:16.685Z</time></trkpt><trkpt lat="43.7887183" lon="12.3770717"><ele>766.0</ele><time>2026-04-06T14:29:17.685Z</time></trkpt><trkpt lat="43.7887333" lon="12.3772117"><ele>765.0</ele><time>2026-04-06T14:29:18.683Z</time></trkpt><trkpt lat="43.7887567" lon="12.377345"><ele>764.0</ele><time>2026-04-06T14:29:19.685Z</time></trkpt><trkpt lat="43.7887933" lon="12.3774617"><ele>763.8333333333333</ele><time>2026-04-06T14:29:20.684Z</time></trkpt><trkpt lat="43.788835" lon="12.377565"><ele>763.6666666666666</ele><time>2026-04-06T14:29:21.683Z</time></trkpt><trkpt lat="43.7888683" lon="12.3776717"><ele>763.5</ele><time>2026-04-06T14:29:22.684Z</time></trkpt><trkpt lat="43.788885" lon="12.377785"><ele>763.3333333333334</ele><time>2026-04-06T14:29:23.685Z</time></trkpt><trkpt lat="43.78888" lon="12.3779033"><ele>763.1666666666667</ele><time>2026-04-06T14:29:24.684Z</time></trkpt><trkpt lat="43.7888583" lon="12.3780083"><ele>763.0</ele><time>2026-04-06T14:29:25.686Z</time></trkpt><trkpt lat="43.7888333" lon="12.3780967"><ele>762.1666666666667</ele><time>2026-04-06T14:29:26.686Z</time></trkpt><trkpt lat="43.7887583" lon="12.3782333"><ele>761.3333333333334</ele><time>2026-04-06T14:29:28.685Z</time></trkpt><trkpt lat="43.7887067" lon="12.3782967"><ele>760.5</ele><time>2026-04-06T14:29:29.685Z</time></trkpt><trkpt lat="43.7886517" lon="12.3783567"><ele>759.6666666666666</ele><time>2026-04-06T14:29:30.685Z</time></trkpt><trkpt lat="43.788595" lon="12.3784283"><ele>758.8333333333333</ele><time>2026-04-06T14:29:31.684Z</time></trkpt><trkpt lat="43.7885467" lon="12.3785183"><ele>758.0</ele><time>2026-04-06T14:29:32.684Z</time></trkpt><trkpt lat="43.7885033" lon="12.378615"><ele>757.4</ele><time>2026-04-06T14:29:33.684Z</time></trkpt><trkpt lat="43.7884583" lon="12.37872"><ele>756.8</ele><time>2026-04-06T14:29:34.688Z</time></trkpt><trkpt lat="43.7884167" lon="12.37883"><ele>756.2</ele><time>2026-04-06T14:29:35.687Z</time></trkpt><trkpt lat="43.78837" lon="12.3789433"><ele>755.6</ele><time>2026-04-06T14:29:36.683Z</time></trkpt><trkpt lat="43.7883233" lon="12.379055"><ele>755.0</ele><time>2026-04-06T14:29:37.686Z</time></trkpt><trkpt lat="43.7882783" lon="12.3791683"><ele>756.0</ele><time>2026-04-06T14:29:38.686Z</time></trkpt><trkpt lat="43.7882433" lon="12.3792783"><ele>757.0</ele><time>2026-04-06T14:29:39.686Z</time></trkpt><trkpt lat="43.7882083" lon="12.3793767"><ele>758.0</ele><time>2026-04-06T14:29:40.686Z</time></trkpt><trkpt lat="43.788175" lon="12.379465"><ele>759.0</ele><time>2026-04-06T14:29:41.685Z</time></trkpt><trkpt lat="43.7881383" lon="12.3795483"><ele>760.0</ele><time>2026-04-06T14:29:42.685Z</time></trkpt><trkpt lat="43.7881033" lon="12.3796283"><ele>761.0</ele><time>2026-04-06T14:29:43.683Z</time></trkpt><trkpt lat="43.788065" lon="12.3797217"><ele>761.8333333333333</ele><time>2026-04-06T14:29:44.683Z</time></trkpt><trkpt lat="43.7880217" lon="12.3798217"><ele>762.6666666666666</ele><time>2026-04-06T14:29:45.683Z</time></trkpt><trkpt lat="43.7879783" lon="12.379925"><ele>763.5</ele><time>2026-04-06T14:29:46.683Z</time></trkpt><trkpt lat="43.787935" lon="12.3800367"><ele>764.3333333333334</ele><time>2026-04-06T14:29:47.686Z</time></trkpt><trkpt lat="43.7878917" lon="12.3801517"><ele>765.1666666666667</ele><time>2026-04-06T14:29:48.684Z</time></trkpt><trkpt lat="43.7878467" lon="12.380265"><ele>766.0</ele><time>2026-04-06T14:29:49.685Z</time></trkpt><trkpt lat="43.7878" lon="12.3803833"><ele>766.0</ele><time>2026-04-06T14:29:50.685Z</time></trkpt><trkpt lat="43.7877533" lon="12.3805033"><ele>766.0</ele><time>2026-04-06T14:29:51.683Z</time></trkpt><trkpt lat="43.7877133" lon="12.3806217"><ele>766.0</ele><time>2026-04-06T14:29:52.684Z</time></trkpt><trkpt lat="43.78767" lon="12.3807417"><ele>766.0</ele><time>2026-04-06T14:29:53.686Z</time></trkpt><trkpt lat="43.7876217" lon="12.3808583"><ele>766.0</ele><time>2026-04-06T14:29:54.683Z</time></trkpt><trkpt lat="43.7875667" lon="12.3809617"><ele>764.1666666666667</ele><time>2026-04-06T14:29:55.686Z</time></trkpt><trkpt lat="43.7875117" lon="12.3810617"><ele>762.3333333333334</ele><time>2026-04-06T14:29:56.685Z</time></trkpt><trkpt lat="43.78746" lon="12.3811483"><ele>760.5</ele><time>2026-04-06T14:29:57.684Z</time></trkpt><trkpt lat="43.7874183" lon="12.38122"><ele>758.6666666666666</ele><time>2026-04-06T14:29:58.686Z</time></trkpt><trkpt lat="43.7873817" lon="12.3812917"><ele>756.8333333333333</ele><time>2026-04-06T14:29:59.686Z</time></trkpt><trkpt lat="43.787355" lon="12.3814717"><ele>755.0</ele><time>2026-04-06T14:30:01.686Z</time></trkpt><trkpt lat="43.787355" lon="12.3815817"><ele>755.0</ele><time>2026-04-06T14:30:02.684Z</time></trkpt><trkpt lat="43.78736" lon="12.3816933"><ele>755.0</ele><time>2026-04-06T14:30:03.684Z</time></trkpt><trkpt lat="43.78737" lon="12.3818083"><ele>755.0</ele><time>2026-04-06T14:30:04.686Z</time></trkpt><trkpt lat="43.787375" lon="12.3819217"><ele>755.0</ele><time>2026-04-06T14:30:05.689Z</time></trkpt><trkpt lat="43.7873633" lon="12.38203"><ele>755.0</ele><time>2026-04-06T14:30:06.684Z</time></trkpt><trkpt lat="43.787335" lon="12.3821333"><ele>755.0</ele><time>2026-04-06T14:30:07.685Z</time></trkpt><trkpt lat="43.7872983" lon="12.3822333"><ele>754.5</ele><time>2026-04-06T14:30:08.685Z</time></trkpt><trkpt lat="43.78726" lon="12.3823367"><ele>754.0</ele><time>2026-04-06T14:30:09.684Z</time></trkpt><trkpt lat="43.78722" lon="12.38244"><ele>753.5</ele><time>2026-04-06T14:30:10.685Z</time></trkpt><trkpt lat="43.787175" lon="12.3825417"><ele>753.0</ele><time>2026-04-06T14:30:11.686Z</time></trkpt><trkpt lat="43.7871267" lon="12.38263"><ele>752.5</ele><time>2026-04-06T14:30:12.685Z</time></trkpt><trkpt lat="43.7870733" lon="12.3826967"><ele>752.0</ele><time>2026-04-06T14:30:13.686Z</time></trkpt><trkpt lat="43.7870133" lon="12.3827417"><ele>752.0</ele><time>2026-04-06T14:30:14.686Z</time></trkpt><trkpt lat="43.7869433" lon="12.3827733"><ele>752.0</ele><time>2026-04-06T14:30:15.683Z</time></trkpt><trkpt lat="43.786865" lon="12.3827967"><ele>752.0</ele><time>2026-04-06T14:30:16.684Z</time></trkpt><trkpt lat="43.78679" lon="12.3828183"><ele>752.0</ele><time>2026-04-06T14:30:17.684Z</time></trkpt><trkpt lat="43.7867217" lon="12.382845"><ele>752.0</ele><time>2026-04-06T14:30:18.685Z</time></trkpt><trkpt lat="43.7866317" lon="12.3829333"><ele>752.0</ele><time>2026-04-06T14:30:20.686Z</time></trkpt><trkpt lat="43.7866333" lon="12.38311"><ele>752.1666666666666</ele><time>2026-04-06T14:30:22.685Z</time></trkpt><trkpt lat="43.7866667" lon="12.3832183"><ele>752.3333333333333</ele><time>2026-04-06T14:30:23.684Z</time></trkpt><trkpt lat="43.7867033" lon="12.3833183"><ele>752.5</ele><time>2026-04-06T14:30:24.685Z</time></trkpt><trkpt lat="43.78674" lon="12.3834083"><ele>752.6666666666666</ele><time>2026-04-06T14:30:25.688Z</time></trkpt><trkpt lat="43.78679" lon="12.3834883"><ele>752.8333333333334</ele><time>2026-04-06T14:30:26.686Z</time></trkpt><trkpt lat="43.7868417" lon="12.3835633"><ele>753.0</ele><time>2026-04-06T14:30:27.684Z</time></trkpt><trkpt lat="43.7869017" lon="12.3836283"><ele>753.0</ele><time>2026-04-06T14:30:28.685Z</time></trkpt><trkpt lat="43.7869633" lon="12.38369"><ele>753.0</ele><time>2026-04-06T14:30:29.688Z</time></trkpt><trkpt lat="43.78703" lon="12.3837383"><ele>753.0</ele><time>2026-04-06T14:30:30.683Z</time></trkpt><trkpt lat="43.787085" lon="12.3838017"><ele>753.0</ele><time>2026-04-06T14:30:31.686Z</time></trkpt><trkpt lat="43.7871333" lon="12.3838867"><ele>753.0</ele><time>2026-04-06T14:30:32.686Z</time></trkpt><trkpt lat="43.7871783" lon="12.3839833"><ele>753.0</ele><time>2026-04-06T14:30:33.684Z</time></trkpt><trkpt lat="43.7872233" lon="12.384075"><ele>750.5</ele><time>2026-04-06T14:30:34.687Z</time></trkpt><trkpt lat="43.7872717" lon="12.3841667"><ele>748.0</ele><time>2026-04-06T14:30:35.687Z</time></trkpt><trkpt lat="43.7873183" lon="12.3842617"><ele>745.5</ele><time>2026-04-06T14:30:36.686Z</time></trkpt><trkpt lat="43.7873583" lon="12.3843667"><ele>743.0</ele><time>2026-04-06T14:30:37.686Z</time></trkpt><trkpt lat="43.787375" lon="12.3844783"><ele>740.5</ele><time>2026-04-06T14:30:38.687Z</time></trkpt><trkpt lat="43.7873717" lon="12.3846"><ele>738.0</ele><time>2026-04-06T14:30:39.687Z</time></trkpt><trkpt lat="43.7873417" lon="12.3847383"><ele>735.5</ele><time>2026-04-06T14:30:40.686Z</time></trkpt><trkpt lat="43.78731" lon="12.3848633"><ele>733.0</ele><time>2026-04-06T14:30:41.685Z</time></trkpt><trkpt lat="43.7872817" lon="12.3849883"><ele>730.5</ele><time>2026-04-06T14:30:42.685Z</time></trkpt><trkpt lat="43.78725" lon="12.3851033"><ele>728.0</ele><time>2026-04-06T14:30:43.685Z</time></trkpt><trkpt lat="43.7872167" lon="12.3852033"><ele>725.5</ele><time>2026-04-06T14:30:44.686Z</time></trkpt><trkpt lat="43.7871617" lon="12.3852767"><ele>723.0</ele><time>2026-04-06T14:30:45.686Z</time></trkpt><trkpt lat="43.7870967" lon="12.3853233"><ele>723.0</ele><time>2026-04-06T14:30:46.687Z</time></trkpt><trkpt lat="43.7870217" lon="12.3853383"><ele>723.0</ele><time>2026-04-06T14:30:47.686Z</time></trkpt><trkpt lat="43.7869483" lon="12.3853683"><ele>723.0</ele><time>2026-04-06T14:30:48.686Z</time></trkpt><trkpt lat="43.7868783" lon="12.385415"><ele>723.0</ele><time>2026-04-06T14:30:49.687Z</time></trkpt><trkpt lat="43.7868133" lon="12.3854767"><ele>723.0</ele><time>2026-04-06T14:30:50.685Z</time></trkpt><trkpt lat="43.7867583" lon="12.3855617"><ele>723.0</ele><time>2026-04-06T14:30:51.685Z</time></trkpt><trkpt lat="43.7867117" lon="12.3856633"><ele>720.0</ele><time>2026-04-06T14:30:52.686Z</time></trkpt><trkpt lat="43.786665" lon="12.3857667"><ele>717.0</ele><time>2026-04-06T14:30:53.686Z</time></trkpt><trkpt lat="43.7866167" lon="12.3858617"><ele>714.0</ele><time>2026-04-06T14:30:54.686Z</time></trkpt><trkpt lat="43.78656" lon="12.385935"><ele>711.0</ele><time>2026-04-06T14:30:55.688Z</time></trkpt><trkpt lat="43.786485" lon="12.38599"><ele>708.0</ele><time>2026-04-06T14:30:56.685Z</time></trkpt><trkpt lat="43.7863983" lon="12.3860283"><ele>705.0</ele><time>2026-04-06T14:30:57.684Z</time></trkpt><trkpt lat="43.78632" lon="12.3860567"><ele>705.0</ele><time>2026-04-06T14:30:58.685Z</time></trkpt><trkpt lat="43.7862267" lon="12.3860617"><ele>705.0</ele><time>2026-04-06T14:30:59.687Z</time></trkpt><trkpt lat="43.7861417" lon="12.3860683"><ele>705.0</ele><time>2026-04-06T14:31:00.685Z</time></trkpt><trkpt lat="43.7860617" lon="12.386085"><ele>705.0</ele><time>2026-04-06T14:31:01.686Z</time></trkpt><trkpt lat="43.7859867" lon="12.3861167"><ele>705.0</ele><time>2026-04-06T14:31:02.686Z</time></trkpt><trkpt lat="43.7859083" lon="12.3861567"><ele>705.0</ele><time>2026-04-06T14:31:03.686Z</time></trkpt><trkpt lat="43.7858383" lon="12.3862117"><ele>703.2857142857142</ele><time>2026-04-06T14:31:04.686Z</time></trkpt><trkpt lat="43.7857733" lon="12.3862667"><ele>701.5714285714286</ele><time>2026-04-06T14:31:05.685Z</time></trkpt><trkpt lat="43.7857233" lon="12.38633"><ele>699.8571428571429</ele><time>2026-04-06T14:31:06.685Z</time></trkpt><trkpt lat="43.7856817" lon="12.3864033"><ele>698.1428571428571</ele><time>2026-04-06T14:31:07.688Z</time></trkpt><trkpt lat="43.7856467" lon="12.3864917"><ele>696.4285714285714</ele><time>2026-04-06T14:31:08.685Z</time></trkpt><trkpt lat="43.7856067" lon="12.38659"><ele>694.7142857142857</ele><time>2026-04-06T14:31:09.684Z</time></trkpt><trkpt lat="43.7855683" lon="12.3866917"><ele>693.0</ele><time>2026-04-06T14:31:10.686Z</time></trkpt><trkpt lat="43.78553" lon="12.3867983"><ele>693.0</ele><time>2026-04-06T14:31:11.687Z</time></trkpt><trkpt lat="43.7854983" lon="12.3869067"><ele>693.0</ele><time>2026-04-06T14:31:12.686Z</time></trkpt><trkpt lat="43.7854683" lon="12.3870317"><ele>693.0</ele><time>2026-04-06T14:31:13.686Z</time></trkpt><trkpt lat="43.7854467" lon="12.3871567"><ele>693.0</ele><time>2026-04-06T14:31:14.685Z</time></trkpt><trkpt lat="43.78542" lon="12.387295"><ele>693.0</ele><time>2026-04-06T14:31:15.686Z</time></trkpt><trkpt lat="43.7853967" lon="12.3874517"><ele>693.0</ele><time>2026-04-06T14:31:16.686Z</time></trkpt><trkpt lat="43.7853733" lon="12.3875983"><ele>693.0</ele><time>2026-04-06T14:31:17.683Z</time></trkpt><trkpt lat="43.7853517" lon="12.387745"><ele>693.0</ele><time>2026-04-06T14:31:18.686Z</time></trkpt><trkpt lat="43.785335" lon="12.3878883"><ele>693.0</ele><time>2026-04-06T14:31:19.686Z</time></trkpt><trkpt lat="43.7853283" lon="12.3880233"><ele>693.0</ele><time>2026-04-06T14:31:20.688Z</time></trkpt><trkpt lat="43.78533" lon="12.3881483"><ele>690.8333333333334</ele><time>2026-04-06T14:31:21.686Z</time></trkpt><trkpt lat="43.785345" lon="12.3882567"><ele>688.6666666666666</ele><time>2026-04-06T14:31:22.688Z</time></trkpt><trkpt lat="43.7853733" lon="12.3883483"><ele>686.5</ele><time>2026-04-06T14:31:23.684Z</time></trkpt><trkpt lat="43.7854133" lon="12.3884317"><ele>684.3333333333333</ele><time>2026-04-06T14:31:24.685Z</time></trkpt><trkpt lat="43.7854733" lon="12.3884933"><ele>682.1666666666666</ele><time>2026-04-06T14:31:25.686Z</time></trkpt><trkpt lat="43.7855483" lon="12.3885317"><ele>680.0</ele><time>2026-04-06T14:31:26.686Z</time></trkpt><trkpt lat="43.7856333" lon="12.3885633"><ele>680.0</ele><time>2026-04-06T14:31:27.684Z</time></trkpt><trkpt lat="43.7857133" lon="12.3886083"><ele>680.0</ele><time>2026-04-06T14:31:28.687Z</time></trkpt><trkpt lat="43.7857717" lon="12.38867"><ele>680.0</ele><time>2026-04-06T14:31:29.686Z</time></trkpt><trkpt lat="43.7858167" lon="12.388755"><ele>680.0</ele><time>2026-04-06T14:31:30.687Z</time></trkpt><trkpt lat="43.7858433" lon="12.38885"><ele>680.0</ele><time>2026-04-06T14:31:31.687Z</time></trkpt><trkpt lat="43.7858667" lon="12.388955"><ele>680.0</ele><time>2026-04-06T14:31:32.685Z</time></trkpt><trkpt lat="43.7858767" lon="12.3890667"><ele>678.6</ele><time>2026-04-06T14:31:33.687Z</time></trkpt><trkpt lat="43.785875" lon="12.3891817"><ele>677.2</ele><time>2026-04-06T14:31:34.685Z</time></trkpt><trkpt lat="43.7858633" lon="12.3892967"><ele>675.8</ele><time>2026-04-06T14:31:35.687Z</time></trkpt><trkpt lat="43.785845" lon="12.389415"><ele>674.4</ele><time>2026-04-06T14:31:36.685Z</time></trkpt><trkpt lat="43.7858067" lon="12.38955"><ele>673.0</ele><time>2026-04-06T14:31:37.687Z</time></trkpt><trkpt lat="43.7857633" lon="12.3896833"><ele>672.2</ele><time>2026-04-06T14:31:38.685Z</time></trkpt><trkpt lat="43.7857133" lon="12.3898133"><ele>671.4</ele><time>2026-04-06T14:31:39.686Z</time></trkpt><trkpt lat="43.7856567" lon="12.3899367"><ele>670.6</ele><time>2026-04-06T14:31:40.688Z</time></trkpt><trkpt lat="43.785595" lon="12.3900483"><ele>669.8000000000001</ele><time>2026-04-06T14:31:41.688Z</time></trkpt><trkpt lat="43.7855317" lon="12.39016"><ele>669.0</ele><time>2026-04-06T14:31:42.686Z</time></trkpt><trkpt lat="43.7854667" lon="12.390265"><ele>669.0</ele><time>2026-04-06T14:31:43.69Z</time></trkpt><trkpt lat="43.7854" lon="12.3903683"><ele>669.0</ele><time>2026-04-06T14:31:44.686Z</time></trkpt><trkpt lat="43.785335" lon="12.390465"><ele>669.0</ele><time>2026-04-06T14:31:45.687Z</time></trkpt><trkpt lat="43.78527" lon="12.3905583"><ele>669.0</ele><time>2026-04-06T14:31:46.688Z</time></trkpt><trkpt lat="43.78521" lon="12.3906467"><ele>669.0</ele><time>2026-04-06T14:31:47.686Z</time></trkpt><trkpt lat="43.7851583" lon="12.3907267"><ele>668.0</ele><time>2026-04-06T14:31:48.686Z</time></trkpt><trkpt lat="43.7851117" lon="12.390805"><ele>667.0</ele><time>2026-04-06T14:31:49.689Z</time></trkpt><trkpt lat="43.785055" lon="12.3908667"><ele>666.0</ele><time>2026-04-06T14:31:50.686Z</time></trkpt><trkpt lat="43.78498" lon="12.3909317"><ele>665.0</ele><time>2026-04-06T14:31:51.685Z</time></trkpt><trkpt lat="43.78489" lon="12.390995"><ele>664.0</ele><time>2026-04-06T14:31:52.688Z</time></trkpt><trkpt lat="43.78479" lon="12.3910567"><ele>663.0</ele><time>2026-04-06T14:31:53.687Z</time></trkpt><trkpt lat="43.784695" lon="12.3911167"><ele>663.0</ele><time>2026-04-06T14:31:54.686Z</time></trkpt><trkpt lat="43.7846" lon="12.3911667"><ele>663.0</ele><time>2026-04-06T14:31:55.688Z</time></trkpt><trkpt lat="43.7845" lon="12.39121"><ele>663.0</ele><time>2026-04-06T14:31:56.688Z</time></trkpt><trkpt lat="43.7844" lon="12.391255"><ele>663.0</ele><time>2026-04-06T14:31:57.685Z</time></trkpt><trkpt lat="43.7842983" lon="12.391305"><ele>663.0</ele><time>2026-04-06T14:31:58.686Z</time></trkpt><trkpt lat="43.7842033" lon="12.3913583"><ele>659.5999999999999</ele><time>2026-04-06T14:31:59.685Z</time></trkpt><trkpt lat="43.7841083" lon="12.3914167"><ele>656.1999999999999</ele><time>2026-04-06T14:32:00.686Z</time></trkpt><trkpt lat="43.7840117" lon="12.3914733"><ele>652.8</ele><time>2026-04-06T14:32:01.687Z</time></trkpt><trkpt lat="43.78391" lon="12.391525"><ele>649.4</ele><time>2026-04-06T14:32:02.688Z</time></trkpt><trkpt lat="43.7838033" lon="12.39158"><ele>646.0</ele><time>2026-04-06T14:32:03.686Z</time></trkpt><trkpt lat="43.7836933" lon="12.39164"><ele>646.0</ele><time>2026-04-06T14:32:04.688Z</time></trkpt><trkpt lat="43.78358" lon="12.391705"><ele>646.0</ele><time>2026-04-06T14:32:05.687Z</time></trkpt><trkpt lat="43.7834683" lon="12.391775"><ele>646.0</ele><time>2026-04-06T14:32:06.686Z</time></trkpt><trkpt lat="43.7833633" lon="12.3918467"><ele>646.0</ele><time>2026-04-06T14:32:07.688Z</time></trkpt><trkpt lat="43.783265" lon="12.3919133"><ele>645.6666666666667</ele><time>2026-04-06T14:32:08.685Z</time></trkpt><trkpt lat="43.783175" lon="12.39198"><ele>645.3333333333334</ele><time>2026-04-06T14:32:09.686Z</time></trkpt><trkpt lat="43.7830917" lon="12.39204"><ele>645.0</ele><time>2026-04-06T14:32:10.686Z</time></trkpt><trkpt lat="43.78302" lon="12.39209"><ele>644.6666666666666</ele><time>2026-04-06T14:32:11.687Z</time></trkpt><trkpt lat="43.78296" lon="12.3921367"><ele>644.3333333333333</ele><time>2026-04-06T14:32:12.685Z</time></trkpt><trkpt lat="43.782895" lon="12.39219"><ele>644.0</ele><time>2026-04-06T14:32:13.686Z</time></trkpt><trkpt lat="43.78282" lon="12.3922583"><ele>644.0</ele><time>2026-04-06T14:32:14.687Z</time></trkpt><trkpt lat="43.7827383" lon="12.3923283"><ele>644.0</ele><time>2026-04-06T14:32:15.686Z</time></trkpt><trkpt lat="43.782645" lon="12.3923983"><ele>644.0</ele><time>2026-04-06T14:32:16.686Z</time></trkpt><trkpt lat="43.7825533" lon="12.392465"><ele>644.0</ele><time>2026-04-06T14:32:17.687Z</time></trkpt><trkpt lat="43.7824717" lon="12.3925317"><ele>644.0</ele><time>2026-04-06T14:32:18.687Z</time></trkpt><trkpt lat="43.7823883" lon="12.3926083"><ele>646.0</ele><time>2026-04-06T14:32:19.688Z</time></trkpt><trkpt lat="43.7823033" lon="12.392695"><ele>648.0</ele><time>2026-04-06T14:32:20.686Z</time></trkpt><trkpt lat="43.7822217" lon="12.39278"><ele>650.0</ele><time>2026-04-06T14:32:21.687Z</time></trkpt><trkpt lat="43.7821433" lon="12.39286"><ele>652.0</ele><time>2026-04-06T14:32:22.687Z</time></trkpt><trkpt lat="43.7820667" lon="12.3929283"><ele>654.0</ele><time>2026-04-06T14:32:23.686Z</time></trkpt><trkpt lat="43.7819933" lon="12.3929967"><ele>655.4000000000001</ele><time>2026-04-06T14:32:24.687Z</time></trkpt><trkpt lat="43.7819167" lon="12.3930767"><ele>656.8</ele><time>2026-04-06T14:32:25.687Z</time></trkpt><trkpt lat="43.7818417" lon="12.39316"><ele>658.2</ele><time>2026-04-06T14:32:26.686Z</time></trkpt><trkpt lat="43.7817583" lon="12.3932383"><ele>659.5999999999999</ele><time>2026-04-06T14:32:27.685Z</time></trkpt><trkpt lat="43.7816717" lon="12.393315"><ele>661.0</ele><time>2026-04-06T14:32:28.685Z</time></trkpt><trkpt lat="43.7815867" lon="12.393395"><ele>662.1666666666667</ele><time>2026-04-06T14:32:29.686Z</time></trkpt><trkpt lat="43.7815033" lon="12.39347"><ele>663.3333333333334</ele><time>2026-04-06T14:32:30.685Z</time></trkpt><trkpt lat="43.7814283" lon="12.3935433"><ele>664.5</ele><time>2026-04-06T14:32:31.685Z</time></trkpt><trkpt lat="43.7813633" lon="12.3936"><ele>665.6666666666666</ele><time>2026-04-06T14:32:32.685Z</time></trkpt><trkpt lat="43.7813067" lon="12.393645"><ele>666.8333333333333</ele><time>2026-04-06T14:32:33.688Z</time></trkpt><trkpt lat="43.7814" lon="12.3935867"><ele>668.0</ele><time>2026-04-06T14:32:50.686Z</time></trkpt><trkpt lat="43.781465" lon="12.39353"><ele>668.0</ele><time>2026-04-06T14:32:51.686Z</time></trkpt><trkpt lat="43.7815517" lon="12.3934567"><ele>668.0</ele><time>2026-04-06T14:32:52.684Z</time></trkpt><trkpt lat="43.7816383" lon="12.3933833"><ele>668.0</ele><time>2026-04-06T14:32:53.688Z</time></trkpt><trkpt lat="43.781725" lon="12.3933083"><ele>668.0</ele><time>2026-04-06T14:32:54.685Z</time></trkpt><trkpt lat="43.7818117" lon="12.3932367"><ele>668.0</ele><time>2026-04-06T14:32:55.686Z</time></trkpt><trkpt lat="43.781895" lon="12.39316"><ele>666.5999999999999</ele><time>2026-04-06T14:32:56.686Z</time></trkpt><trkpt lat="43.7819783" lon="12.39308"><ele>665.1999999999999</ele><time>2026-04-06T14:32:57.683Z</time></trkpt><trkpt lat="43.7820633" lon="12.3929967"><ele>663.8</ele><time>2026-04-06T14:32:58.685Z</time></trkpt><trkpt lat="43.78215" lon="12.3929117"><ele>662.4</ele><time>2026-04-06T14:32:59.685Z</time></trkpt><trkpt lat="43.7822367" lon="12.3928267"><ele>661.0</ele><time>2026-04-06T14:33:00.686Z</time></trkpt><trkpt lat="43.7823233" lon="12.39274"><ele>659.5999999999999</ele><time>2026-04-06T14:33:01.686Z</time></trkpt><trkpt lat="43.7824083" lon="12.3926533"><ele>658.2</ele><time>2026-04-06T14:33:02.686Z</time></trkpt><trkpt lat="43.7824983" lon="12.39257"><ele>656.8</ele><time>2026-04-06T14:33:03.684Z</time></trkpt><trkpt lat="43.7825867" lon="12.39249"><ele>655.4000000000001</ele><time>2026-04-06T14:33:04.685Z</time></trkpt><trkpt lat="43.782675" lon="12.3924117"><ele>654.0</ele><time>2026-04-06T14:33:05.694Z</time></trkpt><trkpt lat="43.7827617" lon="12.3923433"><ele>652.3333333333334</ele><time>2026-04-06T14:33:06.685Z</time></trkpt><trkpt lat="43.782845" lon="12.39229"><ele>650.6666666666666</ele><time>2026-04-06T14:33:07.686Z</time></trkpt><trkpt lat="43.7829233" lon="12.39226"><ele>649.0</ele><time>2026-04-06T14:33:08.688Z</time></trkpt><trkpt lat="43.7830033" lon="12.392255"><ele>647.3333333333333</ele><time>2026-04-06T14:33:09.684Z</time></trkpt><trkpt lat="43.7830833" lon="12.3922733"><ele>645.6666666666666</ele><time>2026-04-06T14:33:10.685Z</time></trkpt><trkpt lat="43.7831667" lon="12.3922967"><ele>644.0</ele><time>2026-04-06T14:33:11.689Z</time></trkpt><trkpt lat="43.7832567" lon="12.3923267"><ele>644.0</ele><time>2026-04-06T14:33:12.685Z</time></trkpt><trkpt lat="43.7833483" lon="12.3923617"><ele>644.0</ele><time>2026-04-06T14:33:13.687Z</time></trkpt><trkpt lat="43.7834417" lon="12.3924067"><ele>644.0</ele><time>2026-04-06T14:33:14.685Z</time></trkpt><trkpt lat="43.7835333" lon="12.3924533"><ele>644.0</ele><time>2026-04-06T14:33:15.687Z</time></trkpt><trkpt lat="43.7836217" lon="12.3925017"><ele>644.0</ele><time>2026-04-06T14:33:16.684Z</time></trkpt><trkpt lat="43.7837017" lon="12.3925533"><ele>643.4000000000001</ele><time>2026-04-06T14:33:17.684Z</time></trkpt><trkpt lat="43.78378" lon="12.3926233"><ele>642.8</ele><time>2026-04-06T14:33:18.686Z</time></trkpt><trkpt lat="43.7838333" lon="12.3927117"><ele>642.2</ele><time>2026-04-06T14:33:19.684Z</time></trkpt><trkpt lat="43.7838717" lon="12.3928317"><ele>641.5999999999999</ele><time>2026-04-06T14:33:20.687Z</time></trkpt><trkpt lat="43.7838783" lon="12.3929867"><ele>641.0</ele><time>2026-04-06T14:33:21.686Z</time></trkpt><trkpt lat="43.7838883" lon="12.3931433"><ele>640.0</ele><time>2026-04-06T14:33:22.687Z</time></trkpt><trkpt lat="43.7838883" lon="12.3932983"><ele>639.0</ele><time>2026-04-06T14:33:23.686Z</time></trkpt><trkpt lat="43.7838867" lon="12.3934533"><ele>638.0</ele><time>2026-04-06T14:33:24.685Z</time></trkpt><trkpt lat="43.7838933" lon="12.3936017"><ele>637.0</ele><time>2026-04-06T14:33:25.687Z</time></trkpt><trkpt lat="43.7839" lon="12.393745"><ele>636.0</ele><time>2026-04-06T14:33:26.686Z</time></trkpt><trkpt lat="43.783915" lon="12.3938933"><ele>634.4</ele><time>2026-04-06T14:33:27.684Z</time></trkpt><trkpt lat="43.7839433" lon="12.3940417"><ele>632.8</ele><time>2026-04-06T14:33:28.685Z</time></trkpt><trkpt lat="43.7839683" lon="12.3941883"><ele>631.1999999999999</ele><time>2026-04-06T14:33:29.685Z</time></trkpt><trkpt lat="43.7839917" lon="12.3943267"><ele>629.6</ele><time>2026-04-06T14:33:30.684Z</time></trkpt><trkpt lat="43.7840133" lon="12.39447"><ele>628.0</ele><time>2026-04-06T14:33:31.686Z</time></trkpt><trkpt lat="43.7840317" lon="12.39461"><ele>627.1999999999999</ele><time>2026-04-06T14:33:32.685Z</time></trkpt><trkpt lat="43.78405" lon="12.3947367"><ele>626.4</ele><time>2026-04-06T14:33:33.685Z</time></trkpt><trkpt lat="43.78407" lon="12.3948467"><ele>625.5999999999999</ele><time>2026-04-06T14:33:34.685Z</time></trkpt><trkpt lat="43.7841083" lon="12.3949633"><ele>624.8</ele><time>2026-04-06T14:33:35.686Z</time></trkpt><trkpt lat="43.78416" lon="12.3950717"><ele>624.0</ele><time>2026-04-06T14:33:36.686Z</time></trkpt><trkpt lat="43.784235" lon="12.39518"><ele>624.0</ele><time>2026-04-06T14:33:37.687Z</time></trkpt><trkpt lat="43.7843067" lon="12.395285"><ele>624.0</ele><time>2026-04-06T14:33:38.684Z</time></trkpt><trkpt lat="43.7843817" lon="12.3953883"><ele>624.0</ele><time>2026-04-06T14:33:39.686Z</time></trkpt><trkpt lat="43.7844433" lon="12.395505"><ele>624.0</ele><time>2026-04-06T14:33:40.687Z</time></trkpt><trkpt lat="43.7845" lon="12.3956317"><ele>624.0</ele><time>2026-04-06T14:33:41.686Z</time></trkpt><trkpt lat="43.7845483" lon="12.395755"><ele>622.1666666666666</ele><time>2026-04-06T14:33:42.684Z</time></trkpt><trkpt lat="43.78458" lon="12.3958633"><ele>620.3333333333334</ele><time>2026-04-06T14:33:43.686Z</time></trkpt><trkpt lat="43.7845883" lon="12.3959783"><ele>618.5</ele><time>2026-04-06T14:33:44.685Z</time></trkpt><trkpt lat="43.7845667" lon="12.39609"><ele>616.6666666666667</ele><time>2026-04-06T14:33:45.684Z</time></trkpt><trkpt lat="43.7845583" lon="12.3961967"><ele>614.8333333333334</ele><time>2026-04-06T14:33:46.686Z</time></trkpt><trkpt lat="43.78457" lon="12.3963183"><ele>613.0</ele><time>2026-04-06T14:33:47.687Z</time></trkpt><trkpt lat="43.7845933" lon="12.3964633"><ele>607.5</ele><time>2026-04-06T14:33:48.687Z</time></trkpt><trkpt lat="43.7846267" lon="12.3966033"><ele>602.0</ele><time>2026-04-06T14:33:49.687Z</time></trkpt><trkpt lat="43.784655" lon="12.3967517"><ele>596.5</ele><time>2026-04-06T14:33:50.684Z</time></trkpt><trkpt lat="43.7846733" lon="12.3969117"><ele>591.0</ele><time>2026-04-06T14:33:51.683Z</time></trkpt><trkpt lat="43.7846883" lon="12.397075"><ele>587.5</ele><time>2026-04-06T14:33:52.686Z</time></trkpt><trkpt lat="43.784705" lon="12.3972333"><ele>584.0</ele><time>2026-04-06T14:33:53.687Z</time></trkpt><trkpt lat="43.784725" lon="12.3973967"><ele>580.5</ele><time>2026-04-06T14:33:54.69Z</time></trkpt><trkpt lat="43.784745" lon="12.3975667"><ele>577.0</ele><time>2026-04-06T14:33:55.688Z</time></trkpt><trkpt lat="43.7847717" lon="12.3977317"><ele>577.0</ele><time>2026-04-06T14:33:56.687Z</time></trkpt><trkpt lat="43.7847933" lon="12.3978933"><ele>577.0</ele><time>2026-04-06T14:33:57.687Z</time></trkpt><trkpt lat="43.7848183" lon="12.398035"><ele>577.0</ele><time>2026-04-06T14:33:58.686Z</time></trkpt><trkpt lat="43.7848433" lon="12.3981617"><ele>577.0</ele><time>2026-04-06T14:33:59.686Z</time></trkpt><trkpt lat="43.784875" lon="12.398275"><ele>577.0</ele><time>2026-04-06T14:34:00.687Z</time></trkpt><trkpt lat="43.7848983" lon="12.39838"><ele>576.6</ele><time>2026-04-06T14:34:01.688Z</time></trkpt><trkpt lat="43.78492" lon="12.3984833"><ele>576.2</ele><time>2026-04-06T14:34:02.685Z</time></trkpt><trkpt lat="43.784925" lon="12.3985967"><ele>575.8</ele><time>2026-04-06T14:34:03.683Z</time></trkpt><trkpt lat="43.78491" lon="12.39871"><ele>575.4</ele><time>2026-04-06T14:34:04.686Z</time></trkpt><trkpt lat="43.7848417" lon="12.3988117"><ele>575.0</ele><time>2026-04-06T14:34:05.686Z</time></trkpt><trkpt lat="43.7847267" lon="12.398915"><ele>574.0</ele><time>2026-04-06T14:34:06.685Z</time></trkpt><trkpt lat="43.78463" lon="12.39902"><ele>573.0</ele><time>2026-04-06T14:34:07.686Z</time></trkpt><trkpt lat="43.7845483" lon="12.399135"><ele>572.0</ele><time>2026-04-06T14:34:08.686Z</time></trkpt><trkpt lat="43.7844867" lon="12.3992617"><ele>571.0</ele><time>2026-04-06T14:34:09.683Z</time></trkpt><trkpt lat="43.7844483" lon="12.3994083"><ele>571.0</ele><time>2026-04-06T14:34:10.685Z</time></trkpt><trkpt lat="43.7844433" lon="12.3995533"><ele>571.0</ele><time>2026-04-06T14:34:11.686Z</time></trkpt><trkpt lat="43.7844617" lon="12.3997117"><ele>571.0</ele><time>2026-04-06T14:34:12.689Z</time></trkpt><trkpt lat="43.78449" lon="12.399875"><ele>571.0</ele><time>2026-04-06T14:34:13.688Z</time></trkpt><trkpt lat="43.7845183" lon="12.4000317"><ele>572.0</ele><time>2026-04-06T14:34:14.685Z</time></trkpt><trkpt lat="43.7845467" lon="12.40018"><ele>573.0</ele><time>2026-04-06T14:34:15.686Z</time></trkpt><trkpt lat="43.7845717" lon="12.4003083"><ele>574.0</ele><time>2026-04-06T14:34:16.686Z</time></trkpt><trkpt lat="43.7845933" lon="12.4004233"><ele>575.0</ele><time>2026-04-06T14:34:17.686Z</time></trkpt><trkpt lat="43.784595" lon="12.400535"><ele>576.0</ele><time>2026-04-06T14:34:18.685Z</time></trkpt><trkpt lat="43.7845767" lon="12.40065"><ele>576.0</ele><time>2026-04-06T14:34:19.686Z</time></trkpt><trkpt lat="43.7845367" lon="12.4007583"><ele>576.0</ele><time>2026-04-06T14:34:20.686Z</time></trkpt><trkpt lat="43.7844783" lon="12.4008667"><ele>576.0</ele><time>2026-04-06T14:34:21.684Z</time></trkpt><trkpt lat="43.7844067" lon="12.4009717"><ele>576.0</ele><time>2026-04-06T14:34:22.685Z</time></trkpt><trkpt lat="43.7843217" lon="12.4010717"><ele>576.0</ele><time>2026-04-06T14:34:23.688Z</time></trkpt><trkpt lat="43.78423" lon="12.4011683"><ele>575.8</ele><time>2026-04-06T14:34:24.685Z</time></trkpt><trkpt lat="43.7841367" lon="12.4012617"><ele>575.6</ele><time>2026-04-06T14:34:25.688Z</time></trkpt><trkpt lat="43.7840467" lon="12.40136"><ele>575.4</ele><time>2026-04-06T14:34:26.686Z</time></trkpt><trkpt lat="43.78396" lon="12.401455"><ele>575.2</ele><time>2026-04-06T14:34:27.686Z</time></trkpt><trkpt lat="43.78388" lon="12.40155"><ele>575.0</ele><time>2026-04-06T14:34:28.684Z</time></trkpt><trkpt lat="43.78381" lon="12.4016533"><ele>575.0</ele><time>2026-04-06T14:34:29.688Z</time></trkpt><trkpt lat="43.7837533" lon="12.4017633"><ele>575.0</ele><time>2026-04-06T14:34:30.686Z</time></trkpt><trkpt lat="43.78371" lon="12.401885"><ele>575.0</ele><time>2026-04-06T14:34:31.688Z</time></trkpt><trkpt lat="43.7836867" lon="12.4020183"><ele>575.0</ele><time>2026-04-06T14:34:32.685Z</time></trkpt><trkpt lat="43.7836833" lon="12.40216"><ele>575.0</ele><time>2026-04-06T14:34:33.684Z</time></trkpt><trkpt lat="43.7837" lon="12.402315"><ele>573.75</ele><time>2026-04-06T14:34:34.684Z</time></trkpt><trkpt lat="43.78373" lon="12.4024717"><ele>572.5</ele><time>2026-04-06T14:34:35.685Z</time></trkpt><trkpt lat="43.783765" lon="12.40263"><ele>571.25</ele><time>2026-04-06T14:34:36.683Z</time></trkpt><trkpt lat="43.7837933" lon="12.4028017"><ele>570.0</ele><time>2026-04-06T14:34:37.687Z</time></trkpt><trkpt lat="43.7838083" lon="12.402985"><ele>569.75</ele><time>2026-04-06T14:34:38.684Z</time></trkpt><trkpt lat="43.783825" lon="12.40316"><ele>569.5</ele><time>2026-04-06T14:34:39.687Z</time></trkpt><trkpt lat="43.7838367" lon="12.40333"><ele>569.25</ele><time>2026-04-06T14:34:40.685Z</time></trkpt><trkpt lat="43.7838433" lon="12.4034983"><ele>569.0</ele><time>2026-04-06T14:34:41.687Z</time></trkpt><trkpt lat="43.783845" lon="12.4036633"><ele>569.0</ele><time>2026-04-06T14:34:42.686Z</time></trkpt><trkpt lat="43.7838467" lon="12.403825"><ele>569.0</ele><time>2026-04-06T14:34:43.689Z</time></trkpt><trkpt lat="43.7838483" lon="12.4039783"><ele>569.0</ele><time>2026-04-06T14:34:44.686Z</time></trkpt><trkpt lat="43.7838533" lon="12.4041367"><ele>569.0</ele><time>2026-04-06T14:34:45.685Z</time></trkpt><trkpt lat="43.7838583" lon="12.4043067"><ele>569.0</ele><time>2026-04-06T14:34:46.685Z</time></trkpt><trkpt lat="43.7838533" lon="12.4044767"><ele>569.0</ele><time>2026-04-06T14:34:47.686Z</time></trkpt><trkpt lat="43.7838367" lon="12.4046383"><ele>569.0</ele><time>2026-04-06T14:34:48.685Z</time></trkpt><trkpt lat="43.7838233" lon="12.404795"><ele>569.0</ele><time>2026-04-06T14:34:49.685Z</time></trkpt><trkpt lat="43.7838233" lon="12.404945"><ele>569.4</ele><time>2026-04-06T14:34:50.684Z</time></trkpt><trkpt lat="43.7838467" lon="12.4050867"><ele>569.8</ele><time>2026-04-06T14:34:51.684Z</time></trkpt><trkpt lat="43.78388" lon="12.405215"><ele>570.2</ele><time>2026-04-06T14:34:52.686Z</time></trkpt><trkpt lat="43.78393" lon="12.405325"><ele>570.6</ele><time>2026-04-06T14:34:53.687Z</time></trkpt><trkpt lat="43.784005" lon="12.405415"><ele>571.0</ele><time>2026-04-06T14:34:54.685Z</time></trkpt><trkpt lat="43.7840983" lon="12.40548"><ele>572.4</ele><time>2026-04-06T14:34:55.689Z</time></trkpt><trkpt lat="43.7842033" lon="12.40553"><ele>573.8</ele><time>2026-04-06T14:34:56.686Z</time></trkpt><trkpt lat="43.78431" lon="12.4055667"><ele>575.1999999999999</ele><time>2026-04-06T14:34:57.688Z</time></trkpt><trkpt lat="43.7844083" lon="12.405605"><ele>576.6</ele><time>2026-04-06T14:34:58.686Z</time></trkpt><trkpt lat="43.7844917" lon="12.4056583"><ele>578.0</ele><time>2026-04-06T14:34:59.686Z</time></trkpt><trkpt lat="43.7845633" lon="12.4057367"><ele>578.0</ele><time>2026-04-06T14:35:00.685Z</time></trkpt><trkpt lat="43.78461" lon="12.4058433"><ele>578.0</ele><time>2026-04-06T14:35:01.687Z</time></trkpt><trkpt lat="43.78462" lon="12.405965"><ele>578.0</ele><time>2026-04-06T14:35:02.683Z</time></trkpt><trkpt lat="43.784605" lon="12.4060883"><ele>578.0</ele><time>2026-04-06T14:35:03.685Z</time></trkpt><trkpt lat="43.7845583" lon="12.406205"><ele>578.0</ele><time>2026-04-06T14:35:04.686Z</time></trkpt><trkpt lat="43.7844883" lon="12.4063067"><ele>577.0</ele><time>2026-04-06T14:35:05.689Z</time></trkpt><trkpt lat="43.7843967" lon="12.4063967"><ele>576.0</ele><time>2026-04-06T14:35:06.686Z</time></trkpt><trkpt lat="43.7842967" lon="12.4064867"><ele>575.0</ele><time>2026-04-06T14:35:07.688Z</time></trkpt><trkpt lat="43.7841917" lon="12.406585"><ele>574.0</ele><time>2026-04-06T14:35:08.684Z</time></trkpt><trkpt lat="43.7840933" lon="12.4066933"><ele>576.0</ele><time>2026-04-06T14:35:09.686Z</time></trkpt><trkpt lat="43.783995" lon="12.4068"><ele>578.0</ele><time>2026-04-06T14:35:10.686Z</time></trkpt><trkpt lat="43.7838917" lon="12.4069017"><ele>580.0</ele><time>2026-04-06T14:35:11.684Z</time></trkpt><trkpt lat="43.783785" lon="12.4069967"><ele>582.0</ele><time>2026-04-06T14:35:12.686Z</time></trkpt><trkpt lat="43.783675" lon="12.4070817"><ele>582.2</ele><time>2026-04-06T14:35:13.685Z</time></trkpt><trkpt lat="43.78357" lon="12.4071617"><ele>582.4000000000001</ele><time>2026-04-06T14:35:14.685Z</time></trkpt><trkpt lat="43.7834783" lon="12.407245"><ele>582.5999999999999</ele><time>2026-04-06T14:35:15.687Z</time></trkpt><trkpt lat="43.7833933" lon="12.4073383"><ele>582.8</ele><time>2026-04-06T14:35:16.684Z</time></trkpt><trkpt lat="43.7833133" lon="12.407445"><ele>583.0</ele><time>2026-04-06T14:35:17.687Z</time></trkpt><trkpt lat="43.78324" lon="12.4075733"><ele>583.0</ele><time>2026-04-06T14:35:18.685Z</time></trkpt><trkpt lat="43.7831767" lon="12.4077233"><ele>583.0</ele><time>2026-04-06T14:35:19.686Z</time></trkpt><trkpt lat="43.7831217" lon="12.4078883"><ele>583.0</ele><time>2026-04-06T14:35:20.684Z</time></trkpt><trkpt lat="43.7830683" lon="12.40805"><ele>583.0</ele><time>2026-04-06T14:35:21.685Z</time></trkpt><trkpt lat="43.783005" lon="12.4081983"><ele>580.25</ele><time>2026-04-06T14:35:22.686Z</time></trkpt><trkpt lat="43.7829267" lon="12.4083267"><ele>577.5</ele><time>2026-04-06T14:35:23.688Z</time></trkpt><trkpt lat="43.7828383" lon="12.4084467"><ele>574.75</ele><time>2026-04-06T14:35:24.686Z</time></trkpt><trkpt lat="43.7827533" lon="12.408565"><ele>572.0</ele><time>2026-04-06T14:35:25.688Z</time></trkpt><trkpt lat="43.7826883" lon="12.408685"><ele>573.4</ele><time>2026-04-06T14:35:26.685Z</time></trkpt><trkpt lat="43.78264" lon="12.40881"><ele>574.8000000000001</ele><time>2026-04-06T14:35:27.684Z</time></trkpt><trkpt lat="43.782605" lon="12.40894"><ele>576.2</ele><time>2026-04-06T14:35:28.684Z</time></trkpt><trkpt lat="43.782595" lon="12.4090917"><ele>577.6</ele><time>2026-04-06T14:35:29.685Z</time></trkpt><trkpt lat="43.7826133" lon="12.40927"><ele>579.0</ele><time>2026-04-06T14:35:30.685Z</time></trkpt><trkpt lat="43.782645" lon="12.4094533"><ele>575.75</ele><time>2026-04-06T14:35:31.687Z</time></trkpt><trkpt lat="43.7826833" lon="12.40963"><ele>572.5</ele><time>2026-04-06T14:35:32.686Z</time></trkpt><trkpt lat="43.7827333" lon="12.4098083"><ele>569.25</ele><time>2026-04-06T14:35:33.687Z</time></trkpt><trkpt lat="43.78279" lon="12.4099867"><ele>566.0</ele><time>2026-04-06T14:35:34.685Z</time></trkpt><trkpt lat="43.782845" lon="12.4101683"><ele>565.0</ele><time>2026-04-06T14:35:35.685Z</time></trkpt><trkpt lat="43.7829017" lon="12.4103383"><ele>564.0</ele><time>2026-04-06T14:35:36.685Z</time></trkpt><trkpt lat="43.7829533" lon="12.4104967"><ele>563.0</ele><time>2026-04-06T14:35:37.689Z</time></trkpt><trkpt lat="43.7830033" lon="12.4106433"><ele>562.0</ele><time>2026-04-06T14:35:38.686Z</time></trkpt><trkpt lat="43.7830583" lon="12.4107817"><ele>561.75</ele><time>2026-04-06T14:35:39.685Z</time></trkpt><trkpt lat="43.7831183" lon="12.410915"><ele>561.5</ele><time>2026-04-06T14:35:40.687Z</time></trkpt><trkpt lat="43.7831933" lon="12.411045"><ele>561.25</ele><time>2026-04-06T14:35:41.685Z</time></trkpt><trkpt lat="43.7832733" lon="12.4111583"><ele>561.0</ele><time>2026-04-06T14:35:42.686Z</time></trkpt><trkpt lat="43.7833633" lon="12.4112633"><ele>561.0</ele><time>2026-04-06T14:35:43.687Z</time></trkpt><trkpt lat="43.7834583" lon="12.41135"><ele>561.0</ele><time>2026-04-06T14:35:44.685Z</time></trkpt><trkpt lat="43.783565" lon="12.4114217"><ele>561.0</ele><time>2026-04-06T14:35:45.687Z</time></trkpt><trkpt lat="43.7836833" lon="12.4114733"><ele>561.0</ele><time>2026-04-06T14:35:46.685Z</time></trkpt><trkpt lat="43.7838083" lon="12.4115117"><ele>561.75</ele><time>2026-04-06T14:35:47.688Z</time></trkpt><trkpt lat="43.7839383" lon="12.4115333"><ele>562.5</ele><time>2026-04-06T14:35:48.684Z</time></trkpt><trkpt lat="43.784065" lon="12.4115467"><ele>563.25</ele><time>2026-04-06T14:35:49.686Z</time></trkpt><trkpt lat="43.784185" lon="12.4115767"><ele>564.0</ele><time>2026-04-06T14:35:50.688Z</time></trkpt><trkpt lat="43.7842967" lon="12.411625"><ele>562.5</ele><time>2026-04-06T14:35:51.684Z</time></trkpt><trkpt lat="43.784405" lon="12.4116883"><ele>561.0</ele><time>2026-04-06T14:35:52.685Z</time></trkpt><trkpt lat="43.7845017" lon="12.4117817"><ele>559.5</ele><time>2026-04-06T14:35:53.684Z</time></trkpt><trkpt lat="43.7845933" lon="12.4118933"><ele>558.0</ele><time>2026-04-06T14:35:54.687Z</time></trkpt><trkpt lat="43.7846733" lon="12.412015"><ele>558.0</ele><time>2026-04-06T14:35:55.688Z</time></trkpt><trkpt lat="43.7847433" lon="12.41213"><ele>558.0</ele><time>2026-04-06T14:35:56.685Z</time></trkpt><trkpt lat="43.7848083" lon="12.412235"><ele>558.0</ele><time>2026-04-06T14:35:57.684Z</time></trkpt><trkpt lat="43.7848683" lon="12.4123367"><ele>558.0</ele><time>2026-04-06T14:35:58.689Z</time></trkpt><trkpt lat="43.7849367" lon="12.4124317"><ele>558.0</ele><time>2026-04-06T14:35:59.686Z</time></trkpt><trkpt lat="43.7850017" lon="12.412505"><ele>558.8333333333334</ele><time>2026-04-06T14:36:00.686Z</time></trkpt><trkpt lat="43.7850733" lon="12.4125683"><ele>559.6666666666666</ele><time>2026-04-06T14:36:01.688Z</time></trkpt><trkpt lat="43.785155" lon="12.412615"><ele>560.5</ele><time>2026-04-06T14:36:02.686Z</time></trkpt><trkpt lat="43.78524" lon="12.412635"><ele>561.3333333333333</ele><time>2026-04-06T14:36:03.684Z</time></trkpt><trkpt lat="43.7853283" lon="12.4126267"><ele>562.1666666666666</ele><time>2026-04-06T14:36:04.685Z</time></trkpt><trkpt lat="43.7854233" lon="12.41262"><ele>563.0</ele><time>2026-04-06T14:36:05.686Z</time></trkpt><trkpt lat="43.7855267" lon="12.4126233"><ele>563.0</ele><time>2026-04-06T14:36:06.687Z</time></trkpt><trkpt lat="43.7856317" lon="12.4126433"><ele>563.0</ele><time>2026-04-06T14:36:07.686Z</time></trkpt><trkpt lat="43.7857417" lon="12.4126733"><ele>563.0</ele><time>2026-04-06T14:36:08.685Z</time></trkpt><trkpt lat="43.7858583" lon="12.412715"><ele>563.0</ele><time>2026-04-06T14:36:09.685Z</time></trkpt><trkpt lat="43.7859767" lon="12.412775"><ele>561.5</ele><time>2026-04-06T14:36:10.686Z</time></trkpt><trkpt lat="43.7860967" lon="12.41284"><ele>560.0</ele><time>2026-04-06T14:36:11.688Z</time></trkpt><trkpt lat="43.786215" lon="12.4128967"><ele>558.5</ele><time>2026-04-06T14:36:12.686Z</time></trkpt><trkpt lat="43.7863333" lon="12.41294"><ele>557.0</ele><time>2026-04-06T14:36:13.687Z</time></trkpt><trkpt lat="43.78644" lon="12.41298"><ele>557.0</ele><time>2026-04-06T14:36:14.685Z</time></trkpt><trkpt lat="43.7865283" lon="12.413025"><ele>557.0</ele><time>2026-04-06T14:36:15.686Z</time></trkpt><trkpt lat="43.7866" lon="12.4130867"><ele>557.0</ele><time>2026-04-06T14:36:16.686Z</time></trkpt><trkpt lat="43.7866483" lon="12.413165"><ele>557.0</ele><time>2026-04-06T14:36:17.688Z</time></trkpt><trkpt lat="43.7866917" lon="12.4132583"><ele>557.0</ele><time>2026-04-06T14:36:18.685Z</time></trkpt><trkpt lat="43.786695" lon="12.4133667"><ele>557.0</ele><time>2026-04-06T14:36:19.687Z</time></trkpt><trkpt lat="43.7866667" lon="12.41348"><ele>557.0</ele><time>2026-04-06T14:36:20.686Z</time></trkpt><trkpt lat="43.78663" lon="12.4135833"><ele>557.0</ele><time>2026-04-06T14:36:21.686Z</time></trkpt><trkpt lat="43.78658" lon="12.41368"><ele>557.0</ele><time>2026-04-06T14:36:22.684Z</time></trkpt><trkpt lat="43.786535" lon="12.41378"><ele>557.0</ele><time>2026-04-06T14:36:23.69Z</time></trkpt><trkpt lat="43.7865" lon="12.4138867"><ele>557.0</ele><time>2026-04-06T14:36:24.685Z</time></trkpt><trkpt lat="43.786485" lon="12.41398"><ele>557.0</ele><time>2026-04-06T14:36:25.688Z</time></trkpt><trkpt lat="43.7864883" lon="12.4140733"><ele>555.2</ele><time>2026-04-06T14:36:26.686Z</time></trkpt><trkpt lat="43.78656" lon="12.4142017"><ele>553.4000000000001</ele><time>2026-04-06T14:36:28.686Z</time></trkpt><trkpt lat="43.7866367" lon="12.4142267"><ele>551.5999999999999</ele><time>2026-04-06T14:36:29.684Z</time></trkpt><trkpt lat="43.7867083" lon="12.4142333"><ele>549.8</ele><time>2026-04-06T14:36:30.686Z</time></trkpt><trkpt lat="43.7868367" lon="12.41417"><ele>548.0</ele><time>2026-04-06T14:36:32.685Z</time></trkpt><trkpt lat="43.7869067" lon="12.4141017"><ele>546.0</ele><time>2026-04-06T14:36:33.685Z</time></trkpt><trkpt lat="43.7869917" lon="12.4140117"><ele>544.0</ele><time>2026-04-06T14:36:34.686Z</time></trkpt><trkpt lat="43.7870783" lon="12.413925"><ele>542.0</ele><time>2026-04-06T14:36:35.686Z</time></trkpt><trkpt lat="43.787165" lon="12.4138433"><ele>540.0</ele><time>2026-04-06T14:36:36.686Z</time></trkpt><trkpt lat="43.7872533" lon="12.4137517"><ele>538.0</ele><time>2026-04-06T14:36:37.688Z</time></trkpt><trkpt lat="43.7873433" lon="12.4136567"><ele>538.0</ele><time>2026-04-06T14:36:38.686Z</time></trkpt><trkpt lat="43.7874317" lon="12.4135583"><ele>538.0</ele><time>2026-04-06T14:36:39.685Z</time></trkpt><trkpt lat="43.7875233" lon="12.4134683"><ele>538.0</ele><time>2026-04-06T14:36:40.686Z</time></trkpt><trkpt lat="43.78761" lon="12.41338"><ele>538.0</ele><time>2026-04-06T14:36:41.687Z</time></trkpt><trkpt lat="43.7876917" lon="12.4132917"><ele>538.0</ele><time>2026-04-06T14:36:42.686Z</time></trkpt><trkpt lat="43.787755" lon="12.4132083"><ele>535.1999999999999</ele><time>2026-04-06T14:36:43.687Z</time></trkpt><trkpt lat="43.787815" lon="12.41312"><ele>532.4</ele><time>2026-04-06T14:36:44.686Z</time></trkpt><trkpt lat="43.7878683" lon="12.4130217"><ele>529.5999999999999</ele><time>2026-04-06T14:36:45.686Z</time></trkpt><trkpt lat="43.78791" lon="12.4129083"><ele>526.8</ele><time>2026-04-06T14:36:46.686Z</time></trkpt><trkpt lat="43.787945" lon="12.412775"><ele>524.0</ele><time>2026-04-06T14:36:47.685Z</time></trkpt><trkpt lat="43.787975" lon="12.4126433"><ele>524.0</ele><time>2026-04-06T14:36:48.686Z</time></trkpt><trkpt lat="43.7880117" lon="12.412525"><ele>524.0</ele><time>2026-04-06T14:36:49.685Z</time></trkpt><trkpt lat="43.7880567" lon="12.4124167"><ele>524.0</ele><time>2026-04-06T14:36:50.683Z</time></trkpt><trkpt lat="43.7881167" lon="12.412315"><ele>524.0</ele><time>2026-04-06T14:36:51.684Z</time></trkpt><trkpt lat="43.7881867" lon="12.4122217"><ele>524.0</ele><time>2026-04-06T14:36:52.686Z</time></trkpt><trkpt lat="43.7882733" lon="12.4121517"><ele>524.25</ele><time>2026-04-06T14:36:53.688Z</time></trkpt><trkpt lat="43.788375" lon="12.4120983"><ele>524.5</ele><time>2026-04-06T14:36:54.687Z</time></trkpt><trkpt lat="43.788485" lon="12.4120683"><ele>524.75</ele><time>2026-04-06T14:36:55.687Z</time></trkpt><trkpt lat="43.7886017" lon="12.41206"><ele>525.0</ele><time>2026-04-06T14:36:56.686Z</time></trkpt><trkpt lat="43.788725" lon="12.41206"><ele>522.25</ele><time>2026-04-06T14:36:57.686Z</time></trkpt><trkpt lat="43.7888583" lon="12.412075"><ele>519.5</ele><time>2026-04-06T14:36:58.687Z</time></trkpt><trkpt lat="43.7889867" lon="12.412105"><ele>516.75</ele><time>2026-04-06T14:36:59.686Z</time></trkpt><trkpt lat="43.7891117" lon="12.4121333"><ele>514.0</ele><time>2026-04-06T14:37:00.686Z</time></trkpt><trkpt lat="43.789235" lon="12.4121633"><ele>514.0</ele><time>2026-04-06T14:37:01.687Z</time></trkpt><trkpt lat="43.78935" lon="12.4122117"><ele>514.0</ele><time>2026-04-06T14:37:02.684Z</time></trkpt><trkpt lat="43.7894567" lon="12.4122833"><ele>514.0</ele><time>2026-04-06T14:37:03.686Z</time></trkpt><trkpt lat="43.789565" lon="12.412375"><ele>514.0</ele><time>2026-04-06T14:37:04.686Z</time></trkpt><trkpt lat="43.78967" lon="12.4124733"><ele>514.0</ele><time>2026-04-06T14:37:05.685Z</time></trkpt><trkpt lat="43.7897717" lon="12.4125617"><ele>514.0</ele><time>2026-04-06T14:37:06.686Z</time></trkpt><trkpt lat="43.7898733" lon="12.41265"><ele>514.0</ele><time>2026-04-06T14:37:07.691Z</time></trkpt><trkpt lat="43.7899783" lon="12.412735"><ele>514.0</ele><time>2026-04-06T14:37:08.684Z</time></trkpt><trkpt lat="43.7900867" lon="12.4128133"><ele>512.75</ele><time>2026-04-06T14:37:09.685Z</time></trkpt><trkpt lat="43.7901967" lon="12.4128817"><ele>511.5</ele><time>2026-04-06T14:37:10.685Z</time></trkpt><trkpt lat="43.7903183" lon="12.4129383"><ele>510.25</ele><time>2026-04-06T14:37:11.69Z</time></trkpt><trkpt lat="43.7904317" lon="12.4129867"><ele>509.0</ele><time>2026-04-06T14:37:12.686Z</time></trkpt><trkpt lat="43.7905433" lon="12.4130367"><ele>508.25</ele><time>2026-04-06T14:37:13.687Z</time></trkpt><trkpt lat="43.790655" lon="12.4130933"><ele>507.5</ele><time>2026-04-06T14:37:14.688Z</time></trkpt><trkpt lat="43.7907633" lon="12.4131583"><ele>506.75</ele><time>2026-04-06T14:37:15.685Z</time></trkpt><trkpt lat="43.7908667" lon="12.4132233"><ele>506.0</ele><time>2026-04-06T14:37:16.686Z</time></trkpt><trkpt lat="43.7909667" lon="12.41329"><ele>503.8</ele><time>2026-04-06T14:37:17.685Z</time></trkpt><trkpt lat="43.7910617" lon="12.41336"><ele>501.6</ele><time>2026-04-06T14:37:18.685Z</time></trkpt><trkpt lat="43.7911533" lon="12.413435"><ele>499.4</ele><time>2026-04-06T14:37:19.687Z</time></trkpt><trkpt lat="43.791225" lon="12.41352"><ele>497.2</ele><time>2026-04-06T14:37:20.683Z</time></trkpt><trkpt lat="43.791285" lon="12.4136133"><ele>495.0</ele><time>2026-04-06T14:37:21.684Z</time></trkpt><trkpt lat="43.7913233" lon="12.41372"><ele>493.2</ele><time>2026-04-06T14:37:22.686Z</time></trkpt><trkpt lat="43.7913383" lon="12.4138383"><ele>491.4</ele><time>2026-04-06T14:37:23.688Z</time></trkpt><trkpt lat="43.7913217" lon="12.4139683"><ele>489.6</ele><time>2026-04-06T14:37:24.685Z</time></trkpt><trkpt lat="43.7912817" lon="12.414095"><ele>487.8</ele><time>2026-04-06T14:37:25.685Z</time></trkpt><trkpt lat="43.7912233" lon="12.414225"><ele>486.0</ele><time>2026-04-06T14:37:26.687Z</time></trkpt><trkpt lat="43.7911567" lon="12.4143517"><ele>486.0</ele><time>2026-04-06T14:37:27.686Z</time></trkpt><trkpt lat="43.7910883" lon="12.414475"><ele>486.0</ele><time>2026-04-06T14:37:28.686Z</time></trkpt><trkpt lat="43.79103" lon="12.414595"><ele>486.0</ele><time>2026-04-06T14:37:29.686Z</time></trkpt><trkpt lat="43.79098" lon="12.4147033"><ele>486.0</ele><time>2026-04-06T14:37:30.687Z</time></trkpt><trkpt lat="43.79094" lon="12.4147933"><ele>486.0</ele><time>2026-04-06T14:37:31.687Z</time></trkpt><trkpt lat="43.79091" lon="12.414875"><ele>485.6</ele><time>2026-04-06T14:37:32.685Z</time></trkpt><trkpt lat="43.7909033" lon="12.415005"><ele>485.20000000000005</ele><time>2026-04-06T14:37:34.686Z</time></trkpt><trkpt lat="43.7909483" lon="12.415145"><ele>484.79999999999995</ele><time>2026-04-06T14:37:36.686Z</time></trkpt><trkpt lat="43.791045" lon="12.41525"><ele>484.4</ele><time>2026-04-06T14:37:38.685Z</time></trkpt><trkpt lat="43.79111" lon="12.415275"><ele>484.0</ele><time>2026-04-06T14:37:39.684Z</time></trkpt><trkpt lat="43.7911883" lon="12.4152783"><ele>482.6666666666667</ele><time>2026-04-06T14:37:40.688Z</time></trkpt><trkpt lat="43.7912717" lon="12.415245"><ele>481.33333333333337</ele><time>2026-04-06T14:37:41.687Z</time></trkpt><trkpt lat="43.79135" lon="12.4152067"><ele>480.0</ele><time>2026-04-06T14:37:42.686Z</time></trkpt><trkpt lat="43.79142" lon="12.4151733"><ele>478.66666666666663</ele><time>2026-04-06T14:37:43.688Z</time></trkpt><trkpt lat="43.7914817" lon="12.4151517"><ele>477.3333333333333</ele><time>2026-04-06T14:37:44.687Z</time></trkpt><trkpt lat="43.7915833" lon="12.4151917"><ele>476.0</ele><time>2026-04-06T14:37:46.685Z</time></trkpt><trkpt lat="43.7916533" lon="12.415305"><ele>475.99999999999994</ele><time>2026-04-06T14:37:48.685Z</time></trkpt><trkpt lat="43.79166" lon="12.4154133"><ele>476.0</ele><time>2026-04-06T14:37:49.687Z</time></trkpt><trkpt lat="43.79165" lon="12.4155183"><ele>476.0</ele><time>2026-04-06T14:37:50.687Z</time></trkpt><trkpt lat="43.791625" lon="12.4156383"><ele>476.0</ele><time>2026-04-06T14:37:51.686Z</time></trkpt><trkpt lat="43.79161" lon="12.4157517"><ele>475.99999999999994</ele><time>2026-04-06T14:37:52.687Z</time></trkpt><trkpt lat="43.7916133" lon="12.4158633"><ele>476.0</ele><time>2026-04-06T14:37:53.683Z</time></trkpt><trkpt lat="43.7916283" lon="12.4159683"><ele>473.8333333333333</ele><time>2026-04-06T14:37:54.686Z</time></trkpt><trkpt lat="43.7916567" lon="12.4160617"><ele>471.66666666666663</ele><time>2026-04-06T14:37:55.687Z</time></trkpt><trkpt lat="43.7917133" lon="12.4161417"><ele>469.5</ele><time>2026-04-06T14:37:56.686Z</time></trkpt><trkpt lat="43.7917867" lon="12.41621"><ele>467.33333333333337</ele><time>2026-04-06T14:37:57.685Z</time></trkpt><trkpt lat="43.7918717" lon="12.416265"><ele>465.1666666666667</ele><time>2026-04-06T14:37:58.685Z</time></trkpt><trkpt lat="43.7919517" lon="12.4163083"><ele>463.0</ele><time>2026-04-06T14:37:59.69Z</time></trkpt><trkpt lat="43.79203" lon="12.416355"><ele>460.0</ele><time>2026-04-06T14:38:00.686Z</time></trkpt><trkpt lat="43.7921017" lon="12.4164167"><ele>456.99999999999994</ele><time>2026-04-06T14:38:01.686Z</time></trkpt><trkpt lat="43.7921667" lon="12.4164933"><ele>453.99999999999994</ele><time>2026-04-06T14:38:02.684Z</time></trkpt><trkpt lat="43.792225" lon="12.4165967"><ele>451.0</ele><time>2026-04-06T14:38:03.685Z</time></trkpt><trkpt lat="43.79228" lon="12.4167417"><ele>448.0</ele><time>2026-04-06T14:38:04.689Z</time></trkpt><trkpt lat="43.79234" lon="12.4168967"><ele>448.0</ele><time>2026-04-06T14:38:05.687Z</time></trkpt><trkpt lat="43.792395" lon="12.4170517"><ele>448.0</ele><time>2026-04-06T14:38:06.686Z</time></trkpt><trkpt lat="43.792455" lon="12.4172083"><ele>448.0</ele><time>2026-04-06T14:38:07.685Z</time></trkpt><trkpt lat="43.7925233" lon="12.4173683"><ele>448.0</ele><time>2026-04-06T14:38:08.688Z</time></trkpt><trkpt lat="43.792595" lon="12.41753"><ele>446.25</ele><time>2026-04-06T14:38:09.687Z</time></trkpt><trkpt lat="43.7926717" lon="12.4176917"><ele>444.5</ele><time>2026-04-06T14:38:10.686Z</time></trkpt><trkpt lat="43.79275" lon="12.4178383"><ele>442.75</ele><time>2026-04-06T14:38:11.686Z</time></trkpt><trkpt lat="43.7928317" lon="12.4179783"><ele>441.0</ele><time>2026-04-06T14:38:12.686Z</time></trkpt><trkpt lat="43.7929017" lon="12.4181117"><ele>440.0</ele><time>2026-04-06T14:38:13.687Z</time></trkpt><trkpt lat="43.7929567" lon="12.4182483"><ele>439.0</ele><time>2026-04-06T14:38:14.685Z</time></trkpt><trkpt lat="43.792995" lon="12.4183983"><ele>438.0</ele><time>2026-04-06T14:38:15.687Z</time></trkpt><trkpt lat="43.7930183" lon="12.4185617"><ele>437.0</ele><time>2026-04-06T14:38:16.685Z</time></trkpt><trkpt lat="43.7930433" lon="12.4187333"><ele>438.0</ele><time>2026-04-06T14:38:17.684Z</time></trkpt><trkpt lat="43.7930817" lon="12.4189"><ele>439.0</ele><time>2026-04-06T14:38:18.685Z</time></trkpt><trkpt lat="43.7931333" lon="12.4190517"><ele>440.0</ele><time>2026-04-06T14:38:19.684Z</time></trkpt><trkpt lat="43.7932133" lon="12.4191867"><ele>441.0</ele><time>2026-04-06T14:38:20.687Z</time></trkpt><trkpt lat="43.7933017" lon="12.4193033"><ele>441.0</ele><time>2026-04-06T14:38:21.685Z</time></trkpt><trkpt lat="43.7933667" lon="12.4194083"><ele>441.0</ele><time>2026-04-06T14:38:22.686Z</time></trkpt><trkpt lat="43.793415" lon="12.4195233"><ele>441.0</ele><time>2026-04-06T14:38:23.686Z</time></trkpt><trkpt lat="43.79344" lon="12.41965"><ele>441.0</ele><time>2026-04-06T14:38:24.689Z</time></trkpt><trkpt lat="43.7934333" lon="12.4197783"><ele>441.0</ele><time>2026-04-06T14:38:25.685Z</time></trkpt><trkpt lat="43.7933983" lon="12.419915"><ele>442.0</ele><time>2026-04-06T14:38:26.683Z</time></trkpt><trkpt lat="43.7933533" lon="12.42006"><ele>443.0</ele><time>2026-04-06T14:38:27.683Z</time></trkpt><trkpt lat="43.7933067" lon="12.42021"><ele>444.0</ele><time>2026-04-06T14:38:28.686Z</time></trkpt><trkpt lat="43.7932483" lon="12.420355"><ele>445.0</ele><time>2026-04-06T14:38:29.685Z</time></trkpt><trkpt lat="43.793195" lon="12.4204833"><ele>446.0</ele><time>2026-04-06T14:38:30.685Z</time></trkpt><trkpt lat="43.7931567" lon="12.4206167"><ele>447.0</ele><time>2026-04-06T14:38:31.685Z</time></trkpt><trkpt lat="43.7931383" lon="12.4207517"><ele>448.0</ele><time>2026-04-06T14:38:32.684Z</time></trkpt><trkpt lat="43.79314" lon="12.4208917"><ele>449.0</ele><time>2026-04-06T14:38:33.684Z</time></trkpt><trkpt lat="43.7931583" lon="12.4210317"><ele>450.0</ele><time>2026-04-06T14:38:34.689Z</time></trkpt><trkpt lat="43.7931883" lon="12.4211633"><ele>450.0</ele><time>2026-04-06T14:38:35.686Z</time></trkpt><trkpt lat="43.7932217" lon="12.4212967"><ele>450.0</ele><time>2026-04-06T14:38:36.685Z</time></trkpt><trkpt lat="43.7932583" lon="12.4214417"><ele>450.0</ele><time>2026-04-06T14:38:37.685Z</time></trkpt><trkpt lat="43.7933017" lon="12.4215967"><ele>450.0</ele><time>2026-04-06T14:38:38.684Z</time></trkpt><trkpt lat="43.7933617" lon="12.421745"><ele>449.0</ele><time>2026-04-06T14:38:39.684Z</time></trkpt><trkpt lat="43.7934367" lon="12.4218783"><ele>448.0</ele><time>2026-04-06T14:38:40.686Z</time></trkpt><trkpt lat="43.7935167" lon="12.422"><ele>447.0</ele><time>2026-04-06T14:38:41.686Z</time></trkpt><trkpt lat="43.7935933" lon="12.4221133"><ele>446.0</ele><time>2026-04-06T14:38:42.685Z</time></trkpt><trkpt lat="43.793655" lon="12.4222283"><ele>444.0</ele><time>2026-04-06T14:38:43.687Z</time></trkpt><trkpt lat="43.793695" lon="12.4223583"><ele>442.0</ele><time>2026-04-06T14:38:44.686Z</time></trkpt><trkpt lat="43.7937167" lon="12.422495"><ele>440.0</ele><time>2026-04-06T14:38:45.685Z</time></trkpt><trkpt lat="43.7937267" lon="12.4226267"><ele>438.0</ele><time>2026-04-06T14:38:46.686Z</time></trkpt><trkpt lat="43.79373" lon="12.42274"><ele>436.0</ele><time>2026-04-06T14:38:47.686Z</time></trkpt><trkpt lat="43.793735" lon="12.42284"><ele>436.00000000000006</ele><time>2026-04-06T14:38:48.685Z</time></trkpt><trkpt lat="43.79375" lon="12.4229383"><ele>436.0</ele><time>2026-04-06T14:38:49.689Z</time></trkpt><trkpt lat="43.7937817" lon="12.4230367"><ele>436.0</ele><time>2026-04-06T14:38:50.686Z</time></trkpt><trkpt lat="43.79384" lon="12.4231217"><ele>436.0</ele><time>2026-04-06T14:38:51.686Z</time></trkpt><trkpt lat="43.7939067" lon="12.4231933"><ele>436.00000000000006</ele><time>2026-04-06T14:38:52.686Z</time></trkpt><trkpt lat="43.794" lon="12.4232583"><ele>436.0</ele><time>2026-04-06T14:38:53.681Z</time></trkpt><trkpt lat="43.7941217" lon="12.4233317"><ele>437.0</ele><time>2026-04-06T14:38:54.685Z</time></trkpt><trkpt lat="43.7942383" lon="12.4234067"><ele>438.0</ele><time>2026-04-06T14:38:55.685Z</time></trkpt><trkpt lat="43.7943417" lon="12.4234767"><ele>439.0</ele><time>2026-04-06T14:38:56.686Z</time></trkpt><trkpt lat="43.7944517" lon="12.4235533"><ele>440.0</ele><time>2026-04-06T14:38:57.684Z</time></trkpt><trkpt lat="43.794565" lon="12.423635"><ele>438.4</ele><time>2026-04-06T14:38:58.684Z</time></trkpt><trkpt lat="43.7946733" lon="12.4237233"><ele>436.8</ele><time>2026-04-06T14:38:59.683Z</time></trkpt><trkpt lat="43.79477" lon="12.4238233"><ele>435.20000000000005</ele><time>2026-04-06T14:39:00.684Z</time></trkpt><trkpt lat="43.79485" lon="12.4239167"><ele>433.6</ele><time>2026-04-06T14:39:01.686Z</time></trkpt><trkpt lat="43.79492" lon="12.423995"><ele>432.0</ele><time>2026-04-06T14:39:02.683Z</time></trkpt><trkpt lat="43.7949833" lon="12.4240617"><ele>432.0</ele><time>2026-04-06T14:39:03.684Z</time></trkpt><trkpt lat="43.7950483" lon="12.4241117"><ele>432.0</ele><time>2026-04-06T14:39:04.684Z</time></trkpt><trkpt lat="43.7951183" lon="12.4241433"><ele>432.0</ele><time>2026-04-06T14:39:05.683Z</time></trkpt><trkpt lat="43.79519" lon="12.4241533"><ele>432.0</ele><time>2026-04-06T14:39:06.684Z</time></trkpt><trkpt lat="43.79526" lon="12.4241267"><ele>432.0</ele><time>2026-04-06T14:39:07.687Z</time></trkpt><trkpt lat="43.7953233" lon="12.4240817"><ele>432.0</ele><time>2026-04-06T14:39:08.684Z</time></trkpt><trkpt lat="43.79538" lon="12.4240117"><ele>432.0</ele><time>2026-04-06T14:39:09.684Z</time></trkpt><trkpt lat="43.79543" lon="12.42394"><ele>431.40000000000003</ele><time>2026-04-06T14:39:10.686Z</time></trkpt><trkpt lat="43.7954617" lon="12.4238417"><ele>430.80000000000007</ele><time>2026-04-06T14:39:11.682Z</time></trkpt><trkpt lat="43.79548" lon="12.4237183"><ele>430.2</ele><time>2026-04-06T14:39:12.686Z</time></trkpt><trkpt lat="43.7954667" lon="12.4235733"><ele>429.6</ele><time>2026-04-06T14:39:13.687Z</time></trkpt><trkpt lat="43.795435" lon="12.4234217"><ele>429.0</ele><time>2026-04-06T14:39:14.688Z</time></trkpt><trkpt lat="43.7953967" lon="12.42328"><ele>426.0</ele><time>2026-04-06T14:39:15.686Z</time></trkpt><trkpt lat="43.795355" lon="12.423145"><ele>423.0</ele><time>2026-04-06T14:39:16.685Z</time></trkpt><trkpt lat="43.7953083" lon="12.4230167"><ele>420.0</ele><time>2026-04-06T14:39:17.684Z</time></trkpt><trkpt lat="43.7952817" lon="12.4228917"><ele>417.0</ele><time>2026-04-06T14:39:18.685Z</time></trkpt><trkpt lat="43.79527" lon="12.4227583"><ele>414.0</ele><time>2026-04-06T14:39:19.686Z</time></trkpt><trkpt lat="43.7952817" lon="12.4226217"><ele>412.5</ele><time>2026-04-06T14:39:20.683Z</time></trkpt><trkpt lat="43.7953217" lon="12.4224783"><ele>411.0</ele><time>2026-04-06T14:39:21.684Z</time></trkpt><trkpt lat="43.79537" lon="12.42233"><ele>409.5</ele><time>2026-04-06T14:39:22.685Z</time></trkpt><trkpt lat="43.7954233" lon="12.4221817"><ele>408.0</ele><time>2026-04-06T14:39:23.684Z</time></trkpt><trkpt lat="43.7954733" lon="12.422035"><ele>407.2</ele><time>2026-04-06T14:39:24.684Z</time></trkpt><trkpt lat="43.7955183" lon="12.4218883"><ele>406.4</ele><time>2026-04-06T14:39:25.685Z</time></trkpt><trkpt lat="43.7955633" lon="12.4217467"><ele>405.59999999999997</ele><time>2026-04-06T14:39:26.684Z</time></trkpt><trkpt lat="43.795605" lon="12.4216133"><ele>404.79999999999995</ele><time>2026-04-06T14:39:27.684Z</time></trkpt><trkpt lat="43.7956483" lon="12.42149"><ele>404.0</ele><time>2026-04-06T14:39:28.684Z</time></trkpt><trkpt lat="43.7956933" lon="12.4213717"><ele>403.16666666666663</ele><time>2026-04-06T14:39:29.684Z</time></trkpt><trkpt lat="43.7957433" lon="12.4212633"><ele>402.3333333333333</ele><time>2026-04-06T14:39:30.685Z</time></trkpt><trkpt lat="43.7958017" lon="12.42117"><ele>401.5</ele><time>2026-04-06T14:39:31.687Z</time></trkpt><trkpt lat="43.7958633" lon="12.4210917"><ele>400.66666666666663</ele><time>2026-04-06T14:39:32.684Z</time></trkpt><trkpt lat="43.7959333" lon="12.4210483"><ele>399.8333333333333</ele><time>2026-04-06T14:39:33.688Z</time></trkpt><trkpt lat="43.79601" lon="12.4210317"><ele>399.0</ele><time>2026-04-06T14:39:34.684Z</time></trkpt><trkpt lat="43.79609" lon="12.421055"><ele>397.1666666666667</ele><time>2026-04-06T14:39:35.688Z</time></trkpt><trkpt lat="43.7961583" lon="12.4210933"><ele>395.33333333333337</ele><time>2026-04-06T14:39:36.686Z</time></trkpt><trkpt lat="43.7962183" lon="12.42117"><ele>393.5</ele><time>2026-04-06T14:39:37.686Z</time></trkpt><trkpt lat="43.7962617" lon="12.42128"><ele>391.6666666666667</ele><time>2026-04-06T14:39:38.684Z</time></trkpt><trkpt lat="43.7962983" lon="12.42139"><ele>389.83333333333337</ele><time>2026-04-06T14:39:39.687Z</time></trkpt><trkpt lat="43.7963017" lon="12.421505"><ele>388.0</ele><time>2026-04-06T14:39:40.687Z</time></trkpt><trkpt lat="43.79629" lon="12.4216183"><ele>388.00000000000006</ele><time>2026-04-06T14:39:41.682Z</time></trkpt><trkpt lat="43.79629" lon="12.4217283"><ele>388.0</ele><time>2026-04-06T14:39:42.685Z</time></trkpt><trkpt lat="43.79631" lon="12.4218317"><ele>388.0</ele><time>2026-04-06T14:39:43.688Z</time></trkpt><trkpt lat="43.79636" lon="12.4219183"><ele>388.0</ele><time>2026-04-06T14:39:44.686Z</time></trkpt><trkpt lat="43.796425" lon="12.4219917"><ele>388.00000000000006</ele><time>2026-04-06T14:39:45.683Z</time></trkpt><trkpt lat="43.7965033" lon="12.422055"><ele>388.0</ele><time>2026-04-06T14:39:46.687Z</time></trkpt><trkpt lat="43.7965817" lon="12.4221017"><ele>388.00000000000006</ele><time>2026-04-06T14:39:47.684Z</time></trkpt><trkpt lat="43.796655" lon="12.42213"><ele>388.0</ele><time>2026-04-06T14:39:48.685Z</time></trkpt><trkpt lat="43.7967217" lon="12.4221333"><ele>388.0</ele><time>2026-04-06T14:39:49.685Z</time></trkpt><trkpt lat="43.796835" lon="12.4220483"><ele>388.0</ele><time>2026-04-06T14:39:51.685Z</time></trkpt><trkpt lat="43.79687" lon="12.4219483"><ele>388.00000000000006</ele><time>2026-04-06T14:39:52.685Z</time></trkpt><trkpt lat="43.7968833" lon="12.421835"><ele>388.0</ele><time>2026-04-06T14:39:53.683Z</time></trkpt><trkpt lat="43.7968883" lon="12.42171"><ele>385.50000000000006</ele><time>2026-04-06T14:39:54.684Z</time></trkpt><trkpt lat="43.7968983" lon="12.421585"><ele>383.0</ele><time>2026-04-06T14:39:55.687Z</time></trkpt><trkpt lat="43.796925" lon="12.4214783"><ele>380.5</ele><time>2026-04-06T14:39:56.684Z</time></trkpt><trkpt lat="43.79697" lon="12.4213867"><ele>378.0</ele><time>2026-04-06T14:39:57.685Z</time></trkpt><trkpt lat="43.7970317" lon="12.4212983"><ele>375.5</ele><time>2026-04-06T14:39:58.684Z</time></trkpt><trkpt lat="43.79711" lon="12.42121"><ele>373.0</ele><time>2026-04-06T14:39:59.683Z</time></trkpt><trkpt lat="43.7972" lon="12.4211233"><ele>373.0</ele><time>2026-04-06T14:40:00.684Z</time></trkpt><trkpt lat="43.797295" lon="12.421045"><ele>373.0</ele><time>2026-04-06T14:40:01.686Z</time></trkpt><trkpt lat="43.7973917" lon="12.4209767"><ele>373.0</ele><time>2026-04-06T14:40:02.684Z</time></trkpt><trkpt lat="43.7974867" lon="12.4209133"><ele>373.0</ele><time>2026-04-06T14:40:03.684Z</time></trkpt><trkpt lat="43.7975833" lon="12.4208617"><ele>373.0</ele><time>2026-04-06T14:40:04.686Z</time></trkpt><trkpt lat="43.797685" lon="12.42083"><ele>370.5</ele><time>2026-04-06T14:40:05.684Z</time></trkpt><trkpt lat="43.7977867" lon="12.42081"><ele>368.0</ele><time>2026-04-06T14:40:06.684Z</time></trkpt><trkpt lat="43.7978967" lon="12.42081"><ele>365.5</ele><time>2026-04-06T14:40:07.686Z</time></trkpt><trkpt lat="43.7980133" lon="12.4208217"><ele>363.0</ele><time>2026-04-06T14:40:08.683Z</time></trkpt><trkpt lat="43.798135" lon="12.420835"><ele>363.0</ele><time>2026-04-06T14:40:09.686Z</time></trkpt><trkpt lat="43.7982583" lon="12.42084"><ele>363.0</ele><time>2026-04-06T14:40:10.685Z</time></trkpt><trkpt lat="43.7983783" lon="12.420835"><ele>363.0</ele><time>2026-04-06T14:40:11.687Z</time></trkpt><trkpt lat="43.7984917" lon="12.4208233"><ele>363.0</ele><time>2026-04-06T14:40:12.685Z</time></trkpt><trkpt lat="43.7985933" lon="12.4208117"><ele>361.6666666666667</ele><time>2026-04-06T14:40:13.688Z</time></trkpt><trkpt lat="43.79868" lon="12.4208033"><ele>360.3333333333333</ele><time>2026-04-06T14:40:14.684Z</time></trkpt><trkpt lat="43.7987567" lon="12.4208017"><ele>359.0</ele><time>2026-04-06T14:40:15.685Z</time></trkpt><trkpt lat="43.7988333" lon="12.420815"><ele>357.66666666666663</ele><time>2026-04-06T14:40:16.684Z</time></trkpt><trkpt lat="43.798905" lon="12.4208517"><ele>356.3333333333333</ele><time>2026-04-06T14:40:17.685Z</time></trkpt><trkpt lat="43.7989717" lon="12.4209183"><ele>355.0</ele><time>2026-04-06T14:40:18.686Z</time></trkpt><trkpt lat="43.7990267" lon="12.4210183"><ele>355.0</ele><time>2026-04-06T14:40:19.688Z</time></trkpt><trkpt lat="43.7990467" lon="12.421155"><ele>355.0</ele><time>2026-04-06T14:40:20.685Z</time></trkpt><trkpt lat="43.7990683" lon="12.421295"><ele>355.0</ele><time>2026-04-06T14:40:21.684Z</time></trkpt><trkpt lat="43.799095" lon="12.4214333"><ele>355.0</ele><time>2026-04-06T14:40:22.685Z</time></trkpt><trkpt lat="43.7991317" lon="12.421565"><ele>355.0</ele><time>2026-04-06T14:40:23.685Z</time></trkpt><trkpt lat="43.799185" lon="12.4216883"><ele>355.4</ele><time>2026-04-06T14:40:24.685Z</time></trkpt><trkpt lat="43.7992517" lon="12.4218033"><ele>355.8</ele><time>2026-04-06T14:40:25.687Z</time></trkpt><trkpt lat="43.799325" lon="12.4219067"><ele>356.20000000000005</ele><time>2026-04-06T14:40:26.683Z</time></trkpt><trkpt lat="43.7993983" lon="12.4220083"><ele>356.6</ele><time>2026-04-06T14:40:27.685Z</time></trkpt><trkpt lat="43.7994517" lon="12.4221267"><ele>357.0</ele><time>2026-04-06T14:40:28.685Z</time></trkpt><trkpt lat="43.79948" lon="12.4222683"><ele>354.0</ele><time>2026-04-06T14:40:29.684Z</time></trkpt><trkpt lat="43.7994833" lon="12.4224317"><ele>351.0</ele><time>2026-04-06T14:40:30.686Z</time></trkpt><trkpt lat="43.7994867" lon="12.4226083"><ele>348.0</ele><time>2026-04-06T14:40:31.685Z</time></trkpt><trkpt lat="43.7995017" lon="12.4227917"><ele>345.0</ele><time>2026-04-06T14:40:32.683Z</time></trkpt><trkpt lat="43.799535" lon="12.4229817"><ele>344.0</ele><time>2026-04-06T14:40:33.684Z</time></trkpt><trkpt lat="43.7995867" lon="12.4231717"><ele>343.0</ele><time>2026-04-06T14:40:34.685Z</time></trkpt><trkpt lat="43.7996467" lon="12.4233567"><ele>342.0</ele><time>2026-04-06T14:40:35.685Z</time></trkpt><trkpt lat="43.7997117" lon="12.4235383"><ele>341.0</ele><time>2026-04-06T14:40:36.685Z</time></trkpt><trkpt lat="43.7997717" lon="12.4237183"><ele>341.5</ele><time>2026-04-06T14:40:37.686Z</time></trkpt><trkpt lat="43.7998267" lon="12.4238967"><ele>342.0</ele><time>2026-04-06T14:40:38.683Z</time></trkpt><trkpt lat="43.799875" lon="12.4240733"><ele>342.5</ele><time>2026-04-06T14:40:39.687Z</time></trkpt><trkpt lat="43.7999067" lon="12.4242633"><ele>343.0</ele><time>2026-04-06T14:40:40.686Z</time></trkpt><trkpt lat="43.79991" lon="12.4244567"><ele>342.66666666666663</ele><time>2026-04-06T14:40:41.684Z</time></trkpt><trkpt lat="43.7998867" lon="12.424655"><ele>342.3333333333333</ele><time>2026-04-06T14:40:42.685Z</time></trkpt><trkpt lat="43.7998417" lon="12.42486"><ele>342.0</ele><time>2026-04-06T14:40:43.689Z</time></trkpt><trkpt lat="43.7997783" lon="12.4250517"><ele>342.0</ele><time>2026-04-06T14:40:44.687Z</time></trkpt><trkpt lat="43.799705" lon="12.4252283"><ele>342.0</ele><time>2026-04-06T14:40:45.683Z</time></trkpt><trkpt lat="43.7996483" lon="12.4254133"><ele>342.0</ele><time>2026-04-06T14:40:46.686Z</time></trkpt><trkpt lat="43.7996233" lon="12.4256167"><ele>342.0</ele><time>2026-04-06T14:40:47.682Z</time></trkpt><trkpt lat="43.799615" lon="12.4258367"><ele>341.0</ele><time>2026-04-06T14:40:48.686Z</time></trkpt><trkpt lat="43.799615" lon="12.426055"><ele>340.0</ele><time>2026-04-06T14:40:49.687Z</time></trkpt><trkpt lat="43.7996267" lon="12.4262783"><ele>339.0</ele><time>2026-04-06T14:40:50.685Z</time></trkpt><trkpt lat="43.7996417" lon="12.426505"><ele>338.6666666666667</ele><time>2026-04-06T14:40:51.683Z</time></trkpt><trkpt lat="43.799655" lon="12.4267317"><ele>338.33333333333337</ele><time>2026-04-06T14:40:52.685Z</time></trkpt><trkpt lat="43.7996683" lon="12.4269617"><ele>338.0</ele><time>2026-04-06T14:40:53.686Z</time></trkpt><trkpt lat="43.79968" lon="12.427185"><ele>337.25</ele><time>2026-04-06T14:40:54.685Z</time></trkpt><trkpt lat="43.79969" lon="12.4274"><ele>336.5</ele><time>2026-04-06T14:40:55.687Z</time></trkpt><trkpt lat="43.7996917" lon="12.4276017"><ele>335.75</ele><time>2026-04-06T14:40:56.687Z</time></trkpt><trkpt lat="43.7996967" lon="12.427805"><ele>335.0</ele><time>2026-04-06T14:40:57.684Z</time></trkpt><trkpt lat="43.799705" lon="12.427995"><ele>333.75</ele><time>2026-04-06T14:40:58.685Z</time></trkpt><trkpt lat="43.7997133" lon="12.4281717"><ele>332.5</ele><time>2026-04-06T14:40:59.686Z</time></trkpt><trkpt lat="43.79973" lon="12.428335"><ele>331.25</ele><time>2026-04-06T14:41:00.685Z</time></trkpt><trkpt lat="43.799755" lon="12.4284867"><ele>330.0</ele><time>2026-04-06T14:41:01.69Z</time></trkpt><trkpt lat="43.7997767" lon="12.428615"><ele>330.0</ele><time>2026-04-06T14:41:02.685Z</time></trkpt><trkpt lat="43.79982" lon="12.4287167"><ele>330.0</ele><time>2026-04-06T14:41:03.684Z</time></trkpt><trkpt lat="43.7998767" lon="12.4288083"><ele>330.0</ele><time>2026-04-06T14:41:04.684Z</time></trkpt><trkpt lat="43.799955" lon="12.4288617"><ele>330.0</ele><time>2026-04-06T14:41:05.687Z</time></trkpt><trkpt lat="43.8000583" lon="12.4288817"><ele>330.0</ele><time>2026-04-06T14:41:06.685Z</time></trkpt><trkpt lat="43.8001867" lon="12.42887"><ele>328.25</ele><time>2026-04-06T14:41:07.686Z</time></trkpt><trkpt lat="43.8003083" lon="12.428855"><ele>326.5</ele><time>2026-04-06T14:41:08.684Z</time></trkpt><trkpt lat="43.800435" lon="12.4288433"><ele>324.75</ele><time>2026-04-06T14:41:09.684Z</time></trkpt><trkpt lat="43.8005617" lon="12.428835"><ele>323.0</ele><time>2026-04-06T14:41:10.684Z</time></trkpt><trkpt lat="43.80069" lon="12.42883"><ele>323.0</ele><time>2026-04-06T14:41:11.685Z</time></trkpt><trkpt lat="43.8008233" lon="12.42883"><ele>323.0</ele><time>2026-04-06T14:41:12.685Z</time></trkpt><trkpt lat="43.800965" lon="12.4288483"><ele>323.0</ele><time>2026-04-06T14:41:13.686Z</time></trkpt><trkpt lat="43.8011017" lon="12.42887"><ele>323.0</ele><time>2026-04-06T14:41:14.687Z</time></trkpt><trkpt lat="43.8012283" lon="12.4288933"><ele>323.4</ele><time>2026-04-06T14:41:15.686Z</time></trkpt><trkpt lat="43.8013467" lon="12.428925"><ele>323.79999999999995</ele><time>2026-04-06T14:41:16.683Z</time></trkpt><trkpt lat="43.8014517" lon="12.4289817"><ele>324.2</ele><time>2026-04-06T14:41:17.686Z</time></trkpt><trkpt lat="43.8015283" lon="12.4290633"><ele>324.6</ele><time>2026-04-06T14:41:18.685Z</time></trkpt><trkpt lat="43.8015917" lon="12.4291867"><ele>325.0</ele><time>2026-04-06T14:41:19.685Z</time></trkpt><trkpt lat="43.80162" lon="12.4293467"><ele>325.0</ele><time>2026-04-06T14:41:20.685Z</time></trkpt><trkpt lat="43.8016333" lon="12.4295017"><ele>325.0</ele><time>2026-04-06T14:41:21.685Z</time></trkpt><trkpt lat="43.8016633" lon="12.429645"><ele>325.0</ele><time>2026-04-06T14:41:22.686Z</time></trkpt><trkpt lat="43.8017083" lon="12.42978"><ele>325.0</ele><time>2026-04-06T14:41:23.686Z</time></trkpt><trkpt lat="43.8017683" lon="12.4299"><ele>325.0</ele><time>2026-04-06T14:41:24.685Z</time></trkpt><trkpt lat="43.8018417" lon="12.43001"><ele>325.8333333333333</ele><time>2026-04-06T14:41:25.686Z</time></trkpt><trkpt lat="43.8019217" lon="12.43011"><ele>326.66666666666663</ele><time>2026-04-06T14:41:26.687Z</time></trkpt><trkpt lat="43.8020017" lon="12.4301967"><ele>327.5</ele><time>2026-04-06T14:41:27.684Z</time></trkpt><trkpt lat="43.8020683" lon="12.4302667"><ele>328.3333333333333</ele><time>2026-04-06T14:41:28.685Z</time></trkpt><trkpt lat="43.80212" lon="12.4303283"><ele>329.1666666666667</ele><time>2026-04-06T14:41:29.688Z</time></trkpt><trkpt lat="43.8021867" lon="12.430395"><ele>330.0</ele><time>2026-04-06T14:41:31.685Z</time></trkpt><trkpt lat="43.80225" lon="12.4303617"><ele>330.0</ele><time>2026-04-06T14:41:35.688Z</time></trkpt><trkpt lat="43.80227" lon="12.43025"><ele>330.0</ele><time>2026-04-06T14:41:37.687Z</time></trkpt><trkpt lat="43.802255" lon="12.4300717"><ele>330.0</ele><time>2026-04-06T14:41:39.683Z</time></trkpt><trkpt lat="43.80225" lon="12.4299667"><ele>330.0</ele><time>2026-04-06T14:41:40.686Z</time></trkpt><trkpt lat="43.8022483" lon="12.42984"><ele>330.0</ele><time>2026-04-06T14:41:41.685Z</time></trkpt><trkpt lat="43.8022517" lon="12.429705"><ele>330.6</ele><time>2026-04-06T14:41:42.685Z</time></trkpt><trkpt lat="43.802255" lon="12.4295617"><ele>331.2</ele><time>2026-04-06T14:41:43.688Z</time></trkpt><trkpt lat="43.8022683" lon="12.429415"><ele>331.79999999999995</ele><time>2026-04-06T14:41:44.686Z</time></trkpt><trkpt lat="43.8022933" lon="12.42926"><ele>332.4</ele><time>2026-04-06T14:41:45.686Z</time></trkpt><trkpt lat="43.8023283" lon="12.429105"><ele>333.0</ele><time>2026-04-06T14:41:46.685Z</time></trkpt><trkpt lat="43.8023717" lon="12.4289517"><ele>334.25</ele><time>2026-04-06T14:41:47.686Z</time></trkpt><trkpt lat="43.8024167" lon="12.4288033"><ele>335.5</ele><time>2026-04-06T14:41:48.686Z</time></trkpt><trkpt lat="43.802465" lon="12.4286583"><ele>336.75</ele><time>2026-04-06T14:41:49.686Z</time></trkpt><trkpt lat="43.8025133" lon="12.428515"><ele>338.0</ele><time>2026-04-06T14:41:50.687Z</time></trkpt><trkpt lat="43.8025583" lon="12.4283733"><ele>338.0</ele><time>2026-04-06T14:41:51.684Z</time></trkpt><trkpt lat="43.8026033" lon="12.4282333"><ele>338.0</ele><time>2026-04-06T14:41:52.686Z</time></trkpt><trkpt lat="43.80266" lon="12.4281033"><ele>338.0</ele><time>2026-04-06T14:41:53.686Z</time></trkpt><trkpt lat="43.80273" lon="12.4279817"><ele>338.0</ele><time>2026-04-06T14:41:54.689Z</time></trkpt><trkpt lat="43.802805" lon="12.4278567"><ele>338.59999999999997</ele><time>2026-04-06T14:41:55.688Z</time></trkpt><trkpt lat="43.8028767" lon="12.427735"><ele>339.2</ele><time>2026-04-06T14:41:56.687Z</time></trkpt><trkpt lat="43.80294" lon="12.4276183"><ele>339.8</ele><time>2026-04-06T14:41:57.684Z</time></trkpt><trkpt lat="43.8029867" lon="12.4275167"><ele>340.4</ele><time>2026-04-06T14:41:58.685Z</time></trkpt><trkpt lat="43.8030217" lon="12.4274183"><ele>341.0</ele><time>2026-04-06T14:41:59.687Z</time></trkpt><trkpt lat="43.803035" lon="12.427305"><ele>341.0</ele><time>2026-04-06T14:42:00.684Z</time></trkpt><trkpt lat="43.80302" lon="12.4271767"><ele>341.0</ele><time>2026-04-06T14:42:01.686Z</time></trkpt><trkpt lat="43.8029983" lon="12.4270433"><ele>341.0</ele><time>2026-04-06T14:42:02.687Z</time></trkpt><trkpt lat="43.8029733" lon="12.4269067"><ele>341.0</ele><time>2026-04-06T14:42:03.685Z</time></trkpt><trkpt lat="43.8029483" lon="12.4267717"><ele>341.0</ele><time>2026-04-06T14:42:04.687Z</time></trkpt><trkpt lat="43.802925" lon="12.4266333"><ele>343.5</ele><time>2026-04-06T14:42:05.683Z</time></trkpt><trkpt lat="43.8029017" lon="12.42649"><ele>346.0</ele><time>2026-04-06T14:42:06.684Z</time></trkpt><trkpt lat="43.8028733" lon="12.4263383"><ele>348.5</ele><time>2026-04-06T14:42:07.688Z</time></trkpt><trkpt lat="43.80284" lon="12.4261817"><ele>351.0</ele><time>2026-04-06T14:42:08.682Z</time></trkpt><trkpt lat="43.802805" lon="12.4260233"><ele>353.0</ele><time>2026-04-06T14:42:09.686Z</time></trkpt><trkpt lat="43.8027733" lon="12.4258683"><ele>355.0</ele><time>2026-04-06T14:42:10.684Z</time></trkpt><trkpt lat="43.8027383" lon="12.4257117"><ele>357.0</ele><time>2026-04-06T14:42:11.684Z</time></trkpt><trkpt lat="43.8027083" lon="12.42556"><ele>359.0</ele><time>2026-04-06T14:42:12.685Z</time></trkpt><trkpt lat="43.8026767" lon="12.4254067"><ele>358.83333333333337</ele><time>2026-04-06T14:42:13.685Z</time></trkpt><trkpt lat="43.8026517" lon="12.4252617"><ele>358.6666666666667</ele><time>2026-04-06T14:42:14.684Z</time></trkpt><trkpt lat="43.8026417" lon="12.4251367"><ele>358.5</ele><time>2026-04-06T14:42:15.683Z</time></trkpt><trkpt lat="43.8026517" lon="12.4250283"><ele>358.3333333333333</ele><time>2026-04-06T14:42:16.685Z</time></trkpt><trkpt lat="43.8026917" lon="12.4249533"><ele>358.16666666666663</ele><time>2026-04-06T14:42:17.688Z</time></trkpt><trkpt lat="43.8027533" lon="12.42491"><ele>358.0</ele><time>2026-04-06T14:42:18.686Z</time></trkpt><trkpt lat="43.80285" lon="12.4248917"><ele>361.75</ele><time>2026-04-06T14:42:19.688Z</time></trkpt><trkpt lat="43.8029767" lon="12.4248917"><ele>365.5</ele><time>2026-04-06T14:42:20.686Z</time></trkpt><trkpt lat="43.8031217" lon="12.424895"><ele>369.25</ele><time>2026-04-06T14:42:21.686Z</time></trkpt><trkpt lat="43.8032567" lon="12.424895"><ele>373.0</ele><time>2026-04-06T14:42:22.686Z</time></trkpt><trkpt lat="43.8033883" lon="12.42489"><ele>373.75</ele><time>2026-04-06T14:42:23.686Z</time></trkpt><trkpt lat="43.8035183" lon="12.424885"><ele>374.5</ele><time>2026-04-06T14:42:24.686Z</time></trkpt><trkpt lat="43.8036467" lon="12.4248783"><ele>375.25</ele><time>2026-04-06T14:42:25.688Z</time></trkpt><trkpt lat="43.8037667" lon="12.4248633"><ele>376.0</ele><time>2026-04-06T14:42:26.686Z</time></trkpt><trkpt lat="43.8038783" lon="12.4248283"><ele>376.0</ele><time>2026-04-06T14:42:27.684Z</time></trkpt><trkpt lat="43.80398" lon="12.4247833"><ele>376.0</ele><time>2026-04-06T14:42:28.685Z</time></trkpt><trkpt lat="43.80408" lon="12.4247333"><ele>376.0</ele><time>2026-04-06T14:42:29.684Z</time></trkpt><trkpt lat="43.8041733" lon="12.4246667"><ele>376.0</ele><time>2026-04-06T14:42:30.687Z</time></trkpt><trkpt lat="43.80426" lon="12.424575"><ele>376.0</ele><time>2026-04-06T14:42:31.688Z</time></trkpt><trkpt lat="43.80435" lon="12.4244633"><ele>378.25</ele><time>2026-04-06T14:42:32.685Z</time></trkpt><trkpt lat="43.80444" lon="12.42434"><ele>380.5</ele><time>2026-04-06T14:42:33.683Z</time></trkpt><trkpt lat="43.8045367" lon="12.4242033"><ele>382.75</ele><time>2026-04-06T14:42:34.688Z</time></trkpt><trkpt lat="43.8046367" lon="12.4240667"><ele>385.0</ele><time>2026-04-06T14:42:35.686Z</time></trkpt><trkpt lat="43.8047467" lon="12.4239233"><ele>388.0</ele><time>2026-04-06T14:42:36.686Z</time></trkpt><trkpt lat="43.8048583" lon="12.4237717"><ele>391.0</ele><time>2026-04-06T14:42:37.685Z</time></trkpt><trkpt lat="43.8049733" lon="12.42361"><ele>394.0</ele><time>2026-04-06T14:42:38.684Z</time></trkpt><trkpt lat="43.80509" lon="12.423445"><ele>393.0</ele><time>2026-04-06T14:42:39.684Z</time></trkpt><trkpt lat="43.8052133" lon="12.4232817"><ele>392.0</ele><time>2026-04-06T14:42:40.686Z</time></trkpt><trkpt lat="43.8053383" lon="12.423115"><ele>391.0</ele><time>2026-04-06T14:42:41.685Z</time></trkpt><trkpt lat="43.8054633" lon="12.4229517"><ele>396.0</ele><time>2026-04-06T14:42:42.684Z</time></trkpt><trkpt lat="43.8055933" lon="12.422795"><ele>401.0</ele><time>2026-04-06T14:42:43.686Z</time></trkpt><trkpt lat="43.805725" lon="12.422645"><ele>406.0</ele><time>2026-04-06T14:42:44.687Z</time></trkpt><trkpt lat="43.8058583" lon="12.4224983"><ele>406.0</ele><time>2026-04-06T14:42:45.686Z</time></trkpt><trkpt lat="43.8059883" lon="12.4223467"><ele>406.0</ele><time>2026-04-06T14:42:46.691Z</time></trkpt><trkpt lat="43.806125" lon="12.4221933"><ele>406.0</ele><time>2026-04-06T14:42:47.685Z</time></trkpt><trkpt lat="43.8062583" lon="12.4220417"><ele>409.33333333333337</ele><time>2026-04-06T14:42:48.691Z</time></trkpt><trkpt lat="43.8063767" lon="12.4218967"><ele>412.66666666666663</ele><time>2026-04-06T14:42:49.688Z</time></trkpt><trkpt lat="43.8065017" lon="12.4217517"><ele>416.0</ele><time>2026-04-06T14:42:50.686Z</time></trkpt><trkpt lat="43.806625" lon="12.4216083"><ele>416.0</ele><time>2026-04-06T14:42:51.683Z</time></trkpt><trkpt lat="43.806745" lon="12.4214717"><ele>416.0</ele><time>2026-04-06T14:42:52.685Z</time></trkpt><trkpt lat="43.8068533" lon="12.4213333"><ele>416.0</ele><time>2026-04-06T14:42:53.684Z</time></trkpt><trkpt lat="43.8069583" lon="12.4212017"><ele>416.0</ele><time>2026-04-06T14:42:54.686Z</time></trkpt><trkpt lat="43.8070717" lon="12.421085"><ele>419.25</ele><time>2026-04-06T14:42:55.687Z</time></trkpt><trkpt lat="43.8071883" lon="12.420965"><ele>422.5</ele><time>2026-04-06T14:42:56.683Z</time></trkpt><trkpt lat="43.8073017" lon="12.4208417"><ele>425.75</ele><time>2026-04-06T14:42:57.685Z</time></trkpt><trkpt lat="43.80741" lon="12.420705"><ele>429.0</ele><time>2026-04-06T14:42:58.684Z</time></trkpt><trkpt lat="43.807515" lon="12.4205633"><ele>430.25</ele><time>2026-04-06T14:42:59.683Z</time></trkpt><trkpt lat="43.8076183" lon="12.42042"><ele>431.5</ele><time>2026-04-06T14:43:00.685Z</time></trkpt><trkpt lat="43.8077217" lon="12.420275"><ele>432.75</ele><time>2026-04-06T14:43:01.686Z</time></trkpt><trkpt lat="43.80783" lon="12.42013"><ele>434.0</ele><time>2026-04-06T14:43:02.684Z</time></trkpt><trkpt lat="43.8079417" lon="12.4199917"><ele>434.0</ele><time>2026-04-06T14:43:03.684Z</time></trkpt><trkpt lat="43.8080533" lon="12.4198433"><ele>434.0</ele><time>2026-04-06T14:43:04.688Z</time></trkpt><trkpt lat="43.80816" lon="12.4197033"><ele>434.0</ele><time>2026-04-06T14:43:05.686Z</time></trkpt><trkpt lat="43.8082583" lon="12.4195783"><ele>434.0</ele><time>2026-04-06T14:43:06.687Z</time></trkpt><trkpt lat="43.8083467" lon="12.41947"><ele>436.0</ele><time>2026-04-06T14:43:07.688Z</time></trkpt><trkpt lat="43.8084333" lon="12.4193767"><ele>438.0</ele><time>2026-04-06T14:43:08.685Z</time></trkpt><trkpt lat="43.8085283" lon="12.419285"><ele>440.0</ele><time>2026-04-06T14:43:09.685Z</time></trkpt><trkpt lat="43.8086367" lon="12.4191967"><ele>442.0</ele><time>2026-04-06T14:43:10.686Z</time></trkpt><trkpt lat="43.8087567" lon="12.4191167"><ele>442.5</ele><time>2026-04-06T14:43:11.685Z</time></trkpt><trkpt lat="43.8088767" lon="12.419045"><ele>443.0</ele><time>2026-04-06T14:43:12.687Z</time></trkpt><trkpt lat="43.809" lon="12.4189833"><ele>443.5</ele><time>2026-04-06T14:43:13.688Z</time></trkpt><trkpt lat="43.8091333" lon="12.41894"><ele>444.0</ele><time>2026-04-06T14:43:14.685Z</time></trkpt><trkpt lat="43.8092733" lon="12.41891"><ele>443.75</ele><time>2026-04-06T14:43:15.687Z</time></trkpt><trkpt lat="43.8094217" lon="12.4188917"><ele>443.5</ele><time>2026-04-06T14:43:16.687Z</time></trkpt><trkpt lat="43.8095683" lon="12.41888"><ele>443.25</ele><time>2026-04-06T14:43:17.686Z</time></trkpt><trkpt lat="43.80971" lon="12.418875"><ele>443.0</ele><time>2026-04-06T14:43:18.686Z</time></trkpt><trkpt lat="43.809845" lon="12.4188667"><ele>443.0</ele><time>2026-04-06T14:43:19.688Z</time></trkpt><trkpt lat="43.809985" lon="12.418855"><ele>443.0</ele><time>2026-04-06T14:43:20.685Z</time></trkpt><trkpt lat="43.8101217" lon="12.418845"><ele>443.0</ele><time>2026-04-06T14:43:21.686Z</time></trkpt><trkpt lat="43.810255" lon="12.4188383"><ele>443.0</ele><time>2026-04-06T14:43:22.686Z</time></trkpt><trkpt lat="43.8103883" lon="12.4188433"><ele>443.25</ele><time>2026-04-06T14:43:23.686Z</time></trkpt><trkpt lat="43.8105233" lon="12.4188583"><ele>443.5</ele><time>2026-04-06T14:43:24.686Z</time></trkpt><trkpt lat="43.81066" lon="12.4188717"><ele>443.75</ele><time>2026-04-06T14:43:25.688Z</time></trkpt><trkpt lat="43.8107933" lon="12.41888"><ele>444.0</ele><time>2026-04-06T14:43:26.685Z</time></trkpt><trkpt lat="43.8109117" lon="12.4188833"><ele>445.2</ele><time>2026-04-06T14:43:27.686Z</time></trkpt><trkpt lat="43.8110083" lon="12.4188733"><ele>446.4</ele><time>2026-04-06T14:43:28.686Z</time></trkpt><trkpt lat="43.81109" lon="12.418845"><ele>447.6</ele><time>2026-04-06T14:43:29.686Z</time></trkpt><trkpt lat="43.811175" lon="12.4187883"><ele>448.8</ele><time>2026-04-06T14:43:30.686Z</time></trkpt><trkpt lat="43.8112617" lon="12.4187167"><ele>450.0</ele><time>2026-04-06T14:43:31.686Z</time></trkpt><trkpt lat="43.8113583" lon="12.4186383"><ele>452.25</ele><time>2026-04-06T14:43:32.687Z</time></trkpt><trkpt lat="43.8114583" lon="12.4185467"><ele>454.5</ele><time>2026-04-06T14:43:33.686Z</time></trkpt><trkpt lat="43.811565" lon="12.418455"><ele>456.75</ele><time>2026-04-06T14:43:34.683Z</time></trkpt><trkpt lat="43.8116767" lon="12.4183667"><ele>459.0</ele><time>2026-04-06T14:43:35.688Z</time></trkpt><trkpt lat="43.8117983" lon="12.4182817"><ele>460.4</ele><time>2026-04-06T14:43:36.687Z</time></trkpt><trkpt lat="43.8119167" lon="12.4182017"><ele>461.79999999999995</ele><time>2026-04-06T14:43:37.685Z</time></trkpt><trkpt lat="43.8120233" lon="12.418135"><ele>463.20000000000005</ele><time>2026-04-06T14:43:38.684Z</time></trkpt><trkpt lat="43.81211" lon="12.4180817"><ele>464.6</ele><time>2026-04-06T14:43:39.688Z</time></trkpt><trkpt lat="43.8121833" lon="12.4180317"><ele>466.0</ele><time>2026-04-06T14:43:40.685Z</time></trkpt><trkpt lat="43.8122417" lon="12.4179933"><ele>466.00000000000006</ele><time>2026-04-06T14:43:41.686Z</time></trkpt><trkpt lat="43.81231" lon="12.41797"><ele>466.0</ele><time>2026-04-06T14:43:43.686Z</time></trkpt><trkpt lat="43.8123333" lon="12.4180867"><ele>466.0</ele><time>2026-04-06T14:43:54.686Z</time></trkpt><trkpt lat="43.8123617" lon="12.4181733"><ele>466.0</ele><time>2026-04-06T14:43:55.687Z</time></trkpt><trkpt lat="43.8123967" lon="12.41827"><ele>466.00000000000006</ele><time>2026-04-06T14:43:56.688Z</time></trkpt><trkpt lat="43.8124367" lon="12.4183717"><ele>466.0</ele><time>2026-04-06T14:43:57.688Z</time></trkpt><trkpt lat="43.81248" lon="12.4184767"><ele>466.00000000000006</ele><time>2026-04-06T14:43:58.688Z</time></trkpt><trkpt lat="43.8125233" lon="12.4185717"><ele>466.0</ele><time>2026-04-06T14:43:59.684Z</time></trkpt><trkpt lat="43.8125567" lon="12.4186767"><ele>466.0</ele><time>2026-04-06T14:44:00.687Z</time></trkpt><trkpt lat="43.8125767" lon="12.418795"><ele>466.0</ele><time>2026-04-06T14:44:01.687Z</time></trkpt><trkpt lat="43.81259" lon="12.41891"><ele>466.00000000000006</ele><time>2026-04-06T14:44:02.686Z</time></trkpt><trkpt lat="43.8125983" lon="12.4190233"><ele>466.0</ele><time>2026-04-06T14:44:03.686Z</time></trkpt><trkpt lat="43.8126083" lon="12.419145"><ele>465.83333333333337</ele><time>2026-04-06T14:44:04.687Z</time></trkpt><trkpt lat="43.8126267" lon="12.4192617"><ele>465.6666666666667</ele><time>2026-04-06T14:44:05.684Z</time></trkpt><trkpt lat="43.8126567" lon="12.419375"><ele>465.5</ele><time>2026-04-06T14:44:06.685Z</time></trkpt><trkpt lat="43.812695" lon="12.4194733"><ele>465.33333333333337</ele><time>2026-04-06T14:44:07.686Z</time></trkpt><trkpt lat="43.8127417" lon="12.4195517"><ele>465.1666666666667</ele><time>2026-04-06T14:44:08.686Z</time></trkpt><trkpt lat="43.8127917" lon="12.419615"><ele>465.0</ele><time>2026-04-06T14:44:09.687Z</time></trkpt><trkpt lat="43.812845" lon="12.4196617"><ele>463.6666666666667</ele><time>2026-04-06T14:44:10.686Z</time></trkpt><trkpt lat="43.8129117" lon="12.4196833"><ele>462.33333333333337</ele><time>2026-04-06T14:44:11.687Z</time></trkpt><trkpt lat="43.8129783" lon="12.4196917"><ele>461.0</ele><time>2026-04-06T14:44:12.686Z</time></trkpt><trkpt lat="43.813055" lon="12.4196983"><ele>459.6666666666667</ele><time>2026-04-06T14:44:13.688Z</time></trkpt><trkpt lat="43.8131433" lon="12.4197033"><ele>458.33333333333337</ele><time>2026-04-06T14:44:14.686Z</time></trkpt><trkpt lat="43.81324" lon="12.4197383"><ele>457.0</ele><time>2026-04-06T14:44:15.686Z</time></trkpt><trkpt lat="43.8133433" lon="12.4197933"><ele>457.0</ele><time>2026-04-06T14:44:16.686Z</time></trkpt><trkpt lat="43.8134467" lon="12.4198667"><ele>457.0</ele><time>2026-04-06T14:44:17.685Z</time></trkpt><trkpt lat="43.8135467" lon="12.4199517"><ele>457.0</ele><time>2026-04-06T14:44:18.687Z</time></trkpt><trkpt lat="43.813645" lon="12.42004"><ele>457.0</ele><time>2026-04-06T14:44:19.688Z</time></trkpt><trkpt lat="43.813745" lon="12.4201433"><ele>457.5</ele><time>2026-04-06T14:44:20.686Z</time></trkpt><trkpt lat="43.813845" lon="12.4202583"><ele>458.0</ele><time>2026-04-06T14:44:21.688Z</time></trkpt><trkpt lat="43.81394" lon="12.4203767"><ele>458.5</ele><time>2026-04-06T14:44:22.687Z</time></trkpt><trkpt lat="43.8140317" lon="12.4204817"><ele>459.0</ele><time>2026-04-06T14:44:23.686Z</time></trkpt><trkpt lat="43.8141183" lon="12.4205833"><ele>459.0</ele><time>2026-04-06T14:44:24.688Z</time></trkpt><trkpt lat="43.8142117" lon="12.4206883"><ele>459.0</ele><time>2026-04-06T14:44:25.688Z</time></trkpt><trkpt lat="43.8143017" lon="12.4207933"><ele>459.0</ele><time>2026-04-06T14:44:26.688Z</time></trkpt><trkpt lat="43.8143867" lon="12.4209067"><ele>459.0</ele><time>2026-04-06T14:44:27.685Z</time></trkpt><trkpt lat="43.8144567" lon="12.4210267"><ele>460.5</ele><time>2026-04-06T14:44:28.686Z</time></trkpt><trkpt lat="43.8145217" lon="12.4211283"><ele>462.0</ele><time>2026-04-06T14:44:29.686Z</time></trkpt><trkpt lat="43.81458" lon="12.4212217"><ele>463.5</ele><time>2026-04-06T14:44:30.686Z</time></trkpt><trkpt lat="43.81463" lon="12.4213183"><ele>465.0</ele><time>2026-04-06T14:44:31.688Z</time></trkpt><trkpt lat="43.8146583" lon="12.4214233"><ele>466.5</ele><time>2026-04-06T14:44:32.686Z</time></trkpt><trkpt lat="43.8146717" lon="12.42153"><ele>468.0</ele><time>2026-04-06T14:44:33.685Z</time></trkpt><trkpt lat="43.8146717" lon="12.4216183"><ele>468.4</ele><time>2026-04-06T14:44:34.686Z</time></trkpt><trkpt lat="43.81459" lon="12.4217217"><ele>468.79999999999995</ele><time>2026-04-06T14:44:36.686Z</time></trkpt><trkpt lat="43.81451" lon="12.4217383"><ele>469.2</ele><time>2026-04-06T14:44:37.687Z</time></trkpt><trkpt lat="43.8144033" lon="12.4217217"><ele>469.6</ele><time>2026-04-06T14:44:38.686Z</time></trkpt><trkpt lat="43.8143067" lon="12.421725"><ele>470.0</ele><time>2026-04-06T14:44:39.685Z</time></trkpt><trkpt lat="43.8142117" lon="12.4217467"><ele>469.3333333333333</ele><time>2026-04-06T14:44:40.685Z</time></trkpt><trkpt lat="43.8141233" lon="12.4217867"><ele>468.66666666666663</ele><time>2026-04-06T14:44:41.687Z</time></trkpt><trkpt lat="43.8140483" lon="12.4218483"><ele>468.0</ele><time>2026-04-06T14:44:42.687Z</time></trkpt><trkpt lat="43.8139883" lon="12.4219317"><ele>467.33333333333337</ele><time>2026-04-06T14:44:43.687Z</time></trkpt><trkpt lat="43.8139267" lon="12.4220133"><ele>466.6666666666667</ele><time>2026-04-06T14:44:44.686Z</time></trkpt><trkpt lat="43.8138833" lon="12.4221267"><ele>466.0</ele><time>2026-04-06T14:44:45.685Z</time></trkpt><trkpt lat="43.8138483" lon="12.422265"><ele>468.25</ele><time>2026-04-06T14:44:46.686Z</time></trkpt><trkpt lat="43.8138183" lon="12.422415"><ele>470.5</ele><time>2026-04-06T14:44:47.688Z</time></trkpt><trkpt lat="43.813795" lon="12.4225767"><ele>472.75</ele><time>2026-04-06T14:44:48.687Z</time></trkpt><trkpt lat="43.81378" lon="12.4227417"><ele>475.0</ele><time>2026-04-06T14:44:49.687Z</time></trkpt><trkpt lat="43.8137767" lon="12.4229133"><ele>476.25</ele><time>2026-04-06T14:44:50.686Z</time></trkpt><trkpt lat="43.81378" lon="12.423085"><ele>477.5</ele><time>2026-04-06T14:44:51.687Z</time></trkpt><trkpt lat="43.8137883" lon="12.4232583"><ele>478.75</ele><time>2026-04-06T14:44:52.686Z</time></trkpt><trkpt lat="43.8137967" lon="12.4234267"><ele>480.0</ele><time>2026-04-06T14:44:53.687Z</time></trkpt><trkpt lat="43.8138117" lon="12.4235983"><ele>480.0</ele><time>2026-04-06T14:44:54.686Z</time></trkpt><trkpt lat="43.813835" lon="12.4237733"><ele>480.0</ele><time>2026-04-06T14:44:55.686Z</time></trkpt><trkpt lat="43.813865" lon="12.423945"><ele>480.0</ele><time>2026-04-06T14:44:56.685Z</time></trkpt><trkpt lat="43.813905" lon="12.4241117"><ele>480.0</ele><time>2026-04-06T14:44:57.684Z</time></trkpt><trkpt lat="43.8139567" lon="12.424275"><ele>481.75</ele><time>2026-04-06T14:44:58.688Z</time></trkpt><trkpt lat="43.814015" lon="12.4244333"><ele>483.5</ele><time>2026-04-06T14:44:59.685Z</time></trkpt><trkpt lat="43.8140733" lon="12.4245817"><ele>485.25</ele><time>2026-04-06T14:45:00.686Z</time></trkpt><trkpt lat="43.8141333" lon="12.4247283"><ele>487.0</ele><time>2026-04-06T14:45:01.687Z</time></trkpt><trkpt lat="43.814195" lon="12.4248833"><ele>488.0</ele><time>2026-04-06T14:45:02.684Z</time></trkpt><trkpt lat="43.8142567" lon="12.4250383"><ele>489.0</ele><time>2026-04-06T14:45:03.685Z</time></trkpt><trkpt lat="43.81432" lon="12.4251917"><ele>490.0</ele><time>2026-04-06T14:45:04.686Z</time></trkpt><trkpt lat="43.8143817" lon="12.4253467"><ele>491.0</ele><time>2026-04-06T14:45:05.683Z</time></trkpt><trkpt lat="43.814445" lon="12.4255033"><ele>494.25</ele><time>2026-04-06T14:45:06.686Z</time></trkpt><trkpt lat="43.8145067" lon="12.4256567"><ele>497.5</ele><time>2026-04-06T14:45:07.686Z</time></trkpt><trkpt lat="43.8145633" lon="12.4257983"><ele>500.75</ele><time>2026-04-06T14:45:08.684Z</time></trkpt><trkpt lat="43.814625" lon="12.425935"><ele>504.0</ele><time>2026-04-06T14:45:09.685Z</time></trkpt><trkpt lat="43.8147033" lon="12.4260583"><ele>504.0</ele><time>2026-04-06T14:45:10.685Z</time></trkpt><trkpt lat="43.8147933" lon="12.4261783"><ele>504.0</ele><time>2026-04-06T14:45:11.684Z</time></trkpt><trkpt lat="43.814885" lon="12.4263"><ele>504.0</ele><time>2026-04-06T14:45:12.684Z</time></trkpt><trkpt lat="43.814975" lon="12.426425"><ele>504.0</ele><time>2026-04-06T14:45:13.685Z</time></trkpt><trkpt lat="43.8150583" lon="12.426555"><ele>504.75</ele><time>2026-04-06T14:45:14.687Z</time></trkpt><trkpt lat="43.8151333" lon="12.42669"><ele>505.5</ele><time>2026-04-06T14:45:15.685Z</time></trkpt><trkpt lat="43.8152033" lon="12.4268267"><ele>506.25</ele><time>2026-04-06T14:45:16.686Z</time></trkpt><trkpt lat="43.8152717" lon="12.4269533"><ele>507.0</ele><time>2026-04-06T14:45:17.686Z</time></trkpt><trkpt lat="43.8153433" lon="12.4270667"><ele>509.6</ele><time>2026-04-06T14:45:18.686Z</time></trkpt><trkpt lat="43.8154217" lon="12.427165"><ele>512.2</ele><time>2026-04-06T14:45:19.69Z</time></trkpt><trkpt lat="43.8155083" lon="12.4272533"><ele>514.8</ele><time>2026-04-06T14:45:20.685Z</time></trkpt><trkpt lat="43.8156067" lon="12.42733"><ele>517.4</ele><time>2026-04-06T14:45:21.685Z</time></trkpt><trkpt lat="43.81572" lon="12.4273933"><ele>520.0</ele><time>2026-04-06T14:45:22.685Z</time></trkpt><trkpt lat="43.81584" lon="12.4274517"><ele>520.0</ele><time>2026-04-06T14:45:23.684Z</time></trkpt><trkpt lat="43.8159667" lon="12.4275133"><ele>520.0</ele><time>2026-04-06T14:45:24.69Z</time></trkpt><trkpt lat="43.8160933" lon="12.42758"><ele>520.0</ele><time>2026-04-06T14:45:25.688Z</time></trkpt><trkpt lat="43.8162183" lon="12.4276783"><ele>520.0</ele><time>2026-04-06T14:45:26.689Z</time></trkpt><trkpt lat="43.816335" lon="12.4277967"><ele>521.75</ele><time>2026-04-06T14:45:27.684Z</time></trkpt><trkpt lat="43.8164433" lon="12.4279233"><ele>523.5</ele><time>2026-04-06T14:45:28.686Z</time></trkpt><trkpt lat="43.8165517" lon="12.428045"><ele>525.25</ele><time>2026-04-06T14:45:29.727Z</time></trkpt><trkpt lat="43.8166617" lon="12.42815"><ele>527.0</ele><time>2026-04-06T14:45:30.686Z</time></trkpt><trkpt lat="43.816775" lon="12.4282433"><ele>529.2</ele><time>2026-04-06T14:45:31.684Z</time></trkpt><trkpt lat="43.8168783" lon="12.4283217"><ele>531.4000000000001</ele><time>2026-04-06T14:45:32.726Z</time></trkpt><trkpt lat="43.816975" lon="12.428395"><ele>533.5999999999999</ele><time>2026-04-06T14:45:33.683Z</time></trkpt><trkpt lat="43.817055" lon="12.4284633"><ele>535.8</ele><time>2026-04-06T14:45:34.686Z</time></trkpt><trkpt lat="43.8171267" lon="12.4285117"><ele>538.0</ele><time>2026-04-06T14:45:35.684Z</time></trkpt><trkpt lat="43.8171883" lon="12.4285417"><ele>538.0</ele><time>2026-04-06T14:45:36.685Z</time></trkpt><trkpt lat="43.8172867" lon="12.4285483"><ele>538.0</ele><time>2026-04-06T14:45:38.686Z</time></trkpt><trkpt lat="43.8172917" lon="12.4283633"><ele>538.0</ele><time>2026-04-06T14:45:40.685Z</time></trkpt><trkpt lat="43.8172717" lon="12.4282383"><ele>538.0</ele><time>2026-04-06T14:45:41.681Z</time></trkpt><trkpt lat="43.81723" lon="12.4280867"><ele>538.0</ele><time>2026-04-06T14:45:42.686Z</time></trkpt><trkpt lat="43.817175" lon="12.427915"><ele>540.0</ele><time>2026-04-06T14:45:43.685Z</time></trkpt><trkpt lat="43.8171217" lon="12.4277383"><ele>542.0</ele><time>2026-04-06T14:45:44.687Z</time></trkpt><trkpt lat="43.81707" lon="12.4275617"><ele>544.0</ele><time>2026-04-06T14:45:45.686Z</time></trkpt><trkpt lat="43.8170217" lon="12.42739"><ele>546.0</ele><time>2026-04-06T14:45:46.685Z</time></trkpt><trkpt lat="43.8169833" lon="12.4272317"><ele>547.0</ele><time>2026-04-06T14:45:47.687Z</time></trkpt><trkpt lat="43.816965" lon="12.427085"><ele>548.0</ele><time>2026-04-06T14:45:48.686Z</time></trkpt><trkpt lat="43.8169683" lon="12.42695"><ele>549.0</ele><time>2026-04-06T14:45:49.684Z</time></trkpt><trkpt lat="43.8169933" lon="12.4268317"><ele>550.0</ele><time>2026-04-06T14:45:50.682Z</time></trkpt><trkpt lat="43.8170317" lon="12.426725"><ele>551.0</ele><time>2026-04-06T14:45:51.683Z</time></trkpt><trkpt lat="43.81708" lon="12.4266283"><ele>551.0</ele><time>2026-04-06T14:45:52.686Z</time></trkpt><trkpt lat="43.817155" lon="12.426575"><ele>551.0</ele><time>2026-04-06T14:45:53.687Z</time></trkpt><trkpt lat="43.81724" lon="12.4265333"><ele>551.0</ele><time>2026-04-06T14:45:54.685Z</time></trkpt><trkpt lat="43.8173617" lon="12.4265833"><ele>551.0</ele><time>2026-04-06T14:45:55.686Z</time></trkpt><trkpt lat="43.8174867" lon="12.4266833"><ele>551.0</ele><time>2026-04-06T14:45:56.682Z</time></trkpt><trkpt lat="43.81759" lon="12.4267533"><ele>552.0</ele><time>2026-04-06T14:45:57.684Z</time></trkpt><trkpt lat="43.8176733" lon="12.426805"><ele>553.0</ele><time>2026-04-06T14:45:58.683Z</time></trkpt><trkpt lat="43.817765" lon="12.4268467"><ele>554.0</ele><time>2026-04-06T14:46:00.684Z</time></trkpt><trkpt lat="43.8178267" lon="12.4268667"><ele>555.0</ele><time>2026-04-06T14:46:02.683Z</time></trkpt><trkpt lat="43.81791" lon="12.426835"><ele>556.0</ele><time>2026-04-06T14:46:05.684Z</time></trkpt><trkpt lat="43.8180433" lon="12.4268017"><ele>556.0</ele><time>2026-04-06T14:46:07.685Z</time></trkpt><trkpt lat="43.8181331" lon="12.4267754"><ele>556.0</ele><time>2026-04-06T14:46:08.687Z</time></trkpt><trkpt lat="43.8182448" lon="12.4267418"><ele>556.0</ele><time>2026-04-06T14:46:09.683Z</time></trkpt><trkpt lat="43.8183779" lon="12.4267043"><ele>556.0</ele><time>2026-04-06T14:46:10.683Z</time></trkpt><trkpt lat="43.8185293" lon="12.4266618"><ele>558.0</ele><time>2026-04-06T14:46:11.684Z</time></trkpt><trkpt lat="43.8186948" lon="12.4266095"><ele>560.0</ele><time>2026-04-06T14:46:12.687Z</time></trkpt><trkpt lat="43.8188613" lon="12.4265582"><ele>562.0</ele><time>2026-04-06T14:46:13.687Z</time></trkpt><trkpt lat="43.8190196" lon="12.4265161"><ele>562.0</ele><time>2026-04-06T14:46:14.687Z</time></trkpt><trkpt lat="43.8191661" lon="12.4264808"><ele>562.0</ele><time>2026-04-06T14:46:15.684Z</time></trkpt><trkpt lat="43.8192994" lon="12.4264471"><ele>562.0</ele><time>2026-04-06T14:46:16.683Z</time></trkpt><trkpt lat="43.8194238" lon="12.4264087"><ele>562.0</ele><time>2026-04-06T14:46:17.683Z</time></trkpt><trkpt lat="43.8195414" lon="12.4263655"><ele>564.25</ele><time>2026-04-06T14:46:18.684Z</time></trkpt><trkpt lat="43.819656" lon="12.4263078"><ele>566.5</ele><time>2026-04-06T14:46:19.686Z</time></trkpt><trkpt lat="43.8197675" lon="12.4262377"><ele>568.75</ele><time>2026-04-06T14:46:20.684Z</time></trkpt><trkpt lat="43.8198761" lon="12.4261652"><ele>571.0</ele><time>2026-04-06T14:46:21.684Z</time></trkpt><trkpt lat="43.8199713" lon="12.4260909"><ele>571.0</ele><time>2026-04-06T14:46:22.685Z</time></trkpt><trkpt lat="43.8200572" lon="12.4260102"><ele>571.0</ele><time>2026-04-06T14:46:23.684Z</time></trkpt><trkpt lat="43.8201334" lon="12.4259142"><ele>571.0</ele><time>2026-04-06T14:46:24.685Z</time></trkpt><trkpt lat="43.8202053" lon="12.4257903"><ele>571.0</ele><time>2026-04-06T14:46:25.686Z</time></trkpt><trkpt lat="43.8202706" lon="12.425642"><ele>571.0</ele><time>2026-04-06T14:46:26.684Z</time></trkpt><trkpt lat="43.8203247" lon="12.4254773"><ele>575.75</ele><time>2026-04-06T14:46:27.684Z</time></trkpt><trkpt lat="43.8203635" lon="12.4253052"><ele>580.5</ele><time>2026-04-06T14:46:28.685Z</time></trkpt><trkpt lat="43.8203882" lon="12.4251319"><ele>585.25</ele><time>2026-04-06T14:46:29.684Z</time></trkpt><trkpt lat="43.820397" lon="12.4249546"><ele>590.0</ele><time>2026-04-06T14:46:30.685Z</time></trkpt><trkpt lat="43.8203843" lon="12.4247706"><ele>592.5</ele><time>2026-04-06T14:46:31.686Z</time></trkpt><trkpt lat="43.8203545" lon="12.4245879"><ele>595.0</ele><time>2026-04-06T14:46:32.684Z</time></trkpt><trkpt lat="43.8203153" lon="12.4244141"><ele>597.5</ele><time>2026-04-06T14:46:33.684Z</time></trkpt><trkpt lat="43.8202784" lon="12.4242539"><ele>600.0</ele><time>2026-04-06T14:46:34.687Z</time></trkpt><trkpt lat="43.8202497" lon="12.4240952"><ele>600.0</ele><time>2026-04-06T14:46:35.685Z</time></trkpt><trkpt lat="43.8202351" lon="12.4239301"><ele>600.0</ele><time>2026-04-06T14:46:36.685Z</time></trkpt><trkpt lat="43.8202419" lon="12.4237635"><ele>600.0</ele><time>2026-04-06T14:46:37.687Z</time></trkpt><trkpt lat="43.8202656" lon="12.4235938"><ele>600.0</ele><time>2026-04-06T14:46:38.686Z</time></trkpt><trkpt lat="43.8202959" lon="12.423422"><ele>601.75</ele><time>2026-04-06T14:46:39.685Z</time></trkpt><trkpt lat="43.8203238" lon="12.4232514"><ele>603.5</ele><time>2026-04-06T14:46:40.685Z</time></trkpt><trkpt lat="43.8203357" lon="12.4230845"><ele>605.25</ele><time>2026-04-06T14:46:41.685Z</time></trkpt><trkpt lat="43.820325" lon="12.4229248"><ele>607.0</ele><time>2026-04-06T14:46:42.684Z</time></trkpt><trkpt lat="43.8202999" lon="12.422773"><ele>607.0</ele><time>2026-04-06T14:46:43.687Z</time></trkpt><trkpt lat="43.8202833" lon="12.4226346"><ele>607.0</ele><time>2026-04-06T14:46:44.686Z</time></trkpt><trkpt lat="43.8202838" lon="12.4225077"><ele>607.0</ele><time>2026-04-06T14:46:45.685Z</time></trkpt><trkpt lat="43.8203077" lon="12.4223943"><ele>607.0</ele><time>2026-04-06T14:46:46.685Z</time></trkpt><trkpt lat="43.8203513" lon="12.4223035"><ele>607.0</ele><time>2026-04-06T14:46:47.683Z</time></trkpt><trkpt lat="43.8204106" lon="12.4222444"><ele>607.0</ele><time>2026-04-06T14:46:48.686Z</time></trkpt><trkpt lat="43.8204784" lon="12.4222292"><ele>607.0</ele><time>2026-04-06T14:46:49.685Z</time></trkpt><trkpt lat="43.8205422" lon="12.4222684"><ele>607.0</ele><time>2026-04-06T14:46:50.776Z</time></trkpt><trkpt lat="43.8206068" lon="12.4223741"><ele>607.0</ele><time>2026-04-06T14:46:51.684Z</time></trkpt><trkpt lat="43.8206825" lon="12.4225296"><ele>607.0</ele><time>2026-04-06T14:46:52.684Z</time></trkpt><trkpt lat="43.8207832" lon="12.4227277"><ele>607.0</ele><time>2026-04-06T14:46:53.683Z</time></trkpt><trkpt lat="43.8208822" lon="12.4229195"><ele>607.0</ele><time>2026-04-06T14:46:54.684Z</time></trkpt><trkpt lat="43.8209771" lon="12.4230939"><ele>607.0</ele><time>2026-04-06T14:46:55.686Z</time></trkpt><trkpt lat="43.8210675" lon="12.4232484"><ele>611.5</ele><time>2026-04-06T14:46:56.684Z</time></trkpt><trkpt lat="43.8211543" lon="12.4233869"><ele>616.0</ele><time>2026-04-06T14:46:57.693Z</time></trkpt><trkpt lat="43.8212406" lon="12.4235031"><ele>620.5</ele><time>2026-04-06T14:46:58.684Z</time></trkpt><trkpt lat="43.8213289" lon="12.4235908"><ele>625.0</ele><time>2026-04-06T14:46:59.688Z</time></trkpt><trkpt lat="43.8214187" lon="12.4236554"><ele>625.0</ele><time>2026-04-06T14:47:00.687Z</time></trkpt><trkpt lat="43.8215031" lon="12.4237018"><ele>625.0</ele><time>2026-04-06T14:47:01.684Z</time></trkpt><trkpt lat="43.8215775" lon="12.4237285"><ele>625.0</ele><time>2026-04-06T14:47:02.686Z</time></trkpt><trkpt lat="43.8216506" lon="12.4237247"><ele>625.0</ele><time>2026-04-06T14:47:03.686Z</time></trkpt><trkpt lat="43.8217123" lon="12.4236932"><ele>625.0</ele><time>2026-04-06T14:47:04.686Z</time></trkpt><trkpt lat="43.8217689" lon="12.4236382"><ele>625.0</ele><time>2026-04-06T14:47:05.685Z</time></trkpt><trkpt lat="43.8218259" lon="12.4235559"><ele>627.8</ele><time>2026-04-06T14:47:06.685Z</time></trkpt><trkpt lat="43.8218902" lon="12.4234674"><ele>630.6</ele><time>2026-04-06T14:47:07.685Z</time></trkpt><trkpt lat="43.8219645" lon="12.4233932"><ele>633.4</ele><time>2026-04-06T14:47:08.685Z</time></trkpt><trkpt lat="43.8220549" lon="12.4233425"><ele>636.2</ele><time>2026-04-06T14:47:09.684Z</time></trkpt><trkpt lat="43.8221648" lon="12.423312"><ele>639.0</ele><time>2026-04-06T14:47:10.687Z</time></trkpt><trkpt lat="43.822288" lon="12.4232874"><ele>639.0</ele><time>2026-04-06T14:47:11.686Z</time></trkpt><trkpt lat="43.8224212" lon="12.4232633"><ele>639.0</ele><time>2026-04-06T14:47:12.685Z</time></trkpt><trkpt lat="43.8225562" lon="12.4232416"><ele>639.0</ele><time>2026-04-06T14:47:13.688Z</time></trkpt><trkpt lat="43.8226825" lon="12.4232154"><ele>639.0</ele><time>2026-04-06T14:47:14.685Z</time></trkpt><trkpt lat="43.8227965" lon="12.4231879"><ele>639.8</ele><time>2026-04-06T14:47:15.686Z</time></trkpt><trkpt lat="43.8229048" lon="12.4231627"><ele>640.5999999999999</ele><time>2026-04-06T14:47:16.685Z</time></trkpt><trkpt lat="43.8230071" lon="12.4231333"><ele>641.4</ele><time>2026-04-06T14:47:17.685Z</time></trkpt><trkpt lat="43.8231024" lon="12.4230897"><ele>642.1999999999999</ele><time>2026-04-06T14:47:18.685Z</time></trkpt><trkpt lat="43.823194" lon="12.4230216"><ele>643.0</ele><time>2026-04-06T14:47:19.685Z</time></trkpt><trkpt lat="43.8232795" lon="12.4229302"><ele>644.8</ele><time>2026-04-06T14:47:20.684Z</time></trkpt><trkpt lat="43.8233591" lon="12.4228329"><ele>646.5999999999999</ele><time>2026-04-06T14:47:21.683Z</time></trkpt><trkpt lat="43.8234289" lon="12.4227399"><ele>648.4000000000001</ele><time>2026-04-06T14:47:22.685Z</time></trkpt><trkpt lat="43.8234934" lon="12.4226535"><ele>650.2</ele><time>2026-04-06T14:47:23.685Z</time></trkpt><trkpt lat="43.8235534" lon="12.4225608"><ele>652.0</ele><time>2026-04-06T14:47:24.686Z</time></trkpt><trkpt lat="43.8235988" lon="12.4224565"><ele>653.4000000000001</ele><time>2026-04-06T14:47:25.687Z</time></trkpt><trkpt lat="43.823625" lon="12.4223336"><ele>654.8000000000001</ele><time>2026-04-06T14:47:26.686Z</time></trkpt><trkpt lat="43.8236237" lon="12.4221813"><ele>656.2</ele><time>2026-04-06T14:47:27.687Z</time></trkpt><trkpt lat="43.8236172" lon="12.4220225"><ele>657.6</ele><time>2026-04-06T14:47:28.685Z</time></trkpt><trkpt lat="43.8236143" lon="12.4218702"><ele>659.0</ele><time>2026-04-06T14:47:29.686Z</time></trkpt><trkpt lat="43.8236218" lon="12.4217256"><ele>661.75</ele><time>2026-04-06T14:47:30.685Z</time></trkpt><trkpt lat="43.8236491" lon="12.4215841"><ele>664.5</ele><time>2026-04-06T14:47:31.686Z</time></trkpt><trkpt lat="43.8236988" lon="12.4214401"><ele>667.25</ele><time>2026-04-06T14:47:32.684Z</time></trkpt><trkpt lat="43.8237654" lon="12.4212976"><ele>670.0</ele><time>2026-04-06T14:47:33.684Z</time></trkpt><trkpt lat="43.8238427" lon="12.4211547"><ele>672.25</ele><time>2026-04-06T14:47:34.686Z</time></trkpt><trkpt lat="43.8239236" lon="12.4210115"><ele>674.5</ele><time>2026-04-06T14:47:35.686Z</time></trkpt><trkpt lat="43.8240008" lon="12.4208627"><ele>676.75</ele><time>2026-04-06T14:47:36.685Z</time></trkpt><trkpt lat="43.8240677" lon="12.4207096"><ele>679.0</ele><time>2026-04-06T14:47:37.687Z</time></trkpt><trkpt lat="43.8241242" lon="12.4205599"><ele>678.0</ele><time>2026-04-06T14:47:38.684Z</time></trkpt><trkpt lat="43.8241735" lon="12.420407"><ele>677.0</ele><time>2026-04-06T14:47:39.687Z</time></trkpt><trkpt lat="43.8242195" lon="12.4202398"><ele>676.0</ele><time>2026-04-06T14:47:40.685Z</time></trkpt><trkpt lat="43.8242651" lon="12.4200487"><ele>675.0</ele><time>2026-04-06T14:47:41.687Z</time></trkpt><trkpt lat="43.8243076" lon="12.4198564"><ele>679.5</ele><time>2026-04-06T14:47:42.686Z</time></trkpt><trkpt lat="43.8243587" lon="12.4196665"><ele>684.0</ele><time>2026-04-06T14:47:43.687Z</time></trkpt><trkpt lat="43.8244181" lon="12.4194785"><ele>688.5</ele><time>2026-04-06T14:47:44.684Z</time></trkpt><trkpt lat="43.8244756" lon="12.4192925"><ele>693.0</ele><time>2026-04-06T14:47:45.684Z</time></trkpt><trkpt lat="43.8245231" lon="12.4191196"><ele>693.0</ele><time>2026-04-06T14:47:46.685Z</time></trkpt><trkpt lat="43.8245595" lon="12.4189589"><ele>693.0</ele><time>2026-04-06T14:47:47.688Z</time></trkpt><trkpt lat="43.8245812" lon="12.4188086"><ele>693.0</ele><time>2026-04-06T14:47:48.684Z</time></trkpt><trkpt lat="43.8245882" lon="12.4186679"><ele>693.0</ele><time>2026-04-06T14:47:49.686Z</time></trkpt><trkpt lat="43.8245887" lon="12.4185294"><ele>693.0</ele><time>2026-04-06T14:47:50.685Z</time></trkpt><trkpt lat="43.8245645" lon="12.4183865"><ele>692.4</ele><time>2026-04-06T14:47:51.683Z</time></trkpt><trkpt lat="43.8245274" lon="12.4182435"><ele>691.8</ele><time>2026-04-06T14:47:52.685Z</time></trkpt><trkpt lat="43.8244829" lon="12.4181035"><ele>691.2</ele><time>2026-04-06T14:47:53.688Z</time></trkpt><trkpt lat="43.8244456" lon="12.4179786"><ele>690.6</ele><time>2026-04-06T14:47:54.686Z</time></trkpt><trkpt lat="43.8244233" lon="12.4178526"><ele>690.0</ele><time>2026-04-06T14:47:55.687Z</time></trkpt><trkpt lat="43.8244174" lon="12.4177091"><ele>690.0</ele><time>2026-04-06T14:47:56.684Z</time></trkpt><trkpt lat="43.8244183" lon="12.4175366"><ele>690.0</ele><time>2026-04-06T14:47:57.683Z</time></trkpt><trkpt lat="43.8244223" lon="12.4173312"><ele>690.0</ele><time>2026-04-06T14:47:58.685Z</time></trkpt><trkpt lat="43.8244276" lon="12.4171071"><ele>690.0</ele><time>2026-04-06T14:47:59.686Z</time></trkpt><trkpt lat="43.8244329" lon="12.4168815"><ele>690.5</ele><time>2026-04-06T14:48:00.686Z</time></trkpt><trkpt lat="43.8244368" lon="12.4166764"><ele>691.0</ele><time>2026-04-06T14:48:01.688Z</time></trkpt><trkpt lat="43.8244395" lon="12.4164848"><ele>691.5</ele><time>2026-04-06T14:48:02.686Z</time></trkpt><trkpt lat="43.824444" lon="12.4162945"><ele>692.0</ele><time>2026-04-06T14:48:03.684Z</time></trkpt><trkpt lat="43.8244478" lon="12.41611"><ele>693.0</ele><time>2026-04-06T14:48:04.685Z</time></trkpt><trkpt lat="43.8244497" lon="12.4159305"><ele>694.0</ele><time>2026-04-06T14:48:05.685Z</time></trkpt><trkpt lat="43.8244495" lon="12.4157608"><ele>695.0</ele><time>2026-04-06T14:48:06.686Z</time></trkpt><trkpt lat="43.8244428" lon="12.4156067"><ele>696.0</ele><time>2026-04-06T14:48:07.687Z</time></trkpt><trkpt lat="43.8244261" lon="12.41548"><ele>697.6666666666666</ele><time>2026-04-06T14:48:08.687Z</time></trkpt><trkpt lat="43.8243961" lon="12.415378"><ele>699.3333333333334</ele><time>2026-04-06T14:48:09.685Z</time></trkpt><trkpt lat="43.8243494" lon="12.4152995"><ele>701.0</ele><time>2026-04-06T14:48:10.685Z</time></trkpt><trkpt lat="43.8242936" lon="12.4152427"><ele>702.6666666666667</ele><time>2026-04-06T14:48:11.686Z</time></trkpt><trkpt lat="43.8242308" lon="12.4152074"><ele>704.3333333333334</ele><time>2026-04-06T14:48:12.686Z</time></trkpt><trkpt lat="43.8241546" lon="12.4152061"><ele>706.0</ele><time>2026-04-06T14:48:13.688Z</time></trkpt><trkpt lat="43.8240605" lon="12.4152247"><ele>701.5999999999999</ele><time>2026-04-06T14:48:14.686Z</time></trkpt><trkpt lat="43.823953" lon="12.4152328"><ele>697.2</ele><time>2026-04-06T14:48:15.687Z</time></trkpt><trkpt lat="43.8238513" lon="12.4152248"><ele>692.8</ele><time>2026-04-06T14:48:16.686Z</time></trkpt><trkpt lat="43.8237481" lon="12.4152034"><ele>688.4000000000001</ele><time>2026-04-06T14:48:17.684Z</time></trkpt><trkpt lat="43.8236435" lon="12.415167"><ele>684.0</ele><time>2026-04-06T14:48:18.686Z</time></trkpt><trkpt lat="43.823548" lon="12.415126"><ele>681.5</ele><time>2026-04-06T14:48:19.685Z</time></trkpt><trkpt lat="43.8234601" lon="12.4150881"><ele>679.0</ele><time>2026-04-06T14:48:20.682Z</time></trkpt><trkpt lat="43.8233825" lon="12.4150518"><ele>676.5</ele><time>2026-04-06T14:48:21.683Z</time></trkpt><trkpt lat="43.8233121" lon="12.4149998"><ele>674.0</ele><time>2026-04-06T14:48:22.685Z</time></trkpt><trkpt lat="43.8232503" lon="12.4149529"><ele>671.5</ele><time>2026-04-06T14:48:23.684Z</time></trkpt><trkpt lat="43.8231994" lon="12.4148889"><ele>669.0</ele><time>2026-04-06T14:48:24.686Z</time></trkpt><trkpt lat="43.8231552" lon="12.4148091"><ele>669.0</ele><time>2026-04-06T14:48:25.688Z</time></trkpt><trkpt lat="43.8231429" lon="12.4147053"><ele>669.0</ele><time>2026-04-06T14:48:26.686Z</time></trkpt><trkpt lat="43.8231699" lon="12.4145611"><ele>669.0</ele><time>2026-04-06T14:48:27.684Z</time></trkpt><trkpt lat="43.8232302" lon="12.4144094"><ele>669.0</ele><time>2026-04-06T14:48:28.686Z</time></trkpt><trkpt lat="43.8233276" lon="12.4142091"><ele>667.0</ele><time>2026-04-06T14:48:29.681Z</time></trkpt><trkpt lat="43.823432" lon="12.4139885"><ele>665.0</ele><time>2026-04-06T14:48:30.685Z</time></trkpt><trkpt lat="43.823535" lon="12.4137569"><ele>663.0</ele><time>2026-04-06T14:48:31.684Z</time></trkpt><trkpt lat="43.8236265" lon="12.4135305"><ele>666.0</ele><time>2026-04-06T14:48:32.683Z</time></trkpt><trkpt lat="43.8237147" lon="12.4133114"><ele>669.0</ele><time>2026-04-06T14:48:33.685Z</time></trkpt><trkpt lat="43.8238054" lon="12.4130982"><ele>672.0</ele><time>2026-04-06T14:48:34.685Z</time></trkpt><trkpt lat="43.8239003" lon="12.4128891"><ele>672.0</ele><time>2026-04-06T14:48:35.685Z</time></trkpt><trkpt lat="43.8239893" lon="12.4126786"><ele>672.0</ele><time>2026-04-06T14:48:36.685Z</time></trkpt><trkpt lat="43.8240696" lon="12.4124686"><ele>672.0</ele><time>2026-04-06T14:48:37.686Z</time></trkpt><trkpt lat="43.8241466" lon="12.4122764"><ele>670.5</ele><time>2026-04-06T14:48:38.684Z</time></trkpt><trkpt lat="43.8242219" lon="12.4120985"><ele>669.0</ele><time>2026-04-06T14:48:39.687Z</time></trkpt><trkpt lat="43.8242872" lon="12.4119466"><ele>667.5</ele><time>2026-04-06T14:48:40.686Z</time></trkpt><trkpt lat="43.8243422" lon="12.4118069"><ele>666.0</ele><time>2026-04-06T14:48:41.686Z</time></trkpt><trkpt lat="43.8243823" lon="12.4116817"><ele>665.8</ele><time>2026-04-06T14:48:42.684Z</time></trkpt><trkpt lat="43.8244086" lon="12.4115676"><ele>665.5999999999999</ele><time>2026-04-06T14:48:43.689Z</time></trkpt><trkpt lat="43.8244177" lon="12.4114535"><ele>665.4</ele><time>2026-04-06T14:48:44.686Z</time></trkpt><trkpt lat="43.8244089" lon="12.4113155"><ele>665.2</ele><time>2026-04-06T14:48:45.687Z</time></trkpt><trkpt lat="43.8243787" lon="12.4111509"><ele>665.0</ele><time>2026-04-06T14:48:46.687Z</time></trkpt><trkpt lat="43.824325" lon="12.4109469"><ele>664.6666666666666</ele><time>2026-04-06T14:48:47.687Z</time></trkpt><trkpt lat="43.8242588" lon="12.4107201"><ele>664.3333333333334</ele><time>2026-04-06T14:48:48.691Z</time></trkpt><trkpt lat="43.8241864" lon="12.4104934"><ele>664.0</ele><time>2026-04-06T14:48:49.686Z</time></trkpt><trkpt lat="43.824114" lon="12.4102785"><ele>664.0</ele><time>2026-04-06T14:48:50.684Z</time></trkpt><trkpt lat="43.8240457" lon="12.4100723"><ele>664.0</ele><time>2026-04-06T14:48:51.683Z</time></trkpt><trkpt lat="43.8239813" lon="12.4098723"><ele>664.0</ele><time>2026-04-06T14:48:52.686Z</time></trkpt><trkpt lat="43.8239241" lon="12.4096794"><ele>663.0</ele><time>2026-04-06T14:48:53.686Z</time></trkpt><trkpt lat="43.8238774" lon="12.4094935"><ele>662.0</ele><time>2026-04-06T14:48:54.686Z</time></trkpt><trkpt lat="43.8238345" lon="12.409309"><ele>661.0</ele><time>2026-04-06T14:48:55.687Z</time></trkpt><trkpt lat="43.8237935" lon="12.4091291"><ele>660.0</ele><time>2026-04-06T14:48:56.684Z</time></trkpt><trkpt lat="43.823757" lon="12.4089521"><ele>660.75</ele><time>2026-04-06T14:48:57.686Z</time></trkpt><trkpt lat="43.8237371" lon="12.4087767"><ele>661.5</ele><time>2026-04-06T14:48:58.685Z</time></trkpt><trkpt lat="43.8237415" lon="12.4086044"><ele>662.25</ele><time>2026-04-06T14:48:59.688Z</time></trkpt><trkpt lat="43.8237669" lon="12.408439"><ele>663.0</ele><time>2026-04-06T14:49:00.687Z</time></trkpt><trkpt lat="43.8238099" lon="12.4082936"><ele>663.0</ele><time>2026-04-06T14:49:01.687Z</time></trkpt><trkpt lat="43.8238735" lon="12.4081774"><ele>663.0</ele><time>2026-04-06T14:49:02.685Z</time></trkpt><trkpt lat="43.8239424" lon="12.4080864"><ele>663.0</ele><time>2026-04-06T14:49:03.688Z</time></trkpt><trkpt lat="43.8240085" lon="12.4080083"><ele>663.0</ele><time>2026-04-06T14:49:04.686Z</time></trkpt><trkpt lat="43.8240654" lon="12.4079319"><ele>663.0</ele><time>2026-04-06T14:49:05.682Z</time></trkpt><trkpt lat="43.8241055" lon="12.4078488"><ele>663.0</ele><time>2026-04-06T14:49:06.686Z</time></trkpt><trkpt lat="43.8241301" lon="12.4077508"><ele>662.8</ele><time>2026-04-06T14:49:07.686Z</time></trkpt><trkpt lat="43.8241442" lon="12.4076535"><ele>662.5999999999999</ele><time>2026-04-06T14:49:08.683Z</time></trkpt><trkpt lat="43.8241611" lon="12.4075692"><ele>662.4000000000001</ele><time>2026-04-06T14:49:09.685Z</time></trkpt><trkpt lat="43.8242003" lon="12.4074503"><ele>662.2</ele><time>2026-04-06T14:49:11.685Z</time></trkpt><trkpt lat="43.8242764" lon="12.4074282"><ele>662.0</ele><time>2026-04-06T14:49:13.685Z</time></trkpt><trkpt lat="43.824386" lon="12.4075725"><ele>658.6666666666666</ele><time>2026-04-06T14:49:15.684Z</time></trkpt><trkpt lat="43.8244488" lon="12.4076625"><ele>655.3333333333333</ele><time>2026-04-06T14:49:16.685Z</time></trkpt><trkpt lat="43.824511" lon="12.4077301"><ele>652.0</ele><time>2026-04-06T14:49:17.689Z</time></trkpt><trkpt lat="43.824575" lon="12.4077737"><ele>648.6666666666666</ele><time>2026-04-06T14:49:18.685Z</time></trkpt><trkpt lat="43.8246404" lon="12.4077946"><ele>645.3333333333334</ele><time>2026-04-06T14:49:19.686Z</time></trkpt><trkpt lat="43.824751" lon="12.4077687"><ele>642.0</ele><time>2026-04-06T14:49:21.684Z</time></trkpt><trkpt lat="43.824795" lon="12.4076422"><ele>642.0</ele><time>2026-04-06T14:49:23.685Z</time></trkpt><trkpt lat="43.8247752" lon="12.407524"><ele>642.0</ele><time>2026-04-06T14:49:24.686Z</time></trkpt><trkpt lat="43.8247455" lon="12.4073981"><ele>642.0</ele><time>2026-04-06T14:49:25.687Z</time></trkpt><trkpt lat="43.8247023" lon="12.407274"><ele>642.0</ele><time>2026-04-06T14:49:26.686Z</time></trkpt><trkpt lat="43.8246446" lon="12.4071544"><ele>642.0</ele><time>2026-04-06T14:49:27.686Z</time></trkpt><trkpt lat="43.8245605" lon="12.4070385"><ele>643.25</ele><time>2026-04-06T14:49:28.685Z</time></trkpt><trkpt lat="43.824467" lon="12.4069231"><ele>644.5</ele><time>2026-04-06T14:49:29.686Z</time></trkpt><trkpt lat="43.8243785" lon="12.4068097"><ele>645.75</ele><time>2026-04-06T14:49:30.684Z</time></trkpt><trkpt lat="43.8242926" lon="12.4067036"><ele>647.0</ele><time>2026-04-06T14:49:31.686Z</time></trkpt><trkpt lat="43.8242123" lon="12.4066005"><ele>647.0</ele><time>2026-04-06T14:49:32.687Z</time></trkpt><trkpt lat="43.8241376" lon="12.4065018"><ele>647.0</ele><time>2026-04-06T14:49:33.686Z</time></trkpt><trkpt lat="43.8240711" lon="12.4064123"><ele>647.0</ele><time>2026-04-06T14:49:34.685Z</time></trkpt><trkpt lat="43.8240117" lon="12.4063295"><ele>647.0</ele><time>2026-04-06T14:49:35.686Z</time></trkpt><trkpt lat="43.8239567" lon="12.4062542"><ele>647.0</ele><time>2026-04-06T14:49:36.684Z</time></trkpt><trkpt lat="43.8239067" lon="12.4061881"><ele>647.0</ele><time>2026-04-06T14:49:37.685Z</time></trkpt><trkpt lat="43.823848" lon="12.4060897"><ele>647.0</ele><time>2026-04-06T14:49:39.685Z</time></trkpt><trkpt lat="43.8239075" lon="12.4060581"><ele>647.0</ele><time>2026-04-06T14:49:43.686Z</time></trkpt><trkpt lat="43.8239627" lon="12.4061178"><ele>647.0</ele><time>2026-04-06T14:49:44.683Z</time></trkpt><trkpt lat="43.8240359" lon="12.406201"><ele>647.0</ele><time>2026-04-06T14:49:45.687Z</time></trkpt><trkpt lat="43.8241434" lon="12.4063148"><ele>647.0</ele><time>2026-04-06T14:49:46.686Z</time></trkpt><trkpt lat="43.8242736" lon="12.406432"><ele>642.3333333333333</ele><time>2026-04-06T14:49:47.685Z</time></trkpt><trkpt lat="43.8244187" lon="12.4065267"><ele>637.6666666666666</ele><time>2026-04-06T14:49:48.684Z</time></trkpt><trkpt lat="43.8245767" lon="12.4065884"><ele>633.0</ele><time>2026-04-06T14:49:49.685Z</time></trkpt><trkpt lat="43.8247589" lon="12.4066143"><ele>633.0</ele><time>2026-04-06T14:49:50.686Z</time></trkpt><trkpt lat="43.8249525" lon="12.4066169"><ele>633.0</ele><time>2026-04-06T14:49:51.685Z</time></trkpt><trkpt lat="43.8251481" lon="12.4065984"><ele>633.0</ele><time>2026-04-06T14:49:52.686Z</time></trkpt><trkpt lat="43.8253345" lon="12.406573"><ele>631.0</ele><time>2026-04-06T14:49:53.683Z</time></trkpt><trkpt lat="43.8255088" lon="12.4065543"><ele>629.0</ele><time>2026-04-06T14:49:54.685Z</time></trkpt><trkpt lat="43.8256735" lon="12.4065595"><ele>627.0</ele><time>2026-04-06T14:49:55.686Z</time></trkpt><trkpt lat="43.8258227" lon="12.4065886"><ele>627.0</ele><time>2026-04-06T14:49:56.685Z</time></trkpt><trkpt lat="43.8259595" lon="12.4066443"><ele>627.0</ele><time>2026-04-06T14:49:57.686Z</time></trkpt><trkpt lat="43.8260826" lon="12.4067302"><ele>627.0</ele><time>2026-04-06T14:49:58.684Z</time></trkpt><trkpt lat="43.8262022" lon="12.4068634"><ele>627.0</ele><time>2026-04-06T14:49:59.686Z</time></trkpt><trkpt lat="43.8263137" lon="12.407033"><ele>624.0</ele><time>2026-04-06T14:50:00.685Z</time></trkpt><trkpt lat="43.8264132" lon="12.4072409"><ele>621.0</ele><time>2026-04-06T14:50:01.686Z</time></trkpt><trkpt lat="43.8265006" lon="12.407479"><ele>618.0</ele><time>2026-04-06T14:50:02.686Z</time></trkpt><trkpt lat="43.8265762" lon="12.4077278"><ele>618.0</ele><time>2026-04-06T14:50:03.685Z</time></trkpt><trkpt lat="43.82665" lon="12.40798"><ele>618.0</ele><time>2026-04-06T14:50:04.684Z</time></trkpt><trkpt lat="43.8267217" lon="12.4082"><ele>618.0</ele><time>2026-04-06T14:50:05.688Z</time></trkpt><trkpt lat="43.8267917" lon="12.4084"><ele>618.25</ele><time>2026-04-06T14:50:06.686Z</time></trkpt><trkpt lat="43.826865" lon="12.4085667"><ele>618.5</ele><time>2026-04-06T14:50:07.685Z</time></trkpt><trkpt lat="43.82696" lon="12.4086917"><ele>618.75</ele><time>2026-04-06T14:50:08.687Z</time></trkpt><trkpt lat="43.8270867" lon="12.4087533"><ele>619.0</ele><time>2026-04-06T14:50:09.686Z</time></trkpt><trkpt lat="43.82723" lon="12.4087883"><ele>619.0</ele><time>2026-04-06T14:50:10.684Z</time></trkpt><trkpt lat="43.8273933" lon="12.4088017"><ele>619.0</ele><time>2026-04-06T14:50:11.688Z</time></trkpt><trkpt lat="43.8275683" lon="12.4088"><ele>619.0</ele><time>2026-04-06T14:50:12.686Z</time></trkpt><trkpt lat="43.82775" lon="12.4088033"><ele>620.0</ele><time>2026-04-06T14:50:13.688Z</time></trkpt><trkpt lat="43.8279333" lon="12.4088167"><ele>621.0</ele><time>2026-04-06T14:50:14.686Z</time></trkpt><trkpt lat="43.8281117" lon="12.4088317"><ele>622.0</ele><time>2026-04-06T14:50:15.685Z</time></trkpt><trkpt lat="43.82828" lon="12.40887"><ele>622.0</ele><time>2026-04-06T14:50:16.685Z</time></trkpt><trkpt lat="43.8284367" lon="12.408945"><ele>622.0</ele><time>2026-04-06T14:50:17.687Z</time></trkpt><trkpt lat="43.8285783" lon="12.4090667"><ele>622.0</ele><time>2026-04-06T14:50:18.683Z</time></trkpt><trkpt lat="43.828715" lon="12.4092117"><ele>618.3333333333334</ele><time>2026-04-06T14:50:19.688Z</time></trkpt><trkpt lat="43.8288517" lon="12.40934"><ele>614.6666666666666</ele><time>2026-04-06T14:50:20.686Z</time></trkpt><trkpt lat="43.828995" lon="12.409445"><ele>611.0</ele><time>2026-04-06T14:50:21.684Z</time></trkpt><trkpt lat="43.8291567" lon="12.4095217"><ele>609.0</ele><time>2026-04-06T14:50:22.686Z</time></trkpt><trkpt lat="43.8293433" lon="12.4095517"><ele>607.0</ele><time>2026-04-06T14:50:23.684Z</time></trkpt><trkpt lat="43.8295383" lon="12.4095683"><ele>605.0</ele><time>2026-04-06T14:50:24.687Z</time></trkpt><trkpt lat="43.829735" lon="12.40959"><ele>605.0</ele><time>2026-04-06T14:50:25.686Z</time></trkpt><trkpt lat="43.8299117" lon="12.4096233"><ele>605.0</ele><time>2026-04-06T14:50:26.686Z</time></trkpt><trkpt lat="43.830065" lon="12.4096617"><ele>605.0</ele><time>2026-04-06T14:50:27.684Z</time></trkpt><trkpt lat="43.8301933" lon="12.40972"><ele>603.75</ele><time>2026-04-06T14:50:28.684Z</time></trkpt><trkpt lat="43.8302967" lon="12.4098067"><ele>602.5</ele><time>2026-04-06T14:50:29.685Z</time></trkpt><trkpt lat="43.830375" lon="12.4099417"><ele>601.25</ele><time>2026-04-06T14:50:30.684Z</time></trkpt><trkpt lat="43.830415" lon="12.4101233"><ele>600.0</ele><time>2026-04-06T14:50:31.687Z</time></trkpt><trkpt lat="43.830435" lon="12.41035"><ele>600.3333333333334</ele><time>2026-04-06T14:50:32.686Z</time></trkpt><trkpt lat="43.83046" lon="12.41058"><ele>600.6666666666667</ele><time>2026-04-06T14:50:33.684Z</time></trkpt><trkpt lat="43.8304967" lon="12.4108167"><ele>601.0</ele><time>2026-04-06T14:50:34.685Z</time></trkpt><trkpt lat="43.83055" lon="12.411045"><ele>601.0</ele><time>2026-04-06T14:50:35.686Z</time></trkpt><trkpt lat="43.830625" lon="12.4112583"><ele>601.0</ele><time>2026-04-06T14:50:36.684Z</time></trkpt><trkpt lat="43.8307233" lon="12.4114517"><ele>601.0</ele><time>2026-04-06T14:50:37.686Z</time></trkpt><trkpt lat="43.83085" lon="12.411635"><ele>599.6666666666667</ele><time>2026-04-06T14:50:38.684Z</time></trkpt><trkpt lat="43.83099" lon="12.4118067"><ele>598.3333333333334</ele><time>2026-04-06T14:50:39.683Z</time></trkpt><trkpt lat="43.8311283" lon="12.41196"><ele>597.0</ele><time>2026-04-06T14:50:40.684Z</time></trkpt><trkpt lat="43.8312617" lon="12.4120933"><ele>598.8000000000001</ele><time>2026-04-06T14:50:41.686Z</time></trkpt><trkpt lat="43.8313817" lon="12.4122067"><ele>600.6</ele><time>2026-04-06T14:50:42.684Z</time></trkpt><trkpt lat="43.831485" lon="12.4122967"><ele>602.4000000000001</ele><time>2026-04-06T14:50:43.687Z</time></trkpt><trkpt lat="43.83157" lon="12.4123583"><ele>604.2</ele><time>2026-04-06T14:50:44.686Z</time></trkpt><trkpt lat="43.8316317" lon="12.4124067"><ele>606.0</ele><time>2026-04-06T14:50:45.686Z</time></trkpt><trkpt lat="43.8316917" lon="12.412455"><ele>606.0</ele><time>2026-04-06T14:50:47.686Z</time></trkpt><trkpt lat="43.8316517" lon="12.4123783"><ele>606.0</ele><time>2026-04-06T14:50:51.685Z</time></trkpt><trkpt lat="43.8316317" lon="12.4122817"><ele>606.0</ele><time>2026-04-06T14:50:53.687Z</time></trkpt><trkpt lat="43.831715" lon="12.412165"><ele>606.0</ele><time>2026-04-06T14:50:55.685Z</time></trkpt><trkpt lat="43.8317933" lon="12.412095"><ele>606.0</ele><time>2026-04-06T14:50:56.684Z</time></trkpt><trkpt lat="43.8318617" lon="12.4120317"><ele>606.0</ele><time>2026-04-06T14:50:57.686Z</time></trkpt><trkpt lat="43.8319333" lon="12.411955"><ele>601.4</ele><time>2026-04-06T14:50:58.686Z</time></trkpt><trkpt lat="43.832015" lon="12.411875"><ele>596.8</ele><time>2026-04-06T14:50:59.686Z</time></trkpt><trkpt lat="43.8321067" lon="12.411785"><ele>592.1999999999999</ele><time>2026-04-06T14:51:00.69Z</time></trkpt><trkpt lat="43.8322" lon="12.411695"><ele>587.6</ele><time>2026-04-06T14:51:01.686Z</time></trkpt><trkpt lat="43.832295" lon="12.4116083"><ele>583.0</ele><time>2026-04-06T14:51:02.686Z</time></trkpt><trkpt lat="43.8323933" lon="12.4115217"><ele>583.0</ele><time>2026-04-06T14:51:03.686Z</time></trkpt><trkpt lat="43.83249" lon="12.41143"><ele>583.0</ele><time>2026-04-06T14:51:04.687Z</time></trkpt><trkpt lat="43.83258" lon="12.4113433"><ele>583.0</ele><time>2026-04-06T14:51:05.685Z</time></trkpt><trkpt lat="43.8326633" lon="12.4112617"><ele>583.0</ele><time>2026-04-06T14:51:06.687Z</time></trkpt><trkpt lat="43.83274" lon="12.4111833"><ele>583.0</ele><time>2026-04-06T14:51:07.687Z</time></trkpt><trkpt lat="43.83281" lon="12.4111033"><ele>580.1666666666667</ele><time>2026-04-06T14:51:08.686Z</time></trkpt><trkpt lat="43.8328667" lon="12.4110217"><ele>577.3333333333334</ele><time>2026-04-06T14:51:09.684Z</time></trkpt><trkpt lat="43.8329183" lon="12.4109383"><ele>574.5</ele><time>2026-04-06T14:51:10.687Z</time></trkpt><trkpt lat="43.832965" lon="12.410855"><ele>571.6666666666666</ele><time>2026-04-06T14:51:11.686Z</time></trkpt><trkpt lat="43.8330117" lon="12.4107717"><ele>568.8333333333333</ele><time>2026-04-06T14:51:12.684Z</time></trkpt><trkpt lat="43.8330633" lon="12.410695"><ele>566.0</ele><time>2026-04-06T14:51:13.687Z</time></trkpt><trkpt lat="43.833125" lon="12.41062"><ele>566.0</ele><time>2026-04-06T14:51:14.686Z</time></trkpt><trkpt lat="43.83319" lon="12.4105483"><ele>566.0</ele><time>2026-04-06T14:51:15.686Z</time></trkpt><trkpt lat="43.8332617" lon="12.4104667"><ele>566.0</ele><time>2026-04-06T14:51:16.686Z</time></trkpt><trkpt lat="43.83333" lon="12.4103883"><ele>566.0</ele><time>2026-04-06T14:51:17.684Z</time></trkpt><trkpt lat="43.8333967" lon="12.4102967"><ele>566.0</ele><time>2026-04-06T14:51:18.686Z</time></trkpt><trkpt lat="43.8334633" lon="12.410205"><ele>563.2</ele><time>2026-04-06T14:51:19.686Z</time></trkpt><trkpt lat="43.8335383" lon="12.4101183"><ele>560.4000000000001</ele><time>2026-04-06T14:51:20.685Z</time></trkpt><trkpt lat="43.8336167" lon="12.41004"><ele>557.6</ele><time>2026-04-06T14:51:21.684Z</time></trkpt><trkpt lat="43.8337017" lon="12.4099667"><ele>554.8000000000001</ele><time>2026-04-06T14:51:22.684Z</time></trkpt><trkpt lat="43.83379" lon="12.40989"><ele>552.0</ele><time>2026-04-06T14:51:23.686Z</time></trkpt><trkpt lat="43.833875" lon="12.4098067"><ele>552.0</ele><time>2026-04-06T14:51:24.686Z</time></trkpt><trkpt lat="43.8339533" lon="12.4097217"><ele>552.0</ele><time>2026-04-06T14:51:25.686Z</time></trkpt><trkpt lat="43.8340383" lon="12.4096367"><ele>552.0</ele><time>2026-04-06T14:51:26.684Z</time></trkpt><trkpt lat="43.834125" lon="12.4095617"><ele>552.0</ele><time>2026-04-06T14:51:27.684Z</time></trkpt><trkpt lat="43.8342133" lon="12.4094983"><ele>552.0</ele><time>2026-04-06T14:51:28.686Z</time></trkpt><trkpt lat="43.8342933" lon="12.4094417"><ele>550.1666666666666</ele><time>2026-04-06T14:51:29.685Z</time></trkpt><trkpt lat="43.8343617" lon="12.4093933"><ele>548.3333333333334</ele><time>2026-04-06T14:51:30.685Z</time></trkpt><trkpt lat="43.83443" lon="12.4093317"><ele>546.5</ele><time>2026-04-06T14:51:31.687Z</time></trkpt><trkpt lat="43.8345017" lon="12.4092583"><ele>544.6666666666667</ele><time>2026-04-06T14:51:32.685Z</time></trkpt><trkpt lat="43.8345783" lon="12.409175"><ele>542.8333333333334</ele><time>2026-04-06T14:51:33.684Z</time></trkpt><trkpt lat="43.8346567" lon="12.4090867"><ele>541.0</ele><time>2026-04-06T14:51:34.684Z</time></trkpt><trkpt lat="43.8347367" lon="12.408995"><ele>541.0</ele><time>2026-04-06T14:51:35.687Z</time></trkpt><trkpt lat="43.83481" lon="12.40891"><ele>541.0</ele><time>2026-04-06T14:51:36.685Z</time></trkpt><trkpt lat="43.8348717" lon="12.4088317"><ele>541.0</ele><time>2026-04-06T14:51:37.686Z</time></trkpt><trkpt lat="43.8349267" lon="12.4087483"><ele>541.0</ele><time>2026-04-06T14:51:38.689Z</time></trkpt><trkpt lat="43.83498" lon="12.40866"><ele>541.0</ele><time>2026-04-06T14:51:39.684Z</time></trkpt><trkpt lat="43.8350283" lon="12.4085717"><ele>541.0</ele><time>2026-04-06T14:51:40.685Z</time></trkpt><trkpt lat="43.83507" lon="12.4084833"><ele>540.3333333333334</ele><time>2026-04-06T14:51:41.689Z</time></trkpt><trkpt lat="43.8351017" lon="12.4084033"><ele>539.6666666666667</ele><time>2026-04-06T14:51:42.686Z</time></trkpt><trkpt lat="43.83512" lon="12.4082683"><ele>539.0</ele><time>2026-04-06T14:51:44.686Z</time></trkpt><trkpt lat="43.8351217" lon="12.408145"><ele>538.3333333333334</ele><time>2026-04-06T14:51:46.686Z</time></trkpt><trkpt lat="43.835165" lon="12.4080683"><ele>537.6666666666666</ele><time>2026-04-06T14:51:50.683Z</time></trkpt><trkpt lat="43.835235" lon="12.40816"><ele>537.0</ele><time>2026-04-06T14:51:53.685Z</time></trkpt><trkpt lat="43.8352817" lon="12.4082333"><ele>534.8333333333334</ele><time>2026-04-06T14:51:54.685Z</time></trkpt><trkpt lat="43.8353317" lon="12.4083233"><ele>532.6666666666666</ele><time>2026-04-06T14:51:55.687Z</time></trkpt><trkpt lat="43.8353817" lon="12.4084217"><ele>530.5</ele><time>2026-04-06T14:51:56.684Z</time></trkpt><trkpt lat="43.835435" lon="12.4085233"><ele>528.3333333333333</ele><time>2026-04-06T14:51:57.683Z</time></trkpt><trkpt lat="43.8354917" lon="12.4086267"><ele>526.1666666666666</ele><time>2026-04-06T14:51:58.687Z</time></trkpt><trkpt lat="43.8355483" lon="12.4087233"><ele>524.0</ele><time>2026-04-06T14:51:59.683Z</time></trkpt><trkpt lat="43.8356133" lon="12.4088167"><ele>524.0</ele><time>2026-04-06T14:52:00.685Z</time></trkpt><trkpt lat="43.8356833" lon="12.408905"><ele>524.0</ele><time>2026-04-06T14:52:01.686Z</time></trkpt><trkpt lat="43.835755" lon="12.4089917"><ele>524.0</ele><time>2026-04-06T14:52:02.683Z</time></trkpt><trkpt lat="43.8358283" lon="12.409075"><ele>524.0</ele><time>2026-04-06T14:52:03.685Z</time></trkpt><trkpt lat="43.8358967" lon="12.4091733"><ele>524.0</ele><time>2026-04-06T14:52:04.685Z</time></trkpt><trkpt lat="43.8359633" lon="12.4092933"><ele>522.0</ele><time>2026-04-06T14:52:05.685Z</time></trkpt><trkpt lat="43.8360233" lon="12.4094183"><ele>520.0</ele><time>2026-04-06T14:52:06.684Z</time></trkpt><trkpt lat="43.836085" lon="12.4095367"><ele>518.0</ele><time>2026-04-06T14:52:07.686Z</time></trkpt><trkpt lat="43.83615" lon="12.4096467"><ele>516.0</ele><time>2026-04-06T14:52:08.684Z</time></trkpt><trkpt lat="43.8362267" lon="12.4097467"><ele>514.0</ele><time>2026-04-06T14:52:09.687Z</time></trkpt><trkpt lat="43.83631" lon="12.4098367"><ele>514.0</ele><time>2026-04-06T14:52:10.684Z</time></trkpt><trkpt lat="43.8363917" lon="12.4099333"><ele>514.0</ele><time>2026-04-06T14:52:11.685Z</time></trkpt><trkpt lat="43.8364633" lon="12.4100583"><ele>514.0</ele><time>2026-04-06T14:52:12.686Z</time></trkpt><trkpt lat="43.83652" lon="12.4101983"><ele>514.0</ele><time>2026-04-06T14:52:13.685Z</time></trkpt><trkpt lat="43.8365683" lon="12.410345"><ele>514.0</ele><time>2026-04-06T14:52:14.686Z</time></trkpt><trkpt lat="43.836625" lon="12.4104867"><ele>514.0</ele><time>2026-04-06T14:52:15.685Z</time></trkpt><trkpt lat="43.8367017" lon="12.4106183"><ele>514.0</ele><time>2026-04-06T14:52:16.687Z</time></trkpt><trkpt lat="43.8367967" lon="12.410745"><ele>514.0</ele><time>2026-04-06T14:52:17.682Z</time></trkpt><trkpt lat="43.836905" lon="12.410875"><ele>515.5</ele><time>2026-04-06T14:52:18.686Z</time></trkpt><trkpt lat="43.837015" lon="12.4109967"><ele>517.0</ele><time>2026-04-06T14:52:19.686Z</time></trkpt><trkpt lat="43.8371133" lon="12.4111067"><ele>518.5</ele><time>2026-04-06T14:52:20.684Z</time></trkpt><trkpt lat="43.8372" lon="12.411215"><ele>520.0</ele><time>2026-04-06T14:52:21.685Z</time></trkpt><trkpt lat="43.8372767" lon="12.411325"><ele>521.2</ele><time>2026-04-06T14:52:22.686Z</time></trkpt><trkpt lat="43.83734" lon="12.4114283"><ele>522.4</ele><time>2026-04-06T14:52:23.685Z</time></trkpt><trkpt lat="43.8373917" lon="12.4115317"><ele>523.6</ele><time>2026-04-06T14:52:24.685Z</time></trkpt><trkpt lat="43.83744" lon="12.4116417"><ele>524.8</ele><time>2026-04-06T14:52:25.686Z</time></trkpt><trkpt lat="43.8374733" lon="12.411765"><ele>526.0</ele><time>2026-04-06T14:52:26.684Z</time></trkpt><trkpt lat="43.8374867" lon="12.4119133"><ele>526.0</ele><time>2026-04-06T14:52:27.684Z</time></trkpt><trkpt lat="43.8374883" lon="12.4120767"><ele>526.0</ele><time>2026-04-06T14:52:28.687Z</time></trkpt><trkpt lat="43.8374867" lon="12.41225"><ele>526.0</ele><time>2026-04-06T14:52:29.685Z</time></trkpt><trkpt lat="43.8374867" lon="12.4124283"><ele>526.0</ele><time>2026-04-06T14:52:30.685Z</time></trkpt><trkpt lat="43.8374917" lon="12.412605"><ele>525.75</ele><time>2026-04-06T14:52:31.686Z</time></trkpt><trkpt lat="43.8375067" lon="12.4127733"><ele>525.5</ele><time>2026-04-06T14:52:32.684Z</time></trkpt><trkpt lat="43.8375533" lon="12.412935"><ele>525.25</ele><time>2026-04-06T14:52:33.683Z</time></trkpt><trkpt lat="43.837625" lon="12.4130917"><ele>525.0</ele><time>2026-04-06T14:52:34.686Z</time></trkpt><trkpt lat="43.83771" lon="12.4132333"><ele>524.4</ele><time>2026-04-06T14:52:35.689Z</time></trkpt><trkpt lat="43.8377983" lon="12.41335"><ele>523.8</ele><time>2026-04-06T14:52:36.684Z</time></trkpt><trkpt lat="43.837885" lon="12.4134433"><ele>523.2</ele><time>2026-04-06T14:52:37.686Z</time></trkpt><trkpt lat="43.837975" lon="12.41351"><ele>522.6</ele><time>2026-04-06T14:52:38.686Z</time></trkpt><trkpt lat="43.8380567" lon="12.4135617"><ele>522.0</ele><time>2026-04-06T14:52:39.685Z</time></trkpt><trkpt lat="43.838125" lon="12.4136017"><ele>522.0</ele><time>2026-04-06T14:52:40.685Z</time></trkpt><trkpt lat="43.8382083" lon="12.4136383"><ele>522.0</ele><time>2026-04-06T14:52:42.685Z</time></trkpt><trkpt lat="43.83827" lon="12.4136567"><ele>522.0</ele><time>2026-04-06T14:52:43.687Z</time></trkpt><trkpt lat="43.8383433" lon="12.413675"><ele>522.0</ele><time>2026-04-06T14:52:44.686Z</time></trkpt><trkpt lat="43.8384333" lon="12.4137067"><ele>522.0</ele><time>2026-04-06T14:52:45.686Z</time></trkpt><trkpt lat="43.83853" lon="12.4137683"><ele>522.0</ele><time>2026-04-06T14:52:46.684Z</time></trkpt><trkpt lat="43.8386167" lon="12.4138383"><ele>521.25</ele><time>2026-04-06T14:52:47.689Z</time></trkpt><trkpt lat="43.8387133" lon="12.413915"><ele>520.5</ele><time>2026-04-06T14:52:48.686Z</time></trkpt><trkpt lat="43.8388033" lon="12.4140167"><ele>519.75</ele><time>2026-04-06T14:52:49.685Z</time></trkpt><trkpt lat="43.8388917" lon="12.4141467"><ele>519.0</ele><time>2026-04-06T14:52:50.686Z</time></trkpt><trkpt lat="43.8389767" lon="12.4142983"><ele>519.0</ele><time>2026-04-06T14:52:51.684Z</time></trkpt><trkpt lat="43.8390617" lon="12.4144633"><ele>519.0</ele><time>2026-04-06T14:52:52.686Z</time></trkpt><trkpt lat="43.8391483" lon="12.4146283"><ele>519.0</ele><time>2026-04-06T14:52:53.691Z</time></trkpt><trkpt lat="43.83923" lon="12.41479"><ele>519.0</ele><time>2026-04-06T14:52:54.686Z</time></trkpt><trkpt lat="43.8393133" lon="12.4149417"><ele>516.25</ele><time>2026-04-06T14:52:55.687Z</time></trkpt><trkpt lat="43.8394117" lon="12.4150683"><ele>513.5</ele><time>2026-04-06T14:52:56.685Z</time></trkpt><trkpt lat="43.83953" lon="12.41516"><ele>510.75</ele><time>2026-04-06T14:52:57.685Z</time></trkpt><trkpt lat="43.839665" lon="12.4152083"><ele>508.0</ele><time>2026-04-06T14:52:58.686Z</time></trkpt><trkpt lat="43.8398" lon="12.4152233"><ele>508.0</ele><time>2026-04-06T14:52:59.686Z</time></trkpt><trkpt lat="43.839925" lon="12.4152433"><ele>508.0</ele><time>2026-04-06T14:53:00.684Z</time></trkpt><trkpt lat="43.8400417" lon="12.415305"><ele>508.0</ele><time>2026-04-06T14:53:01.688Z</time></trkpt><trkpt lat="43.8401383" lon="12.4153967"><ele>508.0</ele><time>2026-04-06T14:53:02.685Z</time></trkpt><trkpt lat="43.8402067" lon="12.41552"><ele>505.75</ele><time>2026-04-06T14:53:03.683Z</time></trkpt><trkpt lat="43.8402533" lon="12.4156717"><ele>503.5</ele><time>2026-04-06T14:53:04.686Z</time></trkpt><trkpt lat="43.8403067" lon="12.4158367"><ele>501.25</ele><time>2026-04-06T14:53:05.688Z</time></trkpt><trkpt lat="43.840385" lon="12.416"><ele>499.0</ele><time>2026-04-06T14:53:06.687Z</time></trkpt><trkpt lat="43.84048" lon="12.4161533"><ele>499.0</ele><time>2026-04-06T14:53:07.686Z</time></trkpt><trkpt lat="43.8405717" lon="12.4163"><ele>499.0</ele><time>2026-04-06T14:53:08.686Z</time></trkpt><trkpt lat="43.840645" lon="12.4164683"><ele>499.0</ele><time>2026-04-06T14:53:09.685Z</time></trkpt><trkpt lat="43.8407" lon="12.41665"><ele>499.0</ele><time>2026-04-06T14:53:10.686Z</time></trkpt><trkpt lat="43.840745" lon="12.4168283"><ele>499.25</ele><time>2026-04-06T14:53:11.684Z</time></trkpt><trkpt lat="43.8408033" lon="12.4169933"><ele>499.5</ele><time>2026-04-06T14:53:12.685Z</time></trkpt><trkpt lat="43.8408817" lon="12.417135"><ele>499.75</ele><time>2026-04-06T14:53:13.686Z</time></trkpt><trkpt lat="43.8409933" lon="12.4172583"><ele>500.0</ele><time>2026-04-06T14:53:14.686Z</time></trkpt><trkpt lat="43.8411217" lon="12.4173717"><ele>497.3333333333333</ele><time>2026-04-06T14:53:15.686Z</time></trkpt><trkpt lat="43.8412633" lon="12.41748"><ele>494.66666666666663</ele><time>2026-04-06T14:53:16.685Z</time></trkpt><trkpt lat="43.841405" lon="12.417595"><ele>492.0</ele><time>2026-04-06T14:53:17.685Z</time></trkpt><trkpt lat="43.8415583" lon="12.41771"><ele>492.0</ele><time>2026-04-06T14:53:18.686Z</time></trkpt><trkpt lat="43.84171" lon="12.41782"><ele>492.0</ele><time>2026-04-06T14:53:19.685Z</time></trkpt><trkpt lat="43.841865" lon="12.4179233"><ele>492.0</ele><time>2026-04-06T14:53:20.685Z</time></trkpt><trkpt lat="43.842005" lon="12.418015"><ele>490.75</ele><time>2026-04-06T14:53:21.684Z</time></trkpt><trkpt lat="43.8421433" lon="12.4180983"><ele>489.5</ele><time>2026-04-06T14:53:22.689Z</time></trkpt><trkpt lat="43.842265" lon="12.41817"><ele>488.25</ele><time>2026-04-06T14:53:23.686Z</time></trkpt><trkpt lat="43.8423717" lon="12.418235"><ele>487.0</ele><time>2026-04-06T14:53:24.684Z</time></trkpt><trkpt lat="43.842465" lon="12.41829"><ele>487.00000000000006</ele><time>2026-04-06T14:53:25.685Z</time></trkpt><trkpt lat="43.842545" lon="12.4183317"><ele>487.0</ele><time>2026-04-06T14:53:26.686Z</time></trkpt><trkpt lat="43.842615" lon="12.41836"><ele>487.0</ele><time>2026-04-06T14:53:27.684Z</time></trkpt><trkpt lat="43.8426967" lon="12.4183717"><ele>487.0</ele><time>2026-04-06T14:53:29.687Z</time></trkpt><trkpt lat="43.8427483" lon="12.4182567"><ele>487.00000000000006</ele><time>2026-04-06T14:55:03.685Z</time></trkpt><trkpt lat="43.8427433" lon="12.4181533"><ele>487.0</ele><time>2026-04-06T14:55:04.685Z</time></trkpt><trkpt lat="43.842715" lon="12.4180467"><ele>485.6</ele><time>2026-04-06T14:55:05.68Z</time></trkpt><trkpt lat="43.842675" lon="12.4179367"><ele>484.20000000000005</ele><time>2026-04-06T14:55:06.686Z</time></trkpt><trkpt lat="43.8426017" lon="12.4178133"><ele>482.8</ele><time>2026-04-06T14:55:07.686Z</time></trkpt><trkpt lat="43.8425067" lon="12.4177167"><ele>481.4</ele><time>2026-04-06T14:55:08.685Z</time></trkpt><trkpt lat="43.842415" lon="12.4176183"><ele>480.0</ele><time>2026-04-06T14:55:09.685Z</time></trkpt><trkpt lat="43.842335" lon="12.4175183"><ele>480.0</ele><time>2026-04-06T14:55:10.683Z</time></trkpt><trkpt lat="43.842275" lon="12.4174067"><ele>480.0</ele><time>2026-04-06T14:55:11.683Z</time></trkpt><trkpt lat="43.8422533" lon="12.4172917"><ele>480.0</ele><time>2026-04-06T14:55:12.684Z</time></trkpt><trkpt lat="43.84225" lon="12.4171683"><ele>480.0</ele><time>2026-04-06T14:55:13.685Z</time></trkpt><trkpt lat="43.8422967" lon="12.41705"><ele>480.0</ele><time>2026-04-06T14:55:14.684Z</time></trkpt><trkpt lat="43.8423867" lon="12.4169633"><ele>478.75</ele><time>2026-04-06T14:55:15.685Z</time></trkpt><trkpt lat="43.8425133" lon="12.4169167"><ele>477.5</ele><time>2026-04-06T14:55:16.684Z</time></trkpt><trkpt lat="43.8426683" lon="12.4168817"><ele>476.25</ele><time>2026-04-06T14:55:17.684Z</time></trkpt><trkpt lat="43.8428267" lon="12.4168567"><ele>475.0</ele><time>2026-04-06T14:55:18.685Z</time></trkpt><trkpt lat="43.8429633" lon="12.4168433"><ele>473.75</ele><time>2026-04-06T14:55:19.686Z</time></trkpt><trkpt lat="43.843085" lon="12.4168717"><ele>472.5</ele><time>2026-04-06T14:55:20.686Z</time></trkpt><trkpt lat="43.8432033" lon="12.4169567"><ele>471.25</ele><time>2026-04-06T14:55:21.684Z</time></trkpt><trkpt lat="43.8433067" lon="12.4170717"><ele>470.0</ele><time>2026-04-06T14:55:22.684Z</time></trkpt><trkpt lat="43.8434017" lon="12.417185"><ele>466.25</ele><time>2026-04-06T14:55:23.684Z</time></trkpt><trkpt lat="43.843505" lon="12.41727"><ele>462.5</ele><time>2026-04-06T14:55:24.685Z</time></trkpt><trkpt lat="43.8436133" lon="12.4173133"><ele>458.75</ele><time>2026-04-06T14:55:25.685Z</time></trkpt><trkpt lat="43.843725" lon="12.417305"><ele>455.0</ele><time>2026-04-06T14:55:26.682Z</time></trkpt><trkpt lat="43.8438483" lon="12.417245"><ele>455.0</ele><time>2026-04-06T14:55:27.686Z</time></trkpt><trkpt lat="43.84399" lon="12.4171533"><ele>455.0</ele><time>2026-04-06T14:55:28.684Z</time></trkpt><trkpt lat="43.844145" lon="12.41706"><ele>455.0</ele><time>2026-04-06T14:55:29.687Z</time></trkpt><trkpt lat="43.84431" lon="12.416965"><ele>457.0</ele><time>2026-04-06T14:55:30.684Z</time></trkpt><trkpt lat="43.84448" lon="12.41686"><ele>459.0</ele><time>2026-04-06T14:55:31.684Z</time></trkpt><trkpt lat="43.8446433" lon="12.4167567"><ele>461.0</ele><time>2026-04-06T14:55:32.682Z</time></trkpt><trkpt lat="43.8447983" lon="12.4166633"><ele>461.0</ele><time>2026-04-06T14:55:33.683Z</time></trkpt><trkpt lat="43.8449433" lon="12.4165817"><ele>461.0</ele><time>2026-04-06T14:55:34.685Z</time></trkpt><trkpt lat="43.8450783" lon="12.4165117"><ele>461.0</ele><time>2026-04-06T14:55:35.685Z</time></trkpt><trkpt lat="43.8452017" lon="12.4164783"><ele>461.0</ele><time>2026-04-06T14:55:36.685Z</time></trkpt><trkpt lat="43.8453183" lon="12.41649"><ele>464.20000000000005</ele><time>2026-04-06T14:55:37.684Z</time></trkpt><trkpt lat="43.8454167" lon="12.4165517"><ele>467.40000000000003</ele><time>2026-04-06T14:55:38.682Z</time></trkpt><trkpt lat="43.84549" lon="12.4166533"><ele>470.6</ele><time>2026-04-06T14:55:39.683Z</time></trkpt><trkpt lat="43.8455467" lon="12.4167867"><ele>473.8</ele><time>2026-04-06T14:55:40.683Z</time></trkpt><trkpt lat="43.84559" lon="12.4169483"><ele>477.0</ele><time>2026-04-06T14:55:41.687Z</time></trkpt><trkpt lat="43.8456317" lon="12.4171333"><ele>477.0</ele><time>2026-04-06T14:55:42.684Z</time></trkpt><trkpt lat="43.8456667" lon="12.41734"><ele>477.0</ele><time>2026-04-06T14:55:43.685Z</time></trkpt><trkpt lat="43.8457" lon="12.41755"><ele>477.0</ele><time>2026-04-06T14:55:44.686Z</time></trkpt><trkpt lat="43.845735" lon="12.4177517"><ele>477.0</ele><time>2026-04-06T14:55:45.684Z</time></trkpt><trkpt lat="43.84577" lon="12.4179417"><ele>477.0</ele><time>2026-04-06T14:55:46.686Z</time></trkpt><trkpt lat="43.8458017" lon="12.4181217"><ele>477.0</ele><time>2026-04-06T14:55:47.685Z</time></trkpt><trkpt lat="43.84584" lon="12.4182917"><ele>477.0</ele><time>2026-04-06T14:55:48.684Z</time></trkpt><trkpt lat="43.8458833" lon="12.4184367"><ele>476.8</ele><time>2026-04-06T14:55:49.687Z</time></trkpt><trkpt lat="43.8459233" lon="12.4185583"><ele>476.6</ele><time>2026-04-06T14:55:50.686Z</time></trkpt><trkpt lat="43.8459583" lon="12.4186483"><ele>476.40000000000003</ele><time>2026-04-06T14:55:51.686Z</time></trkpt><trkpt lat="43.84599" lon="12.4187333"><ele>476.20000000000005</ele><time>2026-04-06T14:55:54.686Z</time></trkpt><trkpt lat="43.8460333" lon="12.4188417"><ele>476.0</ele><time>2026-04-06T14:55:57.686Z</time></trkpt><trkpt lat="43.8461267" lon="12.4189867"><ele>476.0</ele><time>2026-04-06T14:55:59.685Z</time></trkpt><trkpt lat="43.846195" lon="12.41909"><ele>476.0</ele><time>2026-04-06T14:56:00.686Z</time></trkpt><trkpt lat="43.8462683" lon="12.4192083"><ele>476.0</ele><time>2026-04-06T14:56:01.684Z</time></trkpt><trkpt lat="43.8463433" lon="12.4193317"><ele>476.0</ele><time>2026-04-06T14:56:02.684Z</time></trkpt><trkpt lat="43.8464133" lon="12.4194467"><ele>476.0</ele><time>2026-04-06T14:56:03.685Z</time></trkpt><trkpt lat="43.8464767" lon="12.4195583"><ele>475.6</ele><time>2026-04-06T14:56:04.683Z</time></trkpt><trkpt lat="43.846515" lon="12.4196783"><ele>475.20000000000005</ele><time>2026-04-06T14:56:05.686Z</time></trkpt><trkpt lat="43.84653" lon="12.41982"><ele>474.79999999999995</ele><time>2026-04-06T14:56:06.684Z</time></trkpt><trkpt lat="43.846525" lon="12.4199733"><ele>474.4</ele><time>2026-04-06T14:56:07.685Z</time></trkpt><trkpt lat="43.846495" lon="12.42012"><ele>474.0</ele><time>2026-04-06T14:56:08.69Z</time></trkpt><trkpt lat="43.8464533" lon="12.4202617"><ele>474.0</ele><time>2026-04-06T14:56:09.683Z</time></trkpt><trkpt lat="43.8464067" lon="12.4204"><ele>474.0</ele><time>2026-04-06T14:56:10.685Z</time></trkpt><trkpt lat="43.8463667" lon="12.4205467"><ele>474.0</ele><time>2026-04-06T14:56:11.684Z</time></trkpt><trkpt lat="43.8463283" lon="12.420695"><ele>474.0</ele><time>2026-04-06T14:56:12.684Z</time></trkpt><trkpt lat="43.8462967" lon="12.4208517"><ele>475.5</ele><time>2026-04-06T14:56:13.686Z</time></trkpt><trkpt lat="43.8462617" lon="12.4210133"><ele>477.0</ele><time>2026-04-06T14:56:14.685Z</time></trkpt><trkpt lat="43.8462283" lon="12.4211783"><ele>478.5</ele><time>2026-04-06T14:56:15.685Z</time></trkpt><trkpt lat="43.846195" lon="12.421355"><ele>480.0</ele><time>2026-04-06T14:56:16.684Z</time></trkpt><trkpt lat="43.8461667" lon="12.4215367"><ele>480.75</ele><time>2026-04-06T14:56:17.686Z</time></trkpt><trkpt lat="43.8461383" lon="12.4217217"><ele>481.5</ele><time>2026-04-06T14:56:18.684Z</time></trkpt><trkpt lat="43.8461083" lon="12.4219017"><ele>482.25</ele><time>2026-04-06T14:56:19.687Z</time></trkpt><trkpt lat="43.84608" lon="12.42208"><ele>483.0</ele><time>2026-04-06T14:56:20.686Z</time></trkpt><trkpt lat="43.84605" lon="12.422255"><ele>485.5</ele><time>2026-04-06T14:56:21.685Z</time></trkpt><trkpt lat="43.8460267" lon="12.422435"><ele>488.0</ele><time>2026-04-06T14:56:22.686Z</time></trkpt><trkpt lat="43.8460083" lon="12.4226117"><ele>490.5</ele><time>2026-04-06T14:56:23.684Z</time></trkpt><trkpt lat="43.8460033" lon="12.4227883"><ele>493.0</ele><time>2026-04-06T14:56:24.684Z</time></trkpt><trkpt lat="43.8460083" lon="12.4229733"><ele>493.25</ele><time>2026-04-06T14:56:25.689Z</time></trkpt><trkpt lat="43.84602" lon="12.423165"><ele>493.5</ele><time>2026-04-06T14:56:26.685Z</time></trkpt><trkpt lat="43.8460467" lon="12.4233567"><ele>493.75</ele><time>2026-04-06T14:56:27.686Z</time></trkpt><trkpt lat="43.8460883" lon="12.42355"><ele>494.0</ele><time>2026-04-06T14:56:28.688Z</time></trkpt><trkpt lat="43.8461417" lon="12.4237383"><ele>492.0</ele><time>2026-04-06T14:56:29.687Z</time></trkpt><trkpt lat="43.846195" lon="12.4239233"><ele>490.0</ele><time>2026-04-06T14:56:30.686Z</time></trkpt><trkpt lat="43.8462317" lon="12.424105"><ele>488.0</ele><time>2026-04-06T14:56:31.687Z</time></trkpt><trkpt lat="43.8462367" lon="12.42428"><ele>486.0</ele><time>2026-04-06T14:56:32.685Z</time></trkpt><trkpt lat="43.8462233" lon="12.42445"><ele>486.0</ele><time>2026-04-06T14:56:33.686Z</time></trkpt><trkpt lat="43.8462" lon="12.4246083"><ele>486.0</ele><time>2026-04-06T14:56:34.685Z</time></trkpt><trkpt lat="43.8461717" lon="12.424755"><ele>486.0</ele><time>2026-04-06T14:56:35.688Z</time></trkpt><trkpt lat="43.846145" lon="12.4248983"><ele>486.0</ele><time>2026-04-06T14:56:36.686Z</time></trkpt><trkpt lat="43.8461167" lon="12.4250333"><ele>486.0</ele><time>2026-04-06T14:56:37.687Z</time></trkpt><trkpt lat="43.84608" lon="12.4251517"><ele>485.4</ele><time>2026-04-06T14:56:38.684Z</time></trkpt><trkpt lat="43.84604" lon="12.425265"><ele>484.8</ele><time>2026-04-06T14:56:39.686Z</time></trkpt><trkpt lat="43.846" lon="12.4253833"><ele>484.19999999999993</ele><time>2026-04-06T14:56:40.687Z</time></trkpt><trkpt lat="43.84596" lon="12.4255167"><ele>483.59999999999997</ele><time>2026-04-06T14:56:41.685Z</time></trkpt><trkpt lat="43.8459317" lon="12.425665"><ele>483.0</ele><time>2026-04-06T14:56:42.685Z</time></trkpt><trkpt lat="43.84591" lon="12.4258283"><ele>478.25</ele><time>2026-04-06T14:56:43.686Z</time></trkpt><trkpt lat="43.8458917" lon="12.4260083"><ele>473.5</ele><time>2026-04-06T14:56:44.686Z</time></trkpt><trkpt lat="43.8458783" lon="12.4261967"><ele>468.75</ele><time>2026-04-06T14:56:45.686Z</time></trkpt><trkpt lat="43.8458667" lon="12.426385"><ele>464.0</ele><time>2026-04-06T14:56:46.685Z</time></trkpt><trkpt lat="43.84587" lon="12.4265667"><ele>463.5</ele><time>2026-04-06T14:56:47.686Z</time></trkpt><trkpt lat="43.8458917" lon="12.4267517"><ele>463.0</ele><time>2026-04-06T14:56:48.686Z</time></trkpt><trkpt lat="43.8459217" lon="12.42693"><ele>462.5</ele><time>2026-04-06T14:56:49.687Z</time></trkpt><trkpt lat="43.8459567" lon="12.4271"><ele>462.0</ele><time>2026-04-06T14:56:50.688Z</time></trkpt><trkpt lat="43.84599" lon="12.4272583"><ele>464.25</ele><time>2026-04-06T14:56:51.685Z</time></trkpt><trkpt lat="43.8460233" lon="12.4274083"><ele>466.5</ele><time>2026-04-06T14:56:52.686Z</time></trkpt><trkpt lat="43.84606" lon="12.42756"><ele>468.75</ele><time>2026-04-06T14:56:53.684Z</time></trkpt><trkpt lat="43.846095" lon="12.4277183"><ele>471.0</ele><time>2026-04-06T14:56:54.686Z</time></trkpt><trkpt lat="43.8461317" lon="12.42788"><ele>470.25</ele><time>2026-04-06T14:56:55.685Z</time></trkpt><trkpt lat="43.846165" lon="12.4280383"><ele>469.5</ele><time>2026-04-06T14:56:56.686Z</time></trkpt><trkpt lat="43.8461967" lon="12.4281867"><ele>468.75</ele><time>2026-04-06T14:56:57.684Z</time></trkpt><trkpt lat="43.846225" lon="12.428335"><ele>468.0</ele><time>2026-04-06T14:56:58.685Z</time></trkpt><trkpt lat="43.8462517" lon="12.42849"><ele>468.0</ele><time>2026-04-06T14:56:59.685Z</time></trkpt><trkpt lat="43.8462767" lon="12.4286433"><ele>468.0</ele><time>2026-04-06T14:57:00.685Z</time></trkpt><trkpt lat="43.8463" lon="12.4287917"><ele>468.0</ele><time>2026-04-06T14:57:01.685Z</time></trkpt><trkpt lat="43.846315" lon="12.428935"><ele>471.0</ele><time>2026-04-06T14:57:02.688Z</time></trkpt></trkseg></trk></gpx>